<?xml version="1.0" encoding="UTF-8" standalone="no" ?>
<gpx xmlns="http://www.topografix.com/GPX/1/1" xmlns:xsi="http://www.w3.org/2001/XMLSchema-instance" xsi:schemaLocation="http://www.topografix.com/GPX/1/1 http://www.topografix.com/GPX/1/1/gpx.xsd" version="1.1" creator="VisuGPX - https://www.visugpx.com">
  <metadata>
    <name>trail des Glières 65 kms</name>
    <desc><![CDATA[trail des Glières - du haut des Lapiaz 2016]]></desc>
  </metadata>
  <trk>
    <name><![CDATA[trail des Glières 65 kms_1]]></name>
    <trkseg>
      <trkpt lat="45.99736" lon="6.24981">
        <ele>677</ele>
        <time>2016-10-02T04:00:00+02:00</time>
      </trkpt>
      <trkpt lat="45.99738" lon="6.24982">
        <ele>677</ele>
        <time>2016-10-02T04:00:02+02:00</time>
      </trkpt>
      <trkpt lat="45.9974" lon="6.24984">
        <ele>677</ele>
        <time>2016-10-02T04:00:04+02:00</time>
      </trkpt>
      <trkpt lat="45.99742" lon="6.24986">
        <ele>677</ele>
        <time>2016-10-02T04:00:05+02:00</time>
      </trkpt>
      <trkpt lat="45.99744" lon="6.24987">
        <ele>677</ele>
        <time>2016-10-02T04:00:08+02:00</time>
      </trkpt>
      <trkpt lat="45.99746" lon="6.2499">
        <ele>678</ele>
        <time>2016-10-02T04:00:10+02:00</time>
      </trkpt>
      <trkpt lat="45.99748" lon="6.24993">
        <ele>678</ele>
        <time>2016-10-02T04:00:12+02:00</time>
      </trkpt>
      <trkpt lat="45.9975" lon="6.24995">
        <ele>678</ele>
        <time>2016-10-02T04:00:14+02:00</time>
      </trkpt>
      <trkpt lat="45.99751" lon="6.24997">
        <ele>678</ele>
        <time>2016-10-02T04:00:16+02:00</time>
      </trkpt>
      <trkpt lat="45.99754" lon="6.24999">
        <ele>678</ele>
        <time>2016-10-02T04:00:18+02:00</time>
      </trkpt>
      <trkpt lat="45.99756" lon="6.25001">
        <ele>678</ele>
        <time>2016-10-02T04:00:20+02:00</time>
      </trkpt>
      <trkpt lat="45.99758" lon="6.25002">
        <ele>679</ele>
        <time>2016-10-02T04:00:21+02:00</time>
      </trkpt>
      <trkpt lat="45.9976" lon="6.25004">
        <ele>679</ele>
        <time>2016-10-02T04:00:23+02:00</time>
      </trkpt>
      <trkpt lat="45.99762" lon="6.25005">
        <ele>679</ele>
        <time>2016-10-02T04:00:25+02:00</time>
      </trkpt>
      <trkpt lat="45.99764" lon="6.25006">
        <ele>679</ele>
        <time>2016-10-02T04:00:27+02:00</time>
      </trkpt>
      <trkpt lat="45.99766" lon="6.25007">
        <ele>679</ele>
        <time>2016-10-02T04:00:28+02:00</time>
      </trkpt>
      <trkpt lat="45.99768" lon="6.25009">
        <ele>679</ele>
        <time>2016-10-02T04:00:30+02:00</time>
      </trkpt>
      <trkpt lat="45.9977" lon="6.2501">
        <ele>680</ele>
        <time>2016-10-02T04:00:32+02:00</time>
      </trkpt>
      <trkpt lat="45.99772" lon="6.25012">
        <ele>680</ele>
        <time>2016-10-02T04:00:34+02:00</time>
      </trkpt>
      <trkpt lat="45.99774" lon="6.25013">
        <ele>680</ele>
        <time>2016-10-02T04:00:36+02:00</time>
      </trkpt>
      <trkpt lat="45.99776" lon="6.25014">
        <ele>680</ele>
        <time>2016-10-02T04:00:38+02:00</time>
      </trkpt>
      <trkpt lat="45.99779" lon="6.25015">
        <ele>680</ele>
        <time>2016-10-02T04:00:40+02:00</time>
      </trkpt>
      <trkpt lat="45.99781" lon="6.25016">
        <ele>680</ele>
        <time>2016-10-02T04:00:42+02:00</time>
      </trkpt>
      <trkpt lat="45.99783" lon="6.25017">
        <ele>681</ele>
        <time>2016-10-02T04:00:44+02:00</time>
      </trkpt>
      <trkpt lat="45.99786" lon="6.25018">
        <ele>681</ele>
        <time>2016-10-02T04:00:46+02:00</time>
      </trkpt>
      <trkpt lat="45.99788" lon="6.25019">
        <ele>681</ele>
        <time>2016-10-02T04:00:48+02:00</time>
      </trkpt>
      <trkpt lat="45.9979" lon="6.25021">
        <ele>681</ele>
        <time>2016-10-02T04:00:50+02:00</time>
      </trkpt>
      <trkpt lat="45.99792" lon="6.25022">
        <ele>681</ele>
        <time>2016-10-02T04:00:51+02:00</time>
      </trkpt>
      <trkpt lat="45.99795" lon="6.25023">
        <ele>681</ele>
        <time>2016-10-02T04:00:53+02:00</time>
      </trkpt>
      <trkpt lat="45.99797" lon="6.25024">
        <ele>682</ele>
        <time>2016-10-02T04:00:55+02:00</time>
      </trkpt>
      <trkpt lat="45.99799" lon="6.25024">
        <ele>682</ele>
        <time>2016-10-02T04:00:57+02:00</time>
      </trkpt>
      <trkpt lat="45.99801" lon="6.25025">
        <ele>682</ele>
        <time>2016-10-02T04:00:59+02:00</time>
      </trkpt>
      <trkpt lat="45.99804" lon="6.25025">
        <ele>682</ele>
        <time>2016-10-02T04:01:01+02:00</time>
      </trkpt>
      <trkpt lat="45.99806" lon="6.25026">
        <ele>682</ele>
        <time>2016-10-02T04:01:03+02:00</time>
      </trkpt>
      <trkpt lat="45.99808" lon="6.25026">
        <ele>683</ele>
        <time>2016-10-02T04:01:04+02:00</time>
      </trkpt>
      <trkpt lat="45.9981" lon="6.25027">
        <ele>683</ele>
        <time>2016-10-02T04:01:06+02:00</time>
      </trkpt>
      <trkpt lat="45.99812" lon="6.25027">
        <ele>683</ele>
        <time>2016-10-02T04:01:08+02:00</time>
      </trkpt>
      <trkpt lat="45.99814" lon="6.25028">
        <ele>683</ele>
        <time>2016-10-02T04:01:10+02:00</time>
      </trkpt>
      <trkpt lat="45.99816" lon="6.25029">
        <ele>683</ele>
        <time>2016-10-02T04:01:11+02:00</time>
      </trkpt>
      <trkpt lat="45.99819" lon="6.25029">
        <ele>684</ele>
        <time>2016-10-02T04:01:13+02:00</time>
      </trkpt>
      <trkpt lat="45.99821" lon="6.2503">
        <ele>684</ele>
        <time>2016-10-02T04:01:15+02:00</time>
      </trkpt>
      <trkpt lat="45.99823" lon="6.25031">
        <ele>684</ele>
        <time>2016-10-02T04:01:17+02:00</time>
      </trkpt>
      <trkpt lat="45.99825" lon="6.25031">
        <ele>684</ele>
        <time>2016-10-02T04:01:19+02:00</time>
      </trkpt>
      <trkpt lat="45.99827" lon="6.25032">
        <ele>684</ele>
        <time>2016-10-02T04:01:20+02:00</time>
      </trkpt>
      <trkpt lat="45.99829" lon="6.25033">
        <ele>685</ele>
        <time>2016-10-02T04:01:22+02:00</time>
      </trkpt>
      <trkpt lat="45.99832" lon="6.25033">
        <ele>685</ele>
        <time>2016-10-02T04:01:24+02:00</time>
      </trkpt>
      <trkpt lat="45.99834" lon="6.25033">
        <ele>685</ele>
        <time>2016-10-02T04:01:26+02:00</time>
      </trkpt>
      <trkpt lat="45.99836" lon="6.25034">
        <ele>685</ele>
        <time>2016-10-02T04:01:28+02:00</time>
      </trkpt>
      <trkpt lat="45.99838" lon="6.25034">
        <ele>685</ele>
        <time>2016-10-02T04:01:30+02:00</time>
      </trkpt>
      <trkpt lat="45.99841" lon="6.25035">
        <ele>685</ele>
        <time>2016-10-02T04:01:31+02:00</time>
      </trkpt>
      <trkpt lat="45.99843" lon="6.25036">
        <ele>686</ele>
        <time>2016-10-02T04:01:33+02:00</time>
      </trkpt>
      <trkpt lat="45.99845" lon="6.25036">
        <ele>686</ele>
        <time>2016-10-02T04:01:35+02:00</time>
      </trkpt>
      <trkpt lat="45.99847" lon="6.25037">
        <ele>686</ele>
        <time>2016-10-02T04:01:37+02:00</time>
      </trkpt>
      <trkpt lat="45.9985" lon="6.25038">
        <ele>686</ele>
        <time>2016-10-02T04:01:39+02:00</time>
      </trkpt>
      <trkpt lat="45.99852" lon="6.25038">
        <ele>686</ele>
        <time>2016-10-02T04:01:40+02:00</time>
      </trkpt>
      <trkpt lat="45.99854" lon="6.25039">
        <ele>686</ele>
        <time>2016-10-02T04:01:42+02:00</time>
      </trkpt>
      <trkpt lat="45.99856" lon="6.25039">
        <ele>686</ele>
        <time>2016-10-02T04:01:44+02:00</time>
      </trkpt>
      <trkpt lat="45.99858" lon="6.2504">
        <ele>686</ele>
        <time>2016-10-02T04:01:46+02:00</time>
      </trkpt>
      <trkpt lat="45.9986" lon="6.2504">
        <ele>687</ele>
        <time>2016-10-02T04:01:47+02:00</time>
      </trkpt>
      <trkpt lat="45.99862" lon="6.25041">
        <ele>687</ele>
        <time>2016-10-02T04:01:49+02:00</time>
      </trkpt>
      <trkpt lat="45.99864" lon="6.25041">
        <ele>687</ele>
        <time>2016-10-02T04:01:51+02:00</time>
      </trkpt>
      <trkpt lat="45.99866" lon="6.25041">
        <ele>687</ele>
        <time>2016-10-02T04:01:52+02:00</time>
      </trkpt>
      <trkpt lat="45.99868" lon="6.25042">
        <ele>687</ele>
        <time>2016-10-02T04:01:54+02:00</time>
      </trkpt>
      <trkpt lat="45.9987" lon="6.25042">
        <ele>687</ele>
        <time>2016-10-02T04:01:56+02:00</time>
      </trkpt>
      <trkpt lat="45.99872" lon="6.25043">
        <ele>687</ele>
        <time>2016-10-02T04:01:57+02:00</time>
      </trkpt>
      <trkpt lat="45.99874" lon="6.25043">
        <ele>687</ele>
        <time>2016-10-02T04:01:59+02:00</time>
      </trkpt>
      <trkpt lat="45.99877" lon="6.25043">
        <ele>688</ele>
        <time>2016-10-02T04:02:01+02:00</time>
      </trkpt>
      <trkpt lat="45.99879" lon="6.25044">
        <ele>688</ele>
        <time>2016-10-02T04:02:02+02:00</time>
      </trkpt>
      <trkpt lat="45.9988" lon="6.25044">
        <ele>688</ele>
        <time>2016-10-02T04:02:04+02:00</time>
      </trkpt>
      <trkpt lat="45.99883" lon="6.25045">
        <ele>688</ele>
        <time>2016-10-02T04:02:06+02:00</time>
      </trkpt>
      <trkpt lat="45.99885" lon="6.25045">
        <ele>688</ele>
        <time>2016-10-02T04:02:07+02:00</time>
      </trkpt>
      <trkpt lat="45.99887" lon="6.25046">
        <ele>688</ele>
        <time>2016-10-02T04:02:09+02:00</time>
      </trkpt>
      <trkpt lat="45.99889" lon="6.25047">
        <ele>688</ele>
        <time>2016-10-02T04:02:11+02:00</time>
      </trkpt>
      <trkpt lat="45.99891" lon="6.25048">
        <ele>688</ele>
        <time>2016-10-02T04:02:13+02:00</time>
      </trkpt>
      <trkpt lat="45.99893" lon="6.25049">
        <ele>688</ele>
        <time>2016-10-02T04:02:14+02:00</time>
      </trkpt>
      <trkpt lat="45.99895" lon="6.2505">
        <ele>689</ele>
        <time>2016-10-02T04:02:16+02:00</time>
      </trkpt>
      <trkpt lat="45.99897" lon="6.25051">
        <ele>689</ele>
        <time>2016-10-02T04:02:18+02:00</time>
      </trkpt>
      <trkpt lat="45.99899" lon="6.25052">
        <ele>689</ele>
        <time>2016-10-02T04:02:19+02:00</time>
      </trkpt>
      <trkpt lat="45.99901" lon="6.25053">
        <ele>689</ele>
        <time>2016-10-02T04:02:21+02:00</time>
      </trkpt>
      <trkpt lat="45.99903" lon="6.25055">
        <ele>689</ele>
        <time>2016-10-02T04:02:23+02:00</time>
      </trkpt>
      <trkpt lat="45.99905" lon="6.25056">
        <ele>689</ele>
        <time>2016-10-02T04:02:25+02:00</time>
      </trkpt>
      <trkpt lat="45.99907" lon="6.25057">
        <ele>689</ele>
        <time>2016-10-02T04:02:26+02:00</time>
      </trkpt>
      <trkpt lat="45.99908" lon="6.25058">
        <ele>689</ele>
        <time>2016-10-02T04:02:28+02:00</time>
      </trkpt>
      <trkpt lat="45.99911" lon="6.25059">
        <ele>689</ele>
        <time>2016-10-02T04:02:30+02:00</time>
      </trkpt>
      <trkpt lat="45.99913" lon="6.2506">
        <ele>689</ele>
        <time>2016-10-02T04:02:32+02:00</time>
      </trkpt>
      <trkpt lat="45.99915" lon="6.25061">
        <ele>689</ele>
        <time>2016-10-02T04:02:34+02:00</time>
      </trkpt>
      <trkpt lat="45.99917" lon="6.25062">
        <ele>690</ele>
        <time>2016-10-02T04:02:35+02:00</time>
      </trkpt>
      <trkpt lat="45.99919" lon="6.25064">
        <ele>690</ele>
        <time>2016-10-02T04:02:37+02:00</time>
      </trkpt>
      <trkpt lat="45.99921" lon="6.25065">
        <ele>690</ele>
        <time>2016-10-02T04:02:39+02:00</time>
      </trkpt>
      <trkpt lat="45.99923" lon="6.25066">
        <ele>690</ele>
        <time>2016-10-02T04:02:41+02:00</time>
      </trkpt>
      <trkpt lat="45.99925" lon="6.25068">
        <ele>690</ele>
        <time>2016-10-02T04:02:43+02:00</time>
      </trkpt>
      <trkpt lat="45.99927" lon="6.25069">
        <ele>690</ele>
        <time>2016-10-02T04:02:44+02:00</time>
      </trkpt>
      <trkpt lat="45.99929" lon="6.2507">
        <ele>690</ele>
        <time>2016-10-02T04:02:46+02:00</time>
      </trkpt>
      <trkpt lat="45.99931" lon="6.25072">
        <ele>690</ele>
        <time>2016-10-02T04:02:48+02:00</time>
      </trkpt>
      <trkpt lat="45.99933" lon="6.25073">
        <ele>690</ele>
        <time>2016-10-02T04:02:50+02:00</time>
      </trkpt>
      <trkpt lat="45.99935" lon="6.25074">
        <ele>690</ele>
        <time>2016-10-02T04:02:51+02:00</time>
      </trkpt>
      <trkpt lat="45.99937" lon="6.25075">
        <ele>690</ele>
        <time>2016-10-02T04:02:53+02:00</time>
      </trkpt>
      <trkpt lat="45.99939" lon="6.25076">
        <ele>690</ele>
        <time>2016-10-02T04:02:55+02:00</time>
      </trkpt>
      <trkpt lat="45.99941" lon="6.25078">
        <ele>690</ele>
        <time>2016-10-02T04:02:57+02:00</time>
      </trkpt>
      <trkpt lat="45.99943" lon="6.25079">
        <ele>690</ele>
        <time>2016-10-02T04:02:58+02:00</time>
      </trkpt>
      <trkpt lat="45.99945" lon="6.2508">
        <ele>690</ele>
        <time>2016-10-02T04:03:00+02:00</time>
      </trkpt>
      <trkpt lat="45.99948" lon="6.25082">
        <ele>690</ele>
        <time>2016-10-02T04:03:02+02:00</time>
      </trkpt>
      <trkpt lat="45.99949" lon="6.25083">
        <ele>690</ele>
        <time>2016-10-02T04:03:04+02:00</time>
      </trkpt>
      <trkpt lat="45.99951" lon="6.25084">
        <ele>690</ele>
        <time>2016-10-02T04:03:05+02:00</time>
      </trkpt>
      <trkpt lat="45.99953" lon="6.25085">
        <ele>690</ele>
        <time>2016-10-02T04:03:07+02:00</time>
      </trkpt>
      <trkpt lat="45.99955" lon="6.25087">
        <ele>690</ele>
        <time>2016-10-02T04:03:09+02:00</time>
      </trkpt>
      <trkpt lat="45.99957" lon="6.25088">
        <ele>690</ele>
        <time>2016-10-02T04:03:11+02:00</time>
      </trkpt>
      <trkpt lat="45.99959" lon="6.2509">
        <ele>690</ele>
        <time>2016-10-02T04:03:12+02:00</time>
      </trkpt>
      <trkpt lat="45.99961" lon="6.25091">
        <ele>690</ele>
        <time>2016-10-02T04:03:14+02:00</time>
      </trkpt>
      <trkpt lat="45.99962" lon="6.25093">
        <ele>690</ele>
        <time>2016-10-02T04:03:16+02:00</time>
      </trkpt>
      <trkpt lat="45.99965" lon="6.25094">
        <ele>690</ele>
        <time>2016-10-02T04:03:17+02:00</time>
      </trkpt>
      <trkpt lat="45.99967" lon="6.25095">
        <ele>690</ele>
        <time>2016-10-02T04:03:19+02:00</time>
      </trkpt>
      <trkpt lat="45.99969" lon="6.25096">
        <ele>690</ele>
        <time>2016-10-02T04:03:21+02:00</time>
      </trkpt>
      <trkpt lat="45.9997" lon="6.25097">
        <ele>690</ele>
        <time>2016-10-02T04:03:23+02:00</time>
      </trkpt>
      <trkpt lat="45.99972" lon="6.25099">
        <ele>690</ele>
        <time>2016-10-02T04:03:24+02:00</time>
      </trkpt>
      <trkpt lat="45.99974" lon="6.251">
        <ele>690</ele>
        <time>2016-10-02T04:03:26+02:00</time>
      </trkpt>
      <trkpt lat="45.99976" lon="6.25101">
        <ele>690</ele>
        <time>2016-10-02T04:03:28+02:00</time>
      </trkpt>
      <trkpt lat="45.99979" lon="6.25102">
        <ele>690</ele>
        <time>2016-10-02T04:03:30+02:00</time>
      </trkpt>
      <trkpt lat="45.99981" lon="6.25103">
        <ele>690</ele>
        <time>2016-10-02T04:03:32+02:00</time>
      </trkpt>
      <trkpt lat="45.99983" lon="6.25104">
        <ele>690</ele>
        <time>2016-10-02T04:03:33+02:00</time>
      </trkpt>
      <trkpt lat="45.99985" lon="6.25105">
        <ele>690</ele>
        <time>2016-10-02T04:03:35+02:00</time>
      </trkpt>
      <trkpt lat="45.99987" lon="6.25105">
        <ele>690</ele>
        <time>2016-10-02T04:03:37+02:00</time>
      </trkpt>
      <trkpt lat="45.99989" lon="6.25106">
        <ele>690</ele>
        <time>2016-10-02T04:03:39+02:00</time>
      </trkpt>
      <trkpt lat="45.99991" lon="6.25107">
        <ele>690</ele>
        <time>2016-10-02T04:03:40+02:00</time>
      </trkpt>
      <trkpt lat="45.99993" lon="6.25108">
        <ele>690</ele>
        <time>2016-10-02T04:03:42+02:00</time>
      </trkpt>
      <trkpt lat="45.99995" lon="6.25109">
        <ele>689</ele>
        <time>2016-10-02T04:03:44+02:00</time>
      </trkpt>
      <trkpt lat="45.99997" lon="6.25109">
        <ele>689</ele>
        <time>2016-10-02T04:03:46+02:00</time>
      </trkpt>
      <trkpt lat="45.99999" lon="6.2511">
        <ele>689</ele>
        <time>2016-10-02T04:03:47+02:00</time>
      </trkpt>
      <trkpt lat="46.00002" lon="6.25111">
        <ele>690</ele>
        <time>2016-10-02T04:03:49+02:00</time>
      </trkpt>
      <trkpt lat="46.00004" lon="6.25112">
        <ele>690</ele>
        <time>2016-10-02T04:03:51+02:00</time>
      </trkpt>
      <trkpt lat="46.00006" lon="6.25112">
        <ele>691</ele>
        <time>2016-10-02T04:03:53+02:00</time>
      </trkpt>
      <trkpt lat="46.00008" lon="6.25113">
        <ele>691</ele>
        <time>2016-10-02T04:03:55+02:00</time>
      </trkpt>
      <trkpt lat="46.0001" lon="6.25114">
        <ele>692</ele>
        <time>2016-10-02T04:03:56+02:00</time>
      </trkpt>
      <trkpt lat="46.00013" lon="6.25115">
        <ele>692</ele>
        <time>2016-10-02T04:03:58+02:00</time>
      </trkpt>
      <trkpt lat="46.00015" lon="6.25116">
        <ele>692</ele>
        <time>2016-10-02T04:04:00+02:00</time>
      </trkpt>
      <trkpt lat="46.00017" lon="6.25117">
        <ele>693</ele>
        <time>2016-10-02T04:04:02+02:00</time>
      </trkpt>
      <trkpt lat="46.00019" lon="6.25117">
        <ele>693</ele>
        <time>2016-10-02T04:04:04+02:00</time>
      </trkpt>
      <trkpt lat="46.00022" lon="6.25118">
        <ele>694</ele>
        <time>2016-10-02T04:04:06+02:00</time>
      </trkpt>
      <trkpt lat="46.00024" lon="6.25119">
        <ele>694</ele>
        <time>2016-10-02T04:04:08+02:00</time>
      </trkpt>
      <trkpt lat="46.00026" lon="6.2512">
        <ele>695</ele>
        <time>2016-10-02T04:04:10+02:00</time>
      </trkpt>
      <trkpt lat="46.00028" lon="6.25121">
        <ele>695</ele>
        <time>2016-10-02T04:04:11+02:00</time>
      </trkpt>
      <trkpt lat="46.0003" lon="6.25122">
        <ele>696</ele>
        <time>2016-10-02T04:04:13+02:00</time>
      </trkpt>
      <trkpt lat="46.00032" lon="6.25123">
        <ele>696</ele>
        <time>2016-10-02T04:04:15+02:00</time>
      </trkpt>
      <trkpt lat="46.00034" lon="6.25125">
        <ele>696</ele>
        <time>2016-10-02T04:04:17+02:00</time>
      </trkpt>
      <trkpt lat="46.00036" lon="6.25126">
        <ele>697</ele>
        <time>2016-10-02T04:04:18+02:00</time>
      </trkpt>
      <trkpt lat="46.00038" lon="6.25127">
        <ele>697</ele>
        <time>2016-10-02T04:04:20+02:00</time>
      </trkpt>
      <trkpt lat="46.0004" lon="6.25129">
        <ele>698</ele>
        <time>2016-10-02T04:04:22+02:00</time>
      </trkpt>
      <trkpt lat="46.00042" lon="6.2513">
        <ele>698</ele>
        <time>2016-10-02T04:04:24+02:00</time>
      </trkpt>
      <trkpt lat="46.00044" lon="6.25131">
        <ele>698</ele>
        <time>2016-10-02T04:04:25+02:00</time>
      </trkpt>
      <trkpt lat="46.00046" lon="6.25132">
        <ele>699</ele>
        <time>2016-10-02T04:04:27+02:00</time>
      </trkpt>
      <trkpt lat="46.00048" lon="6.25134">
        <ele>699</ele>
        <time>2016-10-02T04:04:29+02:00</time>
      </trkpt>
      <trkpt lat="46.0005" lon="6.25135">
        <ele>699</ele>
        <time>2016-10-02T04:04:31+02:00</time>
      </trkpt>
      <trkpt lat="46.00052" lon="6.25137">
        <ele>700</ele>
        <time>2016-10-02T04:04:32+02:00</time>
      </trkpt>
      <trkpt lat="46.00053" lon="6.25139">
        <ele>700</ele>
        <time>2016-10-02T04:04:34+02:00</time>
      </trkpt>
      <trkpt lat="46.00055" lon="6.2514">
        <ele>701</ele>
        <time>2016-10-02T04:04:36+02:00</time>
      </trkpt>
      <trkpt lat="46.00057" lon="6.25142">
        <ele>701</ele>
        <time>2016-10-02T04:04:38+02:00</time>
      </trkpt>
      <trkpt lat="46.00059" lon="6.25144">
        <ele>701</ele>
        <time>2016-10-02T04:04:40+02:00</time>
      </trkpt>
      <trkpt lat="46.00061" lon="6.25146">
        <ele>702</ele>
        <time>2016-10-02T04:04:42+02:00</time>
      </trkpt>
      <trkpt lat="46.00063" lon="6.25148">
        <ele>702</ele>
        <time>2016-10-02T04:04:43+02:00</time>
      </trkpt>
      <trkpt lat="46.00064" lon="6.25151">
        <ele>702</ele>
        <time>2016-10-02T04:04:45+02:00</time>
      </trkpt>
      <trkpt lat="46.00066" lon="6.25153">
        <ele>702</ele>
        <time>2016-10-02T04:04:47+02:00</time>
      </trkpt>
      <trkpt lat="46.00067" lon="6.25155">
        <ele>702</ele>
        <time>2016-10-02T04:04:49+02:00</time>
      </trkpt>
      <trkpt lat="46.00069" lon="6.25158">
        <ele>703</ele>
        <time>2016-10-02T04:04:50+02:00</time>
      </trkpt>
      <trkpt lat="46.0007" lon="6.2516">
        <ele>703</ele>
        <time>2016-10-02T04:04:52+02:00</time>
      </trkpt>
      <trkpt lat="46.00071" lon="6.25163">
        <ele>703</ele>
        <time>2016-10-02T04:04:54+02:00</time>
      </trkpt>
      <trkpt lat="46.00072" lon="6.25166">
        <ele>703</ele>
        <time>2016-10-02T04:04:56+02:00</time>
      </trkpt>
      <trkpt lat="46.00073" lon="6.25169">
        <ele>703</ele>
        <time>2016-10-02T04:04:58+02:00</time>
      </trkpt>
      <trkpt lat="46.00074" lon="6.25172">
        <ele>703</ele>
        <time>2016-10-02T04:04:59+02:00</time>
      </trkpt>
      <trkpt lat="46.00075" lon="6.25175">
        <ele>703</ele>
        <time>2016-10-02T04:05:01+02:00</time>
      </trkpt>
      <trkpt lat="46.00075" lon="6.25177">
        <ele>703</ele>
        <time>2016-10-02T04:05:03+02:00</time>
      </trkpt>
      <trkpt lat="46.00075" lon="6.2518">
        <ele>703</ele>
        <time>2016-10-02T04:05:05+02:00</time>
      </trkpt>
      <trkpt lat="46.00075" lon="6.25183">
        <ele>703</ele>
        <time>2016-10-02T04:05:06+02:00</time>
      </trkpt>
      <trkpt lat="46.00075" lon="6.25186">
        <ele>702</ele>
        <time>2016-10-02T04:05:08+02:00</time>
      </trkpt>
      <trkpt lat="46.00076" lon="6.25189">
        <ele>702</ele>
        <time>2016-10-02T04:05:10+02:00</time>
      </trkpt>
      <trkpt lat="46.00076" lon="6.25192">
        <ele>702</ele>
        <time>2016-10-02T04:05:11+02:00</time>
      </trkpt>
      <trkpt lat="46.00077" lon="6.25195">
        <ele>702</ele>
        <time>2016-10-02T04:05:13+02:00</time>
      </trkpt>
      <trkpt lat="46.00077" lon="6.25199">
        <ele>702</ele>
        <time>2016-10-02T04:05:15+02:00</time>
      </trkpt>
      <trkpt lat="46.00078" lon="6.25202">
        <ele>702</ele>
        <time>2016-10-02T04:05:17+02:00</time>
      </trkpt>
      <trkpt lat="46.00078" lon="6.25205">
        <ele>701</ele>
        <time>2016-10-02T04:05:19+02:00</time>
      </trkpt>
      <trkpt lat="46.00079" lon="6.25208">
        <ele>701</ele>
        <time>2016-10-02T04:05:20+02:00</time>
      </trkpt>
      <trkpt lat="46.00079" lon="6.25211">
        <ele>701</ele>
        <time>2016-10-02T04:05:22+02:00</time>
      </trkpt>
      <trkpt lat="46.00079" lon="6.25214">
        <ele>701</ele>
        <time>2016-10-02T04:05:24+02:00</time>
      </trkpt>
      <trkpt lat="46.00079" lon="6.25217">
        <ele>701</ele>
        <time>2016-10-02T04:05:26+02:00</time>
      </trkpt>
      <trkpt lat="46.0008" lon="6.2522">
        <ele>701</ele>
        <time>2016-10-02T04:05:27+02:00</time>
      </trkpt>
      <trkpt lat="46.0008" lon="6.25223">
        <ele>700</ele>
        <time>2016-10-02T04:05:29+02:00</time>
      </trkpt>
      <trkpt lat="46.0008" lon="6.25226">
        <ele>700</ele>
        <time>2016-10-02T04:05:31+02:00</time>
      </trkpt>
      <trkpt lat="46.0008" lon="6.25229">
        <ele>700</ele>
        <time>2016-10-02T04:05:32+02:00</time>
      </trkpt>
      <trkpt lat="46.0008" lon="6.25232">
        <ele>700</ele>
        <time>2016-10-02T04:05:34+02:00</time>
      </trkpt>
      <trkpt lat="46.0008" lon="6.25235">
        <ele>699</ele>
        <time>2016-10-02T04:05:36+02:00</time>
      </trkpt>
      <trkpt lat="46.0008" lon="6.25238">
        <ele>699</ele>
        <time>2016-10-02T04:05:37+02:00</time>
      </trkpt>
      <trkpt lat="46.00081" lon="6.25242">
        <ele>699</ele>
        <time>2016-10-02T04:05:39+02:00</time>
      </trkpt>
      <trkpt lat="46.00081" lon="6.25245">
        <ele>699</ele>
        <time>2016-10-02T04:05:41+02:00</time>
      </trkpt>
      <trkpt lat="46.00081" lon="6.25248">
        <ele>699</ele>
        <time>2016-10-02T04:05:43+02:00</time>
      </trkpt>
      <trkpt lat="46.00082" lon="6.25251">
        <ele>699</ele>
        <time>2016-10-02T04:05:45+02:00</time>
      </trkpt>
      <trkpt lat="46.00082" lon="6.25254">
        <ele>698</ele>
        <time>2016-10-02T04:05:46+02:00</time>
      </trkpt>
      <trkpt lat="46.00082" lon="6.25258">
        <ele>698</ele>
        <time>2016-10-02T04:05:48+02:00</time>
      </trkpt>
      <trkpt lat="46.00082" lon="6.25261">
        <ele>698</ele>
        <time>2016-10-02T04:05:50+02:00</time>
      </trkpt>
      <trkpt lat="46.00082" lon="6.25264">
        <ele>698</ele>
        <time>2016-10-02T04:05:52+02:00</time>
      </trkpt>
      <trkpt lat="46.00083" lon="6.25267">
        <ele>698</ele>
        <time>2016-10-02T04:05:54+02:00</time>
      </trkpt>
      <trkpt lat="46.00083" lon="6.2527">
        <ele>698</ele>
        <time>2016-10-02T04:05:55+02:00</time>
      </trkpt>
      <trkpt lat="46.00083" lon="6.25273">
        <ele>698</ele>
        <time>2016-10-02T04:05:57+02:00</time>
      </trkpt>
      <trkpt lat="46.00084" lon="6.25276">
        <ele>698</ele>
        <time>2016-10-02T04:05:59+02:00</time>
      </trkpt>
      <trkpt lat="46.00084" lon="6.25279">
        <ele>698</ele>
        <time>2016-10-02T04:06:00+02:00</time>
      </trkpt>
      <trkpt lat="46.00084" lon="6.25282">
        <ele>698</ele>
        <time>2016-10-02T04:06:02+02:00</time>
      </trkpt>
      <trkpt lat="46.00084" lon="6.25284">
        <ele>698</ele>
        <time>2016-10-02T04:06:03+02:00</time>
      </trkpt>
      <trkpt lat="46.00084" lon="6.25287">
        <ele>697</ele>
        <time>2016-10-02T04:06:05+02:00</time>
      </trkpt>
      <trkpt lat="46.00084" lon="6.2529">
        <ele>697</ele>
        <time>2016-10-02T04:06:07+02:00</time>
      </trkpt>
      <trkpt lat="46.00085" lon="6.25293">
        <ele>697</ele>
        <time>2016-10-02T04:06:08+02:00</time>
      </trkpt>
      <trkpt lat="46.00085" lon="6.25296">
        <ele>697</ele>
        <time>2016-10-02T04:06:10+02:00</time>
      </trkpt>
      <trkpt lat="46.00085" lon="6.25299">
        <ele>697</ele>
        <time>2016-10-02T04:06:12+02:00</time>
      </trkpt>
      <trkpt lat="46.00086" lon="6.25302">
        <ele>697</ele>
        <time>2016-10-02T04:06:14+02:00</time>
      </trkpt>
      <trkpt lat="46.00086" lon="6.25305">
        <ele>697</ele>
        <time>2016-10-02T04:06:15+02:00</time>
      </trkpt>
      <trkpt lat="46.00086" lon="6.25308">
        <ele>697</ele>
        <time>2016-10-02T04:06:17+02:00</time>
      </trkpt>
      <trkpt lat="46.00087" lon="6.25312">
        <ele>697</ele>
        <time>2016-10-02T04:06:19+02:00</time>
      </trkpt>
      <trkpt lat="46.00087" lon="6.25315">
        <ele>697</ele>
        <time>2016-10-02T04:06:21+02:00</time>
      </trkpt>
      <trkpt lat="46.00087" lon="6.25318">
        <ele>697</ele>
        <time>2016-10-02T04:06:22+02:00</time>
      </trkpt>
      <trkpt lat="46.00087" lon="6.25321">
        <ele>697</ele>
        <time>2016-10-02T04:06:24+02:00</time>
      </trkpt>
      <trkpt lat="46.00088" lon="6.25324">
        <ele>697</ele>
        <time>2016-10-02T04:06:26+02:00</time>
      </trkpt>
      <trkpt lat="46.00088" lon="6.25327">
        <ele>697</ele>
        <time>2016-10-02T04:06:27+02:00</time>
      </trkpt>
      <trkpt lat="46.00088" lon="6.2533">
        <ele>697</ele>
        <time>2016-10-02T04:06:29+02:00</time>
      </trkpt>
      <trkpt lat="46.00088" lon="6.25333">
        <ele>696</ele>
        <time>2016-10-02T04:06:31+02:00</time>
      </trkpt>
      <trkpt lat="46.00088" lon="6.25336">
        <ele>696</ele>
        <time>2016-10-02T04:06:32+02:00</time>
      </trkpt>
      <trkpt lat="46.00088" lon="6.25339">
        <ele>696</ele>
        <time>2016-10-02T04:06:34+02:00</time>
      </trkpt>
      <trkpt lat="46.00088" lon="6.25342">
        <ele>696</ele>
        <time>2016-10-02T04:06:36+02:00</time>
      </trkpt>
      <trkpt lat="46.00089" lon="6.25345">
        <ele>696</ele>
        <time>2016-10-02T04:06:37+02:00</time>
      </trkpt>
      <trkpt lat="46.00089" lon="6.25348">
        <ele>696</ele>
        <time>2016-10-02T04:06:39+02:00</time>
      </trkpt>
      <trkpt lat="46.00089" lon="6.25351">
        <ele>696</ele>
        <time>2016-10-02T04:06:41+02:00</time>
      </trkpt>
      <trkpt lat="46.00089" lon="6.25354">
        <ele>696</ele>
        <time>2016-10-02T04:06:42+02:00</time>
      </trkpt>
      <trkpt lat="46.00089" lon="6.25356">
        <ele>696</ele>
        <time>2016-10-02T04:06:44+02:00</time>
      </trkpt>
      <trkpt lat="46.00089" lon="6.25359">
        <ele>696</ele>
        <time>2016-10-02T04:06:45+02:00</time>
      </trkpt>
      <trkpt lat="46.00089" lon="6.25362">
        <ele>696</ele>
        <time>2016-10-02T04:06:47+02:00</time>
      </trkpt>
      <trkpt lat="46.0009" lon="6.25364">
        <ele>696</ele>
        <time>2016-10-02T04:06:48+02:00</time>
      </trkpt>
      <trkpt lat="46.00089" lon="6.25367">
        <ele>696</ele>
        <time>2016-10-02T04:06:50+02:00</time>
      </trkpt>
      <trkpt lat="46.00089" lon="6.25369">
        <ele>696</ele>
        <time>2016-10-02T04:06:51+02:00</time>
      </trkpt>
      <trkpt lat="46.00089" lon="6.25372">
        <ele>696</ele>
        <time>2016-10-02T04:06:52+02:00</time>
      </trkpt>
      <trkpt lat="46.00089" lon="6.25374">
        <ele>696</ele>
        <time>2016-10-02T04:06:54+02:00</time>
      </trkpt>
      <trkpt lat="46.00089" lon="6.25377">
        <ele>696</ele>
        <time>2016-10-02T04:06:55+02:00</time>
      </trkpt>
      <trkpt lat="46.00089" lon="6.25379">
        <ele>696</ele>
        <time>2016-10-02T04:06:57+02:00</time>
      </trkpt>
      <trkpt lat="46.00089" lon="6.25381">
        <ele>695</ele>
        <time>2016-10-02T04:06:58+02:00</time>
      </trkpt>
      <trkpt lat="46.00089" lon="6.25385">
        <ele>695</ele>
        <time>2016-10-02T04:07:00+02:00</time>
      </trkpt>
      <trkpt lat="46.00089" lon="6.2539">
        <ele>695</ele>
        <time>2016-10-02T04:07:03+02:00</time>
      </trkpt>
      <trkpt lat="46.00088" lon="6.25392">
        <ele>695</ele>
        <time>2016-10-02T04:07:04+02:00</time>
      </trkpt>
      <trkpt lat="46.00088" lon="6.25395">
        <ele>695</ele>
        <time>2016-10-02T04:07:05+02:00</time>
      </trkpt>
      <trkpt lat="46.00088" lon="6.25397">
        <ele>695</ele>
        <time>2016-10-02T04:07:07+02:00</time>
      </trkpt>
      <trkpt lat="46.00088" lon="6.25399">
        <ele>695</ele>
        <time>2016-10-02T04:07:08+02:00</time>
      </trkpt>
      <trkpt lat="46.00088" lon="6.25402">
        <ele>695</ele>
        <time>2016-10-02T04:07:09+02:00</time>
      </trkpt>
      <trkpt lat="46.00088" lon="6.25404">
        <ele>695</ele>
        <time>2016-10-02T04:07:11+02:00</time>
      </trkpt>
      <trkpt lat="46.00087" lon="6.25406">
        <ele>694</ele>
        <time>2016-10-02T04:07:12+02:00</time>
      </trkpt>
      <trkpt lat="46.00087" lon="6.25408">
        <ele>694</ele>
        <time>2016-10-02T04:07:13+02:00</time>
      </trkpt>
      <trkpt lat="46.00087" lon="6.2541">
        <ele>694</ele>
        <time>2016-10-02T04:07:14+02:00</time>
      </trkpt>
      <trkpt lat="46.00087" lon="6.25413">
        <ele>694</ele>
        <time>2016-10-02T04:07:15+02:00</time>
      </trkpt>
      <trkpt lat="46.00087" lon="6.25417">
        <ele>694</ele>
        <time>2016-10-02T04:07:18+02:00</time>
      </trkpt>
      <trkpt lat="46.00086" lon="6.25421">
        <ele>694</ele>
        <time>2016-10-02T04:07:20+02:00</time>
      </trkpt>
      <trkpt lat="46.00086" lon="6.25423">
        <ele>694</ele>
        <time>2016-10-02T04:07:21+02:00</time>
      </trkpt>
      <trkpt lat="46.00086" lon="6.25425">
        <ele>694</ele>
        <time>2016-10-02T04:07:23+02:00</time>
      </trkpt>
      <trkpt lat="46.00086" lon="6.25428">
        <ele>693</ele>
        <time>2016-10-02T04:07:24+02:00</time>
      </trkpt>
      <trkpt lat="46.00086" lon="6.25431">
        <ele>693</ele>
        <time>2016-10-02T04:07:25+02:00</time>
      </trkpt>
      <trkpt lat="46.00086" lon="6.25433">
        <ele>693</ele>
        <time>2016-10-02T04:07:27+02:00</time>
      </trkpt>
      <trkpt lat="46.00086" lon="6.25436">
        <ele>693</ele>
        <time>2016-10-02T04:07:28+02:00</time>
      </trkpt>
      <trkpt lat="46.00085" lon="6.25438">
        <ele>693</ele>
        <time>2016-10-02T04:07:30+02:00</time>
      </trkpt>
      <trkpt lat="46.00085" lon="6.2544">
        <ele>693</ele>
        <time>2016-10-02T04:07:31+02:00</time>
      </trkpt>
      <trkpt lat="46.00085" lon="6.25443">
        <ele>693</ele>
        <time>2016-10-02T04:07:32+02:00</time>
      </trkpt>
      <trkpt lat="46.00086" lon="6.25445">
        <ele>693</ele>
        <time>2016-10-02T04:07:34+02:00</time>
      </trkpt>
      <trkpt lat="46.00086" lon="6.25448">
        <ele>693</ele>
        <time>2016-10-02T04:07:35+02:00</time>
      </trkpt>
      <trkpt lat="46.00086" lon="6.2545">
        <ele>693</ele>
        <time>2016-10-02T04:07:37+02:00</time>
      </trkpt>
      <trkpt lat="46.00086" lon="6.25453">
        <ele>692</ele>
        <time>2016-10-02T04:07:38+02:00</time>
      </trkpt>
      <trkpt lat="46.00086" lon="6.25456">
        <ele>692</ele>
        <time>2016-10-02T04:07:40+02:00</time>
      </trkpt>
      <trkpt lat="46.00087" lon="6.25459">
        <ele>692</ele>
        <time>2016-10-02T04:07:41+02:00</time>
      </trkpt>
      <trkpt lat="46.00087" lon="6.25462">
        <ele>692</ele>
        <time>2016-10-02T04:07:43+02:00</time>
      </trkpt>
      <trkpt lat="46.00088" lon="6.25465">
        <ele>693</ele>
        <time>2016-10-02T04:07:45+02:00</time>
      </trkpt>
      <trkpt lat="46.00088" lon="6.25468">
        <ele>693</ele>
        <time>2016-10-02T04:07:47+02:00</time>
      </trkpt>
      <trkpt lat="46.00089" lon="6.25471">
        <ele>693</ele>
        <time>2016-10-02T04:07:48+02:00</time>
      </trkpt>
      <trkpt lat="46.0009" lon="6.25474">
        <ele>693</ele>
        <time>2016-10-02T04:07:50+02:00</time>
      </trkpt>
      <trkpt lat="46.00091" lon="6.25477">
        <ele>693</ele>
        <time>2016-10-02T04:07:52+02:00</time>
      </trkpt>
      <trkpt lat="46.00092" lon="6.2548">
        <ele>693</ele>
        <time>2016-10-02T04:07:54+02:00</time>
      </trkpt>
      <trkpt lat="46.00092" lon="6.25484">
        <ele>693</ele>
        <time>2016-10-02T04:07:56+02:00</time>
      </trkpt>
      <trkpt lat="46.00093" lon="6.25488">
        <ele>693</ele>
        <time>2016-10-02T04:07:59+02:00</time>
      </trkpt>
      <trkpt lat="46.00094" lon="6.25492">
        <ele>694</ele>
        <time>2016-10-02T04:08:01+02:00</time>
      </trkpt>
      <trkpt lat="46.00096" lon="6.25497">
        <ele>694</ele>
        <time>2016-10-02T04:08:04+02:00</time>
      </trkpt>
      <trkpt lat="46.00097" lon="6.25501">
        <ele>694</ele>
        <time>2016-10-02T04:08:07+02:00</time>
      </trkpt>
      <trkpt lat="46.00099" lon="6.25505">
        <ele>694</ele>
        <time>2016-10-02T04:08:09+02:00</time>
      </trkpt>
      <trkpt lat="46.00101" lon="6.25509">
        <ele>695</ele>
        <time>2016-10-02T04:08:12+02:00</time>
      </trkpt>
      <trkpt lat="46.00102" lon="6.25514">
        <ele>695</ele>
        <time>2016-10-02T04:08:15+02:00</time>
      </trkpt>
      <trkpt lat="46.00104" lon="6.25518">
        <ele>695</ele>
        <time>2016-10-02T04:08:18+02:00</time>
      </trkpt>
      <trkpt lat="46.00105" lon="6.25522">
        <ele>695</ele>
        <time>2016-10-02T04:08:20+02:00</time>
      </trkpt>
      <trkpt lat="46.00107" lon="6.25526">
        <ele>696</ele>
        <time>2016-10-02T04:08:23+02:00</time>
      </trkpt>
      <trkpt lat="46.00109" lon="6.2553">
        <ele>696</ele>
        <time>2016-10-02T04:08:26+02:00</time>
      </trkpt>
      <trkpt lat="46.00111" lon="6.25534">
        <ele>696</ele>
        <time>2016-10-02T04:08:28+02:00</time>
      </trkpt>
      <trkpt lat="46.00114" lon="6.25538">
        <ele>697</ele>
        <time>2016-10-02T04:08:31+02:00</time>
      </trkpt>
      <trkpt lat="46.00117" lon="6.25541">
        <ele>698</ele>
        <time>2016-10-02T04:08:35+02:00</time>
      </trkpt>
      <trkpt lat="46.0012" lon="6.25545">
        <ele>698</ele>
        <time>2016-10-02T04:08:38+02:00</time>
      </trkpt>
      <trkpt lat="46.00122" lon="6.25548">
        <ele>699</ele>
        <time>2016-10-02T04:08:40+02:00</time>
      </trkpt>
      <trkpt lat="46.00125" lon="6.2555">
        <ele>700</ele>
        <time>2016-10-02T04:08:43+02:00</time>
      </trkpt>
      <trkpt lat="46.00127" lon="6.25553">
        <ele>700</ele>
        <time>2016-10-02T04:08:45+02:00</time>
      </trkpt>
      <trkpt lat="46.00129" lon="6.25555">
        <ele>701</ele>
        <time>2016-10-02T04:08:47+02:00</time>
      </trkpt>
      <trkpt lat="46.00131" lon="6.25558">
        <ele>701</ele>
        <time>2016-10-02T04:08:50+02:00</time>
      </trkpt>
      <trkpt lat="46.00133" lon="6.25561">
        <ele>702</ele>
        <time>2016-10-02T04:08:52+02:00</time>
      </trkpt>
      <trkpt lat="46.00135" lon="6.25564">
        <ele>702</ele>
        <time>2016-10-02T04:08:54+02:00</time>
      </trkpt>
      <trkpt lat="46.00136" lon="6.25567">
        <ele>702</ele>
        <time>2016-10-02T04:08:56+02:00</time>
      </trkpt>
      <trkpt lat="46.00138" lon="6.2557">
        <ele>703</ele>
        <time>2016-10-02T04:08:59+02:00</time>
      </trkpt>
      <trkpt lat="46.0014" lon="6.25574">
        <ele>703</ele>
        <time>2016-10-02T04:09:01+02:00</time>
      </trkpt>
      <trkpt lat="46.00141" lon="6.25577">
        <ele>703</ele>
        <time>2016-10-02T04:09:03+02:00</time>
      </trkpt>
      <trkpt lat="46.00143" lon="6.25581">
        <ele>704</ele>
        <time>2016-10-02T04:09:06+02:00</time>
      </trkpt>
      <trkpt lat="46.00144" lon="6.25584">
        <ele>704</ele>
        <time>2016-10-02T04:09:08+02:00</time>
      </trkpt>
      <trkpt lat="46.00146" lon="6.25588">
        <ele>704</ele>
        <time>2016-10-02T04:09:10+02:00</time>
      </trkpt>
      <trkpt lat="46.00147" lon="6.25592">
        <ele>704</ele>
        <time>2016-10-02T04:09:12+02:00</time>
      </trkpt>
      <trkpt lat="46.00148" lon="6.25595">
        <ele>705</ele>
        <time>2016-10-02T04:09:15+02:00</time>
      </trkpt>
      <trkpt lat="46.0015" lon="6.25598">
        <ele>705</ele>
        <time>2016-10-02T04:09:17+02:00</time>
      </trkpt>
      <trkpt lat="46.00151" lon="6.25601">
        <ele>705</ele>
        <time>2016-10-02T04:09:19+02:00</time>
      </trkpt>
      <trkpt lat="46.00153" lon="6.25604">
        <ele>706</ele>
        <time>2016-10-02T04:09:21+02:00</time>
      </trkpt>
      <trkpt lat="46.00154" lon="6.25607">
        <ele>706</ele>
        <time>2016-10-02T04:09:23+02:00</time>
      </trkpt>
      <trkpt lat="46.00156" lon="6.2561">
        <ele>706</ele>
        <time>2016-10-02T04:09:25+02:00</time>
      </trkpt>
      <trkpt lat="46.00158" lon="6.25613">
        <ele>707</ele>
        <time>2016-10-02T04:09:27+02:00</time>
      </trkpt>
      <trkpt lat="46.00159" lon="6.25615">
        <ele>707</ele>
        <time>2016-10-02T04:09:29+02:00</time>
      </trkpt>
      <trkpt lat="46.00161" lon="6.25618">
        <ele>707</ele>
        <time>2016-10-02T04:09:31+02:00</time>
      </trkpt>
      <trkpt lat="46.00162" lon="6.25621">
        <ele>708</ele>
        <time>2016-10-02T04:09:33+02:00</time>
      </trkpt>
      <trkpt lat="46.00163" lon="6.25624">
        <ele>708</ele>
        <time>2016-10-02T04:09:35+02:00</time>
      </trkpt>
      <trkpt lat="46.00165" lon="6.25626">
        <ele>708</ele>
        <time>2016-10-02T04:09:37+02:00</time>
      </trkpt>
      <trkpt lat="46.00166" lon="6.25629">
        <ele>709</ele>
        <time>2016-10-02T04:09:39+02:00</time>
      </trkpt>
      <trkpt lat="46.00168" lon="6.25632">
        <ele>709</ele>
        <time>2016-10-02T04:09:41+02:00</time>
      </trkpt>
      <trkpt lat="46.00169" lon="6.25635">
        <ele>709</ele>
        <time>2016-10-02T04:09:43+02:00</time>
      </trkpt>
      <trkpt lat="46.0017" lon="6.25638">
        <ele>709</ele>
        <time>2016-10-02T04:09:44+02:00</time>
      </trkpt>
      <trkpt lat="46.00172" lon="6.25641">
        <ele>709</ele>
        <time>2016-10-02T04:09:46+02:00</time>
      </trkpt>
      <trkpt lat="46.00173" lon="6.25643">
        <ele>709</ele>
        <time>2016-10-02T04:09:48+02:00</time>
      </trkpt>
      <trkpt lat="46.00174" lon="6.25646">
        <ele>709</ele>
        <time>2016-10-02T04:09:50+02:00</time>
      </trkpt>
      <trkpt lat="46.00176" lon="6.25649">
        <ele>709</ele>
        <time>2016-10-02T04:09:52+02:00</time>
      </trkpt>
      <trkpt lat="46.00177" lon="6.25652">
        <ele>709</ele>
        <time>2016-10-02T04:09:54+02:00</time>
      </trkpt>
      <trkpt lat="46.00179" lon="6.25655">
        <ele>710</ele>
        <time>2016-10-02T04:09:56+02:00</time>
      </trkpt>
      <trkpt lat="46.0018" lon="6.25658">
        <ele>710</ele>
        <time>2016-10-02T04:09:58+02:00</time>
      </trkpt>
      <trkpt lat="46.00182" lon="6.2566">
        <ele>710</ele>
        <time>2016-10-02T04:10:00+02:00</time>
      </trkpt>
      <trkpt lat="46.00183" lon="6.25663">
        <ele>710</ele>
        <time>2016-10-02T04:10:01+02:00</time>
      </trkpt>
      <trkpt lat="46.00185" lon="6.25665">
        <ele>710</ele>
        <time>2016-10-02T04:10:03+02:00</time>
      </trkpt>
      <trkpt lat="46.00186" lon="6.25668">
        <ele>710</ele>
        <time>2016-10-02T04:10:05+02:00</time>
      </trkpt>
      <trkpt lat="46.00188" lon="6.25671">
        <ele>710</ele>
        <time>2016-10-02T04:10:07+02:00</time>
      </trkpt>
      <trkpt lat="46.00189" lon="6.25674">
        <ele>710</ele>
        <time>2016-10-02T04:10:09+02:00</time>
      </trkpt>
      <trkpt lat="46.0019" lon="6.25677">
        <ele>710</ele>
        <time>2016-10-02T04:10:11+02:00</time>
      </trkpt>
      <trkpt lat="46.00192" lon="6.2568">
        <ele>710</ele>
        <time>2016-10-02T04:10:13+02:00</time>
      </trkpt>
      <trkpt lat="46.00193" lon="6.25683">
        <ele>711</ele>
        <time>2016-10-02T04:10:15+02:00</time>
      </trkpt>
      <trkpt lat="46.00194" lon="6.25686">
        <ele>711</ele>
        <time>2016-10-02T04:10:17+02:00</time>
      </trkpt>
      <trkpt lat="46.00196" lon="6.25689">
        <ele>711</ele>
        <time>2016-10-02T04:10:19+02:00</time>
      </trkpt>
      <trkpt lat="46.00197" lon="6.25692">
        <ele>711</ele>
        <time>2016-10-02T04:10:21+02:00</time>
      </trkpt>
      <trkpt lat="46.00198" lon="6.25695">
        <ele>711</ele>
        <time>2016-10-02T04:10:23+02:00</time>
      </trkpt>
      <trkpt lat="46.00199" lon="6.25698">
        <ele>711</ele>
        <time>2016-10-02T04:10:25+02:00</time>
      </trkpt>
      <trkpt lat="46.00201" lon="6.25701">
        <ele>711</ele>
        <time>2016-10-02T04:10:27+02:00</time>
      </trkpt>
      <trkpt lat="46.00202" lon="6.25703">
        <ele>711</ele>
        <time>2016-10-02T04:10:29+02:00</time>
      </trkpt>
      <trkpt lat="46.00203" lon="6.25706">
        <ele>711</ele>
        <time>2016-10-02T04:10:31+02:00</time>
      </trkpt>
      <trkpt lat="46.00205" lon="6.25708">
        <ele>711</ele>
        <time>2016-10-02T04:10:32+02:00</time>
      </trkpt>
      <trkpt lat="46.00206" lon="6.25711">
        <ele>711</ele>
        <time>2016-10-02T04:10:34+02:00</time>
      </trkpt>
      <trkpt lat="46.00207" lon="6.25714">
        <ele>711</ele>
        <time>2016-10-02T04:10:36+02:00</time>
      </trkpt>
      <trkpt lat="46.00208" lon="6.25717">
        <ele>712</ele>
        <time>2016-10-02T04:10:38+02:00</time>
      </trkpt>
      <trkpt lat="46.0021" lon="6.2572">
        <ele>712</ele>
        <time>2016-10-02T04:10:40+02:00</time>
      </trkpt>
      <trkpt lat="46.00211" lon="6.25722">
        <ele>712</ele>
        <time>2016-10-02T04:10:42+02:00</time>
      </trkpt>
      <trkpt lat="46.00212" lon="6.25725">
        <ele>712</ele>
        <time>2016-10-02T04:10:44+02:00</time>
      </trkpt>
      <trkpt lat="46.00214" lon="6.25728">
        <ele>712</ele>
        <time>2016-10-02T04:10:46+02:00</time>
      </trkpt>
      <trkpt lat="46.00215" lon="6.2573">
        <ele>712</ele>
        <time>2016-10-02T04:10:47+02:00</time>
      </trkpt>
      <trkpt lat="46.00216" lon="6.25733">
        <ele>712</ele>
        <time>2016-10-02T04:10:49+02:00</time>
      </trkpt>
      <trkpt lat="46.00217" lon="6.25736">
        <ele>712</ele>
        <time>2016-10-02T04:10:51+02:00</time>
      </trkpt>
      <trkpt lat="46.00219" lon="6.25738">
        <ele>712</ele>
        <time>2016-10-02T04:10:53+02:00</time>
      </trkpt>
      <trkpt lat="46.0022" lon="6.25741">
        <ele>713</ele>
        <time>2016-10-02T04:10:55+02:00</time>
      </trkpt>
      <trkpt lat="46.00221" lon="6.25743">
        <ele>713</ele>
        <time>2016-10-02T04:10:56+02:00</time>
      </trkpt>
      <trkpt lat="46.00222" lon="6.25746">
        <ele>713</ele>
        <time>2016-10-02T04:10:58+02:00</time>
      </trkpt>
      <trkpt lat="46.00223" lon="6.25747">
        <ele>713</ele>
        <time>2016-10-02T04:10:59+02:00</time>
      </trkpt>
      <trkpt lat="46.00224" lon="6.25749">
        <ele>713</ele>
        <time>2016-10-02T04:11:00+02:00</time>
      </trkpt>
      <trkpt lat="46.00225" lon="6.25751">
        <ele>713</ele>
        <time>2016-10-02T04:11:02+02:00</time>
      </trkpt>
      <trkpt lat="46.00227" lon="6.25754">
        <ele>713</ele>
        <time>2016-10-02T04:11:04+02:00</time>
      </trkpt>
      <trkpt lat="46.00228" lon="6.25756">
        <ele>713</ele>
        <time>2016-10-02T04:11:05+02:00</time>
      </trkpt>
      <trkpt lat="46.0023" lon="6.25758">
        <ele>714</ele>
        <time>2016-10-02T04:11:07+02:00</time>
      </trkpt>
      <trkpt lat="46.00231" lon="6.2576">
        <ele>714</ele>
        <time>2016-10-02T04:11:08+02:00</time>
      </trkpt>
      <trkpt lat="46.00232" lon="6.25762">
        <ele>714</ele>
        <time>2016-10-02T04:11:10+02:00</time>
      </trkpt>
      <trkpt lat="46.00233" lon="6.25764">
        <ele>714</ele>
        <time>2016-10-02T04:11:12+02:00</time>
      </trkpt>
      <trkpt lat="46.00235" lon="6.25766">
        <ele>714</ele>
        <time>2016-10-02T04:11:13+02:00</time>
      </trkpt>
      <trkpt lat="46.00236" lon="6.25768">
        <ele>714</ele>
        <time>2016-10-02T04:11:15+02:00</time>
      </trkpt>
      <trkpt lat="46.00237" lon="6.2577">
        <ele>714</ele>
        <time>2016-10-02T04:11:16+02:00</time>
      </trkpt>
      <trkpt lat="46.00238" lon="6.25773">
        <ele>714</ele>
        <time>2016-10-02T04:11:18+02:00</time>
      </trkpt>
      <trkpt lat="46.0024" lon="6.25776">
        <ele>714</ele>
        <time>2016-10-02T04:11:20+02:00</time>
      </trkpt>
      <trkpt lat="46.00242" lon="6.25778">
        <ele>715</ele>
        <time>2016-10-02T04:11:22+02:00</time>
      </trkpt>
      <trkpt lat="46.00243" lon="6.25781">
        <ele>715</ele>
        <time>2016-10-02T04:11:24+02:00</time>
      </trkpt>
      <trkpt lat="46.00244" lon="6.25784">
        <ele>715</ele>
        <time>2016-10-02T04:11:26+02:00</time>
      </trkpt>
      <trkpt lat="46.00246" lon="6.25786">
        <ele>715</ele>
        <time>2016-10-02T04:11:28+02:00</time>
      </trkpt>
      <trkpt lat="46.00247" lon="6.25789">
        <ele>715</ele>
        <time>2016-10-02T04:11:29+02:00</time>
      </trkpt>
      <trkpt lat="46.00248" lon="6.25792">
        <ele>715</ele>
        <time>2016-10-02T04:11:31+02:00</time>
      </trkpt>
      <trkpt lat="46.00249" lon="6.25794">
        <ele>715</ele>
        <time>2016-10-02T04:11:33+02:00</time>
      </trkpt>
      <trkpt lat="46.0025" lon="6.25797">
        <ele>715</ele>
        <time>2016-10-02T04:11:35+02:00</time>
      </trkpt>
      <trkpt lat="46.00251" lon="6.25799">
        <ele>715</ele>
        <time>2016-10-02T04:11:36+02:00</time>
      </trkpt>
      <trkpt lat="46.00253" lon="6.25802">
        <ele>715</ele>
        <time>2016-10-02T04:11:38+02:00</time>
      </trkpt>
      <trkpt lat="46.00254" lon="6.25804">
        <ele>715</ele>
        <time>2016-10-02T04:11:40+02:00</time>
      </trkpt>
      <trkpt lat="46.00255" lon="6.25807">
        <ele>715</ele>
        <time>2016-10-02T04:11:42+02:00</time>
      </trkpt>
      <trkpt lat="46.00257" lon="6.2581">
        <ele>715</ele>
        <time>2016-10-02T04:11:43+02:00</time>
      </trkpt>
      <trkpt lat="46.00258" lon="6.25812">
        <ele>715</ele>
        <time>2016-10-02T04:11:45+02:00</time>
      </trkpt>
      <trkpt lat="46.00259" lon="6.25815">
        <ele>715</ele>
        <time>2016-10-02T04:11:47+02:00</time>
      </trkpt>
      <trkpt lat="46.00261" lon="6.25818">
        <ele>715</ele>
        <time>2016-10-02T04:11:49+02:00</time>
      </trkpt>
      <trkpt lat="46.00262" lon="6.25821">
        <ele>716</ele>
        <time>2016-10-02T04:11:51+02:00</time>
      </trkpt>
      <trkpt lat="46.00264" lon="6.25823">
        <ele>716</ele>
        <time>2016-10-02T04:11:53+02:00</time>
      </trkpt>
      <trkpt lat="46.00265" lon="6.25826">
        <ele>716</ele>
        <time>2016-10-02T04:11:55+02:00</time>
      </trkpt>
      <trkpt lat="46.00266" lon="6.25828">
        <ele>716</ele>
        <time>2016-10-02T04:11:56+02:00</time>
      </trkpt>
      <trkpt lat="46.00267" lon="6.2583">
        <ele>716</ele>
        <time>2016-10-02T04:11:58+02:00</time>
      </trkpt>
      <trkpt lat="46.00269" lon="6.25832">
        <ele>716</ele>
        <time>2016-10-02T04:12:00+02:00</time>
      </trkpt>
      <trkpt lat="46.0027" lon="6.25835">
        <ele>716</ele>
        <time>2016-10-02T04:12:01+02:00</time>
      </trkpt>
      <trkpt lat="46.00271" lon="6.25837">
        <ele>716</ele>
        <time>2016-10-02T04:12:03+02:00</time>
      </trkpt>
      <trkpt lat="46.00272" lon="6.25839">
        <ele>716</ele>
        <time>2016-10-02T04:12:04+02:00</time>
      </trkpt>
      <trkpt lat="46.00273" lon="6.25841">
        <ele>716</ele>
        <time>2016-10-02T04:12:06+02:00</time>
      </trkpt>
      <trkpt lat="46.00274" lon="6.25842">
        <ele>716</ele>
        <time>2016-10-02T04:12:07+02:00</time>
      </trkpt>
      <trkpt lat="46.00275" lon="6.25844">
        <ele>716</ele>
        <time>2016-10-02T04:12:08+02:00</time>
      </trkpt>
      <trkpt lat="46.00277" lon="6.25846">
        <ele>716</ele>
        <time>2016-10-02T04:12:10+02:00</time>
      </trkpt>
      <trkpt lat="46.00279" lon="6.25848">
        <ele>716</ele>
        <time>2016-10-02T04:12:11+02:00</time>
      </trkpt>
      <trkpt lat="46.0028" lon="6.2585">
        <ele>717</ele>
        <time>2016-10-02T04:12:13+02:00</time>
      </trkpt>
      <trkpt lat="46.00281" lon="6.25852">
        <ele>717</ele>
        <time>2016-10-02T04:12:15+02:00</time>
      </trkpt>
      <trkpt lat="46.00283" lon="6.25854">
        <ele>717</ele>
        <time>2016-10-02T04:12:16+02:00</time>
      </trkpt>
      <trkpt lat="46.00284" lon="6.25855">
        <ele>717</ele>
        <time>2016-10-02T04:12:18+02:00</time>
      </trkpt>
      <trkpt lat="46.00286" lon="6.25857">
        <ele>717</ele>
        <time>2016-10-02T04:12:19+02:00</time>
      </trkpt>
      <trkpt lat="46.00287" lon="6.25859">
        <ele>717</ele>
        <time>2016-10-02T04:12:21+02:00</time>
      </trkpt>
      <trkpt lat="46.00289" lon="6.2586">
        <ele>717</ele>
        <time>2016-10-02T04:12:22+02:00</time>
      </trkpt>
      <trkpt lat="46.0029" lon="6.25862">
        <ele>717</ele>
        <time>2016-10-02T04:12:24+02:00</time>
      </trkpt>
      <trkpt lat="46.00292" lon="6.25863">
        <ele>718</ele>
        <time>2016-10-02T04:12:25+02:00</time>
      </trkpt>
      <trkpt lat="46.00293" lon="6.25864">
        <ele>718</ele>
        <time>2016-10-02T04:12:27+02:00</time>
      </trkpt>
      <trkpt lat="46.00294" lon="6.25866">
        <ele>718</ele>
        <time>2016-10-02T04:12:28+02:00</time>
      </trkpt>
      <trkpt lat="46.00296" lon="6.25867">
        <ele>718</ele>
        <time>2016-10-02T04:12:29+02:00</time>
      </trkpt>
      <trkpt lat="46.00297" lon="6.25868">
        <ele>718</ele>
        <time>2016-10-02T04:12:30+02:00</time>
      </trkpt>
      <trkpt lat="46.00298" lon="6.2587">
        <ele>718</ele>
        <time>2016-10-02T04:12:31+02:00</time>
      </trkpt>
      <trkpt lat="46.003" lon="6.25872">
        <ele>718</ele>
        <time>2016-10-02T04:12:34+02:00</time>
      </trkpt>
      <trkpt lat="46.00303" lon="6.25875">
        <ele>719</ele>
        <time>2016-10-02T04:12:36+02:00</time>
      </trkpt>
      <trkpt lat="46.00304" lon="6.25876">
        <ele>719</ele>
        <time>2016-10-02T04:12:38+02:00</time>
      </trkpt>
      <trkpt lat="46.00306" lon="6.25878">
        <ele>719</ele>
        <time>2016-10-02T04:12:39+02:00</time>
      </trkpt>
      <trkpt lat="46.00308" lon="6.25879">
        <ele>719</ele>
        <time>2016-10-02T04:12:41+02:00</time>
      </trkpt>
      <trkpt lat="46.00309" lon="6.25881">
        <ele>719</ele>
        <time>2016-10-02T04:12:43+02:00</time>
      </trkpt>
      <trkpt lat="46.00311" lon="6.25882">
        <ele>719</ele>
        <time>2016-10-02T04:12:44+02:00</time>
      </trkpt>
      <trkpt lat="46.00313" lon="6.25883">
        <ele>720</ele>
        <time>2016-10-02T04:12:46+02:00</time>
      </trkpt>
      <trkpt lat="46.00315" lon="6.25884">
        <ele>720</ele>
        <time>2016-10-02T04:12:47+02:00</time>
      </trkpt>
      <trkpt lat="46.00317" lon="6.25886">
        <ele>720</ele>
        <time>2016-10-02T04:12:49+02:00</time>
      </trkpt>
      <trkpt lat="46.00319" lon="6.25888">
        <ele>720</ele>
        <time>2016-10-02T04:12:51+02:00</time>
      </trkpt>
      <trkpt lat="46.00321" lon="6.2589">
        <ele>721</ele>
        <time>2016-10-02T04:12:53+02:00</time>
      </trkpt>
      <trkpt lat="46.00323" lon="6.25891">
        <ele>721</ele>
        <time>2016-10-02T04:12:55+02:00</time>
      </trkpt>
      <trkpt lat="46.00325" lon="6.25893">
        <ele>721</ele>
        <time>2016-10-02T04:12:57+02:00</time>
      </trkpt>
      <trkpt lat="46.00327" lon="6.25895">
        <ele>721</ele>
        <time>2016-10-02T04:12:59+02:00</time>
      </trkpt>
      <trkpt lat="46.0033" lon="6.25896">
        <ele>721</ele>
        <time>2016-10-02T04:13:01+02:00</time>
      </trkpt>
      <trkpt lat="46.00332" lon="6.25898">
        <ele>722</ele>
        <time>2016-10-02T04:13:03+02:00</time>
      </trkpt>
      <trkpt lat="46.00334" lon="6.25899">
        <ele>722</ele>
        <time>2016-10-02T04:13:05+02:00</time>
      </trkpt>
      <trkpt lat="46.00336" lon="6.25901">
        <ele>722</ele>
        <time>2016-10-02T04:13:07+02:00</time>
      </trkpt>
      <trkpt lat="46.00338" lon="6.25902">
        <ele>722</ele>
        <time>2016-10-02T04:13:09+02:00</time>
      </trkpt>
      <trkpt lat="46.0034" lon="6.25904">
        <ele>722</ele>
        <time>2016-10-02T04:13:10+02:00</time>
      </trkpt>
      <trkpt lat="46.00342" lon="6.25905">
        <ele>722</ele>
        <time>2016-10-02T04:13:12+02:00</time>
      </trkpt>
      <trkpt lat="46.00344" lon="6.25907">
        <ele>723</ele>
        <time>2016-10-02T04:13:14+02:00</time>
      </trkpt>
      <trkpt lat="46.00346" lon="6.25908">
        <ele>723</ele>
        <time>2016-10-02T04:13:16+02:00</time>
      </trkpt>
      <trkpt lat="46.00348" lon="6.2591">
        <ele>723</ele>
        <time>2016-10-02T04:13:17+02:00</time>
      </trkpt>
      <trkpt lat="46.0035" lon="6.25911">
        <ele>723</ele>
        <time>2016-10-02T04:13:19+02:00</time>
      </trkpt>
      <trkpt lat="46.00351" lon="6.25913">
        <ele>723</ele>
        <time>2016-10-02T04:13:21+02:00</time>
      </trkpt>
      <trkpt lat="46.00353" lon="6.25914">
        <ele>723</ele>
        <time>2016-10-02T04:13:23+02:00</time>
      </trkpt>
      <trkpt lat="46.00355" lon="6.25916">
        <ele>723</ele>
        <time>2016-10-02T04:13:24+02:00</time>
      </trkpt>
      <trkpt lat="46.00357" lon="6.25918">
        <ele>724</ele>
        <time>2016-10-02T04:13:26+02:00</time>
      </trkpt>
      <trkpt lat="46.00359" lon="6.25919">
        <ele>724</ele>
        <time>2016-10-02T04:13:28+02:00</time>
      </trkpt>
      <trkpt lat="46.0036" lon="6.25921">
        <ele>724</ele>
        <time>2016-10-02T04:13:30+02:00</time>
      </trkpt>
      <trkpt lat="46.00362" lon="6.25923">
        <ele>724</ele>
        <time>2016-10-02T04:13:31+02:00</time>
      </trkpt>
      <trkpt lat="46.00364" lon="6.25925">
        <ele>724</ele>
        <time>2016-10-02T04:13:33+02:00</time>
      </trkpt>
      <trkpt lat="46.00365" lon="6.25927">
        <ele>724</ele>
        <time>2016-10-02T04:13:35+02:00</time>
      </trkpt>
      <trkpt lat="46.00367" lon="6.25929">
        <ele>724</ele>
        <time>2016-10-02T04:13:37+02:00</time>
      </trkpt>
      <trkpt lat="46.00369" lon="6.25932">
        <ele>724</ele>
        <time>2016-10-02T04:13:39+02:00</time>
      </trkpt>
      <trkpt lat="46.00371" lon="6.25934">
        <ele>724</ele>
        <time>2016-10-02T04:13:41+02:00</time>
      </trkpt>
      <trkpt lat="46.00373" lon="6.25936">
        <ele>724</ele>
        <time>2016-10-02T04:13:43+02:00</time>
      </trkpt>
      <trkpt lat="46.00375" lon="6.25939">
        <ele>724</ele>
        <time>2016-10-02T04:13:45+02:00</time>
      </trkpt>
      <trkpt lat="46.00378" lon="6.25941">
        <ele>725</ele>
        <time>2016-10-02T04:13:47+02:00</time>
      </trkpt>
      <trkpt lat="46.0038" lon="6.25943">
        <ele>725</ele>
        <time>2016-10-02T04:13:50+02:00</time>
      </trkpt>
      <trkpt lat="46.00383" lon="6.25945">
        <ele>725</ele>
        <time>2016-10-02T04:13:52+02:00</time>
      </trkpt>
      <trkpt lat="46.00385" lon="6.25947">
        <ele>725</ele>
        <time>2016-10-02T04:13:55+02:00</time>
      </trkpt>
      <trkpt lat="46.00388" lon="6.25949">
        <ele>725</ele>
        <time>2016-10-02T04:13:57+02:00</time>
      </trkpt>
      <trkpt lat="46.0039" lon="6.25951">
        <ele>725</ele>
        <time>2016-10-02T04:13:59+02:00</time>
      </trkpt>
      <trkpt lat="46.00393" lon="6.25953">
        <ele>726</ele>
        <time>2016-10-02T04:14:01+02:00</time>
      </trkpt>
      <trkpt lat="46.00395" lon="6.25955">
        <ele>726</ele>
        <time>2016-10-02T04:14:03+02:00</time>
      </trkpt>
      <trkpt lat="46.00397" lon="6.25957">
        <ele>726</ele>
        <time>2016-10-02T04:14:06+02:00</time>
      </trkpt>
      <trkpt lat="46.004" lon="6.25958">
        <ele>726</ele>
        <time>2016-10-02T04:14:08+02:00</time>
      </trkpt>
      <trkpt lat="46.00403" lon="6.2596">
        <ele>726</ele>
        <time>2016-10-02T04:14:10+02:00</time>
      </trkpt>
      <trkpt lat="46.00406" lon="6.25962">
        <ele>727</ele>
        <time>2016-10-02T04:14:13+02:00</time>
      </trkpt>
      <trkpt lat="46.00408" lon="6.25964">
        <ele>727</ele>
        <time>2016-10-02T04:14:15+02:00</time>
      </trkpt>
      <trkpt lat="46.00411" lon="6.25967">
        <ele>727</ele>
        <time>2016-10-02T04:14:18+02:00</time>
      </trkpt>
      <trkpt lat="46.00413" lon="6.2597">
        <ele>727</ele>
        <time>2016-10-02T04:14:20+02:00</time>
      </trkpt>
      <trkpt lat="46.00415" lon="6.25972">
        <ele>727</ele>
        <time>2016-10-02T04:14:22+02:00</time>
      </trkpt>
      <trkpt lat="46.00416" lon="6.25975">
        <ele>727</ele>
        <time>2016-10-02T04:14:24+02:00</time>
      </trkpt>
      <trkpt lat="46.00418" lon="6.25978">
        <ele>727</ele>
        <time>2016-10-02T04:14:26+02:00</time>
      </trkpt>
      <trkpt lat="46.0042" lon="6.25981">
        <ele>727</ele>
        <time>2016-10-02T04:14:29+02:00</time>
      </trkpt>
      <trkpt lat="46.00422" lon="6.25984">
        <ele>727</ele>
        <time>2016-10-02T04:14:31+02:00</time>
      </trkpt>
      <trkpt lat="46.00424" lon="6.25986">
        <ele>727</ele>
        <time>2016-10-02T04:14:33+02:00</time>
      </trkpt>
      <trkpt lat="46.00425" lon="6.25989">
        <ele>727</ele>
        <time>2016-10-02T04:14:35+02:00</time>
      </trkpt>
      <trkpt lat="46.00427" lon="6.25991">
        <ele>727</ele>
        <time>2016-10-02T04:14:37+02:00</time>
      </trkpt>
      <trkpt lat="46.00429" lon="6.25994">
        <ele>727</ele>
        <time>2016-10-02T04:14:39+02:00</time>
      </trkpt>
      <trkpt lat="46.0043" lon="6.25997">
        <ele>727</ele>
        <time>2016-10-02T04:14:41+02:00</time>
      </trkpt>
      <trkpt lat="46.00431" lon="6.26">
        <ele>727</ele>
        <time>2016-10-02T04:14:43+02:00</time>
      </trkpt>
      <trkpt lat="46.00432" lon="6.26003">
        <ele>727</ele>
        <time>2016-10-02T04:14:45+02:00</time>
      </trkpt>
      <trkpt lat="46.00434" lon="6.26006">
        <ele>727</ele>
        <time>2016-10-02T04:14:47+02:00</time>
      </trkpt>
      <trkpt lat="46.00435" lon="6.26009">
        <ele>727</ele>
        <time>2016-10-02T04:14:48+02:00</time>
      </trkpt>
      <trkpt lat="46.00436" lon="6.26012">
        <ele>727</ele>
        <time>2016-10-02T04:14:50+02:00</time>
      </trkpt>
      <trkpt lat="46.00436" lon="6.26014">
        <ele>727</ele>
        <time>2016-10-02T04:14:52+02:00</time>
      </trkpt>
      <trkpt lat="46.00437" lon="6.26017">
        <ele>727</ele>
        <time>2016-10-02T04:14:54+02:00</time>
      </trkpt>
      <trkpt lat="46.00438" lon="6.2602">
        <ele>727</ele>
        <time>2016-10-02T04:14:55+02:00</time>
      </trkpt>
      <trkpt lat="46.00439" lon="6.26023">
        <ele>727</ele>
        <time>2016-10-02T04:14:57+02:00</time>
      </trkpt>
      <trkpt lat="46.0044" lon="6.26025">
        <ele>727</ele>
        <time>2016-10-02T04:14:59+02:00</time>
      </trkpt>
      <trkpt lat="46.00442" lon="6.26028">
        <ele>727</ele>
        <time>2016-10-02T04:15:00+02:00</time>
      </trkpt>
      <trkpt lat="46.00443" lon="6.26031">
        <ele>727</ele>
        <time>2016-10-02T04:15:02+02:00</time>
      </trkpt>
      <trkpt lat="46.00444" lon="6.26034">
        <ele>727</ele>
        <time>2016-10-02T04:15:04+02:00</time>
      </trkpt>
      <trkpt lat="46.00445" lon="6.26036">
        <ele>727</ele>
        <time>2016-10-02T04:15:06+02:00</time>
      </trkpt>
      <trkpt lat="46.00446" lon="6.26039">
        <ele>727</ele>
        <time>2016-10-02T04:15:08+02:00</time>
      </trkpt>
      <trkpt lat="46.00448" lon="6.26042">
        <ele>727</ele>
        <time>2016-10-02T04:15:10+02:00</time>
      </trkpt>
      <trkpt lat="46.00449" lon="6.26045">
        <ele>727</ele>
        <time>2016-10-02T04:15:12+02:00</time>
      </trkpt>
      <trkpt lat="46.0045" lon="6.26048">
        <ele>727</ele>
        <time>2016-10-02T04:15:14+02:00</time>
      </trkpt>
      <trkpt lat="46.00452" lon="6.2605">
        <ele>727</ele>
        <time>2016-10-02T04:15:15+02:00</time>
      </trkpt>
      <trkpt lat="46.00453" lon="6.26053">
        <ele>727</ele>
        <time>2016-10-02T04:15:17+02:00</time>
      </trkpt>
      <trkpt lat="46.00455" lon="6.26055">
        <ele>727</ele>
        <time>2016-10-02T04:15:19+02:00</time>
      </trkpt>
      <trkpt lat="46.00457" lon="6.26058">
        <ele>727</ele>
        <time>2016-10-02T04:15:21+02:00</time>
      </trkpt>
      <trkpt lat="46.00458" lon="6.2606">
        <ele>727</ele>
        <time>2016-10-02T04:15:23+02:00</time>
      </trkpt>
      <trkpt lat="46.0046" lon="6.26062">
        <ele>727</ele>
        <time>2016-10-02T04:15:25+02:00</time>
      </trkpt>
      <trkpt lat="46.00462" lon="6.26065">
        <ele>727</ele>
        <time>2016-10-02T04:15:27+02:00</time>
      </trkpt>
      <trkpt lat="46.00463" lon="6.26067">
        <ele>727</ele>
        <time>2016-10-02T04:15:29+02:00</time>
      </trkpt>
      <trkpt lat="46.00465" lon="6.26069">
        <ele>728</ele>
        <time>2016-10-02T04:15:30+02:00</time>
      </trkpt>
      <trkpt lat="46.00466" lon="6.26071">
        <ele>728</ele>
        <time>2016-10-02T04:15:32+02:00</time>
      </trkpt>
      <trkpt lat="46.00468" lon="6.26074">
        <ele>728</ele>
        <time>2016-10-02T04:15:34+02:00</time>
      </trkpt>
      <trkpt lat="46.00469" lon="6.26076">
        <ele>728</ele>
        <time>2016-10-02T04:15:36+02:00</time>
      </trkpt>
      <trkpt lat="46.00471" lon="6.26079">
        <ele>728</ele>
        <time>2016-10-02T04:15:37+02:00</time>
      </trkpt>
      <trkpt lat="46.00472" lon="6.26081">
        <ele>728</ele>
        <time>2016-10-02T04:15:39+02:00</time>
      </trkpt>
      <trkpt lat="46.00473" lon="6.26083">
        <ele>728</ele>
        <time>2016-10-02T04:15:41+02:00</time>
      </trkpt>
      <trkpt lat="46.00475" lon="6.26086">
        <ele>728</ele>
        <time>2016-10-02T04:15:43+02:00</time>
      </trkpt>
      <trkpt lat="46.00476" lon="6.26088">
        <ele>728</ele>
        <time>2016-10-02T04:15:44+02:00</time>
      </trkpt>
      <trkpt lat="46.00477" lon="6.2609">
        <ele>728</ele>
        <time>2016-10-02T04:15:46+02:00</time>
      </trkpt>
      <trkpt lat="46.00479" lon="6.26092">
        <ele>728</ele>
        <time>2016-10-02T04:15:47+02:00</time>
      </trkpt>
      <trkpt lat="46.0048" lon="6.26094">
        <ele>728</ele>
        <time>2016-10-02T04:15:49+02:00</time>
      </trkpt>
      <trkpt lat="46.00482" lon="6.26096">
        <ele>728</ele>
        <time>2016-10-02T04:15:51+02:00</time>
      </trkpt>
      <trkpt lat="46.00484" lon="6.26098">
        <ele>728</ele>
        <time>2016-10-02T04:15:53+02:00</time>
      </trkpt>
      <trkpt lat="46.00485" lon="6.261">
        <ele>728</ele>
        <time>2016-10-02T04:15:54+02:00</time>
      </trkpt>
      <trkpt lat="46.00487" lon="6.26102">
        <ele>728</ele>
        <time>2016-10-02T04:15:56+02:00</time>
      </trkpt>
      <trkpt lat="46.00488" lon="6.26103">
        <ele>728</ele>
        <time>2016-10-02T04:15:58+02:00</time>
      </trkpt>
      <trkpt lat="46.0049" lon="6.26106">
        <ele>728</ele>
        <time>2016-10-02T04:15:59+02:00</time>
      </trkpt>
      <trkpt lat="46.00492" lon="6.26107">
        <ele>728</ele>
        <time>2016-10-02T04:16:01+02:00</time>
      </trkpt>
      <trkpt lat="46.00494" lon="6.26109">
        <ele>729</ele>
        <time>2016-10-02T04:16:03+02:00</time>
      </trkpt>
      <trkpt lat="46.00495" lon="6.26111">
        <ele>729</ele>
        <time>2016-10-02T04:16:04+02:00</time>
      </trkpt>
      <trkpt lat="46.00497" lon="6.26113">
        <ele>729</ele>
        <time>2016-10-02T04:16:06+02:00</time>
      </trkpt>
      <trkpt lat="46.00498" lon="6.26115">
        <ele>729</ele>
        <time>2016-10-02T04:16:07+02:00</time>
      </trkpt>
      <trkpt lat="46.00499" lon="6.26117">
        <ele>729</ele>
        <time>2016-10-02T04:16:09+02:00</time>
      </trkpt>
      <trkpt lat="46.005" lon="6.26119">
        <ele>729</ele>
        <time>2016-10-02T04:16:11+02:00</time>
      </trkpt>
      <trkpt lat="46.00501" lon="6.26122">
        <ele>729</ele>
        <time>2016-10-02T04:16:12+02:00</time>
      </trkpt>
      <trkpt lat="46.00501" lon="6.26125">
        <ele>729</ele>
        <time>2016-10-02T04:16:14+02:00</time>
      </trkpt>
      <trkpt lat="46.00502" lon="6.26128">
        <ele>729</ele>
        <time>2016-10-02T04:16:16+02:00</time>
      </trkpt>
      <trkpt lat="46.00503" lon="6.26131">
        <ele>728</ele>
        <time>2016-10-02T04:16:18+02:00</time>
      </trkpt>
      <trkpt lat="46.00505" lon="6.26134">
        <ele>728</ele>
        <time>2016-10-02T04:16:20+02:00</time>
      </trkpt>
      <trkpt lat="46.00506" lon="6.26137">
        <ele>728</ele>
        <time>2016-10-02T04:16:22+02:00</time>
      </trkpt>
      <trkpt lat="46.00507" lon="6.2614">
        <ele>728</ele>
        <time>2016-10-02T04:16:23+02:00</time>
      </trkpt>
      <trkpt lat="46.00508" lon="6.26142">
        <ele>728</ele>
        <time>2016-10-02T04:16:25+02:00</time>
      </trkpt>
      <trkpt lat="46.0051" lon="6.26144">
        <ele>728</ele>
        <time>2016-10-02T04:16:27+02:00</time>
      </trkpt>
      <trkpt lat="46.00511" lon="6.26147">
        <ele>728</ele>
        <time>2016-10-02T04:16:29+02:00</time>
      </trkpt>
      <trkpt lat="46.00513" lon="6.26149">
        <ele>728</ele>
        <time>2016-10-02T04:16:31+02:00</time>
      </trkpt>
      <trkpt lat="46.00515" lon="6.26151">
        <ele>728</ele>
        <time>2016-10-02T04:16:32+02:00</time>
      </trkpt>
      <trkpt lat="46.00516" lon="6.26153">
        <ele>728</ele>
        <time>2016-10-02T04:16:34+02:00</time>
      </trkpt>
      <trkpt lat="46.00518" lon="6.26154">
        <ele>729</ele>
        <time>2016-10-02T04:16:35+02:00</time>
      </trkpt>
      <trkpt lat="46.00519" lon="6.26156">
        <ele>729</ele>
        <time>2016-10-02T04:16:37+02:00</time>
      </trkpt>
      <trkpt lat="46.00521" lon="6.26157">
        <ele>729</ele>
        <time>2016-10-02T04:16:39+02:00</time>
      </trkpt>
      <trkpt lat="46.00523" lon="6.26159">
        <ele>729</ele>
        <time>2016-10-02T04:16:40+02:00</time>
      </trkpt>
      <trkpt lat="46.00525" lon="6.2616">
        <ele>729</ele>
        <time>2016-10-02T04:16:42+02:00</time>
      </trkpt>
      <trkpt lat="46.00527" lon="6.26161">
        <ele>729</ele>
        <time>2016-10-02T04:16:44+02:00</time>
      </trkpt>
      <trkpt lat="46.00528" lon="6.26163">
        <ele>729</ele>
        <time>2016-10-02T04:16:45+02:00</time>
      </trkpt>
      <trkpt lat="46.0053" lon="6.26164">
        <ele>729</ele>
        <time>2016-10-02T04:16:47+02:00</time>
      </trkpt>
      <trkpt lat="46.00531" lon="6.26165">
        <ele>729</ele>
        <time>2016-10-02T04:16:48+02:00</time>
      </trkpt>
      <trkpt lat="46.00533" lon="6.26167">
        <ele>729</ele>
        <time>2016-10-02T04:16:50+02:00</time>
      </trkpt>
      <trkpt lat="46.00535" lon="6.26168">
        <ele>729</ele>
        <time>2016-10-02T04:16:51+02:00</time>
      </trkpt>
      <trkpt lat="46.00537" lon="6.2617">
        <ele>729</ele>
        <time>2016-10-02T04:16:53+02:00</time>
      </trkpt>
      <trkpt lat="46.00539" lon="6.26171">
        <ele>729</ele>
        <time>2016-10-02T04:16:55+02:00</time>
      </trkpt>
      <trkpt lat="46.00541" lon="6.26172">
        <ele>729</ele>
        <time>2016-10-02T04:16:57+02:00</time>
      </trkpt>
      <trkpt lat="46.00543" lon="6.26174">
        <ele>729</ele>
        <time>2016-10-02T04:16:58+02:00</time>
      </trkpt>
      <trkpt lat="46.00545" lon="6.26175">
        <ele>729</ele>
        <time>2016-10-02T04:17:00+02:00</time>
      </trkpt>
      <trkpt lat="46.00547" lon="6.26177">
        <ele>730</ele>
        <time>2016-10-02T04:17:02+02:00</time>
      </trkpt>
      <trkpt lat="46.00549" lon="6.26178">
        <ele>730</ele>
        <time>2016-10-02T04:17:04+02:00</time>
      </trkpt>
      <trkpt lat="46.00552" lon="6.26179">
        <ele>730</ele>
        <time>2016-10-02T04:17:06+02:00</time>
      </trkpt>
      <trkpt lat="46.00555" lon="6.26181">
        <ele>730</ele>
        <time>2016-10-02T04:17:09+02:00</time>
      </trkpt>
      <trkpt lat="46.00558" lon="6.26182">
        <ele>730</ele>
        <time>2016-10-02T04:17:12+02:00</time>
      </trkpt>
      <trkpt lat="46.00561" lon="6.26184">
        <ele>730</ele>
        <time>2016-10-02T04:17:14+02:00</time>
      </trkpt>
      <trkpt lat="46.00563" lon="6.26185">
        <ele>730</ele>
        <time>2016-10-02T04:17:16+02:00</time>
      </trkpt>
      <trkpt lat="46.00566" lon="6.26186">
        <ele>730</ele>
        <time>2016-10-02T04:17:18+02:00</time>
      </trkpt>
      <trkpt lat="46.00568" lon="6.26187">
        <ele>731</ele>
        <time>2016-10-02T04:17:20+02:00</time>
      </trkpt>
      <trkpt lat="46.0057" lon="6.26188">
        <ele>731</ele>
        <time>2016-10-02T04:17:22+02:00</time>
      </trkpt>
      <trkpt lat="46.00573" lon="6.26189">
        <ele>731</ele>
        <time>2016-10-02T04:17:24+02:00</time>
      </trkpt>
      <trkpt lat="46.00575" lon="6.2619">
        <ele>731</ele>
        <time>2016-10-02T04:17:26+02:00</time>
      </trkpt>
      <trkpt lat="46.00577" lon="6.26192">
        <ele>731</ele>
        <time>2016-10-02T04:17:27+02:00</time>
      </trkpt>
      <trkpt lat="46.00579" lon="6.26193">
        <ele>731</ele>
        <time>2016-10-02T04:17:29+02:00</time>
      </trkpt>
      <trkpt lat="46.00581" lon="6.26194">
        <ele>731</ele>
        <time>2016-10-02T04:17:31+02:00</time>
      </trkpt>
      <trkpt lat="46.00583" lon="6.26195">
        <ele>731</ele>
        <time>2016-10-02T04:17:33+02:00</time>
      </trkpt>
      <trkpt lat="46.00585" lon="6.26195">
        <ele>731</ele>
        <time>2016-10-02T04:17:34+02:00</time>
      </trkpt>
      <trkpt lat="46.00587" lon="6.26197">
        <ele>732</ele>
        <time>2016-10-02T04:17:36+02:00</time>
      </trkpt>
      <trkpt lat="46.00589" lon="6.26197">
        <ele>732</ele>
        <time>2016-10-02T04:17:38+02:00</time>
      </trkpt>
      <trkpt lat="46.00591" lon="6.26198">
        <ele>732</ele>
        <time>2016-10-02T04:17:40+02:00</time>
      </trkpt>
      <trkpt lat="46.00593" lon="6.26199">
        <ele>732</ele>
        <time>2016-10-02T04:17:42+02:00</time>
      </trkpt>
      <trkpt lat="46.00596" lon="6.262">
        <ele>732</ele>
        <time>2016-10-02T04:17:44+02:00</time>
      </trkpt>
      <trkpt lat="46.00598" lon="6.26202">
        <ele>732</ele>
        <time>2016-10-02T04:17:46+02:00</time>
      </trkpt>
      <trkpt lat="46.00601" lon="6.26204">
        <ele>732</ele>
        <time>2016-10-02T04:17:48+02:00</time>
      </trkpt>
      <trkpt lat="46.00603" lon="6.26206">
        <ele>732</ele>
        <time>2016-10-02T04:17:50+02:00</time>
      </trkpt>
      <trkpt lat="46.00606" lon="6.26208">
        <ele>732</ele>
        <time>2016-10-02T04:17:53+02:00</time>
      </trkpt>
      <trkpt lat="46.00608" lon="6.2621">
        <ele>733</ele>
        <time>2016-10-02T04:17:55+02:00</time>
      </trkpt>
      <trkpt lat="46.00611" lon="6.26211">
        <ele>733</ele>
        <time>2016-10-02T04:17:57+02:00</time>
      </trkpt>
      <trkpt lat="46.00613" lon="6.26212">
        <ele>733</ele>
        <time>2016-10-02T04:17:59+02:00</time>
      </trkpt>
      <trkpt lat="46.00615" lon="6.26214">
        <ele>733</ele>
        <time>2016-10-02T04:18:01+02:00</time>
      </trkpt>
      <trkpt lat="46.00617" lon="6.26216">
        <ele>733</ele>
        <time>2016-10-02T04:18:03+02:00</time>
      </trkpt>
      <trkpt lat="46.0062" lon="6.26218">
        <ele>733</ele>
        <time>2016-10-02T04:18:05+02:00</time>
      </trkpt>
      <trkpt lat="46.00622" lon="6.26219">
        <ele>733</ele>
        <time>2016-10-02T04:18:07+02:00</time>
      </trkpt>
      <trkpt lat="46.00624" lon="6.2622">
        <ele>733</ele>
        <time>2016-10-02T04:18:09+02:00</time>
      </trkpt>
      <trkpt lat="46.00626" lon="6.26222">
        <ele>733</ele>
        <time>2016-10-02T04:18:11+02:00</time>
      </trkpt>
      <trkpt lat="46.00628" lon="6.26224">
        <ele>733</ele>
        <time>2016-10-02T04:18:13+02:00</time>
      </trkpt>
      <trkpt lat="46.00629" lon="6.26226">
        <ele>734</ele>
        <time>2016-10-02T04:18:14+02:00</time>
      </trkpt>
      <trkpt lat="46.00631" lon="6.26227">
        <ele>734</ele>
        <time>2016-10-02T04:18:16+02:00</time>
      </trkpt>
      <trkpt lat="46.00632" lon="6.26229">
        <ele>734</ele>
        <time>2016-10-02T04:18:17+02:00</time>
      </trkpt>
      <trkpt lat="46.00634" lon="6.26231">
        <ele>734</ele>
        <time>2016-10-02T04:18:19+02:00</time>
      </trkpt>
      <trkpt lat="46.00636" lon="6.26233">
        <ele>734</ele>
        <time>2016-10-02T04:18:21+02:00</time>
      </trkpt>
      <trkpt lat="46.00637" lon="6.26236">
        <ele>734</ele>
        <time>2016-10-02T04:18:23+02:00</time>
      </trkpt>
      <trkpt lat="46.00639" lon="6.26239">
        <ele>734</ele>
        <time>2016-10-02T04:18:25+02:00</time>
      </trkpt>
      <trkpt lat="46.00641" lon="6.26243">
        <ele>734</ele>
        <time>2016-10-02T04:18:28+02:00</time>
      </trkpt>
      <trkpt lat="46.00642" lon="6.26246">
        <ele>734</ele>
        <time>2016-10-02T04:18:30+02:00</time>
      </trkpt>
      <trkpt lat="46.00643" lon="6.26249">
        <ele>734</ele>
        <time>2016-10-02T04:18:32+02:00</time>
      </trkpt>
      <trkpt lat="46.00645" lon="6.26252">
        <ele>734</ele>
        <time>2016-10-02T04:18:34+02:00</time>
      </trkpt>
      <trkpt lat="46.00646" lon="6.26255">
        <ele>734</ele>
        <time>2016-10-02T04:18:36+02:00</time>
      </trkpt>
      <trkpt lat="46.00648" lon="6.26258">
        <ele>734</ele>
        <time>2016-10-02T04:18:38+02:00</time>
      </trkpt>
      <trkpt lat="46.0065" lon="6.2626">
        <ele>734</ele>
        <time>2016-10-02T04:18:40+02:00</time>
      </trkpt>
      <trkpt lat="46.00653" lon="6.26262">
        <ele>734</ele>
        <time>2016-10-02T04:18:42+02:00</time>
      </trkpt>
      <trkpt lat="46.00655" lon="6.26264">
        <ele>734</ele>
        <time>2016-10-02T04:18:44+02:00</time>
      </trkpt>
      <trkpt lat="46.00658" lon="6.26265">
        <ele>734</ele>
        <time>2016-10-02T04:18:47+02:00</time>
      </trkpt>
      <trkpt lat="46.0066" lon="6.26267">
        <ele>734</ele>
        <time>2016-10-02T04:18:49+02:00</time>
      </trkpt>
      <trkpt lat="46.00662" lon="6.26269">
        <ele>734</ele>
        <time>2016-10-02T04:18:51+02:00</time>
      </trkpt>
      <trkpt lat="46.00664" lon="6.2627">
        <ele>735</ele>
        <time>2016-10-02T04:18:53+02:00</time>
      </trkpt>
      <trkpt lat="46.00667" lon="6.26271">
        <ele>735</ele>
        <time>2016-10-02T04:18:55+02:00</time>
      </trkpt>
      <trkpt lat="46.00669" lon="6.26271">
        <ele>735</ele>
        <time>2016-10-02T04:18:57+02:00</time>
      </trkpt>
      <trkpt lat="46.00671" lon="6.26272">
        <ele>735</ele>
        <time>2016-10-02T04:18:58+02:00</time>
      </trkpt>
      <trkpt lat="46.00673" lon="6.26273">
        <ele>735</ele>
        <time>2016-10-02T04:19:00+02:00</time>
      </trkpt>
      <trkpt lat="46.00675" lon="6.26274">
        <ele>735</ele>
        <time>2016-10-02T04:19:02+02:00</time>
      </trkpt>
      <trkpt lat="46.00678" lon="6.26275">
        <ele>736</ele>
        <time>2016-10-02T04:19:04+02:00</time>
      </trkpt>
      <trkpt lat="46.0068" lon="6.26276">
        <ele>736</ele>
        <time>2016-10-02T04:19:06+02:00</time>
      </trkpt>
      <trkpt lat="46.00683" lon="6.26277">
        <ele>736</ele>
        <time>2016-10-02T04:19:08+02:00</time>
      </trkpt>
      <trkpt lat="46.00685" lon="6.26278">
        <ele>736</ele>
        <time>2016-10-02T04:19:10+02:00</time>
      </trkpt>
      <trkpt lat="46.00687" lon="6.26279">
        <ele>736</ele>
        <time>2016-10-02T04:19:12+02:00</time>
      </trkpt>
      <trkpt lat="46.00689" lon="6.2628">
        <ele>736</ele>
        <time>2016-10-02T04:19:14+02:00</time>
      </trkpt>
      <trkpt lat="46.00691" lon="6.26282">
        <ele>736</ele>
        <time>2016-10-02T04:19:15+02:00</time>
      </trkpt>
      <trkpt lat="46.00694" lon="6.26283">
        <ele>737</ele>
        <time>2016-10-02T04:19:17+02:00</time>
      </trkpt>
      <trkpt lat="46.00696" lon="6.26285">
        <ele>737</ele>
        <time>2016-10-02T04:19:19+02:00</time>
      </trkpt>
      <trkpt lat="46.00698" lon="6.26286">
        <ele>737</ele>
        <time>2016-10-02T04:19:22+02:00</time>
      </trkpt>
      <trkpt lat="46.007" lon="6.26288">
        <ele>737</ele>
        <time>2016-10-02T04:19:23+02:00</time>
      </trkpt>
      <trkpt lat="46.00702" lon="6.2629">
        <ele>737</ele>
        <time>2016-10-02T04:19:25+02:00</time>
      </trkpt>
      <trkpt lat="46.00704" lon="6.26292">
        <ele>737</ele>
        <time>2016-10-02T04:19:27+02:00</time>
      </trkpt>
      <trkpt lat="46.00706" lon="6.26294">
        <ele>737</ele>
        <time>2016-10-02T04:19:29+02:00</time>
      </trkpt>
      <trkpt lat="46.00707" lon="6.26296">
        <ele>737</ele>
        <time>2016-10-02T04:19:31+02:00</time>
      </trkpt>
      <trkpt lat="46.00709" lon="6.26298">
        <ele>737</ele>
        <time>2016-10-02T04:19:33+02:00</time>
      </trkpt>
      <trkpt lat="46.00711" lon="6.263">
        <ele>737</ele>
        <time>2016-10-02T04:19:35+02:00</time>
      </trkpt>
      <trkpt lat="46.00712" lon="6.26302">
        <ele>738</ele>
        <time>2016-10-02T04:19:36+02:00</time>
      </trkpt>
      <trkpt lat="46.00713" lon="6.26304">
        <ele>738</ele>
        <time>2016-10-02T04:19:38+02:00</time>
      </trkpt>
      <trkpt lat="46.00714" lon="6.26307">
        <ele>738</ele>
        <time>2016-10-02T04:19:39+02:00</time>
      </trkpt>
      <trkpt lat="46.00715" lon="6.26309">
        <ele>738</ele>
        <time>2016-10-02T04:19:41+02:00</time>
      </trkpt>
      <trkpt lat="46.00716" lon="6.26311">
        <ele>738</ele>
        <time>2016-10-02T04:19:42+02:00</time>
      </trkpt>
      <trkpt lat="46.00718" lon="6.26313">
        <ele>738</ele>
        <time>2016-10-02T04:19:43+02:00</time>
      </trkpt>
      <trkpt lat="46.00719" lon="6.26316">
        <ele>738</ele>
        <time>2016-10-02T04:19:45+02:00</time>
      </trkpt>
      <trkpt lat="46.00719" lon="6.26318">
        <ele>738</ele>
        <time>2016-10-02T04:19:47+02:00</time>
      </trkpt>
      <trkpt lat="46.00721" lon="6.2632">
        <ele>738</ele>
        <time>2016-10-02T04:19:48+02:00</time>
      </trkpt>
      <trkpt lat="46.00722" lon="6.26322">
        <ele>738</ele>
        <time>2016-10-02T04:19:50+02:00</time>
      </trkpt>
      <trkpt lat="46.00723" lon="6.26324">
        <ele>738</ele>
        <time>2016-10-02T04:19:51+02:00</time>
      </trkpt>
      <trkpt lat="46.00724" lon="6.26326">
        <ele>738</ele>
        <time>2016-10-02T04:19:52+02:00</time>
      </trkpt>
      <trkpt lat="46.00725" lon="6.26328">
        <ele>738</ele>
        <time>2016-10-02T04:19:54+02:00</time>
      </trkpt>
      <trkpt lat="46.00725" lon="6.26331">
        <ele>738</ele>
        <time>2016-10-02T04:19:55+02:00</time>
      </trkpt>
      <trkpt lat="46.00727" lon="6.26334">
        <ele>738</ele>
        <time>2016-10-02T04:19:58+02:00</time>
      </trkpt>
      <trkpt lat="46.00728" lon="6.26336">
        <ele>738</ele>
        <time>2016-10-02T04:19:59+02:00</time>
      </trkpt>
      <trkpt lat="46.00729" lon="6.26338">
        <ele>738</ele>
        <time>2016-10-02T04:20:01+02:00</time>
      </trkpt>
      <trkpt lat="46.00731" lon="6.2634">
        <ele>738</ele>
        <time>2016-10-02T04:20:02+02:00</time>
      </trkpt>
      <trkpt lat="46.00732" lon="6.26342">
        <ele>738</ele>
        <time>2016-10-02T04:20:04+02:00</time>
      </trkpt>
      <trkpt lat="46.00733" lon="6.26344">
        <ele>738</ele>
        <time>2016-10-02T04:20:05+02:00</time>
      </trkpt>
      <trkpt lat="46.00734" lon="6.26346">
        <ele>738</ele>
        <time>2016-10-02T04:20:07+02:00</time>
      </trkpt>
      <trkpt lat="46.00735" lon="6.26348">
        <ele>738</ele>
        <time>2016-10-02T04:20:08+02:00</time>
      </trkpt>
      <trkpt lat="46.00736" lon="6.2635">
        <ele>738</ele>
        <time>2016-10-02T04:20:10+02:00</time>
      </trkpt>
      <trkpt lat="46.00738" lon="6.26352">
        <ele>738</ele>
        <time>2016-10-02T04:20:11+02:00</time>
      </trkpt>
      <trkpt lat="46.00739" lon="6.26354">
        <ele>738</ele>
        <time>2016-10-02T04:20:13+02:00</time>
      </trkpt>
      <trkpt lat="46.0074" lon="6.26356">
        <ele>738</ele>
        <time>2016-10-02T04:20:14+02:00</time>
      </trkpt>
      <trkpt lat="46.00741" lon="6.26358">
        <ele>738</ele>
        <time>2016-10-02T04:20:15+02:00</time>
      </trkpt>
      <trkpt lat="46.00742" lon="6.26361">
        <ele>738</ele>
        <time>2016-10-02T04:20:17+02:00</time>
      </trkpt>
      <trkpt lat="46.00743" lon="6.26363">
        <ele>738</ele>
        <time>2016-10-02T04:20:19+02:00</time>
      </trkpt>
      <trkpt lat="46.00744" lon="6.26365">
        <ele>738</ele>
        <time>2016-10-02T04:20:20+02:00</time>
      </trkpt>
      <trkpt lat="46.00746" lon="6.26367">
        <ele>738</ele>
        <time>2016-10-02T04:20:22+02:00</time>
      </trkpt>
      <trkpt lat="46.00747" lon="6.2637">
        <ele>738</ele>
        <time>2016-10-02T04:20:23+02:00</time>
      </trkpt>
      <trkpt lat="46.00748" lon="6.26372">
        <ele>738</ele>
        <time>2016-10-02T04:20:25+02:00</time>
      </trkpt>
      <trkpt lat="46.0075" lon="6.26374">
        <ele>738</ele>
        <time>2016-10-02T04:20:27+02:00</time>
      </trkpt>
      <trkpt lat="46.00751" lon="6.26377">
        <ele>739</ele>
        <time>2016-10-02T04:20:29+02:00</time>
      </trkpt>
      <trkpt lat="46.00753" lon="6.26379">
        <ele>739</ele>
        <time>2016-10-02T04:20:31+02:00</time>
      </trkpt>
      <trkpt lat="46.00755" lon="6.26381">
        <ele>739</ele>
        <time>2016-10-02T04:20:33+02:00</time>
      </trkpt>
      <trkpt lat="46.00756" lon="6.26383">
        <ele>739</ele>
        <time>2016-10-02T04:20:34+02:00</time>
      </trkpt>
      <trkpt lat="46.00758" lon="6.26385">
        <ele>739</ele>
        <time>2016-10-02T04:20:36+02:00</time>
      </trkpt>
      <trkpt lat="46.00759" lon="6.26387">
        <ele>739</ele>
        <time>2016-10-02T04:20:37+02:00</time>
      </trkpt>
      <trkpt lat="46.00761" lon="6.26389">
        <ele>739</ele>
        <time>2016-10-02T04:20:39+02:00</time>
      </trkpt>
      <trkpt lat="46.00763" lon="6.26391">
        <ele>739</ele>
        <time>2016-10-02T04:20:41+02:00</time>
      </trkpt>
      <trkpt lat="46.00764" lon="6.26392">
        <ele>739</ele>
        <time>2016-10-02T04:20:43+02:00</time>
      </trkpt>
      <trkpt lat="46.00766" lon="6.26394">
        <ele>740</ele>
        <time>2016-10-02T04:20:44+02:00</time>
      </trkpt>
      <trkpt lat="46.00768" lon="6.26396">
        <ele>740</ele>
        <time>2016-10-02T04:20:46+02:00</time>
      </trkpt>
      <trkpt lat="46.0077" lon="6.26398">
        <ele>740</ele>
        <time>2016-10-02T04:20:48+02:00</time>
      </trkpt>
      <trkpt lat="46.00772" lon="6.264">
        <ele>740</ele>
        <time>2016-10-02T04:20:50+02:00</time>
      </trkpt>
      <trkpt lat="46.00774" lon="6.26402">
        <ele>740</ele>
        <time>2016-10-02T04:20:52+02:00</time>
      </trkpt>
      <trkpt lat="46.00776" lon="6.26404">
        <ele>740</ele>
        <time>2016-10-02T04:20:54+02:00</time>
      </trkpt>
      <trkpt lat="46.00778" lon="6.26407">
        <ele>740</ele>
        <time>2016-10-02T04:20:56+02:00</time>
      </trkpt>
      <trkpt lat="46.00779" lon="6.26409">
        <ele>740</ele>
        <time>2016-10-02T04:20:58+02:00</time>
      </trkpt>
      <trkpt lat="46.00781" lon="6.26412">
        <ele>740</ele>
        <time>2016-10-02T04:21:00+02:00</time>
      </trkpt>
      <trkpt lat="46.00783" lon="6.26414">
        <ele>740</ele>
        <time>2016-10-02T04:21:02+02:00</time>
      </trkpt>
      <trkpt lat="46.00785" lon="6.26416">
        <ele>741</ele>
        <time>2016-10-02T04:21:04+02:00</time>
      </trkpt>
      <trkpt lat="46.00786" lon="6.26418">
        <ele>741</ele>
        <time>2016-10-02T04:21:06+02:00</time>
      </trkpt>
      <trkpt lat="46.00788" lon="6.26421">
        <ele>741</ele>
        <time>2016-10-02T04:21:07+02:00</time>
      </trkpt>
      <trkpt lat="46.0079" lon="6.26423">
        <ele>741</ele>
        <time>2016-10-02T04:21:09+02:00</time>
      </trkpt>
      <trkpt lat="46.00792" lon="6.26425">
        <ele>741</ele>
        <time>2016-10-02T04:21:11+02:00</time>
      </trkpt>
      <trkpt lat="46.00793" lon="6.26428">
        <ele>741</ele>
        <time>2016-10-02T04:21:13+02:00</time>
      </trkpt>
      <trkpt lat="46.00795" lon="6.2643">
        <ele>741</ele>
        <time>2016-10-02T04:21:15+02:00</time>
      </trkpt>
      <trkpt lat="46.00797" lon="6.26432">
        <ele>741</ele>
        <time>2016-10-02T04:21:17+02:00</time>
      </trkpt>
      <trkpt lat="46.00798" lon="6.26435">
        <ele>741</ele>
        <time>2016-10-02T04:21:19+02:00</time>
      </trkpt>
      <trkpt lat="46.008" lon="6.26437">
        <ele>741</ele>
        <time>2016-10-02T04:21:21+02:00</time>
      </trkpt>
      <trkpt lat="46.00801" lon="6.26439">
        <ele>741</ele>
        <time>2016-10-02T04:21:22+02:00</time>
      </trkpt>
      <trkpt lat="46.00803" lon="6.26442">
        <ele>742</ele>
        <time>2016-10-02T04:21:24+02:00</time>
      </trkpt>
      <trkpt lat="46.00805" lon="6.26444">
        <ele>742</ele>
        <time>2016-10-02T04:21:26+02:00</time>
      </trkpt>
      <trkpt lat="46.00806" lon="6.26447">
        <ele>742</ele>
        <time>2016-10-02T04:21:28+02:00</time>
      </trkpt>
      <trkpt lat="46.00808" lon="6.26449">
        <ele>742</ele>
        <time>2016-10-02T04:21:30+02:00</time>
      </trkpt>
      <trkpt lat="46.00809" lon="6.26452">
        <ele>742</ele>
        <time>2016-10-02T04:21:32+02:00</time>
      </trkpt>
      <trkpt lat="46.00811" lon="6.26454">
        <ele>742</ele>
        <time>2016-10-02T04:21:34+02:00</time>
      </trkpt>
      <trkpt lat="46.00813" lon="6.26457">
        <ele>742</ele>
        <time>2016-10-02T04:21:36+02:00</time>
      </trkpt>
      <trkpt lat="46.00814" lon="6.2646">
        <ele>742</ele>
        <time>2016-10-02T04:21:38+02:00</time>
      </trkpt>
      <trkpt lat="46.00816" lon="6.26463">
        <ele>742</ele>
        <time>2016-10-02T04:21:40+02:00</time>
      </trkpt>
      <trkpt lat="46.00817" lon="6.26466">
        <ele>742</ele>
        <time>2016-10-02T04:21:42+02:00</time>
      </trkpt>
      <trkpt lat="46.00818" lon="6.26468">
        <ele>742</ele>
        <time>2016-10-02T04:21:44+02:00</time>
      </trkpt>
      <trkpt lat="46.00819" lon="6.26471">
        <ele>742</ele>
        <time>2016-10-02T04:21:46+02:00</time>
      </trkpt>
      <trkpt lat="46.00821" lon="6.26474">
        <ele>742</ele>
        <time>2016-10-02T04:21:47+02:00</time>
      </trkpt>
      <trkpt lat="46.00822" lon="6.26476">
        <ele>742</ele>
        <time>2016-10-02T04:21:49+02:00</time>
      </trkpt>
      <trkpt lat="46.00823" lon="6.26479">
        <ele>743</ele>
        <time>2016-10-02T04:21:51+02:00</time>
      </trkpt>
      <trkpt lat="46.00825" lon="6.26482">
        <ele>743</ele>
        <time>2016-10-02T04:21:53+02:00</time>
      </trkpt>
      <trkpt lat="46.00826" lon="6.26484">
        <ele>743</ele>
        <time>2016-10-02T04:21:55+02:00</time>
      </trkpt>
      <trkpt lat="46.00827" lon="6.26487">
        <ele>743</ele>
        <time>2016-10-02T04:21:57+02:00</time>
      </trkpt>
      <trkpt lat="46.00828" lon="6.2649">
        <ele>743</ele>
        <time>2016-10-02T04:21:58+02:00</time>
      </trkpt>
      <trkpt lat="46.00829" lon="6.26493">
        <ele>743</ele>
        <time>2016-10-02T04:22:00+02:00</time>
      </trkpt>
      <trkpt lat="46.0083" lon="6.26495">
        <ele>743</ele>
        <time>2016-10-02T04:22:02+02:00</time>
      </trkpt>
      <trkpt lat="46.00831" lon="6.26498">
        <ele>743</ele>
        <time>2016-10-02T04:22:04+02:00</time>
      </trkpt>
      <trkpt lat="46.00833" lon="6.26501">
        <ele>743</ele>
        <time>2016-10-02T04:22:06+02:00</time>
      </trkpt>
      <trkpt lat="46.00834" lon="6.26504">
        <ele>743</ele>
        <time>2016-10-02T04:22:08+02:00</time>
      </trkpt>
      <trkpt lat="46.00835" lon="6.26507">
        <ele>743</ele>
        <time>2016-10-02T04:22:09+02:00</time>
      </trkpt>
      <trkpt lat="46.00836" lon="6.2651">
        <ele>743</ele>
        <time>2016-10-02T04:22:11+02:00</time>
      </trkpt>
      <trkpt lat="46.00837" lon="6.26513">
        <ele>744</ele>
        <time>2016-10-02T04:22:13+02:00</time>
      </trkpt>
      <trkpt lat="46.00838" lon="6.26516">
        <ele>744</ele>
        <time>2016-10-02T04:22:15+02:00</time>
      </trkpt>
      <trkpt lat="46.00839" lon="6.26519">
        <ele>744</ele>
        <time>2016-10-02T04:22:17+02:00</time>
      </trkpt>
      <trkpt lat="46.0084" lon="6.26522">
        <ele>744</ele>
        <time>2016-10-02T04:22:19+02:00</time>
      </trkpt>
      <trkpt lat="46.0084" lon="6.26525">
        <ele>744</ele>
        <time>2016-10-02T04:22:21+02:00</time>
      </trkpt>
      <trkpt lat="46.00841" lon="6.26528">
        <ele>744</ele>
        <time>2016-10-02T04:22:23+02:00</time>
      </trkpt>
      <trkpt lat="46.00842" lon="6.26531">
        <ele>745</ele>
        <time>2016-10-02T04:22:25+02:00</time>
      </trkpt>
      <trkpt lat="46.00843" lon="6.26534">
        <ele>745</ele>
        <time>2016-10-02T04:22:26+02:00</time>
      </trkpt>
      <trkpt lat="46.00844" lon="6.26537">
        <ele>745</ele>
        <time>2016-10-02T04:22:28+02:00</time>
      </trkpt>
      <trkpt lat="46.00845" lon="6.2654">
        <ele>745</ele>
        <time>2016-10-02T04:22:30+02:00</time>
      </trkpt>
      <trkpt lat="46.00846" lon="6.26543">
        <ele>745</ele>
        <time>2016-10-02T04:22:32+02:00</time>
      </trkpt>
      <trkpt lat="46.00847" lon="6.26546">
        <ele>745</ele>
        <time>2016-10-02T04:22:33+02:00</time>
      </trkpt>
      <trkpt lat="46.00848" lon="6.26548">
        <ele>745</ele>
        <time>2016-10-02T04:22:35+02:00</time>
      </trkpt>
      <trkpt lat="46.00849" lon="6.26551">
        <ele>746</ele>
        <time>2016-10-02T04:22:37+02:00</time>
      </trkpt>
      <trkpt lat="46.0085" lon="6.26554">
        <ele>746</ele>
        <time>2016-10-02T04:22:38+02:00</time>
      </trkpt>
      <trkpt lat="46.00851" lon="6.26557">
        <ele>746</ele>
        <time>2016-10-02T04:22:40+02:00</time>
      </trkpt>
      <trkpt lat="46.00852" lon="6.26559">
        <ele>746</ele>
        <time>2016-10-02T04:22:42+02:00</time>
      </trkpt>
      <trkpt lat="46.00854" lon="6.26562">
        <ele>746</ele>
        <time>2016-10-02T04:22:44+02:00</time>
      </trkpt>
      <trkpt lat="46.00855" lon="6.26564">
        <ele>746</ele>
        <time>2016-10-02T04:22:46+02:00</time>
      </trkpt>
      <trkpt lat="46.00857" lon="6.26567">
        <ele>747</ele>
        <time>2016-10-02T04:22:48+02:00</time>
      </trkpt>
      <trkpt lat="46.00858" lon="6.26569">
        <ele>747</ele>
        <time>2016-10-02T04:22:49+02:00</time>
      </trkpt>
      <trkpt lat="46.0086" lon="6.26572">
        <ele>747</ele>
        <time>2016-10-02T04:22:51+02:00</time>
      </trkpt>
      <trkpt lat="46.00861" lon="6.26574">
        <ele>747</ele>
        <time>2016-10-02T04:22:53+02:00</time>
      </trkpt>
      <trkpt lat="46.00863" lon="6.26577">
        <ele>747</ele>
        <time>2016-10-02T04:22:55+02:00</time>
      </trkpt>
      <trkpt lat="46.00865" lon="6.2658">
        <ele>747</ele>
        <time>2016-10-02T04:22:58+02:00</time>
      </trkpt>
      <trkpt lat="46.00867" lon="6.26583">
        <ele>748</ele>
        <time>2016-10-02T04:23:00+02:00</time>
      </trkpt>
      <trkpt lat="46.00869" lon="6.26585">
        <ele>748</ele>
        <time>2016-10-02T04:23:02+02:00</time>
      </trkpt>
      <trkpt lat="46.00871" lon="6.26588">
        <ele>748</ele>
        <time>2016-10-02T04:23:04+02:00</time>
      </trkpt>
      <trkpt lat="46.00872" lon="6.2659">
        <ele>748</ele>
        <time>2016-10-02T04:23:06+02:00</time>
      </trkpt>
      <trkpt lat="46.00874" lon="6.26592">
        <ele>748</ele>
        <time>2016-10-02T04:23:08+02:00</time>
      </trkpt>
      <trkpt lat="46.00875" lon="6.26595">
        <ele>748</ele>
        <time>2016-10-02T04:23:09+02:00</time>
      </trkpt>
      <trkpt lat="46.00877" lon="6.26597">
        <ele>749</ele>
        <time>2016-10-02T04:23:11+02:00</time>
      </trkpt>
      <trkpt lat="46.00878" lon="6.26599">
        <ele>749</ele>
        <time>2016-10-02T04:23:13+02:00</time>
      </trkpt>
      <trkpt lat="46.00879" lon="6.26602">
        <ele>749</ele>
        <time>2016-10-02T04:23:14+02:00</time>
      </trkpt>
      <trkpt lat="46.00881" lon="6.26604">
        <ele>749</ele>
        <time>2016-10-02T04:23:16+02:00</time>
      </trkpt>
      <trkpt lat="46.00882" lon="6.26607">
        <ele>749</ele>
        <time>2016-10-02T04:23:18+02:00</time>
      </trkpt>
      <trkpt lat="46.00883" lon="6.2661">
        <ele>749</ele>
        <time>2016-10-02T04:23:20+02:00</time>
      </trkpt>
      <trkpt lat="46.00884" lon="6.26613">
        <ele>749</ele>
        <time>2016-10-02T04:23:22+02:00</time>
      </trkpt>
      <trkpt lat="46.00886" lon="6.26616">
        <ele>749</ele>
        <time>2016-10-02T04:23:24+02:00</time>
      </trkpt>
      <trkpt lat="46.00887" lon="6.26618">
        <ele>749</ele>
        <time>2016-10-02T04:23:26+02:00</time>
      </trkpt>
      <trkpt lat="46.00889" lon="6.26621">
        <ele>749</ele>
        <time>2016-10-02T04:23:28+02:00</time>
      </trkpt>
      <trkpt lat="46.0089" lon="6.26623">
        <ele>749</ele>
        <time>2016-10-02T04:23:30+02:00</time>
      </trkpt>
      <trkpt lat="46.00892" lon="6.26625">
        <ele>750</ele>
        <time>2016-10-02T04:23:31+02:00</time>
      </trkpt>
      <trkpt lat="46.00894" lon="6.26627">
        <ele>750</ele>
        <time>2016-10-02T04:23:33+02:00</time>
      </trkpt>
      <trkpt lat="46.00896" lon="6.26629">
        <ele>750</ele>
        <time>2016-10-02T04:23:35+02:00</time>
      </trkpt>
      <trkpt lat="46.00897" lon="6.26631">
        <ele>750</ele>
        <time>2016-10-02T04:23:36+02:00</time>
      </trkpt>
      <trkpt lat="46.00899" lon="6.26633">
        <ele>750</ele>
        <time>2016-10-02T04:23:38+02:00</time>
      </trkpt>
      <trkpt lat="46.00901" lon="6.26634">
        <ele>750</ele>
        <time>2016-10-02T04:23:40+02:00</time>
      </trkpt>
      <trkpt lat="46.00903" lon="6.26635">
        <ele>750</ele>
        <time>2016-10-02T04:23:42+02:00</time>
      </trkpt>
      <trkpt lat="46.00905" lon="6.26637">
        <ele>751</ele>
        <time>2016-10-02T04:23:44+02:00</time>
      </trkpt>
      <trkpt lat="46.00907" lon="6.26638">
        <ele>751</ele>
        <time>2016-10-02T04:23:45+02:00</time>
      </trkpt>
      <trkpt lat="46.00909" lon="6.26638">
        <ele>751</ele>
        <time>2016-10-02T04:23:47+02:00</time>
      </trkpt>
      <trkpt lat="46.00912" lon="6.26638">
        <ele>751</ele>
        <time>2016-10-02T04:23:49+02:00</time>
      </trkpt>
      <trkpt lat="46.00914" lon="6.26638">
        <ele>751</ele>
        <time>2016-10-02T04:23:51+02:00</time>
      </trkpt>
      <trkpt lat="46.00916" lon="6.26638">
        <ele>752</ele>
        <time>2016-10-02T04:23:52+02:00</time>
      </trkpt>
      <trkpt lat="46.00918" lon="6.26638">
        <ele>752</ele>
        <time>2016-10-02T04:23:54+02:00</time>
      </trkpt>
      <trkpt lat="46.0092" lon="6.26637">
        <ele>752</ele>
        <time>2016-10-02T04:23:56+02:00</time>
      </trkpt>
      <trkpt lat="46.00922" lon="6.26637">
        <ele>752</ele>
        <time>2016-10-02T04:23:57+02:00</time>
      </trkpt>
      <trkpt lat="46.00924" lon="6.26636">
        <ele>752</ele>
        <time>2016-10-02T04:23:59+02:00</time>
      </trkpt>
      <trkpt lat="46.00926" lon="6.26636">
        <ele>752</ele>
        <time>2016-10-02T04:24:00+02:00</time>
      </trkpt>
      <trkpt lat="46.00928" lon="6.26636">
        <ele>753</ele>
        <time>2016-10-02T04:24:02+02:00</time>
      </trkpt>
      <trkpt lat="46.00929" lon="6.26636">
        <ele>753</ele>
        <time>2016-10-02T04:24:03+02:00</time>
      </trkpt>
      <trkpt lat="46.00931" lon="6.26636">
        <ele>753</ele>
        <time>2016-10-02T04:24:05+02:00</time>
      </trkpt>
      <trkpt lat="46.00933" lon="6.26636">
        <ele>753</ele>
        <time>2016-10-02T04:24:06+02:00</time>
      </trkpt>
      <trkpt lat="46.00934" lon="6.26636">
        <ele>753</ele>
        <time>2016-10-02T04:24:07+02:00</time>
      </trkpt>
      <trkpt lat="46.00936" lon="6.26636">
        <ele>753</ele>
        <time>2016-10-02T04:24:09+02:00</time>
      </trkpt>
      <trkpt lat="46.00938" lon="6.26636">
        <ele>753</ele>
        <time>2016-10-02T04:24:10+02:00</time>
      </trkpt>
      <trkpt lat="46.0094" lon="6.26635">
        <ele>754</ele>
        <time>2016-10-02T04:24:12+02:00</time>
      </trkpt>
      <trkpt lat="46.00942" lon="6.26635">
        <ele>754</ele>
        <time>2016-10-02T04:24:14+02:00</time>
      </trkpt>
      <trkpt lat="46.00944" lon="6.26636">
        <ele>754</ele>
        <time>2016-10-02T04:24:15+02:00</time>
      </trkpt>
      <trkpt lat="46.00946" lon="6.26637">
        <ele>754</ele>
        <time>2016-10-02T04:24:17+02:00</time>
      </trkpt>
      <trkpt lat="46.00948" lon="6.26637">
        <ele>754</ele>
        <time>2016-10-02T04:24:19+02:00</time>
      </trkpt>
      <trkpt lat="46.0095" lon="6.26638">
        <ele>754</ele>
        <time>2016-10-02T04:24:20+02:00</time>
      </trkpt>
      <trkpt lat="46.00952" lon="6.26639">
        <ele>754</ele>
        <time>2016-10-02T04:24:22+02:00</time>
      </trkpt>
      <trkpt lat="46.00954" lon="6.2664">
        <ele>754</ele>
        <time>2016-10-02T04:24:23+02:00</time>
      </trkpt>
      <trkpt lat="46.00956" lon="6.26641">
        <ele>755</ele>
        <time>2016-10-02T04:24:25+02:00</time>
      </trkpt>
      <trkpt lat="46.00958" lon="6.26642">
        <ele>755</ele>
        <time>2016-10-02T04:24:27+02:00</time>
      </trkpt>
      <trkpt lat="46.0096" lon="6.26644">
        <ele>755</ele>
        <time>2016-10-02T04:24:28+02:00</time>
      </trkpt>
      <trkpt lat="46.00962" lon="6.26645">
        <ele>755</ele>
        <time>2016-10-02T04:24:30+02:00</time>
      </trkpt>
      <trkpt lat="46.00964" lon="6.26647">
        <ele>755</ele>
        <time>2016-10-02T04:24:32+02:00</time>
      </trkpt>
      <trkpt lat="46.00967" lon="6.26649">
        <ele>755</ele>
        <time>2016-10-02T04:24:35+02:00</time>
      </trkpt>
      <trkpt lat="46.0097" lon="6.26651">
        <ele>755</ele>
        <time>2016-10-02T04:24:38+02:00</time>
      </trkpt>
      <trkpt lat="46.00972" lon="6.26654">
        <ele>755</ele>
        <time>2016-10-02T04:24:40+02:00</time>
      </trkpt>
      <trkpt lat="46.00975" lon="6.26656">
        <ele>756</ele>
        <time>2016-10-02T04:24:42+02:00</time>
      </trkpt>
      <trkpt lat="46.00976" lon="6.26658">
        <ele>756</ele>
        <time>2016-10-02T04:24:44+02:00</time>
      </trkpt>
      <trkpt lat="46.00978" lon="6.2666">
        <ele>756</ele>
        <time>2016-10-02T04:24:46+02:00</time>
      </trkpt>
      <trkpt lat="46.00979" lon="6.26663">
        <ele>756</ele>
        <time>2016-10-02T04:24:48+02:00</time>
      </trkpt>
      <trkpt lat="46.0098" lon="6.26666">
        <ele>756</ele>
        <time>2016-10-02T04:24:49+02:00</time>
      </trkpt>
      <trkpt lat="46.00981" lon="6.26668">
        <ele>756</ele>
        <time>2016-10-02T04:24:51+02:00</time>
      </trkpt>
      <trkpt lat="46.00982" lon="6.26671">
        <ele>756</ele>
        <time>2016-10-02T04:24:53+02:00</time>
      </trkpt>
      <trkpt lat="46.00984" lon="6.26673">
        <ele>756</ele>
        <time>2016-10-02T04:24:55+02:00</time>
      </trkpt>
      <trkpt lat="46.00985" lon="6.26676">
        <ele>756</ele>
        <time>2016-10-02T04:24:56+02:00</time>
      </trkpt>
      <trkpt lat="46.00986" lon="6.26678">
        <ele>756</ele>
        <time>2016-10-02T04:24:58+02:00</time>
      </trkpt>
      <trkpt lat="46.00986" lon="6.26681">
        <ele>755</ele>
        <time>2016-10-02T04:25:00+02:00</time>
      </trkpt>
      <trkpt lat="46.00987" lon="6.26684">
        <ele>755</ele>
        <time>2016-10-02T04:25:01+02:00</time>
      </trkpt>
      <trkpt lat="46.00988" lon="6.26687">
        <ele>755</ele>
        <time>2016-10-02T04:25:03+02:00</time>
      </trkpt>
      <trkpt lat="46.00988" lon="6.2669">
        <ele>755</ele>
        <time>2016-10-02T04:25:05+02:00</time>
      </trkpt>
      <trkpt lat="46.00989" lon="6.26693">
        <ele>755</ele>
        <time>2016-10-02T04:25:07+02:00</time>
      </trkpt>
      <trkpt lat="46.0099" lon="6.26696">
        <ele>755</ele>
        <time>2016-10-02T04:25:09+02:00</time>
      </trkpt>
      <trkpt lat="46.00992" lon="6.26699">
        <ele>755</ele>
        <time>2016-10-02T04:25:11+02:00</time>
      </trkpt>
      <trkpt lat="46.00993" lon="6.26702">
        <ele>755</ele>
        <time>2016-10-02T04:25:13+02:00</time>
      </trkpt>
      <trkpt lat="46.00994" lon="6.26705">
        <ele>755</ele>
        <time>2016-10-02T04:25:14+02:00</time>
      </trkpt>
      <trkpt lat="46.00995" lon="6.26708">
        <ele>755</ele>
        <time>2016-10-02T04:25:16+02:00</time>
      </trkpt>
      <trkpt lat="46.00996" lon="6.2671">
        <ele>755</ele>
        <time>2016-10-02T04:25:18+02:00</time>
      </trkpt>
      <trkpt lat="46.00998" lon="6.26713">
        <ele>755</ele>
        <time>2016-10-02T04:25:20+02:00</time>
      </trkpt>
      <trkpt lat="46.00999" lon="6.26716">
        <ele>755</ele>
        <time>2016-10-02T04:25:22+02:00</time>
      </trkpt>
      <trkpt lat="46.01" lon="6.26718">
        <ele>755</ele>
        <time>2016-10-02T04:25:24+02:00</time>
      </trkpt>
      <trkpt lat="46.01001" lon="6.26721">
        <ele>755</ele>
        <time>2016-10-02T04:25:25+02:00</time>
      </trkpt>
      <trkpt lat="46.01002" lon="6.26724">
        <ele>755</ele>
        <time>2016-10-02T04:25:27+02:00</time>
      </trkpt>
      <trkpt lat="46.01004" lon="6.26726">
        <ele>755</ele>
        <time>2016-10-02T04:25:29+02:00</time>
      </trkpt>
      <trkpt lat="46.01005" lon="6.26729">
        <ele>755</ele>
        <time>2016-10-02T04:25:31+02:00</time>
      </trkpt>
      <trkpt lat="46.01007" lon="6.26732">
        <ele>755</ele>
        <time>2016-10-02T04:25:33+02:00</time>
      </trkpt>
      <trkpt lat="46.01008" lon="6.26735">
        <ele>755</ele>
        <time>2016-10-02T04:25:35+02:00</time>
      </trkpt>
      <trkpt lat="46.01009" lon="6.26738">
        <ele>755</ele>
        <time>2016-10-02T04:25:37+02:00</time>
      </trkpt>
      <trkpt lat="46.0101" lon="6.26741">
        <ele>755</ele>
        <time>2016-10-02T04:25:39+02:00</time>
      </trkpt>
      <trkpt lat="46.01012" lon="6.26745">
        <ele>755</ele>
        <time>2016-10-02T04:25:41+02:00</time>
      </trkpt>
      <trkpt lat="46.01013" lon="6.26748">
        <ele>755</ele>
        <time>2016-10-02T04:25:43+02:00</time>
      </trkpt>
      <trkpt lat="46.01013" lon="6.26751">
        <ele>755</ele>
        <time>2016-10-02T04:25:45+02:00</time>
      </trkpt>
      <trkpt lat="46.01014" lon="6.26754">
        <ele>755</ele>
        <time>2016-10-02T04:25:47+02:00</time>
      </trkpt>
      <trkpt lat="46.01015" lon="6.26757">
        <ele>755</ele>
        <time>2016-10-02T04:25:49+02:00</time>
      </trkpt>
      <trkpt lat="46.01016" lon="6.2676">
        <ele>755</ele>
        <time>2016-10-02T04:25:51+02:00</time>
      </trkpt>
      <trkpt lat="46.01016" lon="6.26764">
        <ele>756</ele>
        <time>2016-10-02T04:25:53+02:00</time>
      </trkpt>
      <trkpt lat="46.01017" lon="6.26767">
        <ele>756</ele>
        <time>2016-10-02T04:25:55+02:00</time>
      </trkpt>
      <trkpt lat="46.01017" lon="6.2677">
        <ele>756</ele>
        <time>2016-10-02T04:25:56+02:00</time>
      </trkpt>
      <trkpt lat="46.01018" lon="6.26773">
        <ele>756</ele>
        <time>2016-10-02T04:25:58+02:00</time>
      </trkpt>
      <trkpt lat="46.01018" lon="6.26776">
        <ele>756</ele>
        <time>2016-10-02T04:26:00+02:00</time>
      </trkpt>
      <trkpt lat="46.01019" lon="6.2678">
        <ele>756</ele>
        <time>2016-10-02T04:26:02+02:00</time>
      </trkpt>
      <trkpt lat="46.01019" lon="6.26783">
        <ele>756</ele>
        <time>2016-10-02T04:26:04+02:00</time>
      </trkpt>
      <trkpt lat="46.01019" lon="6.26786">
        <ele>756</ele>
        <time>2016-10-02T04:26:05+02:00</time>
      </trkpt>
      <trkpt lat="46.0102" lon="6.26789">
        <ele>756</ele>
        <time>2016-10-02T04:26:07+02:00</time>
      </trkpt>
      <trkpt lat="46.0102" lon="6.26792">
        <ele>756</ele>
        <time>2016-10-02T04:26:09+02:00</time>
      </trkpt>
      <trkpt lat="46.0102" lon="6.26796">
        <ele>756</ele>
        <time>2016-10-02T04:26:11+02:00</time>
      </trkpt>
      <trkpt lat="46.01021" lon="6.26799">
        <ele>756</ele>
        <time>2016-10-02T04:26:13+02:00</time>
      </trkpt>
      <trkpt lat="46.01022" lon="6.26803">
        <ele>756</ele>
        <time>2016-10-02T04:26:15+02:00</time>
      </trkpt>
      <trkpt lat="46.01022" lon="6.26806">
        <ele>756</ele>
        <time>2016-10-02T04:26:17+02:00</time>
      </trkpt>
      <trkpt lat="46.01023" lon="6.26809">
        <ele>756</ele>
        <time>2016-10-02T04:26:19+02:00</time>
      </trkpt>
      <trkpt lat="46.01024" lon="6.26812">
        <ele>756</ele>
        <time>2016-10-02T04:26:21+02:00</time>
      </trkpt>
      <trkpt lat="46.01024" lon="6.26816">
        <ele>756</ele>
        <time>2016-10-02T04:26:23+02:00</time>
      </trkpt>
      <trkpt lat="46.01024" lon="6.26819">
        <ele>756</ele>
        <time>2016-10-02T04:26:25+02:00</time>
      </trkpt>
      <trkpt lat="46.01025" lon="6.26823">
        <ele>756</ele>
        <time>2016-10-02T04:26:27+02:00</time>
      </trkpt>
      <trkpt lat="46.01025" lon="6.26826">
        <ele>756</ele>
        <time>2016-10-02T04:26:29+02:00</time>
      </trkpt>
      <trkpt lat="46.01024" lon="6.26829">
        <ele>756</ele>
        <time>2016-10-02T04:26:31+02:00</time>
      </trkpt>
      <trkpt lat="46.01024" lon="6.26833">
        <ele>756</ele>
        <time>2016-10-02T04:26:32+02:00</time>
      </trkpt>
      <trkpt lat="46.01024" lon="6.26836">
        <ele>756</ele>
        <time>2016-10-02T04:26:34+02:00</time>
      </trkpt>
      <trkpt lat="46.01024" lon="6.26838">
        <ele>756</ele>
        <time>2016-10-02T04:26:35+02:00</time>
      </trkpt>
      <trkpt lat="46.01024" lon="6.26841">
        <ele>756</ele>
        <time>2016-10-02T04:26:37+02:00</time>
      </trkpt>
      <trkpt lat="46.01025" lon="6.26844">
        <ele>756</ele>
        <time>2016-10-02T04:26:38+02:00</time>
      </trkpt>
      <trkpt lat="46.01025" lon="6.26847">
        <ele>756</ele>
        <time>2016-10-02T04:26:40+02:00</time>
      </trkpt>
      <trkpt lat="46.01025" lon="6.2685">
        <ele>756</ele>
        <time>2016-10-02T04:26:42+02:00</time>
      </trkpt>
      <trkpt lat="46.01025" lon="6.26854">
        <ele>756</ele>
        <time>2016-10-02T04:26:44+02:00</time>
      </trkpt>
      <trkpt lat="46.01025" lon="6.26858">
        <ele>756</ele>
        <time>2016-10-02T04:26:46+02:00</time>
      </trkpt>
      <trkpt lat="46.01025" lon="6.26862">
        <ele>756</ele>
        <time>2016-10-02T04:26:49+02:00</time>
      </trkpt>
      <trkpt lat="46.01026" lon="6.26865">
        <ele>757</ele>
        <time>2016-10-02T04:26:51+02:00</time>
      </trkpt>
      <trkpt lat="46.01026" lon="6.26869">
        <ele>757</ele>
        <time>2016-10-02T04:26:53+02:00</time>
      </trkpt>
      <trkpt lat="46.01026" lon="6.26873">
        <ele>757</ele>
        <time>2016-10-02T04:26:55+02:00</time>
      </trkpt>
      <trkpt lat="46.01026" lon="6.26876">
        <ele>757</ele>
        <time>2016-10-02T04:26:57+02:00</time>
      </trkpt>
      <trkpt lat="46.01027" lon="6.2688">
        <ele>757</ele>
        <time>2016-10-02T04:26:59+02:00</time>
      </trkpt>
      <trkpt lat="46.01027" lon="6.26883">
        <ele>757</ele>
        <time>2016-10-02T04:27:01+02:00</time>
      </trkpt>
      <trkpt lat="46.01027" lon="6.26887">
        <ele>757</ele>
        <time>2016-10-02T04:27:03+02:00</time>
      </trkpt>
      <trkpt lat="46.01027" lon="6.2689">
        <ele>757</ele>
        <time>2016-10-02T04:27:05+02:00</time>
      </trkpt>
      <trkpt lat="46.01027" lon="6.26894">
        <ele>757</ele>
        <time>2016-10-02T04:27:07+02:00</time>
      </trkpt>
      <trkpt lat="46.01027" lon="6.26897">
        <ele>757</ele>
        <time>2016-10-02T04:27:09+02:00</time>
      </trkpt>
      <trkpt lat="46.01027" lon="6.26901">
        <ele>757</ele>
        <time>2016-10-02T04:27:11+02:00</time>
      </trkpt>
      <trkpt lat="46.01028" lon="6.26905">
        <ele>757</ele>
        <time>2016-10-02T04:27:13+02:00</time>
      </trkpt>
      <trkpt lat="46.01028" lon="6.26909">
        <ele>757</ele>
        <time>2016-10-02T04:27:15+02:00</time>
      </trkpt>
      <trkpt lat="46.01028" lon="6.26912">
        <ele>757</ele>
        <time>2016-10-02T04:27:17+02:00</time>
      </trkpt>
      <trkpt lat="46.01029" lon="6.26916">
        <ele>757</ele>
        <time>2016-10-02T04:27:19+02:00</time>
      </trkpt>
      <trkpt lat="46.01029" lon="6.26919">
        <ele>758</ele>
        <time>2016-10-02T04:27:21+02:00</time>
      </trkpt>
      <trkpt lat="46.01029" lon="6.26923">
        <ele>758</ele>
        <time>2016-10-02T04:27:23+02:00</time>
      </trkpt>
      <trkpt lat="46.0103" lon="6.26926">
        <ele>758</ele>
        <time>2016-10-02T04:27:25+02:00</time>
      </trkpt>
      <trkpt lat="46.0103" lon="6.2693">
        <ele>758</ele>
        <time>2016-10-02T04:27:27+02:00</time>
      </trkpt>
      <trkpt lat="46.0103" lon="6.26933">
        <ele>758</ele>
        <time>2016-10-02T04:27:29+02:00</time>
      </trkpt>
      <trkpt lat="46.0103" lon="6.26937">
        <ele>758</ele>
        <time>2016-10-02T04:27:31+02:00</time>
      </trkpt>
      <trkpt lat="46.0103" lon="6.26941">
        <ele>758</ele>
        <time>2016-10-02T04:27:33+02:00</time>
      </trkpt>
      <trkpt lat="46.01031" lon="6.26945">
        <ele>758</ele>
        <time>2016-10-02T04:27:35+02:00</time>
      </trkpt>
      <trkpt lat="46.01031" lon="6.26948">
        <ele>758</ele>
        <time>2016-10-02T04:27:38+02:00</time>
      </trkpt>
      <trkpt lat="46.01031" lon="6.26952">
        <ele>758</ele>
        <time>2016-10-02T04:27:40+02:00</time>
      </trkpt>
      <trkpt lat="46.01031" lon="6.26955">
        <ele>758</ele>
        <time>2016-10-02T04:27:42+02:00</time>
      </trkpt>
      <trkpt lat="46.01031" lon="6.26959">
        <ele>758</ele>
        <time>2016-10-02T04:27:44+02:00</time>
      </trkpt>
      <trkpt lat="46.01032" lon="6.26963">
        <ele>759</ele>
        <time>2016-10-02T04:27:46+02:00</time>
      </trkpt>
      <trkpt lat="46.01032" lon="6.26967">
        <ele>759</ele>
        <time>2016-10-02T04:27:48+02:00</time>
      </trkpt>
      <trkpt lat="46.01031" lon="6.26971">
        <ele>759</ele>
        <time>2016-10-02T04:27:50+02:00</time>
      </trkpt>
      <trkpt lat="46.01031" lon="6.26974">
        <ele>759</ele>
        <time>2016-10-02T04:27:52+02:00</time>
      </trkpt>
      <trkpt lat="46.0103" lon="6.26977">
        <ele>759</ele>
        <time>2016-10-02T04:27:54+02:00</time>
      </trkpt>
      <trkpt lat="46.0103" lon="6.26981">
        <ele>759</ele>
        <time>2016-10-02T04:27:56+02:00</time>
      </trkpt>
      <trkpt lat="46.01029" lon="6.26985">
        <ele>759</ele>
        <time>2016-10-02T04:27:58+02:00</time>
      </trkpt>
      <trkpt lat="46.01028" lon="6.26988">
        <ele>758</ele>
        <time>2016-10-02T04:28:01+02:00</time>
      </trkpt>
      <trkpt lat="46.01026" lon="6.26991">
        <ele>758</ele>
        <time>2016-10-02T04:28:03+02:00</time>
      </trkpt>
      <trkpt lat="46.01025" lon="6.26994">
        <ele>758</ele>
        <time>2016-10-02T04:28:05+02:00</time>
      </trkpt>
      <trkpt lat="46.01023" lon="6.26998">
        <ele>758</ele>
        <time>2016-10-02T04:28:07+02:00</time>
      </trkpt>
      <trkpt lat="46.01022" lon="6.27001">
        <ele>758</ele>
        <time>2016-10-02T04:28:09+02:00</time>
      </trkpt>
      <trkpt lat="46.0102" lon="6.27003">
        <ele>758</ele>
        <time>2016-10-02T04:28:11+02:00</time>
      </trkpt>
      <trkpt lat="46.01018" lon="6.27006">
        <ele>757</ele>
        <time>2016-10-02T04:28:13+02:00</time>
      </trkpt>
      <trkpt lat="46.01017" lon="6.27009">
        <ele>757</ele>
        <time>2016-10-02T04:28:15+02:00</time>
      </trkpt>
      <trkpt lat="46.01015" lon="6.27012">
        <ele>757</ele>
        <time>2016-10-02T04:28:17+02:00</time>
      </trkpt>
      <trkpt lat="46.01013" lon="6.27015">
        <ele>757</ele>
        <time>2016-10-02T04:28:20+02:00</time>
      </trkpt>
      <trkpt lat="46.01012" lon="6.27018">
        <ele>757</ele>
        <time>2016-10-02T04:28:22+02:00</time>
      </trkpt>
      <trkpt lat="46.01011" lon="6.27022">
        <ele>757</ele>
        <time>2016-10-02T04:28:24+02:00</time>
      </trkpt>
      <trkpt lat="46.01009" lon="6.27025">
        <ele>756</ele>
        <time>2016-10-02T04:28:26+02:00</time>
      </trkpt>
      <trkpt lat="46.01008" lon="6.27028">
        <ele>756</ele>
        <time>2016-10-02T04:28:28+02:00</time>
      </trkpt>
      <trkpt lat="46.01006" lon="6.27031">
        <ele>756</ele>
        <time>2016-10-02T04:28:30+02:00</time>
      </trkpt>
      <trkpt lat="46.01005" lon="6.27034">
        <ele>756</ele>
        <time>2016-10-02T04:28:32+02:00</time>
      </trkpt>
      <trkpt lat="46.01004" lon="6.27037">
        <ele>756</ele>
        <time>2016-10-02T04:28:34+02:00</time>
      </trkpt>
      <trkpt lat="46.01003" lon="6.2704">
        <ele>756</ele>
        <time>2016-10-02T04:28:36+02:00</time>
      </trkpt>
      <trkpt lat="46.01001" lon="6.27043">
        <ele>756</ele>
        <time>2016-10-02T04:28:38+02:00</time>
      </trkpt>
      <trkpt lat="46.01" lon="6.27046">
        <ele>756</ele>
        <time>2016-10-02T04:28:40+02:00</time>
      </trkpt>
      <trkpt lat="46.00998" lon="6.27049">
        <ele>755</ele>
        <time>2016-10-02T04:28:42+02:00</time>
      </trkpt>
      <trkpt lat="46.00997" lon="6.27052">
        <ele>755</ele>
        <time>2016-10-02T04:28:45+02:00</time>
      </trkpt>
      <trkpt lat="46.00996" lon="6.27055">
        <ele>755</ele>
        <time>2016-10-02T04:28:47+02:00</time>
      </trkpt>
      <trkpt lat="46.00994" lon="6.27058">
        <ele>755</ele>
        <time>2016-10-02T04:28:49+02:00</time>
      </trkpt>
      <trkpt lat="46.00993" lon="6.27061">
        <ele>755</ele>
        <time>2016-10-02T04:28:50+02:00</time>
      </trkpt>
      <trkpt lat="46.00992" lon="6.27064">
        <ele>755</ele>
        <time>2016-10-02T04:28:52+02:00</time>
      </trkpt>
      <trkpt lat="46.0099" lon="6.27067">
        <ele>755</ele>
        <time>2016-10-02T04:28:54+02:00</time>
      </trkpt>
      <trkpt lat="46.00989" lon="6.2707">
        <ele>755</ele>
        <time>2016-10-02T04:28:56+02:00</time>
      </trkpt>
      <trkpt lat="46.00987" lon="6.27073">
        <ele>755</ele>
        <time>2016-10-02T04:28:58+02:00</time>
      </trkpt>
      <trkpt lat="46.00986" lon="6.27076">
        <ele>755</ele>
        <time>2016-10-02T04:29:01+02:00</time>
      </trkpt>
      <trkpt lat="46.00984" lon="6.27079">
        <ele>755</ele>
        <time>2016-10-02T04:29:03+02:00</time>
      </trkpt>
      <trkpt lat="46.00983" lon="6.27082">
        <ele>755</ele>
        <time>2016-10-02T04:29:05+02:00</time>
      </trkpt>
      <trkpt lat="46.00981" lon="6.27086">
        <ele>754</ele>
        <time>2016-10-02T04:29:07+02:00</time>
      </trkpt>
      <trkpt lat="46.0098" lon="6.27089">
        <ele>754</ele>
        <time>2016-10-02T04:29:10+02:00</time>
      </trkpt>
      <trkpt lat="46.00978" lon="6.27093">
        <ele>754</ele>
        <time>2016-10-02T04:29:12+02:00</time>
      </trkpt>
      <trkpt lat="46.00977" lon="6.27096">
        <ele>754</ele>
        <time>2016-10-02T04:29:14+02:00</time>
      </trkpt>
      <trkpt lat="46.00976" lon="6.271">
        <ele>754</ele>
        <time>2016-10-02T04:29:16+02:00</time>
      </trkpt>
      <trkpt lat="46.00975" lon="6.27103">
        <ele>754</ele>
        <time>2016-10-02T04:29:18+02:00</time>
      </trkpt>
      <trkpt lat="46.00974" lon="6.27107">
        <ele>754</ele>
        <time>2016-10-02T04:29:20+02:00</time>
      </trkpt>
      <trkpt lat="46.00973" lon="6.2711">
        <ele>754</ele>
        <time>2016-10-02T04:29:22+02:00</time>
      </trkpt>
      <trkpt lat="46.00971" lon="6.27113">
        <ele>754</ele>
        <time>2016-10-02T04:29:25+02:00</time>
      </trkpt>
      <trkpt lat="46.0097" lon="6.27116">
        <ele>754</ele>
        <time>2016-10-02T04:29:27+02:00</time>
      </trkpt>
      <trkpt lat="46.00969" lon="6.2712">
        <ele>754</ele>
        <time>2016-10-02T04:29:29+02:00</time>
      </trkpt>
      <trkpt lat="46.00967" lon="6.27123">
        <ele>754</ele>
        <time>2016-10-02T04:29:31+02:00</time>
      </trkpt>
      <trkpt lat="46.00966" lon="6.27126">
        <ele>754</ele>
        <time>2016-10-02T04:29:33+02:00</time>
      </trkpt>
      <trkpt lat="46.00965" lon="6.27129">
        <ele>754</ele>
        <time>2016-10-02T04:29:35+02:00</time>
      </trkpt>
      <trkpt lat="46.00964" lon="6.27132">
        <ele>754</ele>
        <time>2016-10-02T04:29:37+02:00</time>
      </trkpt>
      <trkpt lat="46.00963" lon="6.27135">
        <ele>754</ele>
        <time>2016-10-02T04:29:39+02:00</time>
      </trkpt>
      <trkpt lat="46.00962" lon="6.27138">
        <ele>754</ele>
        <time>2016-10-02T04:29:41+02:00</time>
      </trkpt>
      <trkpt lat="46.00961" lon="6.27141">
        <ele>754</ele>
        <time>2016-10-02T04:29:43+02:00</time>
      </trkpt>
      <trkpt lat="46.0096" lon="6.27145">
        <ele>754</ele>
        <time>2016-10-02T04:29:45+02:00</time>
      </trkpt>
      <trkpt lat="46.00959" lon="6.27148">
        <ele>754</ele>
        <time>2016-10-02T04:29:47+02:00</time>
      </trkpt>
      <trkpt lat="46.00958" lon="6.27151">
        <ele>754</ele>
        <time>2016-10-02T04:29:48+02:00</time>
      </trkpt>
      <trkpt lat="46.00957" lon="6.27154">
        <ele>754</ele>
        <time>2016-10-02T04:29:51+02:00</time>
      </trkpt>
      <trkpt lat="46.00956" lon="6.27157">
        <ele>754</ele>
        <time>2016-10-02T04:29:53+02:00</time>
      </trkpt>
      <trkpt lat="46.00955" lon="6.2716">
        <ele>754</ele>
        <time>2016-10-02T04:29:54+02:00</time>
      </trkpt>
      <trkpt lat="46.00954" lon="6.27163">
        <ele>754</ele>
        <time>2016-10-02T04:29:56+02:00</time>
      </trkpt>
      <trkpt lat="46.00954" lon="6.27166">
        <ele>754</ele>
        <time>2016-10-02T04:29:58+02:00</time>
      </trkpt>
      <trkpt lat="46.00954" lon="6.27169">
        <ele>754</ele>
        <time>2016-10-02T04:30:00+02:00</time>
      </trkpt>
      <trkpt lat="46.00954" lon="6.27172">
        <ele>754</ele>
        <time>2016-10-02T04:30:01+02:00</time>
      </trkpt>
      <trkpt lat="46.00954" lon="6.27175">
        <ele>755</ele>
        <time>2016-10-02T04:30:03+02:00</time>
      </trkpt>
      <trkpt lat="46.00953" lon="6.27179">
        <ele>755</ele>
        <time>2016-10-02T04:30:05+02:00</time>
      </trkpt>
      <trkpt lat="46.00953" lon="6.27183">
        <ele>755</ele>
        <time>2016-10-02T04:30:07+02:00</time>
      </trkpt>
      <trkpt lat="46.00953" lon="6.27186">
        <ele>755</ele>
        <time>2016-10-02T04:30:09+02:00</time>
      </trkpt>
      <trkpt lat="46.00954" lon="6.2719">
        <ele>755</ele>
        <time>2016-10-02T04:30:11+02:00</time>
      </trkpt>
      <trkpt lat="46.00954" lon="6.27193">
        <ele>755</ele>
        <time>2016-10-02T04:30:13+02:00</time>
      </trkpt>
      <trkpt lat="46.00954" lon="6.27196">
        <ele>755</ele>
        <time>2016-10-02T04:30:15+02:00</time>
      </trkpt>
      <trkpt lat="46.00955" lon="6.27199">
        <ele>756</ele>
        <time>2016-10-02T04:30:17+02:00</time>
      </trkpt>
      <trkpt lat="46.00956" lon="6.27202">
        <ele>756</ele>
        <time>2016-10-02T04:30:19+02:00</time>
      </trkpt>
      <trkpt lat="46.00957" lon="6.27205">
        <ele>756</ele>
        <time>2016-10-02T04:30:20+02:00</time>
      </trkpt>
      <trkpt lat="46.00957" lon="6.27208">
        <ele>756</ele>
        <time>2016-10-02T04:30:22+02:00</time>
      </trkpt>
      <trkpt lat="46.00958" lon="6.2721">
        <ele>756</ele>
        <time>2016-10-02T04:30:24+02:00</time>
      </trkpt>
      <trkpt lat="46.00959" lon="6.27213">
        <ele>756</ele>
        <time>2016-10-02T04:30:26+02:00</time>
      </trkpt>
      <trkpt lat="46.0096" lon="6.27216">
        <ele>756</ele>
        <time>2016-10-02T04:30:27+02:00</time>
      </trkpt>
      <trkpt lat="46.00961" lon="6.27218">
        <ele>756</ele>
        <time>2016-10-02T04:30:29+02:00</time>
      </trkpt>
      <trkpt lat="46.00962" lon="6.27221">
        <ele>757</ele>
        <time>2016-10-02T04:30:30+02:00</time>
      </trkpt>
      <trkpt lat="46.00963" lon="6.27223">
        <ele>757</ele>
        <time>2016-10-02T04:30:32+02:00</time>
      </trkpt>
      <trkpt lat="46.00964" lon="6.27225">
        <ele>757</ele>
        <time>2016-10-02T04:30:33+02:00</time>
      </trkpt>
      <trkpt lat="46.00965" lon="6.27227">
        <ele>757</ele>
        <time>2016-10-02T04:30:35+02:00</time>
      </trkpt>
      <trkpt lat="46.00966" lon="6.27229">
        <ele>757</ele>
        <time>2016-10-02T04:30:36+02:00</time>
      </trkpt>
      <trkpt lat="46.00967" lon="6.27231">
        <ele>757</ele>
        <time>2016-10-02T04:30:38+02:00</time>
      </trkpt>
      <trkpt lat="46.00968" lon="6.27233">
        <ele>757</ele>
        <time>2016-10-02T04:30:39+02:00</time>
      </trkpt>
      <trkpt lat="46.00969" lon="6.27235">
        <ele>757</ele>
        <time>2016-10-02T04:30:40+02:00</time>
      </trkpt>
      <trkpt lat="46.0097" lon="6.27236">
        <ele>757</ele>
        <time>2016-10-02T04:30:42+02:00</time>
      </trkpt>
      <trkpt lat="46.00972" lon="6.27238">
        <ele>757</ele>
        <time>2016-10-02T04:30:43+02:00</time>
      </trkpt>
      <trkpt lat="46.00973" lon="6.2724">
        <ele>757</ele>
        <time>2016-10-02T04:30:44+02:00</time>
      </trkpt>
      <trkpt lat="46.00974" lon="6.27241">
        <ele>757</ele>
        <time>2016-10-02T04:30:46+02:00</time>
      </trkpt>
      <trkpt lat="46.00975" lon="6.27243">
        <ele>758</ele>
        <time>2016-10-02T04:30:47+02:00</time>
      </trkpt>
      <trkpt lat="46.00976" lon="6.27245">
        <ele>758</ele>
        <time>2016-10-02T04:30:48+02:00</time>
      </trkpt>
      <trkpt lat="46.00977" lon="6.27247">
        <ele>758</ele>
        <time>2016-10-02T04:30:50+02:00</time>
      </trkpt>
      <trkpt lat="46.00978" lon="6.27249">
        <ele>758</ele>
        <time>2016-10-02T04:30:51+02:00</time>
      </trkpt>
      <trkpt lat="46.0098" lon="6.2725">
        <ele>758</ele>
        <time>2016-10-02T04:30:53+02:00</time>
      </trkpt>
      <trkpt lat="46.00981" lon="6.27252">
        <ele>758</ele>
        <time>2016-10-02T04:30:54+02:00</time>
      </trkpt>
      <trkpt lat="46.00982" lon="6.27254">
        <ele>758</ele>
        <time>2016-10-02T04:30:55+02:00</time>
      </trkpt>
      <trkpt lat="46.00983" lon="6.27256">
        <ele>758</ele>
        <time>2016-10-02T04:30:57+02:00</time>
      </trkpt>
      <trkpt lat="46.00983" lon="6.27258">
        <ele>758</ele>
        <time>2016-10-02T04:30:58+02:00</time>
      </trkpt>
      <trkpt lat="46.00984" lon="6.27261">
        <ele>758</ele>
        <time>2016-10-02T04:31:00+02:00</time>
      </trkpt>
      <trkpt lat="46.00985" lon="6.27264">
        <ele>758</ele>
        <time>2016-10-02T04:31:02+02:00</time>
      </trkpt>
      <trkpt lat="46.00986" lon="6.27266">
        <ele>758</ele>
        <time>2016-10-02T04:31:03+02:00</time>
      </trkpt>
      <trkpt lat="46.00987" lon="6.27269">
        <ele>758</ele>
        <time>2016-10-02T04:31:05+02:00</time>
      </trkpt>
      <trkpt lat="46.00988" lon="6.27271">
        <ele>758</ele>
        <time>2016-10-02T04:31:07+02:00</time>
      </trkpt>
      <trkpt lat="46.00989" lon="6.27274">
        <ele>758</ele>
        <time>2016-10-02T04:31:08+02:00</time>
      </trkpt>
      <trkpt lat="46.0099" lon="6.27277">
        <ele>758</ele>
        <time>2016-10-02T04:31:10+02:00</time>
      </trkpt>
      <trkpt lat="46.00991" lon="6.27279">
        <ele>758</ele>
        <time>2016-10-02T04:31:12+02:00</time>
      </trkpt>
      <trkpt lat="46.00992" lon="6.27282">
        <ele>758</ele>
        <time>2016-10-02T04:31:14+02:00</time>
      </trkpt>
      <trkpt lat="46.00994" lon="6.27284">
        <ele>758</ele>
        <time>2016-10-02T04:31:15+02:00</time>
      </trkpt>
      <trkpt lat="46.00995" lon="6.27287">
        <ele>758</ele>
        <time>2016-10-02T04:31:17+02:00</time>
      </trkpt>
      <trkpt lat="46.00997" lon="6.27289">
        <ele>758</ele>
        <time>2016-10-02T04:31:19+02:00</time>
      </trkpt>
      <trkpt lat="46.00998" lon="6.27291">
        <ele>759</ele>
        <time>2016-10-02T04:31:21+02:00</time>
      </trkpt>
      <trkpt lat="46.00999" lon="6.27294">
        <ele>759</ele>
        <time>2016-10-02T04:31:22+02:00</time>
      </trkpt>
      <trkpt lat="46.01" lon="6.27295">
        <ele>759</ele>
        <time>2016-10-02T04:31:23+02:00</time>
      </trkpt>
      <trkpt lat="46.01001" lon="6.27298">
        <ele>759</ele>
        <time>2016-10-02T04:31:25+02:00</time>
      </trkpt>
      <trkpt lat="46.01002" lon="6.27299">
        <ele>759</ele>
        <time>2016-10-02T04:31:26+02:00</time>
      </trkpt>
      <trkpt lat="46.01003" lon="6.27302">
        <ele>759</ele>
        <time>2016-10-02T04:31:28+02:00</time>
      </trkpt>
      <trkpt lat="46.01004" lon="6.27304">
        <ele>759</ele>
        <time>2016-10-02T04:31:29+02:00</time>
      </trkpt>
      <trkpt lat="46.01005" lon="6.27306">
        <ele>759</ele>
        <time>2016-10-02T04:31:31+02:00</time>
      </trkpt>
      <trkpt lat="46.01006" lon="6.27309">
        <ele>759</ele>
        <time>2016-10-02T04:31:33+02:00</time>
      </trkpt>
      <trkpt lat="46.01007" lon="6.27311">
        <ele>759</ele>
        <time>2016-10-02T04:31:34+02:00</time>
      </trkpt>
      <trkpt lat="46.01008" lon="6.27314">
        <ele>759</ele>
        <time>2016-10-02T04:31:36+02:00</time>
      </trkpt>
      <trkpt lat="46.01009" lon="6.27317">
        <ele>759</ele>
        <time>2016-10-02T04:31:38+02:00</time>
      </trkpt>
      <trkpt lat="46.01009" lon="6.27319">
        <ele>759</ele>
        <time>2016-10-02T04:31:39+02:00</time>
      </trkpt>
      <trkpt lat="46.0101" lon="6.27322">
        <ele>759</ele>
        <time>2016-10-02T04:31:41+02:00</time>
      </trkpt>
      <trkpt lat="46.01011" lon="6.27324">
        <ele>759</ele>
        <time>2016-10-02T04:31:42+02:00</time>
      </trkpt>
      <trkpt lat="46.01012" lon="6.27327">
        <ele>759</ele>
        <time>2016-10-02T04:31:44+02:00</time>
      </trkpt>
      <trkpt lat="46.01013" lon="6.27329">
        <ele>759</ele>
        <time>2016-10-02T04:31:45+02:00</time>
      </trkpt>
      <trkpt lat="46.01014" lon="6.27331">
        <ele>759</ele>
        <time>2016-10-02T04:31:47+02:00</time>
      </trkpt>
      <trkpt lat="46.01016" lon="6.27334">
        <ele>759</ele>
        <time>2016-10-02T04:31:49+02:00</time>
      </trkpt>
      <trkpt lat="46.01017" lon="6.27337">
        <ele>759</ele>
        <time>2016-10-02T04:31:51+02:00</time>
      </trkpt>
      <trkpt lat="46.01018" lon="6.27339">
        <ele>759</ele>
        <time>2016-10-02T04:31:52+02:00</time>
      </trkpt>
      <trkpt lat="46.01019" lon="6.27341">
        <ele>759</ele>
        <time>2016-10-02T04:31:54+02:00</time>
      </trkpt>
      <trkpt lat="46.0102" lon="6.27343">
        <ele>760</ele>
        <time>2016-10-02T04:31:55+02:00</time>
      </trkpt>
      <trkpt lat="46.01021" lon="6.27345">
        <ele>760</ele>
        <time>2016-10-02T04:31:57+02:00</time>
      </trkpt>
      <trkpt lat="46.01022" lon="6.27347">
        <ele>760</ele>
        <time>2016-10-02T04:31:58+02:00</time>
      </trkpt>
      <trkpt lat="46.01023" lon="6.27349">
        <ele>760</ele>
        <time>2016-10-02T04:32:00+02:00</time>
      </trkpt>
      <trkpt lat="46.01024" lon="6.27352">
        <ele>760</ele>
        <time>2016-10-02T04:32:01+02:00</time>
      </trkpt>
      <trkpt lat="46.01025" lon="6.27354">
        <ele>760</ele>
        <time>2016-10-02T04:32:03+02:00</time>
      </trkpt>
      <trkpt lat="46.01026" lon="6.27356">
        <ele>760</ele>
        <time>2016-10-02T04:32:04+02:00</time>
      </trkpt>
      <trkpt lat="46.01027" lon="6.27358">
        <ele>760</ele>
        <time>2016-10-02T04:32:06+02:00</time>
      </trkpt>
      <trkpt lat="46.01028" lon="6.2736">
        <ele>760</ele>
        <time>2016-10-02T04:32:07+02:00</time>
      </trkpt>
      <trkpt lat="46.01029" lon="6.27363">
        <ele>760</ele>
        <time>2016-10-02T04:32:09+02:00</time>
      </trkpt>
      <trkpt lat="46.01031" lon="6.27365">
        <ele>760</ele>
        <time>2016-10-02T04:32:10+02:00</time>
      </trkpt>
      <trkpt lat="46.01032" lon="6.27368">
        <ele>760</ele>
        <time>2016-10-02T04:32:12+02:00</time>
      </trkpt>
      <trkpt lat="46.01033" lon="6.2737">
        <ele>760</ele>
        <time>2016-10-02T04:32:14+02:00</time>
      </trkpt>
      <trkpt lat="46.01034" lon="6.27373">
        <ele>761</ele>
        <time>2016-10-02T04:32:16+02:00</time>
      </trkpt>
      <trkpt lat="46.01035" lon="6.27376">
        <ele>761</ele>
        <time>2016-10-02T04:32:18+02:00</time>
      </trkpt>
      <trkpt lat="46.01036" lon="6.27379">
        <ele>761</ele>
        <time>2016-10-02T04:32:19+02:00</time>
      </trkpt>
      <trkpt lat="46.01037" lon="6.27382">
        <ele>761</ele>
        <time>2016-10-02T04:32:21+02:00</time>
      </trkpt>
      <trkpt lat="46.01037" lon="6.27385">
        <ele>761</ele>
        <time>2016-10-02T04:32:23+02:00</time>
      </trkpt>
      <trkpt lat="46.01038" lon="6.27388">
        <ele>761</ele>
        <time>2016-10-02T04:32:25+02:00</time>
      </trkpt>
      <trkpt lat="46.01038" lon="6.27391">
        <ele>761</ele>
        <time>2016-10-02T04:32:27+02:00</time>
      </trkpt>
      <trkpt lat="46.01039" lon="6.27395">
        <ele>761</ele>
        <time>2016-10-02T04:32:29+02:00</time>
      </trkpt>
      <trkpt lat="46.01039" lon="6.27398">
        <ele>761</ele>
        <time>2016-10-02T04:32:31+02:00</time>
      </trkpt>
      <trkpt lat="46.0104" lon="6.27401">
        <ele>761</ele>
        <time>2016-10-02T04:32:32+02:00</time>
      </trkpt>
      <trkpt lat="46.0104" lon="6.27404">
        <ele>761</ele>
        <time>2016-10-02T04:32:34+02:00</time>
      </trkpt>
      <trkpt lat="46.0104" lon="6.27406">
        <ele>761</ele>
        <time>2016-10-02T04:32:36+02:00</time>
      </trkpt>
      <trkpt lat="46.01041" lon="6.27409">
        <ele>761</ele>
        <time>2016-10-02T04:32:37+02:00</time>
      </trkpt>
      <trkpt lat="46.01041" lon="6.27412">
        <ele>761</ele>
        <time>2016-10-02T04:32:39+02:00</time>
      </trkpt>
      <trkpt lat="46.01041" lon="6.27415">
        <ele>761</ele>
        <time>2016-10-02T04:32:41+02:00</time>
      </trkpt>
      <trkpt lat="46.01041" lon="6.27418">
        <ele>762</ele>
        <time>2016-10-02T04:32:42+02:00</time>
      </trkpt>
      <trkpt lat="46.01042" lon="6.27422">
        <ele>762</ele>
        <time>2016-10-02T04:32:44+02:00</time>
      </trkpt>
      <trkpt lat="46.01042" lon="6.27425">
        <ele>762</ele>
        <time>2016-10-02T04:32:46+02:00</time>
      </trkpt>
      <trkpt lat="46.01042" lon="6.27428">
        <ele>762</ele>
        <time>2016-10-02T04:32:48+02:00</time>
      </trkpt>
      <trkpt lat="46.01042" lon="6.27431">
        <ele>762</ele>
        <time>2016-10-02T04:32:50+02:00</time>
      </trkpt>
      <trkpt lat="46.01043" lon="6.27434">
        <ele>763</ele>
        <time>2016-10-02T04:32:51+02:00</time>
      </trkpt>
      <trkpt lat="46.01043" lon="6.27437">
        <ele>763</ele>
        <time>2016-10-02T04:32:53+02:00</time>
      </trkpt>
      <trkpt lat="46.01043" lon="6.2744">
        <ele>763</ele>
        <time>2016-10-02T04:32:55+02:00</time>
      </trkpt>
      <trkpt lat="46.01043" lon="6.27443">
        <ele>763</ele>
        <time>2016-10-02T04:32:56+02:00</time>
      </trkpt>
      <trkpt lat="46.01043" lon="6.27446">
        <ele>763</ele>
        <time>2016-10-02T04:32:58+02:00</time>
      </trkpt>
      <trkpt lat="46.01044" lon="6.27449">
        <ele>764</ele>
        <time>2016-10-02T04:33:00+02:00</time>
      </trkpt>
      <trkpt lat="46.01044" lon="6.27451">
        <ele>764</ele>
        <time>2016-10-02T04:33:01+02:00</time>
      </trkpt>
      <trkpt lat="46.01044" lon="6.27454">
        <ele>764</ele>
        <time>2016-10-02T04:33:03+02:00</time>
      </trkpt>
      <trkpt lat="46.01044" lon="6.27456">
        <ele>764</ele>
        <time>2016-10-02T04:33:04+02:00</time>
      </trkpt>
      <trkpt lat="46.01045" lon="6.27459">
        <ele>764</ele>
        <time>2016-10-02T04:33:06+02:00</time>
      </trkpt>
      <trkpt lat="46.01045" lon="6.27461">
        <ele>764</ele>
        <time>2016-10-02T04:33:07+02:00</time>
      </trkpt>
      <trkpt lat="46.01046" lon="6.27464">
        <ele>764</ele>
        <time>2016-10-02T04:33:09+02:00</time>
      </trkpt>
      <trkpt lat="46.01046" lon="6.27467">
        <ele>765</ele>
        <time>2016-10-02T04:33:10+02:00</time>
      </trkpt>
      <trkpt lat="46.01046" lon="6.27469">
        <ele>765</ele>
        <time>2016-10-02T04:33:12+02:00</time>
      </trkpt>
      <trkpt lat="46.01046" lon="6.27472">
        <ele>765</ele>
        <time>2016-10-02T04:33:13+02:00</time>
      </trkpt>
      <trkpt lat="46.01047" lon="6.27475">
        <ele>765</ele>
        <time>2016-10-02T04:33:15+02:00</time>
      </trkpt>
      <trkpt lat="46.01047" lon="6.27477">
        <ele>765</ele>
        <time>2016-10-02T04:33:16+02:00</time>
      </trkpt>
      <trkpt lat="46.01048" lon="6.2748">
        <ele>765</ele>
        <time>2016-10-02T04:33:18+02:00</time>
      </trkpt>
      <trkpt lat="46.01048" lon="6.27482">
        <ele>765</ele>
        <time>2016-10-02T04:33:19+02:00</time>
      </trkpt>
      <trkpt lat="46.01048" lon="6.27485">
        <ele>766</ele>
        <time>2016-10-02T04:33:21+02:00</time>
      </trkpt>
      <trkpt lat="46.01049" lon="6.27487">
        <ele>766</ele>
        <time>2016-10-02T04:33:22+02:00</time>
      </trkpt>
      <trkpt lat="46.01049" lon="6.27489">
        <ele>766</ele>
        <time>2016-10-02T04:33:23+02:00</time>
      </trkpt>
      <trkpt lat="46.0105" lon="6.27491">
        <ele>766</ele>
        <time>2016-10-02T04:33:25+02:00</time>
      </trkpt>
      <trkpt lat="46.0105" lon="6.27493">
        <ele>766</ele>
        <time>2016-10-02T04:33:26+02:00</time>
      </trkpt>
      <trkpt lat="46.0105" lon="6.27496">
        <ele>766</ele>
        <time>2016-10-02T04:33:27+02:00</time>
      </trkpt>
      <trkpt lat="46.01051" lon="6.27498">
        <ele>766</ele>
        <time>2016-10-02T04:33:29+02:00</time>
      </trkpt>
      <trkpt lat="46.01051" lon="6.275">
        <ele>766</ele>
        <time>2016-10-02T04:33:30+02:00</time>
      </trkpt>
      <trkpt lat="46.01052" lon="6.27503">
        <ele>767</ele>
        <time>2016-10-02T04:33:32+02:00</time>
      </trkpt>
      <trkpt lat="46.01052" lon="6.27505">
        <ele>767</ele>
        <time>2016-10-02T04:33:33+02:00</time>
      </trkpt>
      <trkpt lat="46.01053" lon="6.27508">
        <ele>767</ele>
        <time>2016-10-02T04:33:34+02:00</time>
      </trkpt>
      <trkpt lat="46.01053" lon="6.2751">
        <ele>767</ele>
        <time>2016-10-02T04:33:36+02:00</time>
      </trkpt>
      <trkpt lat="46.01054" lon="6.27512">
        <ele>767</ele>
        <time>2016-10-02T04:33:37+02:00</time>
      </trkpt>
      <trkpt lat="46.01054" lon="6.27514">
        <ele>767</ele>
        <time>2016-10-02T04:33:38+02:00</time>
      </trkpt>
      <trkpt lat="46.01054" lon="6.27517">
        <ele>768</ele>
        <time>2016-10-02T04:33:40+02:00</time>
      </trkpt>
      <trkpt lat="46.01055" lon="6.27519">
        <ele>768</ele>
        <time>2016-10-02T04:33:41+02:00</time>
      </trkpt>
      <trkpt lat="46.01055" lon="6.27521">
        <ele>768</ele>
        <time>2016-10-02T04:33:42+02:00</time>
      </trkpt>
      <trkpt lat="46.01056" lon="6.27523">
        <ele>768</ele>
        <time>2016-10-02T04:33:44+02:00</time>
      </trkpt>
      <trkpt lat="46.01056" lon="6.27526">
        <ele>768</ele>
        <time>2016-10-02T04:33:45+02:00</time>
      </trkpt>
      <trkpt lat="46.01056" lon="6.27529">
        <ele>769</ele>
        <time>2016-10-02T04:33:47+02:00</time>
      </trkpt>
      <trkpt lat="46.01056" lon="6.27531">
        <ele>769</ele>
        <time>2016-10-02T04:33:48+02:00</time>
      </trkpt>
      <trkpt lat="46.01056" lon="6.27534">
        <ele>769</ele>
        <time>2016-10-02T04:33:50+02:00</time>
      </trkpt>
      <trkpt lat="46.01056" lon="6.27536">
        <ele>769</ele>
        <time>2016-10-02T04:33:51+02:00</time>
      </trkpt>
      <trkpt lat="46.01057" lon="6.27539">
        <ele>769</ele>
        <time>2016-10-02T04:33:52+02:00</time>
      </trkpt>
      <trkpt lat="46.01057" lon="6.27542">
        <ele>770</ele>
        <time>2016-10-02T04:33:54+02:00</time>
      </trkpt>
      <trkpt lat="46.01057" lon="6.27544">
        <ele>770</ele>
        <time>2016-10-02T04:33:56+02:00</time>
      </trkpt>
      <trkpt lat="46.01058" lon="6.27547">
        <ele>770</ele>
        <time>2016-10-02T04:33:57+02:00</time>
      </trkpt>
      <trkpt lat="46.01058" lon="6.2755">
        <ele>770</ele>
        <time>2016-10-02T04:33:59+02:00</time>
      </trkpt>
      <trkpt lat="46.01059" lon="6.27552">
        <ele>771</ele>
        <time>2016-10-02T04:34:00+02:00</time>
      </trkpt>
      <trkpt lat="46.01059" lon="6.27555">
        <ele>771</ele>
        <time>2016-10-02T04:34:02+02:00</time>
      </trkpt>
      <trkpt lat="46.0106" lon="6.27557">
        <ele>771</ele>
        <time>2016-10-02T04:34:03+02:00</time>
      </trkpt>
      <trkpt lat="46.0106" lon="6.2756">
        <ele>771</ele>
        <time>2016-10-02T04:34:05+02:00</time>
      </trkpt>
      <trkpt lat="46.0106" lon="6.27563">
        <ele>771</ele>
        <time>2016-10-02T04:34:06+02:00</time>
      </trkpt>
      <trkpt lat="46.01061" lon="6.27565">
        <ele>772</ele>
        <time>2016-10-02T04:34:08+02:00</time>
      </trkpt>
      <trkpt lat="46.01062" lon="6.27568">
        <ele>772</ele>
        <time>2016-10-02T04:34:10+02:00</time>
      </trkpt>
      <trkpt lat="46.01062" lon="6.27571">
        <ele>772</ele>
        <time>2016-10-02T04:34:11+02:00</time>
      </trkpt>
      <trkpt lat="46.01063" lon="6.27573">
        <ele>772</ele>
        <time>2016-10-02T04:34:13+02:00</time>
      </trkpt>
      <trkpt lat="46.01063" lon="6.27576">
        <ele>772</ele>
        <time>2016-10-02T04:34:14+02:00</time>
      </trkpt>
      <trkpt lat="46.01064" lon="6.27578">
        <ele>773</ele>
        <time>2016-10-02T04:34:16+02:00</time>
      </trkpt>
      <trkpt lat="46.01065" lon="6.27581">
        <ele>773</ele>
        <time>2016-10-02T04:34:17+02:00</time>
      </trkpt>
      <trkpt lat="46.01065" lon="6.27583">
        <ele>773</ele>
        <time>2016-10-02T04:34:19+02:00</time>
      </trkpt>
      <trkpt lat="46.01066" lon="6.27586">
        <ele>773</ele>
        <time>2016-10-02T04:34:20+02:00</time>
      </trkpt>
      <trkpt lat="46.01066" lon="6.27588">
        <ele>774</ele>
        <time>2016-10-02T04:34:22+02:00</time>
      </trkpt>
      <trkpt lat="46.01067" lon="6.27591">
        <ele>774</ele>
        <time>2016-10-02T04:34:23+02:00</time>
      </trkpt>
      <trkpt lat="46.01068" lon="6.27593">
        <ele>774</ele>
        <time>2016-10-02T04:34:25+02:00</time>
      </trkpt>
      <trkpt lat="46.01068" lon="6.27596">
        <ele>774</ele>
        <time>2016-10-02T04:34:26+02:00</time>
      </trkpt>
      <trkpt lat="46.01068" lon="6.27599">
        <ele>775</ele>
        <time>2016-10-02T04:34:28+02:00</time>
      </trkpt>
      <trkpt lat="46.01069" lon="6.27602">
        <ele>775</ele>
        <time>2016-10-02T04:34:30+02:00</time>
      </trkpt>
      <trkpt lat="46.01069" lon="6.27604">
        <ele>775</ele>
        <time>2016-10-02T04:34:31+02:00</time>
      </trkpt>
      <trkpt lat="46.01071" lon="6.27607">
        <ele>775</ele>
        <time>2016-10-02T04:34:33+02:00</time>
      </trkpt>
      <trkpt lat="46.01072" lon="6.2761">
        <ele>775</ele>
        <time>2016-10-02T04:34:35+02:00</time>
      </trkpt>
      <trkpt lat="46.01073" lon="6.27612">
        <ele>776</ele>
        <time>2016-10-02T04:34:37+02:00</time>
      </trkpt>
      <trkpt lat="46.01074" lon="6.27614">
        <ele>776</ele>
        <time>2016-10-02T04:34:38+02:00</time>
      </trkpt>
      <trkpt lat="46.01074" lon="6.27617">
        <ele>776</ele>
        <time>2016-10-02T04:34:39+02:00</time>
      </trkpt>
      <trkpt lat="46.01075" lon="6.27619">
        <ele>776</ele>
        <time>2016-10-02T04:34:41+02:00</time>
      </trkpt>
      <trkpt lat="46.01075" lon="6.27622">
        <ele>777</ele>
        <time>2016-10-02T04:34:42+02:00</time>
      </trkpt>
      <trkpt lat="46.01075" lon="6.27625">
        <ele>777</ele>
        <time>2016-10-02T04:34:44+02:00</time>
      </trkpt>
      <trkpt lat="46.01075" lon="6.27628">
        <ele>777</ele>
        <time>2016-10-02T04:34:46+02:00</time>
      </trkpt>
      <trkpt lat="46.01076" lon="6.2763">
        <ele>777</ele>
        <time>2016-10-02T04:34:47+02:00</time>
      </trkpt>
      <trkpt lat="46.01076" lon="6.27633">
        <ele>778</ele>
        <time>2016-10-02T04:34:49+02:00</time>
      </trkpt>
      <trkpt lat="46.01076" lon="6.27636">
        <ele>778</ele>
        <time>2016-10-02T04:34:50+02:00</time>
      </trkpt>
      <trkpt lat="46.01077" lon="6.27638">
        <ele>778</ele>
        <time>2016-10-02T04:34:52+02:00</time>
      </trkpt>
      <trkpt lat="46.01078" lon="6.2764">
        <ele>778</ele>
        <time>2016-10-02T04:34:53+02:00</time>
      </trkpt>
      <trkpt lat="46.0108" lon="6.27643">
        <ele>779</ele>
        <time>2016-10-02T04:34:55+02:00</time>
      </trkpt>
      <trkpt lat="46.01081" lon="6.27645">
        <ele>779</ele>
        <time>2016-10-02T04:34:57+02:00</time>
      </trkpt>
      <trkpt lat="46.01083" lon="6.27648">
        <ele>779</ele>
        <time>2016-10-02T04:34:59+02:00</time>
      </trkpt>
      <trkpt lat="46.01084" lon="6.2765">
        <ele>779</ele>
        <time>2016-10-02T04:35:01+02:00</time>
      </trkpt>
      <trkpt lat="46.01086" lon="6.27652">
        <ele>779</ele>
        <time>2016-10-02T04:35:03+02:00</time>
      </trkpt>
      <trkpt lat="46.01088" lon="6.27655">
        <ele>779</ele>
        <time>2016-10-02T04:35:04+02:00</time>
      </trkpt>
      <trkpt lat="46.01089" lon="6.27657">
        <ele>780</ele>
        <time>2016-10-02T04:35:06+02:00</time>
      </trkpt>
      <trkpt lat="46.0109" lon="6.27659">
        <ele>780</ele>
        <time>2016-10-02T04:35:08+02:00</time>
      </trkpt>
      <trkpt lat="46.01092" lon="6.27661">
        <ele>780</ele>
        <time>2016-10-02T04:35:09+02:00</time>
      </trkpt>
      <trkpt lat="46.01093" lon="6.27662">
        <ele>780</ele>
        <time>2016-10-02T04:35:11+02:00</time>
      </trkpt>
      <trkpt lat="46.01094" lon="6.27664">
        <ele>780</ele>
        <time>2016-10-02T04:35:12+02:00</time>
      </trkpt>
      <trkpt lat="46.01096" lon="6.27666">
        <ele>780</ele>
        <time>2016-10-02T04:35:14+02:00</time>
      </trkpt>
      <trkpt lat="46.01097" lon="6.27668">
        <ele>780</ele>
        <time>2016-10-02T04:35:15+02:00</time>
      </trkpt>
      <trkpt lat="46.01098" lon="6.27669">
        <ele>780</ele>
        <time>2016-10-02T04:35:16+02:00</time>
      </trkpt>
      <trkpt lat="46.011" lon="6.2767">
        <ele>780</ele>
        <time>2016-10-02T04:35:18+02:00</time>
      </trkpt>
      <trkpt lat="46.01102" lon="6.27671">
        <ele>780</ele>
        <time>2016-10-02T04:35:19+02:00</time>
      </trkpt>
      <trkpt lat="46.01103" lon="6.27673">
        <ele>780</ele>
        <time>2016-10-02T04:35:21+02:00</time>
      </trkpt>
      <trkpt lat="46.01105" lon="6.27674">
        <ele>781</ele>
        <time>2016-10-02T04:35:22+02:00</time>
      </trkpt>
      <trkpt lat="46.01106" lon="6.27676">
        <ele>781</ele>
        <time>2016-10-02T04:35:24+02:00</time>
      </trkpt>
      <trkpt lat="46.01108" lon="6.27679">
        <ele>781</ele>
        <time>2016-10-02T04:35:26+02:00</time>
      </trkpt>
      <trkpt lat="46.0111" lon="6.27681">
        <ele>781</ele>
        <time>2016-10-02T04:35:28+02:00</time>
      </trkpt>
      <trkpt lat="46.01112" lon="6.27684">
        <ele>781</ele>
        <time>2016-10-02T04:35:30+02:00</time>
      </trkpt>
      <trkpt lat="46.01113" lon="6.27686">
        <ele>781</ele>
        <time>2016-10-02T04:35:32+02:00</time>
      </trkpt>
      <trkpt lat="46.01115" lon="6.27689">
        <ele>781</ele>
        <time>2016-10-02T04:35:34+02:00</time>
      </trkpt>
      <trkpt lat="46.01116" lon="6.27691">
        <ele>782</ele>
        <time>2016-10-02T04:35:35+02:00</time>
      </trkpt>
      <trkpt lat="46.01117" lon="6.27694">
        <ele>782</ele>
        <time>2016-10-02T04:35:37+02:00</time>
      </trkpt>
      <trkpt lat="46.01119" lon="6.27696">
        <ele>782</ele>
        <time>2016-10-02T04:35:39+02:00</time>
      </trkpt>
      <trkpt lat="46.0112" lon="6.27698">
        <ele>782</ele>
        <time>2016-10-02T04:35:41+02:00</time>
      </trkpt>
      <trkpt lat="46.01122" lon="6.27701">
        <ele>782</ele>
        <time>2016-10-02T04:35:42+02:00</time>
      </trkpt>
      <trkpt lat="46.01123" lon="6.27703">
        <ele>782</ele>
        <time>2016-10-02T04:35:44+02:00</time>
      </trkpt>
      <trkpt lat="46.01124" lon="6.27705">
        <ele>782</ele>
        <time>2016-10-02T04:35:45+02:00</time>
      </trkpt>
      <trkpt lat="46.01125" lon="6.27706">
        <ele>783</ele>
        <time>2016-10-02T04:35:47+02:00</time>
      </trkpt>
      <trkpt lat="46.01127" lon="6.27708">
        <ele>783</ele>
        <time>2016-10-02T04:35:48+02:00</time>
      </trkpt>
      <trkpt lat="46.01129" lon="6.2771">
        <ele>783</ele>
        <time>2016-10-02T04:35:50+02:00</time>
      </trkpt>
      <trkpt lat="46.0113" lon="6.27712">
        <ele>783</ele>
        <time>2016-10-02T04:35:52+02:00</time>
      </trkpt>
      <trkpt lat="46.01132" lon="6.27715">
        <ele>783</ele>
        <time>2016-10-02T04:35:54+02:00</time>
      </trkpt>
      <trkpt lat="46.01133" lon="6.27717">
        <ele>783</ele>
        <time>2016-10-02T04:35:55+02:00</time>
      </trkpt>
      <trkpt lat="46.01135" lon="6.27719">
        <ele>783</ele>
        <time>2016-10-02T04:35:57+02:00</time>
      </trkpt>
      <trkpt lat="46.01136" lon="6.27722">
        <ele>783</ele>
        <time>2016-10-02T04:35:59+02:00</time>
      </trkpt>
      <trkpt lat="46.01137" lon="6.27724">
        <ele>784</ele>
        <time>2016-10-02T04:36:00+02:00</time>
      </trkpt>
      <trkpt lat="46.01138" lon="6.27727">
        <ele>784</ele>
        <time>2016-10-02T04:36:02+02:00</time>
      </trkpt>
      <trkpt lat="46.01139" lon="6.27729">
        <ele>784</ele>
        <time>2016-10-02T04:36:04+02:00</time>
      </trkpt>
      <trkpt lat="46.0114" lon="6.27732">
        <ele>784</ele>
        <time>2016-10-02T04:36:05+02:00</time>
      </trkpt>
      <trkpt lat="46.0114" lon="6.27735">
        <ele>784</ele>
        <time>2016-10-02T04:36:07+02:00</time>
      </trkpt>
      <trkpt lat="46.01141" lon="6.27737">
        <ele>785</ele>
        <time>2016-10-02T04:36:08+02:00</time>
      </trkpt>
      <trkpt lat="46.01141" lon="6.27739">
        <ele>785</ele>
        <time>2016-10-02T04:36:10+02:00</time>
      </trkpt>
      <trkpt lat="46.01142" lon="6.27742">
        <ele>785</ele>
        <time>2016-10-02T04:36:11+02:00</time>
      </trkpt>
      <trkpt lat="46.01142" lon="6.27745">
        <ele>785</ele>
        <time>2016-10-02T04:36:13+02:00</time>
      </trkpt>
      <trkpt lat="46.01143" lon="6.27747">
        <ele>785</ele>
        <time>2016-10-02T04:36:14+02:00</time>
      </trkpt>
      <trkpt lat="46.01143" lon="6.27749">
        <ele>786</ele>
        <time>2016-10-02T04:36:16+02:00</time>
      </trkpt>
      <trkpt lat="46.01144" lon="6.27751">
        <ele>786</ele>
        <time>2016-10-02T04:36:17+02:00</time>
      </trkpt>
      <trkpt lat="46.01144" lon="6.27753">
        <ele>786</ele>
        <time>2016-10-02T04:36:18+02:00</time>
      </trkpt>
      <trkpt lat="46.01144" lon="6.27756">
        <ele>786</ele>
        <time>2016-10-02T04:36:19+02:00</time>
      </trkpt>
      <trkpt lat="46.01145" lon="6.27758">
        <ele>787</ele>
        <time>2016-10-02T04:36:21+02:00</time>
      </trkpt>
      <trkpt lat="46.01146" lon="6.27761">
        <ele>787</ele>
        <time>2016-10-02T04:36:23+02:00</time>
      </trkpt>
      <trkpt lat="46.01147" lon="6.27763">
        <ele>787</ele>
        <time>2016-10-02T04:36:24+02:00</time>
      </trkpt>
      <trkpt lat="46.01148" lon="6.27767">
        <ele>787</ele>
        <time>2016-10-02T04:36:26+02:00</time>
      </trkpt>
      <trkpt lat="46.01149" lon="6.2777">
        <ele>788</ele>
        <time>2016-10-02T04:36:29+02:00</time>
      </trkpt>
      <trkpt lat="46.01151" lon="6.27774">
        <ele>788</ele>
        <time>2016-10-02T04:36:31+02:00</time>
      </trkpt>
      <trkpt lat="46.01153" lon="6.27778">
        <ele>788</ele>
        <time>2016-10-02T04:36:34+02:00</time>
      </trkpt>
      <trkpt lat="46.01155" lon="6.27781">
        <ele>789</ele>
        <time>2016-10-02T04:36:36+02:00</time>
      </trkpt>
      <trkpt lat="46.01157" lon="6.27784">
        <ele>789</ele>
        <time>2016-10-02T04:36:39+02:00</time>
      </trkpt>
      <trkpt lat="46.01159" lon="6.27787">
        <ele>789</ele>
        <time>2016-10-02T04:36:41+02:00</time>
      </trkpt>
      <trkpt lat="46.01162" lon="6.2779">
        <ele>789</ele>
        <time>2016-10-02T04:36:44+02:00</time>
      </trkpt>
      <trkpt lat="46.01164" lon="6.27793">
        <ele>789</ele>
        <time>2016-10-02T04:36:46+02:00</time>
      </trkpt>
      <trkpt lat="46.01165" lon="6.27796">
        <ele>790</ele>
        <time>2016-10-02T04:36:48+02:00</time>
      </trkpt>
      <trkpt lat="46.01166" lon="6.27798">
        <ele>790</ele>
        <time>2016-10-02T04:36:49+02:00</time>
      </trkpt>
      <trkpt lat="46.01168" lon="6.27801">
        <ele>790</ele>
        <time>2016-10-02T04:36:51+02:00</time>
      </trkpt>
      <trkpt lat="46.01169" lon="6.27803">
        <ele>790</ele>
        <time>2016-10-02T04:36:53+02:00</time>
      </trkpt>
      <trkpt lat="46.01171" lon="6.27805">
        <ele>790</ele>
        <time>2016-10-02T04:36:55+02:00</time>
      </trkpt>
      <trkpt lat="46.01173" lon="6.27807">
        <ele>790</ele>
        <time>2016-10-02T04:36:57+02:00</time>
      </trkpt>
      <trkpt lat="46.01174" lon="6.2781">
        <ele>790</ele>
        <time>2016-10-02T04:36:59+02:00</time>
      </trkpt>
      <trkpt lat="46.01176" lon="6.27812">
        <ele>791</ele>
        <time>2016-10-02T04:37:00+02:00</time>
      </trkpt>
      <trkpt lat="46.01178" lon="6.27814">
        <ele>791</ele>
        <time>2016-10-02T04:37:02+02:00</time>
      </trkpt>
      <trkpt lat="46.01179" lon="6.27816">
        <ele>791</ele>
        <time>2016-10-02T04:37:04+02:00</time>
      </trkpt>
      <trkpt lat="46.01181" lon="6.27818">
        <ele>791</ele>
        <time>2016-10-02T04:37:05+02:00</time>
      </trkpt>
      <trkpt lat="46.01182" lon="6.2782">
        <ele>791</ele>
        <time>2016-10-02T04:37:07+02:00</time>
      </trkpt>
      <trkpt lat="46.01183" lon="6.27823">
        <ele>791</ele>
        <time>2016-10-02T04:37:09+02:00</time>
      </trkpt>
      <trkpt lat="46.01184" lon="6.27825">
        <ele>791</ele>
        <time>2016-10-02T04:37:10+02:00</time>
      </trkpt>
      <trkpt lat="46.01184" lon="6.27828">
        <ele>792</ele>
        <time>2016-10-02T04:37:12+02:00</time>
      </trkpt>
      <trkpt lat="46.01185" lon="6.27832">
        <ele>792</ele>
        <time>2016-10-02T04:37:14+02:00</time>
      </trkpt>
      <trkpt lat="46.01186" lon="6.27834">
        <ele>792</ele>
        <time>2016-10-02T04:37:15+02:00</time>
      </trkpt>
      <trkpt lat="46.01186" lon="6.27835">
        <ele>792</ele>
        <time>2016-10-02T04:37:16+02:00</time>
      </trkpt>
      <trkpt lat="46.01186" lon="6.27835">
        <ele>792</ele>
        <time>2016-10-02T04:37:16+02:00</time>
      </trkpt>
      <trkpt lat="46.01186" lon="6.27837">
        <ele>792</ele>
        <time>2016-10-02T04:37:17+02:00</time>
      </trkpt>
      <trkpt lat="46.01186" lon="6.27839">
        <ele>792</ele>
        <time>2016-10-02T04:37:18+02:00</time>
      </trkpt>
      <trkpt lat="46.01185" lon="6.27841">
        <ele>793</ele>
        <time>2016-10-02T04:37:20+02:00</time>
      </trkpt>
      <trkpt lat="46.01183" lon="6.27843">
        <ele>793</ele>
        <time>2016-10-02T04:37:22+02:00</time>
      </trkpt>
      <trkpt lat="46.01181" lon="6.27844">
        <ele>794</ele>
        <time>2016-10-02T04:37:24+02:00</time>
      </trkpt>
      <trkpt lat="46.01179" lon="6.27846">
        <ele>794</ele>
        <time>2016-10-02T04:37:25+02:00</time>
      </trkpt>
      <trkpt lat="46.01177" lon="6.27847">
        <ele>794</ele>
        <time>2016-10-02T04:37:27+02:00</time>
      </trkpt>
      <trkpt lat="46.01175" lon="6.27848">
        <ele>795</ele>
        <time>2016-10-02T04:37:29+02:00</time>
      </trkpt>
      <trkpt lat="46.01172" lon="6.2785">
        <ele>795</ele>
        <time>2016-10-02T04:37:31+02:00</time>
      </trkpt>
      <trkpt lat="46.0117" lon="6.27851">
        <ele>795</ele>
        <time>2016-10-02T04:37:34+02:00</time>
      </trkpt>
      <trkpt lat="46.01168" lon="6.27853">
        <ele>796</ele>
        <time>2016-10-02T04:37:35+02:00</time>
      </trkpt>
      <trkpt lat="46.01167" lon="6.27855">
        <ele>796</ele>
        <time>2016-10-02T04:37:37+02:00</time>
      </trkpt>
      <trkpt lat="46.01166" lon="6.27858">
        <ele>796</ele>
        <time>2016-10-02T04:37:39+02:00</time>
      </trkpt>
      <trkpt lat="46.01166" lon="6.2786">
        <ele>797</ele>
        <time>2016-10-02T04:37:40+02:00</time>
      </trkpt>
      <trkpt lat="46.01168" lon="6.27863">
        <ele>797</ele>
        <time>2016-10-02T04:37:42+02:00</time>
      </trkpt>
      <trkpt lat="46.01169" lon="6.27865">
        <ele>797</ele>
        <time>2016-10-02T04:37:43+02:00</time>
      </trkpt>
      <trkpt lat="46.0117" lon="6.27868">
        <ele>797</ele>
        <time>2016-10-02T04:37:45+02:00</time>
      </trkpt>
      <trkpt lat="46.01172" lon="6.27871">
        <ele>797</ele>
        <time>2016-10-02T04:37:48+02:00</time>
      </trkpt>
      <trkpt lat="46.01173" lon="6.27874">
        <ele>797</ele>
        <time>2016-10-02T04:37:50+02:00</time>
      </trkpt>
      <trkpt lat="46.01175" lon="6.27876">
        <ele>797</ele>
        <time>2016-10-02T04:37:52+02:00</time>
      </trkpt>
      <trkpt lat="46.01177" lon="6.27879">
        <ele>797</ele>
        <time>2016-10-02T04:37:53+02:00</time>
      </trkpt>
      <trkpt lat="46.01179" lon="6.27881">
        <ele>797</ele>
        <time>2016-10-02T04:37:56+02:00</time>
      </trkpt>
      <trkpt lat="46.0118" lon="6.27883">
        <ele>797</ele>
        <time>2016-10-02T04:37:57+02:00</time>
      </trkpt>
      <trkpt lat="46.01182" lon="6.27886">
        <ele>798</ele>
        <time>2016-10-02T04:38:00+02:00</time>
      </trkpt>
      <trkpt lat="46.01184" lon="6.27888">
        <ele>798</ele>
        <time>2016-10-02T04:38:01+02:00</time>
      </trkpt>
      <trkpt lat="46.01185" lon="6.2789">
        <ele>798</ele>
        <time>2016-10-02T04:38:02+02:00</time>
      </trkpt>
      <trkpt lat="46.01186" lon="6.27891">
        <ele>798</ele>
        <time>2016-10-02T04:38:04+02:00</time>
      </trkpt>
      <trkpt lat="46.01188" lon="6.27894">
        <ele>798</ele>
        <time>2016-10-02T04:38:06+02:00</time>
      </trkpt>
      <trkpt lat="46.01189" lon="6.27895">
        <ele>798</ele>
        <time>2016-10-02T04:38:07+02:00</time>
      </trkpt>
      <trkpt lat="46.01192" lon="6.27898">
        <ele>798</ele>
        <time>2016-10-02T04:38:10+02:00</time>
      </trkpt>
      <trkpt lat="46.01193" lon="6.279">
        <ele>798</ele>
        <time>2016-10-02T04:38:11+02:00</time>
      </trkpt>
      <trkpt lat="46.01194" lon="6.27901">
        <ele>798</ele>
        <time>2016-10-02T04:38:12+02:00</time>
      </trkpt>
      <trkpt lat="46.01196" lon="6.27904">
        <ele>798</ele>
        <time>2016-10-02T04:38:15+02:00</time>
      </trkpt>
      <trkpt lat="46.01197" lon="6.27906">
        <ele>798</ele>
        <time>2016-10-02T04:38:16+02:00</time>
      </trkpt>
      <trkpt lat="46.01199" lon="6.27908">
        <ele>798</ele>
        <time>2016-10-02T04:38:18+02:00</time>
      </trkpt>
      <trkpt lat="46.012" lon="6.2791">
        <ele>798</ele>
        <time>2016-10-02T04:38:19+02:00</time>
      </trkpt>
      <trkpt lat="46.012" lon="6.27914">
        <ele>798</ele>
        <time>2016-10-02T04:38:21+02:00</time>
      </trkpt>
      <trkpt lat="46.012" lon="6.27916">
        <ele>799</ele>
        <time>2016-10-02T04:38:23+02:00</time>
      </trkpt>
      <trkpt lat="46.012" lon="6.27918">
        <ele>799</ele>
        <time>2016-10-02T04:38:24+02:00</time>
      </trkpt>
      <trkpt lat="46.012" lon="6.27922">
        <ele>799</ele>
        <time>2016-10-02T04:38:26+02:00</time>
      </trkpt>
      <trkpt lat="46.01198" lon="6.27925">
        <ele>800</ele>
        <time>2016-10-02T04:38:28+02:00</time>
      </trkpt>
      <trkpt lat="46.01197" lon="6.27926">
        <ele>800</ele>
        <time>2016-10-02T04:38:29+02:00</time>
      </trkpt>
      <trkpt lat="46.01196" lon="6.27928">
        <ele>800</ele>
        <time>2016-10-02T04:38:30+02:00</time>
      </trkpt>
      <trkpt lat="46.01194" lon="6.27931">
        <ele>800</ele>
        <time>2016-10-02T04:38:33+02:00</time>
      </trkpt>
      <trkpt lat="46.01192" lon="6.27933">
        <ele>801</ele>
        <time>2016-10-02T04:38:35+02:00</time>
      </trkpt>
      <trkpt lat="46.0119" lon="6.27936">
        <ele>801</ele>
        <time>2016-10-02T04:38:37+02:00</time>
      </trkpt>
      <trkpt lat="46.01189" lon="6.27938">
        <ele>801</ele>
        <time>2016-10-02T04:38:38+02:00</time>
      </trkpt>
      <trkpt lat="46.01188" lon="6.2794">
        <ele>802</ele>
        <time>2016-10-02T04:38:40+02:00</time>
      </trkpt>
      <trkpt lat="46.01186" lon="6.27942">
        <ele>802</ele>
        <time>2016-10-02T04:38:42+02:00</time>
      </trkpt>
      <trkpt lat="46.01184" lon="6.27945">
        <ele>802</ele>
        <time>2016-10-02T04:38:44+02:00</time>
      </trkpt>
      <trkpt lat="46.01183" lon="6.27947">
        <ele>803</ele>
        <time>2016-10-02T04:38:46+02:00</time>
      </trkpt>
      <trkpt lat="46.01182" lon="6.27948">
        <ele>803</ele>
        <time>2016-10-02T04:38:47+02:00</time>
      </trkpt>
      <trkpt lat="46.0118" lon="6.27951">
        <ele>803</ele>
        <time>2016-10-02T04:38:49+02:00</time>
      </trkpt>
      <trkpt lat="46.01178" lon="6.27954">
        <ele>804</ele>
        <time>2016-10-02T04:38:51+02:00</time>
      </trkpt>
      <trkpt lat="46.01177" lon="6.27955">
        <ele>804</ele>
        <time>2016-10-02T04:38:53+02:00</time>
      </trkpt>
      <trkpt lat="46.01177" lon="6.27957">
        <ele>804</ele>
        <time>2016-10-02T04:38:54+02:00</time>
      </trkpt>
      <trkpt lat="46.01176" lon="6.27959">
        <ele>804</ele>
        <time>2016-10-02T04:38:55+02:00</time>
      </trkpt>
      <trkpt lat="46.01175" lon="6.2796">
        <ele>804</ele>
        <time>2016-10-02T04:38:56+02:00</time>
      </trkpt>
      <trkpt lat="46.01174" lon="6.27962">
        <ele>805</ele>
        <time>2016-10-02T04:38:58+02:00</time>
      </trkpt>
      <trkpt lat="46.01173" lon="6.27966">
        <ele>805</ele>
        <time>2016-10-02T04:39:00+02:00</time>
      </trkpt>
      <trkpt lat="46.01172" lon="6.2797">
        <ele>805</ele>
        <time>2016-10-02T04:39:02+02:00</time>
      </trkpt>
      <trkpt lat="46.01171" lon="6.27973">
        <ele>806</ele>
        <time>2016-10-02T04:39:04+02:00</time>
      </trkpt>
      <trkpt lat="46.01171" lon="6.27976">
        <ele>806</ele>
        <time>2016-10-02T04:39:06+02:00</time>
      </trkpt>
      <trkpt lat="46.0117" lon="6.2798">
        <ele>806</ele>
        <time>2016-10-02T04:39:08+02:00</time>
      </trkpt>
      <trkpt lat="46.01169" lon="6.27983">
        <ele>807</ele>
        <time>2016-10-02T04:39:10+02:00</time>
      </trkpt>
      <trkpt lat="46.01168" lon="6.27987">
        <ele>807</ele>
        <time>2016-10-02T04:39:13+02:00</time>
      </trkpt>
      <trkpt lat="46.01166" lon="6.2799">
        <ele>807</ele>
        <time>2016-10-02T04:39:15+02:00</time>
      </trkpt>
      <trkpt lat="46.01165" lon="6.27994">
        <ele>808</ele>
        <time>2016-10-02T04:39:17+02:00</time>
      </trkpt>
      <trkpt lat="46.01163" lon="6.27997">
        <ele>808</ele>
        <time>2016-10-02T04:39:19+02:00</time>
      </trkpt>
      <trkpt lat="46.01161" lon="6.28">
        <ele>808</ele>
        <time>2016-10-02T04:39:22+02:00</time>
      </trkpt>
      <trkpt lat="46.01159" lon="6.28003">
        <ele>809</ele>
        <time>2016-10-02T04:39:24+02:00</time>
      </trkpt>
      <trkpt lat="46.01157" lon="6.28006">
        <ele>809</ele>
        <time>2016-10-02T04:39:26+02:00</time>
      </trkpt>
      <trkpt lat="46.01155" lon="6.28008">
        <ele>809</ele>
        <time>2016-10-02T04:39:29+02:00</time>
      </trkpt>
      <trkpt lat="46.01154" lon="6.28009">
        <ele>809</ele>
        <time>2016-10-02T04:39:30+02:00</time>
      </trkpt>
      <trkpt lat="46.01152" lon="6.2801">
        <ele>810</ele>
        <time>2016-10-02T04:39:31+02:00</time>
      </trkpt>
      <trkpt lat="46.01151" lon="6.28011">
        <ele>810</ele>
        <time>2016-10-02T04:39:33+02:00</time>
      </trkpt>
      <trkpt lat="46.01149" lon="6.28012">
        <ele>810</ele>
        <time>2016-10-02T04:39:34+02:00</time>
      </trkpt>
      <trkpt lat="46.01147" lon="6.28014">
        <ele>810</ele>
        <time>2016-10-02T04:39:36+02:00</time>
      </trkpt>
      <trkpt lat="46.01145" lon="6.28016">
        <ele>811</ele>
        <time>2016-10-02T04:39:38+02:00</time>
      </trkpt>
      <trkpt lat="46.01143" lon="6.28019">
        <ele>811</ele>
        <time>2016-10-02T04:39:40+02:00</time>
      </trkpt>
      <trkpt lat="46.01142" lon="6.2802">
        <ele>811</ele>
        <time>2016-10-02T04:39:42+02:00</time>
      </trkpt>
      <trkpt lat="46.01141" lon="6.28022">
        <ele>811</ele>
        <time>2016-10-02T04:39:43+02:00</time>
      </trkpt>
      <trkpt lat="46.0114" lon="6.28023">
        <ele>811</ele>
        <time>2016-10-02T04:39:44+02:00</time>
      </trkpt>
      <trkpt lat="46.01138" lon="6.28026">
        <ele>812</ele>
        <time>2016-10-02T04:39:46+02:00</time>
      </trkpt>
      <trkpt lat="46.01136" lon="6.28029">
        <ele>812</ele>
        <time>2016-10-02T04:39:48+02:00</time>
      </trkpt>
      <trkpt lat="46.01134" lon="6.28031">
        <ele>812</ele>
        <time>2016-10-02T04:39:51+02:00</time>
      </trkpt>
      <trkpt lat="46.01133" lon="6.28033">
        <ele>813</ele>
        <time>2016-10-02T04:39:52+02:00</time>
      </trkpt>
      <trkpt lat="46.01132" lon="6.28035">
        <ele>813</ele>
        <time>2016-10-02T04:39:53+02:00</time>
      </trkpt>
      <trkpt lat="46.01131" lon="6.28038">
        <ele>813</ele>
        <time>2016-10-02T04:39:55+02:00</time>
      </trkpt>
      <trkpt lat="46.01129" lon="6.2804">
        <ele>813</ele>
        <time>2016-10-02T04:39:57+02:00</time>
      </trkpt>
      <trkpt lat="46.01128" lon="6.28042">
        <ele>814</ele>
        <time>2016-10-02T04:39:58+02:00</time>
      </trkpt>
      <trkpt lat="46.01127" lon="6.28043">
        <ele>814</ele>
        <time>2016-10-02T04:40:00+02:00</time>
      </trkpt>
      <trkpt lat="46.01125" lon="6.28046">
        <ele>814</ele>
        <time>2016-10-02T04:40:01+02:00</time>
      </trkpt>
      <trkpt lat="46.01123" lon="6.28048">
        <ele>814</ele>
        <time>2016-10-02T04:40:04+02:00</time>
      </trkpt>
      <trkpt lat="46.01122" lon="6.28051">
        <ele>815</ele>
        <time>2016-10-02T04:40:06+02:00</time>
      </trkpt>
      <trkpt lat="46.0112" lon="6.28053">
        <ele>815</ele>
        <time>2016-10-02T04:40:08+02:00</time>
      </trkpt>
      <trkpt lat="46.01117" lon="6.28056">
        <ele>815</ele>
        <time>2016-10-02T04:40:10+02:00</time>
      </trkpt>
      <trkpt lat="46.01115" lon="6.28057">
        <ele>816</ele>
        <time>2016-10-02T04:40:12+02:00</time>
      </trkpt>
      <trkpt lat="46.01114" lon="6.2806">
        <ele>816</ele>
        <time>2016-10-02T04:40:14+02:00</time>
      </trkpt>
      <trkpt lat="46.01111" lon="6.28062">
        <ele>816</ele>
        <time>2016-10-02T04:40:16+02:00</time>
      </trkpt>
      <trkpt lat="46.0111" lon="6.28065">
        <ele>817</ele>
        <time>2016-10-02T04:40:18+02:00</time>
      </trkpt>
      <trkpt lat="46.01108" lon="6.28068">
        <ele>817</ele>
        <time>2016-10-02T04:40:20+02:00</time>
      </trkpt>
      <trkpt lat="46.01107" lon="6.28069">
        <ele>817</ele>
        <time>2016-10-02T04:40:22+02:00</time>
      </trkpt>
      <trkpt lat="46.01106" lon="6.28071">
        <ele>817</ele>
        <time>2016-10-02T04:40:23+02:00</time>
      </trkpt>
      <trkpt lat="46.01104" lon="6.28072">
        <ele>818</ele>
        <time>2016-10-02T04:40:24+02:00</time>
      </trkpt>
      <trkpt lat="46.01103" lon="6.28074">
        <ele>818</ele>
        <time>2016-10-02T04:40:26+02:00</time>
      </trkpt>
      <trkpt lat="46.01101" lon="6.28076">
        <ele>818</ele>
        <time>2016-10-02T04:40:28+02:00</time>
      </trkpt>
      <trkpt lat="46.01099" lon="6.28079">
        <ele>818</ele>
        <time>2016-10-02T04:40:30+02:00</time>
      </trkpt>
      <trkpt lat="46.01097" lon="6.28081">
        <ele>819</ele>
        <time>2016-10-02T04:40:32+02:00</time>
      </trkpt>
      <trkpt lat="46.01096" lon="6.28084">
        <ele>819</ele>
        <time>2016-10-02T04:40:34+02:00</time>
      </trkpt>
      <trkpt lat="46.01094" lon="6.28086">
        <ele>820</ele>
        <time>2016-10-02T04:40:36+02:00</time>
      </trkpt>
      <trkpt lat="46.01092" lon="6.28089">
        <ele>820</ele>
        <time>2016-10-02T04:40:38+02:00</time>
      </trkpt>
      <trkpt lat="46.0109" lon="6.28092">
        <ele>820</ele>
        <time>2016-10-02T04:40:41+02:00</time>
      </trkpt>
      <trkpt lat="46.01089" lon="6.28093">
        <ele>820</ele>
        <time>2016-10-02T04:40:42+02:00</time>
      </trkpt>
      <trkpt lat="46.01088" lon="6.28095">
        <ele>821</ele>
        <time>2016-10-02T04:40:43+02:00</time>
      </trkpt>
      <trkpt lat="46.01087" lon="6.28097">
        <ele>821</ele>
        <time>2016-10-02T04:40:44+02:00</time>
      </trkpt>
      <trkpt lat="46.01086" lon="6.28098">
        <ele>821</ele>
        <time>2016-10-02T04:40:46+02:00</time>
      </trkpt>
      <trkpt lat="46.01085" lon="6.281">
        <ele>821</ele>
        <time>2016-10-02T04:40:47+02:00</time>
      </trkpt>
      <trkpt lat="46.01084" lon="6.28101">
        <ele>821</ele>
        <time>2016-10-02T04:40:48+02:00</time>
      </trkpt>
      <trkpt lat="46.01083" lon="6.28103">
        <ele>822</ele>
        <time>2016-10-02T04:40:49+02:00</time>
      </trkpt>
      <trkpt lat="46.01082" lon="6.28105">
        <ele>822</ele>
        <time>2016-10-02T04:40:51+02:00</time>
      </trkpt>
      <trkpt lat="46.0108" lon="6.28107">
        <ele>822</ele>
        <time>2016-10-02T04:40:53+02:00</time>
      </trkpt>
      <trkpt lat="46.01079" lon="6.28109">
        <ele>823</ele>
        <time>2016-10-02T04:40:54+02:00</time>
      </trkpt>
      <trkpt lat="46.01078" lon="6.2811">
        <ele>823</ele>
        <time>2016-10-02T04:40:55+02:00</time>
      </trkpt>
      <trkpt lat="46.01077" lon="6.28112">
        <ele>823</ele>
        <time>2016-10-02T04:40:56+02:00</time>
      </trkpt>
      <trkpt lat="46.01075" lon="6.28114">
        <ele>823</ele>
        <time>2016-10-02T04:40:59+02:00</time>
      </trkpt>
      <trkpt lat="46.01074" lon="6.28115">
        <ele>824</ele>
        <time>2016-10-02T04:41:00+02:00</time>
      </trkpt>
      <trkpt lat="46.01072" lon="6.28118">
        <ele>824</ele>
        <time>2016-10-02T04:41:02+02:00</time>
      </trkpt>
      <trkpt lat="46.0107" lon="6.2812">
        <ele>824</ele>
        <time>2016-10-02T04:41:04+02:00</time>
      </trkpt>
      <trkpt lat="46.01068" lon="6.28123">
        <ele>825</ele>
        <time>2016-10-02T04:41:06+02:00</time>
      </trkpt>
      <trkpt lat="46.01067" lon="6.28125">
        <ele>825</ele>
        <time>2016-10-02T04:41:08+02:00</time>
      </trkpt>
      <trkpt lat="46.01065" lon="6.28128">
        <ele>825</ele>
        <time>2016-10-02T04:41:10+02:00</time>
      </trkpt>
      <trkpt lat="46.01064" lon="6.28131">
        <ele>826</ele>
        <time>2016-10-02T04:41:12+02:00</time>
      </trkpt>
      <trkpt lat="46.01063" lon="6.28133">
        <ele>826</ele>
        <time>2016-10-02T04:41:14+02:00</time>
      </trkpt>
      <trkpt lat="46.01061" lon="6.28136">
        <ele>827</ele>
        <time>2016-10-02T04:41:16+02:00</time>
      </trkpt>
      <trkpt lat="46.01059" lon="6.28139">
        <ele>827</ele>
        <time>2016-10-02T04:41:18+02:00</time>
      </trkpt>
      <trkpt lat="46.01057" lon="6.28142">
        <ele>827</ele>
        <time>2016-10-02T04:41:20+02:00</time>
      </trkpt>
      <trkpt lat="46.01056" lon="6.28144">
        <ele>828</ele>
        <time>2016-10-02T04:41:22+02:00</time>
      </trkpt>
      <trkpt lat="46.01054" lon="6.28147">
        <ele>828</ele>
        <time>2016-10-02T04:41:24+02:00</time>
      </trkpt>
      <trkpt lat="46.01053" lon="6.2815">
        <ele>829</ele>
        <time>2016-10-02T04:41:26+02:00</time>
      </trkpt>
      <trkpt lat="46.01052" lon="6.28153">
        <ele>829</ele>
        <time>2016-10-02T04:41:28+02:00</time>
      </trkpt>
      <trkpt lat="46.0105" lon="6.28156">
        <ele>829</ele>
        <time>2016-10-02T04:41:30+02:00</time>
      </trkpt>
      <trkpt lat="46.01049" lon="6.28159">
        <ele>830</ele>
        <time>2016-10-02T04:41:32+02:00</time>
      </trkpt>
      <trkpt lat="46.01048" lon="6.28163">
        <ele>830</ele>
        <time>2016-10-02T04:41:35+02:00</time>
      </trkpt>
      <trkpt lat="46.01046" lon="6.28166">
        <ele>830</ele>
        <time>2016-10-02T04:41:37+02:00</time>
      </trkpt>
      <trkpt lat="46.01045" lon="6.28169">
        <ele>831</ele>
        <time>2016-10-02T04:41:39+02:00</time>
      </trkpt>
      <trkpt lat="46.01044" lon="6.28171">
        <ele>831</ele>
        <time>2016-10-02T04:41:40+02:00</time>
      </trkpt>
      <trkpt lat="46.01043" lon="6.28172">
        <ele>831</ele>
        <time>2016-10-02T04:41:42+02:00</time>
      </trkpt>
      <trkpt lat="46.01042" lon="6.28174">
        <ele>832</ele>
        <time>2016-10-02T04:41:43+02:00</time>
      </trkpt>
      <trkpt lat="46.0104" lon="6.28177">
        <ele>832</ele>
        <time>2016-10-02T04:41:45+02:00</time>
      </trkpt>
      <trkpt lat="46.01039" lon="6.2818">
        <ele>833</ele>
        <time>2016-10-02T04:41:47+02:00</time>
      </trkpt>
      <trkpt lat="46.01037" lon="6.28183">
        <ele>833</ele>
        <time>2016-10-02T04:41:49+02:00</time>
      </trkpt>
      <trkpt lat="46.01035" lon="6.28186">
        <ele>833</ele>
        <time>2016-10-02T04:41:51+02:00</time>
      </trkpt>
      <trkpt lat="46.01034" lon="6.28189">
        <ele>834</ele>
        <time>2016-10-02T04:41:53+02:00</time>
      </trkpt>
      <trkpt lat="46.01033" lon="6.28191">
        <ele>834</ele>
        <time>2016-10-02T04:41:55+02:00</time>
      </trkpt>
      <trkpt lat="46.01031" lon="6.28193">
        <ele>835</ele>
        <time>2016-10-02T04:41:57+02:00</time>
      </trkpt>
      <trkpt lat="46.01029" lon="6.28196">
        <ele>835</ele>
        <time>2016-10-02T04:41:59+02:00</time>
      </trkpt>
      <trkpt lat="46.01028" lon="6.28198">
        <ele>835</ele>
        <time>2016-10-02T04:42:01+02:00</time>
      </trkpt>
      <trkpt lat="46.01026" lon="6.28201">
        <ele>836</ele>
        <time>2016-10-02T04:42:03+02:00</time>
      </trkpt>
      <trkpt lat="46.01024" lon="6.28203">
        <ele>836</ele>
        <time>2016-10-02T04:42:05+02:00</time>
      </trkpt>
      <trkpt lat="46.01022" lon="6.28206">
        <ele>837</ele>
        <time>2016-10-02T04:42:07+02:00</time>
      </trkpt>
      <trkpt lat="46.01021" lon="6.28208">
        <ele>837</ele>
        <time>2016-10-02T04:42:09+02:00</time>
      </trkpt>
      <trkpt lat="46.01019" lon="6.2821">
        <ele>837</ele>
        <time>2016-10-02T04:42:11+02:00</time>
      </trkpt>
      <trkpt lat="46.01017" lon="6.28213">
        <ele>838</ele>
        <time>2016-10-02T04:42:13+02:00</time>
      </trkpt>
      <trkpt lat="46.01016" lon="6.28215">
        <ele>838</ele>
        <time>2016-10-02T04:42:14+02:00</time>
      </trkpt>
      <trkpt lat="46.01014" lon="6.28218">
        <ele>839</ele>
        <time>2016-10-02T04:42:17+02:00</time>
      </trkpt>
      <trkpt lat="46.01012" lon="6.2822">
        <ele>839</ele>
        <time>2016-10-02T04:42:19+02:00</time>
      </trkpt>
      <trkpt lat="46.01011" lon="6.28221">
        <ele>839</ele>
        <time>2016-10-02T04:42:20+02:00</time>
      </trkpt>
      <trkpt lat="46.0101" lon="6.28223">
        <ele>839</ele>
        <time>2016-10-02T04:42:21+02:00</time>
      </trkpt>
      <trkpt lat="46.01009" lon="6.28224">
        <ele>840</ele>
        <time>2016-10-02T04:42:23+02:00</time>
      </trkpt>
      <trkpt lat="46.01007" lon="6.28227">
        <ele>840</ele>
        <time>2016-10-02T04:42:25+02:00</time>
      </trkpt>
      <trkpt lat="46.01006" lon="6.2823">
        <ele>841</ele>
        <time>2016-10-02T04:42:27+02:00</time>
      </trkpt>
      <trkpt lat="46.01004" lon="6.28233">
        <ele>841</ele>
        <time>2016-10-02T04:42:29+02:00</time>
      </trkpt>
      <trkpt lat="46.01002" lon="6.28236">
        <ele>841</ele>
        <time>2016-10-02T04:42:31+02:00</time>
      </trkpt>
      <trkpt lat="46.01001" lon="6.28239">
        <ele>842</ele>
        <time>2016-10-02T04:42:33+02:00</time>
      </trkpt>
      <trkpt lat="46.01" lon="6.28242">
        <ele>842</ele>
        <time>2016-10-02T04:42:35+02:00</time>
      </trkpt>
      <trkpt lat="46.00999" lon="6.28243">
        <ele>843</ele>
        <time>2016-10-02T04:42:37+02:00</time>
      </trkpt>
      <trkpt lat="46.00997" lon="6.28246">
        <ele>843</ele>
        <time>2016-10-02T04:42:39+02:00</time>
      </trkpt>
      <trkpt lat="46.00994" lon="6.28247">
        <ele>844</ele>
        <time>2016-10-02T04:42:41+02:00</time>
      </trkpt>
      <trkpt lat="46.00992" lon="6.28248">
        <ele>844</ele>
        <time>2016-10-02T04:42:43+02:00</time>
      </trkpt>
      <trkpt lat="46.0099" lon="6.28249">
        <ele>844</ele>
        <time>2016-10-02T04:42:44+02:00</time>
      </trkpt>
      <trkpt lat="46.00988" lon="6.2825">
        <ele>845</ele>
        <time>2016-10-02T04:42:46+02:00</time>
      </trkpt>
      <trkpt lat="46.00987" lon="6.28252">
        <ele>845</ele>
        <time>2016-10-02T04:42:47+02:00</time>
      </trkpt>
      <trkpt lat="46.00986" lon="6.28253">
        <ele>846</ele>
        <time>2016-10-02T04:42:49+02:00</time>
      </trkpt>
      <trkpt lat="46.00984" lon="6.28254">
        <ele>846</ele>
        <time>2016-10-02T04:42:50+02:00</time>
      </trkpt>
      <trkpt lat="46.00982" lon="6.28255">
        <ele>846</ele>
        <time>2016-10-02T04:42:52+02:00</time>
      </trkpt>
      <trkpt lat="46.00981" lon="6.28256">
        <ele>847</ele>
        <time>2016-10-02T04:42:53+02:00</time>
      </trkpt>
      <trkpt lat="46.00979" lon="6.28257">
        <ele>847</ele>
        <time>2016-10-02T04:42:55+02:00</time>
      </trkpt>
      <trkpt lat="46.00977" lon="6.28259">
        <ele>848</ele>
        <time>2016-10-02T04:42:57+02:00</time>
      </trkpt>
      <trkpt lat="46.00975" lon="6.28262">
        <ele>848</ele>
        <time>2016-10-02T04:42:59+02:00</time>
      </trkpt>
      <trkpt lat="46.00973" lon="6.28264">
        <ele>849</ele>
        <time>2016-10-02T04:43:01+02:00</time>
      </trkpt>
      <trkpt lat="46.00971" lon="6.28268">
        <ele>850</ele>
        <time>2016-10-02T04:43:04+02:00</time>
      </trkpt>
      <trkpt lat="46.00971" lon="6.28269">
        <ele>850</ele>
        <time>2016-10-02T04:43:05+02:00</time>
      </trkpt>
      <trkpt lat="46.00969" lon="6.28272">
        <ele>851</ele>
        <time>2016-10-02T04:43:07+02:00</time>
      </trkpt>
      <trkpt lat="46.00967" lon="6.28274">
        <ele>851</ele>
        <time>2016-10-02T04:43:09+02:00</time>
      </trkpt>
      <trkpt lat="46.00965" lon="6.28277">
        <ele>852</ele>
        <time>2016-10-02T04:43:11+02:00</time>
      </trkpt>
      <trkpt lat="46.00964" lon="6.2828">
        <ele>852</ele>
        <time>2016-10-02T04:43:13+02:00</time>
      </trkpt>
      <trkpt lat="46.00962" lon="6.28283">
        <ele>853</ele>
        <time>2016-10-02T04:43:15+02:00</time>
      </trkpt>
      <trkpt lat="46.0096" lon="6.28285">
        <ele>854</ele>
        <time>2016-10-02T04:43:17+02:00</time>
      </trkpt>
      <trkpt lat="46.00959" lon="6.28288">
        <ele>854</ele>
        <time>2016-10-02T04:43:19+02:00</time>
      </trkpt>
      <trkpt lat="46.00957" lon="6.2829">
        <ele>855</ele>
        <time>2016-10-02T04:43:21+02:00</time>
      </trkpt>
      <trkpt lat="46.00956" lon="6.28292">
        <ele>855</ele>
        <time>2016-10-02T04:43:23+02:00</time>
      </trkpt>
      <trkpt lat="46.00956" lon="6.28294">
        <ele>855</ele>
        <time>2016-10-02T04:43:24+02:00</time>
      </trkpt>
      <trkpt lat="46.00954" lon="6.28296">
        <ele>856</ele>
        <time>2016-10-02T04:43:25+02:00</time>
      </trkpt>
      <trkpt lat="46.00954" lon="6.28298">
        <ele>856</ele>
        <time>2016-10-02T04:43:27+02:00</time>
      </trkpt>
      <trkpt lat="46.00953" lon="6.28301">
        <ele>857</ele>
        <time>2016-10-02T04:43:28+02:00</time>
      </trkpt>
      <trkpt lat="46.00952" lon="6.28303">
        <ele>857</ele>
        <time>2016-10-02T04:43:30+02:00</time>
      </trkpt>
      <trkpt lat="46.00951" lon="6.28306">
        <ele>858</ele>
        <time>2016-10-02T04:43:31+02:00</time>
      </trkpt>
      <trkpt lat="46.0095" lon="6.28308">
        <ele>858</ele>
        <time>2016-10-02T04:43:33+02:00</time>
      </trkpt>
      <trkpt lat="46.00949" lon="6.2831">
        <ele>858</ele>
        <time>2016-10-02T04:43:35+02:00</time>
      </trkpt>
      <trkpt lat="46.00948" lon="6.28313">
        <ele>859</ele>
        <time>2016-10-02T04:43:36+02:00</time>
      </trkpt>
      <trkpt lat="46.00946" lon="6.28315">
        <ele>859</ele>
        <time>2016-10-02T04:43:38+02:00</time>
      </trkpt>
      <trkpt lat="46.00945" lon="6.28317">
        <ele>860</ele>
        <time>2016-10-02T04:43:40+02:00</time>
      </trkpt>
      <trkpt lat="46.00944" lon="6.28319">
        <ele>860</ele>
        <time>2016-10-02T04:43:41+02:00</time>
      </trkpt>
      <trkpt lat="46.00942" lon="6.2832">
        <ele>861</ele>
        <time>2016-10-02T04:43:43+02:00</time>
      </trkpt>
      <trkpt lat="46.0094" lon="6.28322">
        <ele>861</ele>
        <time>2016-10-02T04:43:45+02:00</time>
      </trkpt>
      <trkpt lat="46.00938" lon="6.28323">
        <ele>862</ele>
        <time>2016-10-02T04:43:47+02:00</time>
      </trkpt>
      <trkpt lat="46.00936" lon="6.28324">
        <ele>862</ele>
        <time>2016-10-02T04:43:48+02:00</time>
      </trkpt>
      <trkpt lat="46.00934" lon="6.28325">
        <ele>862</ele>
        <time>2016-10-02T04:43:50+02:00</time>
      </trkpt>
      <trkpt lat="46.00933" lon="6.28327">
        <ele>863</ele>
        <time>2016-10-02T04:43:52+02:00</time>
      </trkpt>
      <trkpt lat="46.00931" lon="6.28328">
        <ele>863</ele>
        <time>2016-10-02T04:43:53+02:00</time>
      </trkpt>
      <trkpt lat="46.00929" lon="6.2833">
        <ele>864</ele>
        <time>2016-10-02T04:43:55+02:00</time>
      </trkpt>
      <trkpt lat="46.00928" lon="6.28332">
        <ele>864</ele>
        <time>2016-10-02T04:43:57+02:00</time>
      </trkpt>
      <trkpt lat="46.00926" lon="6.28333">
        <ele>865</ele>
        <time>2016-10-02T04:43:59+02:00</time>
      </trkpt>
      <trkpt lat="46.00924" lon="6.28335">
        <ele>865</ele>
        <time>2016-10-02T04:44:00+02:00</time>
      </trkpt>
      <trkpt lat="46.00922" lon="6.28336">
        <ele>866</ele>
        <time>2016-10-02T04:44:02+02:00</time>
      </trkpt>
      <trkpt lat="46.00921" lon="6.28337">
        <ele>866</ele>
        <time>2016-10-02T04:44:03+02:00</time>
      </trkpt>
      <trkpt lat="46.00919" lon="6.28338">
        <ele>866</ele>
        <time>2016-10-02T04:44:05+02:00</time>
      </trkpt>
      <trkpt lat="46.00918" lon="6.28339">
        <ele>867</ele>
        <time>2016-10-02T04:44:06+02:00</time>
      </trkpt>
      <trkpt lat="46.00916" lon="6.2834">
        <ele>867</ele>
        <time>2016-10-02T04:44:08+02:00</time>
      </trkpt>
      <trkpt lat="46.00915" lon="6.28341">
        <ele>867</ele>
        <time>2016-10-02T04:44:09+02:00</time>
      </trkpt>
      <trkpt lat="46.00913" lon="6.28343">
        <ele>868</ele>
        <time>2016-10-02T04:44:11+02:00</time>
      </trkpt>
      <trkpt lat="46.00912" lon="6.28344">
        <ele>868</ele>
        <time>2016-10-02T04:44:12+02:00</time>
      </trkpt>
      <trkpt lat="46.0091" lon="6.28345">
        <ele>869</ele>
        <time>2016-10-02T04:44:14+02:00</time>
      </trkpt>
      <trkpt lat="46.00908" lon="6.28347">
        <ele>869</ele>
        <time>2016-10-02T04:44:15+02:00</time>
      </trkpt>
      <trkpt lat="46.00907" lon="6.28348">
        <ele>870</ele>
        <time>2016-10-02T04:44:17+02:00</time>
      </trkpt>
      <trkpt lat="46.00905" lon="6.2835">
        <ele>870</ele>
        <time>2016-10-02T04:44:18+02:00</time>
      </trkpt>
      <trkpt lat="46.00904" lon="6.28351">
        <ele>870</ele>
        <time>2016-10-02T04:44:20+02:00</time>
      </trkpt>
      <trkpt lat="46.00903" lon="6.28353">
        <ele>871</ele>
        <time>2016-10-02T04:44:21+02:00</time>
      </trkpt>
      <trkpt lat="46.00902" lon="6.28354">
        <ele>871</ele>
        <time>2016-10-02T04:44:22+02:00</time>
      </trkpt>
      <trkpt lat="46.00901" lon="6.28357">
        <ele>872</ele>
        <time>2016-10-02T04:44:24+02:00</time>
      </trkpt>
      <trkpt lat="46.009" lon="6.28359">
        <ele>872</ele>
        <time>2016-10-02T04:44:26+02:00</time>
      </trkpt>
      <trkpt lat="46.00898" lon="6.28361">
        <ele>873</ele>
        <time>2016-10-02T04:44:27+02:00</time>
      </trkpt>
      <trkpt lat="46.00897" lon="6.28363">
        <ele>873</ele>
        <time>2016-10-02T04:44:28+02:00</time>
      </trkpt>
      <trkpt lat="46.00897" lon="6.28365">
        <ele>873</ele>
        <time>2016-10-02T04:44:30+02:00</time>
      </trkpt>
      <trkpt lat="46.00896" lon="6.28367">
        <ele>874</ele>
        <time>2016-10-02T04:44:31+02:00</time>
      </trkpt>
      <trkpt lat="46.00896" lon="6.28369">
        <ele>874</ele>
        <time>2016-10-02T04:44:32+02:00</time>
      </trkpt>
      <trkpt lat="46.00895" lon="6.28371">
        <ele>875</ele>
        <time>2016-10-02T04:44:34+02:00</time>
      </trkpt>
      <trkpt lat="46.00894" lon="6.28374">
        <ele>875</ele>
        <time>2016-10-02T04:44:36+02:00</time>
      </trkpt>
      <trkpt lat="46.00893" lon="6.28377">
        <ele>876</ele>
        <time>2016-10-02T04:44:38+02:00</time>
      </trkpt>
      <trkpt lat="46.00892" lon="6.2838">
        <ele>876</ele>
        <time>2016-10-02T04:44:39+02:00</time>
      </trkpt>
      <trkpt lat="46.0089" lon="6.28382">
        <ele>877</ele>
        <time>2016-10-02T04:44:41+02:00</time>
      </trkpt>
      <trkpt lat="46.00889" lon="6.28385">
        <ele>877</ele>
        <time>2016-10-02T04:44:43+02:00</time>
      </trkpt>
      <trkpt lat="46.00887" lon="6.28387">
        <ele>878</ele>
        <time>2016-10-02T04:44:45+02:00</time>
      </trkpt>
      <trkpt lat="46.00887" lon="6.28389">
        <ele>878</ele>
        <time>2016-10-02T04:44:46+02:00</time>
      </trkpt>
      <trkpt lat="46.00886" lon="6.28392">
        <ele>878</ele>
        <time>2016-10-02T04:44:48+02:00</time>
      </trkpt>
      <trkpt lat="46.00886" lon="6.28396">
        <ele>879</ele>
        <time>2016-10-02T04:44:50+02:00</time>
      </trkpt>
      <trkpt lat="46.00885" lon="6.28399">
        <ele>879</ele>
        <time>2016-10-02T04:44:52+02:00</time>
      </trkpt>
      <trkpt lat="46.00885" lon="6.28401">
        <ele>880</ele>
        <time>2016-10-02T04:44:54+02:00</time>
      </trkpt>
      <trkpt lat="46.00884" lon="6.28404">
        <ele>880</ele>
        <time>2016-10-02T04:44:56+02:00</time>
      </trkpt>
      <trkpt lat="46.00884" lon="6.28407">
        <ele>880</ele>
        <time>2016-10-02T04:44:57+02:00</time>
      </trkpt>
      <trkpt lat="46.00884" lon="6.2841">
        <ele>881</ele>
        <time>2016-10-02T04:44:59+02:00</time>
      </trkpt>
      <trkpt lat="46.00883" lon="6.28412">
        <ele>881</ele>
        <time>2016-10-02T04:45:00+02:00</time>
      </trkpt>
      <trkpt lat="46.00883" lon="6.28415">
        <ele>882</ele>
        <time>2016-10-02T04:45:02+02:00</time>
      </trkpt>
      <trkpt lat="46.00882" lon="6.28417">
        <ele>882</ele>
        <time>2016-10-02T04:45:03+02:00</time>
      </trkpt>
      <trkpt lat="46.00881" lon="6.28419">
        <ele>882</ele>
        <time>2016-10-02T04:45:05+02:00</time>
      </trkpt>
      <trkpt lat="46.00879" lon="6.28421">
        <ele>883</ele>
        <time>2016-10-02T04:45:06+02:00</time>
      </trkpt>
      <trkpt lat="46.00877" lon="6.28422">
        <ele>883</ele>
        <time>2016-10-02T04:45:08+02:00</time>
      </trkpt>
      <trkpt lat="46.00876" lon="6.28423">
        <ele>883</ele>
        <time>2016-10-02T04:45:10+02:00</time>
      </trkpt>
      <trkpt lat="46.00874" lon="6.28423">
        <ele>884</ele>
        <time>2016-10-02T04:45:11+02:00</time>
      </trkpt>
      <trkpt lat="46.00872" lon="6.28424">
        <ele>884</ele>
        <time>2016-10-02T04:45:13+02:00</time>
      </trkpt>
      <trkpt lat="46.00871" lon="6.28424">
        <ele>885</ele>
        <time>2016-10-02T04:45:14+02:00</time>
      </trkpt>
      <trkpt lat="46.00869" lon="6.28425">
        <ele>885</ele>
        <time>2016-10-02T04:45:16+02:00</time>
      </trkpt>
      <trkpt lat="46.00867" lon="6.28426">
        <ele>885</ele>
        <time>2016-10-02T04:45:17+02:00</time>
      </trkpt>
      <trkpt lat="46.00866" lon="6.28427">
        <ele>886</ele>
        <time>2016-10-02T04:45:19+02:00</time>
      </trkpt>
      <trkpt lat="46.00864" lon="6.28429">
        <ele>886</ele>
        <time>2016-10-02T04:45:21+02:00</time>
      </trkpt>
      <trkpt lat="46.00862" lon="6.2843">
        <ele>887</ele>
        <time>2016-10-02T04:45:22+02:00</time>
      </trkpt>
      <trkpt lat="46.0086" lon="6.28431">
        <ele>887</ele>
        <time>2016-10-02T04:45:24+02:00</time>
      </trkpt>
      <trkpt lat="46.00858" lon="6.28432">
        <ele>887</ele>
        <time>2016-10-02T04:45:26+02:00</time>
      </trkpt>
      <trkpt lat="46.00856" lon="6.28433">
        <ele>888</ele>
        <time>2016-10-02T04:45:27+02:00</time>
      </trkpt>
      <trkpt lat="46.00855" lon="6.28435">
        <ele>888</ele>
        <time>2016-10-02T04:45:29+02:00</time>
      </trkpt>
      <trkpt lat="46.00853" lon="6.28435">
        <ele>889</ele>
        <time>2016-10-02T04:45:30+02:00</time>
      </trkpt>
      <trkpt lat="46.00851" lon="6.28435">
        <ele>889</ele>
        <time>2016-10-02T04:45:32+02:00</time>
      </trkpt>
      <trkpt lat="46.0085" lon="6.28435">
        <ele>889</ele>
        <time>2016-10-02T04:45:33+02:00</time>
      </trkpt>
      <trkpt lat="46.00848" lon="6.28436">
        <ele>890</ele>
        <time>2016-10-02T04:45:35+02:00</time>
      </trkpt>
      <trkpt lat="46.00846" lon="6.28437">
        <ele>890</ele>
        <time>2016-10-02T04:45:36+02:00</time>
      </trkpt>
      <trkpt lat="46.00845" lon="6.28437">
        <ele>890</ele>
        <time>2016-10-02T04:45:38+02:00</time>
      </trkpt>
      <trkpt lat="46.00843" lon="6.28438">
        <ele>891</ele>
        <time>2016-10-02T04:45:39+02:00</time>
      </trkpt>
      <trkpt lat="46.00841" lon="6.28439">
        <ele>891</ele>
        <time>2016-10-02T04:45:41+02:00</time>
      </trkpt>
      <trkpt lat="46.00839" lon="6.2844">
        <ele>891</ele>
        <time>2016-10-02T04:45:42+02:00</time>
      </trkpt>
      <trkpt lat="46.00837" lon="6.28441">
        <ele>892</ele>
        <time>2016-10-02T04:45:44+02:00</time>
      </trkpt>
      <trkpt lat="46.00836" lon="6.28443">
        <ele>892</ele>
        <time>2016-10-02T04:45:46+02:00</time>
      </trkpt>
      <trkpt lat="46.00834" lon="6.28443">
        <ele>893</ele>
        <time>2016-10-02T04:45:48+02:00</time>
      </trkpt>
      <trkpt lat="46.00831" lon="6.28444">
        <ele>894</ele>
        <time>2016-10-02T04:45:50+02:00</time>
      </trkpt>
      <trkpt lat="46.00829" lon="6.28445">
        <ele>895</ele>
        <time>2016-10-02T04:45:52+02:00</time>
      </trkpt>
      <trkpt lat="46.00827" lon="6.28447">
        <ele>896</ele>
        <time>2016-10-02T04:45:54+02:00</time>
      </trkpt>
      <trkpt lat="46.00825" lon="6.28448">
        <ele>897</ele>
        <time>2016-10-02T04:45:56+02:00</time>
      </trkpt>
      <trkpt lat="46.00823" lon="6.2845">
        <ele>898</ele>
        <time>2016-10-02T04:45:58+02:00</time>
      </trkpt>
      <trkpt lat="46.00821" lon="6.28452">
        <ele>898</ele>
        <time>2016-10-02T04:46:00+02:00</time>
      </trkpt>
      <trkpt lat="46.0082" lon="6.28453">
        <ele>899</ele>
        <time>2016-10-02T04:46:01+02:00</time>
      </trkpt>
      <trkpt lat="46.00818" lon="6.28454">
        <ele>900</ele>
        <time>2016-10-02T04:46:03+02:00</time>
      </trkpt>
      <trkpt lat="46.00816" lon="6.28456">
        <ele>901</ele>
        <time>2016-10-02T04:46:05+02:00</time>
      </trkpt>
      <trkpt lat="46.00814" lon="6.28457">
        <ele>902</ele>
        <time>2016-10-02T04:46:07+02:00</time>
      </trkpt>
      <trkpt lat="46.00813" lon="6.28459">
        <ele>902</ele>
        <time>2016-10-02T04:46:08+02:00</time>
      </trkpt>
      <trkpt lat="46.00811" lon="6.2846">
        <ele>903</ele>
        <time>2016-10-02T04:46:10+02:00</time>
      </trkpt>
      <trkpt lat="46.0081" lon="6.28461">
        <ele>904</ele>
        <time>2016-10-02T04:46:11+02:00</time>
      </trkpt>
      <trkpt lat="46.00808" lon="6.28462">
        <ele>905</ele>
        <time>2016-10-02T04:46:13+02:00</time>
      </trkpt>
      <trkpt lat="46.00806" lon="6.28462">
        <ele>906</ele>
        <time>2016-10-02T04:46:14+02:00</time>
      </trkpt>
      <trkpt lat="46.00804" lon="6.28463">
        <ele>906</ele>
        <time>2016-10-02T04:46:16+02:00</time>
      </trkpt>
      <trkpt lat="46.00802" lon="6.28464">
        <ele>907</ele>
        <time>2016-10-02T04:46:18+02:00</time>
      </trkpt>
      <trkpt lat="46.00801" lon="6.28465">
        <ele>908</ele>
        <time>2016-10-02T04:46:19+02:00</time>
      </trkpt>
      <trkpt lat="46.00799" lon="6.28466">
        <ele>909</ele>
        <time>2016-10-02T04:46:21+02:00</time>
      </trkpt>
      <trkpt lat="46.00798" lon="6.28468">
        <ele>910</ele>
        <time>2016-10-02T04:46:22+02:00</time>
      </trkpt>
      <trkpt lat="46.00797" lon="6.28469">
        <ele>910</ele>
        <time>2016-10-02T04:46:24+02:00</time>
      </trkpt>
      <trkpt lat="46.00795" lon="6.2847">
        <ele>911</ele>
        <time>2016-10-02T04:46:25+02:00</time>
      </trkpt>
      <trkpt lat="46.00794" lon="6.28472">
        <ele>912</ele>
        <time>2016-10-02T04:46:27+02:00</time>
      </trkpt>
      <trkpt lat="46.00793" lon="6.28474">
        <ele>913</ele>
        <time>2016-10-02T04:46:28+02:00</time>
      </trkpt>
      <trkpt lat="46.0079" lon="6.28476">
        <ele>914</ele>
        <time>2016-10-02T04:46:31+02:00</time>
      </trkpt>
      <trkpt lat="46.00788" lon="6.28477">
        <ele>915</ele>
        <time>2016-10-02T04:46:33+02:00</time>
      </trkpt>
      <trkpt lat="46.00786" lon="6.28478">
        <ele>916</ele>
        <time>2016-10-02T04:46:34+02:00</time>
      </trkpt>
      <trkpt lat="46.00784" lon="6.28479">
        <ele>917</ele>
        <time>2016-10-02T04:46:36+02:00</time>
      </trkpt>
      <trkpt lat="46.00782" lon="6.2848">
        <ele>918</ele>
        <time>2016-10-02T04:46:38+02:00</time>
      </trkpt>
      <trkpt lat="46.0078" lon="6.2848">
        <ele>919</ele>
        <time>2016-10-02T04:46:39+02:00</time>
      </trkpt>
      <trkpt lat="46.00779" lon="6.28481">
        <ele>919</ele>
        <time>2016-10-02T04:46:41+02:00</time>
      </trkpt>
      <trkpt lat="46.00777" lon="6.28481">
        <ele>920</ele>
        <time>2016-10-02T04:46:42+02:00</time>
      </trkpt>
      <trkpt lat="46.00775" lon="6.28482">
        <ele>921</ele>
        <time>2016-10-02T04:46:43+02:00</time>
      </trkpt>
      <trkpt lat="46.00774" lon="6.28482">
        <ele>922</ele>
        <time>2016-10-02T04:46:45+02:00</time>
      </trkpt>
      <trkpt lat="46.00772" lon="6.28482">
        <ele>922</ele>
        <time>2016-10-02T04:46:46+02:00</time>
      </trkpt>
      <trkpt lat="46.0077" lon="6.28482">
        <ele>923</ele>
        <time>2016-10-02T04:46:48+02:00</time>
      </trkpt>
      <trkpt lat="46.00768" lon="6.28483">
        <ele>924</ele>
        <time>2016-10-02T04:46:50+02:00</time>
      </trkpt>
      <trkpt lat="46.00766" lon="6.28483">
        <ele>925</ele>
        <time>2016-10-02T04:46:51+02:00</time>
      </trkpt>
      <trkpt lat="46.00764" lon="6.28483">
        <ele>926</ele>
        <time>2016-10-02T04:46:53+02:00</time>
      </trkpt>
      <trkpt lat="46.00762" lon="6.28482">
        <ele>927</ele>
        <time>2016-10-02T04:46:55+02:00</time>
      </trkpt>
      <trkpt lat="46.0076" lon="6.28482">
        <ele>927</ele>
        <time>2016-10-02T04:46:56+02:00</time>
      </trkpt>
      <trkpt lat="46.00758" lon="6.28483">
        <ele>928</ele>
        <time>2016-10-02T04:46:58+02:00</time>
      </trkpt>
      <trkpt lat="46.00756" lon="6.28483">
        <ele>929</ele>
        <time>2016-10-02T04:47:00+02:00</time>
      </trkpt>
      <trkpt lat="46.00754" lon="6.28483">
        <ele>930</ele>
        <time>2016-10-02T04:47:01+02:00</time>
      </trkpt>
      <trkpt lat="46.00752" lon="6.28482">
        <ele>931</ele>
        <time>2016-10-02T04:47:03+02:00</time>
      </trkpt>
      <trkpt lat="46.00751" lon="6.28481">
        <ele>931</ele>
        <time>2016-10-02T04:47:04+02:00</time>
      </trkpt>
      <trkpt lat="46.00749" lon="6.28481">
        <ele>932</ele>
        <time>2016-10-02T04:47:06+02:00</time>
      </trkpt>
      <trkpt lat="46.00747" lon="6.28481">
        <ele>933</ele>
        <time>2016-10-02T04:47:08+02:00</time>
      </trkpt>
      <trkpt lat="46.00744" lon="6.28481">
        <ele>933</ele>
        <time>2016-10-02T04:47:10+02:00</time>
      </trkpt>
      <trkpt lat="46.00742" lon="6.28481">
        <ele>934</ele>
        <time>2016-10-02T04:47:12+02:00</time>
      </trkpt>
      <trkpt lat="46.00739" lon="6.2848">
        <ele>935</ele>
        <time>2016-10-02T04:47:14+02:00</time>
      </trkpt>
      <trkpt lat="46.00737" lon="6.28479">
        <ele>935</ele>
        <time>2016-10-02T04:47:16+02:00</time>
      </trkpt>
      <trkpt lat="46.00735" lon="6.28478">
        <ele>936</ele>
        <time>2016-10-02T04:47:17+02:00</time>
      </trkpt>
      <trkpt lat="46.00734" lon="6.28478">
        <ele>936</ele>
        <time>2016-10-02T04:47:19+02:00</time>
      </trkpt>
      <trkpt lat="46.00732" lon="6.28478">
        <ele>937</ele>
        <time>2016-10-02T04:47:20+02:00</time>
      </trkpt>
      <trkpt lat="46.00731" lon="6.28478">
        <ele>937</ele>
        <time>2016-10-02T04:47:21+02:00</time>
      </trkpt>
      <trkpt lat="46.00729" lon="6.28477">
        <ele>938</ele>
        <time>2016-10-02T04:47:23+02:00</time>
      </trkpt>
      <trkpt lat="46.00728" lon="6.28477">
        <ele>938</ele>
        <time>2016-10-02T04:47:24+02:00</time>
      </trkpt>
      <trkpt lat="46.00726" lon="6.28476">
        <ele>939</ele>
        <time>2016-10-02T04:47:25+02:00</time>
      </trkpt>
      <trkpt lat="46.00725" lon="6.28475">
        <ele>939</ele>
        <time>2016-10-02T04:47:27+02:00</time>
      </trkpt>
      <trkpt lat="46.00723" lon="6.28474">
        <ele>940</ele>
        <time>2016-10-02T04:47:28+02:00</time>
      </trkpt>
      <trkpt lat="46.00721" lon="6.28474">
        <ele>940</ele>
        <time>2016-10-02T04:47:30+02:00</time>
      </trkpt>
      <trkpt lat="46.00719" lon="6.28474">
        <ele>941</ele>
        <time>2016-10-02T04:47:31+02:00</time>
      </trkpt>
      <trkpt lat="46.00717" lon="6.28473">
        <ele>941</ele>
        <time>2016-10-02T04:47:33+02:00</time>
      </trkpt>
      <trkpt lat="46.00716" lon="6.28473">
        <ele>942</ele>
        <time>2016-10-02T04:47:35+02:00</time>
      </trkpt>
      <trkpt lat="46.00714" lon="6.28473">
        <ele>942</ele>
        <time>2016-10-02T04:47:36+02:00</time>
      </trkpt>
      <trkpt lat="46.00712" lon="6.28472">
        <ele>943</ele>
        <time>2016-10-02T04:47:38+02:00</time>
      </trkpt>
      <trkpt lat="46.0071" lon="6.28472">
        <ele>944</ele>
        <time>2016-10-02T04:47:40+02:00</time>
      </trkpt>
      <trkpt lat="46.00708" lon="6.2847">
        <ele>944</ele>
        <time>2016-10-02T04:47:41+02:00</time>
      </trkpt>
      <trkpt lat="46.00706" lon="6.2847">
        <ele>944</ele>
        <time>2016-10-02T04:47:42+02:00</time>
      </trkpt>
      <trkpt lat="46.00705" lon="6.28468">
        <ele>945</ele>
        <time>2016-10-02T04:47:44+02:00</time>
      </trkpt>
      <trkpt lat="46.00703" lon="6.28467">
        <ele>945</ele>
        <time>2016-10-02T04:47:45+02:00</time>
      </trkpt>
      <trkpt lat="46.00702" lon="6.28466">
        <ele>946</ele>
        <time>2016-10-02T04:47:47+02:00</time>
      </trkpt>
      <trkpt lat="46.007" lon="6.28466">
        <ele>946</ele>
        <time>2016-10-02T04:47:48+02:00</time>
      </trkpt>
      <trkpt lat="46.00698" lon="6.28466">
        <ele>947</ele>
        <time>2016-10-02T04:47:49+02:00</time>
      </trkpt>
      <trkpt lat="46.00696" lon="6.28466">
        <ele>947</ele>
        <time>2016-10-02T04:47:51+02:00</time>
      </trkpt>
      <trkpt lat="46.00695" lon="6.28467">
        <ele>948</ele>
        <time>2016-10-02T04:47:52+02:00</time>
      </trkpt>
      <trkpt lat="46.00693" lon="6.28469">
        <ele>949</ele>
        <time>2016-10-02T04:47:54+02:00</time>
      </trkpt>
      <trkpt lat="46.00692" lon="6.2847">
        <ele>950</ele>
        <time>2016-10-02T04:47:56+02:00</time>
      </trkpt>
      <trkpt lat="46.00692" lon="6.28472">
        <ele>950</ele>
        <time>2016-10-02T04:47:57+02:00</time>
      </trkpt>
      <trkpt lat="46.00691" lon="6.28474">
        <ele>950</ele>
        <time>2016-10-02T04:47:58+02:00</time>
      </trkpt>
      <trkpt lat="46.00691" lon="6.28476">
        <ele>951</ele>
        <time>2016-10-02T04:48:00+02:00</time>
      </trkpt>
      <trkpt lat="46.0069" lon="6.28478">
        <ele>951</ele>
        <time>2016-10-02T04:48:01+02:00</time>
      </trkpt>
      <trkpt lat="46.00689" lon="6.2848">
        <ele>952</ele>
        <time>2016-10-02T04:48:02+02:00</time>
      </trkpt>
      <trkpt lat="46.00688" lon="6.28482">
        <ele>953</ele>
        <time>2016-10-02T04:48:04+02:00</time>
      </trkpt>
      <trkpt lat="46.00688" lon="6.28484">
        <ele>953</ele>
        <time>2016-10-02T04:48:05+02:00</time>
      </trkpt>
      <trkpt lat="46.00687" lon="6.28487">
        <ele>953</ele>
        <time>2016-10-02T04:48:06+02:00</time>
      </trkpt>
      <trkpt lat="46.00687" lon="6.28489">
        <ele>954</ele>
        <time>2016-10-02T04:48:08+02:00</time>
      </trkpt>
      <trkpt lat="46.00686" lon="6.28491">
        <ele>955</ele>
        <time>2016-10-02T04:48:09+02:00</time>
      </trkpt>
      <trkpt lat="46.00685" lon="6.28492">
        <ele>955</ele>
        <time>2016-10-02T04:48:11+02:00</time>
      </trkpt>
      <trkpt lat="46.00683" lon="6.28494">
        <ele>956</ele>
        <time>2016-10-02T04:48:12+02:00</time>
      </trkpt>
      <trkpt lat="46.00683" lon="6.28496">
        <ele>956</ele>
        <time>2016-10-02T04:48:13+02:00</time>
      </trkpt>
      <trkpt lat="46.00682" lon="6.28498">
        <ele>957</ele>
        <time>2016-10-02T04:48:15+02:00</time>
      </trkpt>
      <trkpt lat="46.00681" lon="6.285">
        <ele>957</ele>
        <time>2016-10-02T04:48:16+02:00</time>
      </trkpt>
      <trkpt lat="46.00679" lon="6.28501">
        <ele>958</ele>
        <time>2016-10-02T04:48:18+02:00</time>
      </trkpt>
      <trkpt lat="46.00678" lon="6.28504">
        <ele>959</ele>
        <time>2016-10-02T04:48:19+02:00</time>
      </trkpt>
      <trkpt lat="46.00677" lon="6.28506">
        <ele>959</ele>
        <time>2016-10-02T04:48:21+02:00</time>
      </trkpt>
      <trkpt lat="46.00676" lon="6.28508">
        <ele>960</ele>
        <time>2016-10-02T04:48:23+02:00</time>
      </trkpt>
      <trkpt lat="46.00675" lon="6.28509">
        <ele>960</ele>
        <time>2016-10-02T04:48:24+02:00</time>
      </trkpt>
      <trkpt lat="46.00674" lon="6.28511">
        <ele>961</ele>
        <time>2016-10-02T04:48:25+02:00</time>
      </trkpt>
      <trkpt lat="46.00672" lon="6.28512">
        <ele>961</ele>
        <time>2016-10-02T04:48:27+02:00</time>
      </trkpt>
      <trkpt lat="46.00671" lon="6.28513">
        <ele>962</ele>
        <time>2016-10-02T04:48:28+02:00</time>
      </trkpt>
      <trkpt lat="46.00669" lon="6.28515">
        <ele>963</ele>
        <time>2016-10-02T04:48:30+02:00</time>
      </trkpt>
      <trkpt lat="46.00668" lon="6.28516">
        <ele>963</ele>
        <time>2016-10-02T04:48:32+02:00</time>
      </trkpt>
      <trkpt lat="46.00666" lon="6.28518">
        <ele>964</ele>
        <time>2016-10-02T04:48:33+02:00</time>
      </trkpt>
      <trkpt lat="46.00665" lon="6.28519">
        <ele>964</ele>
        <time>2016-10-02T04:48:34+02:00</time>
      </trkpt>
      <trkpt lat="46.00664" lon="6.28521">
        <ele>965</ele>
        <time>2016-10-02T04:48:36+02:00</time>
      </trkpt>
      <trkpt lat="46.00663" lon="6.28523">
        <ele>965</ele>
        <time>2016-10-02T04:48:37+02:00</time>
      </trkpt>
      <trkpt lat="46.00662" lon="6.28524">
        <ele>966</ele>
        <time>2016-10-02T04:48:39+02:00</time>
      </trkpt>
      <trkpt lat="46.0066" lon="6.28525">
        <ele>966</ele>
        <time>2016-10-02T04:48:40+02:00</time>
      </trkpt>
      <trkpt lat="46.00659" lon="6.28526">
        <ele>967</ele>
        <time>2016-10-02T04:48:42+02:00</time>
      </trkpt>
      <trkpt lat="46.00657" lon="6.28527">
        <ele>967</ele>
        <time>2016-10-02T04:48:43+02:00</time>
      </trkpt>
      <trkpt lat="46.00656" lon="6.28529">
        <ele>968</ele>
        <time>2016-10-02T04:48:44+02:00</time>
      </trkpt>
      <trkpt lat="46.00655" lon="6.2853">
        <ele>968</ele>
        <time>2016-10-02T04:48:46+02:00</time>
      </trkpt>
      <trkpt lat="46.00653" lon="6.28531">
        <ele>969</ele>
        <time>2016-10-02T04:48:47+02:00</time>
      </trkpt>
      <trkpt lat="46.00652" lon="6.28532">
        <ele>969</ele>
        <time>2016-10-02T04:48:49+02:00</time>
      </trkpt>
      <trkpt lat="46.00651" lon="6.28534">
        <ele>970</ele>
        <time>2016-10-02T04:48:50+02:00</time>
      </trkpt>
      <trkpt lat="46.0065" lon="6.28535">
        <ele>970</ele>
        <time>2016-10-02T04:48:51+02:00</time>
      </trkpt>
      <trkpt lat="46.00648" lon="6.28536">
        <ele>971</ele>
        <time>2016-10-02T04:48:53+02:00</time>
      </trkpt>
      <trkpt lat="46.00647" lon="6.28537">
        <ele>971</ele>
        <time>2016-10-02T04:48:55+02:00</time>
      </trkpt>
      <trkpt lat="46.00645" lon="6.28537">
        <ele>972</ele>
        <time>2016-10-02T04:48:56+02:00</time>
      </trkpt>
      <trkpt lat="46.00644" lon="6.28537">
        <ele>972</ele>
        <time>2016-10-02T04:48:57+02:00</time>
      </trkpt>
      <trkpt lat="46.00642" lon="6.28538">
        <ele>973</ele>
        <time>2016-10-02T04:48:59+02:00</time>
      </trkpt>
      <trkpt lat="46.0064" lon="6.28539">
        <ele>974</ele>
        <time>2016-10-02T04:49:01+02:00</time>
      </trkpt>
      <trkpt lat="46.00638" lon="6.28539">
        <ele>974</ele>
        <time>2016-10-02T04:49:02+02:00</time>
      </trkpt>
      <trkpt lat="46.00637" lon="6.2854">
        <ele>975</ele>
        <time>2016-10-02T04:49:03+02:00</time>
      </trkpt>
      <trkpt lat="46.00636" lon="6.28542">
        <ele>975</ele>
        <time>2016-10-02T04:49:05+02:00</time>
      </trkpt>
      <trkpt lat="46.00634" lon="6.28543">
        <ele>976</ele>
        <time>2016-10-02T04:49:07+02:00</time>
      </trkpt>
      <trkpt lat="46.00633" lon="6.28545">
        <ele>976</ele>
        <time>2016-10-02T04:49:08+02:00</time>
      </trkpt>
      <trkpt lat="46.00632" lon="6.28546">
        <ele>977</ele>
        <time>2016-10-02T04:49:09+02:00</time>
      </trkpt>
      <trkpt lat="46.00631" lon="6.28548">
        <ele>978</ele>
        <time>2016-10-02T04:49:11+02:00</time>
      </trkpt>
      <trkpt lat="46.00629" lon="6.28549">
        <ele>978</ele>
        <time>2016-10-02T04:49:13+02:00</time>
      </trkpt>
      <trkpt lat="46.00628" lon="6.2855">
        <ele>979</ele>
        <time>2016-10-02T04:49:14+02:00</time>
      </trkpt>
      <trkpt lat="46.00626" lon="6.2855">
        <ele>979</ele>
        <time>2016-10-02T04:49:16+02:00</time>
      </trkpt>
      <trkpt lat="46.00624" lon="6.28551">
        <ele>980</ele>
        <time>2016-10-02T04:49:17+02:00</time>
      </trkpt>
      <trkpt lat="46.00622" lon="6.28552">
        <ele>980</ele>
        <time>2016-10-02T04:49:19+02:00</time>
      </trkpt>
      <trkpt lat="46.0062" lon="6.28552">
        <ele>981</ele>
        <time>2016-10-02T04:49:20+02:00</time>
      </trkpt>
      <trkpt lat="46.00618" lon="6.28552">
        <ele>982</ele>
        <time>2016-10-02T04:49:22+02:00</time>
      </trkpt>
      <trkpt lat="46.00617" lon="6.28553">
        <ele>982</ele>
        <time>2016-10-02T04:49:24+02:00</time>
      </trkpt>
      <trkpt lat="46.00615" lon="6.28554">
        <ele>983</ele>
        <time>2016-10-02T04:49:25+02:00</time>
      </trkpt>
      <trkpt lat="46.00613" lon="6.28555">
        <ele>984</ele>
        <time>2016-10-02T04:49:27+02:00</time>
      </trkpt>
      <trkpt lat="46.00612" lon="6.28556">
        <ele>984</ele>
        <time>2016-10-02T04:49:29+02:00</time>
      </trkpt>
      <trkpt lat="46.0061" lon="6.28557">
        <ele>985</ele>
        <time>2016-10-02T04:49:30+02:00</time>
      </trkpt>
      <trkpt lat="46.00608" lon="6.28558">
        <ele>985</ele>
        <time>2016-10-02T04:49:32+02:00</time>
      </trkpt>
      <trkpt lat="46.00607" lon="6.2856">
        <ele>986</ele>
        <time>2016-10-02T04:49:34+02:00</time>
      </trkpt>
      <trkpt lat="46.00605" lon="6.28561">
        <ele>987</ele>
        <time>2016-10-02T04:49:36+02:00</time>
      </trkpt>
      <trkpt lat="46.00604" lon="6.28562">
        <ele>987</ele>
        <time>2016-10-02T04:49:37+02:00</time>
      </trkpt>
      <trkpt lat="46.00602" lon="6.28564">
        <ele>988</ele>
        <time>2016-10-02T04:49:39+02:00</time>
      </trkpt>
      <trkpt lat="46.006" lon="6.28564">
        <ele>989</ele>
        <time>2016-10-02T04:49:40+02:00</time>
      </trkpt>
      <trkpt lat="46.00599" lon="6.28565">
        <ele>989</ele>
        <time>2016-10-02T04:49:41+02:00</time>
      </trkpt>
      <trkpt lat="46.00597" lon="6.28566">
        <ele>990</ele>
        <time>2016-10-02T04:49:43+02:00</time>
      </trkpt>
      <trkpt lat="46.00595" lon="6.28567">
        <ele>990</ele>
        <time>2016-10-02T04:49:45+02:00</time>
      </trkpt>
      <trkpt lat="46.00593" lon="6.28567">
        <ele>991</ele>
        <time>2016-10-02T04:49:46+02:00</time>
      </trkpt>
      <trkpt lat="46.00591" lon="6.28567">
        <ele>992</ele>
        <time>2016-10-02T04:49:49+02:00</time>
      </trkpt>
      <trkpt lat="46.00588" lon="6.28567">
        <ele>992</ele>
        <time>2016-10-02T04:49:51+02:00</time>
      </trkpt>
      <trkpt lat="46.00586" lon="6.28567">
        <ele>993</ele>
        <time>2016-10-02T04:49:52+02:00</time>
      </trkpt>
      <trkpt lat="46.00584" lon="6.28567">
        <ele>994</ele>
        <time>2016-10-02T04:49:54+02:00</time>
      </trkpt>
      <trkpt lat="46.00582" lon="6.28567">
        <ele>994</ele>
        <time>2016-10-02T04:49:56+02:00</time>
      </trkpt>
      <trkpt lat="46.0058" lon="6.28567">
        <ele>995</ele>
        <time>2016-10-02T04:49:57+02:00</time>
      </trkpt>
      <trkpt lat="46.00578" lon="6.28567">
        <ele>996</ele>
        <time>2016-10-02T04:49:59+02:00</time>
      </trkpt>
      <trkpt lat="46.00577" lon="6.28566">
        <ele>996</ele>
        <time>2016-10-02T04:50:01+02:00</time>
      </trkpt>
      <trkpt lat="46.00575" lon="6.28565">
        <ele>997</ele>
        <time>2016-10-02T04:50:02+02:00</time>
      </trkpt>
      <trkpt lat="46.00574" lon="6.28564">
        <ele>997</ele>
        <time>2016-10-02T04:50:03+02:00</time>
      </trkpt>
      <trkpt lat="46.00572" lon="6.28563">
        <ele>997</ele>
        <time>2016-10-02T04:50:05+02:00</time>
      </trkpt>
      <trkpt lat="46.00569" lon="6.28563">
        <ele>998</ele>
        <time>2016-10-02T04:50:07+02:00</time>
      </trkpt>
      <trkpt lat="46.00567" lon="6.28562">
        <ele>999</ele>
        <time>2016-10-02T04:50:09+02:00</time>
      </trkpt>
      <trkpt lat="46.00565" lon="6.28561">
        <ele>999</ele>
        <time>2016-10-02T04:50:11+02:00</time>
      </trkpt>
      <trkpt lat="46.00564" lon="6.2856">
        <ele>1000</ele>
        <time>2016-10-02T04:50:12+02:00</time>
      </trkpt>
      <trkpt lat="46.00562" lon="6.28559">
        <ele>1000</ele>
        <time>2016-10-02T04:50:14+02:00</time>
      </trkpt>
      <trkpt lat="46.00561" lon="6.28557">
        <ele>1001</ele>
        <time>2016-10-02T04:50:15+02:00</time>
      </trkpt>
      <trkpt lat="46.00559" lon="6.28556">
        <ele>1001</ele>
        <time>2016-10-02T04:50:17+02:00</time>
      </trkpt>
      <trkpt lat="46.00557" lon="6.28555">
        <ele>1001</ele>
        <time>2016-10-02T04:50:18+02:00</time>
      </trkpt>
      <trkpt lat="46.00556" lon="6.28555">
        <ele>1002</ele>
        <time>2016-10-02T04:50:20+02:00</time>
      </trkpt>
      <trkpt lat="46.00554" lon="6.28555">
        <ele>1002</ele>
        <time>2016-10-02T04:50:21+02:00</time>
      </trkpt>
      <trkpt lat="46.00553" lon="6.28555">
        <ele>1003</ele>
        <time>2016-10-02T04:50:23+02:00</time>
      </trkpt>
      <trkpt lat="46.00551" lon="6.28554">
        <ele>1003</ele>
        <time>2016-10-02T04:50:24+02:00</time>
      </trkpt>
      <trkpt lat="46.00549" lon="6.28554">
        <ele>1004</ele>
        <time>2016-10-02T04:50:26+02:00</time>
      </trkpt>
      <trkpt lat="46.00547" lon="6.28553">
        <ele>1005</ele>
        <time>2016-10-02T04:50:27+02:00</time>
      </trkpt>
      <trkpt lat="46.00545" lon="6.28553">
        <ele>1005</ele>
        <time>2016-10-02T04:50:29+02:00</time>
      </trkpt>
      <trkpt lat="46.00543" lon="6.28551">
        <ele>1006</ele>
        <time>2016-10-02T04:50:31+02:00</time>
      </trkpt>
      <trkpt lat="46.00542" lon="6.2855">
        <ele>1006</ele>
        <time>2016-10-02T04:50:33+02:00</time>
      </trkpt>
      <trkpt lat="46.00539" lon="6.2855">
        <ele>1007</ele>
        <time>2016-10-02T04:50:35+02:00</time>
      </trkpt>
      <trkpt lat="46.00538" lon="6.28549">
        <ele>1007</ele>
        <time>2016-10-02T04:50:36+02:00</time>
      </trkpt>
      <trkpt lat="46.00536" lon="6.28548">
        <ele>1008</ele>
        <time>2016-10-02T04:50:37+02:00</time>
      </trkpt>
      <trkpt lat="46.00534" lon="6.28548">
        <ele>1008</ele>
        <time>2016-10-02T04:50:39+02:00</time>
      </trkpt>
      <trkpt lat="46.00533" lon="6.28547">
        <ele>1009</ele>
        <time>2016-10-02T04:50:41+02:00</time>
      </trkpt>
      <trkpt lat="46.00531" lon="6.28546">
        <ele>1009</ele>
        <time>2016-10-02T04:50:42+02:00</time>
      </trkpt>
      <trkpt lat="46.00529" lon="6.28545">
        <ele>1010</ele>
        <time>2016-10-02T04:50:44+02:00</time>
      </trkpt>
      <trkpt lat="46.00528" lon="6.28544">
        <ele>1010</ele>
        <time>2016-10-02T04:50:45+02:00</time>
      </trkpt>
      <trkpt lat="46.00526" lon="6.28543">
        <ele>1010</ele>
        <time>2016-10-02T04:50:46+02:00</time>
      </trkpt>
      <trkpt lat="46.00524" lon="6.28542">
        <ele>1011</ele>
        <time>2016-10-02T04:50:48+02:00</time>
      </trkpt>
      <trkpt lat="46.00523" lon="6.28541">
        <ele>1011</ele>
        <time>2016-10-02T04:50:50+02:00</time>
      </trkpt>
      <trkpt lat="46.00521" lon="6.28539">
        <ele>1012</ele>
        <time>2016-10-02T04:50:51+02:00</time>
      </trkpt>
      <trkpt lat="46.0052" lon="6.28538">
        <ele>1012</ele>
        <time>2016-10-02T04:50:53+02:00</time>
      </trkpt>
      <trkpt lat="46.00518" lon="6.28536">
        <ele>1012</ele>
        <time>2016-10-02T04:50:55+02:00</time>
      </trkpt>
      <trkpt lat="46.00517" lon="6.28534">
        <ele>1012</ele>
        <time>2016-10-02T04:50:56+02:00</time>
      </trkpt>
      <trkpt lat="46.00515" lon="6.28532">
        <ele>1013</ele>
        <time>2016-10-02T04:50:58+02:00</time>
      </trkpt>
      <trkpt lat="46.00513" lon="6.2853">
        <ele>1013</ele>
        <time>2016-10-02T04:51:00+02:00</time>
      </trkpt>
      <trkpt lat="46.00511" lon="6.28529">
        <ele>1014</ele>
        <time>2016-10-02T04:51:02+02:00</time>
      </trkpt>
      <trkpt lat="46.0051" lon="6.28527">
        <ele>1014</ele>
        <time>2016-10-02T04:51:03+02:00</time>
      </trkpt>
      <trkpt lat="46.00508" lon="6.28526">
        <ele>1014</ele>
        <time>2016-10-02T04:51:05+02:00</time>
      </trkpt>
      <trkpt lat="46.00506" lon="6.28524">
        <ele>1015</ele>
        <time>2016-10-02T04:51:07+02:00</time>
      </trkpt>
      <trkpt lat="46.00505" lon="6.28522">
        <ele>1015</ele>
        <time>2016-10-02T04:51:08+02:00</time>
      </trkpt>
      <trkpt lat="46.00504" lon="6.28521">
        <ele>1015</ele>
        <time>2016-10-02T04:51:09+02:00</time>
      </trkpt>
      <trkpt lat="46.00502" lon="6.28519">
        <ele>1015</ele>
        <time>2016-10-02T04:51:11+02:00</time>
      </trkpt>
      <trkpt lat="46.00502" lon="6.28517">
        <ele>1016</ele>
        <time>2016-10-02T04:51:12+02:00</time>
      </trkpt>
      <trkpt lat="46.005" lon="6.28517">
        <ele>1016</ele>
        <time>2016-10-02T04:51:14+02:00</time>
      </trkpt>
      <trkpt lat="46.005" lon="6.28519">
        <ele>1016</ele>
        <time>2016-10-02T04:51:15+02:00</time>
      </trkpt>
      <trkpt lat="46.00499" lon="6.28522">
        <ele>1017</ele>
        <time>2016-10-02T04:51:17+02:00</time>
      </trkpt>
      <trkpt lat="46.00498" lon="6.28524">
        <ele>1018</ele>
        <time>2016-10-02T04:51:19+02:00</time>
      </trkpt>
      <trkpt lat="46.00497" lon="6.28527">
        <ele>1018</ele>
        <time>2016-10-02T04:51:20+02:00</time>
      </trkpt>
      <trkpt lat="46.00496" lon="6.28528">
        <ele>1019</ele>
        <time>2016-10-02T04:51:22+02:00</time>
      </trkpt>
      <trkpt lat="46.00495" lon="6.28529">
        <ele>1019</ele>
        <time>2016-10-02T04:51:23+02:00</time>
      </trkpt>
      <trkpt lat="46.00494" lon="6.28532">
        <ele>1020</ele>
        <time>2016-10-02T04:51:25+02:00</time>
      </trkpt>
      <trkpt lat="46.00494" lon="6.28535">
        <ele>1020</ele>
        <time>2016-10-02T04:51:27+02:00</time>
      </trkpt>
      <trkpt lat="46.00494" lon="6.28538">
        <ele>1020</ele>
        <time>2016-10-02T04:51:28+02:00</time>
      </trkpt>
      <trkpt lat="46.00496" lon="6.2854">
        <ele>1020</ele>
        <time>2016-10-02T04:51:30+02:00</time>
      </trkpt>
      <trkpt lat="46.00496" lon="6.28542">
        <ele>1020</ele>
        <time>2016-10-02T04:51:31+02:00</time>
      </trkpt>
      <trkpt lat="46.00496" lon="6.28545">
        <ele>1021</ele>
        <time>2016-10-02T04:51:32+02:00</time>
      </trkpt>
      <trkpt lat="46.00497" lon="6.28547">
        <ele>1021</ele>
        <time>2016-10-02T04:51:34+02:00</time>
      </trkpt>
      <trkpt lat="46.00498" lon="6.28549">
        <ele>1021</ele>
        <time>2016-10-02T04:51:35+02:00</time>
      </trkpt>
      <trkpt lat="46.00498" lon="6.28551">
        <ele>1021</ele>
        <time>2016-10-02T04:51:37+02:00</time>
      </trkpt>
      <trkpt lat="46.00499" lon="6.28554">
        <ele>1021</ele>
        <time>2016-10-02T04:51:38+02:00</time>
      </trkpt>
      <trkpt lat="46.00499" lon="6.28557">
        <ele>1021</ele>
        <time>2016-10-02T04:51:40+02:00</time>
      </trkpt>
      <trkpt lat="46.00499" lon="6.2856">
        <ele>1022</ele>
        <time>2016-10-02T04:51:42+02:00</time>
      </trkpt>
      <trkpt lat="46.00499" lon="6.28563">
        <ele>1022</ele>
        <time>2016-10-02T04:51:43+02:00</time>
      </trkpt>
      <trkpt lat="46.00499" lon="6.28565">
        <ele>1022</ele>
        <time>2016-10-02T04:51:45+02:00</time>
      </trkpt>
      <trkpt lat="46.005" lon="6.28567">
        <ele>1022</ele>
        <time>2016-10-02T04:51:46+02:00</time>
      </trkpt>
      <trkpt lat="46.005" lon="6.28571">
        <ele>1022</ele>
        <time>2016-10-02T04:51:48+02:00</time>
      </trkpt>
      <trkpt lat="46.00501" lon="6.28574">
        <ele>1023</ele>
        <time>2016-10-02T04:51:50+02:00</time>
      </trkpt>
      <trkpt lat="46.00501" lon="6.28577">
        <ele>1023</ele>
        <time>2016-10-02T04:51:52+02:00</time>
      </trkpt>
      <trkpt lat="46.00501" lon="6.2858">
        <ele>1023</ele>
        <time>2016-10-02T04:51:54+02:00</time>
      </trkpt>
      <trkpt lat="46.00502" lon="6.28582">
        <ele>1023</ele>
        <time>2016-10-02T04:51:55+02:00</time>
      </trkpt>
      <trkpt lat="46.00503" lon="6.28585">
        <ele>1023</ele>
        <time>2016-10-02T04:51:57+02:00</time>
      </trkpt>
      <trkpt lat="46.00503" lon="6.28588">
        <ele>1024</ele>
        <time>2016-10-02T04:51:58+02:00</time>
      </trkpt>
      <trkpt lat="46.00503" lon="6.28591">
        <ele>1024</ele>
        <time>2016-10-02T04:52:00+02:00</time>
      </trkpt>
      <trkpt lat="46.00504" lon="6.28593">
        <ele>1024</ele>
        <time>2016-10-02T04:52:01+02:00</time>
      </trkpt>
      <trkpt lat="46.00504" lon="6.28595">
        <ele>1024</ele>
        <time>2016-10-02T04:52:03+02:00</time>
      </trkpt>
      <trkpt lat="46.00504" lon="6.28597">
        <ele>1025</ele>
        <time>2016-10-02T04:52:04+02:00</time>
      </trkpt>
      <trkpt lat="46.00504" lon="6.286">
        <ele>1025</ele>
        <time>2016-10-02T04:52:06+02:00</time>
      </trkpt>
      <trkpt lat="46.00504" lon="6.28602">
        <ele>1025</ele>
        <time>2016-10-02T04:52:07+02:00</time>
      </trkpt>
      <trkpt lat="46.00504" lon="6.28606">
        <ele>1026</ele>
        <time>2016-10-02T04:52:09+02:00</time>
      </trkpt>
      <trkpt lat="46.00505" lon="6.28609">
        <ele>1026</ele>
        <time>2016-10-02T04:52:11+02:00</time>
      </trkpt>
      <trkpt lat="46.00506" lon="6.28612">
        <ele>1026</ele>
        <time>2016-10-02T04:52:13+02:00</time>
      </trkpt>
      <trkpt lat="46.00506" lon="6.28615">
        <ele>1026</ele>
        <time>2016-10-02T04:52:14+02:00</time>
      </trkpt>
      <trkpt lat="46.00506" lon="6.28618">
        <ele>1027</ele>
        <time>2016-10-02T04:52:17+02:00</time>
      </trkpt>
      <trkpt lat="46.00506" lon="6.28621">
        <ele>1027</ele>
        <time>2016-10-02T04:52:18+02:00</time>
      </trkpt>
      <trkpt lat="46.00506" lon="6.28624">
        <ele>1027</ele>
        <time>2016-10-02T04:52:20+02:00</time>
      </trkpt>
      <trkpt lat="46.00507" lon="6.28626">
        <ele>1027</ele>
        <time>2016-10-02T04:52:21+02:00</time>
      </trkpt>
      <trkpt lat="46.00506" lon="6.28629">
        <ele>1028</ele>
        <time>2016-10-02T04:52:23+02:00</time>
      </trkpt>
      <trkpt lat="46.00506" lon="6.28631">
        <ele>1028</ele>
        <time>2016-10-02T04:52:24+02:00</time>
      </trkpt>
      <trkpt lat="46.00507" lon="6.28635">
        <ele>1029</ele>
        <time>2016-10-02T04:52:26+02:00</time>
      </trkpt>
      <trkpt lat="46.00507" lon="6.28637">
        <ele>1029</ele>
        <time>2016-10-02T04:52:28+02:00</time>
      </trkpt>
      <trkpt lat="46.00506" lon="6.28639">
        <ele>1029</ele>
        <time>2016-10-02T04:52:29+02:00</time>
      </trkpt>
      <trkpt lat="46.00507" lon="6.28643">
        <ele>1030</ele>
        <time>2016-10-02T04:52:31+02:00</time>
      </trkpt>
      <trkpt lat="46.00506" lon="6.28646">
        <ele>1030</ele>
        <time>2016-10-02T04:52:33+02:00</time>
      </trkpt>
      <trkpt lat="46.00507" lon="6.28648">
        <ele>1030</ele>
        <time>2016-10-02T04:52:34+02:00</time>
      </trkpt>
      <trkpt lat="46.00507" lon="6.28649">
        <ele>1030</ele>
        <time>2016-10-02T04:52:35+02:00</time>
      </trkpt>
      <trkpt lat="46.00507" lon="6.2865">
        <ele>1031</ele>
        <time>2016-10-02T04:52:35+02:00</time>
      </trkpt>
      <trkpt lat="46.00506" lon="6.28652">
        <ele>1031</ele>
        <time>2016-10-02T04:52:37+02:00</time>
      </trkpt>
      <trkpt lat="46.00505" lon="6.28653">
        <ele>1031</ele>
        <time>2016-10-02T04:52:37+02:00</time>
      </trkpt>
      <trkpt lat="46.00505" lon="6.28654">
        <ele>1032</ele>
        <time>2016-10-02T04:52:38+02:00</time>
      </trkpt>
      <trkpt lat="46.00503" lon="6.28654">
        <ele>1032</ele>
        <time>2016-10-02T04:52:40+02:00</time>
      </trkpt>
      <trkpt lat="46.00501" lon="6.28652">
        <ele>1033</ele>
        <time>2016-10-02T04:52:42+02:00</time>
      </trkpt>
      <trkpt lat="46.005" lon="6.28649">
        <ele>1033</ele>
        <time>2016-10-02T04:52:43+02:00</time>
      </trkpt>
      <trkpt lat="46.00499" lon="6.28647">
        <ele>1033</ele>
        <time>2016-10-02T04:52:45+02:00</time>
      </trkpt>
      <trkpt lat="46.00497" lon="6.28645">
        <ele>1033</ele>
        <time>2016-10-02T04:52:46+02:00</time>
      </trkpt>
      <trkpt lat="46.00496" lon="6.28644">
        <ele>1034</ele>
        <time>2016-10-02T04:52:48+02:00</time>
      </trkpt>
      <trkpt lat="46.00494" lon="6.28643">
        <ele>1034</ele>
        <time>2016-10-02T04:52:50+02:00</time>
      </trkpt>
      <trkpt lat="46.00492" lon="6.28642">
        <ele>1035</ele>
        <time>2016-10-02T04:52:51+02:00</time>
      </trkpt>
      <trkpt lat="46.0049" lon="6.28641">
        <ele>1035</ele>
        <time>2016-10-02T04:52:53+02:00</time>
      </trkpt>
      <trkpt lat="46.00489" lon="6.28641">
        <ele>1036</ele>
        <time>2016-10-02T04:52:54+02:00</time>
      </trkpt>
      <trkpt lat="46.00487" lon="6.28639">
        <ele>1036</ele>
        <time>2016-10-02T04:52:56+02:00</time>
      </trkpt>
      <trkpt lat="46.00486" lon="6.28638">
        <ele>1036</ele>
        <time>2016-10-02T04:52:57+02:00</time>
      </trkpt>
      <trkpt lat="46.00484" lon="6.28638">
        <ele>1037</ele>
        <time>2016-10-02T04:52:58+02:00</time>
      </trkpt>
      <trkpt lat="46.00483" lon="6.28637">
        <ele>1037</ele>
        <time>2016-10-02T04:53:00+02:00</time>
      </trkpt>
      <trkpt lat="46.00481" lon="6.28637">
        <ele>1038</ele>
        <time>2016-10-02T04:53:01+02:00</time>
      </trkpt>
      <trkpt lat="46.00479" lon="6.28637">
        <ele>1038</ele>
        <time>2016-10-02T04:53:03+02:00</time>
      </trkpt>
      <trkpt lat="46.00477" lon="6.28637">
        <ele>1039</ele>
        <time>2016-10-02T04:53:04+02:00</time>
      </trkpt>
      <trkpt lat="46.00475" lon="6.28636">
        <ele>1040</ele>
        <time>2016-10-02T04:53:06+02:00</time>
      </trkpt>
      <trkpt lat="46.00474" lon="6.28636">
        <ele>1040</ele>
        <time>2016-10-02T04:53:07+02:00</time>
      </trkpt>
      <trkpt lat="46.00472" lon="6.28637">
        <ele>1041</ele>
        <time>2016-10-02T04:53:09+02:00</time>
      </trkpt>
      <trkpt lat="46.00471" lon="6.28638">
        <ele>1042</ele>
        <time>2016-10-02T04:53:11+02:00</time>
      </trkpt>
      <trkpt lat="46.00469" lon="6.2864">
        <ele>1043</ele>
        <time>2016-10-02T04:53:12+02:00</time>
      </trkpt>
      <trkpt lat="46.00467" lon="6.28642">
        <ele>1043</ele>
        <time>2016-10-02T04:53:14+02:00</time>
      </trkpt>
      <trkpt lat="46.00466" lon="6.28643">
        <ele>1044</ele>
        <time>2016-10-02T04:53:16+02:00</time>
      </trkpt>
      <trkpt lat="46.00464" lon="6.28643">
        <ele>1045</ele>
        <time>2016-10-02T04:53:17+02:00</time>
      </trkpt>
      <trkpt lat="46.00463" lon="6.28643">
        <ele>1045</ele>
        <time>2016-10-02T04:53:18+02:00</time>
      </trkpt>
      <trkpt lat="46.00461" lon="6.28644">
        <ele>1046</ele>
        <time>2016-10-02T04:53:20+02:00</time>
      </trkpt>
      <trkpt lat="46.00458" lon="6.28643">
        <ele>1047</ele>
        <time>2016-10-02T04:53:22+02:00</time>
      </trkpt>
      <trkpt lat="46.00456" lon="6.28643">
        <ele>1048</ele>
        <time>2016-10-02T04:53:24+02:00</time>
      </trkpt>
      <trkpt lat="46.00454" lon="6.28643">
        <ele>1048</ele>
        <time>2016-10-02T04:53:25+02:00</time>
      </trkpt>
      <trkpt lat="46.00452" lon="6.28643">
        <ele>1049</ele>
        <time>2016-10-02T04:53:27+02:00</time>
      </trkpt>
      <trkpt lat="46.00451" lon="6.28642">
        <ele>1049</ele>
        <time>2016-10-02T04:53:28+02:00</time>
      </trkpt>
      <trkpt lat="46.00448" lon="6.28641">
        <ele>1050</ele>
        <time>2016-10-02T04:53:30+02:00</time>
      </trkpt>
      <trkpt lat="46.00447" lon="6.2864">
        <ele>1050</ele>
        <time>2016-10-02T04:53:32+02:00</time>
      </trkpt>
      <trkpt lat="46.00445" lon="6.28639">
        <ele>1051</ele>
        <time>2016-10-02T04:53:34+02:00</time>
      </trkpt>
      <trkpt lat="46.00443" lon="6.28638">
        <ele>1052</ele>
        <time>2016-10-02T04:53:35+02:00</time>
      </trkpt>
      <trkpt lat="46.00441" lon="6.28638">
        <ele>1052</ele>
        <time>2016-10-02T04:53:37+02:00</time>
      </trkpt>
      <trkpt lat="46.00439" lon="6.28637">
        <ele>1053</ele>
        <time>2016-10-02T04:53:38+02:00</time>
      </trkpt>
      <trkpt lat="46.00437" lon="6.28636">
        <ele>1053</ele>
        <time>2016-10-02T04:53:40+02:00</time>
      </trkpt>
      <trkpt lat="46.00436" lon="6.28635">
        <ele>1054</ele>
        <time>2016-10-02T04:53:41+02:00</time>
      </trkpt>
      <trkpt lat="46.00435" lon="6.28634">
        <ele>1054</ele>
        <time>2016-10-02T04:53:43+02:00</time>
      </trkpt>
      <trkpt lat="46.00433" lon="6.28633">
        <ele>1054</ele>
        <time>2016-10-02T04:53:44+02:00</time>
      </trkpt>
      <trkpt lat="46.00432" lon="6.28633">
        <ele>1055</ele>
        <time>2016-10-02T04:53:45+02:00</time>
      </trkpt>
      <trkpt lat="46.0043" lon="6.28632">
        <ele>1055</ele>
        <time>2016-10-02T04:53:46+02:00</time>
      </trkpt>
      <trkpt lat="46.00429" lon="6.2863">
        <ele>1055</ele>
        <time>2016-10-02T04:53:48+02:00</time>
      </trkpt>
      <trkpt lat="46.00428" lon="6.28629">
        <ele>1055</ele>
        <time>2016-10-02T04:53:49+02:00</time>
      </trkpt>
      <trkpt lat="46.00427" lon="6.28627">
        <ele>1055</ele>
        <time>2016-10-02T04:53:50+02:00</time>
      </trkpt>
      <trkpt lat="46.00426" lon="6.28624">
        <ele>1056</ele>
        <time>2016-10-02T04:53:52+02:00</time>
      </trkpt>
      <trkpt lat="46.00425" lon="6.28622">
        <ele>1056</ele>
        <time>2016-10-02T04:53:54+02:00</time>
      </trkpt>
      <trkpt lat="46.00424" lon="6.28619">
        <ele>1056</ele>
        <time>2016-10-02T04:53:55+02:00</time>
      </trkpt>
      <trkpt lat="46.00423" lon="6.28617">
        <ele>1055</ele>
        <time>2016-10-02T04:53:57+02:00</time>
      </trkpt>
      <trkpt lat="46.00422" lon="6.28615">
        <ele>1056</ele>
        <time>2016-10-02T04:53:58+02:00</time>
      </trkpt>
      <trkpt lat="46.00421" lon="6.28613">
        <ele>1056</ele>
        <time>2016-10-02T04:54:00+02:00</time>
      </trkpt>
      <trkpt lat="46.00419" lon="6.28612">
        <ele>1056</ele>
        <time>2016-10-02T04:54:02+02:00</time>
      </trkpt>
      <trkpt lat="46.00418" lon="6.2861">
        <ele>1057</ele>
        <time>2016-10-02T04:54:03+02:00</time>
      </trkpt>
      <trkpt lat="46.00416" lon="6.28609">
        <ele>1057</ele>
        <time>2016-10-02T04:54:05+02:00</time>
      </trkpt>
      <trkpt lat="46.00414" lon="6.28608">
        <ele>1057</ele>
        <time>2016-10-02T04:54:06+02:00</time>
      </trkpt>
      <trkpt lat="46.00413" lon="6.28606">
        <ele>1057</ele>
        <time>2016-10-02T04:54:08+02:00</time>
      </trkpt>
      <trkpt lat="46.00411" lon="6.28605">
        <ele>1058</ele>
        <time>2016-10-02T04:54:09+02:00</time>
      </trkpt>
      <trkpt lat="46.00409" lon="6.28604">
        <ele>1058</ele>
        <time>2016-10-02T04:54:11+02:00</time>
      </trkpt>
      <trkpt lat="46.00408" lon="6.28603">
        <ele>1059</ele>
        <time>2016-10-02T04:54:12+02:00</time>
      </trkpt>
      <trkpt lat="46.00406" lon="6.28603">
        <ele>1059</ele>
        <time>2016-10-02T04:54:14+02:00</time>
      </trkpt>
      <trkpt lat="46.00405" lon="6.28601">
        <ele>1060</ele>
        <time>2016-10-02T04:54:15+02:00</time>
      </trkpt>
      <trkpt lat="46.00403" lon="6.286">
        <ele>1060</ele>
        <time>2016-10-02T04:54:17+02:00</time>
      </trkpt>
      <trkpt lat="46.00401" lon="6.28599">
        <ele>1061</ele>
        <time>2016-10-02T04:54:19+02:00</time>
      </trkpt>
      <trkpt lat="46.00399" lon="6.28599">
        <ele>1061</ele>
        <time>2016-10-02T04:54:20+02:00</time>
      </trkpt>
      <trkpt lat="46.00397" lon="6.28597">
        <ele>1061</ele>
        <time>2016-10-02T04:54:22+02:00</time>
      </trkpt>
      <trkpt lat="46.00395" lon="6.28596">
        <ele>1062</ele>
        <time>2016-10-02T04:54:24+02:00</time>
      </trkpt>
      <trkpt lat="46.00393" lon="6.28595">
        <ele>1062</ele>
        <time>2016-10-02T04:54:25+02:00</time>
      </trkpt>
      <trkpt lat="46.00392" lon="6.28594">
        <ele>1063</ele>
        <time>2016-10-02T04:54:27+02:00</time>
      </trkpt>
      <trkpt lat="46.0039" lon="6.28593">
        <ele>1063</ele>
        <time>2016-10-02T04:54:28+02:00</time>
      </trkpt>
      <trkpt lat="46.00389" lon="6.28592">
        <ele>1064</ele>
        <time>2016-10-02T04:54:30+02:00</time>
      </trkpt>
      <trkpt lat="46.00387" lon="6.28592">
        <ele>1064</ele>
        <time>2016-10-02T04:54:31+02:00</time>
      </trkpt>
      <trkpt lat="46.00385" lon="6.28591">
        <ele>1065</ele>
        <time>2016-10-02T04:54:33+02:00</time>
      </trkpt>
      <trkpt lat="46.00383" lon="6.28591">
        <ele>1065</ele>
        <time>2016-10-02T04:54:34+02:00</time>
      </trkpt>
      <trkpt lat="46.00381" lon="6.28591">
        <ele>1066</ele>
        <time>2016-10-02T04:54:36+02:00</time>
      </trkpt>
      <trkpt lat="46.0038" lon="6.28591">
        <ele>1066</ele>
        <time>2016-10-02T04:54:37+02:00</time>
      </trkpt>
      <trkpt lat="46.00377" lon="6.28592">
        <ele>1067</ele>
        <time>2016-10-02T04:54:39+02:00</time>
      </trkpt>
      <trkpt lat="46.00375" lon="6.28593">
        <ele>1068</ele>
        <time>2016-10-02T04:54:41+02:00</time>
      </trkpt>
      <trkpt lat="46.00373" lon="6.28595">
        <ele>1069</ele>
        <time>2016-10-02T04:54:43+02:00</time>
      </trkpt>
      <trkpt lat="46.00372" lon="6.28597">
        <ele>1070</ele>
        <time>2016-10-02T04:54:45+02:00</time>
      </trkpt>
      <trkpt lat="46.0037" lon="6.28599">
        <ele>1070</ele>
        <time>2016-10-02T04:54:47+02:00</time>
      </trkpt>
      <trkpt lat="46.00368" lon="6.28601">
        <ele>1071</ele>
        <time>2016-10-02T04:54:48+02:00</time>
      </trkpt>
      <trkpt lat="46.00366" lon="6.28602">
        <ele>1072</ele>
        <time>2016-10-02T04:54:50+02:00</time>
      </trkpt>
      <trkpt lat="46.00365" lon="6.28603">
        <ele>1073</ele>
        <time>2016-10-02T04:54:52+02:00</time>
      </trkpt>
      <trkpt lat="46.00363" lon="6.28604">
        <ele>1073</ele>
        <time>2016-10-02T04:54:53+02:00</time>
      </trkpt>
      <trkpt lat="46.00361" lon="6.28605">
        <ele>1074</ele>
        <time>2016-10-02T04:54:55+02:00</time>
      </trkpt>
      <trkpt lat="46.00359" lon="6.28606">
        <ele>1075</ele>
        <time>2016-10-02T04:54:57+02:00</time>
      </trkpt>
      <trkpt lat="46.00356" lon="6.28606">
        <ele>1076</ele>
        <time>2016-10-02T04:54:59+02:00</time>
      </trkpt>
      <trkpt lat="46.00355" lon="6.28606">
        <ele>1076</ele>
        <time>2016-10-02T04:55:01+02:00</time>
      </trkpt>
      <trkpt lat="46.00353" lon="6.28606">
        <ele>1077</ele>
        <time>2016-10-02T04:55:02+02:00</time>
      </trkpt>
      <trkpt lat="46.00351" lon="6.28605">
        <ele>1077</ele>
        <time>2016-10-02T04:55:04+02:00</time>
      </trkpt>
      <trkpt lat="46.00348" lon="6.28604">
        <ele>1078</ele>
        <time>2016-10-02T04:55:06+02:00</time>
      </trkpt>
      <trkpt lat="46.00347" lon="6.28604">
        <ele>1079</ele>
        <time>2016-10-02T04:55:07+02:00</time>
      </trkpt>
      <trkpt lat="46.00345" lon="6.28604">
        <ele>1079</ele>
        <time>2016-10-02T04:55:08+02:00</time>
      </trkpt>
      <trkpt lat="46.00343" lon="6.28604">
        <ele>1080</ele>
        <time>2016-10-02T04:55:10+02:00</time>
      </trkpt>
      <trkpt lat="46.00342" lon="6.28604">
        <ele>1080</ele>
        <time>2016-10-02T04:55:11+02:00</time>
      </trkpt>
      <trkpt lat="46.0034" lon="6.28604">
        <ele>1081</ele>
        <time>2016-10-02T04:55:12+02:00</time>
      </trkpt>
      <trkpt lat="46.00338" lon="6.28603">
        <ele>1081</ele>
        <time>2016-10-02T04:55:14+02:00</time>
      </trkpt>
      <trkpt lat="46.00336" lon="6.28602">
        <ele>1082</ele>
        <time>2016-10-02T04:55:16+02:00</time>
      </trkpt>
      <trkpt lat="46.00333" lon="6.28601">
        <ele>1083</ele>
        <time>2016-10-02T04:55:18+02:00</time>
      </trkpt>
      <trkpt lat="46.00331" lon="6.286">
        <ele>1083</ele>
        <time>2016-10-02T04:55:20+02:00</time>
      </trkpt>
      <trkpt lat="46.00329" lon="6.28601">
        <ele>1083</ele>
        <time>2016-10-02T04:55:22+02:00</time>
      </trkpt>
      <trkpt lat="46.00327" lon="6.28601">
        <ele>1084</ele>
        <time>2016-10-02T04:55:23+02:00</time>
      </trkpt>
      <trkpt lat="46.00325" lon="6.28602">
        <ele>1084</ele>
        <time>2016-10-02T04:55:25+02:00</time>
      </trkpt>
      <trkpt lat="46.00323" lon="6.28601">
        <ele>1084</ele>
        <time>2016-10-02T04:55:27+02:00</time>
      </trkpt>
      <trkpt lat="46.00321" lon="6.28601">
        <ele>1085</ele>
        <time>2016-10-02T04:55:28+02:00</time>
      </trkpt>
      <trkpt lat="46.0032" lon="6.28602">
        <ele>1085</ele>
        <time>2016-10-02T04:55:30+02:00</time>
      </trkpt>
      <trkpt lat="46.00318" lon="6.28603">
        <ele>1086</ele>
        <time>2016-10-02T04:55:31+02:00</time>
      </trkpt>
      <trkpt lat="46.00316" lon="6.28604">
        <ele>1086</ele>
        <time>2016-10-02T04:55:33+02:00</time>
      </trkpt>
      <trkpt lat="46.00314" lon="6.28604">
        <ele>1086</ele>
        <time>2016-10-02T04:55:34+02:00</time>
      </trkpt>
      <trkpt lat="46.00313" lon="6.28604">
        <ele>1087</ele>
        <time>2016-10-02T04:55:36+02:00</time>
      </trkpt>
      <trkpt lat="46.00311" lon="6.28605">
        <ele>1087</ele>
        <time>2016-10-02T04:55:37+02:00</time>
      </trkpt>
      <trkpt lat="46.00309" lon="6.28605">
        <ele>1087</ele>
        <time>2016-10-02T04:55:39+02:00</time>
      </trkpt>
      <trkpt lat="46.00308" lon="6.28606">
        <ele>1088</ele>
        <time>2016-10-02T04:55:40+02:00</time>
      </trkpt>
      <trkpt lat="46.00306" lon="6.28607">
        <ele>1088</ele>
        <time>2016-10-02T04:55:42+02:00</time>
      </trkpt>
      <trkpt lat="46.00304" lon="6.28608">
        <ele>1089</ele>
        <time>2016-10-02T04:55:44+02:00</time>
      </trkpt>
      <trkpt lat="46.00302" lon="6.28608">
        <ele>1089</ele>
        <time>2016-10-02T04:55:45+02:00</time>
      </trkpt>
      <trkpt lat="46.003" lon="6.28609">
        <ele>1089</ele>
        <time>2016-10-02T04:55:46+02:00</time>
      </trkpt>
      <trkpt lat="46.00299" lon="6.28609">
        <ele>1090</ele>
        <time>2016-10-02T04:55:48+02:00</time>
      </trkpt>
      <trkpt lat="46.00297" lon="6.2861">
        <ele>1090</ele>
        <time>2016-10-02T04:55:50+02:00</time>
      </trkpt>
      <trkpt lat="46.00295" lon="6.2861">
        <ele>1091</ele>
        <time>2016-10-02T04:55:51+02:00</time>
      </trkpt>
      <trkpt lat="46.00294" lon="6.28611">
        <ele>1091</ele>
        <time>2016-10-02T04:55:52+02:00</time>
      </trkpt>
      <trkpt lat="46.00292" lon="6.28612">
        <ele>1091</ele>
        <time>2016-10-02T04:55:54+02:00</time>
      </trkpt>
      <trkpt lat="46.00291" lon="6.28614">
        <ele>1092</ele>
        <time>2016-10-02T04:55:55+02:00</time>
      </trkpt>
      <trkpt lat="46.0029" lon="6.28615">
        <ele>1092</ele>
        <time>2016-10-02T04:55:56+02:00</time>
      </trkpt>
      <trkpt lat="46.00288" lon="6.28617">
        <ele>1093</ele>
        <time>2016-10-02T04:55:58+02:00</time>
      </trkpt>
      <trkpt lat="46.00288" lon="6.28619">
        <ele>1093</ele>
        <time>2016-10-02T04:55:59+02:00</time>
      </trkpt>
      <trkpt lat="46.00286" lon="6.2862">
        <ele>1094</ele>
        <time>2016-10-02T04:56:01+02:00</time>
      </trkpt>
      <trkpt lat="46.00285" lon="6.28622">
        <ele>1094</ele>
        <time>2016-10-02T04:56:02+02:00</time>
      </trkpt>
      <trkpt lat="46.00283" lon="6.28625">
        <ele>1095</ele>
        <time>2016-10-02T04:56:04+02:00</time>
      </trkpt>
      <trkpt lat="46.00282" lon="6.28627">
        <ele>1096</ele>
        <time>2016-10-02T04:56:06+02:00</time>
      </trkpt>
      <trkpt lat="46.0028" lon="6.28629">
        <ele>1096</ele>
        <time>2016-10-02T04:56:08+02:00</time>
      </trkpt>
      <trkpt lat="46.00279" lon="6.28631">
        <ele>1097</ele>
        <time>2016-10-02T04:56:09+02:00</time>
      </trkpt>
      <trkpt lat="46.00278" lon="6.28634">
        <ele>1097</ele>
        <time>2016-10-02T04:56:11+02:00</time>
      </trkpt>
      <trkpt lat="46.00277" lon="6.28637">
        <ele>1098</ele>
        <time>2016-10-02T04:56:13+02:00</time>
      </trkpt>
      <trkpt lat="46.00276" lon="6.28639">
        <ele>1099</ele>
        <time>2016-10-02T04:56:15+02:00</time>
      </trkpt>
      <trkpt lat="46.00275" lon="6.28642">
        <ele>1099</ele>
        <time>2016-10-02T04:56:17+02:00</time>
      </trkpt>
      <trkpt lat="46.00275" lon="6.28645">
        <ele>1100</ele>
        <time>2016-10-02T04:56:18+02:00</time>
      </trkpt>
      <trkpt lat="46.00273" lon="6.28648">
        <ele>1100</ele>
        <time>2016-10-02T04:56:20+02:00</time>
      </trkpt>
      <trkpt lat="46.00272" lon="6.2865">
        <ele>1101</ele>
        <time>2016-10-02T04:56:22+02:00</time>
      </trkpt>
      <trkpt lat="46.00271" lon="6.28652">
        <ele>1102</ele>
        <time>2016-10-02T04:56:24+02:00</time>
      </trkpt>
      <trkpt lat="46.0027" lon="6.28654">
        <ele>1102</ele>
        <time>2016-10-02T04:56:26+02:00</time>
      </trkpt>
      <trkpt lat="46.00268" lon="6.28657">
        <ele>1103</ele>
        <time>2016-10-02T04:56:27+02:00</time>
      </trkpt>
      <trkpt lat="46.00268" lon="6.28658">
        <ele>1103</ele>
        <time>2016-10-02T04:56:28+02:00</time>
      </trkpt>
      <trkpt lat="46.00267" lon="6.28661">
        <ele>1104</ele>
        <time>2016-10-02T04:56:30+02:00</time>
      </trkpt>
      <trkpt lat="46.00267" lon="6.28663">
        <ele>1104</ele>
        <time>2016-10-02T04:56:32+02:00</time>
      </trkpt>
      <trkpt lat="46.00267" lon="6.28667">
        <ele>1105</ele>
        <time>2016-10-02T04:56:34+02:00</time>
      </trkpt>
      <trkpt lat="46.00267" lon="6.28669">
        <ele>1106</ele>
        <time>2016-10-02T04:56:35+02:00</time>
      </trkpt>
      <trkpt lat="46.00267" lon="6.28672">
        <ele>1106</ele>
        <time>2016-10-02T04:56:37+02:00</time>
      </trkpt>
      <trkpt lat="46.00267" lon="6.28675">
        <ele>1107</ele>
        <time>2016-10-02T04:56:38+02:00</time>
      </trkpt>
      <trkpt lat="46.00266" lon="6.28678">
        <ele>1108</ele>
        <time>2016-10-02T04:56:40+02:00</time>
      </trkpt>
      <trkpt lat="46.00266" lon="6.2868">
        <ele>1109</ele>
        <time>2016-10-02T04:56:42+02:00</time>
      </trkpt>
      <trkpt lat="46.00267" lon="6.28683">
        <ele>1109</ele>
        <time>2016-10-02T04:56:43+02:00</time>
      </trkpt>
      <trkpt lat="46.00267" lon="6.28686">
        <ele>1110</ele>
        <time>2016-10-02T04:56:45+02:00</time>
      </trkpt>
      <trkpt lat="46.00267" lon="6.28689">
        <ele>1110</ele>
        <time>2016-10-02T04:56:47+02:00</time>
      </trkpt>
      <trkpt lat="46.00267" lon="6.28692">
        <ele>1112</ele>
        <time>2016-10-02T04:56:49+02:00</time>
      </trkpt>
      <trkpt lat="46.00266" lon="6.28696">
        <ele>1112</ele>
        <time>2016-10-02T04:56:51+02:00</time>
      </trkpt>
      <trkpt lat="46.00266" lon="6.28699">
        <ele>1113</ele>
        <time>2016-10-02T04:56:53+02:00</time>
      </trkpt>
      <trkpt lat="46.00265" lon="6.28702">
        <ele>1115</ele>
        <time>2016-10-02T04:56:55+02:00</time>
      </trkpt>
      <trkpt lat="46.00265" lon="6.28705">
        <ele>1115</ele>
        <time>2016-10-02T04:56:57+02:00</time>
      </trkpt>
      <trkpt lat="46.00265" lon="6.28708">
        <ele>1116</ele>
        <time>2016-10-02T04:56:59+02:00</time>
      </trkpt>
      <trkpt lat="46.00265" lon="6.28711">
        <ele>1117</ele>
        <time>2016-10-02T04:57:01+02:00</time>
      </trkpt>
      <trkpt lat="46.00265" lon="6.28713">
        <ele>1117</ele>
        <time>2016-10-02T04:57:02+02:00</time>
      </trkpt>
      <trkpt lat="46.00265" lon="6.28715">
        <ele>1118</ele>
        <time>2016-10-02T04:57:03+02:00</time>
      </trkpt>
      <trkpt lat="46.00264" lon="6.28718">
        <ele>1119</ele>
        <time>2016-10-02T04:57:05+02:00</time>
      </trkpt>
      <trkpt lat="46.00263" lon="6.2872">
        <ele>1120</ele>
        <time>2016-10-02T04:57:07+02:00</time>
      </trkpt>
      <trkpt lat="46.00263" lon="6.28722">
        <ele>1120</ele>
        <time>2016-10-02T04:57:08+02:00</time>
      </trkpt>
      <trkpt lat="46.00262" lon="6.28724">
        <ele>1121</ele>
        <time>2016-10-02T04:57:09+02:00</time>
      </trkpt>
      <trkpt lat="46.00262" lon="6.28726">
        <ele>1122</ele>
        <time>2016-10-02T04:57:11+02:00</time>
      </trkpt>
      <trkpt lat="46.00261" lon="6.28729">
        <ele>1123</ele>
        <time>2016-10-02T04:57:12+02:00</time>
      </trkpt>
      <trkpt lat="46.00261" lon="6.28731">
        <ele>1124</ele>
        <time>2016-10-02T04:57:14+02:00</time>
      </trkpt>
      <trkpt lat="46.00259" lon="6.28733">
        <ele>1125</ele>
        <time>2016-10-02T04:57:16+02:00</time>
      </trkpt>
      <trkpt lat="46.00257" lon="6.28733">
        <ele>1125</ele>
        <time>2016-10-02T04:57:17+02:00</time>
      </trkpt>
      <trkpt lat="46.00256" lon="6.28734">
        <ele>1126</ele>
        <time>2016-10-02T04:57:19+02:00</time>
      </trkpt>
      <trkpt lat="46.00253" lon="6.28733">
        <ele>1127</ele>
        <time>2016-10-02T04:57:21+02:00</time>
      </trkpt>
      <trkpt lat="46.00252" lon="6.28733">
        <ele>1127</ele>
        <time>2016-10-02T04:57:22+02:00</time>
      </trkpt>
      <trkpt lat="46.00249" lon="6.28732">
        <ele>1128</ele>
        <time>2016-10-02T04:57:24+02:00</time>
      </trkpt>
      <trkpt lat="46.00247" lon="6.28732">
        <ele>1129</ele>
        <time>2016-10-02T04:57:26+02:00</time>
      </trkpt>
      <trkpt lat="46.00245" lon="6.28731">
        <ele>1129</ele>
        <time>2016-10-02T04:57:28+02:00</time>
      </trkpt>
      <trkpt lat="46.00243" lon="6.2873">
        <ele>1130</ele>
        <time>2016-10-02T04:57:30+02:00</time>
      </trkpt>
      <trkpt lat="46.00241" lon="6.2873">
        <ele>1130</ele>
        <time>2016-10-02T04:57:31+02:00</time>
      </trkpt>
      <trkpt lat="46.00239" lon="6.28729">
        <ele>1131</ele>
        <time>2016-10-02T04:57:33+02:00</time>
      </trkpt>
      <trkpt lat="46.00238" lon="6.28728">
        <ele>1131</ele>
        <time>2016-10-02T04:57:35+02:00</time>
      </trkpt>
      <trkpt lat="46.00236" lon="6.28726">
        <ele>1131</ele>
        <time>2016-10-02T04:57:36+02:00</time>
      </trkpt>
      <trkpt lat="46.00234" lon="6.28725">
        <ele>1131</ele>
        <time>2016-10-02T04:57:38+02:00</time>
      </trkpt>
      <trkpt lat="46.00232" lon="6.28724">
        <ele>1132</ele>
        <time>2016-10-02T04:57:40+02:00</time>
      </trkpt>
      <trkpt lat="46.0023" lon="6.28723">
        <ele>1132</ele>
        <time>2016-10-02T04:57:42+02:00</time>
      </trkpt>
      <trkpt lat="46.00228" lon="6.28722">
        <ele>1133</ele>
        <time>2016-10-02T04:57:43+02:00</time>
      </trkpt>
      <trkpt lat="46.00226" lon="6.28721">
        <ele>1133</ele>
        <time>2016-10-02T04:57:45+02:00</time>
      </trkpt>
      <trkpt lat="46.00225" lon="6.2872">
        <ele>1134</ele>
        <time>2016-10-02T04:57:46+02:00</time>
      </trkpt>
      <trkpt lat="46.00223" lon="6.28719">
        <ele>1134</ele>
        <time>2016-10-02T04:57:48+02:00</time>
      </trkpt>
      <trkpt lat="46.00221" lon="6.28719">
        <ele>1135</ele>
        <time>2016-10-02T04:57:50+02:00</time>
      </trkpt>
      <trkpt lat="46.00219" lon="6.28718">
        <ele>1135</ele>
        <time>2016-10-02T04:57:51+02:00</time>
      </trkpt>
      <trkpt lat="46.00217" lon="6.28716">
        <ele>1135</ele>
        <time>2016-10-02T04:57:53+02:00</time>
      </trkpt>
      <trkpt lat="46.00216" lon="6.28715">
        <ele>1135</ele>
        <time>2016-10-02T04:57:54+02:00</time>
      </trkpt>
      <trkpt lat="46.00215" lon="6.28713">
        <ele>1135</ele>
        <time>2016-10-02T04:57:56+02:00</time>
      </trkpt>
      <trkpt lat="46.00213" lon="6.28711">
        <ele>1135</ele>
        <time>2016-10-02T04:57:58+02:00</time>
      </trkpt>
      <trkpt lat="46.00211" lon="6.2871">
        <ele>1135</ele>
        <time>2016-10-02T04:57:59+02:00</time>
      </trkpt>
      <trkpt lat="46.0021" lon="6.28708">
        <ele>1135</ele>
        <time>2016-10-02T04:58:00+02:00</time>
      </trkpt>
      <trkpt lat="46.00209" lon="6.28707">
        <ele>1135</ele>
        <time>2016-10-02T04:58:02+02:00</time>
      </trkpt>
      <trkpt lat="46.00207" lon="6.28705">
        <ele>1135</ele>
        <time>2016-10-02T04:58:03+02:00</time>
      </trkpt>
      <trkpt lat="46.00206" lon="6.28703">
        <ele>1135</ele>
        <time>2016-10-02T04:58:05+02:00</time>
      </trkpt>
      <trkpt lat="46.00204" lon="6.28702">
        <ele>1136</ele>
        <time>2016-10-02T04:58:06+02:00</time>
      </trkpt>
      <trkpt lat="46.00203" lon="6.28701">
        <ele>1136</ele>
        <time>2016-10-02T04:58:08+02:00</time>
      </trkpt>
      <trkpt lat="46.002" lon="6.28699">
        <ele>1136</ele>
        <time>2016-10-02T04:58:10+02:00</time>
      </trkpt>
      <trkpt lat="46.00197" lon="6.28698">
        <ele>1137</ele>
        <time>2016-10-02T04:58:12+02:00</time>
      </trkpt>
      <trkpt lat="46.00195" lon="6.28696">
        <ele>1137</ele>
        <time>2016-10-02T04:58:15+02:00</time>
      </trkpt>
      <trkpt lat="46.00194" lon="6.28695">
        <ele>1137</ele>
        <time>2016-10-02T04:58:16+02:00</time>
      </trkpt>
      <trkpt lat="46.00193" lon="6.28694">
        <ele>1137</ele>
        <time>2016-10-02T04:58:17+02:00</time>
      </trkpt>
      <trkpt lat="46.00191" lon="6.28693">
        <ele>1137</ele>
        <time>2016-10-02T04:58:18+02:00</time>
      </trkpt>
      <trkpt lat="46.00189" lon="6.2869">
        <ele>1137</ele>
        <time>2016-10-02T04:58:21+02:00</time>
      </trkpt>
      <trkpt lat="46.00188" lon="6.28689">
        <ele>1138</ele>
        <time>2016-10-02T04:58:22+02:00</time>
      </trkpt>
      <trkpt lat="46.00186" lon="6.28688">
        <ele>1138</ele>
        <time>2016-10-02T04:58:24+02:00</time>
      </trkpt>
      <trkpt lat="46.00185" lon="6.28687">
        <ele>1138</ele>
        <time>2016-10-02T04:58:25+02:00</time>
      </trkpt>
      <trkpt lat="46.00183" lon="6.28686">
        <ele>1138</ele>
        <time>2016-10-02T04:58:27+02:00</time>
      </trkpt>
      <trkpt lat="46.00181" lon="6.28684">
        <ele>1138</ele>
        <time>2016-10-02T04:58:28+02:00</time>
      </trkpt>
      <trkpt lat="46.0018" lon="6.28683">
        <ele>1138</ele>
        <time>2016-10-02T04:58:29+02:00</time>
      </trkpt>
      <trkpt lat="46.00178" lon="6.28682">
        <ele>1139</ele>
        <time>2016-10-02T04:58:31+02:00</time>
      </trkpt>
      <trkpt lat="46.00177" lon="6.2868">
        <ele>1139</ele>
        <time>2016-10-02T04:58:33+02:00</time>
      </trkpt>
      <trkpt lat="46.00174" lon="6.28679">
        <ele>1139</ele>
        <time>2016-10-02T04:58:35+02:00</time>
      </trkpt>
      <trkpt lat="46.00173" lon="6.28677">
        <ele>1139</ele>
        <time>2016-10-02T04:58:36+02:00</time>
      </trkpt>
      <trkpt lat="46.00171" lon="6.28675">
        <ele>1139</ele>
        <time>2016-10-02T04:58:38+02:00</time>
      </trkpt>
      <trkpt lat="46.00169" lon="6.28674">
        <ele>1139</ele>
        <time>2016-10-02T04:58:40+02:00</time>
      </trkpt>
      <trkpt lat="46.00168" lon="6.28672">
        <ele>1139</ele>
        <time>2016-10-02T04:58:41+02:00</time>
      </trkpt>
      <trkpt lat="46.00167" lon="6.28671">
        <ele>1139</ele>
        <time>2016-10-02T04:58:42+02:00</time>
      </trkpt>
      <trkpt lat="46.00165" lon="6.2867">
        <ele>1140</ele>
        <time>2016-10-02T04:58:44+02:00</time>
      </trkpt>
      <trkpt lat="46.00163" lon="6.28669">
        <ele>1140</ele>
        <time>2016-10-02T04:58:45+02:00</time>
      </trkpt>
      <trkpt lat="46.00162" lon="6.28667">
        <ele>1140</ele>
        <time>2016-10-02T04:58:47+02:00</time>
      </trkpt>
      <trkpt lat="46.0016" lon="6.28666">
        <ele>1140</ele>
        <time>2016-10-02T04:58:49+02:00</time>
      </trkpt>
      <trkpt lat="46.00158" lon="6.28664">
        <ele>1140</ele>
        <time>2016-10-02T04:58:51+02:00</time>
      </trkpt>
      <trkpt lat="46.00156" lon="6.28662">
        <ele>1140</ele>
        <time>2016-10-02T04:58:53+02:00</time>
      </trkpt>
      <trkpt lat="46.00153" lon="6.2866">
        <ele>1141</ele>
        <time>2016-10-02T04:58:55+02:00</time>
      </trkpt>
      <trkpt lat="46.00152" lon="6.2866">
        <ele>1141</ele>
        <time>2016-10-02T04:58:57+02:00</time>
      </trkpt>
      <trkpt lat="46.0015" lon="6.28658">
        <ele>1141</ele>
        <time>2016-10-02T04:58:58+02:00</time>
      </trkpt>
      <trkpt lat="46.00148" lon="6.28657">
        <ele>1142</ele>
        <time>2016-10-02T04:59:00+02:00</time>
      </trkpt>
      <trkpt lat="46.00146" lon="6.28656">
        <ele>1142</ele>
        <time>2016-10-02T04:59:02+02:00</time>
      </trkpt>
      <trkpt lat="46.00145" lon="6.28654">
        <ele>1142</ele>
        <time>2016-10-02T04:59:03+02:00</time>
      </trkpt>
      <trkpt lat="46.00143" lon="6.28653">
        <ele>1142</ele>
        <time>2016-10-02T04:59:05+02:00</time>
      </trkpt>
      <trkpt lat="46.00141" lon="6.28652">
        <ele>1142</ele>
        <time>2016-10-02T04:59:06+02:00</time>
      </trkpt>
      <trkpt lat="46.0014" lon="6.28652">
        <ele>1143</ele>
        <time>2016-10-02T04:59:08+02:00</time>
      </trkpt>
      <trkpt lat="46.00138" lon="6.28651">
        <ele>1143</ele>
        <time>2016-10-02T04:59:09+02:00</time>
      </trkpt>
      <trkpt lat="46.00136" lon="6.28649">
        <ele>1143</ele>
        <time>2016-10-02T04:59:11+02:00</time>
      </trkpt>
      <trkpt lat="46.00135" lon="6.28648">
        <ele>1143</ele>
        <time>2016-10-02T04:59:12+02:00</time>
      </trkpt>
      <trkpt lat="46.00133" lon="6.28646">
        <ele>1143</ele>
        <time>2016-10-02T04:59:14+02:00</time>
      </trkpt>
      <trkpt lat="46.00131" lon="6.28643">
        <ele>1143</ele>
        <time>2016-10-02T04:59:17+02:00</time>
      </trkpt>
      <trkpt lat="46.00129" lon="6.28642">
        <ele>1143</ele>
        <time>2016-10-02T04:59:18+02:00</time>
      </trkpt>
      <trkpt lat="46.00127" lon="6.28641">
        <ele>1143</ele>
        <time>2016-10-02T04:59:20+02:00</time>
      </trkpt>
      <trkpt lat="46.00125" lon="6.28639">
        <ele>1143</ele>
        <time>2016-10-02T04:59:22+02:00</time>
      </trkpt>
      <trkpt lat="46.00124" lon="6.28637">
        <ele>1143</ele>
        <time>2016-10-02T04:59:23+02:00</time>
      </trkpt>
      <trkpt lat="46.00123" lon="6.28636">
        <ele>1143</ele>
        <time>2016-10-02T04:59:25+02:00</time>
      </trkpt>
      <trkpt lat="46.0012" lon="6.28635">
        <ele>1144</ele>
        <time>2016-10-02T04:59:27+02:00</time>
      </trkpt>
      <trkpt lat="46.00119" lon="6.28636">
        <ele>1144</ele>
        <time>2016-10-02T04:59:28+02:00</time>
      </trkpt>
      <trkpt lat="46.00119" lon="6.28638">
        <ele>1145</ele>
        <time>2016-10-02T04:59:30+02:00</time>
      </trkpt>
      <trkpt lat="46.00119" lon="6.28641">
        <ele>1146</ele>
        <time>2016-10-02T04:59:31+02:00</time>
      </trkpt>
      <trkpt lat="46.00119" lon="6.28643">
        <ele>1147</ele>
        <time>2016-10-02T04:59:33+02:00</time>
      </trkpt>
      <trkpt lat="46.0012" lon="6.28645">
        <ele>1147</ele>
        <time>2016-10-02T04:59:34+02:00</time>
      </trkpt>
      <trkpt lat="46.00121" lon="6.28647">
        <ele>1148</ele>
        <time>2016-10-02T04:59:36+02:00</time>
      </trkpt>
      <trkpt lat="46.00122" lon="6.28649">
        <ele>1148</ele>
        <time>2016-10-02T04:59:37+02:00</time>
      </trkpt>
      <trkpt lat="46.00123" lon="6.2865">
        <ele>1148</ele>
        <time>2016-10-02T04:59:38+02:00</time>
      </trkpt>
      <trkpt lat="46.00125" lon="6.28651">
        <ele>1148</ele>
        <time>2016-10-02T04:59:40+02:00</time>
      </trkpt>
      <trkpt lat="46.00126" lon="6.28653">
        <ele>1148</ele>
        <time>2016-10-02T04:59:41+02:00</time>
      </trkpt>
      <trkpt lat="46.00128" lon="6.28655">
        <ele>1148</ele>
        <time>2016-10-02T04:59:43+02:00</time>
      </trkpt>
      <trkpt lat="46.0013" lon="6.28657">
        <ele>1148</ele>
        <time>2016-10-02T04:59:44+02:00</time>
      </trkpt>
      <trkpt lat="46.00132" lon="6.28657">
        <ele>1148</ele>
        <time>2016-10-02T04:59:46+02:00</time>
      </trkpt>
      <trkpt lat="46.00133" lon="6.28658">
        <ele>1147</ele>
        <time>2016-10-02T04:59:48+02:00</time>
      </trkpt>
      <trkpt lat="46.00135" lon="6.28658">
        <ele>1147</ele>
        <time>2016-10-02T04:59:49+02:00</time>
      </trkpt>
      <trkpt lat="46.00137" lon="6.2866">
        <ele>1147</ele>
        <time>2016-10-02T04:59:51+02:00</time>
      </trkpt>
      <trkpt lat="46.00139" lon="6.28661">
        <ele>1146</ele>
        <time>2016-10-02T04:59:53+02:00</time>
      </trkpt>
      <trkpt lat="46.0014" lon="6.28663">
        <ele>1147</ele>
        <time>2016-10-02T04:59:54+02:00</time>
      </trkpt>
      <trkpt lat="46.00141" lon="6.28665">
        <ele>1147</ele>
        <time>2016-10-02T04:59:55+02:00</time>
      </trkpt>
      <trkpt lat="46.00142" lon="6.28667">
        <ele>1147</ele>
        <time>2016-10-02T04:59:57+02:00</time>
      </trkpt>
      <trkpt lat="46.00143" lon="6.28668">
        <ele>1148</ele>
        <time>2016-10-02T04:59:58+02:00</time>
      </trkpt>
      <trkpt lat="46.00144" lon="6.28671">
        <ele>1148</ele>
        <time>2016-10-02T05:00:00+02:00</time>
      </trkpt>
      <trkpt lat="46.00144" lon="6.28673">
        <ele>1148</ele>
        <time>2016-10-02T05:00:01+02:00</time>
      </trkpt>
      <trkpt lat="46.00145" lon="6.28676">
        <ele>1149</ele>
        <time>2016-10-02T05:00:03+02:00</time>
      </trkpt>
      <trkpt lat="46.00146" lon="6.28678">
        <ele>1149</ele>
        <time>2016-10-02T05:00:04+02:00</time>
      </trkpt>
      <trkpt lat="46.00147" lon="6.2868">
        <ele>1150</ele>
        <time>2016-10-02T05:00:06+02:00</time>
      </trkpt>
      <trkpt lat="46.00148" lon="6.28683">
        <ele>1150</ele>
        <time>2016-10-02T05:00:07+02:00</time>
      </trkpt>
      <trkpt lat="46.00149" lon="6.28685">
        <ele>1151</ele>
        <time>2016-10-02T05:00:09+02:00</time>
      </trkpt>
      <trkpt lat="46.0015" lon="6.28687">
        <ele>1151</ele>
        <time>2016-10-02T05:00:10+02:00</time>
      </trkpt>
      <trkpt lat="46.00151" lon="6.28689">
        <ele>1151</ele>
        <time>2016-10-02T05:00:11+02:00</time>
      </trkpt>
      <trkpt lat="46.00151" lon="6.28692">
        <ele>1152</ele>
        <time>2016-10-02T05:00:14+02:00</time>
      </trkpt>
      <trkpt lat="46.00153" lon="6.28695">
        <ele>1153</ele>
        <time>2016-10-02T05:00:15+02:00</time>
      </trkpt>
      <trkpt lat="46.00153" lon="6.28697">
        <ele>1153</ele>
        <time>2016-10-02T05:00:17+02:00</time>
      </trkpt>
      <trkpt lat="46.00154" lon="6.287">
        <ele>1153</ele>
        <time>2016-10-02T05:00:19+02:00</time>
      </trkpt>
      <trkpt lat="46.00155" lon="6.28703">
        <ele>1154</ele>
        <time>2016-10-02T05:00:20+02:00</time>
      </trkpt>
      <trkpt lat="46.00156" lon="6.28706">
        <ele>1154</ele>
        <time>2016-10-02T05:00:22+02:00</time>
      </trkpt>
      <trkpt lat="46.00157" lon="6.28708">
        <ele>1155</ele>
        <time>2016-10-02T05:00:24+02:00</time>
      </trkpt>
      <trkpt lat="46.00158" lon="6.2871">
        <ele>1155</ele>
        <time>2016-10-02T05:00:25+02:00</time>
      </trkpt>
      <trkpt lat="46.00158" lon="6.28712">
        <ele>1156</ele>
        <time>2016-10-02T05:00:26+02:00</time>
      </trkpt>
      <trkpt lat="46.00159" lon="6.28714">
        <ele>1156</ele>
        <time>2016-10-02T05:00:27+02:00</time>
      </trkpt>
      <trkpt lat="46.0016" lon="6.28716">
        <ele>1156</ele>
        <time>2016-10-02T05:00:29+02:00</time>
      </trkpt>
      <trkpt lat="46.00161" lon="6.28719">
        <ele>1157</ele>
        <time>2016-10-02T05:00:31+02:00</time>
      </trkpt>
      <trkpt lat="46.00162" lon="6.28721">
        <ele>1157</ele>
        <time>2016-10-02T05:00:32+02:00</time>
      </trkpt>
      <trkpt lat="46.00163" lon="6.28723">
        <ele>1157</ele>
        <time>2016-10-02T05:00:34+02:00</time>
      </trkpt>
      <trkpt lat="46.00164" lon="6.28724">
        <ele>1157</ele>
        <time>2016-10-02T05:00:35+02:00</time>
      </trkpt>
      <trkpt lat="46.00165" lon="6.28729">
        <ele>1158</ele>
        <time>2016-10-02T05:00:37+02:00</time>
      </trkpt>
      <trkpt lat="46.00166" lon="6.28732">
        <ele>1159</ele>
        <time>2016-10-02T05:00:40+02:00</time>
      </trkpt>
      <trkpt lat="46.00167" lon="6.28736">
        <ele>1159</ele>
        <time>2016-10-02T05:00:42+02:00</time>
      </trkpt>
      <trkpt lat="46.00168" lon="6.28738">
        <ele>1160</ele>
        <time>2016-10-02T05:00:43+02:00</time>
      </trkpt>
      <trkpt lat="46.00168" lon="6.2874">
        <ele>1160</ele>
        <time>2016-10-02T05:00:44+02:00</time>
      </trkpt>
      <trkpt lat="46.00169" lon="6.28742">
        <ele>1161</ele>
        <time>2016-10-02T05:00:46+02:00</time>
      </trkpt>
      <trkpt lat="46.0017" lon="6.28745">
        <ele>1161</ele>
        <time>2016-10-02T05:00:48+02:00</time>
      </trkpt>
      <trkpt lat="46.00171" lon="6.28748">
        <ele>1162</ele>
        <time>2016-10-02T05:00:50+02:00</time>
      </trkpt>
      <trkpt lat="46.00172" lon="6.2875">
        <ele>1162</ele>
        <time>2016-10-02T05:00:51+02:00</time>
      </trkpt>
      <trkpt lat="46.00173" lon="6.28753">
        <ele>1162</ele>
        <time>2016-10-02T05:00:53+02:00</time>
      </trkpt>
      <trkpt lat="46.00173" lon="6.28755">
        <ele>1163</ele>
        <time>2016-10-02T05:00:54+02:00</time>
      </trkpt>
      <trkpt lat="46.00174" lon="6.28758">
        <ele>1164</ele>
        <time>2016-10-02T05:00:56+02:00</time>
      </trkpt>
      <trkpt lat="46.00176" lon="6.2876">
        <ele>1164</ele>
        <time>2016-10-02T05:00:58+02:00</time>
      </trkpt>
      <trkpt lat="46.00177" lon="6.28763">
        <ele>1165</ele>
        <time>2016-10-02T05:01:00+02:00</time>
      </trkpt>
      <trkpt lat="46.00179" lon="6.28766">
        <ele>1165</ele>
        <time>2016-10-02T05:01:02+02:00</time>
      </trkpt>
      <trkpt lat="46.0018" lon="6.28768">
        <ele>1165</ele>
        <time>2016-10-02T05:01:04+02:00</time>
      </trkpt>
      <trkpt lat="46.00181" lon="6.2877">
        <ele>1166</ele>
        <time>2016-10-02T05:01:05+02:00</time>
      </trkpt>
      <trkpt lat="46.00182" lon="6.28772">
        <ele>1166</ele>
        <time>2016-10-02T05:01:06+02:00</time>
      </trkpt>
      <trkpt lat="46.00183" lon="6.28775">
        <ele>1166</ele>
        <time>2016-10-02T05:01:08+02:00</time>
      </trkpt>
      <trkpt lat="46.00183" lon="6.28777">
        <ele>1167</ele>
        <time>2016-10-02T05:01:10+02:00</time>
      </trkpt>
      <trkpt lat="46.00183" lon="6.28781">
        <ele>1168</ele>
        <time>2016-10-02T05:01:12+02:00</time>
      </trkpt>
      <trkpt lat="46.00183" lon="6.28783">
        <ele>1169</ele>
        <time>2016-10-02T05:01:13+02:00</time>
      </trkpt>
      <trkpt lat="46.00184" lon="6.28786">
        <ele>1169</ele>
        <time>2016-10-02T05:01:15+02:00</time>
      </trkpt>
      <trkpt lat="46.00186" lon="6.28789">
        <ele>1170</ele>
        <time>2016-10-02T05:01:17+02:00</time>
      </trkpt>
      <trkpt lat="46.00187" lon="6.28791">
        <ele>1170</ele>
        <time>2016-10-02T05:01:18+02:00</time>
      </trkpt>
      <trkpt lat="46.00188" lon="6.28793">
        <ele>1170</ele>
        <time>2016-10-02T05:01:20+02:00</time>
      </trkpt>
      <trkpt lat="46.00188" lon="6.28795">
        <ele>1171</ele>
        <time>2016-10-02T05:01:21+02:00</time>
      </trkpt>
      <trkpt lat="46.0019" lon="6.28799">
        <ele>1172</ele>
        <time>2016-10-02T05:01:23+02:00</time>
      </trkpt>
      <trkpt lat="46.0019" lon="6.28802">
        <ele>1172</ele>
        <time>2016-10-02T05:01:25+02:00</time>
      </trkpt>
      <trkpt lat="46.00191" lon="6.28805">
        <ele>1173</ele>
        <time>2016-10-02T05:01:27+02:00</time>
      </trkpt>
      <trkpt lat="46.00191" lon="6.28808">
        <ele>1174</ele>
        <time>2016-10-02T05:01:29+02:00</time>
      </trkpt>
      <trkpt lat="46.00192" lon="6.2881">
        <ele>1175</ele>
        <time>2016-10-02T05:01:30+02:00</time>
      </trkpt>
      <trkpt lat="46.00192" lon="6.28813">
        <ele>1175</ele>
        <time>2016-10-02T05:01:32+02:00</time>
      </trkpt>
      <trkpt lat="46.00194" lon="6.28815">
        <ele>1175</ele>
        <time>2016-10-02T05:01:34+02:00</time>
      </trkpt>
      <trkpt lat="46.00195" lon="6.28818">
        <ele>1176</ele>
        <time>2016-10-02T05:01:36+02:00</time>
      </trkpt>
      <trkpt lat="46.00196" lon="6.28821">
        <ele>1176</ele>
        <time>2016-10-02T05:01:38+02:00</time>
      </trkpt>
      <trkpt lat="46.00197" lon="6.28824">
        <ele>1177</ele>
        <time>2016-10-02T05:01:40+02:00</time>
      </trkpt>
      <trkpt lat="46.00199" lon="6.28827">
        <ele>1177</ele>
        <time>2016-10-02T05:01:42+02:00</time>
      </trkpt>
      <trkpt lat="46.002" lon="6.2883">
        <ele>1178</ele>
        <time>2016-10-02T05:01:43+02:00</time>
      </trkpt>
      <trkpt lat="46.00201" lon="6.28832">
        <ele>1178</ele>
        <time>2016-10-02T05:01:45+02:00</time>
      </trkpt>
      <trkpt lat="46.00203" lon="6.28834">
        <ele>1178</ele>
        <time>2016-10-02T05:01:47+02:00</time>
      </trkpt>
      <trkpt lat="46.00204" lon="6.28837">
        <ele>1178</ele>
        <time>2016-10-02T05:01:49+02:00</time>
      </trkpt>
      <trkpt lat="46.00205" lon="6.28841">
        <ele>1179</ele>
        <time>2016-10-02T05:01:51+02:00</time>
      </trkpt>
      <trkpt lat="46.00205" lon="6.28844">
        <ele>1180</ele>
        <time>2016-10-02T05:01:53+02:00</time>
      </trkpt>
      <trkpt lat="46.00206" lon="6.28847">
        <ele>1180</ele>
        <time>2016-10-02T05:01:55+02:00</time>
      </trkpt>
      <trkpt lat="46.00206" lon="6.28849">
        <ele>1181</ele>
        <time>2016-10-02T05:01:57+02:00</time>
      </trkpt>
      <trkpt lat="46.00207" lon="6.28852">
        <ele>1181</ele>
        <time>2016-10-02T05:01:58+02:00</time>
      </trkpt>
      <trkpt lat="46.00208" lon="6.28855">
        <ele>1182</ele>
        <time>2016-10-02T05:02:00+02:00</time>
      </trkpt>
      <trkpt lat="46.00208" lon="6.28857">
        <ele>1182</ele>
        <time>2016-10-02T05:02:01+02:00</time>
      </trkpt>
      <trkpt lat="46.00209" lon="6.28859">
        <ele>1182</ele>
        <time>2016-10-02T05:02:03+02:00</time>
      </trkpt>
      <trkpt lat="46.0021" lon="6.28861">
        <ele>1182</ele>
        <time>2016-10-02T05:02:04+02:00</time>
      </trkpt>
      <trkpt lat="46.00211" lon="6.28863">
        <ele>1183</ele>
        <time>2016-10-02T05:02:06+02:00</time>
      </trkpt>
      <trkpt lat="46.00212" lon="6.28866">
        <ele>1183</ele>
        <time>2016-10-02T05:02:07+02:00</time>
      </trkpt>
      <trkpt lat="46.00212" lon="6.28869">
        <ele>1184</ele>
        <time>2016-10-02T05:02:09+02:00</time>
      </trkpt>
      <trkpt lat="46.00213" lon="6.28871">
        <ele>1184</ele>
        <time>2016-10-02T05:02:10+02:00</time>
      </trkpt>
      <trkpt lat="46.00215" lon="6.28873">
        <ele>1184</ele>
        <time>2016-10-02T05:02:12+02:00</time>
      </trkpt>
      <trkpt lat="46.00215" lon="6.28876">
        <ele>1184</ele>
        <time>2016-10-02T05:02:14+02:00</time>
      </trkpt>
      <trkpt lat="46.00215" lon="6.28878">
        <ele>1185</ele>
        <time>2016-10-02T05:02:15+02:00</time>
      </trkpt>
      <trkpt lat="46.00216" lon="6.28881">
        <ele>1186</ele>
        <time>2016-10-02T05:02:17+02:00</time>
      </trkpt>
      <trkpt lat="46.00217" lon="6.28883">
        <ele>1186</ele>
        <time>2016-10-02T05:02:19+02:00</time>
      </trkpt>
      <trkpt lat="46.00218" lon="6.28886">
        <ele>1186</ele>
        <time>2016-10-02T05:02:20+02:00</time>
      </trkpt>
      <trkpt lat="46.00219" lon="6.28889">
        <ele>1187</ele>
        <time>2016-10-02T05:02:22+02:00</time>
      </trkpt>
      <trkpt lat="46.00221" lon="6.28892">
        <ele>1187</ele>
        <time>2016-10-02T05:02:24+02:00</time>
      </trkpt>
      <trkpt lat="46.00222" lon="6.28895">
        <ele>1187</ele>
        <time>2016-10-02T05:02:26+02:00</time>
      </trkpt>
      <trkpt lat="46.00223" lon="6.28898">
        <ele>1188</ele>
        <time>2016-10-02T05:02:28+02:00</time>
      </trkpt>
      <trkpt lat="46.00224" lon="6.289">
        <ele>1188</ele>
        <time>2016-10-02T05:02:30+02:00</time>
      </trkpt>
      <trkpt lat="46.00224" lon="6.28903">
        <ele>1189</ele>
        <time>2016-10-02T05:02:32+02:00</time>
      </trkpt>
      <trkpt lat="46.00225" lon="6.28906">
        <ele>1189</ele>
        <time>2016-10-02T05:02:33+02:00</time>
      </trkpt>
      <trkpt lat="46.00226" lon="6.28909">
        <ele>1190</ele>
        <time>2016-10-02T05:02:35+02:00</time>
      </trkpt>
      <trkpt lat="46.00226" lon="6.28911">
        <ele>1190</ele>
        <time>2016-10-02T05:02:37+02:00</time>
      </trkpt>
      <trkpt lat="46.00227" lon="6.28915">
        <ele>1191</ele>
        <time>2016-10-02T05:02:39+02:00</time>
      </trkpt>
      <trkpt lat="46.00227" lon="6.28918">
        <ele>1192</ele>
        <time>2016-10-02T05:02:41+02:00</time>
      </trkpt>
      <trkpt lat="46.00228" lon="6.28921">
        <ele>1192</ele>
        <time>2016-10-02T05:02:42+02:00</time>
      </trkpt>
      <trkpt lat="46.00228" lon="6.28924">
        <ele>1193</ele>
        <time>2016-10-02T05:02:44+02:00</time>
      </trkpt>
      <trkpt lat="46.00229" lon="6.28928">
        <ele>1194</ele>
        <time>2016-10-02T05:02:47+02:00</time>
      </trkpt>
      <trkpt lat="46.00229" lon="6.28931">
        <ele>1194</ele>
        <time>2016-10-02T05:02:48+02:00</time>
      </trkpt>
      <trkpt lat="46.0023" lon="6.28934">
        <ele>1194</ele>
        <time>2016-10-02T05:02:50+02:00</time>
      </trkpt>
      <trkpt lat="46.00231" lon="6.28937">
        <ele>1195</ele>
        <time>2016-10-02T05:02:52+02:00</time>
      </trkpt>
      <trkpt lat="46.00231" lon="6.2894">
        <ele>1195</ele>
        <time>2016-10-02T05:02:54+02:00</time>
      </trkpt>
      <trkpt lat="46.00232" lon="6.28942">
        <ele>1196</ele>
        <time>2016-10-02T05:02:56+02:00</time>
      </trkpt>
      <trkpt lat="46.00233" lon="6.28944">
        <ele>1196</ele>
        <time>2016-10-02T05:02:57+02:00</time>
      </trkpt>
      <trkpt lat="46.00235" lon="6.28947">
        <ele>1196</ele>
        <time>2016-10-02T05:02:59+02:00</time>
      </trkpt>
      <trkpt lat="46.00236" lon="6.28949">
        <ele>1196</ele>
        <time>2016-10-02T05:03:01+02:00</time>
      </trkpt>
      <trkpt lat="46.00237" lon="6.28951">
        <ele>1196</ele>
        <time>2016-10-02T05:03:02+02:00</time>
      </trkpt>
      <trkpt lat="46.00237" lon="6.28954">
        <ele>1197</ele>
        <time>2016-10-02T05:03:04+02:00</time>
      </trkpt>
      <trkpt lat="46.00237" lon="6.28956">
        <ele>1197</ele>
        <time>2016-10-02T05:03:05+02:00</time>
      </trkpt>
      <trkpt lat="46.00237" lon="6.28958">
        <ele>1198</ele>
        <time>2016-10-02T05:03:06+02:00</time>
      </trkpt>
      <trkpt lat="46.00237" lon="6.28961">
        <ele>1198</ele>
        <time>2016-10-02T05:03:08+02:00</time>
      </trkpt>
      <trkpt lat="46.00238" lon="6.28964">
        <ele>1199</ele>
        <time>2016-10-02T05:03:10+02:00</time>
      </trkpt>
      <trkpt lat="46.00238" lon="6.28967">
        <ele>1199</ele>
        <time>2016-10-02T05:03:12+02:00</time>
      </trkpt>
      <trkpt lat="46.00239" lon="6.2897">
        <ele>1200</ele>
        <time>2016-10-02T05:03:14+02:00</time>
      </trkpt>
      <trkpt lat="46.00239" lon="6.28972">
        <ele>1200</ele>
        <time>2016-10-02T05:03:15+02:00</time>
      </trkpt>
      <trkpt lat="46.0024" lon="6.28976">
        <ele>1201</ele>
        <time>2016-10-02T05:03:17+02:00</time>
      </trkpt>
      <trkpt lat="46.00241" lon="6.28979">
        <ele>1201</ele>
        <time>2016-10-02T05:03:19+02:00</time>
      </trkpt>
      <trkpt lat="46.00241" lon="6.28982">
        <ele>1202</ele>
        <time>2016-10-02T05:03:21+02:00</time>
      </trkpt>
      <trkpt lat="46.00242" lon="6.28985">
        <ele>1202</ele>
        <time>2016-10-02T05:03:23+02:00</time>
      </trkpt>
      <trkpt lat="46.00243" lon="6.28988">
        <ele>1203</ele>
        <time>2016-10-02T05:03:25+02:00</time>
      </trkpt>
      <trkpt lat="46.00243" lon="6.28991">
        <ele>1203</ele>
        <time>2016-10-02T05:03:26+02:00</time>
      </trkpt>
      <trkpt lat="46.00243" lon="6.28993">
        <ele>1204</ele>
        <time>2016-10-02T05:03:28+02:00</time>
      </trkpt>
      <trkpt lat="46.00243" lon="6.28995">
        <ele>1204</ele>
        <time>2016-10-02T05:03:29+02:00</time>
      </trkpt>
      <trkpt lat="46.00244" lon="6.28998">
        <ele>1204</ele>
        <time>2016-10-02T05:03:31+02:00</time>
      </trkpt>
      <trkpt lat="46.00245" lon="6.29001">
        <ele>1205</ele>
        <time>2016-10-02T05:03:32+02:00</time>
      </trkpt>
      <trkpt lat="46.00245" lon="6.29004">
        <ele>1205</ele>
        <time>2016-10-02T05:03:34+02:00</time>
      </trkpt>
      <trkpt lat="46.00245" lon="6.29007">
        <ele>1206</ele>
        <time>2016-10-02T05:03:36+02:00</time>
      </trkpt>
      <trkpt lat="46.00245" lon="6.2901">
        <ele>1207</ele>
        <time>2016-10-02T05:03:38+02:00</time>
      </trkpt>
      <trkpt lat="46.00245" lon="6.29014">
        <ele>1207</ele>
        <time>2016-10-02T05:03:40+02:00</time>
      </trkpt>
      <trkpt lat="46.00245" lon="6.29017">
        <ele>1208</ele>
        <time>2016-10-02T05:03:42+02:00</time>
      </trkpt>
      <trkpt lat="46.00246" lon="6.2902">
        <ele>1208</ele>
        <time>2016-10-02T05:03:44+02:00</time>
      </trkpt>
      <trkpt lat="46.00247" lon="6.29023">
        <ele>1208</ele>
        <time>2016-10-02T05:03:46+02:00</time>
      </trkpt>
      <trkpt lat="46.00249" lon="6.29026">
        <ele>1208</ele>
        <time>2016-10-02T05:03:48+02:00</time>
      </trkpt>
      <trkpt lat="46.0025" lon="6.29029">
        <ele>1208</ele>
        <time>2016-10-02T05:03:50+02:00</time>
      </trkpt>
      <trkpt lat="46.00251" lon="6.29032">
        <ele>1208</ele>
        <time>2016-10-02T05:03:52+02:00</time>
      </trkpt>
      <trkpt lat="46.00253" lon="6.29034">
        <ele>1207</ele>
        <time>2016-10-02T05:03:54+02:00</time>
      </trkpt>
      <trkpt lat="46.00254" lon="6.29036">
        <ele>1207</ele>
        <time>2016-10-02T05:03:55+02:00</time>
      </trkpt>
      <trkpt lat="46.00255" lon="6.29038">
        <ele>1207</ele>
        <time>2016-10-02T05:03:56+02:00</time>
      </trkpt>
      <trkpt lat="46.00257" lon="6.29041">
        <ele>1207</ele>
        <time>2016-10-02T05:03:58+02:00</time>
      </trkpt>
      <trkpt lat="46.00258" lon="6.29043">
        <ele>1207</ele>
        <time>2016-10-02T05:04:00+02:00</time>
      </trkpt>
      <trkpt lat="46.00259" lon="6.29046">
        <ele>1207</ele>
        <time>2016-10-02T05:04:02+02:00</time>
      </trkpt>
      <trkpt lat="46.0026" lon="6.2905">
        <ele>1208</ele>
        <time>2016-10-02T05:04:04+02:00</time>
      </trkpt>
      <trkpt lat="46.0026" lon="6.29054">
        <ele>1208</ele>
        <time>2016-10-02T05:04:06+02:00</time>
      </trkpt>
      <trkpt lat="46.0026" lon="6.29056">
        <ele>1209</ele>
        <time>2016-10-02T05:04:08+02:00</time>
      </trkpt>
      <trkpt lat="46.0026" lon="6.29059">
        <ele>1209</ele>
        <time>2016-10-02T05:04:10+02:00</time>
      </trkpt>
      <trkpt lat="46.0026" lon="6.29062">
        <ele>1210</ele>
        <time>2016-10-02T05:04:11+02:00</time>
      </trkpt>
      <trkpt lat="46.0026" lon="6.29065">
        <ele>1210</ele>
        <time>2016-10-02T05:04:13+02:00</time>
      </trkpt>
      <trkpt lat="46.0026" lon="6.29068">
        <ele>1211</ele>
        <time>2016-10-02T05:04:15+02:00</time>
      </trkpt>
      <trkpt lat="46.00259" lon="6.2907">
        <ele>1212</ele>
        <time>2016-10-02T05:04:17+02:00</time>
      </trkpt>
      <trkpt lat="46.00259" lon="6.29073">
        <ele>1212</ele>
        <time>2016-10-02T05:04:18+02:00</time>
      </trkpt>
      <trkpt lat="46.00259" lon="6.29076">
        <ele>1213</ele>
        <time>2016-10-02T05:04:20+02:00</time>
      </trkpt>
      <trkpt lat="46.00258" lon="6.29079">
        <ele>1213</ele>
        <time>2016-10-02T05:04:22+02:00</time>
      </trkpt>
      <trkpt lat="46.00258" lon="6.29081">
        <ele>1214</ele>
        <time>2016-10-02T05:04:23+02:00</time>
      </trkpt>
      <trkpt lat="46.00258" lon="6.29084">
        <ele>1215</ele>
        <time>2016-10-02T05:04:25+02:00</time>
      </trkpt>
      <trkpt lat="46.00257" lon="6.29087">
        <ele>1215</ele>
        <time>2016-10-02T05:04:27+02:00</time>
      </trkpt>
      <trkpt lat="46.00257" lon="6.29089">
        <ele>1216</ele>
        <time>2016-10-02T05:04:28+02:00</time>
      </trkpt>
      <trkpt lat="46.00257" lon="6.29092">
        <ele>1216</ele>
        <time>2016-10-02T05:04:30+02:00</time>
      </trkpt>
      <trkpt lat="46.00257" lon="6.29095">
        <ele>1217</ele>
        <time>2016-10-02T05:04:32+02:00</time>
      </trkpt>
      <trkpt lat="46.00257" lon="6.29098">
        <ele>1217</ele>
        <time>2016-10-02T05:04:33+02:00</time>
      </trkpt>
      <trkpt lat="46.00256" lon="6.291">
        <ele>1218</ele>
        <time>2016-10-02T05:04:35+02:00</time>
      </trkpt>
      <trkpt lat="46.00254" lon="6.29098">
        <ele>1218</ele>
        <time>2016-10-02T05:04:37+02:00</time>
      </trkpt>
      <trkpt lat="46.00251" lon="6.29097">
        <ele>1219</ele>
        <time>2016-10-02T05:04:39+02:00</time>
      </trkpt>
      <trkpt lat="46.0025" lon="6.29094">
        <ele>1219</ele>
        <time>2016-10-02T05:04:41+02:00</time>
      </trkpt>
      <trkpt lat="46.00249" lon="6.29092">
        <ele>1219</ele>
        <time>2016-10-02T05:04:42+02:00</time>
      </trkpt>
      <trkpt lat="46.00247" lon="6.2909">
        <ele>1219</ele>
        <time>2016-10-02T05:04:44+02:00</time>
      </trkpt>
      <trkpt lat="46.00246" lon="6.29086">
        <ele>1219</ele>
        <time>2016-10-02T05:04:46+02:00</time>
      </trkpt>
      <trkpt lat="46.00245" lon="6.29083">
        <ele>1219</ele>
        <time>2016-10-02T05:04:48+02:00</time>
      </trkpt>
      <trkpt lat="46.00244" lon="6.29081">
        <ele>1219</ele>
        <time>2016-10-02T05:04:49+02:00</time>
      </trkpt>
      <trkpt lat="46.00243" lon="6.29082">
        <ele>1220</ele>
        <time>2016-10-02T05:04:50+02:00</time>
      </trkpt>
      <trkpt lat="46.00242" lon="6.29084">
        <ele>1220</ele>
        <time>2016-10-02T05:04:52+02:00</time>
      </trkpt>
      <trkpt lat="46.00241" lon="6.29087">
        <ele>1221</ele>
        <time>2016-10-02T05:04:54+02:00</time>
      </trkpt>
      <trkpt lat="46.00241" lon="6.29088">
        <ele>1221</ele>
        <time>2016-10-02T05:04:55+02:00</time>
      </trkpt>
      <trkpt lat="46.0024" lon="6.2909">
        <ele>1222</ele>
        <time>2016-10-02T05:04:56+02:00</time>
      </trkpt>
      <trkpt lat="46.0024" lon="6.29094">
        <ele>1222</ele>
        <time>2016-10-02T05:04:58+02:00</time>
      </trkpt>
      <trkpt lat="46.00241" lon="6.29096">
        <ele>1223</ele>
        <time>2016-10-02T05:04:59+02:00</time>
      </trkpt>
      <trkpt lat="46.00241" lon="6.29099">
        <ele>1223</ele>
        <time>2016-10-02T05:05:01+02:00</time>
      </trkpt>
      <trkpt lat="46.00241" lon="6.29102">
        <ele>1223</ele>
        <time>2016-10-02T05:05:03+02:00</time>
      </trkpt>
      <trkpt lat="46.00241" lon="6.29105">
        <ele>1224</ele>
        <time>2016-10-02T05:05:05+02:00</time>
      </trkpt>
      <trkpt lat="46.00241" lon="6.29109">
        <ele>1225</ele>
        <time>2016-10-02T05:05:07+02:00</time>
      </trkpt>
      <trkpt lat="46.00241" lon="6.29111">
        <ele>1225</ele>
        <time>2016-10-02T05:05:09+02:00</time>
      </trkpt>
      <trkpt lat="46.00242" lon="6.29115">
        <ele>1225</ele>
        <time>2016-10-02T05:05:11+02:00</time>
      </trkpt>
      <trkpt lat="46.00243" lon="6.29119">
        <ele>1225</ele>
        <time>2016-10-02T05:05:13+02:00</time>
      </trkpt>
      <trkpt lat="46.00245" lon="6.29122">
        <ele>1225</ele>
        <time>2016-10-02T05:05:15+02:00</time>
      </trkpt>
      <trkpt lat="46.00246" lon="6.29125">
        <ele>1225</ele>
        <time>2016-10-02T05:05:17+02:00</time>
      </trkpt>
      <trkpt lat="46.00248" lon="6.29127">
        <ele>1225</ele>
        <time>2016-10-02T05:05:19+02:00</time>
      </trkpt>
      <trkpt lat="46.0025" lon="6.2913">
        <ele>1224</ele>
        <time>2016-10-02T05:05:21+02:00</time>
      </trkpt>
      <trkpt lat="46.00252" lon="6.29132">
        <ele>1224</ele>
        <time>2016-10-02T05:05:24+02:00</time>
      </trkpt>
      <trkpt lat="46.00254" lon="6.29134">
        <ele>1224</ele>
        <time>2016-10-02T05:05:25+02:00</time>
      </trkpt>
      <trkpt lat="46.00255" lon="6.29134">
        <ele>1223</ele>
        <time>2016-10-02T05:05:27+02:00</time>
      </trkpt>
      <trkpt lat="46.00257" lon="6.29135">
        <ele>1223</ele>
        <time>2016-10-02T05:05:28+02:00</time>
      </trkpt>
      <trkpt lat="46.00259" lon="6.29136">
        <ele>1222</ele>
        <time>2016-10-02T05:05:31+02:00</time>
      </trkpt>
      <trkpt lat="46.00261" lon="6.29139">
        <ele>1222</ele>
        <time>2016-10-02T05:05:33+02:00</time>
      </trkpt>
      <trkpt lat="46.00261" lon="6.29143">
        <ele>1223</ele>
        <time>2016-10-02T05:05:35+02:00</time>
      </trkpt>
      <trkpt lat="46.00259" lon="6.29145">
        <ele>1224</ele>
        <time>2016-10-02T05:05:37+02:00</time>
      </trkpt>
      <trkpt lat="46.00258" lon="6.29147">
        <ele>1225</ele>
        <time>2016-10-02T05:05:38+02:00</time>
      </trkpt>
      <trkpt lat="46.00256" lon="6.29149">
        <ele>1225</ele>
        <time>2016-10-02T05:05:40+02:00</time>
      </trkpt>
      <trkpt lat="46.00255" lon="6.29152">
        <ele>1226</ele>
        <time>2016-10-02T05:05:42+02:00</time>
      </trkpt>
      <trkpt lat="46.00254" lon="6.29155">
        <ele>1227</ele>
        <time>2016-10-02T05:05:44+02:00</time>
      </trkpt>
      <trkpt lat="46.00253" lon="6.29158">
        <ele>1228</ele>
        <time>2016-10-02T05:05:46+02:00</time>
      </trkpt>
      <trkpt lat="46.00254" lon="6.29162">
        <ele>1228</ele>
        <time>2016-10-02T05:05:48+02:00</time>
      </trkpt>
      <trkpt lat="46.00254" lon="6.29165">
        <ele>1228</ele>
        <time>2016-10-02T05:05:50+02:00</time>
      </trkpt>
      <trkpt lat="46.00256" lon="6.29167">
        <ele>1228</ele>
        <time>2016-10-02T05:05:52+02:00</time>
      </trkpt>
      <trkpt lat="46.00257" lon="6.2917">
        <ele>1229</ele>
        <time>2016-10-02T05:05:54+02:00</time>
      </trkpt>
      <trkpt lat="46.00258" lon="6.29172">
        <ele>1228</ele>
        <time>2016-10-02T05:05:55+02:00</time>
      </trkpt>
      <trkpt lat="46.0026" lon="6.29175">
        <ele>1229</ele>
        <time>2016-10-02T05:05:57+02:00</time>
      </trkpt>
      <trkpt lat="46.00261" lon="6.29178">
        <ele>1229</ele>
        <time>2016-10-02T05:05:59+02:00</time>
      </trkpt>
      <trkpt lat="46.00262" lon="6.2918">
        <ele>1229</ele>
        <time>2016-10-02T05:06:01+02:00</time>
      </trkpt>
      <trkpt lat="46.00263" lon="6.29183">
        <ele>1229</ele>
        <time>2016-10-02T05:06:03+02:00</time>
      </trkpt>
      <trkpt lat="46.00264" lon="6.29186">
        <ele>1229</ele>
        <time>2016-10-02T05:06:05+02:00</time>
      </trkpt>
      <trkpt lat="46.00265" lon="6.29189">
        <ele>1229</ele>
        <time>2016-10-02T05:06:07+02:00</time>
      </trkpt>
      <trkpt lat="46.00266" lon="6.29192">
        <ele>1229</ele>
        <time>2016-10-02T05:06:09+02:00</time>
      </trkpt>
      <trkpt lat="46.00266" lon="6.29195">
        <ele>1230</ele>
        <time>2016-10-02T05:06:11+02:00</time>
      </trkpt>
      <trkpt lat="46.00266" lon="6.29199">
        <ele>1230</ele>
        <time>2016-10-02T05:06:12+02:00</time>
      </trkpt>
      <trkpt lat="46.00266" lon="6.29201">
        <ele>1231</ele>
        <time>2016-10-02T05:06:14+02:00</time>
      </trkpt>
      <trkpt lat="46.00267" lon="6.29204">
        <ele>1231</ele>
        <time>2016-10-02T05:06:15+02:00</time>
      </trkpt>
      <trkpt lat="46.00267" lon="6.29207">
        <ele>1231</ele>
        <time>2016-10-02T05:06:17+02:00</time>
      </trkpt>
      <trkpt lat="46.00267" lon="6.2921">
        <ele>1232</ele>
        <time>2016-10-02T05:06:19+02:00</time>
      </trkpt>
      <trkpt lat="46.00267" lon="6.29213">
        <ele>1232</ele>
        <time>2016-10-02T05:06:20+02:00</time>
      </trkpt>
      <trkpt lat="46.00266" lon="6.29216">
        <ele>1233</ele>
        <time>2016-10-02T05:06:22+02:00</time>
      </trkpt>
      <trkpt lat="46.00265" lon="6.29218">
        <ele>1234</ele>
        <time>2016-10-02T05:06:24+02:00</time>
      </trkpt>
      <trkpt lat="46.00264" lon="6.29221">
        <ele>1234</ele>
        <time>2016-10-02T05:06:26+02:00</time>
      </trkpt>
      <trkpt lat="46.00263" lon="6.29223">
        <ele>1235</ele>
        <time>2016-10-02T05:06:27+02:00</time>
      </trkpt>
      <trkpt lat="46.00262" lon="6.29225">
        <ele>1236</ele>
        <time>2016-10-02T05:06:28+02:00</time>
      </trkpt>
      <trkpt lat="46.00261" lon="6.29227">
        <ele>1236</ele>
        <time>2016-10-02T05:06:30+02:00</time>
      </trkpt>
      <trkpt lat="46.00261" lon="6.2923">
        <ele>1237</ele>
        <time>2016-10-02T05:06:32+02:00</time>
      </trkpt>
      <trkpt lat="46.0026" lon="6.29232">
        <ele>1237</ele>
        <time>2016-10-02T05:06:33+02:00</time>
      </trkpt>
      <trkpt lat="46.00259" lon="6.29234">
        <ele>1238</ele>
        <time>2016-10-02T05:06:34+02:00</time>
      </trkpt>
      <trkpt lat="46.00258" lon="6.29235">
        <ele>1238</ele>
        <time>2016-10-02T05:06:36+02:00</time>
      </trkpt>
      <trkpt lat="46.00258" lon="6.29238">
        <ele>1239</ele>
        <time>2016-10-02T05:06:37+02:00</time>
      </trkpt>
      <trkpt lat="46.00257" lon="6.2924">
        <ele>1239</ele>
        <time>2016-10-02T05:06:39+02:00</time>
      </trkpt>
      <trkpt lat="46.00256" lon="6.29243">
        <ele>1240</ele>
        <time>2016-10-02T05:06:40+02:00</time>
      </trkpt>
      <trkpt lat="46.00255" lon="6.29245">
        <ele>1241</ele>
        <time>2016-10-02T05:06:42+02:00</time>
      </trkpt>
      <trkpt lat="46.00254" lon="6.29248">
        <ele>1242</ele>
        <time>2016-10-02T05:06:44+02:00</time>
      </trkpt>
      <trkpt lat="46.00253" lon="6.29249">
        <ele>1242</ele>
        <time>2016-10-02T05:06:46+02:00</time>
      </trkpt>
      <trkpt lat="46.00251" lon="6.29251">
        <ele>1243</ele>
        <time>2016-10-02T05:06:47+02:00</time>
      </trkpt>
      <trkpt lat="46.0025" lon="6.29253">
        <ele>1244</ele>
        <time>2016-10-02T05:06:49+02:00</time>
      </trkpt>
      <trkpt lat="46.00248" lon="6.29255">
        <ele>1245</ele>
        <time>2016-10-02T05:06:51+02:00</time>
      </trkpt>
      <trkpt lat="46.00247" lon="6.29257">
        <ele>1246</ele>
        <time>2016-10-02T05:06:53+02:00</time>
      </trkpt>
      <trkpt lat="46.00245" lon="6.29259">
        <ele>1246</ele>
        <time>2016-10-02T05:06:54+02:00</time>
      </trkpt>
      <trkpt lat="46.00243" lon="6.29262">
        <ele>1248</ele>
        <time>2016-10-02T05:06:57+02:00</time>
      </trkpt>
      <trkpt lat="46.00242" lon="6.29264">
        <ele>1249</ele>
        <time>2016-10-02T05:06:59+02:00</time>
      </trkpt>
      <trkpt lat="46.00241" lon="6.29267">
        <ele>1250</ele>
        <time>2016-10-02T05:07:00+02:00</time>
      </trkpt>
      <trkpt lat="46.0024" lon="6.29269">
        <ele>1251</ele>
        <time>2016-10-02T05:07:02+02:00</time>
      </trkpt>
      <trkpt lat="46.00238" lon="6.29272">
        <ele>1252</ele>
        <time>2016-10-02T05:07:04+02:00</time>
      </trkpt>
      <trkpt lat="46.00237" lon="6.29275">
        <ele>1252</ele>
        <time>2016-10-02T05:07:06+02:00</time>
      </trkpt>
      <trkpt lat="46.00236" lon="6.29277">
        <ele>1253</ele>
        <time>2016-10-02T05:07:08+02:00</time>
      </trkpt>
      <trkpt lat="46.00236" lon="6.2928">
        <ele>1254</ele>
        <time>2016-10-02T05:07:09+02:00</time>
      </trkpt>
      <trkpt lat="46.00236" lon="6.29284">
        <ele>1254</ele>
        <time>2016-10-02T05:07:11+02:00</time>
      </trkpt>
      <trkpt lat="46.00236" lon="6.29286">
        <ele>1255</ele>
        <time>2016-10-02T05:07:13+02:00</time>
      </trkpt>
      <trkpt lat="46.00236" lon="6.29289">
        <ele>1255</ele>
        <time>2016-10-02T05:07:14+02:00</time>
      </trkpt>
      <trkpt lat="46.00235" lon="6.29292">
        <ele>1256</ele>
        <time>2016-10-02T05:07:16+02:00</time>
      </trkpt>
      <trkpt lat="46.00235" lon="6.29294">
        <ele>1257</ele>
        <time>2016-10-02T05:07:18+02:00</time>
      </trkpt>
      <trkpt lat="46.00234" lon="6.29297">
        <ele>1257</ele>
        <time>2016-10-02T05:07:19+02:00</time>
      </trkpt>
      <trkpt lat="46.00235" lon="6.29299">
        <ele>1257</ele>
        <time>2016-10-02T05:07:21+02:00</time>
      </trkpt>
      <trkpt lat="46.00235" lon="6.29302">
        <ele>1258</ele>
        <time>2016-10-02T05:07:22+02:00</time>
      </trkpt>
      <trkpt lat="46.00235" lon="6.29306">
        <ele>1259</ele>
        <time>2016-10-02T05:07:24+02:00</time>
      </trkpt>
      <trkpt lat="46.00234" lon="6.29309">
        <ele>1259</ele>
        <time>2016-10-02T05:07:26+02:00</time>
      </trkpt>
      <trkpt lat="46.00234" lon="6.29312">
        <ele>1260</ele>
        <time>2016-10-02T05:07:28+02:00</time>
      </trkpt>
      <trkpt lat="46.00233" lon="6.29315">
        <ele>1261</ele>
        <time>2016-10-02T05:07:30+02:00</time>
      </trkpt>
      <trkpt lat="46.00233" lon="6.29318">
        <ele>1261</ele>
        <time>2016-10-02T05:07:31+02:00</time>
      </trkpt>
      <trkpt lat="46.00233" lon="6.2932">
        <ele>1262</ele>
        <time>2016-10-02T05:07:33+02:00</time>
      </trkpt>
      <trkpt lat="46.00233" lon="6.29323">
        <ele>1262</ele>
        <time>2016-10-02T05:07:34+02:00</time>
      </trkpt>
      <trkpt lat="46.00234" lon="6.29325">
        <ele>1262</ele>
        <time>2016-10-02T05:07:35+02:00</time>
      </trkpt>
      <trkpt lat="46.00234" lon="6.29328">
        <ele>1262</ele>
        <time>2016-10-02T05:07:37+02:00</time>
      </trkpt>
      <trkpt lat="46.00235" lon="6.29331">
        <ele>1263</ele>
        <time>2016-10-02T05:07:39+02:00</time>
      </trkpt>
      <trkpt lat="46.00235" lon="6.29334">
        <ele>1263</ele>
        <time>2016-10-02T05:07:41+02:00</time>
      </trkpt>
      <trkpt lat="46.00235" lon="6.29337">
        <ele>1264</ele>
        <time>2016-10-02T05:07:42+02:00</time>
      </trkpt>
      <trkpt lat="46.00234" lon="6.2934">
        <ele>1264</ele>
        <time>2016-10-02T05:07:44+02:00</time>
      </trkpt>
      <trkpt lat="46.00233" lon="6.29342">
        <ele>1265</ele>
        <time>2016-10-02T05:07:46+02:00</time>
      </trkpt>
      <trkpt lat="46.00233" lon="6.29344">
        <ele>1266</ele>
        <time>2016-10-02T05:07:47+02:00</time>
      </trkpt>
      <trkpt lat="46.00232" lon="6.29346">
        <ele>1266</ele>
        <time>2016-10-02T05:07:49+02:00</time>
      </trkpt>
      <trkpt lat="46.00231" lon="6.29349">
        <ele>1267</ele>
        <time>2016-10-02T05:07:50+02:00</time>
      </trkpt>
      <trkpt lat="46.00231" lon="6.29351">
        <ele>1267</ele>
        <time>2016-10-02T05:07:51+02:00</time>
      </trkpt>
      <trkpt lat="46.00231" lon="6.29353">
        <ele>1268</ele>
        <time>2016-10-02T05:07:53+02:00</time>
      </trkpt>
      <trkpt lat="46.00232" lon="6.29356">
        <ele>1268</ele>
        <time>2016-10-02T05:07:55+02:00</time>
      </trkpt>
      <trkpt lat="46.00231" lon="6.29358">
        <ele>1268</ele>
        <time>2016-10-02T05:07:56+02:00</time>
      </trkpt>
      <trkpt lat="46.00232" lon="6.29361">
        <ele>1269</ele>
        <time>2016-10-02T05:07:57+02:00</time>
      </trkpt>
      <trkpt lat="46.00232" lon="6.29363">
        <ele>1269</ele>
        <time>2016-10-02T05:07:59+02:00</time>
      </trkpt>
      <trkpt lat="46.00232" lon="6.29366">
        <ele>1269</ele>
        <time>2016-10-02T05:08:00+02:00</time>
      </trkpt>
      <trkpt lat="46.00233" lon="6.29368">
        <ele>1269</ele>
        <time>2016-10-02T05:08:02+02:00</time>
      </trkpt>
      <trkpt lat="46.00234" lon="6.29372">
        <ele>1269</ele>
        <time>2016-10-02T05:08:04+02:00</time>
      </trkpt>
      <trkpt lat="46.00234" lon="6.29374">
        <ele>1269</ele>
        <time>2016-10-02T05:08:05+02:00</time>
      </trkpt>
      <trkpt lat="46.00235" lon="6.29378">
        <ele>1270</ele>
        <time>2016-10-02T05:08:07+02:00</time>
      </trkpt>
      <trkpt lat="46.00236" lon="6.2938">
        <ele>1270</ele>
        <time>2016-10-02T05:08:09+02:00</time>
      </trkpt>
      <trkpt lat="46.00236" lon="6.29383">
        <ele>1270</ele>
        <time>2016-10-02T05:08:10+02:00</time>
      </trkpt>
      <trkpt lat="46.00235" lon="6.29385">
        <ele>1271</ele>
        <time>2016-10-02T05:08:12+02:00</time>
      </trkpt>
      <trkpt lat="46.00234" lon="6.29388">
        <ele>1271</ele>
        <time>2016-10-02T05:08:13+02:00</time>
      </trkpt>
      <trkpt lat="46.00235" lon="6.2939">
        <ele>1272</ele>
        <time>2016-10-02T05:08:15+02:00</time>
      </trkpt>
      <trkpt lat="46.00236" lon="6.29393">
        <ele>1272</ele>
        <time>2016-10-02T05:08:16+02:00</time>
      </trkpt>
      <trkpt lat="46.00237" lon="6.29394">
        <ele>1271</ele>
        <time>2016-10-02T05:08:18+02:00</time>
      </trkpt>
      <trkpt lat="46.00238" lon="6.29397">
        <ele>1271</ele>
        <time>2016-10-02T05:08:19+02:00</time>
      </trkpt>
      <trkpt lat="46.00238" lon="6.29399">
        <ele>1272</ele>
        <time>2016-10-02T05:08:21+02:00</time>
      </trkpt>
      <trkpt lat="46.00238" lon="6.29402">
        <ele>1272</ele>
        <time>2016-10-02T05:08:22+02:00</time>
      </trkpt>
      <trkpt lat="46.0024" lon="6.29404">
        <ele>1272</ele>
        <time>2016-10-02T05:08:24+02:00</time>
      </trkpt>
      <trkpt lat="46.00241" lon="6.29406">
        <ele>1271</ele>
        <time>2016-10-02T05:08:25+02:00</time>
      </trkpt>
      <trkpt lat="46.00242" lon="6.29408">
        <ele>1271</ele>
        <time>2016-10-02T05:08:27+02:00</time>
      </trkpt>
      <trkpt lat="46.00241" lon="6.29411">
        <ele>1272</ele>
        <time>2016-10-02T05:08:28+02:00</time>
      </trkpt>
      <trkpt lat="46.0024" lon="6.29412">
        <ele>1273</ele>
        <time>2016-10-02T05:08:30+02:00</time>
      </trkpt>
      <trkpt lat="46.00238" lon="6.29415">
        <ele>1274</ele>
        <time>2016-10-02T05:08:32+02:00</time>
      </trkpt>
      <trkpt lat="46.00236" lon="6.29416">
        <ele>1275</ele>
        <time>2016-10-02T05:08:34+02:00</time>
      </trkpt>
      <trkpt lat="46.00234" lon="6.29417">
        <ele>1276</ele>
        <time>2016-10-02T05:08:36+02:00</time>
      </trkpt>
      <trkpt lat="46.00232" lon="6.29417">
        <ele>1277</ele>
        <time>2016-10-02T05:08:37+02:00</time>
      </trkpt>
      <trkpt lat="46.00231" lon="6.29416">
        <ele>1277</ele>
        <time>2016-10-02T05:08:39+02:00</time>
      </trkpt>
      <trkpt lat="46.00229" lon="6.29414">
        <ele>1278</ele>
        <time>2016-10-02T05:08:41+02:00</time>
      </trkpt>
      <trkpt lat="46.00227" lon="6.29413">
        <ele>1279</ele>
        <time>2016-10-02T05:08:43+02:00</time>
      </trkpt>
      <trkpt lat="46.00225" lon="6.29412">
        <ele>1279</ele>
        <time>2016-10-02T05:08:45+02:00</time>
      </trkpt>
      <trkpt lat="46.00223" lon="6.2941">
        <ele>1280</ele>
        <time>2016-10-02T05:08:47+02:00</time>
      </trkpt>
      <trkpt lat="46.0022" lon="6.29409">
        <ele>1281</ele>
        <time>2016-10-02T05:08:49+02:00</time>
      </trkpt>
      <trkpt lat="46.00218" lon="6.29408">
        <ele>1281</ele>
        <time>2016-10-02T05:08:51+02:00</time>
      </trkpt>
      <trkpt lat="46.00216" lon="6.29406">
        <ele>1282</ele>
        <time>2016-10-02T05:08:52+02:00</time>
      </trkpt>
      <trkpt lat="46.00214" lon="6.29405">
        <ele>1283</ele>
        <time>2016-10-02T05:08:55+02:00</time>
      </trkpt>
      <trkpt lat="46.00212" lon="6.29404">
        <ele>1284</ele>
        <time>2016-10-02T05:08:57+02:00</time>
      </trkpt>
      <trkpt lat="46.00209" lon="6.29402">
        <ele>1284</ele>
        <time>2016-10-02T05:08:59+02:00</time>
      </trkpt>
      <trkpt lat="46.00207" lon="6.29401">
        <ele>1285</ele>
        <time>2016-10-02T05:09:01+02:00</time>
      </trkpt>
      <trkpt lat="46.00205" lon="6.294">
        <ele>1286</ele>
        <time>2016-10-02T05:09:03+02:00</time>
      </trkpt>
      <trkpt lat="46.00203" lon="6.29398">
        <ele>1286</ele>
        <time>2016-10-02T05:09:05+02:00</time>
      </trkpt>
      <trkpt lat="46.00202" lon="6.29396">
        <ele>1286</ele>
        <time>2016-10-02T05:09:06+02:00</time>
      </trkpt>
      <trkpt lat="46.00201" lon="6.29394">
        <ele>1287</ele>
        <time>2016-10-02T05:09:08+02:00</time>
      </trkpt>
      <trkpt lat="46.00199" lon="6.29392">
        <ele>1287</ele>
        <time>2016-10-02T05:09:10+02:00</time>
      </trkpt>
      <trkpt lat="46.00198" lon="6.2939">
        <ele>1287</ele>
        <time>2016-10-02T05:09:11+02:00</time>
      </trkpt>
      <trkpt lat="46.00197" lon="6.29389">
        <ele>1287</ele>
        <time>2016-10-02T05:09:12+02:00</time>
      </trkpt>
      <trkpt lat="46.00197" lon="6.29386">
        <ele>1287</ele>
        <time>2016-10-02T05:09:14+02:00</time>
      </trkpt>
      <trkpt lat="46.00197" lon="6.29382">
        <ele>1287</ele>
        <time>2016-10-02T05:09:16+02:00</time>
      </trkpt>
      <trkpt lat="46.00196" lon="6.29379">
        <ele>1286</ele>
        <time>2016-10-02T05:09:18+02:00</time>
      </trkpt>
      <trkpt lat="46.00195" lon="6.29376">
        <ele>1286</ele>
        <time>2016-10-02T05:09:20+02:00</time>
      </trkpt>
      <trkpt lat="46.00195" lon="6.29372">
        <ele>1286</ele>
        <time>2016-10-02T05:09:22+02:00</time>
      </trkpt>
      <trkpt lat="46.00194" lon="6.29369">
        <ele>1285</ele>
        <time>2016-10-02T05:09:24+02:00</time>
      </trkpt>
      <trkpt lat="46.00194" lon="6.29365">
        <ele>1285</ele>
        <time>2016-10-02T05:09:26+02:00</time>
      </trkpt>
      <trkpt lat="46.00193" lon="6.29362">
        <ele>1285</ele>
        <time>2016-10-02T05:09:28+02:00</time>
      </trkpt>
      <trkpt lat="46.00192" lon="6.29358">
        <ele>1285</ele>
        <time>2016-10-02T05:09:30+02:00</time>
      </trkpt>
      <trkpt lat="46.00192" lon="6.29355">
        <ele>1284</ele>
        <time>2016-10-02T05:09:32+02:00</time>
      </trkpt>
      <trkpt lat="46.00191" lon="6.29351">
        <ele>1284</ele>
        <time>2016-10-02T05:09:34+02:00</time>
      </trkpt>
      <trkpt lat="46.0019" lon="6.29349">
        <ele>1284</ele>
        <time>2016-10-02T05:09:36+02:00</time>
      </trkpt>
      <trkpt lat="46.00188" lon="6.29347">
        <ele>1284</ele>
        <time>2016-10-02T05:09:38+02:00</time>
      </trkpt>
      <trkpt lat="46.00187" lon="6.29345">
        <ele>1285</ele>
        <time>2016-10-02T05:09:40+02:00</time>
      </trkpt>
      <trkpt lat="46.00185" lon="6.29342">
        <ele>1285</ele>
        <time>2016-10-02T05:09:41+02:00</time>
      </trkpt>
      <trkpt lat="46.00184" lon="6.29339">
        <ele>1285</ele>
        <time>2016-10-02T05:09:43+02:00</time>
      </trkpt>
      <trkpt lat="46.00183" lon="6.29337">
        <ele>1285</ele>
        <time>2016-10-02T05:09:45+02:00</time>
      </trkpt>
      <trkpt lat="46.00183" lon="6.29333">
        <ele>1284</ele>
        <time>2016-10-02T05:09:47+02:00</time>
      </trkpt>
      <trkpt lat="46.00182" lon="6.2933">
        <ele>1284</ele>
        <time>2016-10-02T05:09:49+02:00</time>
      </trkpt>
      <trkpt lat="46.00182" lon="6.29327">
        <ele>1284</ele>
        <time>2016-10-02T05:09:51+02:00</time>
      </trkpt>
      <trkpt lat="46.00181" lon="6.29323">
        <ele>1283</ele>
        <time>2016-10-02T05:09:53+02:00</time>
      </trkpt>
      <trkpt lat="46.00181" lon="6.2932">
        <ele>1283</ele>
        <time>2016-10-02T05:09:55+02:00</time>
      </trkpt>
      <trkpt lat="46.0018" lon="6.29317">
        <ele>1283</ele>
        <time>2016-10-02T05:09:56+02:00</time>
      </trkpt>
      <trkpt lat="46.00179" lon="6.29315">
        <ele>1283</ele>
        <time>2016-10-02T05:09:58+02:00</time>
      </trkpt>
      <trkpt lat="46.00179" lon="6.29312">
        <ele>1282</ele>
        <time>2016-10-02T05:09:59+02:00</time>
      </trkpt>
      <trkpt lat="46.00179" lon="6.29309">
        <ele>1282</ele>
        <time>2016-10-02T05:10:01+02:00</time>
      </trkpt>
      <trkpt lat="46.00178" lon="6.29306">
        <ele>1282</ele>
        <time>2016-10-02T05:10:03+02:00</time>
      </trkpt>
      <trkpt lat="46.00177" lon="6.29303">
        <ele>1282</ele>
        <time>2016-10-02T05:10:05+02:00</time>
      </trkpt>
      <trkpt lat="46.00175" lon="6.293">
        <ele>1282</ele>
        <time>2016-10-02T05:10:07+02:00</time>
      </trkpt>
      <trkpt lat="46.00174" lon="6.29298">
        <ele>1282</ele>
        <time>2016-10-02T05:10:08+02:00</time>
      </trkpt>
      <trkpt lat="46.00173" lon="6.29296">
        <ele>1282</ele>
        <time>2016-10-02T05:10:09+02:00</time>
      </trkpt>
      <trkpt lat="46.00173" lon="6.29294">
        <ele>1282</ele>
        <time>2016-10-02T05:10:11+02:00</time>
      </trkpt>
      <trkpt lat="46.00171" lon="6.29293">
        <ele>1282</ele>
        <time>2016-10-02T05:10:12+02:00</time>
      </trkpt>
      <trkpt lat="46.0017" lon="6.29291">
        <ele>1282</ele>
        <time>2016-10-02T05:10:14+02:00</time>
      </trkpt>
      <trkpt lat="46.00169" lon="6.29289">
        <ele>1283</ele>
        <time>2016-10-02T05:10:15+02:00</time>
      </trkpt>
      <trkpt lat="46.00168" lon="6.29286">
        <ele>1283</ele>
        <time>2016-10-02T05:10:17+02:00</time>
      </trkpt>
      <trkpt lat="46.00166" lon="6.29284">
        <ele>1284</ele>
        <time>2016-10-02T05:10:19+02:00</time>
      </trkpt>
      <trkpt lat="46.00163" lon="6.29283">
        <ele>1285</ele>
        <time>2016-10-02T05:10:21+02:00</time>
      </trkpt>
      <trkpt lat="46.00162" lon="6.29282">
        <ele>1286</ele>
        <time>2016-10-02T05:10:23+02:00</time>
      </trkpt>
      <trkpt lat="46.0016" lon="6.29281">
        <ele>1287</ele>
        <time>2016-10-02T05:10:24+02:00</time>
      </trkpt>
      <trkpt lat="46.00158" lon="6.29279">
        <ele>1288</ele>
        <time>2016-10-02T05:10:26+02:00</time>
      </trkpt>
      <trkpt lat="46.00156" lon="6.29278">
        <ele>1289</ele>
        <time>2016-10-02T05:10:28+02:00</time>
      </trkpt>
      <trkpt lat="46.00155" lon="6.29275">
        <ele>1290</ele>
        <time>2016-10-02T05:10:30+02:00</time>
      </trkpt>
      <trkpt lat="46.00153" lon="6.29273">
        <ele>1291</ele>
        <time>2016-10-02T05:10:32+02:00</time>
      </trkpt>
      <trkpt lat="46.00151" lon="6.29271">
        <ele>1293</ele>
        <time>2016-10-02T05:10:34+02:00</time>
      </trkpt>
      <trkpt lat="46.0015" lon="6.2927">
        <ele>1294</ele>
        <time>2016-10-02T05:10:35+02:00</time>
      </trkpt>
      <trkpt lat="46.00148" lon="6.29269">
        <ele>1295</ele>
        <time>2016-10-02T05:10:37+02:00</time>
      </trkpt>
      <trkpt lat="46.00146" lon="6.29267">
        <ele>1296</ele>
        <time>2016-10-02T05:10:39+02:00</time>
      </trkpt>
      <trkpt lat="46.00144" lon="6.29266">
        <ele>1297</ele>
        <time>2016-10-02T05:10:40+02:00</time>
      </trkpt>
      <trkpt lat="46.00142" lon="6.29265">
        <ele>1298</ele>
        <time>2016-10-02T05:10:42+02:00</time>
      </trkpt>
      <trkpt lat="46.0014" lon="6.29264">
        <ele>1300</ele>
        <time>2016-10-02T05:10:44+02:00</time>
      </trkpt>
      <trkpt lat="46.00138" lon="6.29263">
        <ele>1301</ele>
        <time>2016-10-02T05:10:46+02:00</time>
      </trkpt>
      <trkpt lat="46.00136" lon="6.29262">
        <ele>1303</ele>
        <time>2016-10-02T05:10:48+02:00</time>
      </trkpt>
      <trkpt lat="46.00134" lon="6.29261">
        <ele>1304</ele>
        <time>2016-10-02T05:10:50+02:00</time>
      </trkpt>
      <trkpt lat="46.00132" lon="6.29259">
        <ele>1305</ele>
        <time>2016-10-02T05:10:52+02:00</time>
      </trkpt>
      <trkpt lat="46.0013" lon="6.29257">
        <ele>1306</ele>
        <time>2016-10-02T05:10:54+02:00</time>
      </trkpt>
      <trkpt lat="46.00128" lon="6.29254">
        <ele>1307</ele>
        <time>2016-10-02T05:10:56+02:00</time>
      </trkpt>
      <trkpt lat="46.00126" lon="6.29253">
        <ele>1308</ele>
        <time>2016-10-02T05:10:58+02:00</time>
      </trkpt>
      <trkpt lat="46.00124" lon="6.29251">
        <ele>1310</ele>
        <time>2016-10-02T05:11:00+02:00</time>
      </trkpt>
      <trkpt lat="46.00122" lon="6.2925">
        <ele>1311</ele>
        <time>2016-10-02T05:11:02+02:00</time>
      </trkpt>
      <trkpt lat="46.0012" lon="6.29249">
        <ele>1313</ele>
        <time>2016-10-02T05:11:04+02:00</time>
      </trkpt>
      <trkpt lat="46.00118" lon="6.29249">
        <ele>1314</ele>
        <time>2016-10-02T05:11:06+02:00</time>
      </trkpt>
      <trkpt lat="46.00116" lon="6.29249">
        <ele>1316</ele>
        <time>2016-10-02T05:11:07+02:00</time>
      </trkpt>
      <trkpt lat="46.00115" lon="6.29251">
        <ele>1317</ele>
        <time>2016-10-02T05:11:09+02:00</time>
      </trkpt>
      <trkpt lat="46.00114" lon="6.29253">
        <ele>1318</ele>
        <time>2016-10-02T05:11:10+02:00</time>
      </trkpt>
      <trkpt lat="46.00114" lon="6.29256">
        <ele>1319</ele>
        <time>2016-10-02T05:11:12+02:00</time>
      </trkpt>
      <trkpt lat="46.00113" lon="6.29259">
        <ele>1320</ele>
        <time>2016-10-02T05:11:14+02:00</time>
      </trkpt>
      <trkpt lat="46.00113" lon="6.29262">
        <ele>1320</ele>
        <time>2016-10-02T05:11:16+02:00</time>
      </trkpt>
      <trkpt lat="46.00113" lon="6.29266">
        <ele>1321</ele>
        <time>2016-10-02T05:11:18+02:00</time>
      </trkpt>
      <trkpt lat="46.00114" lon="6.29269">
        <ele>1321</ele>
        <time>2016-10-02T05:11:20+02:00</time>
      </trkpt>
      <trkpt lat="46.00114" lon="6.29272">
        <ele>1321</ele>
        <time>2016-10-02T05:11:21+02:00</time>
      </trkpt>
      <trkpt lat="46.00114" lon="6.29275">
        <ele>1322</ele>
        <time>2016-10-02T05:11:23+02:00</time>
      </trkpt>
      <trkpt lat="46.00114" lon="6.29277">
        <ele>1322</ele>
        <time>2016-10-02T05:11:24+02:00</time>
      </trkpt>
      <trkpt lat="46.00114" lon="6.2928">
        <ele>1322</ele>
        <time>2016-10-02T05:11:26+02:00</time>
      </trkpt>
      <trkpt lat="46.00115" lon="6.29283">
        <ele>1323</ele>
        <time>2016-10-02T05:11:28+02:00</time>
      </trkpt>
      <trkpt lat="46.00115" lon="6.29285">
        <ele>1323</ele>
        <time>2016-10-02T05:11:29+02:00</time>
      </trkpt>
      <trkpt lat="46.00115" lon="6.29288">
        <ele>1323</ele>
        <time>2016-10-02T05:11:31+02:00</time>
      </trkpt>
      <trkpt lat="46.00115" lon="6.2929">
        <ele>1324</ele>
        <time>2016-10-02T05:11:32+02:00</time>
      </trkpt>
      <trkpt lat="46.00115" lon="6.29292">
        <ele>1324</ele>
        <time>2016-10-02T05:11:33+02:00</time>
      </trkpt>
      <trkpt lat="46.00115" lon="6.29296">
        <ele>1324</ele>
        <time>2016-10-02T05:11:35+02:00</time>
      </trkpt>
      <trkpt lat="46.00116" lon="6.29298">
        <ele>1324</ele>
        <time>2016-10-02T05:11:37+02:00</time>
      </trkpt>
      <trkpt lat="46.00117" lon="6.293">
        <ele>1324</ele>
        <time>2016-10-02T05:11:38+02:00</time>
      </trkpt>
      <trkpt lat="46.00118" lon="6.29302">
        <ele>1323</ele>
        <time>2016-10-02T05:11:40+02:00</time>
      </trkpt>
      <trkpt lat="46.00119" lon="6.29305">
        <ele>1323</ele>
        <time>2016-10-02T05:11:41+02:00</time>
      </trkpt>
      <trkpt lat="46.00119" lon="6.29307">
        <ele>1323</ele>
        <time>2016-10-02T05:11:42+02:00</time>
      </trkpt>
      <trkpt lat="46.0012" lon="6.29309">
        <ele>1323</ele>
        <time>2016-10-02T05:11:44+02:00</time>
      </trkpt>
      <trkpt lat="46.00121" lon="6.29311">
        <ele>1323</ele>
        <time>2016-10-02T05:11:45+02:00</time>
      </trkpt>
      <trkpt lat="46.0012" lon="6.29313">
        <ele>1323</ele>
        <time>2016-10-02T05:11:46+02:00</time>
      </trkpt>
      <trkpt lat="46.0012" lon="6.29316">
        <ele>1324</ele>
        <time>2016-10-02T05:11:48+02:00</time>
      </trkpt>
      <trkpt lat="46.00121" lon="6.29318">
        <ele>1324</ele>
        <time>2016-10-02T05:11:49+02:00</time>
      </trkpt>
      <trkpt lat="46.00121" lon="6.29321">
        <ele>1324</ele>
        <time>2016-10-02T05:11:51+02:00</time>
      </trkpt>
      <trkpt lat="46.00121" lon="6.29324">
        <ele>1324</ele>
        <time>2016-10-02T05:11:53+02:00</time>
      </trkpt>
      <trkpt lat="46.00122" lon="6.29327">
        <ele>1324</ele>
        <time>2016-10-02T05:11:54+02:00</time>
      </trkpt>
      <trkpt lat="46.00123" lon="6.29329">
        <ele>1324</ele>
        <time>2016-10-02T05:11:56+02:00</time>
      </trkpt>
      <trkpt lat="46.00125" lon="6.29332">
        <ele>1323</ele>
        <time>2016-10-02T05:11:58+02:00</time>
      </trkpt>
      <trkpt lat="46.00126" lon="6.29334">
        <ele>1322</ele>
        <time>2016-10-02T05:12:00+02:00</time>
      </trkpt>
      <trkpt lat="46.00127" lon="6.29336">
        <ele>1322</ele>
        <time>2016-10-02T05:12:01+02:00</time>
      </trkpt>
      <trkpt lat="46.00127" lon="6.29339">
        <ele>1322</ele>
        <time>2016-10-02T05:12:03+02:00</time>
      </trkpt>
      <trkpt lat="46.00127" lon="6.29342">
        <ele>1323</ele>
        <time>2016-10-02T05:12:05+02:00</time>
      </trkpt>
      <trkpt lat="46.00127" lon="6.29345">
        <ele>1323</ele>
        <time>2016-10-02T05:12:06+02:00</time>
      </trkpt>
      <trkpt lat="46.00127" lon="6.29348">
        <ele>1323</ele>
        <time>2016-10-02T05:12:08+02:00</time>
      </trkpt>
      <trkpt lat="46.00127" lon="6.29351">
        <ele>1324</ele>
        <time>2016-10-02T05:12:10+02:00</time>
      </trkpt>
      <trkpt lat="46.00127" lon="6.29354">
        <ele>1325</ele>
        <time>2016-10-02T05:12:12+02:00</time>
      </trkpt>
      <trkpt lat="46.00127" lon="6.29356">
        <ele>1325</ele>
        <time>2016-10-02T05:12:13+02:00</time>
      </trkpt>
      <trkpt lat="46.00126" lon="6.29359">
        <ele>1326</ele>
        <time>2016-10-02T05:12:15+02:00</time>
      </trkpt>
      <trkpt lat="46.00126" lon="6.29363">
        <ele>1327</ele>
        <time>2016-10-02T05:12:18+02:00</time>
      </trkpt>
      <trkpt lat="46.00125" lon="6.29366">
        <ele>1329</ele>
        <time>2016-10-02T05:12:20+02:00</time>
      </trkpt>
      <trkpt lat="46.00124" lon="6.29369">
        <ele>1330</ele>
        <time>2016-10-02T05:12:22+02:00</time>
      </trkpt>
      <trkpt lat="46.00123" lon="6.29372">
        <ele>1331</ele>
        <time>2016-10-02T05:12:24+02:00</time>
      </trkpt>
      <trkpt lat="46.00123" lon="6.29375">
        <ele>1332</ele>
        <time>2016-10-02T05:12:26+02:00</time>
      </trkpt>
      <trkpt lat="46.00123" lon="6.29377">
        <ele>1332</ele>
        <time>2016-10-02T05:12:27+02:00</time>
      </trkpt>
      <trkpt lat="46.00123" lon="6.2938">
        <ele>1332</ele>
        <time>2016-10-02T05:12:29+02:00</time>
      </trkpt>
      <trkpt lat="46.00123" lon="6.29383">
        <ele>1333</ele>
        <time>2016-10-02T05:12:30+02:00</time>
      </trkpt>
      <trkpt lat="46.00123" lon="6.29386">
        <ele>1333</ele>
        <time>2016-10-02T05:12:32+02:00</time>
      </trkpt>
      <trkpt lat="46.00122" lon="6.29388">
        <ele>1334</ele>
        <time>2016-10-02T05:12:34+02:00</time>
      </trkpt>
      <trkpt lat="46.00122" lon="6.2939">
        <ele>1335</ele>
        <time>2016-10-02T05:12:35+02:00</time>
      </trkpt>
      <trkpt lat="46.00121" lon="6.29393">
        <ele>1335</ele>
        <time>2016-10-02T05:12:37+02:00</time>
      </trkpt>
      <trkpt lat="46.00121" lon="6.29396">
        <ele>1336</ele>
        <time>2016-10-02T05:12:38+02:00</time>
      </trkpt>
      <trkpt lat="46.0012" lon="6.29398">
        <ele>1337</ele>
        <time>2016-10-02T05:12:40+02:00</time>
      </trkpt>
      <trkpt lat="46.0012" lon="6.29401">
        <ele>1338</ele>
        <time>2016-10-02T05:12:42+02:00</time>
      </trkpt>
      <trkpt lat="46.00119" lon="6.29404">
        <ele>1339</ele>
        <time>2016-10-02T05:12:43+02:00</time>
      </trkpt>
      <trkpt lat="46.00119" lon="6.29407">
        <ele>1340</ele>
        <time>2016-10-02T05:12:45+02:00</time>
      </trkpt>
      <trkpt lat="46.00118" lon="6.29409">
        <ele>1340</ele>
        <time>2016-10-02T05:12:47+02:00</time>
      </trkpt>
      <trkpt lat="46.00118" lon="6.29412">
        <ele>1341</ele>
        <time>2016-10-02T05:12:48+02:00</time>
      </trkpt>
      <trkpt lat="46.00117" lon="6.29414">
        <ele>1342</ele>
        <time>2016-10-02T05:12:50+02:00</time>
      </trkpt>
      <trkpt lat="46.00117" lon="6.29416">
        <ele>1343</ele>
        <time>2016-10-02T05:12:51+02:00</time>
      </trkpt>
      <trkpt lat="46.00116" lon="6.29419">
        <ele>1343</ele>
        <time>2016-10-02T05:12:53+02:00</time>
      </trkpt>
      <trkpt lat="46.00115" lon="6.29422">
        <ele>1345</ele>
        <time>2016-10-02T05:12:55+02:00</time>
      </trkpt>
      <trkpt lat="46.00113" lon="6.29424">
        <ele>1347</ele>
        <time>2016-10-02T05:12:57+02:00</time>
      </trkpt>
      <trkpt lat="46.00112" lon="6.29426">
        <ele>1348</ele>
        <time>2016-10-02T05:12:59+02:00</time>
      </trkpt>
      <trkpt lat="46.0011" lon="6.29427">
        <ele>1350</ele>
        <time>2016-10-02T05:13:00+02:00</time>
      </trkpt>
      <trkpt lat="46.00108" lon="6.29428">
        <ele>1351</ele>
        <time>2016-10-02T05:13:02+02:00</time>
      </trkpt>
      <trkpt lat="46.00106" lon="6.2943">
        <ele>1353</ele>
        <time>2016-10-02T05:13:04+02:00</time>
      </trkpt>
      <trkpt lat="46.00104" lon="6.29432">
        <ele>1355</ele>
        <time>2016-10-02T05:13:06+02:00</time>
      </trkpt>
      <trkpt lat="46.00102" lon="6.29434">
        <ele>1356</ele>
        <time>2016-10-02T05:13:08+02:00</time>
      </trkpt>
      <trkpt lat="46.001" lon="6.29435">
        <ele>1358</ele>
        <time>2016-10-02T05:13:10+02:00</time>
      </trkpt>
      <trkpt lat="46.00099" lon="6.29437">
        <ele>1359</ele>
        <time>2016-10-02T05:13:11+02:00</time>
      </trkpt>
      <trkpt lat="46.00098" lon="6.29439">
        <ele>1361</ele>
        <time>2016-10-02T05:13:13+02:00</time>
      </trkpt>
      <trkpt lat="46.00096" lon="6.29441">
        <ele>1362</ele>
        <time>2016-10-02T05:13:15+02:00</time>
      </trkpt>
      <trkpt lat="46.00095" lon="6.29443">
        <ele>1363</ele>
        <time>2016-10-02T05:13:16+02:00</time>
      </trkpt>
      <trkpt lat="46.00094" lon="6.29445">
        <ele>1365</ele>
        <time>2016-10-02T05:13:18+02:00</time>
      </trkpt>
      <trkpt lat="46.00093" lon="6.29447">
        <ele>1366</ele>
        <time>2016-10-02T05:13:19+02:00</time>
      </trkpt>
      <trkpt lat="46.00092" lon="6.29449">
        <ele>1367</ele>
        <time>2016-10-02T05:13:21+02:00</time>
      </trkpt>
      <trkpt lat="46.00091" lon="6.29451">
        <ele>1368</ele>
        <time>2016-10-02T05:13:23+02:00</time>
      </trkpt>
      <trkpt lat="46.0009" lon="6.29453">
        <ele>1369</ele>
        <time>2016-10-02T05:13:24+02:00</time>
      </trkpt>
      <trkpt lat="46.00089" lon="6.29455">
        <ele>1370</ele>
        <time>2016-10-02T05:13:26+02:00</time>
      </trkpt>
      <trkpt lat="46.00087" lon="6.29457">
        <ele>1372</ele>
        <time>2016-10-02T05:13:28+02:00</time>
      </trkpt>
      <trkpt lat="46.00085" lon="6.29459">
        <ele>1373</ele>
        <time>2016-10-02T05:13:29+02:00</time>
      </trkpt>
      <trkpt lat="46.00084" lon="6.2946">
        <ele>1374</ele>
        <time>2016-10-02T05:13:30+02:00</time>
      </trkpt>
      <trkpt lat="46.00083" lon="6.29462">
        <ele>1375</ele>
        <time>2016-10-02T05:13:32+02:00</time>
      </trkpt>
      <trkpt lat="46.00081" lon="6.29463">
        <ele>1377</ele>
        <time>2016-10-02T05:13:34+02:00</time>
      </trkpt>
      <trkpt lat="46.00079" lon="6.29464">
        <ele>1378</ele>
        <time>2016-10-02T05:13:35+02:00</time>
      </trkpt>
      <trkpt lat="46.00078" lon="6.29464">
        <ele>1379</ele>
        <time>2016-10-02T05:13:37+02:00</time>
      </trkpt>
      <trkpt lat="46.00075" lon="6.29465">
        <ele>1380</ele>
        <time>2016-10-02T05:13:39+02:00</time>
      </trkpt>
      <trkpt lat="46.00074" lon="6.29466">
        <ele>1381</ele>
        <time>2016-10-02T05:13:40+02:00</time>
      </trkpt>
      <trkpt lat="46.00073" lon="6.29467">
        <ele>1382</ele>
        <time>2016-10-02T05:13:41+02:00</time>
      </trkpt>
      <trkpt lat="46.00071" lon="6.29467">
        <ele>1383</ele>
        <time>2016-10-02T05:13:42+02:00</time>
      </trkpt>
      <trkpt lat="46.0007" lon="6.29468">
        <ele>1384</ele>
        <time>2016-10-02T05:13:44+02:00</time>
      </trkpt>
      <trkpt lat="46.00068" lon="6.29469">
        <ele>1385</ele>
        <time>2016-10-02T05:13:45+02:00</time>
      </trkpt>
      <trkpt lat="46.00066" lon="6.29469">
        <ele>1386</ele>
        <time>2016-10-02T05:13:47+02:00</time>
      </trkpt>
      <trkpt lat="46.00064" lon="6.2947">
        <ele>1387</ele>
        <time>2016-10-02T05:13:48+02:00</time>
      </trkpt>
      <trkpt lat="46.00063" lon="6.29471">
        <ele>1389</ele>
        <time>2016-10-02T05:13:50+02:00</time>
      </trkpt>
      <trkpt lat="46.00061" lon="6.29471">
        <ele>1390</ele>
        <time>2016-10-02T05:13:51+02:00</time>
      </trkpt>
      <trkpt lat="46.00059" lon="6.29473">
        <ele>1391</ele>
        <time>2016-10-02T05:13:53+02:00</time>
      </trkpt>
      <trkpt lat="46.00057" lon="6.29474">
        <ele>1392</ele>
        <time>2016-10-02T05:13:55+02:00</time>
      </trkpt>
      <trkpt lat="46.00056" lon="6.29475">
        <ele>1393</ele>
        <time>2016-10-02T05:13:56+02:00</time>
      </trkpt>
      <trkpt lat="46.00054" lon="6.29477">
        <ele>1394</ele>
        <time>2016-10-02T05:13:58+02:00</time>
      </trkpt>
      <trkpt lat="46.00053" lon="6.29479">
        <ele>1395</ele>
        <time>2016-10-02T05:14:00+02:00</time>
      </trkpt>
      <trkpt lat="46.00052" lon="6.29481">
        <ele>1396</ele>
        <time>2016-10-02T05:14:01+02:00</time>
      </trkpt>
      <trkpt lat="46.0005" lon="6.29483">
        <ele>1396</ele>
        <time>2016-10-02T05:14:03+02:00</time>
      </trkpt>
      <trkpt lat="46.00049" lon="6.29486">
        <ele>1397</ele>
        <time>2016-10-02T05:14:05+02:00</time>
      </trkpt>
      <trkpt lat="46.00047" lon="6.29488">
        <ele>1398</ele>
        <time>2016-10-02T05:14:07+02:00</time>
      </trkpt>
      <trkpt lat="46.00046" lon="6.2949">
        <ele>1399</ele>
        <time>2016-10-02T05:14:08+02:00</time>
      </trkpt>
      <trkpt lat="46.00044" lon="6.29492">
        <ele>1400</ele>
        <time>2016-10-02T05:14:10+02:00</time>
      </trkpt>
      <trkpt lat="46.00043" lon="6.29495">
        <ele>1401</ele>
        <time>2016-10-02T05:14:12+02:00</time>
      </trkpt>
      <trkpt lat="46.00042" lon="6.29497">
        <ele>1401</ele>
        <time>2016-10-02T05:14:13+02:00</time>
      </trkpt>
      <trkpt lat="46.0004" lon="6.295">
        <ele>1402</ele>
        <time>2016-10-02T05:14:15+02:00</time>
      </trkpt>
      <trkpt lat="46.00039" lon="6.29502">
        <ele>1403</ele>
        <time>2016-10-02T05:14:17+02:00</time>
      </trkpt>
      <trkpt lat="46.00038" lon="6.29504">
        <ele>1403</ele>
        <time>2016-10-02T05:14:19+02:00</time>
      </trkpt>
      <trkpt lat="46.00037" lon="6.29506">
        <ele>1404</ele>
        <time>2016-10-02T05:14:20+02:00</time>
      </trkpt>
      <trkpt lat="46.00036" lon="6.29508">
        <ele>1404</ele>
        <time>2016-10-02T05:14:22+02:00</time>
      </trkpt>
      <trkpt lat="46.00034" lon="6.2951">
        <ele>1405</ele>
        <time>2016-10-02T05:14:23+02:00</time>
      </trkpt>
      <trkpt lat="46.00033" lon="6.29512">
        <ele>1406</ele>
        <time>2016-10-02T05:14:25+02:00</time>
      </trkpt>
      <trkpt lat="46.00032" lon="6.29515">
        <ele>1406</ele>
        <time>2016-10-02T05:14:27+02:00</time>
      </trkpt>
      <trkpt lat="46.00032" lon="6.29518">
        <ele>1406</ele>
        <time>2016-10-02T05:14:28+02:00</time>
      </trkpt>
      <trkpt lat="46.00031" lon="6.2952">
        <ele>1407</ele>
        <time>2016-10-02T05:14:30+02:00</time>
      </trkpt>
      <trkpt lat="46.0003" lon="6.29524">
        <ele>1407</ele>
        <time>2016-10-02T05:14:32+02:00</time>
      </trkpt>
      <trkpt lat="46.00029" lon="6.29525">
        <ele>1407</ele>
        <time>2016-10-02T05:14:33+02:00</time>
      </trkpt>
      <trkpt lat="46.00029" lon="6.29527">
        <ele>1408</ele>
        <time>2016-10-02T05:14:35+02:00</time>
      </trkpt>
      <trkpt lat="46.00028" lon="6.29529">
        <ele>1408</ele>
        <time>2016-10-02T05:14:36+02:00</time>
      </trkpt>
      <trkpt lat="46.00027" lon="6.29533">
        <ele>1408</ele>
        <time>2016-10-02T05:14:38+02:00</time>
      </trkpt>
      <trkpt lat="46.00027" lon="6.29537">
        <ele>1408</ele>
        <time>2016-10-02T05:14:40+02:00</time>
      </trkpt>
      <trkpt lat="46.00026" lon="6.2954">
        <ele>1408</ele>
        <time>2016-10-02T05:14:42+02:00</time>
      </trkpt>
      <trkpt lat="46.00025" lon="6.29543">
        <ele>1409</ele>
        <time>2016-10-02T05:14:44+02:00</time>
      </trkpt>
      <trkpt lat="46.00025" lon="6.29545">
        <ele>1409</ele>
        <time>2016-10-02T05:14:45+02:00</time>
      </trkpt>
      <trkpt lat="46.00023" lon="6.29546">
        <ele>1409</ele>
        <time>2016-10-02T05:14:47+02:00</time>
      </trkpt>
      <trkpt lat="46.00021" lon="6.29548">
        <ele>1410</ele>
        <time>2016-10-02T05:14:48+02:00</time>
      </trkpt>
      <trkpt lat="46.0002" lon="6.29549">
        <ele>1410</ele>
        <time>2016-10-02T05:14:50+02:00</time>
      </trkpt>
      <trkpt lat="46.00021" lon="6.2955">
        <ele>1410</ele>
        <time>2016-10-02T05:14:51+02:00</time>
      </trkpt>
      <trkpt lat="46.00054" lon="6.29604">
        <ele>1403</ele>
        <time>2016-10-02T05:15:31+02:00</time>
      </trkpt>
      <trkpt lat="46.00085" lon="6.29622">
        <ele>1398</ele>
        <time>2016-10-02T05:15:58+02:00</time>
      </trkpt>
      <trkpt lat="46.0013" lon="6.29716">
        <ele>1411</ele>
        <time>2016-10-02T05:17:02+02:00</time>
      </trkpt>
      <trkpt lat="46.00145" lon="6.29744">
        <ele>1417</ele>
        <time>2016-10-02T05:17:21+02:00</time>
      </trkpt>
      <trkpt lat="46.00166" lon="6.29773">
        <ele>1422</ele>
        <time>2016-10-02T05:17:45+02:00</time>
      </trkpt>
      <trkpt lat="46.00205" lon="6.29832">
        <ele>1424</ele>
        <time>2016-10-02T05:18:30+02:00</time>
      </trkpt>
      <trkpt lat="46.0022" lon="6.29864">
        <ele>1427</ele>
        <time>2016-10-02T05:18:52+02:00</time>
      </trkpt>
      <trkpt lat="46.00243" lon="6.29903">
        <ele>1429</ele>
        <time>2016-10-02T05:19:21+02:00</time>
      </trkpt>
      <trkpt lat="46.00262" lon="6.29925">
        <ele>1429</ele>
        <time>2016-10-02T05:19:40+02:00</time>
      </trkpt>
      <trkpt lat="46.00291" lon="6.29978">
        <ele>1434</ele>
        <time>2016-10-02T05:20:18+02:00</time>
      </trkpt>
      <trkpt lat="46.00336" lon="6.30044">
        <ele>1440</ele>
        <time>2016-10-02T05:21:10+02:00</time>
      </trkpt>
      <trkpt lat="46.00354" lon="6.3008">
        <ele>1443</ele>
        <time>2016-10-02T05:21:34+02:00</time>
      </trkpt>
      <trkpt lat="46.00382" lon="6.30114">
        <ele>1442</ele>
        <time>2016-10-02T05:22:04+02:00</time>
      </trkpt>
      <trkpt lat="46.00398" lon="6.30148">
        <ele>1444</ele>
        <time>2016-10-02T05:22:27+02:00</time>
      </trkpt>
      <trkpt lat="46.0041" lon="6.30199">
        <ele>1451</ele>
        <time>2016-10-02T05:22:57+02:00</time>
      </trkpt>
      <trkpt lat="46.00451" lon="6.30264">
        <ele>1446</ele>
        <time>2016-10-02T05:23:46+02:00</time>
      </trkpt>
      <trkpt lat="46.00456" lon="6.30342">
        <ele>1454</ele>
        <time>2016-10-02T05:24:31+02:00</time>
      </trkpt>
      <trkpt lat="46.00449" lon="6.30385">
        <ele>1455</ele>
        <time>2016-10-02T05:24:56+02:00</time>
      </trkpt>
      <trkpt lat="46.00438" lon="6.30426">
        <ele>1457</ele>
        <time>2016-10-02T05:25:20+02:00</time>
      </trkpt>
      <trkpt lat="46.00432" lon="6.30464">
        <ele>1458</ele>
        <time>2016-10-02T05:25:42+02:00</time>
      </trkpt>
      <trkpt lat="46.00423" lon="6.30502">
        <ele>1459</ele>
        <time>2016-10-02T05:26:04+02:00</time>
      </trkpt>
      <trkpt lat="46.00421" lon="6.30536">
        <ele>1465</ele>
        <time>2016-10-02T05:26:24+02:00</time>
      </trkpt>
      <trkpt lat="46.00442" lon="6.30572">
        <ele>1463</ele>
        <time>2016-10-02T05:26:50+02:00</time>
      </trkpt>
      <trkpt lat="46.00455" lon="6.30641">
        <ele>1474</ele>
        <time>2016-10-02T05:27:30+02:00</time>
      </trkpt>
      <trkpt lat="46.00472" lon="6.30687">
        <ele>1480</ele>
        <time>2016-10-02T05:28:00+02:00</time>
      </trkpt>
      <trkpt lat="46.00513" lon="6.30721">
        <ele>1483</ele>
        <time>2016-10-02T05:28:38+02:00</time>
      </trkpt>
      <trkpt lat="46.00582" lon="6.30744">
        <ele>1491</ele>
        <time>2016-10-02T05:29:35+02:00</time>
      </trkpt>
      <trkpt lat="46.0062" lon="6.30768">
        <ele>1503</ele>
        <time>2016-10-02T05:30:08+02:00</time>
      </trkpt>
      <trkpt lat="46.00644" lon="6.30781">
        <ele>1509</ele>
        <time>2016-10-02T05:30:29+02:00</time>
      </trkpt>
      <trkpt lat="46.00665" lon="6.30802">
        <ele>1517</ele>
        <time>2016-10-02T05:30:50+02:00</time>
      </trkpt>
      <trkpt lat="46.00703" lon="6.30929">
        <ele>1548</ele>
        <time>2016-10-02T05:32:10+02:00</time>
      </trkpt>
      <trkpt lat="46.00716" lon="6.30966">
        <ele>1550</ele>
        <time>2016-10-02T05:32:33+02:00</time>
      </trkpt>
      <trkpt lat="46.00725" lon="6.31001">
        <ele>1554</ele>
        <time>2016-10-02T05:32:54+02:00</time>
      </trkpt>
      <trkpt lat="46.00718" lon="6.31034">
        <ele>1564</ele>
        <time>2016-10-02T05:33:15+02:00</time>
      </trkpt>
      <trkpt lat="46.00665" lon="6.30992">
        <ele>1578</ele>
        <time>2016-10-02T05:34:05+02:00</time>
      </trkpt>
      <trkpt lat="46.00629" lon="6.30964">
        <ele>1582</ele>
        <time>2016-10-02T05:34:37+02:00</time>
      </trkpt>
      <trkpt lat="46.00605" lon="6.30957">
        <ele>1586</ele>
        <time>2016-10-02T05:34:57+02:00</time>
      </trkpt>
      <trkpt lat="46.00581" lon="6.30954">
        <ele>1592</ele>
        <time>2016-10-02T05:35:17+02:00</time>
      </trkpt>
      <trkpt lat="46.00554" lon="6.30951">
        <ele>1595</ele>
        <time>2016-10-02T05:35:38+02:00</time>
      </trkpt>
      <trkpt lat="46.0056" lon="6.30995">
        <ele>1617</ele>
        <time>2016-10-02T05:36:05+02:00</time>
      </trkpt>
      <trkpt lat="46.00585" lon="6.31046">
        <ele>1626</ele>
        <time>2016-10-02T05:36:40+02:00</time>
      </trkpt>
      <trkpt lat="46.00596" lon="6.31093">
        <ele>1636</ele>
        <time>2016-10-02T05:37:08+02:00</time>
      </trkpt>
      <trkpt lat="46.006" lon="6.31133">
        <ele>1645</ele>
        <time>2016-10-02T05:37:32+02:00</time>
      </trkpt>
      <trkpt lat="46.0061" lon="6.31186">
        <ele>1654</ele>
        <time>2016-10-02T05:38:03+02:00</time>
      </trkpt>
      <trkpt lat="46.00626" lon="6.31235">
        <ele>1660</ele>
        <time>2016-10-02T05:38:34+02:00</time>
      </trkpt>
      <trkpt lat="46.0066" lon="6.31311">
        <ele>1670</ele>
        <time>2016-10-02T05:39:26+02:00</time>
      </trkpt>
      <trkpt lat="46.0067" lon="6.31346">
        <ele>1676</ele>
        <time>2016-10-02T05:39:47+02:00</time>
      </trkpt>
      <trkpt lat="46.00677" lon="6.31385">
        <ele>1679</ele>
        <time>2016-10-02T05:40:09+02:00</time>
      </trkpt>
      <trkpt lat="46.00652" lon="6.31366">
        <ele>1693</ele>
        <time>2016-10-02T05:40:35+02:00</time>
      </trkpt>
      <trkpt lat="46.00628" lon="6.31344">
        <ele>1701</ele>
        <time>2016-10-02T05:40:59+02:00</time>
      </trkpt>
      <trkpt lat="46.00589" lon="6.31322">
        <ele>1714</ele>
        <time>2016-10-02T05:41:34+02:00</time>
      </trkpt>
      <trkpt lat="46.00569" lon="6.31309">
        <ele>1722</ele>
        <time>2016-10-02T05:41:52+02:00</time>
      </trkpt>
      <trkpt lat="46.00537" lon="6.31298">
        <ele>1743</ele>
        <time>2016-10-02T05:42:24+02:00</time>
      </trkpt>
      <trkpt lat="46.00522" lon="6.31305">
        <ele>1756</ele>
        <time>2016-10-02T05:42:41+02:00</time>
      </trkpt>
      <trkpt lat="46.00512" lon="6.31332">
        <ele>1766</ele>
        <time>2016-10-02T05:43:01+02:00</time>
      </trkpt>
      <trkpt lat="46.0048" lon="6.3135">
        <ele>1783</ele>
        <time>2016-10-02T05:43:32+02:00</time>
      </trkpt>
      <trkpt lat="46.00471" lon="6.31386">
        <ele>1791</ele>
        <time>2016-10-02T05:43:55+02:00</time>
      </trkpt>
      <trkpt lat="46.00515" lon="6.31454">
        <ele>1794</ele>
        <time>2016-10-02T05:44:47+02:00</time>
      </trkpt>
      <trkpt lat="46.00538" lon="6.31482">
        <ele>1797</ele>
        <time>2016-10-02T05:45:12+02:00</time>
      </trkpt>
      <trkpt lat="46.00545" lon="6.3153">
        <ele>1807</ele>
        <time>2016-10-02T05:45:39+02:00</time>
      </trkpt>
      <trkpt lat="46.00563" lon="6.31573">
        <ele>1815</ele>
        <time>2016-10-02T05:46:07+02:00</time>
      </trkpt>
      <trkpt lat="46.00568" lon="6.31603">
        <ele>1822</ele>
        <time>2016-10-02T05:46:25+02:00</time>
      </trkpt>
      <trkpt lat="46.00567" lon="6.3165">
        <ele>1834</ele>
        <time>2016-10-02T05:46:52+02:00</time>
      </trkpt>
      <trkpt lat="46.00552" lon="6.31689">
        <ele>1841</ele>
        <time>2016-10-02T05:47:21+02:00</time>
      </trkpt>
      <trkpt lat="46.00562" lon="6.31719">
        <ele>1845</ele>
        <time>2016-10-02T05:47:40+02:00</time>
      </trkpt>
      <trkpt lat="46.00558" lon="6.31752">
        <ele>1849</ele>
        <time>2016-10-02T05:48:00+02:00</time>
      </trkpt>
      <trkpt lat="46.00562" lon="6.31786">
        <ele>1852</ele>
        <time>2016-10-02T05:48:19+02:00</time>
      </trkpt>
      <trkpt lat="46.00553" lon="6.3188">
        <ele>1859</ele>
        <time>2016-10-02T05:49:15+02:00</time>
      </trkpt>
      <trkpt lat="46.00516" lon="6.31915">
        <ele>1873</ele>
        <time>2016-10-02T05:49:52+02:00</time>
      </trkpt>
      <trkpt lat="46.005" lon="6.31964">
        <ele>1888</ele>
        <time>2016-10-02T05:50:24+02:00</time>
      </trkpt>
      <trkpt lat="46.00491" lon="6.32018">
        <ele>1898</ele>
        <time>2016-10-02T05:50:55+02:00</time>
      </trkpt>
      <trkpt lat="46.00472" lon="6.32071">
        <ele>1909</ele>
        <time>2016-10-02T05:51:28+02:00</time>
      </trkpt>
      <trkpt lat="46.00454" lon="6.32098">
        <ele>1915</ele>
        <time>2016-10-02T05:51:51+02:00</time>
      </trkpt>
      <trkpt lat="46.00435" lon="6.32127">
        <ele>1924</ele>
        <time>2016-10-02T05:52:16+02:00</time>
      </trkpt>
      <trkpt lat="46.0043" lon="6.32155">
        <ele>1932</ele>
        <time>2016-10-02T05:52:32+02:00</time>
      </trkpt>
      <trkpt lat="46.00434" lon="6.32193">
        <ele>1937</ele>
        <time>2016-10-02T05:52:54+02:00</time>
      </trkpt>
      <trkpt lat="46.00422" lon="6.32232">
        <ele>1952</ele>
        <time>2016-10-02T05:53:19+02:00</time>
      </trkpt>
      <trkpt lat="46.0041" lon="6.32266">
        <ele>1963</ele>
        <time>2016-10-02T05:53:41+02:00</time>
      </trkpt>
      <trkpt lat="46.00406" lon="6.32301">
        <ele>1969</ele>
        <time>2016-10-02T05:54:01+02:00</time>
      </trkpt>
      <trkpt lat="46.00403" lon="6.32334">
        <ele>1975</ele>
        <time>2016-10-02T05:54:20+02:00</time>
      </trkpt>
      <trkpt lat="46.00402" lon="6.32368">
        <ele>1979</ele>
        <time>2016-10-02T05:54:39+02:00</time>
      </trkpt>
      <trkpt lat="46.00393" lon="6.32424">
        <ele>1984</ele>
        <time>2016-10-02T05:55:13+02:00</time>
      </trkpt>
      <trkpt lat="46.00381" lon="6.32445">
        <ele>1985</ele>
        <time>2016-10-02T05:55:29+02:00</time>
      </trkpt>
      <trkpt lat="46.00337" lon="6.32409">
        <ele>1984</ele>
        <time>2016-10-02T05:56:10+02:00</time>
      </trkpt>
      <trkpt lat="46.00309" lon="6.32391">
        <ele>1980</ele>
        <time>2016-10-02T05:56:35+02:00</time>
      </trkpt>
      <trkpt lat="46.00278" lon="6.32348">
        <ele>1974</ele>
        <time>2016-10-02T05:57:09+02:00</time>
      </trkpt>
      <trkpt lat="46.00255" lon="6.32305">
        <ele>1968</ele>
        <time>2016-10-02T05:57:40+02:00</time>
      </trkpt>
      <trkpt lat="46.00232" lon="6.32259">
        <ele>1962</ele>
        <time>2016-10-02T05:58:12+02:00</time>
      </trkpt>
      <trkpt lat="46.00205" lon="6.32225">
        <ele>1957</ele>
        <time>2016-10-02T05:58:41+02:00</time>
      </trkpt>
      <trkpt lat="46.00186" lon="6.32192">
        <ele>1954</ele>
        <time>2016-10-02T05:59:05+02:00</time>
      </trkpt>
      <trkpt lat="46.00159" lon="6.32134">
        <ele>1947</ele>
        <time>2016-10-02T05:59:44+02:00</time>
      </trkpt>
      <trkpt lat="46.00143" lon="6.32078">
        <ele>1941</ele>
        <time>2016-10-02T06:00:18+02:00</time>
      </trkpt>
      <trkpt lat="46.00118" lon="6.32088">
        <ele>1938</ele>
        <time>2016-10-02T06:00:39+02:00</time>
      </trkpt>
      <trkpt lat="46.00076" lon="6.32068">
        <ele>1932</ele>
        <time>2016-10-02T06:01:14+02:00</time>
      </trkpt>
      <trkpt lat="46.00056" lon="6.32045">
        <ele>1928</ele>
        <time>2016-10-02T06:01:35+02:00</time>
      </trkpt>
      <trkpt lat="46.00038" lon="6.32012">
        <ele>1925</ele>
        <time>2016-10-02T06:01:58+02:00</time>
      </trkpt>
      <trkpt lat="46.00017" lon="6.3197">
        <ele>1922</ele>
        <time>2016-10-02T06:02:27+02:00</time>
      </trkpt>
      <trkpt lat="45.9999" lon="6.31939">
        <ele>1919</ele>
        <time>2016-10-02T06:02:55+02:00</time>
      </trkpt>
      <trkpt lat="45.99951" lon="6.3187">
        <ele>1914</ele>
        <time>2016-10-02T06:03:45+02:00</time>
      </trkpt>
      <trkpt lat="45.99933" lon="6.31839">
        <ele>1914</ele>
        <time>2016-10-02T06:04:07+02:00</time>
      </trkpt>
      <trkpt lat="45.99908" lon="6.31784">
        <ele>1909</ele>
        <time>2016-10-02T06:04:44+02:00</time>
      </trkpt>
      <trkpt lat="45.99886" lon="6.31765">
        <ele>1904</ele>
        <time>2016-10-02T06:05:05+02:00</time>
      </trkpt>
      <trkpt lat="45.99873" lon="6.3173">
        <ele>1901</ele>
        <time>2016-10-02T06:05:27+02:00</time>
      </trkpt>
      <trkpt lat="45.9986" lon="6.31696">
        <ele>1899</ele>
        <time>2016-10-02T06:05:49+02:00</time>
      </trkpt>
      <trkpt lat="45.99851" lon="6.31662">
        <ele>1898</ele>
        <time>2016-10-02T06:06:09+02:00</time>
      </trkpt>
      <trkpt lat="45.99818" lon="6.31591">
        <ele>1895</ele>
        <time>2016-10-02T06:06:57+02:00</time>
      </trkpt>
      <trkpt lat="45.99809" lon="6.31555">
        <ele>1894</ele>
        <time>2016-10-02T06:07:18+02:00</time>
      </trkpt>
      <trkpt lat="45.99794" lon="6.31523">
        <ele>1892</ele>
        <time>2016-10-02T06:07:40+02:00</time>
      </trkpt>
      <trkpt lat="45.9977" lon="6.31498">
        <ele>1888</ele>
        <time>2016-10-02T06:08:03+02:00</time>
      </trkpt>
      <trkpt lat="45.99752" lon="6.31459">
        <ele>1884</ele>
        <time>2016-10-02T06:08:30+02:00</time>
      </trkpt>
      <trkpt lat="45.99747" lon="6.31424">
        <ele>1881</ele>
        <time>2016-10-02T06:08:50+02:00</time>
      </trkpt>
      <trkpt lat="45.99756" lon="6.31382">
        <ele>1875</ele>
        <time>2016-10-02T06:09:15+02:00</time>
      </trkpt>
      <trkpt lat="45.99756" lon="6.31337">
        <ele>1866</ele>
        <time>2016-10-02T06:09:42+02:00</time>
      </trkpt>
      <trkpt lat="45.99748" lon="6.3129">
        <ele>1854</ele>
        <time>2016-10-02T06:10:11+02:00</time>
      </trkpt>
      <trkpt lat="45.99744" lon="6.31255">
        <ele>1845</ele>
        <time>2016-10-02T06:10:31+02:00</time>
      </trkpt>
      <trkpt lat="45.9973" lon="6.31214">
        <ele>1838</ele>
        <time>2016-10-02T06:10:57+02:00</time>
      </trkpt>
      <trkpt lat="45.99696" lon="6.31212">
        <ele>1826</ele>
        <time>2016-10-02T06:11:25+02:00</time>
      </trkpt>
      <trkpt lat="45.99672" lon="6.31202">
        <ele>1817</ele>
        <time>2016-10-02T06:11:46+02:00</time>
      </trkpt>
      <trkpt lat="45.99641" lon="6.31161">
        <ele>1806</ele>
        <time>2016-10-02T06:12:20+02:00</time>
      </trkpt>
      <trkpt lat="45.99599" lon="6.31115">
        <ele>1794</ele>
        <time>2016-10-02T06:13:03+02:00</time>
      </trkpt>
      <trkpt lat="45.99579" lon="6.31071">
        <ele>1787</ele>
        <time>2016-10-02T06:13:33+02:00</time>
      </trkpt>
      <trkpt lat="45.99561" lon="6.31031">
        <ele>1780</ele>
        <time>2016-10-02T06:14:00+02:00</time>
      </trkpt>
      <trkpt lat="45.99538" lon="6.31028">
        <ele>1773</ele>
        <time>2016-10-02T06:14:19+02:00</time>
      </trkpt>
      <trkpt lat="45.99515" lon="6.31047">
        <ele>1766</ele>
        <time>2016-10-02T06:14:41+02:00</time>
      </trkpt>
      <trkpt lat="45.99488" lon="6.31033">
        <ele>1760</ele>
        <time>2016-10-02T06:15:05+02:00</time>
      </trkpt>
      <trkpt lat="45.99469" lon="6.31007">
        <ele>1758</ele>
        <time>2016-10-02T06:15:26+02:00</time>
      </trkpt>
      <trkpt lat="45.9945" lon="6.30987">
        <ele>1756</ele>
        <time>2016-10-02T06:15:45+02:00</time>
      </trkpt>
      <trkpt lat="45.99438" lon="6.30958">
        <ele>1754</ele>
        <time>2016-10-02T06:16:04+02:00</time>
      </trkpt>
      <trkpt lat="45.99423" lon="6.30902">
        <ele>1752</ele>
        <time>2016-10-02T06:16:38+02:00</time>
      </trkpt>
      <trkpt lat="45.99426" lon="6.30784">
        <ele>1741</ele>
        <time>2016-10-02T06:17:44+02:00</time>
      </trkpt>
      <trkpt lat="45.99435" lon="6.30687">
        <ele>1728</ele>
        <time>2016-10-02T06:18:40+02:00</time>
      </trkpt>
      <trkpt lat="45.99436" lon="6.3062">
        <ele>1718</ele>
        <time>2016-10-02T06:19:18+02:00</time>
      </trkpt>
      <trkpt lat="45.99454" lon="6.3058">
        <ele>1709</ele>
        <time>2016-10-02T06:19:46+02:00</time>
      </trkpt>
      <trkpt lat="45.99448" lon="6.30518">
        <ele>1700</ele>
        <time>2016-10-02T06:20:21+02:00</time>
      </trkpt>
      <trkpt lat="45.99405" lon="6.30339">
        <ele>1673</ele>
        <time>2016-10-02T06:22:09+02:00</time>
      </trkpt>
      <trkpt lat="45.99375" lon="6.30278">
        <ele>1662</ele>
        <time>2016-10-02T06:22:51+02:00</time>
      </trkpt>
      <trkpt lat="45.99331" lon="6.30258">
        <ele>1660</ele>
        <time>2016-10-02T06:23:28+02:00</time>
      </trkpt>
      <trkpt lat="45.99194" lon="6.30353">
        <ele>1657</ele>
        <time>2016-10-02T06:25:30+02:00</time>
      </trkpt>
      <trkpt lat="45.99103" lon="6.30497">
        <ele>1617</ele>
        <time>2016-10-02T06:27:21+02:00</time>
      </trkpt>
      <trkpt lat="45.99075" lon="6.30506">
        <ele>1605</ele>
        <time>2016-10-02T06:27:47+02:00</time>
      </trkpt>
      <trkpt lat="45.99051" lon="6.30511">
        <ele>1600</ele>
        <time>2016-10-02T06:28:09+02:00</time>
      </trkpt>
      <trkpt lat="45.99032" lon="6.30526">
        <ele>1597</ele>
        <time>2016-10-02T06:28:26+02:00</time>
      </trkpt>
      <trkpt lat="45.9902" lon="6.30529">
        <ele>1595</ele>
        <time>2016-10-02T06:28:37+02:00</time>
      </trkpt>
      <trkpt lat="45.9902" lon="6.30533">
        <ele>1595</ele>
        <time>2016-10-02T06:28:39+02:00</time>
      </trkpt>
      <trkpt lat="45.99019" lon="6.30537">
        <ele>1595</ele>
        <time>2016-10-02T06:28:41+02:00</time>
      </trkpt>
      <trkpt lat="45.99018" lon="6.3054">
        <ele>1595</ele>
        <time>2016-10-02T06:28:43+02:00</time>
      </trkpt>
      <trkpt lat="45.99017" lon="6.30543">
        <ele>1595</ele>
        <time>2016-10-02T06:28:45+02:00</time>
      </trkpt>
      <trkpt lat="45.99016" lon="6.30546">
        <ele>1595</ele>
        <time>2016-10-02T06:28:47+02:00</time>
      </trkpt>
      <trkpt lat="45.99015" lon="6.30549">
        <ele>1595</ele>
        <time>2016-10-02T06:28:49+02:00</time>
      </trkpt>
      <trkpt lat="45.99015" lon="6.30552">
        <ele>1595</ele>
        <time>2016-10-02T06:28:51+02:00</time>
      </trkpt>
      <trkpt lat="45.99014" lon="6.30555">
        <ele>1595</ele>
        <time>2016-10-02T06:28:52+02:00</time>
      </trkpt>
      <trkpt lat="45.99013" lon="6.30558">
        <ele>1595</ele>
        <time>2016-10-02T06:28:54+02:00</time>
      </trkpt>
      <trkpt lat="45.99012" lon="6.30561">
        <ele>1596</ele>
        <time>2016-10-02T06:28:56+02:00</time>
      </trkpt>
      <trkpt lat="45.99011" lon="6.30564">
        <ele>1596</ele>
        <time>2016-10-02T06:28:58+02:00</time>
      </trkpt>
      <trkpt lat="45.99009" lon="6.30567">
        <ele>1596</ele>
        <time>2016-10-02T06:29:00+02:00</time>
      </trkpt>
      <trkpt lat="45.99008" lon="6.3057">
        <ele>1595</ele>
        <time>2016-10-02T06:29:02+02:00</time>
      </trkpt>
      <trkpt lat="45.99006" lon="6.30573">
        <ele>1595</ele>
        <time>2016-10-02T06:29:04+02:00</time>
      </trkpt>
      <trkpt lat="45.99004" lon="6.30575">
        <ele>1595</ele>
        <time>2016-10-02T06:29:07+02:00</time>
      </trkpt>
      <trkpt lat="45.99002" lon="6.30578">
        <ele>1595</ele>
        <time>2016-10-02T06:29:09+02:00</time>
      </trkpt>
      <trkpt lat="45.99" lon="6.3058">
        <ele>1595</ele>
        <time>2016-10-02T06:29:11+02:00</time>
      </trkpt>
      <trkpt lat="45.98999" lon="6.30582">
        <ele>1595</ele>
        <time>2016-10-02T06:29:12+02:00</time>
      </trkpt>
      <trkpt lat="45.98997" lon="6.30584">
        <ele>1594</ele>
        <time>2016-10-02T06:29:14+02:00</time>
      </trkpt>
      <trkpt lat="45.98995" lon="6.30585">
        <ele>1594</ele>
        <time>2016-10-02T06:29:16+02:00</time>
      </trkpt>
      <trkpt lat="45.98993" lon="6.30586">
        <ele>1594</ele>
        <time>2016-10-02T06:29:18+02:00</time>
      </trkpt>
      <trkpt lat="45.98991" lon="6.30587">
        <ele>1594</ele>
        <time>2016-10-02T06:29:20+02:00</time>
      </trkpt>
      <trkpt lat="45.98989" lon="6.30589">
        <ele>1593</ele>
        <time>2016-10-02T06:29:22+02:00</time>
      </trkpt>
      <trkpt lat="45.98987" lon="6.3059">
        <ele>1593</ele>
        <time>2016-10-02T06:29:23+02:00</time>
      </trkpt>
      <trkpt lat="45.98985" lon="6.30592">
        <ele>1593</ele>
        <time>2016-10-02T06:29:25+02:00</time>
      </trkpt>
      <trkpt lat="45.98983" lon="6.30594">
        <ele>1593</ele>
        <time>2016-10-02T06:29:27+02:00</time>
      </trkpt>
      <trkpt lat="45.98981" lon="6.30595">
        <ele>1592</ele>
        <time>2016-10-02T06:29:29+02:00</time>
      </trkpt>
      <trkpt lat="45.98979" lon="6.30596">
        <ele>1592</ele>
        <time>2016-10-02T06:29:31+02:00</time>
      </trkpt>
      <trkpt lat="45.98977" lon="6.30597">
        <ele>1592</ele>
        <time>2016-10-02T06:29:33+02:00</time>
      </trkpt>
      <trkpt lat="45.98975" lon="6.30599">
        <ele>1591</ele>
        <time>2016-10-02T06:29:34+02:00</time>
      </trkpt>
      <trkpt lat="45.98973" lon="6.306">
        <ele>1591</ele>
        <time>2016-10-02T06:29:36+02:00</time>
      </trkpt>
      <trkpt lat="45.98971" lon="6.306">
        <ele>1591</ele>
        <time>2016-10-02T06:29:38+02:00</time>
      </trkpt>
      <trkpt lat="45.98968" lon="6.30601">
        <ele>1590</ele>
        <time>2016-10-02T06:29:40+02:00</time>
      </trkpt>
      <trkpt lat="45.98966" lon="6.30602">
        <ele>1590</ele>
        <time>2016-10-02T06:29:42+02:00</time>
      </trkpt>
      <trkpt lat="45.98964" lon="6.30603">
        <ele>1589</ele>
        <time>2016-10-02T06:29:44+02:00</time>
      </trkpt>
      <trkpt lat="45.98962" lon="6.30604">
        <ele>1589</ele>
        <time>2016-10-02T06:29:46+02:00</time>
      </trkpt>
      <trkpt lat="45.98959" lon="6.30604">
        <ele>1588</ele>
        <time>2016-10-02T06:29:48+02:00</time>
      </trkpt>
      <trkpt lat="45.98956" lon="6.30604">
        <ele>1588</ele>
        <time>2016-10-02T06:29:50+02:00</time>
      </trkpt>
      <trkpt lat="45.98954" lon="6.30604">
        <ele>1587</ele>
        <time>2016-10-02T06:29:52+02:00</time>
      </trkpt>
      <trkpt lat="45.98951" lon="6.30604">
        <ele>1587</ele>
        <time>2016-10-02T06:29:54+02:00</time>
      </trkpt>
      <trkpt lat="45.98949" lon="6.30604">
        <ele>1586</ele>
        <time>2016-10-02T06:29:56+02:00</time>
      </trkpt>
      <trkpt lat="45.98946" lon="6.30604">
        <ele>1586</ele>
        <time>2016-10-02T06:29:58+02:00</time>
      </trkpt>
      <trkpt lat="45.98944" lon="6.30605">
        <ele>1585</ele>
        <time>2016-10-02T06:30:00+02:00</time>
      </trkpt>
      <trkpt lat="45.98942" lon="6.30605">
        <ele>1585</ele>
        <time>2016-10-02T06:30:02+02:00</time>
      </trkpt>
      <trkpt lat="45.98939" lon="6.30606">
        <ele>1584</ele>
        <time>2016-10-02T06:30:04+02:00</time>
      </trkpt>
      <trkpt lat="45.98937" lon="6.30606">
        <ele>1584</ele>
        <time>2016-10-02T06:30:06+02:00</time>
      </trkpt>
      <trkpt lat="45.98935" lon="6.30607">
        <ele>1583</ele>
        <time>2016-10-02T06:30:08+02:00</time>
      </trkpt>
      <trkpt lat="45.98932" lon="6.30608">
        <ele>1583</ele>
        <time>2016-10-02T06:30:10+02:00</time>
      </trkpt>
      <trkpt lat="45.9893" lon="6.30609">
        <ele>1582</ele>
        <time>2016-10-02T06:30:12+02:00</time>
      </trkpt>
      <trkpt lat="45.98928" lon="6.3061">
        <ele>1581</ele>
        <time>2016-10-02T06:30:14+02:00</time>
      </trkpt>
      <trkpt lat="45.98925" lon="6.30613">
        <ele>1581</ele>
        <time>2016-10-02T06:30:16+02:00</time>
      </trkpt>
      <trkpt lat="45.98923" lon="6.30615">
        <ele>1580</ele>
        <time>2016-10-02T06:30:19+02:00</time>
      </trkpt>
      <trkpt lat="45.98921" lon="6.30618">
        <ele>1580</ele>
        <time>2016-10-02T06:30:21+02:00</time>
      </trkpt>
      <trkpt lat="45.9892" lon="6.30621">
        <ele>1579</ele>
        <time>2016-10-02T06:30:23+02:00</time>
      </trkpt>
      <trkpt lat="45.98918" lon="6.30623">
        <ele>1579</ele>
        <time>2016-10-02T06:30:25+02:00</time>
      </trkpt>
      <trkpt lat="45.98916" lon="6.30626">
        <ele>1578</ele>
        <time>2016-10-02T06:30:27+02:00</time>
      </trkpt>
      <trkpt lat="45.98914" lon="6.30629">
        <ele>1578</ele>
        <time>2016-10-02T06:30:29+02:00</time>
      </trkpt>
      <trkpt lat="45.98912" lon="6.30632">
        <ele>1578</ele>
        <time>2016-10-02T06:30:32+02:00</time>
      </trkpt>
      <trkpt lat="45.9891" lon="6.30635">
        <ele>1577</ele>
        <time>2016-10-02T06:30:34+02:00</time>
      </trkpt>
      <trkpt lat="45.98908" lon="6.30637">
        <ele>1577</ele>
        <time>2016-10-02T06:30:36+02:00</time>
      </trkpt>
      <trkpt lat="45.98906" lon="6.3064">
        <ele>1577</ele>
        <time>2016-10-02T06:30:38+02:00</time>
      </trkpt>
      <trkpt lat="45.98905" lon="6.30643">
        <ele>1576</ele>
        <time>2016-10-02T06:30:41+02:00</time>
      </trkpt>
      <trkpt lat="45.98903" lon="6.30646">
        <ele>1576</ele>
        <time>2016-10-02T06:30:43+02:00</time>
      </trkpt>
      <trkpt lat="45.98902" lon="6.3065">
        <ele>1576</ele>
        <time>2016-10-02T06:30:45+02:00</time>
      </trkpt>
      <trkpt lat="45.98901" lon="6.30653">
        <ele>1575</ele>
        <time>2016-10-02T06:30:47+02:00</time>
      </trkpt>
      <trkpt lat="45.989" lon="6.30657">
        <ele>1575</ele>
        <time>2016-10-02T06:30:49+02:00</time>
      </trkpt>
      <trkpt lat="45.98899" lon="6.30661">
        <ele>1574</ele>
        <time>2016-10-02T06:30:52+02:00</time>
      </trkpt>
      <trkpt lat="45.98898" lon="6.30665">
        <ele>1574</ele>
        <time>2016-10-02T06:30:54+02:00</time>
      </trkpt>
      <trkpt lat="45.98898" lon="6.30669">
        <ele>1574</ele>
        <time>2016-10-02T06:30:56+02:00</time>
      </trkpt>
      <trkpt lat="45.98899" lon="6.30673">
        <ele>1574</ele>
        <time>2016-10-02T06:30:59+02:00</time>
      </trkpt>
      <trkpt lat="45.98899" lon="6.30677">
        <ele>1574</ele>
        <time>2016-10-02T06:31:01+02:00</time>
      </trkpt>
      <trkpt lat="45.98899" lon="6.30682">
        <ele>1574</ele>
        <time>2016-10-02T06:31:04+02:00</time>
      </trkpt>
      <trkpt lat="45.989" lon="6.30687">
        <ele>1574</ele>
        <time>2016-10-02T06:31:06+02:00</time>
      </trkpt>
      <trkpt lat="45.989" lon="6.30691">
        <ele>1574</ele>
        <time>2016-10-02T06:31:09+02:00</time>
      </trkpt>
      <trkpt lat="45.989" lon="6.30695">
        <ele>1574</ele>
        <time>2016-10-02T06:31:11+02:00</time>
      </trkpt>
      <trkpt lat="45.989" lon="6.30698">
        <ele>1574</ele>
        <time>2016-10-02T06:31:13+02:00</time>
      </trkpt>
      <trkpt lat="45.98899" lon="6.30702">
        <ele>1574</ele>
        <time>2016-10-02T06:31:15+02:00</time>
      </trkpt>
      <trkpt lat="45.98899" lon="6.30706">
        <ele>1574</ele>
        <time>2016-10-02T06:31:17+02:00</time>
      </trkpt>
      <trkpt lat="45.98898" lon="6.3071">
        <ele>1573</ele>
        <time>2016-10-02T06:31:20+02:00</time>
      </trkpt>
      <trkpt lat="45.98898" lon="6.30714">
        <ele>1573</ele>
        <time>2016-10-02T06:31:22+02:00</time>
      </trkpt>
      <trkpt lat="45.98897" lon="6.30718">
        <ele>1573</ele>
        <time>2016-10-02T06:31:24+02:00</time>
      </trkpt>
      <trkpt lat="45.98897" lon="6.30722">
        <ele>1573</ele>
        <time>2016-10-02T06:31:26+02:00</time>
      </trkpt>
      <trkpt lat="45.98896" lon="6.30726">
        <ele>1573</ele>
        <time>2016-10-02T06:31:29+02:00</time>
      </trkpt>
      <trkpt lat="45.98896" lon="6.3073">
        <ele>1573</ele>
        <time>2016-10-02T06:31:31+02:00</time>
      </trkpt>
      <trkpt lat="45.98896" lon="6.30734">
        <ele>1573</ele>
        <time>2016-10-02T06:31:33+02:00</time>
      </trkpt>
      <trkpt lat="45.98896" lon="6.30738">
        <ele>1573</ele>
        <time>2016-10-02T06:31:36+02:00</time>
      </trkpt>
      <trkpt lat="45.98895" lon="6.30742">
        <ele>1572</ele>
        <time>2016-10-02T06:31:38+02:00</time>
      </trkpt>
      <trkpt lat="45.98895" lon="6.30747">
        <ele>1572</ele>
        <time>2016-10-02T06:31:40+02:00</time>
      </trkpt>
      <trkpt lat="45.98895" lon="6.3075">
        <ele>1572</ele>
        <time>2016-10-02T06:31:42+02:00</time>
      </trkpt>
      <trkpt lat="45.98894" lon="6.30754">
        <ele>1572</ele>
        <time>2016-10-02T06:31:45+02:00</time>
      </trkpt>
      <trkpt lat="45.98894" lon="6.30758">
        <ele>1572</ele>
        <time>2016-10-02T06:31:47+02:00</time>
      </trkpt>
      <trkpt lat="45.98893" lon="6.30762">
        <ele>1572</ele>
        <time>2016-10-02T06:31:49+02:00</time>
      </trkpt>
      <trkpt lat="45.98892" lon="6.30766">
        <ele>1572</ele>
        <time>2016-10-02T06:31:52+02:00</time>
      </trkpt>
      <trkpt lat="45.98891" lon="6.3077">
        <ele>1572</ele>
        <time>2016-10-02T06:31:54+02:00</time>
      </trkpt>
      <trkpt lat="45.98891" lon="6.30774">
        <ele>1571</ele>
        <time>2016-10-02T06:31:56+02:00</time>
      </trkpt>
      <trkpt lat="45.9889" lon="6.30778">
        <ele>1571</ele>
        <time>2016-10-02T06:31:58+02:00</time>
      </trkpt>
      <trkpt lat="45.98889" lon="6.30781">
        <ele>1571</ele>
        <time>2016-10-02T06:32:01+02:00</time>
      </trkpt>
      <trkpt lat="45.98888" lon="6.30785">
        <ele>1571</ele>
        <time>2016-10-02T06:32:03+02:00</time>
      </trkpt>
      <trkpt lat="45.98886" lon="6.30789">
        <ele>1570</ele>
        <time>2016-10-02T06:32:05+02:00</time>
      </trkpt>
      <trkpt lat="45.98886" lon="6.30792">
        <ele>1570</ele>
        <time>2016-10-02T06:32:08+02:00</time>
      </trkpt>
      <trkpt lat="45.98885" lon="6.30796">
        <ele>1570</ele>
        <time>2016-10-02T06:32:10+02:00</time>
      </trkpt>
      <trkpt lat="45.98884" lon="6.308">
        <ele>1569</ele>
        <time>2016-10-02T06:32:12+02:00</time>
      </trkpt>
      <trkpt lat="45.98882" lon="6.30803">
        <ele>1569</ele>
        <time>2016-10-02T06:32:14+02:00</time>
      </trkpt>
      <trkpt lat="45.98881" lon="6.30807">
        <ele>1569</ele>
        <time>2016-10-02T06:32:17+02:00</time>
      </trkpt>
      <trkpt lat="45.9888" lon="6.3081">
        <ele>1568</ele>
        <time>2016-10-02T06:32:19+02:00</time>
      </trkpt>
      <trkpt lat="45.98879" lon="6.30813">
        <ele>1568</ele>
        <time>2016-10-02T06:32:21+02:00</time>
      </trkpt>
      <trkpt lat="45.98878" lon="6.30816">
        <ele>1568</ele>
        <time>2016-10-02T06:32:23+02:00</time>
      </trkpt>
      <trkpt lat="45.98877" lon="6.3082">
        <ele>1567</ele>
        <time>2016-10-02T06:32:25+02:00</time>
      </trkpt>
      <trkpt lat="45.98876" lon="6.30823">
        <ele>1567</ele>
        <time>2016-10-02T06:32:27+02:00</time>
      </trkpt>
      <trkpt lat="45.98875" lon="6.30826">
        <ele>1567</ele>
        <time>2016-10-02T06:32:29+02:00</time>
      </trkpt>
      <trkpt lat="45.98875" lon="6.30829">
        <ele>1566</ele>
        <time>2016-10-02T06:32:31+02:00</time>
      </trkpt>
      <trkpt lat="45.98874" lon="6.30832">
        <ele>1566</ele>
        <time>2016-10-02T06:32:32+02:00</time>
      </trkpt>
      <trkpt lat="45.98873" lon="6.30835">
        <ele>1566</ele>
        <time>2016-10-02T06:32:34+02:00</time>
      </trkpt>
      <trkpt lat="45.98872" lon="6.30838">
        <ele>1565</ele>
        <time>2016-10-02T06:32:36+02:00</time>
      </trkpt>
      <trkpt lat="45.98871" lon="6.3084">
        <ele>1565</ele>
        <time>2016-10-02T06:32:38+02:00</time>
      </trkpt>
      <trkpt lat="45.9887" lon="6.30844">
        <ele>1565</ele>
        <time>2016-10-02T06:32:40+02:00</time>
      </trkpt>
      <trkpt lat="45.98869" lon="6.30847">
        <ele>1564</ele>
        <time>2016-10-02T06:32:42+02:00</time>
      </trkpt>
      <trkpt lat="45.98868" lon="6.3085">
        <ele>1564</ele>
        <time>2016-10-02T06:32:44+02:00</time>
      </trkpt>
      <trkpt lat="45.98867" lon="6.30853">
        <ele>1563</ele>
        <time>2016-10-02T06:32:46+02:00</time>
      </trkpt>
      <trkpt lat="45.98866" lon="6.30856">
        <ele>1563</ele>
        <time>2016-10-02T06:32:48+02:00</time>
      </trkpt>
      <trkpt lat="45.98865" lon="6.30859">
        <ele>1563</ele>
        <time>2016-10-02T06:32:50+02:00</time>
      </trkpt>
      <trkpt lat="45.98864" lon="6.30863">
        <ele>1562</ele>
        <time>2016-10-02T06:32:52+02:00</time>
      </trkpt>
      <trkpt lat="45.98863" lon="6.30866">
        <ele>1562</ele>
        <time>2016-10-02T06:32:54+02:00</time>
      </trkpt>
      <trkpt lat="45.98862" lon="6.3087">
        <ele>1561</ele>
        <time>2016-10-02T06:32:56+02:00</time>
      </trkpt>
      <trkpt lat="45.98861" lon="6.30873">
        <ele>1561</ele>
        <time>2016-10-02T06:32:58+02:00</time>
      </trkpt>
      <trkpt lat="45.98861" lon="6.30876">
        <ele>1561</ele>
        <time>2016-10-02T06:33:00+02:00</time>
      </trkpt>
      <trkpt lat="45.9886" lon="6.30879">
        <ele>1560</ele>
        <time>2016-10-02T06:33:02+02:00</time>
      </trkpt>
      <trkpt lat="45.98859" lon="6.30883">
        <ele>1560</ele>
        <time>2016-10-02T06:33:04+02:00</time>
      </trkpt>
      <trkpt lat="45.98858" lon="6.30886">
        <ele>1560</ele>
        <time>2016-10-02T06:33:06+02:00</time>
      </trkpt>
      <trkpt lat="45.98858" lon="6.30889">
        <ele>1559</ele>
        <time>2016-10-02T06:33:08+02:00</time>
      </trkpt>
      <trkpt lat="45.98857" lon="6.30892">
        <ele>1559</ele>
        <time>2016-10-02T06:33:10+02:00</time>
      </trkpt>
      <trkpt lat="45.98856" lon="6.30896">
        <ele>1558</ele>
        <time>2016-10-02T06:33:12+02:00</time>
      </trkpt>
      <trkpt lat="45.98855" lon="6.30899">
        <ele>1558</ele>
        <time>2016-10-02T06:33:14+02:00</time>
      </trkpt>
      <trkpt lat="45.98854" lon="6.30903">
        <ele>1557</ele>
        <time>2016-10-02T06:33:16+02:00</time>
      </trkpt>
      <trkpt lat="45.98854" lon="6.30906">
        <ele>1557</ele>
        <time>2016-10-02T06:33:18+02:00</time>
      </trkpt>
      <trkpt lat="45.98853" lon="6.3091">
        <ele>1557</ele>
        <time>2016-10-02T06:33:21+02:00</time>
      </trkpt>
      <trkpt lat="45.98852" lon="6.30913">
        <ele>1556</ele>
        <time>2016-10-02T06:33:23+02:00</time>
      </trkpt>
      <trkpt lat="45.98852" lon="6.30917">
        <ele>1556</ele>
        <time>2016-10-02T06:33:25+02:00</time>
      </trkpt>
      <trkpt lat="45.98852" lon="6.30921">
        <ele>1556</ele>
        <time>2016-10-02T06:33:27+02:00</time>
      </trkpt>
      <trkpt lat="45.98852" lon="6.30925">
        <ele>1556</ele>
        <time>2016-10-02T06:33:29+02:00</time>
      </trkpt>
      <trkpt lat="45.98852" lon="6.30928">
        <ele>1555</ele>
        <time>2016-10-02T06:33:31+02:00</time>
      </trkpt>
      <trkpt lat="45.98852" lon="6.30932">
        <ele>1555</ele>
        <time>2016-10-02T06:33:33+02:00</time>
      </trkpt>
      <trkpt lat="45.98852" lon="6.30935">
        <ele>1555</ele>
        <time>2016-10-02T06:33:35+02:00</time>
      </trkpt>
      <trkpt lat="45.98851" lon="6.30939">
        <ele>1555</ele>
        <time>2016-10-02T06:33:37+02:00</time>
      </trkpt>
      <trkpt lat="45.98851" lon="6.30943">
        <ele>1555</ele>
        <time>2016-10-02T06:33:39+02:00</time>
      </trkpt>
      <trkpt lat="45.9885" lon="6.30947">
        <ele>1554</ele>
        <time>2016-10-02T06:33:41+02:00</time>
      </trkpt>
      <trkpt lat="45.9885" lon="6.3095">
        <ele>1554</ele>
        <time>2016-10-02T06:33:44+02:00</time>
      </trkpt>
      <trkpt lat="45.98849" lon="6.30953">
        <ele>1553</ele>
        <time>2016-10-02T06:33:46+02:00</time>
      </trkpt>
      <trkpt lat="45.98848" lon="6.30957">
        <ele>1553</ele>
        <time>2016-10-02T06:33:48+02:00</time>
      </trkpt>
      <trkpt lat="45.98847" lon="6.3096">
        <ele>1552</ele>
        <time>2016-10-02T06:33:50+02:00</time>
      </trkpt>
      <trkpt lat="45.98846" lon="6.30963">
        <ele>1551</ele>
        <time>2016-10-02T06:33:52+02:00</time>
      </trkpt>
      <trkpt lat="45.98844" lon="6.30966">
        <ele>1551</ele>
        <time>2016-10-02T06:33:54+02:00</time>
      </trkpt>
      <trkpt lat="45.98843" lon="6.30969">
        <ele>1550</ele>
        <time>2016-10-02T06:33:56+02:00</time>
      </trkpt>
      <trkpt lat="45.98841" lon="6.30973">
        <ele>1549</ele>
        <time>2016-10-02T06:33:58+02:00</time>
      </trkpt>
      <trkpt lat="45.9884" lon="6.30976">
        <ele>1548</ele>
        <time>2016-10-02T06:34:00+02:00</time>
      </trkpt>
      <trkpt lat="45.98839" lon="6.30979">
        <ele>1548</ele>
        <time>2016-10-02T06:34:02+02:00</time>
      </trkpt>
      <trkpt lat="45.98839" lon="6.30982">
        <ele>1547</ele>
        <time>2016-10-02T06:34:04+02:00</time>
      </trkpt>
      <trkpt lat="45.98838" lon="6.30985">
        <ele>1547</ele>
        <time>2016-10-02T06:34:06+02:00</time>
      </trkpt>
      <trkpt lat="45.98838" lon="6.30989">
        <ele>1547</ele>
        <time>2016-10-02T06:34:08+02:00</time>
      </trkpt>
      <trkpt lat="45.98837" lon="6.30992">
        <ele>1546</ele>
        <time>2016-10-02T06:34:10+02:00</time>
      </trkpt>
      <trkpt lat="45.98837" lon="6.30995">
        <ele>1546</ele>
        <time>2016-10-02T06:34:12+02:00</time>
      </trkpt>
      <trkpt lat="45.98836" lon="6.30999">
        <ele>1545</ele>
        <time>2016-10-02T06:34:14+02:00</time>
      </trkpt>
      <trkpt lat="45.98836" lon="6.31003">
        <ele>1545</ele>
        <time>2016-10-02T06:34:16+02:00</time>
      </trkpt>
      <trkpt lat="45.98835" lon="6.31006">
        <ele>1545</ele>
        <time>2016-10-02T06:34:18+02:00</time>
      </trkpt>
      <trkpt lat="45.98835" lon="6.3101">
        <ele>1545</ele>
        <time>2016-10-02T06:34:20+02:00</time>
      </trkpt>
      <trkpt lat="45.98835" lon="6.31014">
        <ele>1545</ele>
        <time>2016-10-02T06:34:23+02:00</time>
      </trkpt>
      <trkpt lat="45.98834" lon="6.31018">
        <ele>1545</ele>
        <time>2016-10-02T06:34:25+02:00</time>
      </trkpt>
      <trkpt lat="45.98835" lon="6.31021">
        <ele>1545</ele>
        <time>2016-10-02T06:34:27+02:00</time>
      </trkpt>
      <trkpt lat="45.98835" lon="6.31025">
        <ele>1545</ele>
        <time>2016-10-02T06:34:29+02:00</time>
      </trkpt>
      <trkpt lat="45.98835" lon="6.31029">
        <ele>1545</ele>
        <time>2016-10-02T06:34:31+02:00</time>
      </trkpt>
      <trkpt lat="45.98835" lon="6.31032">
        <ele>1545</ele>
        <time>2016-10-02T06:34:33+02:00</time>
      </trkpt>
      <trkpt lat="45.98835" lon="6.31036">
        <ele>1545</ele>
        <time>2016-10-02T06:34:35+02:00</time>
      </trkpt>
      <trkpt lat="45.98835" lon="6.31039">
        <ele>1545</ele>
        <time>2016-10-02T06:34:37+02:00</time>
      </trkpt>
      <trkpt lat="45.98836" lon="6.31043">
        <ele>1546</ele>
        <time>2016-10-02T06:34:39+02:00</time>
      </trkpt>
      <trkpt lat="45.98836" lon="6.31047">
        <ele>1546</ele>
        <time>2016-10-02T06:34:41+02:00</time>
      </trkpt>
      <trkpt lat="45.98836" lon="6.31051">
        <ele>1546</ele>
        <time>2016-10-02T06:34:43+02:00</time>
      </trkpt>
      <trkpt lat="45.98836" lon="6.31054">
        <ele>1546</ele>
        <time>2016-10-02T06:34:45+02:00</time>
      </trkpt>
      <trkpt lat="45.98837" lon="6.31058">
        <ele>1546</ele>
        <time>2016-10-02T06:34:48+02:00</time>
      </trkpt>
      <trkpt lat="45.98837" lon="6.31062">
        <ele>1546</ele>
        <time>2016-10-02T06:34:50+02:00</time>
      </trkpt>
      <trkpt lat="45.98837" lon="6.31066">
        <ele>1546</ele>
        <time>2016-10-02T06:34:52+02:00</time>
      </trkpt>
      <trkpt lat="45.98837" lon="6.31069">
        <ele>1546</ele>
        <time>2016-10-02T06:34:54+02:00</time>
      </trkpt>
      <trkpt lat="45.98838" lon="6.31072">
        <ele>1547</ele>
        <time>2016-10-02T06:34:56+02:00</time>
      </trkpt>
      <trkpt lat="45.98838" lon="6.31076">
        <ele>1547</ele>
        <time>2016-10-02T06:34:58+02:00</time>
      </trkpt>
      <trkpt lat="45.98838" lon="6.31079">
        <ele>1547</ele>
        <time>2016-10-02T06:35:00+02:00</time>
      </trkpt>
      <trkpt lat="45.98838" lon="6.31083">
        <ele>1547</ele>
        <time>2016-10-02T06:35:01+02:00</time>
      </trkpt>
      <trkpt lat="45.98838" lon="6.31086">
        <ele>1547</ele>
        <time>2016-10-02T06:35:03+02:00</time>
      </trkpt>
      <trkpt lat="45.98838" lon="6.31089">
        <ele>1547</ele>
        <time>2016-10-02T06:35:05+02:00</time>
      </trkpt>
      <trkpt lat="45.98838" lon="6.31093">
        <ele>1547</ele>
        <time>2016-10-02T06:35:07+02:00</time>
      </trkpt>
      <trkpt lat="45.98839" lon="6.31097">
        <ele>1548</ele>
        <time>2016-10-02T06:35:10+02:00</time>
      </trkpt>
      <trkpt lat="45.98838" lon="6.31101">
        <ele>1548</ele>
        <time>2016-10-02T06:35:12+02:00</time>
      </trkpt>
      <trkpt lat="45.98837" lon="6.31104">
        <ele>1547</ele>
        <time>2016-10-02T06:35:14+02:00</time>
      </trkpt>
      <trkpt lat="45.98836" lon="6.31108">
        <ele>1547</ele>
        <time>2016-10-02T06:35:16+02:00</time>
      </trkpt>
      <trkpt lat="45.98835" lon="6.31111">
        <ele>1547</ele>
        <time>2016-10-02T06:35:18+02:00</time>
      </trkpt>
      <trkpt lat="45.98834" lon="6.31114">
        <ele>1546</ele>
        <time>2016-10-02T06:35:20+02:00</time>
      </trkpt>
      <trkpt lat="45.98833" lon="6.31117">
        <ele>1546</ele>
        <time>2016-10-02T06:35:22+02:00</time>
      </trkpt>
      <trkpt lat="45.98831" lon="6.3112">
        <ele>1545</ele>
        <time>2016-10-02T06:35:24+02:00</time>
      </trkpt>
      <trkpt lat="45.98829" lon="6.31123">
        <ele>1545</ele>
        <time>2016-10-02T06:35:27+02:00</time>
      </trkpt>
      <trkpt lat="45.98827" lon="6.31126">
        <ele>1544</ele>
        <time>2016-10-02T06:35:29+02:00</time>
      </trkpt>
      <trkpt lat="45.98826" lon="6.31128">
        <ele>1543</ele>
        <time>2016-10-02T06:35:31+02:00</time>
      </trkpt>
      <trkpt lat="45.98824" lon="6.31131">
        <ele>1543</ele>
        <time>2016-10-02T06:35:33+02:00</time>
      </trkpt>
      <trkpt lat="45.98822" lon="6.31133">
        <ele>1542</ele>
        <time>2016-10-02T06:35:35+02:00</time>
      </trkpt>
      <trkpt lat="45.9882" lon="6.31136">
        <ele>1541</ele>
        <time>2016-10-02T06:35:37+02:00</time>
      </trkpt>
      <trkpt lat="45.98818" lon="6.31138">
        <ele>1541</ele>
        <time>2016-10-02T06:35:39+02:00</time>
      </trkpt>
      <trkpt lat="45.98816" lon="6.31141">
        <ele>1540</ele>
        <time>2016-10-02T06:35:41+02:00</time>
      </trkpt>
      <trkpt lat="45.98815" lon="6.31143">
        <ele>1539</ele>
        <time>2016-10-02T06:35:43+02:00</time>
      </trkpt>
      <trkpt lat="45.98813" lon="6.31145">
        <ele>1539</ele>
        <time>2016-10-02T06:35:45+02:00</time>
      </trkpt>
      <trkpt lat="45.98811" lon="6.31148">
        <ele>1538</ele>
        <time>2016-10-02T06:35:47+02:00</time>
      </trkpt>
      <trkpt lat="45.98809" lon="6.3115">
        <ele>1537</ele>
        <time>2016-10-02T06:35:49+02:00</time>
      </trkpt>
      <trkpt lat="45.98807" lon="6.31153">
        <ele>1537</ele>
        <time>2016-10-02T06:35:51+02:00</time>
      </trkpt>
      <trkpt lat="45.98806" lon="6.31156">
        <ele>1536</ele>
        <time>2016-10-02T06:35:53+02:00</time>
      </trkpt>
      <trkpt lat="45.98804" lon="6.31159">
        <ele>1536</ele>
        <time>2016-10-02T06:35:56+02:00</time>
      </trkpt>
      <trkpt lat="45.98802" lon="6.31162">
        <ele>1535</ele>
        <time>2016-10-02T06:35:58+02:00</time>
      </trkpt>
      <trkpt lat="45.988" lon="6.31164">
        <ele>1534</ele>
        <time>2016-10-02T06:36:00+02:00</time>
      </trkpt>
      <trkpt lat="45.98799" lon="6.31166">
        <ele>1534</ele>
        <time>2016-10-02T06:36:02+02:00</time>
      </trkpt>
      <trkpt lat="45.98797" lon="6.31169">
        <ele>1533</ele>
        <time>2016-10-02T06:36:03+02:00</time>
      </trkpt>
      <trkpt lat="45.98795" lon="6.31171">
        <ele>1533</ele>
        <time>2016-10-02T06:36:05+02:00</time>
      </trkpt>
      <trkpt lat="45.98793" lon="6.31173">
        <ele>1532</ele>
        <time>2016-10-02T06:36:08+02:00</time>
      </trkpt>
      <trkpt lat="45.98791" lon="6.31175">
        <ele>1531</ele>
        <time>2016-10-02T06:36:10+02:00</time>
      </trkpt>
      <trkpt lat="45.98789" lon="6.31177">
        <ele>1531</ele>
        <time>2016-10-02T06:36:12+02:00</time>
      </trkpt>
      <trkpt lat="45.98787" lon="6.31179">
        <ele>1530</ele>
        <time>2016-10-02T06:36:14+02:00</time>
      </trkpt>
      <trkpt lat="45.98785" lon="6.31181">
        <ele>1529</ele>
        <time>2016-10-02T06:36:16+02:00</time>
      </trkpt>
      <trkpt lat="45.98783" lon="6.31183">
        <ele>1529</ele>
        <time>2016-10-02T06:36:18+02:00</time>
      </trkpt>
      <trkpt lat="45.9878" lon="6.31184">
        <ele>1528</ele>
        <time>2016-10-02T06:36:20+02:00</time>
      </trkpt>
      <trkpt lat="45.98778" lon="6.31186">
        <ele>1527</ele>
        <time>2016-10-02T06:36:22+02:00</time>
      </trkpt>
      <trkpt lat="45.98776" lon="6.31188">
        <ele>1526</ele>
        <time>2016-10-02T06:36:24+02:00</time>
      </trkpt>
      <trkpt lat="45.98773" lon="6.31189">
        <ele>1525</ele>
        <time>2016-10-02T06:36:26+02:00</time>
      </trkpt>
      <trkpt lat="45.9877" lon="6.3119">
        <ele>1524</ele>
        <time>2016-10-02T06:36:29+02:00</time>
      </trkpt>
      <trkpt lat="45.98767" lon="6.31191">
        <ele>1523</ele>
        <time>2016-10-02T06:36:31+02:00</time>
      </trkpt>
      <trkpt lat="45.98765" lon="6.31191">
        <ele>1522</ele>
        <time>2016-10-02T06:36:34+02:00</time>
      </trkpt>
      <trkpt lat="45.98762" lon="6.31192">
        <ele>1521</ele>
        <time>2016-10-02T06:36:36+02:00</time>
      </trkpt>
      <trkpt lat="45.98759" lon="6.31193">
        <ele>1520</ele>
        <time>2016-10-02T06:36:38+02:00</time>
      </trkpt>
      <trkpt lat="45.98757" lon="6.31194">
        <ele>1519</ele>
        <time>2016-10-02T06:36:40+02:00</time>
      </trkpt>
      <trkpt lat="45.98754" lon="6.31196">
        <ele>1518</ele>
        <time>2016-10-02T06:36:43+02:00</time>
      </trkpt>
      <trkpt lat="45.98752" lon="6.31197">
        <ele>1518</ele>
        <time>2016-10-02T06:36:45+02:00</time>
      </trkpt>
      <trkpt lat="45.9875" lon="6.31199">
        <ele>1517</ele>
        <time>2016-10-02T06:36:47+02:00</time>
      </trkpt>
      <trkpt lat="45.98747" lon="6.31201">
        <ele>1516</ele>
        <time>2016-10-02T06:36:49+02:00</time>
      </trkpt>
      <trkpt lat="45.98745" lon="6.31203">
        <ele>1516</ele>
        <time>2016-10-02T06:36:51+02:00</time>
      </trkpt>
      <trkpt lat="45.98743" lon="6.31205">
        <ele>1516</ele>
        <time>2016-10-02T06:36:53+02:00</time>
      </trkpt>
      <trkpt lat="45.98741" lon="6.31208">
        <ele>1515</ele>
        <time>2016-10-02T06:36:55+02:00</time>
      </trkpt>
      <trkpt lat="45.9874" lon="6.31211">
        <ele>1515</ele>
        <time>2016-10-02T06:36:58+02:00</time>
      </trkpt>
      <trkpt lat="45.98738" lon="6.31214">
        <ele>1515</ele>
        <time>2016-10-02T06:37:00+02:00</time>
      </trkpt>
      <trkpt lat="45.98736" lon="6.31218">
        <ele>1515</ele>
        <time>2016-10-02T06:37:02+02:00</time>
      </trkpt>
      <trkpt lat="45.98735" lon="6.31221">
        <ele>1514</ele>
        <time>2016-10-02T06:37:05+02:00</time>
      </trkpt>
      <trkpt lat="45.98734" lon="6.31225">
        <ele>1514</ele>
        <time>2016-10-02T06:37:07+02:00</time>
      </trkpt>
      <trkpt lat="45.98732" lon="6.31228">
        <ele>1514</ele>
        <time>2016-10-02T06:37:09+02:00</time>
      </trkpt>
      <trkpt lat="45.98731" lon="6.31231">
        <ele>1514</ele>
        <time>2016-10-02T06:37:11+02:00</time>
      </trkpt>
      <trkpt lat="45.9873" lon="6.31235">
        <ele>1514</ele>
        <time>2016-10-02T06:37:13+02:00</time>
      </trkpt>
      <trkpt lat="45.98729" lon="6.31238">
        <ele>1514</ele>
        <time>2016-10-02T06:37:15+02:00</time>
      </trkpt>
      <trkpt lat="45.98728" lon="6.31241">
        <ele>1514</ele>
        <time>2016-10-02T06:37:17+02:00</time>
      </trkpt>
      <trkpt lat="45.98727" lon="6.31244">
        <ele>1514</ele>
        <time>2016-10-02T06:37:19+02:00</time>
      </trkpt>
      <trkpt lat="45.98726" lon="6.31248">
        <ele>1514</ele>
        <time>2016-10-02T06:37:21+02:00</time>
      </trkpt>
      <trkpt lat="45.98726" lon="6.31252">
        <ele>1514</ele>
        <time>2016-10-02T06:37:24+02:00</time>
      </trkpt>
      <trkpt lat="45.98725" lon="6.31256">
        <ele>1513</ele>
        <time>2016-10-02T06:37:26+02:00</time>
      </trkpt>
      <trkpt lat="45.98725" lon="6.31259">
        <ele>1513</ele>
        <time>2016-10-02T06:37:28+02:00</time>
      </trkpt>
      <trkpt lat="45.98724" lon="6.31263">
        <ele>1513</ele>
        <time>2016-10-02T06:37:30+02:00</time>
      </trkpt>
      <trkpt lat="45.98724" lon="6.31266">
        <ele>1513</ele>
        <time>2016-10-02T06:37:32+02:00</time>
      </trkpt>
      <trkpt lat="45.98724" lon="6.3127">
        <ele>1513</ele>
        <time>2016-10-02T06:37:34+02:00</time>
      </trkpt>
      <trkpt lat="45.98723" lon="6.31273">
        <ele>1513</ele>
        <time>2016-10-02T06:37:36+02:00</time>
      </trkpt>
      <trkpt lat="45.98723" lon="6.31277">
        <ele>1513</ele>
        <time>2016-10-02T06:37:38+02:00</time>
      </trkpt>
      <trkpt lat="45.98723" lon="6.3128">
        <ele>1513</ele>
        <time>2016-10-02T06:37:40+02:00</time>
      </trkpt>
      <trkpt lat="45.98723" lon="6.31284">
        <ele>1513</ele>
        <time>2016-10-02T06:37:42+02:00</time>
      </trkpt>
      <trkpt lat="45.98723" lon="6.31288">
        <ele>1513</ele>
        <time>2016-10-02T06:37:44+02:00</time>
      </trkpt>
      <trkpt lat="45.98723" lon="6.31292">
        <ele>1513</ele>
        <time>2016-10-02T06:37:47+02:00</time>
      </trkpt>
      <trkpt lat="45.98723" lon="6.31296">
        <ele>1513</ele>
        <time>2016-10-02T06:37:49+02:00</time>
      </trkpt>
      <trkpt lat="45.98723" lon="6.313">
        <ele>1513</ele>
        <time>2016-10-02T06:37:51+02:00</time>
      </trkpt>
      <trkpt lat="45.98724" lon="6.31304">
        <ele>1513</ele>
        <time>2016-10-02T06:37:53+02:00</time>
      </trkpt>
      <trkpt lat="45.98724" lon="6.31308">
        <ele>1514</ele>
        <time>2016-10-02T06:37:55+02:00</time>
      </trkpt>
      <trkpt lat="45.98724" lon="6.31312">
        <ele>1514</ele>
        <time>2016-10-02T06:37:57+02:00</time>
      </trkpt>
      <trkpt lat="45.98724" lon="6.31316">
        <ele>1514</ele>
        <time>2016-10-02T06:38:00+02:00</time>
      </trkpt>
      <trkpt lat="45.98724" lon="6.31319">
        <ele>1514</ele>
        <time>2016-10-02T06:38:02+02:00</time>
      </trkpt>
      <trkpt lat="45.98724" lon="6.31323">
        <ele>1514</ele>
        <time>2016-10-02T06:38:04+02:00</time>
      </trkpt>
      <trkpt lat="45.98725" lon="6.31327">
        <ele>1514</ele>
        <time>2016-10-02T06:38:06+02:00</time>
      </trkpt>
      <trkpt lat="45.98725" lon="6.31331">
        <ele>1514</ele>
        <time>2016-10-02T06:38:08+02:00</time>
      </trkpt>
      <trkpt lat="45.98726" lon="6.31334">
        <ele>1515</ele>
        <time>2016-10-02T06:38:11+02:00</time>
      </trkpt>
      <trkpt lat="45.98727" lon="6.31338">
        <ele>1515</ele>
        <time>2016-10-02T06:38:13+02:00</time>
      </trkpt>
      <trkpt lat="45.98728" lon="6.31342">
        <ele>1515</ele>
        <time>2016-10-02T06:38:15+02:00</time>
      </trkpt>
      <trkpt lat="45.98728" lon="6.31347">
        <ele>1515</ele>
        <time>2016-10-02T06:38:18+02:00</time>
      </trkpt>
      <trkpt lat="45.98729" lon="6.31351">
        <ele>1515</ele>
        <time>2016-10-02T06:38:20+02:00</time>
      </trkpt>
      <trkpt lat="45.98729" lon="6.31355">
        <ele>1515</ele>
        <time>2016-10-02T06:38:22+02:00</time>
      </trkpt>
      <trkpt lat="45.98729" lon="6.31358">
        <ele>1515</ele>
        <time>2016-10-02T06:38:24+02:00</time>
      </trkpt>
      <trkpt lat="45.98728" lon="6.31362">
        <ele>1514</ele>
        <time>2016-10-02T06:38:27+02:00</time>
      </trkpt>
      <trkpt lat="45.98728" lon="6.31366">
        <ele>1514</ele>
        <time>2016-10-02T06:38:29+02:00</time>
      </trkpt>
      <trkpt lat="45.98727" lon="6.3137">
        <ele>1514</ele>
        <time>2016-10-02T06:38:31+02:00</time>
      </trkpt>
      <trkpt lat="45.98727" lon="6.31374">
        <ele>1513</ele>
        <time>2016-10-02T06:38:33+02:00</time>
      </trkpt>
      <trkpt lat="45.98726" lon="6.31378">
        <ele>1513</ele>
        <time>2016-10-02T06:38:36+02:00</time>
      </trkpt>
      <trkpt lat="45.98725" lon="6.31382">
        <ele>1512</ele>
        <time>2016-10-02T06:38:38+02:00</time>
      </trkpt>
      <trkpt lat="45.98725" lon="6.31386">
        <ele>1512</ele>
        <time>2016-10-02T06:38:40+02:00</time>
      </trkpt>
      <trkpt lat="45.98725" lon="6.3139">
        <ele>1512</ele>
        <time>2016-10-02T06:38:43+02:00</time>
      </trkpt>
      <trkpt lat="45.98725" lon="6.31395">
        <ele>1512</ele>
        <time>2016-10-02T06:38:45+02:00</time>
      </trkpt>
      <trkpt lat="45.98725" lon="6.31398">
        <ele>1512</ele>
        <time>2016-10-02T06:38:47+02:00</time>
      </trkpt>
      <trkpt lat="45.98725" lon="6.31402">
        <ele>1511</ele>
        <time>2016-10-02T06:38:49+02:00</time>
      </trkpt>
      <trkpt lat="45.98725" lon="6.31406">
        <ele>1511</ele>
        <time>2016-10-02T06:38:52+02:00</time>
      </trkpt>
      <trkpt lat="45.98726" lon="6.3141">
        <ele>1511</ele>
        <time>2016-10-02T06:38:54+02:00</time>
      </trkpt>
      <trkpt lat="45.98726" lon="6.31414">
        <ele>1511</ele>
        <time>2016-10-02T06:38:56+02:00</time>
      </trkpt>
      <trkpt lat="45.98727" lon="6.31418">
        <ele>1511</ele>
        <time>2016-10-02T06:38:58+02:00</time>
      </trkpt>
      <trkpt lat="45.98727" lon="6.31422">
        <ele>1511</ele>
        <time>2016-10-02T06:39:01+02:00</time>
      </trkpt>
      <trkpt lat="45.98727" lon="6.31426">
        <ele>1511</ele>
        <time>2016-10-02T06:39:03+02:00</time>
      </trkpt>
      <trkpt lat="45.98728" lon="6.31431">
        <ele>1511</ele>
        <time>2016-10-02T06:39:06+02:00</time>
      </trkpt>
      <trkpt lat="45.98729" lon="6.31435">
        <ele>1511</ele>
        <time>2016-10-02T06:39:08+02:00</time>
      </trkpt>
      <trkpt lat="45.98729" lon="6.31439">
        <ele>1511</ele>
        <time>2016-10-02T06:39:11+02:00</time>
      </trkpt>
      <trkpt lat="45.9873" lon="6.31443">
        <ele>1511</ele>
        <time>2016-10-02T06:39:13+02:00</time>
      </trkpt>
      <trkpt lat="45.98731" lon="6.31448">
        <ele>1511</ele>
        <time>2016-10-02T06:39:15+02:00</time>
      </trkpt>
      <trkpt lat="45.98732" lon="6.31452">
        <ele>1511</ele>
        <time>2016-10-02T06:39:18+02:00</time>
      </trkpt>
      <trkpt lat="45.98733" lon="6.31456">
        <ele>1511</ele>
        <time>2016-10-02T06:39:20+02:00</time>
      </trkpt>
      <trkpt lat="45.98734" lon="6.3146">
        <ele>1512</ele>
        <time>2016-10-02T06:39:22+02:00</time>
      </trkpt>
      <trkpt lat="45.98734" lon="6.31464">
        <ele>1512</ele>
        <time>2016-10-02T06:39:25+02:00</time>
      </trkpt>
      <trkpt lat="45.98735" lon="6.31468">
        <ele>1512</ele>
        <time>2016-10-02T06:39:27+02:00</time>
      </trkpt>
      <trkpt lat="45.98736" lon="6.31472">
        <ele>1512</ele>
        <time>2016-10-02T06:39:29+02:00</time>
      </trkpt>
      <trkpt lat="45.98736" lon="6.31476">
        <ele>1512</ele>
        <time>2016-10-02T06:39:32+02:00</time>
      </trkpt>
      <trkpt lat="45.98737" lon="6.31479">
        <ele>1512</ele>
        <time>2016-10-02T06:39:34+02:00</time>
      </trkpt>
      <trkpt lat="45.98738" lon="6.31483">
        <ele>1512</ele>
        <time>2016-10-02T06:39:36+02:00</time>
      </trkpt>
      <trkpt lat="45.98738" lon="6.31487">
        <ele>1512</ele>
        <time>2016-10-02T06:39:38+02:00</time>
      </trkpt>
      <trkpt lat="45.98739" lon="6.31491">
        <ele>1512</ele>
        <time>2016-10-02T06:39:40+02:00</time>
      </trkpt>
      <trkpt lat="45.98739" lon="6.31495">
        <ele>1512</ele>
        <time>2016-10-02T06:39:42+02:00</time>
      </trkpt>
      <trkpt lat="45.98739" lon="6.31498">
        <ele>1512</ele>
        <time>2016-10-02T06:39:45+02:00</time>
      </trkpt>
      <trkpt lat="45.98738" lon="6.31502">
        <ele>1511</ele>
        <time>2016-10-02T06:39:47+02:00</time>
      </trkpt>
      <trkpt lat="45.98738" lon="6.31506">
        <ele>1511</ele>
        <time>2016-10-02T06:39:49+02:00</time>
      </trkpt>
      <trkpt lat="45.98737" lon="6.3151">
        <ele>1510</ele>
        <time>2016-10-02T06:39:51+02:00</time>
      </trkpt>
      <trkpt lat="45.98736" lon="6.31513">
        <ele>1509</ele>
        <time>2016-10-02T06:39:53+02:00</time>
      </trkpt>
      <trkpt lat="45.98735" lon="6.31517">
        <ele>1508</ele>
        <time>2016-10-02T06:39:55+02:00</time>
      </trkpt>
      <trkpt lat="45.98733" lon="6.3152">
        <ele>1507</ele>
        <time>2016-10-02T06:39:58+02:00</time>
      </trkpt>
      <trkpt lat="45.98732" lon="6.31524">
        <ele>1506</ele>
        <time>2016-10-02T06:40:00+02:00</time>
      </trkpt>
      <trkpt lat="45.98731" lon="6.31527">
        <ele>1506</ele>
        <time>2016-10-02T06:40:02+02:00</time>
      </trkpt>
      <trkpt lat="45.98729" lon="6.31531">
        <ele>1505</ele>
        <time>2016-10-02T06:40:05+02:00</time>
      </trkpt>
      <trkpt lat="45.98727" lon="6.31535">
        <ele>1504</ele>
        <time>2016-10-02T06:40:07+02:00</time>
      </trkpt>
      <trkpt lat="45.98726" lon="6.31538">
        <ele>1503</ele>
        <time>2016-10-02T06:40:10+02:00</time>
      </trkpt>
      <trkpt lat="45.98724" lon="6.31541">
        <ele>1502</ele>
        <time>2016-10-02T06:40:12+02:00</time>
      </trkpt>
      <trkpt lat="45.98722" lon="6.31543">
        <ele>1501</ele>
        <time>2016-10-02T06:40:14+02:00</time>
      </trkpt>
      <trkpt lat="45.98721" lon="6.31544">
        <ele>1500</ele>
        <time>2016-10-02T06:40:15+02:00</time>
      </trkpt>
      <trkpt lat="45.98719" lon="6.31544">
        <ele>1499</ele>
        <time>2016-10-02T06:40:16+02:00</time>
      </trkpt>
      <trkpt lat="45.98718" lon="6.31547">
        <ele>1499</ele>
        <time>2016-10-02T06:40:18+02:00</time>
      </trkpt>
      <trkpt lat="45.98717" lon="6.31549">
        <ele>1498</ele>
        <time>2016-10-02T06:40:20+02:00</time>
      </trkpt>
      <trkpt lat="45.98715" lon="6.31552">
        <ele>1497</ele>
        <time>2016-10-02T06:40:22+02:00</time>
      </trkpt>
      <trkpt lat="45.98714" lon="6.31554">
        <ele>1496</ele>
        <time>2016-10-02T06:40:24+02:00</time>
      </trkpt>
      <trkpt lat="45.98712" lon="6.31557">
        <ele>1495</ele>
        <time>2016-10-02T06:40:26+02:00</time>
      </trkpt>
      <trkpt lat="45.9871" lon="6.3156">
        <ele>1494</ele>
        <time>2016-10-02T06:40:28+02:00</time>
      </trkpt>
      <trkpt lat="45.98709" lon="6.31563">
        <ele>1493</ele>
        <time>2016-10-02T06:40:30+02:00</time>
      </trkpt>
      <trkpt lat="45.98708" lon="6.31565">
        <ele>1492</ele>
        <time>2016-10-02T06:40:32+02:00</time>
      </trkpt>
      <trkpt lat="45.98706" lon="6.31568">
        <ele>1492</ele>
        <time>2016-10-02T06:40:34+02:00</time>
      </trkpt>
      <trkpt lat="45.98705" lon="6.31572">
        <ele>1491</ele>
        <time>2016-10-02T06:40:36+02:00</time>
      </trkpt>
      <trkpt lat="45.98704" lon="6.31575">
        <ele>1490</ele>
        <time>2016-10-02T06:40:38+02:00</time>
      </trkpt>
      <trkpt lat="45.98703" lon="6.31579">
        <ele>1489</ele>
        <time>2016-10-02T06:40:40+02:00</time>
      </trkpt>
      <trkpt lat="45.98702" lon="6.31582">
        <ele>1489</ele>
        <time>2016-10-02T06:40:42+02:00</time>
      </trkpt>
      <trkpt lat="45.98701" lon="6.31585">
        <ele>1488</ele>
        <time>2016-10-02T06:40:45+02:00</time>
      </trkpt>
      <trkpt lat="45.987" lon="6.31589">
        <ele>1487</ele>
        <time>2016-10-02T06:40:47+02:00</time>
      </trkpt>
      <trkpt lat="45.98699" lon="6.31592">
        <ele>1486</ele>
        <time>2016-10-02T06:40:49+02:00</time>
      </trkpt>
      <trkpt lat="45.98698" lon="6.31596">
        <ele>1485</ele>
        <time>2016-10-02T06:40:51+02:00</time>
      </trkpt>
      <trkpt lat="45.98698" lon="6.316">
        <ele>1484</ele>
        <time>2016-10-02T06:40:53+02:00</time>
      </trkpt>
      <trkpt lat="45.98697" lon="6.31604">
        <ele>1484</ele>
        <time>2016-10-02T06:40:56+02:00</time>
      </trkpt>
      <trkpt lat="45.98696" lon="6.31608">
        <ele>1483</ele>
        <time>2016-10-02T06:40:58+02:00</time>
      </trkpt>
      <trkpt lat="45.98695" lon="6.31612">
        <ele>1482</ele>
        <time>2016-10-02T06:41:01+02:00</time>
      </trkpt>
      <trkpt lat="45.98695" lon="6.31616">
        <ele>1481</ele>
        <time>2016-10-02T06:41:03+02:00</time>
      </trkpt>
      <trkpt lat="45.98695" lon="6.31621">
        <ele>1481</ele>
        <time>2016-10-02T06:41:06+02:00</time>
      </trkpt>
      <trkpt lat="45.98695" lon="6.31625">
        <ele>1480</ele>
        <time>2016-10-02T06:41:08+02:00</time>
      </trkpt>
      <trkpt lat="45.98696" lon="6.3163">
        <ele>1480</ele>
        <time>2016-10-02T06:41:11+02:00</time>
      </trkpt>
      <trkpt lat="45.98696" lon="6.31634">
        <ele>1480</ele>
        <time>2016-10-02T06:41:13+02:00</time>
      </trkpt>
      <trkpt lat="45.98697" lon="6.31638">
        <ele>1479</ele>
        <time>2016-10-02T06:41:16+02:00</time>
      </trkpt>
      <trkpt lat="45.98698" lon="6.31641">
        <ele>1479</ele>
        <time>2016-10-02T06:41:18+02:00</time>
      </trkpt>
      <trkpt lat="45.98698" lon="6.31645">
        <ele>1479</ele>
        <time>2016-10-02T06:41:20+02:00</time>
      </trkpt>
      <trkpt lat="45.98699" lon="6.31648">
        <ele>1479</ele>
        <time>2016-10-02T06:41:22+02:00</time>
      </trkpt>
      <trkpt lat="45.98699" lon="6.31652">
        <ele>1478</ele>
        <time>2016-10-02T06:41:24+02:00</time>
      </trkpt>
      <trkpt lat="45.98698" lon="6.31655">
        <ele>1477</ele>
        <time>2016-10-02T06:41:26+02:00</time>
      </trkpt>
      <trkpt lat="45.98698" lon="6.31658">
        <ele>1477</ele>
        <time>2016-10-02T06:41:28+02:00</time>
      </trkpt>
      <trkpt lat="45.98698" lon="6.31662">
        <ele>1476</ele>
        <time>2016-10-02T06:41:30+02:00</time>
      </trkpt>
      <trkpt lat="45.98698" lon="6.31666">
        <ele>1476</ele>
        <time>2016-10-02T06:41:32+02:00</time>
      </trkpt>
      <trkpt lat="45.98698" lon="6.3167">
        <ele>1476</ele>
        <time>2016-10-02T06:41:34+02:00</time>
      </trkpt>
      <trkpt lat="45.98699" lon="6.31673">
        <ele>1475</ele>
        <time>2016-10-02T06:41:36+02:00</time>
      </trkpt>
      <trkpt lat="45.98699" lon="6.31677">
        <ele>1475</ele>
        <time>2016-10-02T06:41:39+02:00</time>
      </trkpt>
      <trkpt lat="45.987" lon="6.31681">
        <ele>1475</ele>
        <time>2016-10-02T06:41:41+02:00</time>
      </trkpt>
      <trkpt lat="45.98701" lon="6.31685">
        <ele>1474</ele>
        <time>2016-10-02T06:41:43+02:00</time>
      </trkpt>
      <trkpt lat="45.98702" lon="6.31689">
        <ele>1474</ele>
        <time>2016-10-02T06:41:46+02:00</time>
      </trkpt>
      <trkpt lat="45.98703" lon="6.31692">
        <ele>1474</ele>
        <time>2016-10-02T06:41:48+02:00</time>
      </trkpt>
      <trkpt lat="45.98704" lon="6.31696">
        <ele>1473</ele>
        <time>2016-10-02T06:41:50+02:00</time>
      </trkpt>
      <trkpt lat="45.98705" lon="6.31699">
        <ele>1473</ele>
        <time>2016-10-02T06:41:52+02:00</time>
      </trkpt>
      <trkpt lat="45.98706" lon="6.31703">
        <ele>1473</ele>
        <time>2016-10-02T06:41:54+02:00</time>
      </trkpt>
      <trkpt lat="45.98708" lon="6.31707">
        <ele>1473</ele>
        <time>2016-10-02T06:41:57+02:00</time>
      </trkpt>
      <trkpt lat="45.98709" lon="6.31711">
        <ele>1473</ele>
        <time>2016-10-02T06:41:59+02:00</time>
      </trkpt>
      <trkpt lat="45.9871" lon="6.31715">
        <ele>1473</ele>
        <time>2016-10-02T06:42:02+02:00</time>
      </trkpt>
      <trkpt lat="45.98711" lon="6.31718">
        <ele>1472</ele>
        <time>2016-10-02T06:42:04+02:00</time>
      </trkpt>
      <trkpt lat="45.98712" lon="6.31721">
        <ele>1472</ele>
        <time>2016-10-02T06:42:06+02:00</time>
      </trkpt>
      <trkpt lat="45.98713" lon="6.31725">
        <ele>1472</ele>
        <time>2016-10-02T06:42:08+02:00</time>
      </trkpt>
      <trkpt lat="45.98715" lon="6.31728">
        <ele>1472</ele>
        <time>2016-10-02T06:42:10+02:00</time>
      </trkpt>
      <trkpt lat="45.98716" lon="6.31731">
        <ele>1472</ele>
        <time>2016-10-02T06:42:12+02:00</time>
      </trkpt>
      <trkpt lat="45.98718" lon="6.31735">
        <ele>1472</ele>
        <time>2016-10-02T06:42:14+02:00</time>
      </trkpt>
      <trkpt lat="45.98719" lon="6.31738">
        <ele>1472</ele>
        <time>2016-10-02T06:42:17+02:00</time>
      </trkpt>
      <trkpt lat="45.9872" lon="6.31742">
        <ele>1471</ele>
        <time>2016-10-02T06:42:19+02:00</time>
      </trkpt>
      <trkpt lat="45.98721" lon="6.31745">
        <ele>1471</ele>
        <time>2016-10-02T06:42:21+02:00</time>
      </trkpt>
      <trkpt lat="45.98723" lon="6.31748">
        <ele>1471</ele>
        <time>2016-10-02T06:42:23+02:00</time>
      </trkpt>
      <trkpt lat="45.98724" lon="6.31752">
        <ele>1471</ele>
        <time>2016-10-02T06:42:25+02:00</time>
      </trkpt>
      <trkpt lat="45.98726" lon="6.31754">
        <ele>1471</ele>
        <time>2016-10-02T06:42:27+02:00</time>
      </trkpt>
      <trkpt lat="45.98727" lon="6.31758">
        <ele>1471</ele>
        <time>2016-10-02T06:42:30+02:00</time>
      </trkpt>
      <trkpt lat="45.98729" lon="6.31761">
        <ele>1471</ele>
        <time>2016-10-02T06:42:32+02:00</time>
      </trkpt>
      <trkpt lat="45.9873" lon="6.31764">
        <ele>1471</ele>
        <time>2016-10-02T06:42:34+02:00</time>
      </trkpt>
      <trkpt lat="45.98732" lon="6.31767">
        <ele>1471</ele>
        <time>2016-10-02T06:42:36+02:00</time>
      </trkpt>
      <trkpt lat="45.98733" lon="6.3177">
        <ele>1471</ele>
        <time>2016-10-02T06:42:38+02:00</time>
      </trkpt>
      <trkpt lat="45.98734" lon="6.31773">
        <ele>1471</ele>
        <time>2016-10-02T06:42:40+02:00</time>
      </trkpt>
      <trkpt lat="45.98736" lon="6.31776">
        <ele>1471</ele>
        <time>2016-10-02T06:42:42+02:00</time>
      </trkpt>
      <trkpt lat="45.98737" lon="6.31779">
        <ele>1471</ele>
        <time>2016-10-02T06:42:44+02:00</time>
      </trkpt>
      <trkpt lat="45.98738" lon="6.31783">
        <ele>1471</ele>
        <time>2016-10-02T06:42:46+02:00</time>
      </trkpt>
      <trkpt lat="45.98739" lon="6.31786">
        <ele>1471</ele>
        <time>2016-10-02T06:42:48+02:00</time>
      </trkpt>
      <trkpt lat="45.9874" lon="6.31789">
        <ele>1471</ele>
        <time>2016-10-02T06:42:50+02:00</time>
      </trkpt>
      <trkpt lat="45.98741" lon="6.31792">
        <ele>1471</ele>
        <time>2016-10-02T06:42:52+02:00</time>
      </trkpt>
      <trkpt lat="45.98742" lon="6.31795">
        <ele>1471</ele>
        <time>2016-10-02T06:42:54+02:00</time>
      </trkpt>
      <trkpt lat="45.98742" lon="6.31798">
        <ele>1470</ele>
        <time>2016-10-02T06:42:55+02:00</time>
      </trkpt>
      <trkpt lat="45.98741" lon="6.318">
        <ele>1470</ele>
        <time>2016-10-02T06:42:57+02:00</time>
      </trkpt>
      <trkpt lat="45.98738" lon="6.31802">
        <ele>1469</ele>
        <time>2016-10-02T06:43:00+02:00</time>
      </trkpt>
      <trkpt lat="45.98736" lon="6.31803">
        <ele>1468</ele>
        <time>2016-10-02T06:43:02+02:00</time>
      </trkpt>
      <trkpt lat="45.98734" lon="6.31801">
        <ele>1468</ele>
        <time>2016-10-02T06:43:03+02:00</time>
      </trkpt>
      <trkpt lat="45.98733" lon="6.31799">
        <ele>1468</ele>
        <time>2016-10-02T06:43:05+02:00</time>
      </trkpt>
      <trkpt lat="45.98731" lon="6.31796">
        <ele>1468</ele>
        <time>2016-10-02T06:43:07+02:00</time>
      </trkpt>
      <trkpt lat="45.9873" lon="6.31794">
        <ele>1468</ele>
        <time>2016-10-02T06:43:09+02:00</time>
      </trkpt>
      <trkpt lat="45.98728" lon="6.31792">
        <ele>1467</ele>
        <time>2016-10-02T06:43:11+02:00</time>
      </trkpt>
      <trkpt lat="45.98726" lon="6.31791">
        <ele>1467</ele>
        <time>2016-10-02T06:43:12+02:00</time>
      </trkpt>
      <trkpt lat="45.98724" lon="6.3179">
        <ele>1466</ele>
        <time>2016-10-02T06:43:14+02:00</time>
      </trkpt>
      <trkpt lat="45.98722" lon="6.31789">
        <ele>1466</ele>
        <time>2016-10-02T06:43:16+02:00</time>
      </trkpt>
      <trkpt lat="45.9872" lon="6.31788">
        <ele>1466</ele>
        <time>2016-10-02T06:43:17+02:00</time>
      </trkpt>
      <trkpt lat="45.98718" lon="6.31786">
        <ele>1465</ele>
        <time>2016-10-02T06:43:20+02:00</time>
      </trkpt>
      <trkpt lat="45.98715" lon="6.31784">
        <ele>1465</ele>
        <time>2016-10-02T06:43:22+02:00</time>
      </trkpt>
      <trkpt lat="45.98713" lon="6.31782">
        <ele>1464</ele>
        <time>2016-10-02T06:43:25+02:00</time>
      </trkpt>
      <trkpt lat="45.9871" lon="6.31781">
        <ele>1463</ele>
        <time>2016-10-02T06:43:27+02:00</time>
      </trkpt>
      <trkpt lat="45.98707" lon="6.3178">
        <ele>1463</ele>
        <time>2016-10-02T06:43:29+02:00</time>
      </trkpt>
      <trkpt lat="45.98705" lon="6.31779">
        <ele>1462</ele>
        <time>2016-10-02T06:43:31+02:00</time>
      </trkpt>
      <trkpt lat="45.98702" lon="6.31778">
        <ele>1461</ele>
        <time>2016-10-02T06:43:34+02:00</time>
      </trkpt>
      <trkpt lat="45.98699" lon="6.31777">
        <ele>1461</ele>
        <time>2016-10-02T06:43:36+02:00</time>
      </trkpt>
      <trkpt lat="45.98696" lon="6.31775">
        <ele>1460</ele>
        <time>2016-10-02T06:43:38+02:00</time>
      </trkpt>
      <trkpt lat="45.98694" lon="6.31773">
        <ele>1460</ele>
        <time>2016-10-02T06:43:41+02:00</time>
      </trkpt>
      <trkpt lat="45.98691" lon="6.31771">
        <ele>1459</ele>
        <time>2016-10-02T06:43:44+02:00</time>
      </trkpt>
      <trkpt lat="45.98688" lon="6.31769">
        <ele>1459</ele>
        <time>2016-10-02T06:43:46+02:00</time>
      </trkpt>
      <trkpt lat="45.98686" lon="6.31767">
        <ele>1458</ele>
        <time>2016-10-02T06:43:48+02:00</time>
      </trkpt>
      <trkpt lat="45.98683" lon="6.31765">
        <ele>1457</ele>
        <time>2016-10-02T06:43:51+02:00</time>
      </trkpt>
      <trkpt lat="45.98681" lon="6.31763">
        <ele>1457</ele>
        <time>2016-10-02T06:43:53+02:00</time>
      </trkpt>
      <trkpt lat="45.98678" lon="6.31761">
        <ele>1456</ele>
        <time>2016-10-02T06:43:55+02:00</time>
      </trkpt>
      <trkpt lat="45.98676" lon="6.31759">
        <ele>1456</ele>
        <time>2016-10-02T06:43:57+02:00</time>
      </trkpt>
      <trkpt lat="45.98674" lon="6.31756">
        <ele>1456</ele>
        <time>2016-10-02T06:44:00+02:00</time>
      </trkpt>
      <trkpt lat="45.98672" lon="6.31754">
        <ele>1455</ele>
        <time>2016-10-02T06:44:02+02:00</time>
      </trkpt>
      <trkpt lat="45.9867" lon="6.31751">
        <ele>1455</ele>
        <time>2016-10-02T06:44:04+02:00</time>
      </trkpt>
      <trkpt lat="45.98667" lon="6.31748">
        <ele>1454</ele>
        <time>2016-10-02T06:44:07+02:00</time>
      </trkpt>
      <trkpt lat="45.98665" lon="6.31746">
        <ele>1454</ele>
        <time>2016-10-02T06:44:09+02:00</time>
      </trkpt>
      <trkpt lat="45.98663" lon="6.31743">
        <ele>1454</ele>
        <time>2016-10-02T06:44:11+02:00</time>
      </trkpt>
      <trkpt lat="45.98661" lon="6.3174">
        <ele>1454</ele>
        <time>2016-10-02T06:44:14+02:00</time>
      </trkpt>
      <trkpt lat="45.98659" lon="6.31738">
        <ele>1453</ele>
        <time>2016-10-02T06:44:16+02:00</time>
      </trkpt>
      <trkpt lat="45.98656" lon="6.31737">
        <ele>1453</ele>
        <time>2016-10-02T06:44:18+02:00</time>
      </trkpt>
      <trkpt lat="45.98653" lon="6.31736">
        <ele>1452</ele>
        <time>2016-10-02T06:44:20+02:00</time>
      </trkpt>
      <trkpt lat="45.98651" lon="6.31735">
        <ele>1452</ele>
        <time>2016-10-02T06:44:23+02:00</time>
      </trkpt>
      <trkpt lat="45.98648" lon="6.31734">
        <ele>1451</ele>
        <time>2016-10-02T06:44:25+02:00</time>
      </trkpt>
      <trkpt lat="45.98645" lon="6.31734">
        <ele>1450</ele>
        <time>2016-10-02T06:44:27+02:00</time>
      </trkpt>
      <trkpt lat="45.98643" lon="6.31734">
        <ele>1450</ele>
        <time>2016-10-02T06:44:29+02:00</time>
      </trkpt>
      <trkpt lat="45.98641" lon="6.31735">
        <ele>1449</ele>
        <time>2016-10-02T06:44:31+02:00</time>
      </trkpt>
      <trkpt lat="45.98639" lon="6.31737">
        <ele>1448</ele>
        <time>2016-10-02T06:44:33+02:00</time>
      </trkpt>
      <trkpt lat="45.98636" lon="6.31739">
        <ele>1447</ele>
        <time>2016-10-02T06:44:36+02:00</time>
      </trkpt>
      <trkpt lat="45.98634" lon="6.31742">
        <ele>1446</ele>
        <time>2016-10-02T06:44:38+02:00</time>
      </trkpt>
      <trkpt lat="45.98632" lon="6.31744">
        <ele>1445</ele>
        <time>2016-10-02T06:44:40+02:00</time>
      </trkpt>
      <trkpt lat="45.9863" lon="6.31746">
        <ele>1445</ele>
        <time>2016-10-02T06:44:42+02:00</time>
      </trkpt>
      <trkpt lat="45.98627" lon="6.31748">
        <ele>1444</ele>
        <time>2016-10-02T06:44:45+02:00</time>
      </trkpt>
      <trkpt lat="45.98624" lon="6.31749">
        <ele>1443</ele>
        <time>2016-10-02T06:44:47+02:00</time>
      </trkpt>
      <trkpt lat="45.98622" lon="6.3175">
        <ele>1442</ele>
        <time>2016-10-02T06:44:50+02:00</time>
      </trkpt>
      <trkpt lat="45.98619" lon="6.31752">
        <ele>1441</ele>
        <time>2016-10-02T06:44:52+02:00</time>
      </trkpt>
      <trkpt lat="45.98616" lon="6.31753">
        <ele>1440</ele>
        <time>2016-10-02T06:44:55+02:00</time>
      </trkpt>
      <trkpt lat="45.98613" lon="6.31754">
        <ele>1439</ele>
        <time>2016-10-02T06:44:57+02:00</time>
      </trkpt>
      <trkpt lat="45.9861" lon="6.31755">
        <ele>1439</ele>
        <time>2016-10-02T06:45:00+02:00</time>
      </trkpt>
      <trkpt lat="45.98607" lon="6.31756">
        <ele>1438</ele>
        <time>2016-10-02T06:45:02+02:00</time>
      </trkpt>
      <trkpt lat="45.98604" lon="6.31757">
        <ele>1437</ele>
        <time>2016-10-02T06:45:05+02:00</time>
      </trkpt>
      <trkpt lat="45.98601" lon="6.31757">
        <ele>1436</ele>
        <time>2016-10-02T06:45:07+02:00</time>
      </trkpt>
      <trkpt lat="45.98598" lon="6.31758">
        <ele>1435</ele>
        <time>2016-10-02T06:45:09+02:00</time>
      </trkpt>
      <trkpt lat="45.98595" lon="6.31758">
        <ele>1435</ele>
        <time>2016-10-02T06:45:12+02:00</time>
      </trkpt>
      <trkpt lat="45.98593" lon="6.31758">
        <ele>1434</ele>
        <time>2016-10-02T06:45:14+02:00</time>
      </trkpt>
      <trkpt lat="45.9859" lon="6.31757">
        <ele>1433</ele>
        <time>2016-10-02T06:45:16+02:00</time>
      </trkpt>
      <trkpt lat="45.98588" lon="6.31755">
        <ele>1433</ele>
        <time>2016-10-02T06:45:18+02:00</time>
      </trkpt>
      <trkpt lat="45.98585" lon="6.31754">
        <ele>1432</ele>
        <time>2016-10-02T06:45:20+02:00</time>
      </trkpt>
      <trkpt lat="45.98583" lon="6.31752">
        <ele>1432</ele>
        <time>2016-10-02T06:45:23+02:00</time>
      </trkpt>
      <trkpt lat="45.9858" lon="6.31751">
        <ele>1431</ele>
        <time>2016-10-02T06:45:25+02:00</time>
      </trkpt>
      <trkpt lat="45.98577" lon="6.31749">
        <ele>1431</ele>
        <time>2016-10-02T06:45:27+02:00</time>
      </trkpt>
      <trkpt lat="45.98575" lon="6.31747">
        <ele>1431</ele>
        <time>2016-10-02T06:45:29+02:00</time>
      </trkpt>
      <trkpt lat="45.98573" lon="6.31746">
        <ele>1430</ele>
        <time>2016-10-02T06:45:32+02:00</time>
      </trkpt>
      <trkpt lat="45.98571" lon="6.31744">
        <ele>1430</ele>
        <time>2016-10-02T06:45:33+02:00</time>
      </trkpt>
      <trkpt lat="45.98569" lon="6.31743">
        <ele>1430</ele>
        <time>2016-10-02T06:45:35+02:00</time>
      </trkpt>
      <trkpt lat="45.98568" lon="6.31742">
        <ele>1429</ele>
        <time>2016-10-02T06:45:36+02:00</time>
      </trkpt>
      <trkpt lat="45.98566" lon="6.31741">
        <ele>1429</ele>
        <time>2016-10-02T06:45:38+02:00</time>
      </trkpt>
      <trkpt lat="45.98565" lon="6.3174">
        <ele>1429</ele>
        <time>2016-10-02T06:45:39+02:00</time>
      </trkpt>
      <trkpt lat="45.98565" lon="6.31742">
        <ele>1429</ele>
        <time>2016-10-02T06:45:39+02:00</time>
      </trkpt>
      <trkpt lat="45.98564" lon="6.3174">
        <ele>1429</ele>
        <time>2016-10-02T06:45:41+02:00</time>
      </trkpt>
      <trkpt lat="45.98563" lon="6.31738">
        <ele>1429</ele>
        <time>2016-10-02T06:45:42+02:00</time>
      </trkpt>
      <trkpt lat="45.98562" lon="6.31736">
        <ele>1429</ele>
        <time>2016-10-02T06:45:44+02:00</time>
      </trkpt>
      <trkpt lat="45.98561" lon="6.31733">
        <ele>1429</ele>
        <time>2016-10-02T06:45:45+02:00</time>
      </trkpt>
      <trkpt lat="45.98559" lon="6.3173">
        <ele>1429</ele>
        <time>2016-10-02T06:45:47+02:00</time>
      </trkpt>
      <trkpt lat="45.98558" lon="6.31727">
        <ele>1428</ele>
        <time>2016-10-02T06:45:49+02:00</time>
      </trkpt>
      <trkpt lat="45.98557" lon="6.31724">
        <ele>1428</ele>
        <time>2016-10-02T06:45:51+02:00</time>
      </trkpt>
      <trkpt lat="45.98555" lon="6.31721">
        <ele>1428</ele>
        <time>2016-10-02T06:45:53+02:00</time>
      </trkpt>
      <trkpt lat="45.98553" lon="6.31718">
        <ele>1428</ele>
        <time>2016-10-02T06:45:56+02:00</time>
      </trkpt>
      <trkpt lat="45.98551" lon="6.31715">
        <ele>1428</ele>
        <time>2016-10-02T06:45:58+02:00</time>
      </trkpt>
      <trkpt lat="45.98549" lon="6.31712">
        <ele>1428</ele>
        <time>2016-10-02T06:46:01+02:00</time>
      </trkpt>
      <trkpt lat="45.98547" lon="6.31709">
        <ele>1427</ele>
        <time>2016-10-02T06:46:03+02:00</time>
      </trkpt>
      <trkpt lat="45.98545" lon="6.31707">
        <ele>1427</ele>
        <time>2016-10-02T06:46:05+02:00</time>
      </trkpt>
      <trkpt lat="45.98543" lon="6.31705">
        <ele>1427</ele>
        <time>2016-10-02T06:46:07+02:00</time>
      </trkpt>
      <trkpt lat="45.9854" lon="6.31702">
        <ele>1426</ele>
        <time>2016-10-02T06:46:10+02:00</time>
      </trkpt>
      <trkpt lat="45.98537" lon="6.317">
        <ele>1426</ele>
        <time>2016-10-02T06:46:12+02:00</time>
      </trkpt>
      <trkpt lat="45.98535" lon="6.31698">
        <ele>1425</ele>
        <time>2016-10-02T06:46:15+02:00</time>
      </trkpt>
      <trkpt lat="45.98532" lon="6.31695">
        <ele>1425</ele>
        <time>2016-10-02T06:46:18+02:00</time>
      </trkpt>
      <trkpt lat="45.98529" lon="6.31693">
        <ele>1424</ele>
        <time>2016-10-02T06:46:21+02:00</time>
      </trkpt>
      <trkpt lat="45.98526" lon="6.31691">
        <ele>1424</ele>
        <time>2016-10-02T06:46:23+02:00</time>
      </trkpt>
      <trkpt lat="45.98523" lon="6.31689">
        <ele>1423</ele>
        <time>2016-10-02T06:46:26+02:00</time>
      </trkpt>
      <trkpt lat="45.9852" lon="6.31687">
        <ele>1423</ele>
        <time>2016-10-02T06:46:29+02:00</time>
      </trkpt>
      <trkpt lat="45.98517" lon="6.31685">
        <ele>1422</ele>
        <time>2016-10-02T06:46:31+02:00</time>
      </trkpt>
      <trkpt lat="45.98514" lon="6.31684">
        <ele>1422</ele>
        <time>2016-10-02T06:46:34+02:00</time>
      </trkpt>
      <trkpt lat="45.98511" lon="6.31683">
        <ele>1421</ele>
        <time>2016-10-02T06:46:36+02:00</time>
      </trkpt>
      <trkpt lat="45.98508" lon="6.31681">
        <ele>1421</ele>
        <time>2016-10-02T06:46:39+02:00</time>
      </trkpt>
      <trkpt lat="45.98505" lon="6.3168">
        <ele>1420</ele>
        <time>2016-10-02T06:46:41+02:00</time>
      </trkpt>
      <trkpt lat="45.98503" lon="6.31678">
        <ele>1420</ele>
        <time>2016-10-02T06:46:44+02:00</time>
      </trkpt>
      <trkpt lat="45.985" lon="6.31676">
        <ele>1420</ele>
        <time>2016-10-02T06:46:46+02:00</time>
      </trkpt>
      <trkpt lat="45.98497" lon="6.31673">
        <ele>1419</ele>
        <time>2016-10-02T06:46:49+02:00</time>
      </trkpt>
      <trkpt lat="45.98494" lon="6.31671">
        <ele>1419</ele>
        <time>2016-10-02T06:46:52+02:00</time>
      </trkpt>
      <trkpt lat="45.98491" lon="6.31669">
        <ele>1418</ele>
        <time>2016-10-02T06:46:54+02:00</time>
      </trkpt>
      <trkpt lat="45.98489" lon="6.31667">
        <ele>1418</ele>
        <time>2016-10-02T06:46:57+02:00</time>
      </trkpt>
      <trkpt lat="45.98486" lon="6.31665">
        <ele>1417</ele>
        <time>2016-10-02T06:46:59+02:00</time>
      </trkpt>
      <trkpt lat="45.98483" lon="6.31663">
        <ele>1416</ele>
        <time>2016-10-02T06:47:02+02:00</time>
      </trkpt>
      <trkpt lat="45.9848" lon="6.31661">
        <ele>1416</ele>
        <time>2016-10-02T06:47:04+02:00</time>
      </trkpt>
      <trkpt lat="45.98478" lon="6.31659">
        <ele>1415</ele>
        <time>2016-10-02T06:47:07+02:00</time>
      </trkpt>
      <trkpt lat="45.98475" lon="6.31657">
        <ele>1414</ele>
        <time>2016-10-02T06:47:09+02:00</time>
      </trkpt>
      <trkpt lat="45.98472" lon="6.31655">
        <ele>1414</ele>
        <time>2016-10-02T06:47:12+02:00</time>
      </trkpt>
      <trkpt lat="45.9847" lon="6.31654">
        <ele>1413</ele>
        <time>2016-10-02T06:47:14+02:00</time>
      </trkpt>
      <trkpt lat="45.98467" lon="6.31652">
        <ele>1412</ele>
        <time>2016-10-02T06:47:16+02:00</time>
      </trkpt>
      <trkpt lat="45.98464" lon="6.3165">
        <ele>1412</ele>
        <time>2016-10-02T06:47:19+02:00</time>
      </trkpt>
      <trkpt lat="45.98462" lon="6.31649">
        <ele>1411</ele>
        <time>2016-10-02T06:47:21+02:00</time>
      </trkpt>
      <trkpt lat="45.98459" lon="6.31648">
        <ele>1411</ele>
        <time>2016-10-02T06:47:23+02:00</time>
      </trkpt>
      <trkpt lat="45.98456" lon="6.31646">
        <ele>1410</ele>
        <time>2016-10-02T06:47:26+02:00</time>
      </trkpt>
      <trkpt lat="45.98454" lon="6.31645">
        <ele>1409</ele>
        <time>2016-10-02T06:47:28+02:00</time>
      </trkpt>
      <trkpt lat="45.98452" lon="6.31643">
        <ele>1409</ele>
        <time>2016-10-02T06:47:30+02:00</time>
      </trkpt>
      <trkpt lat="45.98449" lon="6.31641">
        <ele>1408</ele>
        <time>2016-10-02T06:47:32+02:00</time>
      </trkpt>
      <trkpt lat="45.98447" lon="6.31638">
        <ele>1408</ele>
        <time>2016-10-02T06:47:35+02:00</time>
      </trkpt>
      <trkpt lat="45.98446" lon="6.31635">
        <ele>1407</ele>
        <time>2016-10-02T06:47:37+02:00</time>
      </trkpt>
      <trkpt lat="45.98445" lon="6.31632">
        <ele>1407</ele>
        <time>2016-10-02T06:47:38+02:00</time>
      </trkpt>
      <trkpt lat="45.98444" lon="6.3163">
        <ele>1407</ele>
        <time>2016-10-02T06:47:40+02:00</time>
      </trkpt>
      <trkpt lat="45.98444" lon="6.31628">
        <ele>1407</ele>
        <time>2016-10-02T06:47:41+02:00</time>
      </trkpt>
      <trkpt lat="45.98444" lon="6.31625">
        <ele>1407</ele>
        <time>2016-10-02T06:47:43+02:00</time>
      </trkpt>
      <trkpt lat="45.98444" lon="6.31621">
        <ele>1407</ele>
        <time>2016-10-02T06:47:45+02:00</time>
      </trkpt>
      <trkpt lat="45.98445" lon="6.31619">
        <ele>1407</ele>
        <time>2016-10-02T06:47:46+02:00</time>
      </trkpt>
      <trkpt lat="45.98446" lon="6.31617">
        <ele>1407</ele>
        <time>2016-10-02T06:47:48+02:00</time>
      </trkpt>
      <trkpt lat="45.98446" lon="6.31614">
        <ele>1407</ele>
        <time>2016-10-02T06:47:49+02:00</time>
      </trkpt>
      <trkpt lat="45.98445" lon="6.31614">
        <ele>1407</ele>
        <time>2016-10-02T06:47:50+02:00</time>
      </trkpt>
      <trkpt lat="45.98445" lon="6.31611">
        <ele>1407</ele>
        <time>2016-10-02T06:47:51+02:00</time>
      </trkpt>
      <trkpt lat="45.98444" lon="6.31607">
        <ele>1406</ele>
        <time>2016-10-02T06:47:53+02:00</time>
      </trkpt>
      <trkpt lat="45.98443" lon="6.31605">
        <ele>1406</ele>
        <time>2016-10-02T06:47:55+02:00</time>
      </trkpt>
      <trkpt lat="45.98441" lon="6.31603">
        <ele>1406</ele>
        <time>2016-10-02T06:47:57+02:00</time>
      </trkpt>
      <trkpt lat="45.9844" lon="6.316">
        <ele>1405</ele>
        <time>2016-10-02T06:47:59+02:00</time>
      </trkpt>
      <trkpt lat="45.98438" lon="6.31597">
        <ele>1405</ele>
        <time>2016-10-02T06:48:01+02:00</time>
      </trkpt>
      <trkpt lat="45.98437" lon="6.31593">
        <ele>1404</ele>
        <time>2016-10-02T06:48:03+02:00</time>
      </trkpt>
      <trkpt lat="45.98436" lon="6.31589">
        <ele>1404</ele>
        <time>2016-10-02T06:48:06+02:00</time>
      </trkpt>
      <trkpt lat="45.98435" lon="6.31586">
        <ele>1404</ele>
        <time>2016-10-02T06:48:08+02:00</time>
      </trkpt>
      <trkpt lat="45.98434" lon="6.31583">
        <ele>1404</ele>
        <time>2016-10-02T06:48:09+02:00</time>
      </trkpt>
      <trkpt lat="45.98434" lon="6.31581">
        <ele>1403</ele>
        <time>2016-10-02T06:48:11+02:00</time>
      </trkpt>
      <trkpt lat="45.98433" lon="6.31579">
        <ele>1403</ele>
        <time>2016-10-02T06:48:12+02:00</time>
      </trkpt>
      <trkpt lat="45.98433" lon="6.31576">
        <ele>1403</ele>
        <time>2016-10-02T06:48:14+02:00</time>
      </trkpt>
      <trkpt lat="45.98433" lon="6.31574">
        <ele>1403</ele>
        <time>2016-10-02T06:48:15+02:00</time>
      </trkpt>
      <trkpt lat="45.98432" lon="6.31572">
        <ele>1403</ele>
        <time>2016-10-02T06:48:16+02:00</time>
      </trkpt>
      <trkpt lat="45.98431" lon="6.31569">
        <ele>1402</ele>
        <time>2016-10-02T06:48:18+02:00</time>
      </trkpt>
      <trkpt lat="45.9843" lon="6.31567">
        <ele>1402</ele>
        <time>2016-10-02T06:48:20+02:00</time>
      </trkpt>
      <trkpt lat="45.98429" lon="6.31564">
        <ele>1402</ele>
        <time>2016-10-02T06:48:22+02:00</time>
      </trkpt>
      <trkpt lat="45.98428" lon="6.31562">
        <ele>1401</ele>
        <time>2016-10-02T06:48:23+02:00</time>
      </trkpt>
      <trkpt lat="45.98427" lon="6.31559">
        <ele>1401</ele>
        <time>2016-10-02T06:48:25+02:00</time>
      </trkpt>
      <trkpt lat="45.98426" lon="6.31556">
        <ele>1401</ele>
        <time>2016-10-02T06:48:27+02:00</time>
      </trkpt>
      <trkpt lat="45.98424" lon="6.31554">
        <ele>1400</ele>
        <time>2016-10-02T06:48:28+02:00</time>
      </trkpt>
      <trkpt lat="45.98423" lon="6.31551">
        <ele>1400</ele>
        <time>2016-10-02T06:48:31+02:00</time>
      </trkpt>
      <trkpt lat="45.9842" lon="6.31548">
        <ele>1399</ele>
        <time>2016-10-02T06:48:33+02:00</time>
      </trkpt>
      <trkpt lat="45.98418" lon="6.31546">
        <ele>1399</ele>
        <time>2016-10-02T06:48:35+02:00</time>
      </trkpt>
      <trkpt lat="45.98416" lon="6.31544">
        <ele>1398</ele>
        <time>2016-10-02T06:48:37+02:00</time>
      </trkpt>
      <trkpt lat="45.98414" lon="6.31541">
        <ele>1398</ele>
        <time>2016-10-02T06:48:39+02:00</time>
      </trkpt>
      <trkpt lat="45.98412" lon="6.31539">
        <ele>1397</ele>
        <time>2016-10-02T06:48:42+02:00</time>
      </trkpt>
      <trkpt lat="45.98409" lon="6.31537">
        <ele>1397</ele>
        <time>2016-10-02T06:48:44+02:00</time>
      </trkpt>
      <trkpt lat="45.98406" lon="6.31535">
        <ele>1396</ele>
        <time>2016-10-02T06:48:47+02:00</time>
      </trkpt>
      <trkpt lat="45.98403" lon="6.31534">
        <ele>1396</ele>
        <time>2016-10-02T06:48:49+02:00</time>
      </trkpt>
      <trkpt lat="45.98401" lon="6.31532">
        <ele>1395</ele>
        <time>2016-10-02T06:48:51+02:00</time>
      </trkpt>
      <trkpt lat="45.98398" lon="6.3153">
        <ele>1395</ele>
        <time>2016-10-02T06:48:54+02:00</time>
      </trkpt>
      <trkpt lat="45.98396" lon="6.31528">
        <ele>1394</ele>
        <time>2016-10-02T06:48:56+02:00</time>
      </trkpt>
      <trkpt lat="45.98393" lon="6.31526">
        <ele>1394</ele>
        <time>2016-10-02T06:48:58+02:00</time>
      </trkpt>
      <trkpt lat="45.98391" lon="6.31524">
        <ele>1393</ele>
        <time>2016-10-02T06:49:01+02:00</time>
      </trkpt>
      <trkpt lat="45.98388" lon="6.31522">
        <ele>1393</ele>
        <time>2016-10-02T06:49:03+02:00</time>
      </trkpt>
      <trkpt lat="45.98386" lon="6.31519">
        <ele>1392</ele>
        <time>2016-10-02T06:49:05+02:00</time>
      </trkpt>
      <trkpt lat="45.98384" lon="6.31517">
        <ele>1392</ele>
        <time>2016-10-02T06:49:07+02:00</time>
      </trkpt>
      <trkpt lat="45.98382" lon="6.31515">
        <ele>1392</ele>
        <time>2016-10-02T06:49:09+02:00</time>
      </trkpt>
      <trkpt lat="45.9838" lon="6.31512">
        <ele>1391</ele>
        <time>2016-10-02T06:49:11+02:00</time>
      </trkpt>
      <trkpt lat="45.98378" lon="6.3151">
        <ele>1391</ele>
        <time>2016-10-02T06:49:13+02:00</time>
      </trkpt>
      <trkpt lat="45.98377" lon="6.31507">
        <ele>1390</ele>
        <time>2016-10-02T06:49:15+02:00</time>
      </trkpt>
      <trkpt lat="45.98375" lon="6.31505">
        <ele>1390</ele>
        <time>2016-10-02T06:49:18+02:00</time>
      </trkpt>
      <trkpt lat="45.98373" lon="6.31502">
        <ele>1390</ele>
        <time>2016-10-02T06:49:20+02:00</time>
      </trkpt>
      <trkpt lat="45.98371" lon="6.315">
        <ele>1389</ele>
        <time>2016-10-02T06:49:21+02:00</time>
      </trkpt>
      <trkpt lat="45.9837" lon="6.31498">
        <ele>1389</ele>
        <time>2016-10-02T06:49:23+02:00</time>
      </trkpt>
      <trkpt lat="45.98368" lon="6.31495">
        <ele>1389</ele>
        <time>2016-10-02T06:49:25+02:00</time>
      </trkpt>
      <trkpt lat="45.98366" lon="6.31493">
        <ele>1389</ele>
        <time>2016-10-02T06:49:27+02:00</time>
      </trkpt>
      <trkpt lat="45.98365" lon="6.31491">
        <ele>1389</ele>
        <time>2016-10-02T06:49:29+02:00</time>
      </trkpt>
      <trkpt lat="45.98363" lon="6.31488">
        <ele>1388</ele>
        <time>2016-10-02T06:49:31+02:00</time>
      </trkpt>
      <trkpt lat="45.98361" lon="6.31486">
        <ele>1388</ele>
        <time>2016-10-02T06:49:33+02:00</time>
      </trkpt>
      <trkpt lat="45.98359" lon="6.31484">
        <ele>1388</ele>
        <time>2016-10-02T06:49:35+02:00</time>
      </trkpt>
      <trkpt lat="45.98358" lon="6.31482">
        <ele>1388</ele>
        <time>2016-10-02T06:49:37+02:00</time>
      </trkpt>
      <trkpt lat="45.98356" lon="6.3148">
        <ele>1387</ele>
        <time>2016-10-02T06:49:39+02:00</time>
      </trkpt>
      <trkpt lat="45.98354" lon="6.31478">
        <ele>1387</ele>
        <time>2016-10-02T06:49:40+02:00</time>
      </trkpt>
      <trkpt lat="45.98352" lon="6.31477">
        <ele>1387</ele>
        <time>2016-10-02T06:49:42+02:00</time>
      </trkpt>
      <trkpt lat="45.9835" lon="6.31476">
        <ele>1386</ele>
        <time>2016-10-02T06:49:44+02:00</time>
      </trkpt>
      <trkpt lat="45.98348" lon="6.31476">
        <ele>1386</ele>
        <time>2016-10-02T06:49:46+02:00</time>
      </trkpt>
      <trkpt lat="45.98345" lon="6.31476">
        <ele>1385</ele>
        <time>2016-10-02T06:49:47+02:00</time>
      </trkpt>
      <trkpt lat="45.98343" lon="6.31475">
        <ele>1385</ele>
        <time>2016-10-02T06:49:49+02:00</time>
      </trkpt>
      <trkpt lat="45.98341" lon="6.31475">
        <ele>1385</ele>
        <time>2016-10-02T06:49:51+02:00</time>
      </trkpt>
      <trkpt lat="45.98338" lon="6.31474">
        <ele>1384</ele>
        <time>2016-10-02T06:49:53+02:00</time>
      </trkpt>
      <trkpt lat="45.98336" lon="6.31474">
        <ele>1384</ele>
        <time>2016-10-02T06:49:55+02:00</time>
      </trkpt>
      <trkpt lat="45.98333" lon="6.31474">
        <ele>1383</ele>
        <time>2016-10-02T06:49:57+02:00</time>
      </trkpt>
      <trkpt lat="45.98332" lon="6.31475">
        <ele>1383</ele>
        <time>2016-10-02T06:49:59+02:00</time>
      </trkpt>
      <trkpt lat="45.9833" lon="6.31475">
        <ele>1383</ele>
        <time>2016-10-02T06:50:00+02:00</time>
      </trkpt>
      <trkpt lat="45.98329" lon="6.31476">
        <ele>1383</ele>
        <time>2016-10-02T06:50:01+02:00</time>
      </trkpt>
      <trkpt lat="45.98326" lon="6.31476">
        <ele>1383</ele>
        <time>2016-10-02T06:50:04+02:00</time>
      </trkpt>
      <trkpt lat="45.98325" lon="6.31476">
        <ele>1383</ele>
        <time>2016-10-02T06:50:05+02:00</time>
      </trkpt>
      <trkpt lat="45.98323" lon="6.31476">
        <ele>1383</ele>
        <time>2016-10-02T06:50:06+02:00</time>
      </trkpt>
      <trkpt lat="45.98322" lon="6.31476">
        <ele>1382</ele>
        <time>2016-10-02T06:50:07+02:00</time>
      </trkpt>
      <trkpt lat="45.9832" lon="6.31476">
        <ele>1382</ele>
        <time>2016-10-02T06:50:09+02:00</time>
      </trkpt>
      <trkpt lat="45.98318" lon="6.31476">
        <ele>1382</ele>
        <time>2016-10-02T06:50:10+02:00</time>
      </trkpt>
      <trkpt lat="45.98316" lon="6.31475">
        <ele>1382</ele>
        <time>2016-10-02T06:50:12+02:00</time>
      </trkpt>
      <trkpt lat="45.98313" lon="6.31475">
        <ele>1382</ele>
        <time>2016-10-02T06:50:14+02:00</time>
      </trkpt>
      <trkpt lat="45.98311" lon="6.31475">
        <ele>1382</ele>
        <time>2016-10-02T06:50:16+02:00</time>
      </trkpt>
      <trkpt lat="45.98309" lon="6.31475">
        <ele>1381</ele>
        <time>2016-10-02T06:50:18+02:00</time>
      </trkpt>
      <trkpt lat="45.98306" lon="6.31475">
        <ele>1381</ele>
        <time>2016-10-02T06:50:20+02:00</time>
      </trkpt>
      <trkpt lat="45.98304" lon="6.31475">
        <ele>1381</ele>
        <time>2016-10-02T06:50:22+02:00</time>
      </trkpt>
      <trkpt lat="45.98301" lon="6.31476">
        <ele>1381</ele>
        <time>2016-10-02T06:50:24+02:00</time>
      </trkpt>
      <trkpt lat="45.98299" lon="6.31476">
        <ele>1381</ele>
        <time>2016-10-02T06:50:26+02:00</time>
      </trkpt>
      <trkpt lat="45.98297" lon="6.31476">
        <ele>1380</ele>
        <time>2016-10-02T06:50:28+02:00</time>
      </trkpt>
      <trkpt lat="45.98294" lon="6.31477">
        <ele>1380</ele>
        <time>2016-10-02T06:50:30+02:00</time>
      </trkpt>
      <trkpt lat="45.98291" lon="6.31478">
        <ele>1380</ele>
        <time>2016-10-02T06:50:33+02:00</time>
      </trkpt>
      <trkpt lat="45.98288" lon="6.31478">
        <ele>1380</ele>
        <time>2016-10-02T06:50:35+02:00</time>
      </trkpt>
      <trkpt lat="45.98286" lon="6.31479">
        <ele>1379</ele>
        <time>2016-10-02T06:50:37+02:00</time>
      </trkpt>
      <trkpt lat="45.98283" lon="6.31479">
        <ele>1379</ele>
        <time>2016-10-02T06:50:39+02:00</time>
      </trkpt>
      <trkpt lat="45.98281" lon="6.31479">
        <ele>1379</ele>
        <time>2016-10-02T06:50:41+02:00</time>
      </trkpt>
      <trkpt lat="45.98278" lon="6.31479">
        <ele>1379</ele>
        <time>2016-10-02T06:50:43+02:00</time>
      </trkpt>
      <trkpt lat="45.98275" lon="6.31479">
        <ele>1379</ele>
        <time>2016-10-02T06:50:46+02:00</time>
      </trkpt>
      <trkpt lat="45.98273" lon="6.31479">
        <ele>1378</ele>
        <time>2016-10-02T06:50:48+02:00</time>
      </trkpt>
      <trkpt lat="45.9827" lon="6.3148">
        <ele>1378</ele>
        <time>2016-10-02T06:50:50+02:00</time>
      </trkpt>
      <trkpt lat="45.98267" lon="6.3148">
        <ele>1378</ele>
        <time>2016-10-02T06:50:53+02:00</time>
      </trkpt>
      <trkpt lat="45.98264" lon="6.3148">
        <ele>1378</ele>
        <time>2016-10-02T06:50:55+02:00</time>
      </trkpt>
      <trkpt lat="45.98262" lon="6.3148">
        <ele>1378</ele>
        <time>2016-10-02T06:50:57+02:00</time>
      </trkpt>
      <trkpt lat="45.98259" lon="6.31481">
        <ele>1377</ele>
        <time>2016-10-02T06:50:59+02:00</time>
      </trkpt>
      <trkpt lat="45.98257" lon="6.31482">
        <ele>1377</ele>
        <time>2016-10-02T06:51:01+02:00</time>
      </trkpt>
      <trkpt lat="45.98254" lon="6.31482">
        <ele>1377</ele>
        <time>2016-10-02T06:51:03+02:00</time>
      </trkpt>
      <trkpt lat="45.98252" lon="6.31482">
        <ele>1377</ele>
        <time>2016-10-02T06:51:05+02:00</time>
      </trkpt>
      <trkpt lat="45.9825" lon="6.31482">
        <ele>1377</ele>
        <time>2016-10-02T06:51:07+02:00</time>
      </trkpt>
      <trkpt lat="45.98248" lon="6.31483">
        <ele>1376</ele>
        <time>2016-10-02T06:51:09+02:00</time>
      </trkpt>
      <trkpt lat="45.98246" lon="6.31483">
        <ele>1376</ele>
        <time>2016-10-02T06:51:10+02:00</time>
      </trkpt>
      <trkpt lat="45.98244" lon="6.31483">
        <ele>1376</ele>
        <time>2016-10-02T06:51:12+02:00</time>
      </trkpt>
      <trkpt lat="45.98242" lon="6.31484">
        <ele>1376</ele>
        <time>2016-10-02T06:51:13+02:00</time>
      </trkpt>
      <trkpt lat="45.9824" lon="6.31484">
        <ele>1376</ele>
        <time>2016-10-02T06:51:15+02:00</time>
      </trkpt>
      <trkpt lat="45.98238" lon="6.31484">
        <ele>1376</ele>
        <time>2016-10-02T06:51:17+02:00</time>
      </trkpt>
      <trkpt lat="45.98235" lon="6.31485">
        <ele>1375</ele>
        <time>2016-10-02T06:51:18+02:00</time>
      </trkpt>
      <trkpt lat="45.98233" lon="6.31485">
        <ele>1375</ele>
        <time>2016-10-02T06:51:20+02:00</time>
      </trkpt>
      <trkpt lat="45.98231" lon="6.31485">
        <ele>1375</ele>
        <time>2016-10-02T06:51:22+02:00</time>
      </trkpt>
      <trkpt lat="45.98229" lon="6.31485">
        <ele>1375</ele>
        <time>2016-10-02T06:51:24+02:00</time>
      </trkpt>
      <trkpt lat="45.98226" lon="6.31485">
        <ele>1375</ele>
        <time>2016-10-02T06:51:26+02:00</time>
      </trkpt>
      <trkpt lat="45.98224" lon="6.31486">
        <ele>1375</ele>
        <time>2016-10-02T06:51:28+02:00</time>
      </trkpt>
      <trkpt lat="45.98222" lon="6.31486">
        <ele>1374</ele>
        <time>2016-10-02T06:51:29+02:00</time>
      </trkpt>
      <trkpt lat="45.9822" lon="6.31486">
        <ele>1374</ele>
        <time>2016-10-02T06:51:31+02:00</time>
      </trkpt>
      <trkpt lat="45.98218" lon="6.31486">
        <ele>1374</ele>
        <time>2016-10-02T06:51:33+02:00</time>
      </trkpt>
      <trkpt lat="45.98215" lon="6.31486">
        <ele>1374</ele>
        <time>2016-10-02T06:51:35+02:00</time>
      </trkpt>
      <trkpt lat="45.98213" lon="6.31487">
        <ele>1374</ele>
        <time>2016-10-02T06:51:37+02:00</time>
      </trkpt>
      <trkpt lat="45.98211" lon="6.31487">
        <ele>1373</ele>
        <time>2016-10-02T06:51:39+02:00</time>
      </trkpt>
      <trkpt lat="45.98208" lon="6.31487">
        <ele>1373</ele>
        <time>2016-10-02T06:51:41+02:00</time>
      </trkpt>
      <trkpt lat="45.98206" lon="6.31487">
        <ele>1373</ele>
        <time>2016-10-02T06:51:43+02:00</time>
      </trkpt>
      <trkpt lat="45.98203" lon="6.31488">
        <ele>1373</ele>
        <time>2016-10-02T06:51:45+02:00</time>
      </trkpt>
      <trkpt lat="45.98201" lon="6.31488">
        <ele>1373</ele>
        <time>2016-10-02T06:51:47+02:00</time>
      </trkpt>
      <trkpt lat="45.98198" lon="6.31488">
        <ele>1372</ele>
        <time>2016-10-02T06:51:49+02:00</time>
      </trkpt>
      <trkpt lat="45.98196" lon="6.31487">
        <ele>1372</ele>
        <time>2016-10-02T06:51:51+02:00</time>
      </trkpt>
      <trkpt lat="45.98193" lon="6.31487">
        <ele>1372</ele>
        <time>2016-10-02T06:51:53+02:00</time>
      </trkpt>
      <trkpt lat="45.9819" lon="6.31487">
        <ele>1372</ele>
        <time>2016-10-02T06:51:55+02:00</time>
      </trkpt>
      <trkpt lat="45.98188" lon="6.31487">
        <ele>1372</ele>
        <time>2016-10-02T06:51:57+02:00</time>
      </trkpt>
      <trkpt lat="45.98185" lon="6.31486">
        <ele>1371</ele>
        <time>2016-10-02T06:51:59+02:00</time>
      </trkpt>
      <trkpt lat="45.98182" lon="6.31486">
        <ele>1371</ele>
        <time>2016-10-02T06:52:02+02:00</time>
      </trkpt>
      <trkpt lat="45.9818" lon="6.31486">
        <ele>1371</ele>
        <time>2016-10-02T06:52:04+02:00</time>
      </trkpt>
      <trkpt lat="45.98177" lon="6.31485">
        <ele>1371</ele>
        <time>2016-10-02T06:52:06+02:00</time>
      </trkpt>
      <trkpt lat="45.98174" lon="6.31484">
        <ele>1370</ele>
        <time>2016-10-02T06:52:08+02:00</time>
      </trkpt>
      <trkpt lat="45.98172" lon="6.31483">
        <ele>1370</ele>
        <time>2016-10-02T06:52:11+02:00</time>
      </trkpt>
      <trkpt lat="45.98169" lon="6.31482">
        <ele>1370</ele>
        <time>2016-10-02T06:52:13+02:00</time>
      </trkpt>
      <trkpt lat="45.98166" lon="6.31481">
        <ele>1370</ele>
        <time>2016-10-02T06:52:15+02:00</time>
      </trkpt>
      <trkpt lat="45.98163" lon="6.3148">
        <ele>1369</ele>
        <time>2016-10-02T06:52:18+02:00</time>
      </trkpt>
      <trkpt lat="45.9816" lon="6.31479">
        <ele>1369</ele>
        <time>2016-10-02T06:52:20+02:00</time>
      </trkpt>
      <trkpt lat="45.98158" lon="6.31478">
        <ele>1369</ele>
        <time>2016-10-02T06:52:22+02:00</time>
      </trkpt>
      <trkpt lat="45.98155" lon="6.31478">
        <ele>1369</ele>
        <time>2016-10-02T06:52:24+02:00</time>
      </trkpt>
      <trkpt lat="45.98152" lon="6.31477">
        <ele>1368</ele>
        <time>2016-10-02T06:52:27+02:00</time>
      </trkpt>
      <trkpt lat="45.9815" lon="6.31477">
        <ele>1368</ele>
        <time>2016-10-02T06:52:29+02:00</time>
      </trkpt>
      <trkpt lat="45.98147" lon="6.31477">
        <ele>1368</ele>
        <time>2016-10-02T06:52:31+02:00</time>
      </trkpt>
      <trkpt lat="45.98144" lon="6.31477">
        <ele>1368</ele>
        <time>2016-10-02T06:52:33+02:00</time>
      </trkpt>
      <trkpt lat="45.98141" lon="6.31476">
        <ele>1367</ele>
        <time>2016-10-02T06:52:36+02:00</time>
      </trkpt>
      <trkpt lat="45.98138" lon="6.31476">
        <ele>1367</ele>
        <time>2016-10-02T06:52:38+02:00</time>
      </trkpt>
      <trkpt lat="45.98135" lon="6.31476">
        <ele>1367</ele>
        <time>2016-10-02T06:52:41+02:00</time>
      </trkpt>
      <trkpt lat="45.98132" lon="6.31477">
        <ele>1367</ele>
        <time>2016-10-02T06:52:43+02:00</time>
      </trkpt>
      <trkpt lat="45.98129" lon="6.31478">
        <ele>1366</ele>
        <time>2016-10-02T06:52:46+02:00</time>
      </trkpt>
      <trkpt lat="45.98126" lon="6.31478">
        <ele>1366</ele>
        <time>2016-10-02T06:52:48+02:00</time>
      </trkpt>
      <trkpt lat="45.98123" lon="6.31478">
        <ele>1366</ele>
        <time>2016-10-02T06:52:50+02:00</time>
      </trkpt>
      <trkpt lat="45.9812" lon="6.31478">
        <ele>1366</ele>
        <time>2016-10-02T06:52:52+02:00</time>
      </trkpt>
      <trkpt lat="45.98118" lon="6.31478">
        <ele>1365</ele>
        <time>2016-10-02T06:52:55+02:00</time>
      </trkpt>
      <trkpt lat="45.98115" lon="6.31478">
        <ele>1365</ele>
        <time>2016-10-02T06:52:57+02:00</time>
      </trkpt>
      <trkpt lat="45.98112" lon="6.31478">
        <ele>1365</ele>
        <time>2016-10-02T06:52:59+02:00</time>
      </trkpt>
      <trkpt lat="45.98109" lon="6.31478">
        <ele>1365</ele>
        <time>2016-10-02T06:53:01+02:00</time>
      </trkpt>
      <trkpt lat="45.98107" lon="6.31477">
        <ele>1364</ele>
        <time>2016-10-02T06:53:04+02:00</time>
      </trkpt>
      <trkpt lat="45.98104" lon="6.31477">
        <ele>1364</ele>
        <time>2016-10-02T06:53:06+02:00</time>
      </trkpt>
      <trkpt lat="45.98101" lon="6.31476">
        <ele>1364</ele>
        <time>2016-10-02T06:53:08+02:00</time>
      </trkpt>
      <trkpt lat="45.98098" lon="6.31475">
        <ele>1364</ele>
        <time>2016-10-02T06:53:10+02:00</time>
      </trkpt>
      <trkpt lat="45.98095" lon="6.31474">
        <ele>1363</ele>
        <time>2016-10-02T06:53:13+02:00</time>
      </trkpt>
      <trkpt lat="45.98093" lon="6.31474">
        <ele>1363</ele>
        <time>2016-10-02T06:53:15+02:00</time>
      </trkpt>
      <trkpt lat="45.9809" lon="6.31474">
        <ele>1363</ele>
        <time>2016-10-02T06:53:17+02:00</time>
      </trkpt>
      <trkpt lat="45.98087" lon="6.31474">
        <ele>1363</ele>
        <time>2016-10-02T06:53:19+02:00</time>
      </trkpt>
      <trkpt lat="45.98085" lon="6.31474">
        <ele>1362</ele>
        <time>2016-10-02T06:53:21+02:00</time>
      </trkpt>
      <trkpt lat="45.98082" lon="6.31475">
        <ele>1362</ele>
        <time>2016-10-02T06:53:24+02:00</time>
      </trkpt>
      <trkpt lat="45.98079" lon="6.31475">
        <ele>1362</ele>
        <time>2016-10-02T06:53:26+02:00</time>
      </trkpt>
      <trkpt lat="45.98077" lon="6.31476">
        <ele>1362</ele>
        <time>2016-10-02T06:53:28+02:00</time>
      </trkpt>
      <trkpt lat="45.98074" lon="6.31476">
        <ele>1362</ele>
        <time>2016-10-02T06:53:30+02:00</time>
      </trkpt>
      <trkpt lat="45.98071" lon="6.31477">
        <ele>1362</ele>
        <time>2016-10-02T06:53:33+02:00</time>
      </trkpt>
      <trkpt lat="45.98068" lon="6.31477">
        <ele>1362</ele>
        <time>2016-10-02T06:53:35+02:00</time>
      </trkpt>
      <trkpt lat="45.98065" lon="6.31478">
        <ele>1362</ele>
        <time>2016-10-02T06:53:37+02:00</time>
      </trkpt>
      <trkpt lat="45.98062" lon="6.31479">
        <ele>1362</ele>
        <time>2016-10-02T06:53:40+02:00</time>
      </trkpt>
      <trkpt lat="45.9806" lon="6.31479">
        <ele>1362</ele>
        <time>2016-10-02T06:53:42+02:00</time>
      </trkpt>
      <trkpt lat="45.98057" lon="6.31479">
        <ele>1362</ele>
        <time>2016-10-02T06:53:44+02:00</time>
      </trkpt>
      <trkpt lat="45.98054" lon="6.3148">
        <ele>1362</ele>
        <time>2016-10-02T06:53:46+02:00</time>
      </trkpt>
      <trkpt lat="45.98051" lon="6.3148">
        <ele>1362</ele>
        <time>2016-10-02T06:53:49+02:00</time>
      </trkpt>
      <trkpt lat="45.98048" lon="6.31481">
        <ele>1361</ele>
        <time>2016-10-02T06:53:51+02:00</time>
      </trkpt>
      <trkpt lat="45.98046" lon="6.31481">
        <ele>1361</ele>
        <time>2016-10-02T06:53:53+02:00</time>
      </trkpt>
      <trkpt lat="45.98043" lon="6.31482">
        <ele>1361</ele>
        <time>2016-10-02T06:53:55+02:00</time>
      </trkpt>
      <trkpt lat="45.9804" lon="6.31482">
        <ele>1361</ele>
        <time>2016-10-02T06:53:57+02:00</time>
      </trkpt>
      <trkpt lat="45.98038" lon="6.31483">
        <ele>1361</ele>
        <time>2016-10-02T06:53:59+02:00</time>
      </trkpt>
      <trkpt lat="45.98035" lon="6.31483">
        <ele>1361</ele>
        <time>2016-10-02T06:54:01+02:00</time>
      </trkpt>
      <trkpt lat="45.98033" lon="6.31484">
        <ele>1361</ele>
        <time>2016-10-02T06:54:03+02:00</time>
      </trkpt>
      <trkpt lat="45.98031" lon="6.31485">
        <ele>1361</ele>
        <time>2016-10-02T06:54:05+02:00</time>
      </trkpt>
      <trkpt lat="45.98028" lon="6.31486">
        <ele>1361</ele>
        <time>2016-10-02T06:54:07+02:00</time>
      </trkpt>
      <trkpt lat="45.98026" lon="6.31486">
        <ele>1361</ele>
        <time>2016-10-02T06:54:09+02:00</time>
      </trkpt>
      <trkpt lat="45.98023" lon="6.31486">
        <ele>1361</ele>
        <time>2016-10-02T06:54:12+02:00</time>
      </trkpt>
      <trkpt lat="45.9802" lon="6.31486">
        <ele>1361</ele>
        <time>2016-10-02T06:54:14+02:00</time>
      </trkpt>
      <trkpt lat="45.98018" lon="6.31486">
        <ele>1361</ele>
        <time>2016-10-02T06:54:16+02:00</time>
      </trkpt>
      <trkpt lat="45.98015" lon="6.31486">
        <ele>1360</ele>
        <time>2016-10-02T06:54:18+02:00</time>
      </trkpt>
      <trkpt lat="45.98013" lon="6.31486">
        <ele>1360</ele>
        <time>2016-10-02T06:54:20+02:00</time>
      </trkpt>
      <trkpt lat="45.98011" lon="6.31485">
        <ele>1360</ele>
        <time>2016-10-02T06:54:22+02:00</time>
      </trkpt>
      <trkpt lat="45.98009" lon="6.31485">
        <ele>1360</ele>
        <time>2016-10-02T06:54:23+02:00</time>
      </trkpt>
      <trkpt lat="45.98007" lon="6.31485">
        <ele>1360</ele>
        <time>2016-10-02T06:54:25+02:00</time>
      </trkpt>
      <trkpt lat="45.98007" lon="6.31489">
        <ele>1360</ele>
        <time>2016-10-02T06:54:27+02:00</time>
      </trkpt>
      <trkpt lat="45.98008" lon="6.31491">
        <ele>1360</ele>
        <time>2016-10-02T06:54:28+02:00</time>
      </trkpt>
      <trkpt lat="45.98008" lon="6.31494">
        <ele>1360</ele>
        <time>2016-10-02T06:54:30+02:00</time>
      </trkpt>
      <trkpt lat="45.98009" lon="6.31497">
        <ele>1360</ele>
        <time>2016-10-02T06:54:31+02:00</time>
      </trkpt>
      <trkpt lat="45.98009" lon="6.315">
        <ele>1360</ele>
        <time>2016-10-02T06:54:33+02:00</time>
      </trkpt>
      <trkpt lat="45.9801" lon="6.31503">
        <ele>1360</ele>
        <time>2016-10-02T06:54:35+02:00</time>
      </trkpt>
      <trkpt lat="45.9801" lon="6.31506">
        <ele>1360</ele>
        <time>2016-10-02T06:54:37+02:00</time>
      </trkpt>
      <trkpt lat="45.98011" lon="6.3151">
        <ele>1360</ele>
        <time>2016-10-02T06:54:39+02:00</time>
      </trkpt>
      <trkpt lat="45.98012" lon="6.31513">
        <ele>1360</ele>
        <time>2016-10-02T06:54:41+02:00</time>
      </trkpt>
      <trkpt lat="45.98012" lon="6.31517">
        <ele>1360</ele>
        <time>2016-10-02T06:54:43+02:00</time>
      </trkpt>
      <trkpt lat="45.98013" lon="6.31521">
        <ele>1360</ele>
        <time>2016-10-02T06:54:45+02:00</time>
      </trkpt>
      <trkpt lat="45.98014" lon="6.31524">
        <ele>1360</ele>
        <time>2016-10-02T06:54:47+02:00</time>
      </trkpt>
      <trkpt lat="45.98014" lon="6.31528">
        <ele>1361</ele>
        <time>2016-10-02T06:54:49+02:00</time>
      </trkpt>
      <trkpt lat="45.98015" lon="6.31532">
        <ele>1361</ele>
        <time>2016-10-02T06:54:51+02:00</time>
      </trkpt>
      <trkpt lat="45.98015" lon="6.31535">
        <ele>1361</ele>
        <time>2016-10-02T06:54:54+02:00</time>
      </trkpt>
      <trkpt lat="45.98016" lon="6.31539">
        <ele>1361</ele>
        <time>2016-10-02T06:54:56+02:00</time>
      </trkpt>
      <trkpt lat="45.98016" lon="6.31543">
        <ele>1361</ele>
        <time>2016-10-02T06:54:58+02:00</time>
      </trkpt>
      <trkpt lat="45.98017" lon="6.31546">
        <ele>1361</ele>
        <time>2016-10-02T06:55:00+02:00</time>
      </trkpt>
      <trkpt lat="45.98017" lon="6.3155">
        <ele>1361</ele>
        <time>2016-10-02T06:55:02+02:00</time>
      </trkpt>
      <trkpt lat="45.98018" lon="6.31554">
        <ele>1361</ele>
        <time>2016-10-02T06:55:04+02:00</time>
      </trkpt>
      <trkpt lat="45.98018" lon="6.31557">
        <ele>1361</ele>
        <time>2016-10-02T06:55:06+02:00</time>
      </trkpt>
      <trkpt lat="45.98018" lon="6.31561">
        <ele>1361</ele>
        <time>2016-10-02T06:55:08+02:00</time>
      </trkpt>
      <trkpt lat="45.98019" lon="6.31565">
        <ele>1361</ele>
        <time>2016-10-02T06:55:10+02:00</time>
      </trkpt>
      <trkpt lat="45.9802" lon="6.31569">
        <ele>1361</ele>
        <time>2016-10-02T06:55:12+02:00</time>
      </trkpt>
      <trkpt lat="45.9802" lon="6.31572">
        <ele>1361</ele>
        <time>2016-10-02T06:55:15+02:00</time>
      </trkpt>
      <trkpt lat="45.98021" lon="6.31576">
        <ele>1361</ele>
        <time>2016-10-02T06:55:17+02:00</time>
      </trkpt>
      <trkpt lat="45.98021" lon="6.3158">
        <ele>1361</ele>
        <time>2016-10-02T06:55:19+02:00</time>
      </trkpt>
      <trkpt lat="45.98022" lon="6.31584">
        <ele>1361</ele>
        <time>2016-10-02T06:55:21+02:00</time>
      </trkpt>
      <trkpt lat="45.98023" lon="6.31588">
        <ele>1361</ele>
        <time>2016-10-02T06:55:24+02:00</time>
      </trkpt>
      <trkpt lat="45.98024" lon="6.31591">
        <ele>1361</ele>
        <time>2016-10-02T06:55:26+02:00</time>
      </trkpt>
      <trkpt lat="45.98025" lon="6.31595">
        <ele>1361</ele>
        <time>2016-10-02T06:55:28+02:00</time>
      </trkpt>
      <trkpt lat="45.98026" lon="6.31598">
        <ele>1361</ele>
        <time>2016-10-02T06:55:30+02:00</time>
      </trkpt>
      <trkpt lat="45.98027" lon="6.31602">
        <ele>1361</ele>
        <time>2016-10-02T06:55:32+02:00</time>
      </trkpt>
      <trkpt lat="45.98028" lon="6.31606">
        <ele>1361</ele>
        <time>2016-10-02T06:55:34+02:00</time>
      </trkpt>
      <trkpt lat="45.98028" lon="6.31609">
        <ele>1361</ele>
        <time>2016-10-02T06:55:36+02:00</time>
      </trkpt>
      <trkpt lat="45.98029" lon="6.31613">
        <ele>1361</ele>
        <time>2016-10-02T06:55:38+02:00</time>
      </trkpt>
      <trkpt lat="45.9803" lon="6.31617">
        <ele>1361</ele>
        <time>2016-10-02T06:55:41+02:00</time>
      </trkpt>
      <trkpt lat="45.98031" lon="6.3162">
        <ele>1361</ele>
        <time>2016-10-02T06:55:43+02:00</time>
      </trkpt>
      <trkpt lat="45.98031" lon="6.31624">
        <ele>1361</ele>
        <time>2016-10-02T06:55:45+02:00</time>
      </trkpt>
      <trkpt lat="45.98031" lon="6.31628">
        <ele>1361</ele>
        <time>2016-10-02T06:55:47+02:00</time>
      </trkpt>
      <trkpt lat="45.98032" lon="6.31631">
        <ele>1361</ele>
        <time>2016-10-02T06:55:49+02:00</time>
      </trkpt>
      <trkpt lat="45.98032" lon="6.31635">
        <ele>1361</ele>
        <time>2016-10-02T06:55:51+02:00</time>
      </trkpt>
      <trkpt lat="45.98033" lon="6.31638">
        <ele>1361</ele>
        <time>2016-10-02T06:55:53+02:00</time>
      </trkpt>
      <trkpt lat="45.98033" lon="6.31642">
        <ele>1361</ele>
        <time>2016-10-02T06:55:55+02:00</time>
      </trkpt>
      <trkpt lat="45.98033" lon="6.31645">
        <ele>1361</ele>
        <time>2016-10-02T06:55:57+02:00</time>
      </trkpt>
      <trkpt lat="45.98034" lon="6.31649">
        <ele>1361</ele>
        <time>2016-10-02T06:55:59+02:00</time>
      </trkpt>
      <trkpt lat="45.98034" lon="6.31652">
        <ele>1361</ele>
        <time>2016-10-02T06:56:01+02:00</time>
      </trkpt>
      <trkpt lat="45.98034" lon="6.31655">
        <ele>1361</ele>
        <time>2016-10-02T06:56:03+02:00</time>
      </trkpt>
      <trkpt lat="45.98035" lon="6.31658">
        <ele>1361</ele>
        <time>2016-10-02T06:56:05+02:00</time>
      </trkpt>
      <trkpt lat="45.98035" lon="6.31662">
        <ele>1361</ele>
        <time>2016-10-02T06:56:06+02:00</time>
      </trkpt>
      <trkpt lat="45.98035" lon="6.31665">
        <ele>1361</ele>
        <time>2016-10-02T06:56:08+02:00</time>
      </trkpt>
      <trkpt lat="45.98036" lon="6.31669">
        <ele>1361</ele>
        <time>2016-10-02T06:56:10+02:00</time>
      </trkpt>
      <trkpt lat="45.98036" lon="6.31672">
        <ele>1361</ele>
        <time>2016-10-02T06:56:12+02:00</time>
      </trkpt>
      <trkpt lat="45.98037" lon="6.31675">
        <ele>1361</ele>
        <time>2016-10-02T06:56:14+02:00</time>
      </trkpt>
      <trkpt lat="45.98037" lon="6.31679">
        <ele>1361</ele>
        <time>2016-10-02T06:56:16+02:00</time>
      </trkpt>
      <trkpt lat="45.98038" lon="6.31682">
        <ele>1361</ele>
        <time>2016-10-02T06:56:18+02:00</time>
      </trkpt>
      <trkpt lat="45.98038" lon="6.31685">
        <ele>1361</ele>
        <time>2016-10-02T06:56:20+02:00</time>
      </trkpt>
      <trkpt lat="45.98038" lon="6.31688">
        <ele>1361</ele>
        <time>2016-10-02T06:56:21+02:00</time>
      </trkpt>
      <trkpt lat="45.98039" lon="6.3169">
        <ele>1361</ele>
        <time>2016-10-02T06:56:23+02:00</time>
      </trkpt>
      <trkpt lat="45.98039" lon="6.31693">
        <ele>1361</ele>
        <time>2016-10-02T06:56:24+02:00</time>
      </trkpt>
      <trkpt lat="45.9804" lon="6.31695">
        <ele>1361</ele>
        <time>2016-10-02T06:56:26+02:00</time>
      </trkpt>
      <trkpt lat="45.98041" lon="6.31698">
        <ele>1361</ele>
        <time>2016-10-02T06:56:27+02:00</time>
      </trkpt>
      <trkpt lat="45.98042" lon="6.31701">
        <ele>1361</ele>
        <time>2016-10-02T06:56:29+02:00</time>
      </trkpt>
      <trkpt lat="45.98042" lon="6.31703">
        <ele>1361</ele>
        <time>2016-10-02T06:56:31+02:00</time>
      </trkpt>
      <trkpt lat="45.98043" lon="6.31706">
        <ele>1361</ele>
        <time>2016-10-02T06:56:32+02:00</time>
      </trkpt>
      <trkpt lat="45.98043" lon="6.3171">
        <ele>1361</ele>
        <time>2016-10-02T06:56:34+02:00</time>
      </trkpt>
      <trkpt lat="45.98043" lon="6.31713">
        <ele>1361</ele>
        <time>2016-10-02T06:56:36+02:00</time>
      </trkpt>
      <trkpt lat="45.98044" lon="6.31716">
        <ele>1361</ele>
        <time>2016-10-02T06:56:38+02:00</time>
      </trkpt>
      <trkpt lat="45.98045" lon="6.3172">
        <ele>1361</ele>
        <time>2016-10-02T06:56:40+02:00</time>
      </trkpt>
      <trkpt lat="45.98046" lon="6.31723">
        <ele>1361</ele>
        <time>2016-10-02T06:56:42+02:00</time>
      </trkpt>
      <trkpt lat="45.98047" lon="6.31726">
        <ele>1361</ele>
        <time>2016-10-02T06:56:44+02:00</time>
      </trkpt>
      <trkpt lat="45.98048" lon="6.3173">
        <ele>1361</ele>
        <time>2016-10-02T06:56:46+02:00</time>
      </trkpt>
      <trkpt lat="45.98049" lon="6.31733">
        <ele>1361</ele>
        <time>2016-10-02T06:56:48+02:00</time>
      </trkpt>
      <trkpt lat="45.98049" lon="6.31737">
        <ele>1361</ele>
        <time>2016-10-02T06:56:50+02:00</time>
      </trkpt>
      <trkpt lat="45.9805" lon="6.31741">
        <ele>1361</ele>
        <time>2016-10-02T06:56:53+02:00</time>
      </trkpt>
      <trkpt lat="45.98051" lon="6.31745">
        <ele>1361</ele>
        <time>2016-10-02T06:56:55+02:00</time>
      </trkpt>
      <trkpt lat="45.98051" lon="6.31748">
        <ele>1361</ele>
        <time>2016-10-02T06:56:57+02:00</time>
      </trkpt>
      <trkpt lat="45.98052" lon="6.31752">
        <ele>1361</ele>
        <time>2016-10-02T06:56:59+02:00</time>
      </trkpt>
      <trkpt lat="45.98053" lon="6.31755">
        <ele>1361</ele>
        <time>2016-10-02T06:57:01+02:00</time>
      </trkpt>
      <trkpt lat="45.98054" lon="6.31759">
        <ele>1361</ele>
        <time>2016-10-02T06:57:03+02:00</time>
      </trkpt>
      <trkpt lat="45.98055" lon="6.31762">
        <ele>1361</ele>
        <time>2016-10-02T06:57:05+02:00</time>
      </trkpt>
      <trkpt lat="45.98055" lon="6.31766">
        <ele>1361</ele>
        <time>2016-10-02T06:57:07+02:00</time>
      </trkpt>
      <trkpt lat="45.98056" lon="6.3177">
        <ele>1361</ele>
        <time>2016-10-02T06:57:10+02:00</time>
      </trkpt>
      <trkpt lat="45.98056" lon="6.31774">
        <ele>1360</ele>
        <time>2016-10-02T06:57:12+02:00</time>
      </trkpt>
      <trkpt lat="45.98057" lon="6.31777">
        <ele>1360</ele>
        <time>2016-10-02T06:57:14+02:00</time>
      </trkpt>
      <trkpt lat="45.98058" lon="6.31781">
        <ele>1360</ele>
        <time>2016-10-02T06:57:16+02:00</time>
      </trkpt>
      <trkpt lat="45.98059" lon="6.31784">
        <ele>1360</ele>
        <time>2016-10-02T06:57:18+02:00</time>
      </trkpt>
      <trkpt lat="45.9806" lon="6.31788">
        <ele>1360</ele>
        <time>2016-10-02T06:57:20+02:00</time>
      </trkpt>
      <trkpt lat="45.98062" lon="6.31792">
        <ele>1360</ele>
        <time>2016-10-02T06:57:23+02:00</time>
      </trkpt>
      <trkpt lat="45.98063" lon="6.31796">
        <ele>1360</ele>
        <time>2016-10-02T06:57:25+02:00</time>
      </trkpt>
      <trkpt lat="45.98064" lon="6.31799">
        <ele>1360</ele>
        <time>2016-10-02T06:57:27+02:00</time>
      </trkpt>
      <trkpt lat="45.98066" lon="6.31803">
        <ele>1360</ele>
        <time>2016-10-02T06:57:30+02:00</time>
      </trkpt>
      <trkpt lat="45.98067" lon="6.31806">
        <ele>1360</ele>
        <time>2016-10-02T06:57:32+02:00</time>
      </trkpt>
      <trkpt lat="45.98068" lon="6.31809">
        <ele>1360</ele>
        <time>2016-10-02T06:57:34+02:00</time>
      </trkpt>
      <trkpt lat="45.9807" lon="6.31813">
        <ele>1360</ele>
        <time>2016-10-02T06:57:36+02:00</time>
      </trkpt>
      <trkpt lat="45.98071" lon="6.31816">
        <ele>1360</ele>
        <time>2016-10-02T06:57:38+02:00</time>
      </trkpt>
      <trkpt lat="45.98072" lon="6.31819">
        <ele>1360</ele>
        <time>2016-10-02T06:57:40+02:00</time>
      </trkpt>
      <trkpt lat="45.98073" lon="6.31822">
        <ele>1360</ele>
        <time>2016-10-02T06:57:42+02:00</time>
      </trkpt>
      <trkpt lat="45.98075" lon="6.31825">
        <ele>1360</ele>
        <time>2016-10-02T06:57:44+02:00</time>
      </trkpt>
      <trkpt lat="45.98076" lon="6.31828">
        <ele>1360</ele>
        <time>2016-10-02T06:57:46+02:00</time>
      </trkpt>
      <trkpt lat="45.98077" lon="6.31831">
        <ele>1360</ele>
        <time>2016-10-02T06:57:48+02:00</time>
      </trkpt>
      <trkpt lat="45.98079" lon="6.31834">
        <ele>1360</ele>
        <time>2016-10-02T06:57:50+02:00</time>
      </trkpt>
      <trkpt lat="45.98079" lon="6.31838">
        <ele>1360</ele>
        <time>2016-10-02T06:57:52+02:00</time>
      </trkpt>
      <trkpt lat="45.98079" lon="6.31841">
        <ele>1360</ele>
        <time>2016-10-02T06:57:54+02:00</time>
      </trkpt>
      <trkpt lat="45.98079" lon="6.31845">
        <ele>1360</ele>
        <time>2016-10-02T06:57:56+02:00</time>
      </trkpt>
      <trkpt lat="45.98078" lon="6.31847">
        <ele>1360</ele>
        <time>2016-10-02T06:57:58+02:00</time>
      </trkpt>
      <trkpt lat="45.98076" lon="6.31849">
        <ele>1360</ele>
        <time>2016-10-02T06:57:59+02:00</time>
      </trkpt>
      <trkpt lat="45.98074" lon="6.31849">
        <ele>1360</ele>
        <time>2016-10-02T06:58:01+02:00</time>
      </trkpt>
      <trkpt lat="45.98071" lon="6.31849">
        <ele>1360</ele>
        <time>2016-10-02T06:58:03+02:00</time>
      </trkpt>
      <trkpt lat="45.98069" lon="6.31849">
        <ele>1360</ele>
        <time>2016-10-02T06:58:05+02:00</time>
      </trkpt>
      <trkpt lat="45.98067" lon="6.31849">
        <ele>1360</ele>
        <time>2016-10-02T06:58:06+02:00</time>
      </trkpt>
      <trkpt lat="45.98065" lon="6.3185">
        <ele>1360</ele>
        <time>2016-10-02T06:58:08+02:00</time>
      </trkpt>
      <trkpt lat="45.98063" lon="6.3185">
        <ele>1360</ele>
        <time>2016-10-02T06:58:09+02:00</time>
      </trkpt>
      <trkpt lat="45.98062" lon="6.31851">
        <ele>1360</ele>
        <time>2016-10-02T06:58:11+02:00</time>
      </trkpt>
      <trkpt lat="45.9806" lon="6.31852">
        <ele>1360</ele>
        <time>2016-10-02T06:58:12+02:00</time>
      </trkpt>
      <trkpt lat="45.98059" lon="6.31854">
        <ele>1360</ele>
        <time>2016-10-02T06:58:14+02:00</time>
      </trkpt>
      <trkpt lat="45.98056" lon="6.31856">
        <ele>1360</ele>
        <time>2016-10-02T06:58:16+02:00</time>
      </trkpt>
      <trkpt lat="45.98055" lon="6.31857">
        <ele>1360</ele>
        <time>2016-10-02T06:58:18+02:00</time>
      </trkpt>
      <trkpt lat="45.98052" lon="6.31858">
        <ele>1360</ele>
        <time>2016-10-02T06:58:19+02:00</time>
      </trkpt>
      <trkpt lat="45.9805" lon="6.3186">
        <ele>1360</ele>
        <time>2016-10-02T06:58:22+02:00</time>
      </trkpt>
      <trkpt lat="45.98047" lon="6.31861">
        <ele>1360</ele>
        <time>2016-10-02T06:58:24+02:00</time>
      </trkpt>
      <trkpt lat="45.98044" lon="6.31862">
        <ele>1360</ele>
        <time>2016-10-02T06:58:26+02:00</time>
      </trkpt>
      <trkpt lat="45.98042" lon="6.31863">
        <ele>1360</ele>
        <time>2016-10-02T06:58:28+02:00</time>
      </trkpt>
      <trkpt lat="45.9804" lon="6.31865">
        <ele>1360</ele>
        <time>2016-10-02T06:58:30+02:00</time>
      </trkpt>
      <trkpt lat="45.98037" lon="6.31866">
        <ele>1360</ele>
        <time>2016-10-02T06:58:33+02:00</time>
      </trkpt>
      <trkpt lat="45.98034" lon="6.31867">
        <ele>1360</ele>
        <time>2016-10-02T06:58:35+02:00</time>
      </trkpt>
      <trkpt lat="45.98032" lon="6.31868">
        <ele>1360</ele>
        <time>2016-10-02T06:58:36+02:00</time>
      </trkpt>
      <trkpt lat="45.9803" lon="6.31869">
        <ele>1360</ele>
        <time>2016-10-02T06:58:38+02:00</time>
      </trkpt>
      <trkpt lat="45.98028" lon="6.31871">
        <ele>1360</ele>
        <time>2016-10-02T06:58:40+02:00</time>
      </trkpt>
      <trkpt lat="45.98026" lon="6.31872">
        <ele>1360</ele>
        <time>2016-10-02T06:58:42+02:00</time>
      </trkpt>
      <trkpt lat="45.98024" lon="6.31873">
        <ele>1360</ele>
        <time>2016-10-02T06:58:44+02:00</time>
      </trkpt>
      <trkpt lat="45.98022" lon="6.31875">
        <ele>1360</ele>
        <time>2016-10-02T06:58:46+02:00</time>
      </trkpt>
      <trkpt lat="45.98019" lon="6.31875">
        <ele>1360</ele>
        <time>2016-10-02T06:58:48+02:00</time>
      </trkpt>
      <trkpt lat="45.98017" lon="6.31876">
        <ele>1360</ele>
        <time>2016-10-02T06:58:49+02:00</time>
      </trkpt>
      <trkpt lat="45.98015" lon="6.31877">
        <ele>1360</ele>
        <time>2016-10-02T06:58:51+02:00</time>
      </trkpt>
      <trkpt lat="45.98013" lon="6.31877">
        <ele>1360</ele>
        <time>2016-10-02T06:58:53+02:00</time>
      </trkpt>
      <trkpt lat="45.98011" lon="6.31878">
        <ele>1360</ele>
        <time>2016-10-02T06:58:55+02:00</time>
      </trkpt>
      <trkpt lat="45.98008" lon="6.31878">
        <ele>1360</ele>
        <time>2016-10-02T06:58:57+02:00</time>
      </trkpt>
      <trkpt lat="45.98006" lon="6.31879">
        <ele>1360</ele>
        <time>2016-10-02T06:58:59+02:00</time>
      </trkpt>
      <trkpt lat="45.98003" lon="6.31881">
        <ele>1360</ele>
        <time>2016-10-02T06:59:01+02:00</time>
      </trkpt>
      <trkpt lat="45.98" lon="6.31882">
        <ele>1360</ele>
        <time>2016-10-02T06:59:04+02:00</time>
      </trkpt>
      <trkpt lat="45.97998" lon="6.31883">
        <ele>1361</ele>
        <time>2016-10-02T06:59:06+02:00</time>
      </trkpt>
      <trkpt lat="45.97995" lon="6.31883">
        <ele>1361</ele>
        <time>2016-10-02T06:59:08+02:00</time>
      </trkpt>
      <trkpt lat="45.97993" lon="6.31883">
        <ele>1362</ele>
        <time>2016-10-02T06:59:10+02:00</time>
      </trkpt>
      <trkpt lat="45.97991" lon="6.31883">
        <ele>1362</ele>
        <time>2016-10-02T06:59:11+02:00</time>
      </trkpt>
      <trkpt lat="45.9799" lon="6.31884">
        <ele>1363</ele>
        <time>2016-10-02T06:59:12+02:00</time>
      </trkpt>
      <trkpt lat="45.97988" lon="6.31884">
        <ele>1363</ele>
        <time>2016-10-02T06:59:14+02:00</time>
      </trkpt>
      <trkpt lat="45.97986" lon="6.31884">
        <ele>1364</ele>
        <time>2016-10-02T06:59:15+02:00</time>
      </trkpt>
      <trkpt lat="45.97985" lon="6.31885">
        <ele>1364</ele>
        <time>2016-10-02T06:59:16+02:00</time>
      </trkpt>
      <trkpt lat="45.97984" lon="6.31885">
        <ele>1364</ele>
        <time>2016-10-02T06:59:17+02:00</time>
      </trkpt>
      <trkpt lat="45.97982" lon="6.31885">
        <ele>1365</ele>
        <time>2016-10-02T06:59:19+02:00</time>
      </trkpt>
      <trkpt lat="45.97979" lon="6.31885">
        <ele>1365</ele>
        <time>2016-10-02T06:59:21+02:00</time>
      </trkpt>
      <trkpt lat="45.97977" lon="6.31886">
        <ele>1366</ele>
        <time>2016-10-02T06:59:23+02:00</time>
      </trkpt>
      <trkpt lat="45.97976" lon="6.31886">
        <ele>1366</ele>
        <time>2016-10-02T06:59:24+02:00</time>
      </trkpt>
      <trkpt lat="45.97974" lon="6.31886">
        <ele>1367</ele>
        <time>2016-10-02T06:59:26+02:00</time>
      </trkpt>
      <trkpt lat="45.97972" lon="6.31884">
        <ele>1367</ele>
        <time>2016-10-02T06:59:28+02:00</time>
      </trkpt>
      <trkpt lat="45.97971" lon="6.31883">
        <ele>1367</ele>
        <time>2016-10-02T06:59:29+02:00</time>
      </trkpt>
      <trkpt lat="45.97969" lon="6.31882">
        <ele>1368</ele>
        <time>2016-10-02T06:59:30+02:00</time>
      </trkpt>
      <trkpt lat="45.97968" lon="6.31882">
        <ele>1368</ele>
        <time>2016-10-02T06:59:32+02:00</time>
      </trkpt>
      <trkpt lat="45.97966" lon="6.31883">
        <ele>1369</ele>
        <time>2016-10-02T06:59:33+02:00</time>
      </trkpt>
      <trkpt lat="45.97965" lon="6.31885">
        <ele>1369</ele>
        <time>2016-10-02T06:59:34+02:00</time>
      </trkpt>
      <trkpt lat="45.97964" lon="6.31886">
        <ele>1369</ele>
        <time>2016-10-02T06:59:36+02:00</time>
      </trkpt>
      <trkpt lat="45.97965" lon="6.31888">
        <ele>1369</ele>
        <time>2016-10-02T06:59:37+02:00</time>
      </trkpt>
      <trkpt lat="45.97966" lon="6.31889">
        <ele>1369</ele>
        <time>2016-10-02T06:59:38+02:00</time>
      </trkpt>
      <trkpt lat="45.97967" lon="6.31892">
        <ele>1369</ele>
        <time>2016-10-02T06:59:40+02:00</time>
      </trkpt>
      <trkpt lat="45.97967" lon="6.31894">
        <ele>1369</ele>
        <time>2016-10-02T06:59:41+02:00</time>
      </trkpt>
      <trkpt lat="45.97968" lon="6.31897">
        <ele>1369</ele>
        <time>2016-10-02T06:59:43+02:00</time>
      </trkpt>
      <trkpt lat="45.97967" lon="6.31899">
        <ele>1370</ele>
        <time>2016-10-02T06:59:44+02:00</time>
      </trkpt>
      <trkpt lat="45.97965" lon="6.31899">
        <ele>1370</ele>
        <time>2016-10-02T06:59:46+02:00</time>
      </trkpt>
      <trkpt lat="45.97964" lon="6.31897">
        <ele>1370</ele>
        <time>2016-10-02T06:59:47+02:00</time>
      </trkpt>
      <trkpt lat="45.97963" lon="6.31897">
        <ele>1371</ele>
        <time>2016-10-02T06:59:48+02:00</time>
      </trkpt>
      <trkpt lat="45.97961" lon="6.31898">
        <ele>1371</ele>
        <time>2016-10-02T06:59:50+02:00</time>
      </trkpt>
      <trkpt lat="45.9796" lon="6.31899">
        <ele>1372</ele>
        <time>2016-10-02T06:59:51+02:00</time>
      </trkpt>
      <trkpt lat="45.97958" lon="6.31901">
        <ele>1372</ele>
        <time>2016-10-02T06:59:54+02:00</time>
      </trkpt>
      <trkpt lat="45.97956" lon="6.31901">
        <ele>1373</ele>
        <time>2016-10-02T06:59:55+02:00</time>
      </trkpt>
      <trkpt lat="45.97955" lon="6.31901">
        <ele>1373</ele>
        <time>2016-10-02T06:59:56+02:00</time>
      </trkpt>
      <trkpt lat="45.97953" lon="6.31901">
        <ele>1374</ele>
        <time>2016-10-02T06:59:58+02:00</time>
      </trkpt>
      <trkpt lat="45.97951" lon="6.31899">
        <ele>1374</ele>
        <time>2016-10-02T07:00:00+02:00</time>
      </trkpt>
      <trkpt lat="45.9795" lon="6.31898">
        <ele>1374</ele>
        <time>2016-10-02T07:00:01+02:00</time>
      </trkpt>
      <trkpt lat="45.97949" lon="6.31895">
        <ele>1374</ele>
        <time>2016-10-02T07:00:03+02:00</time>
      </trkpt>
      <trkpt lat="45.97948" lon="6.31893">
        <ele>1374</ele>
        <time>2016-10-02T07:00:04+02:00</time>
      </trkpt>
      <trkpt lat="45.97947" lon="6.3189">
        <ele>1374</ele>
        <time>2016-10-02T07:00:06+02:00</time>
      </trkpt>
      <trkpt lat="45.97945" lon="6.31888">
        <ele>1374</ele>
        <time>2016-10-02T07:00:08+02:00</time>
      </trkpt>
      <trkpt lat="45.97944" lon="6.31886">
        <ele>1375</ele>
        <time>2016-10-02T07:00:09+02:00</time>
      </trkpt>
      <trkpt lat="45.97943" lon="6.31885">
        <ele>1375</ele>
        <time>2016-10-02T07:00:11+02:00</time>
      </trkpt>
      <trkpt lat="45.97942" lon="6.31884">
        <ele>1375</ele>
        <time>2016-10-02T07:00:12+02:00</time>
      </trkpt>
      <trkpt lat="45.9794" lon="6.31883">
        <ele>1375</ele>
        <time>2016-10-02T07:00:13+02:00</time>
      </trkpt>
      <trkpt lat="45.97939" lon="6.31881">
        <ele>1375</ele>
        <time>2016-10-02T07:00:15+02:00</time>
      </trkpt>
      <trkpt lat="45.97938" lon="6.31878">
        <ele>1375</ele>
        <time>2016-10-02T07:00:17+02:00</time>
      </trkpt>
      <trkpt lat="45.97938" lon="6.31877">
        <ele>1375</ele>
        <time>2016-10-02T07:00:18+02:00</time>
      </trkpt>
      <trkpt lat="45.97937" lon="6.31875">
        <ele>1375</ele>
        <time>2016-10-02T07:00:19+02:00</time>
      </trkpt>
      <trkpt lat="45.97935" lon="6.31873">
        <ele>1375</ele>
        <time>2016-10-02T07:00:21+02:00</time>
      </trkpt>
      <trkpt lat="45.97934" lon="6.31871">
        <ele>1375</ele>
        <time>2016-10-02T07:00:22+02:00</time>
      </trkpt>
      <trkpt lat="45.97933" lon="6.31871">
        <ele>1375</ele>
        <time>2016-10-02T07:00:24+02:00</time>
      </trkpt>
      <trkpt lat="45.97931" lon="6.31868">
        <ele>1375</ele>
        <time>2016-10-02T07:00:26+02:00</time>
      </trkpt>
      <trkpt lat="45.97931" lon="6.31866">
        <ele>1375</ele>
        <time>2016-10-02T07:00:27+02:00</time>
      </trkpt>
      <trkpt lat="45.9793" lon="6.31863">
        <ele>1374</ele>
        <time>2016-10-02T07:00:28+02:00</time>
      </trkpt>
      <trkpt lat="45.97929" lon="6.31862">
        <ele>1374</ele>
        <time>2016-10-02T07:00:30+02:00</time>
      </trkpt>
      <trkpt lat="45.97928" lon="6.31862">
        <ele>1375</ele>
        <time>2016-10-02T07:00:31+02:00</time>
      </trkpt>
      <trkpt lat="45.97926" lon="6.31859">
        <ele>1374</ele>
        <time>2016-10-02T07:00:33+02:00</time>
      </trkpt>
      <trkpt lat="45.97925" lon="6.31858">
        <ele>1374</ele>
        <time>2016-10-02T07:00:34+02:00</time>
      </trkpt>
      <trkpt lat="45.97924" lon="6.31857">
        <ele>1374</ele>
        <time>2016-10-02T07:00:35+02:00</time>
      </trkpt>
      <trkpt lat="45.97922" lon="6.31856">
        <ele>1375</ele>
        <time>2016-10-02T07:00:37+02:00</time>
      </trkpt>
      <trkpt lat="45.9792" lon="6.31854">
        <ele>1374</ele>
        <time>2016-10-02T07:00:39+02:00</time>
      </trkpt>
      <trkpt lat="45.97918" lon="6.31852">
        <ele>1374</ele>
        <time>2016-10-02T07:00:41+02:00</time>
      </trkpt>
      <trkpt lat="45.97917" lon="6.31851">
        <ele>1375</ele>
        <time>2016-10-02T07:00:42+02:00</time>
      </trkpt>
      <trkpt lat="45.97915" lon="6.3185">
        <ele>1375</ele>
        <time>2016-10-02T07:00:44+02:00</time>
      </trkpt>
      <trkpt lat="45.97913" lon="6.31848">
        <ele>1376</ele>
        <time>2016-10-02T07:00:46+02:00</time>
      </trkpt>
      <trkpt lat="45.97911" lon="6.31847">
        <ele>1377</ele>
        <time>2016-10-02T07:00:48+02:00</time>
      </trkpt>
      <trkpt lat="45.97909" lon="6.31847">
        <ele>1378</ele>
        <time>2016-10-02T07:00:49+02:00</time>
      </trkpt>
      <trkpt lat="45.97907" lon="6.31846">
        <ele>1378</ele>
        <time>2016-10-02T07:00:51+02:00</time>
      </trkpt>
      <trkpt lat="45.97906" lon="6.31845">
        <ele>1379</ele>
        <time>2016-10-02T07:00:52+02:00</time>
      </trkpt>
      <trkpt lat="45.97905" lon="6.31843">
        <ele>1379</ele>
        <time>2016-10-02T07:00:54+02:00</time>
      </trkpt>
      <trkpt lat="45.97904" lon="6.31842">
        <ele>1379</ele>
        <time>2016-10-02T07:00:56+02:00</time>
      </trkpt>
      <trkpt lat="45.97902" lon="6.31842">
        <ele>1380</ele>
        <time>2016-10-02T07:00:57+02:00</time>
      </trkpt>
      <trkpt lat="45.979" lon="6.3184">
        <ele>1381</ele>
        <time>2016-10-02T07:00:59+02:00</time>
      </trkpt>
      <trkpt lat="45.97899" lon="6.31839">
        <ele>1381</ele>
        <time>2016-10-02T07:01:00+02:00</time>
      </trkpt>
      <trkpt lat="45.97898" lon="6.3184">
        <ele>1382</ele>
        <time>2016-10-02T07:01:01+02:00</time>
      </trkpt>
      <trkpt lat="45.97897" lon="6.31842">
        <ele>1382</ele>
        <time>2016-10-02T07:01:02+02:00</time>
      </trkpt>
      <trkpt lat="45.97897" lon="6.31845">
        <ele>1383</ele>
        <time>2016-10-02T07:01:04+02:00</time>
      </trkpt>
      <trkpt lat="45.97897" lon="6.31847">
        <ele>1384</ele>
        <time>2016-10-02T07:01:05+02:00</time>
      </trkpt>
      <trkpt lat="45.97896" lon="6.31848">
        <ele>1385</ele>
        <time>2016-10-02T07:01:07+02:00</time>
      </trkpt>
      <trkpt lat="45.97894" lon="6.31849">
        <ele>1386</ele>
        <time>2016-10-02T07:01:08+02:00</time>
      </trkpt>
      <trkpt lat="45.97892" lon="6.31849">
        <ele>1387</ele>
        <time>2016-10-02T07:01:10+02:00</time>
      </trkpt>
      <trkpt lat="45.9789" lon="6.31848">
        <ele>1388</ele>
        <time>2016-10-02T07:01:12+02:00</time>
      </trkpt>
      <trkpt lat="45.97888" lon="6.31847">
        <ele>1389</ele>
        <time>2016-10-02T07:01:14+02:00</time>
      </trkpt>
      <trkpt lat="45.97886" lon="6.31847">
        <ele>1389</ele>
        <time>2016-10-02T07:01:15+02:00</time>
      </trkpt>
      <trkpt lat="45.97885" lon="6.31845">
        <ele>1390</ele>
        <time>2016-10-02T07:01:17+02:00</time>
      </trkpt>
      <trkpt lat="45.97883" lon="6.31844">
        <ele>1390</ele>
        <time>2016-10-02T07:01:19+02:00</time>
      </trkpt>
      <trkpt lat="45.97882" lon="6.31843">
        <ele>1391</ele>
        <time>2016-10-02T07:01:20+02:00</time>
      </trkpt>
      <trkpt lat="45.97879" lon="6.31842">
        <ele>1392</ele>
        <time>2016-10-02T07:01:22+02:00</time>
      </trkpt>
      <trkpt lat="45.97878" lon="6.31842">
        <ele>1392</ele>
        <time>2016-10-02T07:01:23+02:00</time>
      </trkpt>
      <trkpt lat="45.97876" lon="6.31841">
        <ele>1393</ele>
        <time>2016-10-02T07:01:25+02:00</time>
      </trkpt>
      <trkpt lat="45.97874" lon="6.31841">
        <ele>1394</ele>
        <time>2016-10-02T07:01:26+02:00</time>
      </trkpt>
      <trkpt lat="45.97872" lon="6.31842">
        <ele>1396</ele>
        <time>2016-10-02T07:01:29+02:00</time>
      </trkpt>
      <trkpt lat="45.97871" lon="6.31842">
        <ele>1396</ele>
        <time>2016-10-02T07:01:30+02:00</time>
      </trkpt>
      <trkpt lat="45.97869" lon="6.31844">
        <ele>1397</ele>
        <time>2016-10-02T07:01:32+02:00</time>
      </trkpt>
      <trkpt lat="45.97868" lon="6.31845">
        <ele>1398</ele>
        <time>2016-10-02T07:01:33+02:00</time>
      </trkpt>
      <trkpt lat="45.97866" lon="6.31846">
        <ele>1400</ele>
        <time>2016-10-02T07:01:35+02:00</time>
      </trkpt>
      <trkpt lat="45.97865" lon="6.31846">
        <ele>1400</ele>
        <time>2016-10-02T07:01:36+02:00</time>
      </trkpt>
      <trkpt lat="45.97863" lon="6.31844">
        <ele>1401</ele>
        <time>2016-10-02T07:01:38+02:00</time>
      </trkpt>
      <trkpt lat="45.97862" lon="6.31843">
        <ele>1401</ele>
        <time>2016-10-02T07:01:39+02:00</time>
      </trkpt>
      <trkpt lat="45.9786" lon="6.31842">
        <ele>1402</ele>
        <time>2016-10-02T07:01:41+02:00</time>
      </trkpt>
      <trkpt lat="45.97858" lon="6.31842">
        <ele>1402</ele>
        <time>2016-10-02T07:01:42+02:00</time>
      </trkpt>
      <trkpt lat="45.97856" lon="6.31841">
        <ele>1403</ele>
        <time>2016-10-02T07:01:44+02:00</time>
      </trkpt>
      <trkpt lat="45.97855" lon="6.31842">
        <ele>1404</ele>
        <time>2016-10-02T07:01:45+02:00</time>
      </trkpt>
      <trkpt lat="45.97855" lon="6.31844">
        <ele>1405</ele>
        <time>2016-10-02T07:01:46+02:00</time>
      </trkpt>
      <trkpt lat="45.97854" lon="6.31845">
        <ele>1406</ele>
        <time>2016-10-02T07:01:47+02:00</time>
      </trkpt>
      <trkpt lat="45.97853" lon="6.31847">
        <ele>1407</ele>
        <time>2016-10-02T07:01:49+02:00</time>
      </trkpt>
      <trkpt lat="45.97852" lon="6.31848">
        <ele>1408</ele>
        <time>2016-10-02T07:01:50+02:00</time>
      </trkpt>
      <trkpt lat="45.97852" lon="6.31847">
        <ele>1407</ele>
        <time>2016-10-02T07:01:51+02:00</time>
      </trkpt>
      <trkpt lat="45.97854" lon="6.31846">
        <ele>1406</ele>
        <time>2016-10-02T07:01:52+02:00</time>
      </trkpt>
      <trkpt lat="45.97855" lon="6.31846">
        <ele>1405</ele>
        <time>2016-10-02T07:01:53+02:00</time>
      </trkpt>
      <trkpt lat="45.97855" lon="6.31844">
        <ele>1405</ele>
        <time>2016-10-02T07:01:55+02:00</time>
      </trkpt>
      <trkpt lat="45.97855" lon="6.31842">
        <ele>1404</ele>
        <time>2016-10-02T07:01:56+02:00</time>
      </trkpt>
      <trkpt lat="45.97853" lon="6.31841">
        <ele>1405</ele>
        <time>2016-10-02T07:01:57+02:00</time>
      </trkpt>
      <trkpt lat="45.97852" lon="6.31842">
        <ele>1405</ele>
        <time>2016-10-02T07:01:59+02:00</time>
      </trkpt>
      <trkpt lat="45.97853" lon="6.31841">
        <ele>1405</ele>
        <time>2016-10-02T07:01:59+02:00</time>
      </trkpt>
      <trkpt lat="45.97853" lon="6.31843">
        <ele>1406</ele>
        <time>2016-10-02T07:02:01+02:00</time>
      </trkpt>
      <trkpt lat="45.97852" lon="6.31845">
        <ele>1406</ele>
        <time>2016-10-02T07:02:02+02:00</time>
      </trkpt>
      <trkpt lat="45.97851" lon="6.31845">
        <ele>1407</ele>
        <time>2016-10-02T07:02:03+02:00</time>
      </trkpt>
      <trkpt lat="45.97849" lon="6.31845">
        <ele>1408</ele>
        <time>2016-10-02T07:02:05+02:00</time>
      </trkpt>
      <trkpt lat="45.97848" lon="6.31844">
        <ele>1409</ele>
        <time>2016-10-02T07:02:06+02:00</time>
      </trkpt>
      <trkpt lat="45.97846" lon="6.31844">
        <ele>1409</ele>
        <time>2016-10-02T07:02:07+02:00</time>
      </trkpt>
      <trkpt lat="45.97844" lon="6.31844">
        <ele>1410</ele>
        <time>2016-10-02T07:02:09+02:00</time>
      </trkpt>
      <trkpt lat="45.97843" lon="6.31843">
        <ele>1411</ele>
        <time>2016-10-02T07:02:10+02:00</time>
      </trkpt>
      <trkpt lat="45.97841" lon="6.31843">
        <ele>1411</ele>
        <time>2016-10-02T07:02:12+02:00</time>
      </trkpt>
      <trkpt lat="45.9784" lon="6.31842">
        <ele>1412</ele>
        <time>2016-10-02T07:02:13+02:00</time>
      </trkpt>
      <trkpt lat="45.97838" lon="6.31842">
        <ele>1413</ele>
        <time>2016-10-02T07:02:15+02:00</time>
      </trkpt>
      <trkpt lat="45.97836" lon="6.31842">
        <ele>1414</ele>
        <time>2016-10-02T07:02:16+02:00</time>
      </trkpt>
      <trkpt lat="45.97835" lon="6.31841">
        <ele>1414</ele>
        <time>2016-10-02T07:02:17+02:00</time>
      </trkpt>
      <trkpt lat="45.97834" lon="6.3184">
        <ele>1414</ele>
        <time>2016-10-02T07:02:18+02:00</time>
      </trkpt>
      <trkpt lat="45.97833" lon="6.31839">
        <ele>1414</ele>
        <time>2016-10-02T07:02:19+02:00</time>
      </trkpt>
      <trkpt lat="45.97831" lon="6.31839">
        <ele>1415</ele>
        <time>2016-10-02T07:02:21+02:00</time>
      </trkpt>
      <trkpt lat="45.9783" lon="6.31838">
        <ele>1416</ele>
        <time>2016-10-02T07:02:22+02:00</time>
      </trkpt>
      <trkpt lat="45.97828" lon="6.31838">
        <ele>1417</ele>
        <time>2016-10-02T07:02:24+02:00</time>
      </trkpt>
      <trkpt lat="45.97826" lon="6.31838">
        <ele>1418</ele>
        <time>2016-10-02T07:02:26+02:00</time>
      </trkpt>
      <trkpt lat="45.97824" lon="6.31839">
        <ele>1420</ele>
        <time>2016-10-02T07:02:27+02:00</time>
      </trkpt>
      <trkpt lat="45.97822" lon="6.31841">
        <ele>1421</ele>
        <time>2016-10-02T07:02:29+02:00</time>
      </trkpt>
      <trkpt lat="45.97821" lon="6.31842">
        <ele>1422</ele>
        <time>2016-10-02T07:02:30+02:00</time>
      </trkpt>
      <trkpt lat="45.97821" lon="6.31845">
        <ele>1423</ele>
        <time>2016-10-02T07:02:32+02:00</time>
      </trkpt>
      <trkpt lat="45.9782" lon="6.31846">
        <ele>1424</ele>
        <time>2016-10-02T07:02:33+02:00</time>
      </trkpt>
      <trkpt lat="45.9782" lon="6.31849">
        <ele>1425</ele>
        <time>2016-10-02T07:02:35+02:00</time>
      </trkpt>
      <trkpt lat="45.97821" lon="6.31851">
        <ele>1425</ele>
        <time>2016-10-02T07:02:36+02:00</time>
      </trkpt>
      <trkpt lat="45.97821" lon="6.31853">
        <ele>1426</ele>
        <time>2016-10-02T07:02:38+02:00</time>
      </trkpt>
      <trkpt lat="45.97821" lon="6.31856">
        <ele>1427</ele>
        <time>2016-10-02T07:02:39+02:00</time>
      </trkpt>
      <trkpt lat="45.97822" lon="6.31858">
        <ele>1427</ele>
        <time>2016-10-02T07:02:40+02:00</time>
      </trkpt>
      <trkpt lat="45.97822" lon="6.3186">
        <ele>1428</ele>
        <time>2016-10-02T07:02:42+02:00</time>
      </trkpt>
      <trkpt lat="45.97823" lon="6.31863">
        <ele>1428</ele>
        <time>2016-10-02T07:02:43+02:00</time>
      </trkpt>
      <trkpt lat="45.97823" lon="6.31865">
        <ele>1429</ele>
        <time>2016-10-02T07:02:44+02:00</time>
      </trkpt>
      <trkpt lat="45.97824" lon="6.31866">
        <ele>1429</ele>
        <time>2016-10-02T07:02:45+02:00</time>
      </trkpt>
      <trkpt lat="45.97825" lon="6.31869">
        <ele>1430</ele>
        <time>2016-10-02T07:02:47+02:00</time>
      </trkpt>
      <trkpt lat="45.97825" lon="6.31871">
        <ele>1430</ele>
        <time>2016-10-02T07:02:49+02:00</time>
      </trkpt>
      <trkpt lat="45.97824" lon="6.31874">
        <ele>1431</ele>
        <time>2016-10-02T07:02:50+02:00</time>
      </trkpt>
      <trkpt lat="45.97823" lon="6.31877">
        <ele>1433</ele>
        <time>2016-10-02T07:02:52+02:00</time>
      </trkpt>
      <trkpt lat="45.97823" lon="6.3188">
        <ele>1434</ele>
        <time>2016-10-02T07:02:54+02:00</time>
      </trkpt>
      <trkpt lat="45.97822" lon="6.31882">
        <ele>1435</ele>
        <time>2016-10-02T07:02:56+02:00</time>
      </trkpt>
      <trkpt lat="45.97822" lon="6.31884">
        <ele>1436</ele>
        <time>2016-10-02T07:02:57+02:00</time>
      </trkpt>
      <trkpt lat="45.97822" lon="6.31886">
        <ele>1436</ele>
        <time>2016-10-02T07:02:58+02:00</time>
      </trkpt>
      <trkpt lat="45.97823" lon="6.31888">
        <ele>1437</ele>
        <time>2016-10-02T07:02:59+02:00</time>
      </trkpt>
      <trkpt lat="45.97824" lon="6.3189">
        <ele>1437</ele>
        <time>2016-10-02T07:03:01+02:00</time>
      </trkpt>
      <trkpt lat="45.97824" lon="6.31892">
        <ele>1438</ele>
        <time>2016-10-02T07:03:02+02:00</time>
      </trkpt>
      <trkpt lat="45.97825" lon="6.31894">
        <ele>1438</ele>
        <time>2016-10-02T07:03:03+02:00</time>
      </trkpt>
      <trkpt lat="45.97825" lon="6.31896">
        <ele>1439</ele>
        <time>2016-10-02T07:03:05+02:00</time>
      </trkpt>
      <trkpt lat="45.97826" lon="6.31898">
        <ele>1439</ele>
        <time>2016-10-02T07:03:06+02:00</time>
      </trkpt>
      <trkpt lat="45.97827" lon="6.319">
        <ele>1439</ele>
        <time>2016-10-02T07:03:07+02:00</time>
      </trkpt>
      <trkpt lat="45.97827" lon="6.31902">
        <ele>1440</ele>
        <time>2016-10-02T07:03:08+02:00</time>
      </trkpt>
      <trkpt lat="45.97825" lon="6.31905">
        <ele>1442</ele>
        <time>2016-10-02T07:03:10+02:00</time>
      </trkpt>
      <trkpt lat="45.97824" lon="6.31906">
        <ele>1443</ele>
        <time>2016-10-02T07:03:12+02:00</time>
      </trkpt>
      <trkpt lat="45.97823" lon="6.31908">
        <ele>1444</ele>
        <time>2016-10-02T07:03:13+02:00</time>
      </trkpt>
      <trkpt lat="45.97823" lon="6.3191">
        <ele>1445</ele>
        <time>2016-10-02T07:03:14+02:00</time>
      </trkpt>
      <trkpt lat="45.97823" lon="6.31912">
        <ele>1445</ele>
        <time>2016-10-02T07:03:16+02:00</time>
      </trkpt>
      <trkpt lat="45.97824" lon="6.31913">
        <ele>1445</ele>
        <time>2016-10-02T07:03:17+02:00</time>
      </trkpt>
      <trkpt lat="45.97825" lon="6.31915">
        <ele>1445</ele>
        <time>2016-10-02T07:03:18+02:00</time>
      </trkpt>
      <trkpt lat="45.97825" lon="6.31917">
        <ele>1446</ele>
        <time>2016-10-02T07:03:19+02:00</time>
      </trkpt>
      <trkpt lat="45.97825" lon="6.31919">
        <ele>1447</ele>
        <time>2016-10-02T07:03:21+02:00</time>
      </trkpt>
      <trkpt lat="45.97824" lon="6.31921">
        <ele>1448</ele>
        <time>2016-10-02T07:03:22+02:00</time>
      </trkpt>
      <trkpt lat="45.97824" lon="6.31923">
        <ele>1448</ele>
        <time>2016-10-02T07:03:23+02:00</time>
      </trkpt>
      <trkpt lat="45.97824" lon="6.31925">
        <ele>1449</ele>
        <time>2016-10-02T07:03:25+02:00</time>
      </trkpt>
      <trkpt lat="45.97823" lon="6.31926">
        <ele>1450</ele>
        <time>2016-10-02T07:03:26+02:00</time>
      </trkpt>
      <trkpt lat="45.97823" lon="6.31929">
        <ele>1450</ele>
        <time>2016-10-02T07:03:28+02:00</time>
      </trkpt>
      <trkpt lat="45.97823" lon="6.31931">
        <ele>1451</ele>
        <time>2016-10-02T07:03:29+02:00</time>
      </trkpt>
      <trkpt lat="45.97823" lon="6.31933">
        <ele>1452</ele>
        <time>2016-10-02T07:03:30+02:00</time>
      </trkpt>
      <trkpt lat="45.97822" lon="6.31937">
        <ele>1453</ele>
        <time>2016-10-02T07:03:32+02:00</time>
      </trkpt>
      <trkpt lat="45.97822" lon="6.3194">
        <ele>1454</ele>
        <time>2016-10-02T07:03:35+02:00</time>
      </trkpt>
      <trkpt lat="45.97822" lon="6.31944">
        <ele>1455</ele>
        <time>2016-10-02T07:03:37+02:00</time>
      </trkpt>
      <trkpt lat="45.97823" lon="6.31946">
        <ele>1456</ele>
        <time>2016-10-02T07:03:38+02:00</time>
      </trkpt>
      <trkpt lat="45.97822" lon="6.31948">
        <ele>1456</ele>
        <time>2016-10-02T07:03:39+02:00</time>
      </trkpt>
      <trkpt lat="45.97823" lon="6.3195">
        <ele>1457</ele>
        <time>2016-10-02T07:03:41+02:00</time>
      </trkpt>
      <trkpt lat="45.97824" lon="6.31952">
        <ele>1457</ele>
        <time>2016-10-02T07:03:42+02:00</time>
      </trkpt>
      <trkpt lat="45.97825" lon="6.31954">
        <ele>1457</ele>
        <time>2016-10-02T07:03:43+02:00</time>
      </trkpt>
      <trkpt lat="45.97826" lon="6.31955">
        <ele>1457</ele>
        <time>2016-10-02T07:03:44+02:00</time>
      </trkpt>
      <trkpt lat="45.97826" lon="6.31957">
        <ele>1458</ele>
        <time>2016-10-02T07:03:46+02:00</time>
      </trkpt>
      <trkpt lat="45.97827" lon="6.31959">
        <ele>1458</ele>
        <time>2016-10-02T07:03:47+02:00</time>
      </trkpt>
      <trkpt lat="45.97826" lon="6.31961">
        <ele>1459</ele>
        <time>2016-10-02T07:03:48+02:00</time>
      </trkpt>
      <trkpt lat="45.97826" lon="6.31963">
        <ele>1460</ele>
        <time>2016-10-02T07:03:49+02:00</time>
      </trkpt>
      <trkpt lat="45.97826" lon="6.31966">
        <ele>1460</ele>
        <time>2016-10-02T07:03:51+02:00</time>
      </trkpt>
      <trkpt lat="45.97827" lon="6.31968">
        <ele>1460</ele>
        <time>2016-10-02T07:03:52+02:00</time>
      </trkpt>
      <trkpt lat="45.97827" lon="6.31969">
        <ele>1461</ele>
        <time>2016-10-02T07:03:53+02:00</time>
      </trkpt>
      <trkpt lat="45.97828" lon="6.31972">
        <ele>1461</ele>
        <time>2016-10-02T07:03:55+02:00</time>
      </trkpt>
      <trkpt lat="45.97829" lon="6.31974">
        <ele>1461</ele>
        <time>2016-10-02T07:03:56+02:00</time>
      </trkpt>
      <trkpt lat="45.97831" lon="6.31975">
        <ele>1461</ele>
        <time>2016-10-02T07:03:58+02:00</time>
      </trkpt>
      <trkpt lat="45.97832" lon="6.31976">
        <ele>1461</ele>
        <time>2016-10-02T07:03:59+02:00</time>
      </trkpt>
      <trkpt lat="45.97833" lon="6.31978">
        <ele>1461</ele>
        <time>2016-10-02T07:04:00+02:00</time>
      </trkpt>
      <trkpt lat="45.97834" lon="6.31979">
        <ele>1461</ele>
        <time>2016-10-02T07:04:02+02:00</time>
      </trkpt>
      <trkpt lat="45.97835" lon="6.31982">
        <ele>1461</ele>
        <time>2016-10-02T07:04:03+02:00</time>
      </trkpt>
      <trkpt lat="45.97837" lon="6.31983">
        <ele>1460</ele>
        <time>2016-10-02T07:04:04+02:00</time>
      </trkpt>
      <trkpt lat="45.97837" lon="6.31984">
        <ele>1461</ele>
        <time>2016-10-02T07:04:06+02:00</time>
      </trkpt>
      <trkpt lat="45.97838" lon="6.31987">
        <ele>1461</ele>
        <time>2016-10-02T07:04:07+02:00</time>
      </trkpt>
      <trkpt lat="45.97839" lon="6.31988">
        <ele>1460</ele>
        <time>2016-10-02T07:04:08+02:00</time>
      </trkpt>
      <trkpt lat="45.9784" lon="6.31989">
        <ele>1460</ele>
        <time>2016-10-02T07:04:09+02:00</time>
      </trkpt>
      <trkpt lat="45.97841" lon="6.31991">
        <ele>1460</ele>
        <time>2016-10-02T07:04:11+02:00</time>
      </trkpt>
      <trkpt lat="45.97843" lon="6.31991">
        <ele>1459</ele>
        <time>2016-10-02T07:04:12+02:00</time>
      </trkpt>
      <trkpt lat="45.97844" lon="6.31992">
        <ele>1458</ele>
        <time>2016-10-02T07:04:13+02:00</time>
      </trkpt>
      <trkpt lat="45.97846" lon="6.31992">
        <ele>1457</ele>
        <time>2016-10-02T07:04:15+02:00</time>
      </trkpt>
      <trkpt lat="45.97848" lon="6.31993">
        <ele>1456</ele>
        <time>2016-10-02T07:04:16+02:00</time>
      </trkpt>
      <trkpt lat="45.97849" lon="6.31994">
        <ele>1456</ele>
        <time>2016-10-02T07:04:18+02:00</time>
      </trkpt>
      <trkpt lat="45.9785" lon="6.31995">
        <ele>1455</ele>
        <time>2016-10-02T07:04:19+02:00</time>
      </trkpt>
      <trkpt lat="45.97851" lon="6.31998">
        <ele>1456</ele>
        <time>2016-10-02T07:04:20+02:00</time>
      </trkpt>
      <trkpt lat="45.97852" lon="6.32001">
        <ele>1456</ele>
        <time>2016-10-02T07:04:22+02:00</time>
      </trkpt>
      <trkpt lat="45.97854" lon="6.32001">
        <ele>1455</ele>
        <time>2016-10-02T07:04:24+02:00</time>
      </trkpt>
      <trkpt lat="45.97856" lon="6.32001">
        <ele>1453</ele>
        <time>2016-10-02T07:04:26+02:00</time>
      </trkpt>
      <trkpt lat="45.97856" lon="6.32002">
        <ele>1454</ele>
        <time>2016-10-02T07:04:27+02:00</time>
      </trkpt>
      <trkpt lat="45.97855" lon="6.32004">
        <ele>1455</ele>
        <time>2016-10-02T07:04:28+02:00</time>
      </trkpt>
      <trkpt lat="45.97855" lon="6.32005">
        <ele>1455</ele>
        <time>2016-10-02T07:04:29+02:00</time>
      </trkpt>
      <trkpt lat="45.97855" lon="6.32006">
        <ele>1456</ele>
        <time>2016-10-02T07:04:29+02:00</time>
      </trkpt>
      <trkpt lat="45.97853" lon="6.32007">
        <ele>1457</ele>
        <time>2016-10-02T07:04:31+02:00</time>
      </trkpt>
      <trkpt lat="45.97853" lon="6.32009">
        <ele>1458</ele>
        <time>2016-10-02T07:04:32+02:00</time>
      </trkpt>
      <trkpt lat="45.97852" lon="6.3201">
        <ele>1458</ele>
        <time>2016-10-02T07:04:33+02:00</time>
      </trkpt>
      <trkpt lat="45.97852" lon="6.32011">
        <ele>1459</ele>
        <time>2016-10-02T07:04:34+02:00</time>
      </trkpt>
      <trkpt lat="45.97851" lon="6.32012">
        <ele>1460</ele>
        <time>2016-10-02T07:04:35+02:00</time>
      </trkpt>
      <trkpt lat="45.97851" lon="6.32012">
        <ele>1460</ele>
        <time>2016-10-02T07:04:36+02:00</time>
      </trkpt>
      <trkpt lat="45.97852" lon="6.32013">
        <ele>1460</ele>
        <time>2016-10-02T07:04:37+02:00</time>
      </trkpt>
      <trkpt lat="45.97853" lon="6.32012">
        <ele>1459</ele>
        <time>2016-10-02T07:04:38+02:00</time>
      </trkpt>
      <trkpt lat="45.97854" lon="6.32011">
        <ele>1458</ele>
        <time>2016-10-02T07:04:39+02:00</time>
      </trkpt>
      <trkpt lat="45.97853" lon="6.32012">
        <ele>1458</ele>
        <time>2016-10-02T07:04:39+02:00</time>
      </trkpt>
      <trkpt lat="45.97854" lon="6.32014">
        <ele>1458</ele>
        <time>2016-10-02T07:04:40+02:00</time>
      </trkpt>
      <trkpt lat="45.97854" lon="6.32015">
        <ele>1459</ele>
        <time>2016-10-02T07:04:41+02:00</time>
      </trkpt>
      <trkpt lat="45.97855" lon="6.32017">
        <ele>1459</ele>
        <time>2016-10-02T07:04:43+02:00</time>
      </trkpt>
      <trkpt lat="45.97856" lon="6.32019">
        <ele>1459</ele>
        <time>2016-10-02T07:04:44+02:00</time>
      </trkpt>
      <trkpt lat="45.97857" lon="6.32021">
        <ele>1458</ele>
        <time>2016-10-02T07:04:45+02:00</time>
      </trkpt>
      <trkpt lat="45.97858" lon="6.32022">
        <ele>1458</ele>
        <time>2016-10-02T07:04:47+02:00</time>
      </trkpt>
      <trkpt lat="45.97859" lon="6.32025">
        <ele>1459</ele>
        <time>2016-10-02T07:04:48+02:00</time>
      </trkpt>
      <trkpt lat="45.9786" lon="6.32026">
        <ele>1459</ele>
        <time>2016-10-02T07:04:50+02:00</time>
      </trkpt>
      <trkpt lat="45.97861" lon="6.32029">
        <ele>1459</ele>
        <time>2016-10-02T07:04:51+02:00</time>
      </trkpt>
      <trkpt lat="45.97862" lon="6.3203">
        <ele>1459</ele>
        <time>2016-10-02T07:04:52+02:00</time>
      </trkpt>
      <trkpt lat="45.97863" lon="6.32032">
        <ele>1459</ele>
        <time>2016-10-02T07:04:54+02:00</time>
      </trkpt>
      <trkpt lat="45.97863" lon="6.32034">
        <ele>1459</ele>
        <time>2016-10-02T07:04:55+02:00</time>
      </trkpt>
      <trkpt lat="45.97864" lon="6.32037">
        <ele>1460</ele>
        <time>2016-10-02T07:04:57+02:00</time>
      </trkpt>
      <trkpt lat="45.97864" lon="6.3204">
        <ele>1461</ele>
        <time>2016-10-02T07:04:59+02:00</time>
      </trkpt>
      <trkpt lat="45.97865" lon="6.32043">
        <ele>1461</ele>
        <time>2016-10-02T07:05:00+02:00</time>
      </trkpt>
      <trkpt lat="45.97865" lon="6.32045">
        <ele>1461</ele>
        <time>2016-10-02T07:05:02+02:00</time>
      </trkpt>
      <trkpt lat="45.97866" lon="6.32048">
        <ele>1462</ele>
        <time>2016-10-02T07:05:04+02:00</time>
      </trkpt>
      <trkpt lat="45.97867" lon="6.32051">
        <ele>1462</ele>
        <time>2016-10-02T07:05:06+02:00</time>
      </trkpt>
      <trkpt lat="45.97867" lon="6.32054">
        <ele>1463</ele>
        <time>2016-10-02T07:05:07+02:00</time>
      </trkpt>
      <trkpt lat="45.97867" lon="6.32056">
        <ele>1464</ele>
        <time>2016-10-02T07:05:09+02:00</time>
      </trkpt>
      <trkpt lat="45.97867" lon="6.32059">
        <ele>1465</ele>
        <time>2016-10-02T07:05:11+02:00</time>
      </trkpt>
      <trkpt lat="45.97869" lon="6.32061">
        <ele>1464</ele>
        <time>2016-10-02T07:05:13+02:00</time>
      </trkpt>
      <trkpt lat="45.9787" lon="6.32064">
        <ele>1465</ele>
        <time>2016-10-02T07:05:14+02:00</time>
      </trkpt>
      <trkpt lat="45.97871" lon="6.32066">
        <ele>1465</ele>
        <time>2016-10-02T07:05:16+02:00</time>
      </trkpt>
      <trkpt lat="45.97872" lon="6.32068">
        <ele>1465</ele>
        <time>2016-10-02T07:05:17+02:00</time>
      </trkpt>
      <trkpt lat="45.97872" lon="6.3207">
        <ele>1466</ele>
        <time>2016-10-02T07:05:18+02:00</time>
      </trkpt>
      <trkpt lat="45.97873" lon="6.32071">
        <ele>1465</ele>
        <time>2016-10-02T07:05:20+02:00</time>
      </trkpt>
      <trkpt lat="45.97876" lon="6.32073">
        <ele>1465</ele>
        <time>2016-10-02T07:05:22+02:00</time>
      </trkpt>
      <trkpt lat="45.97877" lon="6.32075">
        <ele>1465</ele>
        <time>2016-10-02T07:05:23+02:00</time>
      </trkpt>
      <trkpt lat="45.97878" lon="6.32077">
        <ele>1465</ele>
        <time>2016-10-02T07:05:25+02:00</time>
      </trkpt>
      <trkpt lat="45.97879" lon="6.32079">
        <ele>1465</ele>
        <time>2016-10-02T07:05:26+02:00</time>
      </trkpt>
      <trkpt lat="45.9788" lon="6.3208">
        <ele>1465</ele>
        <time>2016-10-02T07:05:27+02:00</time>
      </trkpt>
      <trkpt lat="45.97881" lon="6.32083">
        <ele>1466</ele>
        <time>2016-10-02T07:05:29+02:00</time>
      </trkpt>
      <trkpt lat="45.97881" lon="6.32086">
        <ele>1466</ele>
        <time>2016-10-02T07:05:31+02:00</time>
      </trkpt>
      <trkpt lat="45.97881" lon="6.3209">
        <ele>1467</ele>
        <time>2016-10-02T07:05:33+02:00</time>
      </trkpt>
      <trkpt lat="45.97882" lon="6.32092">
        <ele>1468</ele>
        <time>2016-10-02T07:05:35+02:00</time>
      </trkpt>
      <trkpt lat="45.97883" lon="6.32095">
        <ele>1468</ele>
        <time>2016-10-02T07:05:37+02:00</time>
      </trkpt>
      <trkpt lat="45.97884" lon="6.32098">
        <ele>1468</ele>
        <time>2016-10-02T07:05:39+02:00</time>
      </trkpt>
      <trkpt lat="45.97885" lon="6.32101">
        <ele>1469</ele>
        <time>2016-10-02T07:05:41+02:00</time>
      </trkpt>
      <trkpt lat="45.97886" lon="6.32104">
        <ele>1469</ele>
        <time>2016-10-02T07:05:42+02:00</time>
      </trkpt>
      <trkpt lat="45.97887" lon="6.32106">
        <ele>1469</ele>
        <time>2016-10-02T07:05:44+02:00</time>
      </trkpt>
      <trkpt lat="45.9789" lon="6.32107">
        <ele>1468</ele>
        <time>2016-10-02T07:05:46+02:00</time>
      </trkpt>
      <trkpt lat="45.97892" lon="6.32107">
        <ele>1468</ele>
        <time>2016-10-02T07:05:48+02:00</time>
      </trkpt>
      <trkpt lat="45.97893" lon="6.32107">
        <ele>1467</ele>
        <time>2016-10-02T07:05:49+02:00</time>
      </trkpt>
      <trkpt lat="45.97894" lon="6.32109">
        <ele>1467</ele>
        <time>2016-10-02T07:05:51+02:00</time>
      </trkpt>
      <trkpt lat="45.97895" lon="6.32112">
        <ele>1468</ele>
        <time>2016-10-02T07:05:52+02:00</time>
      </trkpt>
      <trkpt lat="45.97896" lon="6.32114">
        <ele>1468</ele>
        <time>2016-10-02T07:05:54+02:00</time>
      </trkpt>
      <trkpt lat="45.97897" lon="6.32116">
        <ele>1468</ele>
        <time>2016-10-02T07:05:55+02:00</time>
      </trkpt>
      <trkpt lat="45.97897" lon="6.32119">
        <ele>1469</ele>
        <time>2016-10-02T07:05:57+02:00</time>
      </trkpt>
      <trkpt lat="45.97898" lon="6.32121">
        <ele>1470</ele>
        <time>2016-10-02T07:05:58+02:00</time>
      </trkpt>
      <trkpt lat="45.97897" lon="6.32124">
        <ele>1471</ele>
        <time>2016-10-02T07:06:01+02:00</time>
      </trkpt>
      <trkpt lat="45.97897" lon="6.32127">
        <ele>1472</ele>
        <time>2016-10-02T07:06:02+02:00</time>
      </trkpt>
      <trkpt lat="45.97896" lon="6.32128">
        <ele>1473</ele>
        <time>2016-10-02T07:06:04+02:00</time>
      </trkpt>
      <trkpt lat="45.97894" lon="6.3213">
        <ele>1474</ele>
        <time>2016-10-02T07:06:06+02:00</time>
      </trkpt>
      <trkpt lat="45.97893" lon="6.3213">
        <ele>1475</ele>
        <time>2016-10-02T07:06:07+02:00</time>
      </trkpt>
      <trkpt lat="45.97893" lon="6.3213">
        <ele>1475</ele>
        <time>2016-10-02T07:06:07+02:00</time>
      </trkpt>
      <trkpt lat="45.97891" lon="6.32129">
        <ele>1475</ele>
        <time>2016-10-02T07:06:08+02:00</time>
      </trkpt>
      <trkpt lat="45.97889" lon="6.32128">
        <ele>1476</ele>
        <time>2016-10-02T07:06:10+02:00</time>
      </trkpt>
      <trkpt lat="45.97887" lon="6.32129">
        <ele>1476</ele>
        <time>2016-10-02T07:06:12+02:00</time>
      </trkpt>
      <trkpt lat="45.97885" lon="6.32128">
        <ele>1477</ele>
        <time>2016-10-02T07:06:14+02:00</time>
      </trkpt>
      <trkpt lat="45.97883" lon="6.32128">
        <ele>1478</ele>
        <time>2016-10-02T07:06:15+02:00</time>
      </trkpt>
      <trkpt lat="45.97881" lon="6.32128">
        <ele>1479</ele>
        <time>2016-10-02T07:06:17+02:00</time>
      </trkpt>
      <trkpt lat="45.97879" lon="6.32127">
        <ele>1479</ele>
        <time>2016-10-02T07:06:18+02:00</time>
      </trkpt>
      <trkpt lat="45.97877" lon="6.32127">
        <ele>1480</ele>
        <time>2016-10-02T07:06:20+02:00</time>
      </trkpt>
      <trkpt lat="45.97875" lon="6.32126">
        <ele>1480</ele>
        <time>2016-10-02T07:06:22+02:00</time>
      </trkpt>
      <trkpt lat="45.97873" lon="6.32126">
        <ele>1481</ele>
        <time>2016-10-02T07:06:23+02:00</time>
      </trkpt>
      <trkpt lat="45.97871" lon="6.32126">
        <ele>1482</ele>
        <time>2016-10-02T07:06:25+02:00</time>
      </trkpt>
      <trkpt lat="45.97869" lon="6.32126">
        <ele>1483</ele>
        <time>2016-10-02T07:06:27+02:00</time>
      </trkpt>
      <trkpt lat="45.97867" lon="6.32127">
        <ele>1484</ele>
        <time>2016-10-02T07:06:29+02:00</time>
      </trkpt>
      <trkpt lat="45.97866" lon="6.32129">
        <ele>1484</ele>
        <time>2016-10-02T07:06:30+02:00</time>
      </trkpt>
      <trkpt lat="45.97867" lon="6.3213">
        <ele>1484</ele>
        <time>2016-10-02T07:06:31+02:00</time>
      </trkpt>
      <trkpt lat="45.97869" lon="6.32132">
        <ele>1484</ele>
        <time>2016-10-02T07:06:32+02:00</time>
      </trkpt>
      <trkpt lat="45.97868" lon="6.32133">
        <ele>1485</ele>
        <time>2016-10-02T07:06:33+02:00</time>
      </trkpt>
      <trkpt lat="45.97867" lon="6.32133">
        <ele>1485</ele>
        <time>2016-10-02T07:06:35+02:00</time>
      </trkpt>
      <trkpt lat="45.97866" lon="6.32134">
        <ele>1486</ele>
        <time>2016-10-02T07:06:36+02:00</time>
      </trkpt>
      <trkpt lat="45.97864" lon="6.32133">
        <ele>1486</ele>
        <time>2016-10-02T07:06:37+02:00</time>
      </trkpt>
      <trkpt lat="45.97863" lon="6.32132">
        <ele>1487</ele>
        <time>2016-10-02T07:06:38+02:00</time>
      </trkpt>
      <trkpt lat="45.97861" lon="6.32133">
        <ele>1488</ele>
        <time>2016-10-02T07:06:40+02:00</time>
      </trkpt>
      <trkpt lat="45.97859" lon="6.32133">
        <ele>1488</ele>
        <time>2016-10-02T07:06:41+02:00</time>
      </trkpt>
      <trkpt lat="45.97857" lon="6.32132">
        <ele>1489</ele>
        <time>2016-10-02T07:06:43+02:00</time>
      </trkpt>
      <trkpt lat="45.97855" lon="6.32132">
        <ele>1489</ele>
        <time>2016-10-02T07:06:45+02:00</time>
      </trkpt>
      <trkpt lat="45.97854" lon="6.32131">
        <ele>1490</ele>
        <time>2016-10-02T07:06:46+02:00</time>
      </trkpt>
      <trkpt lat="45.97852" lon="6.32131">
        <ele>1490</ele>
        <time>2016-10-02T07:06:47+02:00</time>
      </trkpt>
      <trkpt lat="45.97851" lon="6.3213">
        <ele>1490</ele>
        <time>2016-10-02T07:06:48+02:00</time>
      </trkpt>
      <trkpt lat="45.97849" lon="6.32131">
        <ele>1491</ele>
        <time>2016-10-02T07:06:50+02:00</time>
      </trkpt>
      <trkpt lat="45.97847" lon="6.3213">
        <ele>1492</ele>
        <time>2016-10-02T07:06:52+02:00</time>
      </trkpt>
      <trkpt lat="45.97845" lon="6.3213">
        <ele>1493</ele>
        <time>2016-10-02T07:06:53+02:00</time>
      </trkpt>
      <trkpt lat="45.97844" lon="6.3213">
        <ele>1493</ele>
        <time>2016-10-02T07:06:55+02:00</time>
      </trkpt>
      <trkpt lat="45.97843" lon="6.32131">
        <ele>1494</ele>
        <time>2016-10-02T07:06:56+02:00</time>
      </trkpt>
      <trkpt lat="45.97841" lon="6.32132">
        <ele>1495</ele>
        <time>2016-10-02T07:06:57+02:00</time>
      </trkpt>
      <trkpt lat="45.97839" lon="6.32131">
        <ele>1495</ele>
        <time>2016-10-02T07:06:58+02:00</time>
      </trkpt>
      <trkpt lat="45.97838" lon="6.32131">
        <ele>1496</ele>
        <time>2016-10-02T07:07:00+02:00</time>
      </trkpt>
      <trkpt lat="45.97836" lon="6.3213">
        <ele>1496</ele>
        <time>2016-10-02T07:07:01+02:00</time>
      </trkpt>
      <trkpt lat="45.97834" lon="6.32129">
        <ele>1497</ele>
        <time>2016-10-02T07:07:03+02:00</time>
      </trkpt>
      <trkpt lat="45.97832" lon="6.3213">
        <ele>1497</ele>
        <time>2016-10-02T07:07:05+02:00</time>
      </trkpt>
      <trkpt lat="45.97831" lon="6.32129">
        <ele>1498</ele>
        <time>2016-10-02T07:07:06+02:00</time>
      </trkpt>
      <trkpt lat="45.97829" lon="6.32129">
        <ele>1498</ele>
        <time>2016-10-02T07:07:07+02:00</time>
      </trkpt>
      <trkpt lat="45.9783" lon="6.32131">
        <ele>1498</ele>
        <time>2016-10-02T07:07:08+02:00</time>
      </trkpt>
      <trkpt lat="45.97829" lon="6.32134">
        <ele>1499</ele>
        <time>2016-10-02T07:07:10+02:00</time>
      </trkpt>
      <trkpt lat="45.97829" lon="6.32136">
        <ele>1499</ele>
        <time>2016-10-02T07:07:12+02:00</time>
      </trkpt>
      <trkpt lat="45.97829" lon="6.32138">
        <ele>1499</ele>
        <time>2016-10-02T07:07:13+02:00</time>
      </trkpt>
      <trkpt lat="45.97829" lon="6.3214">
        <ele>1499</ele>
        <time>2016-10-02T07:07:14+02:00</time>
      </trkpt>
      <trkpt lat="45.97827" lon="6.32142">
        <ele>1500</ele>
        <time>2016-10-02T07:07:16+02:00</time>
      </trkpt>
      <trkpt lat="45.97826" lon="6.32142">
        <ele>1500</ele>
        <time>2016-10-02T07:07:17+02:00</time>
      </trkpt>
      <trkpt lat="45.97824" lon="6.32143">
        <ele>1501</ele>
        <time>2016-10-02T07:07:19+02:00</time>
      </trkpt>
      <trkpt lat="45.97823" lon="6.32144">
        <ele>1501</ele>
        <time>2016-10-02T07:07:20+02:00</time>
      </trkpt>
      <trkpt lat="45.97822" lon="6.32146">
        <ele>1501</ele>
        <time>2016-10-02T07:07:21+02:00</time>
      </trkpt>
      <trkpt lat="45.9782" lon="6.32147">
        <ele>1502</ele>
        <time>2016-10-02T07:07:23+02:00</time>
      </trkpt>
      <trkpt lat="45.97818" lon="6.32148">
        <ele>1502</ele>
        <time>2016-10-02T07:07:25+02:00</time>
      </trkpt>
      <trkpt lat="45.97817" lon="6.32149">
        <ele>1502</ele>
        <time>2016-10-02T07:07:26+02:00</time>
      </trkpt>
      <trkpt lat="45.97816" lon="6.3215">
        <ele>1503</ele>
        <time>2016-10-02T07:07:27+02:00</time>
      </trkpt>
      <trkpt lat="45.97814" lon="6.3215">
        <ele>1503</ele>
        <time>2016-10-02T07:07:29+02:00</time>
      </trkpt>
      <trkpt lat="45.97812" lon="6.32149">
        <ele>1503</ele>
        <time>2016-10-02T07:07:30+02:00</time>
      </trkpt>
      <trkpt lat="45.9781" lon="6.32149">
        <ele>1503</ele>
        <time>2016-10-02T07:07:32+02:00</time>
      </trkpt>
      <trkpt lat="45.97808" lon="6.32149">
        <ele>1504</ele>
        <time>2016-10-02T07:07:34+02:00</time>
      </trkpt>
      <trkpt lat="45.97805" lon="6.32148">
        <ele>1504</ele>
        <time>2016-10-02T07:07:36+02:00</time>
      </trkpt>
      <trkpt lat="45.97804" lon="6.32148">
        <ele>1504</ele>
        <time>2016-10-02T07:07:37+02:00</time>
      </trkpt>
      <trkpt lat="45.97802" lon="6.32147">
        <ele>1504</ele>
        <time>2016-10-02T07:07:39+02:00</time>
      </trkpt>
      <trkpt lat="45.97801" lon="6.32146">
        <ele>1504</ele>
        <time>2016-10-02T07:07:40+02:00</time>
      </trkpt>
      <trkpt lat="45.978" lon="6.32146">
        <ele>1505</ele>
        <time>2016-10-02T07:07:41+02:00</time>
      </trkpt>
      <trkpt lat="45.97797" lon="6.32145">
        <ele>1505</ele>
        <time>2016-10-02T07:07:43+02:00</time>
      </trkpt>
      <trkpt lat="45.97795" lon="6.32143">
        <ele>1505</ele>
        <time>2016-10-02T07:07:45+02:00</time>
      </trkpt>
      <trkpt lat="45.97793" lon="6.32142">
        <ele>1505</ele>
        <time>2016-10-02T07:07:46+02:00</time>
      </trkpt>
      <trkpt lat="45.97792" lon="6.32142">
        <ele>1505</ele>
        <time>2016-10-02T07:07:48+02:00</time>
      </trkpt>
      <trkpt lat="45.9779" lon="6.32142">
        <ele>1505</ele>
        <time>2016-10-02T07:07:49+02:00</time>
      </trkpt>
      <trkpt lat="45.97788" lon="6.32141">
        <ele>1506</ele>
        <time>2016-10-02T07:07:51+02:00</time>
      </trkpt>
      <trkpt lat="45.97786" lon="6.32141">
        <ele>1506</ele>
        <time>2016-10-02T07:07:53+02:00</time>
      </trkpt>
      <trkpt lat="45.97785" lon="6.3214">
        <ele>1506</ele>
        <time>2016-10-02T07:07:54+02:00</time>
      </trkpt>
      <trkpt lat="45.97784" lon="6.32139">
        <ele>1506</ele>
        <time>2016-10-02T07:07:55+02:00</time>
      </trkpt>
      <trkpt lat="45.97781" lon="6.32137">
        <ele>1506</ele>
        <time>2016-10-02T07:07:57+02:00</time>
      </trkpt>
      <trkpt lat="45.97779" lon="6.32136">
        <ele>1506</ele>
        <time>2016-10-02T07:07:59+02:00</time>
      </trkpt>
      <trkpt lat="45.97778" lon="6.32134">
        <ele>1506</ele>
        <time>2016-10-02T07:08:01+02:00</time>
      </trkpt>
      <trkpt lat="45.97777" lon="6.32132">
        <ele>1506</ele>
        <time>2016-10-02T07:08:02+02:00</time>
      </trkpt>
      <trkpt lat="45.97776" lon="6.32131">
        <ele>1506</ele>
        <time>2016-10-02T07:08:03+02:00</time>
      </trkpt>
      <trkpt lat="45.97774" lon="6.3213">
        <ele>1507</ele>
        <time>2016-10-02T07:08:04+02:00</time>
      </trkpt>
      <trkpt lat="45.97773" lon="6.32129">
        <ele>1507</ele>
        <time>2016-10-02T07:08:05+02:00</time>
      </trkpt>
      <trkpt lat="45.97772" lon="6.32127">
        <ele>1507</ele>
        <time>2016-10-02T07:08:07+02:00</time>
      </trkpt>
      <trkpt lat="45.97771" lon="6.32126">
        <ele>1507</ele>
        <time>2016-10-02T07:08:08+02:00</time>
      </trkpt>
      <trkpt lat="45.9777" lon="6.32124">
        <ele>1507</ele>
        <time>2016-10-02T07:08:09+02:00</time>
      </trkpt>
      <trkpt lat="45.97769" lon="6.32122">
        <ele>1507</ele>
        <time>2016-10-02T07:08:10+02:00</time>
      </trkpt>
      <trkpt lat="45.97768" lon="6.32121">
        <ele>1507</ele>
        <time>2016-10-02T07:08:12+02:00</time>
      </trkpt>
      <trkpt lat="45.97767" lon="6.32119">
        <ele>1507</ele>
        <time>2016-10-02T07:08:13+02:00</time>
      </trkpt>
      <trkpt lat="45.97765" lon="6.32117">
        <ele>1507</ele>
        <time>2016-10-02T07:08:15+02:00</time>
      </trkpt>
      <trkpt lat="45.97764" lon="6.32115">
        <ele>1507</ele>
        <time>2016-10-02T07:08:16+02:00</time>
      </trkpt>
      <trkpt lat="45.97763" lon="6.32112">
        <ele>1507</ele>
        <time>2016-10-02T07:08:18+02:00</time>
      </trkpt>
      <trkpt lat="45.97763" lon="6.3211">
        <ele>1507</ele>
        <time>2016-10-02T07:08:19+02:00</time>
      </trkpt>
      <trkpt lat="45.97763" lon="6.32108">
        <ele>1506</ele>
        <time>2016-10-02T07:08:20+02:00</time>
      </trkpt>
      <trkpt lat="45.97763" lon="6.32106">
        <ele>1506</ele>
        <time>2016-10-02T07:08:21+02:00</time>
      </trkpt>
      <trkpt lat="45.97762" lon="6.32103">
        <ele>1506</ele>
        <time>2016-10-02T07:08:23+02:00</time>
      </trkpt>
      <trkpt lat="45.97761" lon="6.32102">
        <ele>1506</ele>
        <time>2016-10-02T07:08:25+02:00</time>
      </trkpt>
      <trkpt lat="45.9776" lon="6.321">
        <ele>1506</ele>
        <time>2016-10-02T07:08:26+02:00</time>
      </trkpt>
      <trkpt lat="45.97759" lon="6.32099">
        <ele>1506</ele>
        <time>2016-10-02T07:08:27+02:00</time>
      </trkpt>
      <trkpt lat="45.97758" lon="6.32098">
        <ele>1507</ele>
        <time>2016-10-02T07:08:28+02:00</time>
      </trkpt>
      <trkpt lat="45.97756" lon="6.32095">
        <ele>1507</ele>
        <time>2016-10-02T07:08:30+02:00</time>
      </trkpt>
      <trkpt lat="45.97755" lon="6.32094">
        <ele>1507</ele>
        <time>2016-10-02T07:08:31+02:00</time>
      </trkpt>
      <trkpt lat="45.97754" lon="6.32093">
        <ele>1507</ele>
        <time>2016-10-02T07:08:33+02:00</time>
      </trkpt>
      <trkpt lat="45.97752" lon="6.32092">
        <ele>1507</ele>
        <time>2016-10-02T07:08:34+02:00</time>
      </trkpt>
      <trkpt lat="45.9775" lon="6.32091">
        <ele>1508</ele>
        <time>2016-10-02T07:08:36+02:00</time>
      </trkpt>
      <trkpt lat="45.97748" lon="6.32091">
        <ele>1508</ele>
        <time>2016-10-02T07:08:38+02:00</time>
      </trkpt>
      <trkpt lat="45.97747" lon="6.3209">
        <ele>1508</ele>
        <time>2016-10-02T07:08:39+02:00</time>
      </trkpt>
      <trkpt lat="45.97745" lon="6.32089">
        <ele>1508</ele>
        <time>2016-10-02T07:08:40+02:00</time>
      </trkpt>
      <trkpt lat="45.97744" lon="6.32088">
        <ele>1508</ele>
        <time>2016-10-02T07:08:41+02:00</time>
      </trkpt>
      <trkpt lat="45.97742" lon="6.32088">
        <ele>1508</ele>
        <time>2016-10-02T07:08:43+02:00</time>
      </trkpt>
      <trkpt lat="45.97741" lon="6.32087">
        <ele>1508</ele>
        <time>2016-10-02T07:08:44+02:00</time>
      </trkpt>
      <trkpt lat="45.97739" lon="6.32086">
        <ele>1508</ele>
        <time>2016-10-02T07:08:45+02:00</time>
      </trkpt>
      <trkpt lat="45.97738" lon="6.32085">
        <ele>1509</ele>
        <time>2016-10-02T07:08:47+02:00</time>
      </trkpt>
      <trkpt lat="45.97736" lon="6.32085">
        <ele>1509</ele>
        <time>2016-10-02T07:08:48+02:00</time>
      </trkpt>
      <trkpt lat="45.97735" lon="6.32084">
        <ele>1509</ele>
        <time>2016-10-02T07:08:49+02:00</time>
      </trkpt>
      <trkpt lat="45.97733" lon="6.32082">
        <ele>1509</ele>
        <time>2016-10-02T07:08:51+02:00</time>
      </trkpt>
      <trkpt lat="45.97731" lon="6.3208">
        <ele>1509</ele>
        <time>2016-10-02T07:08:53+02:00</time>
      </trkpt>
      <trkpt lat="45.9773" lon="6.32078">
        <ele>1509</ele>
        <time>2016-10-02T07:08:55+02:00</time>
      </trkpt>
      <trkpt lat="45.97728" lon="6.32076">
        <ele>1509</ele>
        <time>2016-10-02T07:08:56+02:00</time>
      </trkpt>
      <trkpt lat="45.97726" lon="6.32075">
        <ele>1509</ele>
        <time>2016-10-02T07:08:58+02:00</time>
      </trkpt>
      <trkpt lat="45.97725" lon="6.32074">
        <ele>1509</ele>
        <time>2016-10-02T07:08:59+02:00</time>
      </trkpt>
      <trkpt lat="45.97724" lon="6.32073">
        <ele>1509</ele>
        <time>2016-10-02T07:09:00+02:00</time>
      </trkpt>
      <trkpt lat="45.97722" lon="6.32073">
        <ele>1509</ele>
        <time>2016-10-02T07:09:01+02:00</time>
      </trkpt>
      <trkpt lat="45.9772" lon="6.32073">
        <ele>1509</ele>
        <time>2016-10-02T07:09:03+02:00</time>
      </trkpt>
      <trkpt lat="45.97719" lon="6.32072">
        <ele>1509</ele>
        <time>2016-10-02T07:09:04+02:00</time>
      </trkpt>
      <trkpt lat="45.97717" lon="6.32072">
        <ele>1509</ele>
        <time>2016-10-02T07:09:06+02:00</time>
      </trkpt>
      <trkpt lat="45.97715" lon="6.32072">
        <ele>1510</ele>
        <time>2016-10-02T07:09:07+02:00</time>
      </trkpt>
      <trkpt lat="45.97714" lon="6.32072">
        <ele>1510</ele>
        <time>2016-10-02T07:09:08+02:00</time>
      </trkpt>
      <trkpt lat="45.97712" lon="6.32072">
        <ele>1510</ele>
        <time>2016-10-02T07:09:10+02:00</time>
      </trkpt>
      <trkpt lat="45.9771" lon="6.32071">
        <ele>1510</ele>
        <time>2016-10-02T07:09:11+02:00</time>
      </trkpt>
      <trkpt lat="45.97708" lon="6.32071">
        <ele>1510</ele>
        <time>2016-10-02T07:09:13+02:00</time>
      </trkpt>
      <trkpt lat="45.97707" lon="6.32071">
        <ele>1510</ele>
        <time>2016-10-02T07:09:14+02:00</time>
      </trkpt>
      <trkpt lat="45.97705" lon="6.3207">
        <ele>1511</ele>
        <time>2016-10-02T07:09:16+02:00</time>
      </trkpt>
      <trkpt lat="45.97704" lon="6.3207">
        <ele>1511</ele>
        <time>2016-10-02T07:09:17+02:00</time>
      </trkpt>
      <trkpt lat="45.97702" lon="6.3207">
        <ele>1511</ele>
        <time>2016-10-02T07:09:18+02:00</time>
      </trkpt>
      <trkpt lat="45.977" lon="6.3207">
        <ele>1511</ele>
        <time>2016-10-02T07:09:20+02:00</time>
      </trkpt>
      <trkpt lat="45.97699" lon="6.3207">
        <ele>1511</ele>
        <time>2016-10-02T07:09:21+02:00</time>
      </trkpt>
      <trkpt lat="45.97697" lon="6.3207">
        <ele>1511</ele>
        <time>2016-10-02T07:09:22+02:00</time>
      </trkpt>
      <trkpt lat="45.97696" lon="6.3207">
        <ele>1512</ele>
        <time>2016-10-02T07:09:23+02:00</time>
      </trkpt>
      <trkpt lat="45.97695" lon="6.32071">
        <ele>1512</ele>
        <time>2016-10-02T07:09:25+02:00</time>
      </trkpt>
      <trkpt lat="45.97693" lon="6.32071">
        <ele>1512</ele>
        <time>2016-10-02T07:09:26+02:00</time>
      </trkpt>
      <trkpt lat="45.97692" lon="6.32071">
        <ele>1512</ele>
        <time>2016-10-02T07:09:27+02:00</time>
      </trkpt>
      <trkpt lat="45.9769" lon="6.32072">
        <ele>1513</ele>
        <time>2016-10-02T07:09:29+02:00</time>
      </trkpt>
      <trkpt lat="45.97689" lon="6.32073">
        <ele>1513</ele>
        <time>2016-10-02T07:09:30+02:00</time>
      </trkpt>
      <trkpt lat="45.97687" lon="6.32073">
        <ele>1513</ele>
        <time>2016-10-02T07:09:31+02:00</time>
      </trkpt>
      <trkpt lat="45.97685" lon="6.32074">
        <ele>1513</ele>
        <time>2016-10-02T07:09:33+02:00</time>
      </trkpt>
      <trkpt lat="45.97683" lon="6.32075">
        <ele>1514</ele>
        <time>2016-10-02T07:09:35+02:00</time>
      </trkpt>
      <trkpt lat="45.97681" lon="6.32077">
        <ele>1514</ele>
        <time>2016-10-02T07:09:37+02:00</time>
      </trkpt>
      <trkpt lat="45.9768" lon="6.32078">
        <ele>1514</ele>
        <time>2016-10-02T07:09:38+02:00</time>
      </trkpt>
      <trkpt lat="45.97679" lon="6.32079">
        <ele>1514</ele>
        <time>2016-10-02T07:09:39+02:00</time>
      </trkpt>
      <trkpt lat="45.97677" lon="6.3208">
        <ele>1515</ele>
        <time>2016-10-02T07:09:41+02:00</time>
      </trkpt>
      <trkpt lat="45.97675" lon="6.3208">
        <ele>1515</ele>
        <time>2016-10-02T07:09:43+02:00</time>
      </trkpt>
      <trkpt lat="45.97674" lon="6.32081">
        <ele>1515</ele>
        <time>2016-10-02T07:09:44+02:00</time>
      </trkpt>
      <trkpt lat="45.97672" lon="6.32082">
        <ele>1515</ele>
        <time>2016-10-02T07:09:46+02:00</time>
      </trkpt>
      <trkpt lat="45.97671" lon="6.32083">
        <ele>1516</ele>
        <time>2016-10-02T07:09:47+02:00</time>
      </trkpt>
      <trkpt lat="45.97668" lon="6.32085">
        <ele>1516</ele>
        <time>2016-10-02T07:09:49+02:00</time>
      </trkpt>
      <trkpt lat="45.97666" lon="6.32087">
        <ele>1516</ele>
        <time>2016-10-02T07:09:51+02:00</time>
      </trkpt>
      <trkpt lat="45.97665" lon="6.32088">
        <ele>1517</ele>
        <time>2016-10-02T07:09:52+02:00</time>
      </trkpt>
      <trkpt lat="45.97664" lon="6.32089">
        <ele>1517</ele>
        <time>2016-10-02T07:09:53+02:00</time>
      </trkpt>
      <trkpt lat="45.97663" lon="6.3209">
        <ele>1517</ele>
        <time>2016-10-02T07:09:55+02:00</time>
      </trkpt>
      <trkpt lat="45.97661" lon="6.32093">
        <ele>1518</ele>
        <time>2016-10-02T07:09:57+02:00</time>
      </trkpt>
      <trkpt lat="45.9766" lon="6.32096">
        <ele>1518</ele>
        <time>2016-10-02T07:09:59+02:00</time>
      </trkpt>
      <trkpt lat="45.97658" lon="6.32099">
        <ele>1519</ele>
        <time>2016-10-02T07:10:01+02:00</time>
      </trkpt>
      <trkpt lat="45.97658" lon="6.32101">
        <ele>1519</ele>
        <time>2016-10-02T07:10:02+02:00</time>
      </trkpt>
      <trkpt lat="45.97656" lon="6.32103">
        <ele>1520</ele>
        <time>2016-10-02T07:10:04+02:00</time>
      </trkpt>
      <trkpt lat="45.97656" lon="6.32106">
        <ele>1520</ele>
        <time>2016-10-02T07:10:05+02:00</time>
      </trkpt>
      <trkpt lat="45.97656" lon="6.32108">
        <ele>1520</ele>
        <time>2016-10-02T07:10:07+02:00</time>
      </trkpt>
      <trkpt lat="45.97654" lon="6.32109">
        <ele>1521</ele>
        <time>2016-10-02T07:10:08+02:00</time>
      </trkpt>
      <trkpt lat="45.97653" lon="6.32111">
        <ele>1521</ele>
        <time>2016-10-02T07:10:10+02:00</time>
      </trkpt>
      <trkpt lat="45.97651" lon="6.32112">
        <ele>1522</ele>
        <time>2016-10-02T07:10:11+02:00</time>
      </trkpt>
      <trkpt lat="45.9765" lon="6.32114">
        <ele>1522</ele>
        <time>2016-10-02T07:10:13+02:00</time>
      </trkpt>
      <trkpt lat="45.97649" lon="6.32116">
        <ele>1522</ele>
        <time>2016-10-02T07:10:15+02:00</time>
      </trkpt>
      <trkpt lat="45.97647" lon="6.32117">
        <ele>1523</ele>
        <time>2016-10-02T07:10:16+02:00</time>
      </trkpt>
      <trkpt lat="45.97646" lon="6.32119">
        <ele>1523</ele>
        <time>2016-10-02T07:10:17+02:00</time>
      </trkpt>
      <trkpt lat="45.97644" lon="6.32121">
        <ele>1524</ele>
        <time>2016-10-02T07:10:19+02:00</time>
      </trkpt>
      <trkpt lat="45.97642" lon="6.32122">
        <ele>1524</ele>
        <time>2016-10-02T07:10:21+02:00</time>
      </trkpt>
      <trkpt lat="45.97642" lon="6.32124">
        <ele>1525</ele>
        <time>2016-10-02T07:10:22+02:00</time>
      </trkpt>
      <trkpt lat="45.97642" lon="6.32126">
        <ele>1525</ele>
        <time>2016-10-02T07:10:23+02:00</time>
      </trkpt>
      <trkpt lat="45.97642" lon="6.32129">
        <ele>1525</ele>
        <time>2016-10-02T07:10:25+02:00</time>
      </trkpt>
      <trkpt lat="45.97641" lon="6.32131">
        <ele>1526</ele>
        <time>2016-10-02T07:10:27+02:00</time>
      </trkpt>
      <trkpt lat="45.9764" lon="6.32132">
        <ele>1526</ele>
        <time>2016-10-02T07:10:28+02:00</time>
      </trkpt>
      <trkpt lat="45.97639" lon="6.32133">
        <ele>1526</ele>
        <time>2016-10-02T07:10:29+02:00</time>
      </trkpt>
      <trkpt lat="45.97637" lon="6.32134">
        <ele>1527</ele>
        <time>2016-10-02T07:10:31+02:00</time>
      </trkpt>
      <trkpt lat="45.97635" lon="6.32135">
        <ele>1527</ele>
        <time>2016-10-02T07:10:32+02:00</time>
      </trkpt>
      <trkpt lat="45.97633" lon="6.32136">
        <ele>1528</ele>
        <time>2016-10-02T07:10:34+02:00</time>
      </trkpt>
      <trkpt lat="45.97633" lon="6.32138">
        <ele>1528</ele>
        <time>2016-10-02T07:10:35+02:00</time>
      </trkpt>
      <trkpt lat="45.97632" lon="6.3214">
        <ele>1528</ele>
        <time>2016-10-02T07:10:37+02:00</time>
      </trkpt>
      <trkpt lat="45.9763" lon="6.32141">
        <ele>1529</ele>
        <time>2016-10-02T07:10:38+02:00</time>
      </trkpt>
      <trkpt lat="45.97628" lon="6.32142">
        <ele>1529</ele>
        <time>2016-10-02T07:10:40+02:00</time>
      </trkpt>
      <trkpt lat="45.97627" lon="6.32143">
        <ele>1530</ele>
        <time>2016-10-02T07:10:41+02:00</time>
      </trkpt>
      <trkpt lat="45.97626" lon="6.32144">
        <ele>1530</ele>
        <time>2016-10-02T07:10:42+02:00</time>
      </trkpt>
      <trkpt lat="45.97625" lon="6.32146">
        <ele>1531</ele>
        <time>2016-10-02T07:10:44+02:00</time>
      </trkpt>
      <trkpt lat="45.97624" lon="6.32147">
        <ele>1531</ele>
        <time>2016-10-02T07:10:45+02:00</time>
      </trkpt>
      <trkpt lat="45.97623" lon="6.3215">
        <ele>1531</ele>
        <time>2016-10-02T07:10:46+02:00</time>
      </trkpt>
      <trkpt lat="45.97623" lon="6.32152">
        <ele>1532</ele>
        <time>2016-10-02T07:10:48+02:00</time>
      </trkpt>
      <trkpt lat="45.97622" lon="6.32154">
        <ele>1532</ele>
        <time>2016-10-02T07:10:49+02:00</time>
      </trkpt>
      <trkpt lat="45.97621" lon="6.32156">
        <ele>1533</ele>
        <time>2016-10-02T07:10:51+02:00</time>
      </trkpt>
      <trkpt lat="45.9762" lon="6.32157">
        <ele>1533</ele>
        <time>2016-10-02T07:10:52+02:00</time>
      </trkpt>
      <trkpt lat="45.97619" lon="6.32159">
        <ele>1533</ele>
        <time>2016-10-02T07:10:53+02:00</time>
      </trkpt>
      <trkpt lat="45.97619" lon="6.32161">
        <ele>1534</ele>
        <time>2016-10-02T07:10:54+02:00</time>
      </trkpt>
      <trkpt lat="45.97617" lon="6.32163">
        <ele>1534</ele>
        <time>2016-10-02T07:10:56+02:00</time>
      </trkpt>
      <trkpt lat="45.97615" lon="6.32164">
        <ele>1535</ele>
        <time>2016-10-02T07:10:58+02:00</time>
      </trkpt>
      <trkpt lat="45.97614" lon="6.32166">
        <ele>1535</ele>
        <time>2016-10-02T07:10:59+02:00</time>
      </trkpt>
      <trkpt lat="45.97613" lon="6.32167">
        <ele>1536</ele>
        <time>2016-10-02T07:11:00+02:00</time>
      </trkpt>
      <trkpt lat="45.97612" lon="6.32169">
        <ele>1536</ele>
        <time>2016-10-02T07:11:02+02:00</time>
      </trkpt>
      <trkpt lat="45.9761" lon="6.3217">
        <ele>1537</ele>
        <time>2016-10-02T07:11:03+02:00</time>
      </trkpt>
      <trkpt lat="45.97609" lon="6.32173">
        <ele>1537</ele>
        <time>2016-10-02T07:11:04+02:00</time>
      </trkpt>
      <trkpt lat="45.97608" lon="6.32174">
        <ele>1538</ele>
        <time>2016-10-02T07:11:06+02:00</time>
      </trkpt>
      <trkpt lat="45.97607" lon="6.32176">
        <ele>1539</ele>
        <time>2016-10-02T07:11:07+02:00</time>
      </trkpt>
      <trkpt lat="45.97606" lon="6.32177">
        <ele>1539</ele>
        <time>2016-10-02T07:11:08+02:00</time>
      </trkpt>
      <trkpt lat="45.97605" lon="6.32179">
        <ele>1540</ele>
        <time>2016-10-02T07:11:10+02:00</time>
      </trkpt>
      <trkpt lat="45.97604" lon="6.32181">
        <ele>1540</ele>
        <time>2016-10-02T07:11:11+02:00</time>
      </trkpt>
      <trkpt lat="45.97603" lon="6.32183">
        <ele>1541</ele>
        <time>2016-10-02T07:11:12+02:00</time>
      </trkpt>
      <trkpt lat="45.97602" lon="6.32184">
        <ele>1541</ele>
        <time>2016-10-02T07:11:13+02:00</time>
      </trkpt>
      <trkpt lat="45.97601" lon="6.32187">
        <ele>1542</ele>
        <time>2016-10-02T07:11:15+02:00</time>
      </trkpt>
      <trkpt lat="45.976" lon="6.32191">
        <ele>1543</ele>
        <time>2016-10-02T07:11:18+02:00</time>
      </trkpt>
      <trkpt lat="45.97599" lon="6.32193">
        <ele>1543</ele>
        <time>2016-10-02T07:11:19+02:00</time>
      </trkpt>
      <trkpt lat="45.97598" lon="6.32195">
        <ele>1544</ele>
        <time>2016-10-02T07:11:20+02:00</time>
      </trkpt>
      <trkpt lat="45.97597" lon="6.32198">
        <ele>1545</ele>
        <time>2016-10-02T07:11:22+02:00</time>
      </trkpt>
      <trkpt lat="45.97595" lon="6.322">
        <ele>1545</ele>
        <time>2016-10-02T07:11:24+02:00</time>
      </trkpt>
      <trkpt lat="45.97593" lon="6.32202">
        <ele>1546</ele>
        <time>2016-10-02T07:11:26+02:00</time>
      </trkpt>
      <trkpt lat="45.97593" lon="6.32204">
        <ele>1546</ele>
        <time>2016-10-02T07:11:28+02:00</time>
      </trkpt>
      <trkpt lat="45.97591" lon="6.32206">
        <ele>1547</ele>
        <time>2016-10-02T07:11:30+02:00</time>
      </trkpt>
      <trkpt lat="45.9759" lon="6.32208">
        <ele>1548</ele>
        <time>2016-10-02T07:11:31+02:00</time>
      </trkpt>
      <trkpt lat="45.97589" lon="6.32209">
        <ele>1548</ele>
        <time>2016-10-02T07:11:32+02:00</time>
      </trkpt>
      <trkpt lat="45.97587" lon="6.3221">
        <ele>1549</ele>
        <time>2016-10-02T07:11:33+02:00</time>
      </trkpt>
      <trkpt lat="45.97586" lon="6.32212">
        <ele>1549</ele>
        <time>2016-10-02T07:11:35+02:00</time>
      </trkpt>
      <trkpt lat="45.97584" lon="6.32214">
        <ele>1550</ele>
        <time>2016-10-02T07:11:37+02:00</time>
      </trkpt>
      <trkpt lat="45.97583" lon="6.32216">
        <ele>1550</ele>
        <time>2016-10-02T07:11:39+02:00</time>
      </trkpt>
      <trkpt lat="45.97581" lon="6.32217">
        <ele>1551</ele>
        <time>2016-10-02T07:11:40+02:00</time>
      </trkpt>
      <trkpt lat="45.9758" lon="6.32218">
        <ele>1551</ele>
        <time>2016-10-02T07:11:41+02:00</time>
      </trkpt>
      <trkpt lat="45.97579" lon="6.3222">
        <ele>1551</ele>
        <time>2016-10-02T07:11:43+02:00</time>
      </trkpt>
      <trkpt lat="45.97578" lon="6.32223">
        <ele>1552</ele>
        <time>2016-10-02T07:11:44+02:00</time>
      </trkpt>
      <trkpt lat="45.97577" lon="6.32225">
        <ele>1552</ele>
        <time>2016-10-02T07:11:46+02:00</time>
      </trkpt>
      <trkpt lat="45.97575" lon="6.32226">
        <ele>1553</ele>
        <time>2016-10-02T07:11:47+02:00</time>
      </trkpt>
      <trkpt lat="45.97574" lon="6.32227">
        <ele>1553</ele>
        <time>2016-10-02T07:11:49+02:00</time>
      </trkpt>
      <trkpt lat="45.97572" lon="6.32227">
        <ele>1553</ele>
        <time>2016-10-02T07:11:50+02:00</time>
      </trkpt>
      <trkpt lat="45.9757" lon="6.32228">
        <ele>1554</ele>
        <time>2016-10-02T07:11:52+02:00</time>
      </trkpt>
      <trkpt lat="45.97568" lon="6.3223">
        <ele>1554</ele>
        <time>2016-10-02T07:11:53+02:00</time>
      </trkpt>
      <trkpt lat="45.97567" lon="6.32231">
        <ele>1554</ele>
        <time>2016-10-02T07:11:55+02:00</time>
      </trkpt>
      <trkpt lat="45.97566" lon="6.32233">
        <ele>1555</ele>
        <time>2016-10-02T07:11:56+02:00</time>
      </trkpt>
      <trkpt lat="45.97564" lon="6.32235">
        <ele>1555</ele>
        <time>2016-10-02T07:11:58+02:00</time>
      </trkpt>
      <trkpt lat="45.97563" lon="6.32237">
        <ele>1556</ele>
        <time>2016-10-02T07:12:00+02:00</time>
      </trkpt>
      <trkpt lat="45.97562" lon="6.3224">
        <ele>1556</ele>
        <time>2016-10-02T07:12:01+02:00</time>
      </trkpt>
      <trkpt lat="45.97561" lon="6.32243">
        <ele>1557</ele>
        <time>2016-10-02T07:12:03+02:00</time>
      </trkpt>
      <trkpt lat="45.9756" lon="6.32245">
        <ele>1557</ele>
        <time>2016-10-02T07:12:05+02:00</time>
      </trkpt>
      <trkpt lat="45.97559" lon="6.32248">
        <ele>1557</ele>
        <time>2016-10-02T07:12:06+02:00</time>
      </trkpt>
      <trkpt lat="45.97558" lon="6.3225">
        <ele>1558</ele>
        <time>2016-10-02T07:12:08+02:00</time>
      </trkpt>
      <trkpt lat="45.97556" lon="6.32252">
        <ele>1558</ele>
        <time>2016-10-02T07:12:10+02:00</time>
      </trkpt>
      <trkpt lat="45.97555" lon="6.32254">
        <ele>1558</ele>
        <time>2016-10-02T07:12:12+02:00</time>
      </trkpt>
      <trkpt lat="45.97553" lon="6.32256">
        <ele>1558</ele>
        <time>2016-10-02T07:12:13+02:00</time>
      </trkpt>
      <trkpt lat="45.97552" lon="6.32258">
        <ele>1559</ele>
        <time>2016-10-02T07:12:15+02:00</time>
      </trkpt>
      <trkpt lat="45.97551" lon="6.3226">
        <ele>1559</ele>
        <time>2016-10-02T07:12:16+02:00</time>
      </trkpt>
      <trkpt lat="45.9755" lon="6.32262">
        <ele>1559</ele>
        <time>2016-10-02T07:12:18+02:00</time>
      </trkpt>
      <trkpt lat="45.97549" lon="6.32264">
        <ele>1559</ele>
        <time>2016-10-02T07:12:19+02:00</time>
      </trkpt>
      <trkpt lat="45.97548" lon="6.32266">
        <ele>1559</ele>
        <time>2016-10-02T07:12:21+02:00</time>
      </trkpt>
      <trkpt lat="45.97546" lon="6.32268">
        <ele>1559</ele>
        <time>2016-10-02T07:12:22+02:00</time>
      </trkpt>
      <trkpt lat="45.97544" lon="6.3227">
        <ele>1560</ele>
        <time>2016-10-02T07:12:24+02:00</time>
      </trkpt>
      <trkpt lat="45.97543" lon="6.32272">
        <ele>1560</ele>
        <time>2016-10-02T07:12:26+02:00</time>
      </trkpt>
      <trkpt lat="45.97541" lon="6.32274">
        <ele>1560</ele>
        <time>2016-10-02T07:12:28+02:00</time>
      </trkpt>
      <trkpt lat="45.97539" lon="6.32275">
        <ele>1560</ele>
        <time>2016-10-02T07:12:29+02:00</time>
      </trkpt>
      <trkpt lat="45.97538" lon="6.32277">
        <ele>1560</ele>
        <time>2016-10-02T07:12:31+02:00</time>
      </trkpt>
      <trkpt lat="45.97536" lon="6.32278">
        <ele>1560</ele>
        <time>2016-10-02T07:12:32+02:00</time>
      </trkpt>
      <trkpt lat="45.97535" lon="6.3228">
        <ele>1561</ele>
        <time>2016-10-02T07:12:34+02:00</time>
      </trkpt>
      <trkpt lat="45.97534" lon="6.32282">
        <ele>1561</ele>
        <time>2016-10-02T07:12:36+02:00</time>
      </trkpt>
      <trkpt lat="45.97532" lon="6.32283">
        <ele>1561</ele>
        <time>2016-10-02T07:12:37+02:00</time>
      </trkpt>
      <trkpt lat="45.97531" lon="6.32286">
        <ele>1561</ele>
        <time>2016-10-02T07:12:39+02:00</time>
      </trkpt>
      <trkpt lat="45.97529" lon="6.32287">
        <ele>1561</ele>
        <time>2016-10-02T07:12:40+02:00</time>
      </trkpt>
      <trkpt lat="45.97528" lon="6.32289">
        <ele>1561</ele>
        <time>2016-10-02T07:12:42+02:00</time>
      </trkpt>
      <trkpt lat="45.97527" lon="6.3229">
        <ele>1562</ele>
        <time>2016-10-02T07:12:43+02:00</time>
      </trkpt>
      <trkpt lat="45.97525" lon="6.32291">
        <ele>1562</ele>
        <time>2016-10-02T07:12:44+02:00</time>
      </trkpt>
      <trkpt lat="45.97523" lon="6.32292">
        <ele>1562</ele>
        <time>2016-10-02T07:12:46+02:00</time>
      </trkpt>
      <trkpt lat="45.97522" lon="6.32294">
        <ele>1562</ele>
        <time>2016-10-02T07:12:48+02:00</time>
      </trkpt>
      <trkpt lat="45.97521" lon="6.32295">
        <ele>1562</ele>
        <time>2016-10-02T07:12:49+02:00</time>
      </trkpt>
      <trkpt lat="45.97519" lon="6.32296">
        <ele>1562</ele>
        <time>2016-10-02T07:12:50+02:00</time>
      </trkpt>
      <trkpt lat="45.97518" lon="6.32298">
        <ele>1562</ele>
        <time>2016-10-02T07:12:52+02:00</time>
      </trkpt>
      <trkpt lat="45.97517" lon="6.323">
        <ele>1563</ele>
        <time>2016-10-02T07:12:53+02:00</time>
      </trkpt>
      <trkpt lat="45.97515" lon="6.32301">
        <ele>1563</ele>
        <time>2016-10-02T07:12:54+02:00</time>
      </trkpt>
      <trkpt lat="45.97514" lon="6.32303">
        <ele>1563</ele>
        <time>2016-10-02T07:12:56+02:00</time>
      </trkpt>
      <trkpt lat="45.97513" lon="6.32304">
        <ele>1563</ele>
        <time>2016-10-02T07:12:57+02:00</time>
      </trkpt>
      <trkpt lat="45.97512" lon="6.32307">
        <ele>1563</ele>
        <time>2016-10-02T07:12:58+02:00</time>
      </trkpt>
      <trkpt lat="45.97511" lon="6.32309">
        <ele>1563</ele>
        <time>2016-10-02T07:13:00+02:00</time>
      </trkpt>
      <trkpt lat="45.9751" lon="6.32311">
        <ele>1564</ele>
        <time>2016-10-02T07:13:02+02:00</time>
      </trkpt>
      <trkpt lat="45.97509" lon="6.32313">
        <ele>1564</ele>
        <time>2016-10-02T07:13:03+02:00</time>
      </trkpt>
      <trkpt lat="45.97508" lon="6.32315">
        <ele>1564</ele>
        <time>2016-10-02T07:13:05+02:00</time>
      </trkpt>
      <trkpt lat="45.97506" lon="6.32318">
        <ele>1564</ele>
        <time>2016-10-02T07:13:06+02:00</time>
      </trkpt>
      <trkpt lat="45.97505" lon="6.32319">
        <ele>1564</ele>
        <time>2016-10-02T07:13:08+02:00</time>
      </trkpt>
      <trkpt lat="45.97503" lon="6.32321">
        <ele>1564</ele>
        <time>2016-10-02T07:13:10+02:00</time>
      </trkpt>
      <trkpt lat="45.97502" lon="6.32323">
        <ele>1564</ele>
        <time>2016-10-02T07:13:11+02:00</time>
      </trkpt>
      <trkpt lat="45.97501" lon="6.32326">
        <ele>1565</ele>
        <time>2016-10-02T07:13:13+02:00</time>
      </trkpt>
      <trkpt lat="45.97499" lon="6.32328">
        <ele>1565</ele>
        <time>2016-10-02T07:13:14+02:00</time>
      </trkpt>
      <trkpt lat="45.97499" lon="6.32329">
        <ele>1565</ele>
        <time>2016-10-02T07:13:15+02:00</time>
      </trkpt>
      <trkpt lat="45.97498" lon="6.3233">
        <ele>1565</ele>
        <time>2016-10-02T07:13:16+02:00</time>
      </trkpt>
      <trkpt lat="45.97496" lon="6.32332">
        <ele>1565</ele>
        <time>2016-10-02T07:13:18+02:00</time>
      </trkpt>
      <trkpt lat="45.97495" lon="6.32333">
        <ele>1566</ele>
        <time>2016-10-02T07:13:19+02:00</time>
      </trkpt>
      <trkpt lat="45.97494" lon="6.32335">
        <ele>1566</ele>
        <time>2016-10-02T07:13:20+02:00</time>
      </trkpt>
      <trkpt lat="45.97493" lon="6.32336">
        <ele>1566</ele>
        <time>2016-10-02T07:13:22+02:00</time>
      </trkpt>
      <trkpt lat="45.97491" lon="6.32338">
        <ele>1566</ele>
        <time>2016-10-02T07:13:23+02:00</time>
      </trkpt>
      <trkpt lat="45.9749" lon="6.3234">
        <ele>1566</ele>
        <time>2016-10-02T07:13:24+02:00</time>
      </trkpt>
      <trkpt lat="45.97489" lon="6.32342">
        <ele>1567</ele>
        <time>2016-10-02T07:13:26+02:00</time>
      </trkpt>
      <trkpt lat="45.97488" lon="6.32344">
        <ele>1567</ele>
        <time>2016-10-02T07:13:27+02:00</time>
      </trkpt>
      <trkpt lat="45.97487" lon="6.32346">
        <ele>1567</ele>
        <time>2016-10-02T07:13:29+02:00</time>
      </trkpt>
      <trkpt lat="45.97485" lon="6.32348">
        <ele>1567</ele>
        <time>2016-10-02T07:13:30+02:00</time>
      </trkpt>
      <trkpt lat="45.97484" lon="6.3235">
        <ele>1567</ele>
        <time>2016-10-02T07:13:32+02:00</time>
      </trkpt>
      <trkpt lat="45.97484" lon="6.32352">
        <ele>1568</ele>
        <time>2016-10-02T07:13:33+02:00</time>
      </trkpt>
      <trkpt lat="45.97483" lon="6.32354">
        <ele>1568</ele>
        <time>2016-10-02T07:13:34+02:00</time>
      </trkpt>
      <trkpt lat="45.97482" lon="6.32355">
        <ele>1568</ele>
        <time>2016-10-02T07:13:35+02:00</time>
      </trkpt>
      <trkpt lat="45.97481" lon="6.32357">
        <ele>1568</ele>
        <time>2016-10-02T07:13:36+02:00</time>
      </trkpt>
      <trkpt lat="45.97479" lon="6.32358">
        <ele>1568</ele>
        <time>2016-10-02T07:13:38+02:00</time>
      </trkpt>
      <trkpt lat="45.97477" lon="6.3236">
        <ele>1569</ele>
        <time>2016-10-02T07:13:40+02:00</time>
      </trkpt>
      <trkpt lat="45.97476" lon="6.3236">
        <ele>1569</ele>
        <time>2016-10-02T07:13:41+02:00</time>
      </trkpt>
      <trkpt lat="45.97474" lon="6.32361">
        <ele>1569</ele>
        <time>2016-10-02T07:13:43+02:00</time>
      </trkpt>
      <trkpt lat="45.97473" lon="6.32363">
        <ele>1569</ele>
        <time>2016-10-02T07:13:44+02:00</time>
      </trkpt>
      <trkpt lat="45.97471" lon="6.32364">
        <ele>1569</ele>
        <time>2016-10-02T07:13:45+02:00</time>
      </trkpt>
      <trkpt lat="45.9747" lon="6.32365">
        <ele>1570</ele>
        <time>2016-10-02T07:13:47+02:00</time>
      </trkpt>
      <trkpt lat="45.97468" lon="6.32365">
        <ele>1570</ele>
        <time>2016-10-02T07:13:48+02:00</time>
      </trkpt>
      <trkpt lat="45.97467" lon="6.32365">
        <ele>1570</ele>
        <time>2016-10-02T07:13:49+02:00</time>
      </trkpt>
      <trkpt lat="45.97466" lon="6.32366">
        <ele>1570</ele>
        <time>2016-10-02T07:13:50+02:00</time>
      </trkpt>
      <trkpt lat="45.97464" lon="6.32366">
        <ele>1570</ele>
        <time>2016-10-02T07:13:51+02:00</time>
      </trkpt>
      <trkpt lat="45.97463" lon="6.32367">
        <ele>1570</ele>
        <time>2016-10-02T07:13:52+02:00</time>
      </trkpt>
      <trkpt lat="45.97461" lon="6.32367">
        <ele>1571</ele>
        <time>2016-10-02T07:13:54+02:00</time>
      </trkpt>
      <trkpt lat="45.97459" lon="6.32367">
        <ele>1571</ele>
        <time>2016-10-02T07:13:55+02:00</time>
      </trkpt>
      <trkpt lat="45.97457" lon="6.32367">
        <ele>1571</ele>
        <time>2016-10-02T07:13:57+02:00</time>
      </trkpt>
      <trkpt lat="45.97456" lon="6.32368">
        <ele>1571</ele>
        <time>2016-10-02T07:13:59+02:00</time>
      </trkpt>
      <trkpt lat="45.97454" lon="6.32369">
        <ele>1571</ele>
        <time>2016-10-02T07:14:00+02:00</time>
      </trkpt>
      <trkpt lat="45.97452" lon="6.3237">
        <ele>1572</ele>
        <time>2016-10-02T07:14:01+02:00</time>
      </trkpt>
      <trkpt lat="45.97451" lon="6.32372">
        <ele>1572</ele>
        <time>2016-10-02T07:14:03+02:00</time>
      </trkpt>
      <trkpt lat="45.9745" lon="6.32373">
        <ele>1572</ele>
        <time>2016-10-02T07:14:04+02:00</time>
      </trkpt>
      <trkpt lat="45.97449" lon="6.32375">
        <ele>1572</ele>
        <time>2016-10-02T07:14:06+02:00</time>
      </trkpt>
      <trkpt lat="45.97447" lon="6.32377">
        <ele>1572</ele>
        <time>2016-10-02T07:14:07+02:00</time>
      </trkpt>
      <trkpt lat="45.97446" lon="6.32378">
        <ele>1573</ele>
        <time>2016-10-02T07:14:08+02:00</time>
      </trkpt>
      <trkpt lat="45.97444" lon="6.32379">
        <ele>1573</ele>
        <time>2016-10-02T07:14:10+02:00</time>
      </trkpt>
      <trkpt lat="45.97443" lon="6.32381">
        <ele>1573</ele>
        <time>2016-10-02T07:14:11+02:00</time>
      </trkpt>
      <trkpt lat="45.97442" lon="6.32383">
        <ele>1573</ele>
        <time>2016-10-02T07:14:13+02:00</time>
      </trkpt>
      <trkpt lat="45.97441" lon="6.32385">
        <ele>1573</ele>
        <time>2016-10-02T07:14:14+02:00</time>
      </trkpt>
      <trkpt lat="45.97439" lon="6.32386">
        <ele>1574</ele>
        <time>2016-10-02T07:14:16+02:00</time>
      </trkpt>
      <trkpt lat="45.97438" lon="6.32387">
        <ele>1574</ele>
        <time>2016-10-02T07:14:17+02:00</time>
      </trkpt>
      <trkpt lat="45.97437" lon="6.32389">
        <ele>1574</ele>
        <time>2016-10-02T07:14:18+02:00</time>
      </trkpt>
      <trkpt lat="45.97436" lon="6.3239">
        <ele>1574</ele>
        <time>2016-10-02T07:14:19+02:00</time>
      </trkpt>
      <trkpt lat="45.97435" lon="6.32392">
        <ele>1574</ele>
        <time>2016-10-02T07:14:20+02:00</time>
      </trkpt>
      <trkpt lat="45.97434" lon="6.32394">
        <ele>1574</ele>
        <time>2016-10-02T07:14:22+02:00</time>
      </trkpt>
      <trkpt lat="45.97433" lon="6.32396">
        <ele>1575</ele>
        <time>2016-10-02T07:14:23+02:00</time>
      </trkpt>
      <trkpt lat="45.97431" lon="6.32398">
        <ele>1575</ele>
        <time>2016-10-02T07:14:25+02:00</time>
      </trkpt>
      <trkpt lat="45.9743" lon="6.324">
        <ele>1575</ele>
        <time>2016-10-02T07:14:26+02:00</time>
      </trkpt>
      <trkpt lat="45.97429" lon="6.32401">
        <ele>1575</ele>
        <time>2016-10-02T07:14:28+02:00</time>
      </trkpt>
      <trkpt lat="45.97428" lon="6.32403">
        <ele>1575</ele>
        <time>2016-10-02T07:14:29+02:00</time>
      </trkpt>
      <trkpt lat="45.97427" lon="6.32405">
        <ele>1576</ele>
        <time>2016-10-02T07:14:31+02:00</time>
      </trkpt>
      <trkpt lat="45.97426" lon="6.32407">
        <ele>1576</ele>
        <time>2016-10-02T07:14:32+02:00</time>
      </trkpt>
      <trkpt lat="45.97425" lon="6.32408">
        <ele>1576</ele>
        <time>2016-10-02T07:14:33+02:00</time>
      </trkpt>
      <trkpt lat="45.97424" lon="6.32409">
        <ele>1576</ele>
        <time>2016-10-02T07:14:34+02:00</time>
      </trkpt>
      <trkpt lat="45.97423" lon="6.32411">
        <ele>1576</ele>
        <time>2016-10-02T07:14:35+02:00</time>
      </trkpt>
      <trkpt lat="45.97421" lon="6.32412">
        <ele>1576</ele>
        <time>2016-10-02T07:14:37+02:00</time>
      </trkpt>
      <trkpt lat="45.9742" lon="6.32412">
        <ele>1577</ele>
        <time>2016-10-02T07:14:38+02:00</time>
      </trkpt>
      <trkpt lat="45.97418" lon="6.32413">
        <ele>1577</ele>
        <time>2016-10-02T07:14:39+02:00</time>
      </trkpt>
      <trkpt lat="45.97416" lon="6.32415">
        <ele>1577</ele>
        <time>2016-10-02T07:14:41+02:00</time>
      </trkpt>
      <trkpt lat="45.97415" lon="6.32416">
        <ele>1577</ele>
        <time>2016-10-02T07:14:42+02:00</time>
      </trkpt>
      <trkpt lat="45.97414" lon="6.32418">
        <ele>1577</ele>
        <time>2016-10-02T07:14:43+02:00</time>
      </trkpt>
      <trkpt lat="45.97413" lon="6.3242">
        <ele>1578</ele>
        <time>2016-10-02T07:14:45+02:00</time>
      </trkpt>
      <trkpt lat="45.97412" lon="6.32422">
        <ele>1578</ele>
        <time>2016-10-02T07:14:46+02:00</time>
      </trkpt>
      <trkpt lat="45.9741" lon="6.32423">
        <ele>1578</ele>
        <time>2016-10-02T07:14:48+02:00</time>
      </trkpt>
      <trkpt lat="45.97408" lon="6.32425">
        <ele>1578</ele>
        <time>2016-10-02T07:14:50+02:00</time>
      </trkpt>
      <trkpt lat="45.97406" lon="6.32427">
        <ele>1579</ele>
        <time>2016-10-02T07:14:52+02:00</time>
      </trkpt>
      <trkpt lat="45.97404" lon="6.32429">
        <ele>1579</ele>
        <time>2016-10-02T07:14:54+02:00</time>
      </trkpt>
      <trkpt lat="45.97402" lon="6.32431">
        <ele>1579</ele>
        <time>2016-10-02T07:14:55+02:00</time>
      </trkpt>
      <trkpt lat="45.97401" lon="6.32433">
        <ele>1579</ele>
        <time>2016-10-02T07:14:57+02:00</time>
      </trkpt>
      <trkpt lat="45.97399" lon="6.32436">
        <ele>1580</ele>
        <time>2016-10-02T07:15:00+02:00</time>
      </trkpt>
      <trkpt lat="45.97397" lon="6.3244">
        <ele>1580</ele>
        <time>2016-10-02T07:15:02+02:00</time>
      </trkpt>
      <trkpt lat="45.97396" lon="6.32442">
        <ele>1580</ele>
        <time>2016-10-02T07:15:04+02:00</time>
      </trkpt>
      <trkpt lat="45.97395" lon="6.32444">
        <ele>1581</ele>
        <time>2016-10-02T07:15:05+02:00</time>
      </trkpt>
      <trkpt lat="45.97393" lon="6.32446">
        <ele>1581</ele>
        <time>2016-10-02T07:15:07+02:00</time>
      </trkpt>
      <trkpt lat="45.97392" lon="6.32448">
        <ele>1581</ele>
        <time>2016-10-02T07:15:09+02:00</time>
      </trkpt>
      <trkpt lat="45.9739" lon="6.32451">
        <ele>1581</ele>
        <time>2016-10-02T07:15:11+02:00</time>
      </trkpt>
      <trkpt lat="45.97388" lon="6.32454">
        <ele>1582</ele>
        <time>2016-10-02T07:15:13+02:00</time>
      </trkpt>
      <trkpt lat="45.97387" lon="6.32456">
        <ele>1582</ele>
        <time>2016-10-02T07:15:14+02:00</time>
      </trkpt>
      <trkpt lat="45.97386" lon="6.32458">
        <ele>1582</ele>
        <time>2016-10-02T07:15:16+02:00</time>
      </trkpt>
      <trkpt lat="45.97385" lon="6.3246">
        <ele>1582</ele>
        <time>2016-10-02T07:15:17+02:00</time>
      </trkpt>
      <trkpt lat="45.97384" lon="6.32462">
        <ele>1582</ele>
        <time>2016-10-02T07:15:19+02:00</time>
      </trkpt>
      <trkpt lat="45.97383" lon="6.32464">
        <ele>1582</ele>
        <time>2016-10-02T07:15:20+02:00</time>
      </trkpt>
      <trkpt lat="45.97381" lon="6.32466">
        <ele>1583</ele>
        <time>2016-10-02T07:15:21+02:00</time>
      </trkpt>
      <trkpt lat="45.9738" lon="6.32467">
        <ele>1583</ele>
        <time>2016-10-02T07:15:23+02:00</time>
      </trkpt>
      <trkpt lat="45.97379" lon="6.32469">
        <ele>1583</ele>
        <time>2016-10-02T07:15:24+02:00</time>
      </trkpt>
      <trkpt lat="45.97378" lon="6.32471">
        <ele>1583</ele>
        <time>2016-10-02T07:15:26+02:00</time>
      </trkpt>
      <trkpt lat="45.97376" lon="6.32472">
        <ele>1583</ele>
        <time>2016-10-02T07:15:27+02:00</time>
      </trkpt>
      <trkpt lat="45.97375" lon="6.32474">
        <ele>1584</ele>
        <time>2016-10-02T07:15:29+02:00</time>
      </trkpt>
      <trkpt lat="45.97374" lon="6.32476">
        <ele>1584</ele>
        <time>2016-10-02T07:15:30+02:00</time>
      </trkpt>
      <trkpt lat="45.97372" lon="6.32478">
        <ele>1584</ele>
        <time>2016-10-02T07:15:31+02:00</time>
      </trkpt>
      <trkpt lat="45.97371" lon="6.32479">
        <ele>1584</ele>
        <time>2016-10-02T07:15:33+02:00</time>
      </trkpt>
      <trkpt lat="45.9737" lon="6.3248">
        <ele>1584</ele>
        <time>2016-10-02T07:15:34+02:00</time>
      </trkpt>
      <trkpt lat="45.97369" lon="6.32481">
        <ele>1584</ele>
        <time>2016-10-02T07:15:35+02:00</time>
      </trkpt>
      <trkpt lat="45.97367" lon="6.32483">
        <ele>1585</ele>
        <time>2016-10-02T07:15:37+02:00</time>
      </trkpt>
      <trkpt lat="45.97365" lon="6.32485">
        <ele>1585</ele>
        <time>2016-10-02T07:15:39+02:00</time>
      </trkpt>
      <trkpt lat="45.97363" lon="6.32487">
        <ele>1585</ele>
        <time>2016-10-02T07:15:41+02:00</time>
      </trkpt>
      <trkpt lat="45.97361" lon="6.3249">
        <ele>1585</ele>
        <time>2016-10-02T07:15:43+02:00</time>
      </trkpt>
      <trkpt lat="45.97358" lon="6.32492">
        <ele>1586</ele>
        <time>2016-10-02T07:15:45+02:00</time>
      </trkpt>
      <trkpt lat="45.97356" lon="6.32493">
        <ele>1586</ele>
        <time>2016-10-02T07:15:48+02:00</time>
      </trkpt>
      <trkpt lat="45.97353" lon="6.32495">
        <ele>1586</ele>
        <time>2016-10-02T07:15:50+02:00</time>
      </trkpt>
      <trkpt lat="45.97351" lon="6.32495">
        <ele>1586</ele>
        <time>2016-10-02T07:15:51+02:00</time>
      </trkpt>
      <trkpt lat="45.97349" lon="6.32496">
        <ele>1587</ele>
        <time>2016-10-02T07:15:53+02:00</time>
      </trkpt>
      <trkpt lat="45.97347" lon="6.32497">
        <ele>1587</ele>
        <time>2016-10-02T07:15:55+02:00</time>
      </trkpt>
      <trkpt lat="45.97345" lon="6.32497">
        <ele>1587</ele>
        <time>2016-10-02T07:15:56+02:00</time>
      </trkpt>
      <trkpt lat="45.97344" lon="6.32498">
        <ele>1587</ele>
        <time>2016-10-02T07:15:58+02:00</time>
      </trkpt>
      <trkpt lat="45.97341" lon="6.32499">
        <ele>1587</ele>
        <time>2016-10-02T07:16:00+02:00</time>
      </trkpt>
      <trkpt lat="45.97339" lon="6.32499">
        <ele>1588</ele>
        <time>2016-10-02T07:16:01+02:00</time>
      </trkpt>
      <trkpt lat="45.97336" lon="6.32498">
        <ele>1588</ele>
        <time>2016-10-02T07:16:03+02:00</time>
      </trkpt>
      <trkpt lat="45.97334" lon="6.32498">
        <ele>1588</ele>
        <time>2016-10-02T07:16:05+02:00</time>
      </trkpt>
      <trkpt lat="45.97332" lon="6.32498">
        <ele>1588</ele>
        <time>2016-10-02T07:16:07+02:00</time>
      </trkpt>
      <trkpt lat="45.9733" lon="6.32499">
        <ele>1588</ele>
        <time>2016-10-02T07:16:08+02:00</time>
      </trkpt>
      <trkpt lat="45.97328" lon="6.32499">
        <ele>1588</ele>
        <time>2016-10-02T07:16:10+02:00</time>
      </trkpt>
      <trkpt lat="45.97326" lon="6.325">
        <ele>1588</ele>
        <time>2016-10-02T07:16:12+02:00</time>
      </trkpt>
      <trkpt lat="45.97324" lon="6.32501">
        <ele>1588</ele>
        <time>2016-10-02T07:16:13+02:00</time>
      </trkpt>
      <trkpt lat="45.97322" lon="6.32502">
        <ele>1588</ele>
        <time>2016-10-02T07:16:15+02:00</time>
      </trkpt>
      <trkpt lat="45.9732" lon="6.32503">
        <ele>1588</ele>
        <time>2016-10-02T07:16:17+02:00</time>
      </trkpt>
      <trkpt lat="45.97319" lon="6.32503">
        <ele>1588</ele>
        <time>2016-10-02T07:16:18+02:00</time>
      </trkpt>
      <trkpt lat="45.97317" lon="6.32502">
        <ele>1588</ele>
        <time>2016-10-02T07:16:19+02:00</time>
      </trkpt>
      <trkpt lat="45.97315" lon="6.32502">
        <ele>1588</ele>
        <time>2016-10-02T07:16:21+02:00</time>
      </trkpt>
      <trkpt lat="45.97313" lon="6.32503">
        <ele>1588</ele>
        <time>2016-10-02T07:16:23+02:00</time>
      </trkpt>
      <trkpt lat="45.9731" lon="6.32503">
        <ele>1588</ele>
        <time>2016-10-02T07:16:25+02:00</time>
      </trkpt>
      <trkpt lat="45.97309" lon="6.32503">
        <ele>1587</ele>
        <time>2016-10-02T07:16:26+02:00</time>
      </trkpt>
      <trkpt lat="45.97307" lon="6.32502">
        <ele>1587</ele>
        <time>2016-10-02T07:16:27+02:00</time>
      </trkpt>
      <trkpt lat="45.97305" lon="6.32501">
        <ele>1587</ele>
        <time>2016-10-02T07:16:29+02:00</time>
      </trkpt>
      <trkpt lat="45.97303" lon="6.32501">
        <ele>1587</ele>
        <time>2016-10-02T07:16:30+02:00</time>
      </trkpt>
      <trkpt lat="45.97302" lon="6.325">
        <ele>1587</ele>
        <time>2016-10-02T07:16:32+02:00</time>
      </trkpt>
      <trkpt lat="45.973" lon="6.325">
        <ele>1587</ele>
        <time>2016-10-02T07:16:33+02:00</time>
      </trkpt>
      <trkpt lat="45.97299" lon="6.325">
        <ele>1587</ele>
        <time>2016-10-02T07:16:34+02:00</time>
      </trkpt>
      <trkpt lat="45.97297" lon="6.325">
        <ele>1587</ele>
        <time>2016-10-02T07:16:36+02:00</time>
      </trkpt>
      <trkpt lat="45.97295" lon="6.32499">
        <ele>1587</ele>
        <time>2016-10-02T07:16:37+02:00</time>
      </trkpt>
      <trkpt lat="45.97293" lon="6.32498">
        <ele>1587</ele>
        <time>2016-10-02T07:16:39+02:00</time>
      </trkpt>
      <trkpt lat="45.97291" lon="6.32497">
        <ele>1587</ele>
        <time>2016-10-02T07:16:40+02:00</time>
      </trkpt>
      <trkpt lat="45.97289" lon="6.32496">
        <ele>1587</ele>
        <time>2016-10-02T07:16:42+02:00</time>
      </trkpt>
      <trkpt lat="45.97288" lon="6.32496">
        <ele>1587</ele>
        <time>2016-10-02T07:16:43+02:00</time>
      </trkpt>
      <trkpt lat="45.97286" lon="6.32496">
        <ele>1587</ele>
        <time>2016-10-02T07:16:45+02:00</time>
      </trkpt>
      <trkpt lat="45.97284" lon="6.32495">
        <ele>1587</ele>
        <time>2016-10-02T07:16:46+02:00</time>
      </trkpt>
      <trkpt lat="45.97283" lon="6.32495">
        <ele>1587</ele>
        <time>2016-10-02T07:16:47+02:00</time>
      </trkpt>
      <trkpt lat="45.97282" lon="6.32495">
        <ele>1587</ele>
        <time>2016-10-02T07:16:48+02:00</time>
      </trkpt>
      <trkpt lat="45.97279" lon="6.32494">
        <ele>1587</ele>
        <time>2016-10-02T07:16:50+02:00</time>
      </trkpt>
      <trkpt lat="45.97277" lon="6.32495">
        <ele>1587</ele>
        <time>2016-10-02T07:16:52+02:00</time>
      </trkpt>
      <trkpt lat="45.97274" lon="6.32496">
        <ele>1587</ele>
        <time>2016-10-02T07:16:54+02:00</time>
      </trkpt>
      <trkpt lat="45.97273" lon="6.32497">
        <ele>1587</ele>
        <time>2016-10-02T07:16:56+02:00</time>
      </trkpt>
      <trkpt lat="45.97271" lon="6.32498">
        <ele>1587</ele>
        <time>2016-10-02T07:16:57+02:00</time>
      </trkpt>
      <trkpt lat="45.9727" lon="6.32498">
        <ele>1586</ele>
        <time>2016-10-02T07:16:58+02:00</time>
      </trkpt>
      <trkpt lat="45.97268" lon="6.32499">
        <ele>1586</ele>
        <time>2016-10-02T07:17:00+02:00</time>
      </trkpt>
      <trkpt lat="45.97265" lon="6.32501">
        <ele>1586</ele>
        <time>2016-10-02T07:17:02+02:00</time>
      </trkpt>
      <trkpt lat="45.97264" lon="6.32502">
        <ele>1586</ele>
        <time>2016-10-02T07:17:04+02:00</time>
      </trkpt>
      <trkpt lat="45.97262" lon="6.32502">
        <ele>1586</ele>
        <time>2016-10-02T07:17:05+02:00</time>
      </trkpt>
      <trkpt lat="45.9726" lon="6.32502">
        <ele>1586</ele>
        <time>2016-10-02T07:17:06+02:00</time>
      </trkpt>
      <trkpt lat="45.97259" lon="6.32503">
        <ele>1586</ele>
        <time>2016-10-02T07:17:08+02:00</time>
      </trkpt>
      <trkpt lat="45.97258" lon="6.32503">
        <ele>1586</ele>
        <time>2016-10-02T07:17:09+02:00</time>
      </trkpt>
      <trkpt lat="45.97256" lon="6.32505">
        <ele>1586</ele>
        <time>2016-10-02T07:17:10+02:00</time>
      </trkpt>
      <trkpt lat="45.97255" lon="6.32507">
        <ele>1586</ele>
        <time>2016-10-02T07:17:12+02:00</time>
      </trkpt>
      <trkpt lat="45.97253" lon="6.32509">
        <ele>1586</ele>
        <time>2016-10-02T07:17:13+02:00</time>
      </trkpt>
      <trkpt lat="45.97252" lon="6.3251">
        <ele>1586</ele>
        <time>2016-10-02T07:17:15+02:00</time>
      </trkpt>
      <trkpt lat="45.9725" lon="6.32511">
        <ele>1586</ele>
        <time>2016-10-02T07:17:16+02:00</time>
      </trkpt>
      <trkpt lat="45.97249" lon="6.32512">
        <ele>1586</ele>
        <time>2016-10-02T07:17:17+02:00</time>
      </trkpt>
      <trkpt lat="45.97247" lon="6.32513">
        <ele>1586</ele>
        <time>2016-10-02T07:17:19+02:00</time>
      </trkpt>
      <trkpt lat="45.97245" lon="6.32515">
        <ele>1586</ele>
        <time>2016-10-02T07:17:21+02:00</time>
      </trkpt>
      <trkpt lat="45.97243" lon="6.32517">
        <ele>1586</ele>
        <time>2016-10-02T07:17:22+02:00</time>
      </trkpt>
      <trkpt lat="45.97242" lon="6.32519">
        <ele>1586</ele>
        <time>2016-10-02T07:17:24+02:00</time>
      </trkpt>
      <trkpt lat="45.97241" lon="6.3252">
        <ele>1586</ele>
        <time>2016-10-02T07:17:25+02:00</time>
      </trkpt>
      <trkpt lat="45.9724" lon="6.32522">
        <ele>1586</ele>
        <time>2016-10-02T07:17:27+02:00</time>
      </trkpt>
      <trkpt lat="45.97238" lon="6.32524">
        <ele>1586</ele>
        <time>2016-10-02T07:17:28+02:00</time>
      </trkpt>
      <trkpt lat="45.97236" lon="6.32526">
        <ele>1585</ele>
        <time>2016-10-02T07:17:30+02:00</time>
      </trkpt>
      <trkpt lat="45.97234" lon="6.32529">
        <ele>1585</ele>
        <time>2016-10-02T07:17:33+02:00</time>
      </trkpt>
      <trkpt lat="45.97232" lon="6.32532">
        <ele>1585</ele>
        <time>2016-10-02T07:17:35+02:00</time>
      </trkpt>
      <trkpt lat="45.9723" lon="6.32535">
        <ele>1585</ele>
        <time>2016-10-02T07:17:37+02:00</time>
      </trkpt>
      <trkpt lat="45.97229" lon="6.32537">
        <ele>1585</ele>
        <time>2016-10-02T07:17:39+02:00</time>
      </trkpt>
      <trkpt lat="45.97227" lon="6.32538">
        <ele>1585</ele>
        <time>2016-10-02T07:17:40+02:00</time>
      </trkpt>
      <trkpt lat="45.97226" lon="6.32539">
        <ele>1585</ele>
        <time>2016-10-02T07:17:41+02:00</time>
      </trkpt>
      <trkpt lat="45.97223" lon="6.3254">
        <ele>1585</ele>
        <time>2016-10-02T07:17:44+02:00</time>
      </trkpt>
      <trkpt lat="45.97221" lon="6.32541">
        <ele>1584</ele>
        <time>2016-10-02T07:17:45+02:00</time>
      </trkpt>
      <trkpt lat="45.97219" lon="6.32542">
        <ele>1584</ele>
        <time>2016-10-02T07:17:47+02:00</time>
      </trkpt>
      <trkpt lat="45.97217" lon="6.32543">
        <ele>1584</ele>
        <time>2016-10-02T07:17:49+02:00</time>
      </trkpt>
      <trkpt lat="45.97215" lon="6.32544">
        <ele>1584</ele>
        <time>2016-10-02T07:17:51+02:00</time>
      </trkpt>
      <trkpt lat="45.97214" lon="6.32546">
        <ele>1584</ele>
        <time>2016-10-02T07:17:52+02:00</time>
      </trkpt>
      <trkpt lat="45.97212" lon="6.32548">
        <ele>1584</ele>
        <time>2016-10-02T07:17:54+02:00</time>
      </trkpt>
      <trkpt lat="45.97211" lon="6.32549">
        <ele>1584</ele>
        <time>2016-10-02T07:17:55+02:00</time>
      </trkpt>
      <trkpt lat="45.97209" lon="6.32551">
        <ele>1583</ele>
        <time>2016-10-02T07:17:57+02:00</time>
      </trkpt>
      <trkpt lat="45.97208" lon="6.32553">
        <ele>1583</ele>
        <time>2016-10-02T07:17:59+02:00</time>
      </trkpt>
      <trkpt lat="45.97206" lon="6.32555">
        <ele>1583</ele>
        <time>2016-10-02T07:18:00+02:00</time>
      </trkpt>
      <trkpt lat="45.97204" lon="6.32557">
        <ele>1583</ele>
        <time>2016-10-02T07:18:02+02:00</time>
      </trkpt>
      <trkpt lat="45.97203" lon="6.32558">
        <ele>1583</ele>
        <time>2016-10-02T07:18:04+02:00</time>
      </trkpt>
      <trkpt lat="45.97201" lon="6.32559">
        <ele>1583</ele>
        <time>2016-10-02T07:18:05+02:00</time>
      </trkpt>
      <trkpt lat="45.97199" lon="6.32559">
        <ele>1582</ele>
        <time>2016-10-02T07:18:07+02:00</time>
      </trkpt>
      <trkpt lat="45.97196" lon="6.32559">
        <ele>1582</ele>
        <time>2016-10-02T07:18:09+02:00</time>
      </trkpt>
      <trkpt lat="45.97194" lon="6.32559">
        <ele>1582</ele>
        <time>2016-10-02T07:18:11+02:00</time>
      </trkpt>
      <trkpt lat="45.97192" lon="6.3256">
        <ele>1582</ele>
        <time>2016-10-02T07:18:12+02:00</time>
      </trkpt>
      <trkpt lat="45.97191" lon="6.3256">
        <ele>1582</ele>
        <time>2016-10-02T07:18:13+02:00</time>
      </trkpt>
      <trkpt lat="45.97189" lon="6.3256">
        <ele>1582</ele>
        <time>2016-10-02T07:18:15+02:00</time>
      </trkpt>
      <trkpt lat="45.97188" lon="6.3256">
        <ele>1582</ele>
        <time>2016-10-02T07:18:16+02:00</time>
      </trkpt>
      <trkpt lat="45.97187" lon="6.32559">
        <ele>1582</ele>
        <time>2016-10-02T07:18:17+02:00</time>
      </trkpt>
      <trkpt lat="45.97185" lon="6.32559">
        <ele>1581</ele>
        <time>2016-10-02T07:18:18+02:00</time>
      </trkpt>
      <trkpt lat="45.97182" lon="6.32558">
        <ele>1581</ele>
        <time>2016-10-02T07:18:20+02:00</time>
      </trkpt>
      <trkpt lat="45.9718" lon="6.32558">
        <ele>1581</ele>
        <time>2016-10-02T07:18:22+02:00</time>
      </trkpt>
      <trkpt lat="45.97177" lon="6.32558">
        <ele>1581</ele>
        <time>2016-10-02T07:18:24+02:00</time>
      </trkpt>
      <trkpt lat="45.97175" lon="6.32558">
        <ele>1581</ele>
        <time>2016-10-02T07:18:26+02:00</time>
      </trkpt>
      <trkpt lat="45.97173" lon="6.32557">
        <ele>1580</ele>
        <time>2016-10-02T07:18:28+02:00</time>
      </trkpt>
      <trkpt lat="45.97171" lon="6.32556">
        <ele>1580</ele>
        <time>2016-10-02T07:18:30+02:00</time>
      </trkpt>
      <trkpt lat="45.97168" lon="6.32555">
        <ele>1580</ele>
        <time>2016-10-02T07:18:32+02:00</time>
      </trkpt>
      <trkpt lat="45.97165" lon="6.32554">
        <ele>1580</ele>
        <time>2016-10-02T07:18:34+02:00</time>
      </trkpt>
      <trkpt lat="45.97163" lon="6.32554">
        <ele>1580</ele>
        <time>2016-10-02T07:18:36+02:00</time>
      </trkpt>
      <trkpt lat="45.97161" lon="6.32553">
        <ele>1579</ele>
        <time>2016-10-02T07:18:38+02:00</time>
      </trkpt>
      <trkpt lat="45.97159" lon="6.32553">
        <ele>1579</ele>
        <time>2016-10-02T07:18:40+02:00</time>
      </trkpt>
      <trkpt lat="45.97157" lon="6.32554">
        <ele>1579</ele>
        <time>2016-10-02T07:18:41+02:00</time>
      </trkpt>
      <trkpt lat="45.97156" lon="6.32555">
        <ele>1579</ele>
        <time>2016-10-02T07:18:42+02:00</time>
      </trkpt>
      <trkpt lat="45.97154" lon="6.32557">
        <ele>1578</ele>
        <time>2016-10-02T07:18:44+02:00</time>
      </trkpt>
      <trkpt lat="45.97152" lon="6.32558">
        <ele>1578</ele>
        <time>2016-10-02T07:18:45+02:00</time>
      </trkpt>
      <trkpt lat="45.97151" lon="6.32558">
        <ele>1578</ele>
        <time>2016-10-02T07:18:47+02:00</time>
      </trkpt>
      <trkpt lat="45.97149" lon="6.32559">
        <ele>1578</ele>
        <time>2016-10-02T07:18:48+02:00</time>
      </trkpt>
      <trkpt lat="45.97147" lon="6.3256">
        <ele>1578</ele>
        <time>2016-10-02T07:18:50+02:00</time>
      </trkpt>
      <trkpt lat="45.97145" lon="6.32561">
        <ele>1577</ele>
        <time>2016-10-02T07:18:51+02:00</time>
      </trkpt>
      <trkpt lat="45.97143" lon="6.32561">
        <ele>1577</ele>
        <time>2016-10-02T07:18:53+02:00</time>
      </trkpt>
      <trkpt lat="45.97141" lon="6.32562">
        <ele>1577</ele>
        <time>2016-10-02T07:18:55+02:00</time>
      </trkpt>
      <trkpt lat="45.97139" lon="6.32563">
        <ele>1576</ele>
        <time>2016-10-02T07:18:56+02:00</time>
      </trkpt>
      <trkpt lat="45.97137" lon="6.32563">
        <ele>1576</ele>
        <time>2016-10-02T07:18:58+02:00</time>
      </trkpt>
      <trkpt lat="45.97135" lon="6.32562">
        <ele>1576</ele>
        <time>2016-10-02T07:19:00+02:00</time>
      </trkpt>
      <trkpt lat="45.97132" lon="6.32561">
        <ele>1576</ele>
        <time>2016-10-02T07:19:02+02:00</time>
      </trkpt>
      <trkpt lat="45.97129" lon="6.3256">
        <ele>1575</ele>
        <time>2016-10-02T07:19:05+02:00</time>
      </trkpt>
      <trkpt lat="45.97127" lon="6.32559">
        <ele>1575</ele>
        <time>2016-10-02T07:19:06+02:00</time>
      </trkpt>
      <trkpt lat="45.97125" lon="6.32559">
        <ele>1575</ele>
        <time>2016-10-02T07:19:08+02:00</time>
      </trkpt>
      <trkpt lat="45.97124" lon="6.32559">
        <ele>1575</ele>
        <time>2016-10-02T07:19:09+02:00</time>
      </trkpt>
      <trkpt lat="45.97122" lon="6.3256">
        <ele>1574</ele>
        <time>2016-10-02T07:19:11+02:00</time>
      </trkpt>
      <trkpt lat="45.9712" lon="6.3256">
        <ele>1574</ele>
        <time>2016-10-02T07:19:13+02:00</time>
      </trkpt>
      <trkpt lat="45.97118" lon="6.3256">
        <ele>1574</ele>
        <time>2016-10-02T07:19:14+02:00</time>
      </trkpt>
      <trkpt lat="45.97116" lon="6.3256">
        <ele>1574</ele>
        <time>2016-10-02T07:19:16+02:00</time>
      </trkpt>
      <trkpt lat="45.97114" lon="6.3256">
        <ele>1574</ele>
        <time>2016-10-02T07:19:17+02:00</time>
      </trkpt>
      <trkpt lat="45.97112" lon="6.3256">
        <ele>1573</ele>
        <time>2016-10-02T07:19:19+02:00</time>
      </trkpt>
      <trkpt lat="45.9711" lon="6.3256">
        <ele>1573</ele>
        <time>2016-10-02T07:19:21+02:00</time>
      </trkpt>
      <trkpt lat="45.97108" lon="6.3256">
        <ele>1573</ele>
        <time>2016-10-02T07:19:22+02:00</time>
      </trkpt>
      <trkpt lat="45.97106" lon="6.3256">
        <ele>1573</ele>
        <time>2016-10-02T07:19:24+02:00</time>
      </trkpt>
      <trkpt lat="45.97104" lon="6.3256">
        <ele>1572</ele>
        <time>2016-10-02T07:19:26+02:00</time>
      </trkpt>
      <trkpt lat="45.97102" lon="6.3256">
        <ele>1572</ele>
        <time>2016-10-02T07:19:27+02:00</time>
      </trkpt>
      <trkpt lat="45.971" lon="6.32561">
        <ele>1572</ele>
        <time>2016-10-02T07:19:29+02:00</time>
      </trkpt>
      <trkpt lat="45.97098" lon="6.32562">
        <ele>1571</ele>
        <time>2016-10-02T07:19:31+02:00</time>
      </trkpt>
      <trkpt lat="45.97096" lon="6.32563">
        <ele>1571</ele>
        <time>2016-10-02T07:19:33+02:00</time>
      </trkpt>
      <trkpt lat="45.97094" lon="6.32564">
        <ele>1571</ele>
        <time>2016-10-02T07:19:34+02:00</time>
      </trkpt>
      <trkpt lat="45.97092" lon="6.32565">
        <ele>1571</ele>
        <time>2016-10-02T07:19:36+02:00</time>
      </trkpt>
      <trkpt lat="45.97091" lon="6.32568">
        <ele>1570</ele>
        <time>2016-10-02T07:19:37+02:00</time>
      </trkpt>
      <trkpt lat="45.97089" lon="6.3257">
        <ele>1570</ele>
        <time>2016-10-02T07:19:40+02:00</time>
      </trkpt>
      <trkpt lat="45.97087" lon="6.32573">
        <ele>1570</ele>
        <time>2016-10-02T07:19:42+02:00</time>
      </trkpt>
      <trkpt lat="45.97086" lon="6.32576">
        <ele>1570</ele>
        <time>2016-10-02T07:19:44+02:00</time>
      </trkpt>
      <trkpt lat="45.97084" lon="6.32578">
        <ele>1569</ele>
        <time>2016-10-02T07:19:46+02:00</time>
      </trkpt>
      <trkpt lat="45.97082" lon="6.3258">
        <ele>1569</ele>
        <time>2016-10-02T07:19:48+02:00</time>
      </trkpt>
      <trkpt lat="45.9708" lon="6.32582">
        <ele>1569</ele>
        <time>2016-10-02T07:19:50+02:00</time>
      </trkpt>
      <trkpt lat="45.97077" lon="6.32584">
        <ele>1568</ele>
        <time>2016-10-02T07:19:52+02:00</time>
      </trkpt>
      <trkpt lat="45.97075" lon="6.32586">
        <ele>1568</ele>
        <time>2016-10-02T07:19:54+02:00</time>
      </trkpt>
      <trkpt lat="45.97073" lon="6.32587">
        <ele>1568</ele>
        <time>2016-10-02T07:19:56+02:00</time>
      </trkpt>
      <trkpt lat="45.97071" lon="6.32589">
        <ele>1567</ele>
        <time>2016-10-02T07:19:58+02:00</time>
      </trkpt>
      <trkpt lat="45.97069" lon="6.3259">
        <ele>1567</ele>
        <time>2016-10-02T07:20:00+02:00</time>
      </trkpt>
      <trkpt lat="45.97067" lon="6.32592">
        <ele>1567</ele>
        <time>2016-10-02T07:20:02+02:00</time>
      </trkpt>
      <trkpt lat="45.97065" lon="6.32593">
        <ele>1566</ele>
        <time>2016-10-02T07:20:03+02:00</time>
      </trkpt>
      <trkpt lat="45.97063" lon="6.32594">
        <ele>1566</ele>
        <time>2016-10-02T07:20:05+02:00</time>
      </trkpt>
      <trkpt lat="45.97062" lon="6.32595">
        <ele>1566</ele>
        <time>2016-10-02T07:20:07+02:00</time>
      </trkpt>
      <trkpt lat="45.9706" lon="6.32597">
        <ele>1566</ele>
        <time>2016-10-02T07:20:08+02:00</time>
      </trkpt>
      <trkpt lat="45.97058" lon="6.32598">
        <ele>1565</ele>
        <time>2016-10-02T07:20:10+02:00</time>
      </trkpt>
      <trkpt lat="45.97056" lon="6.32599">
        <ele>1565</ele>
        <time>2016-10-02T07:20:11+02:00</time>
      </trkpt>
      <trkpt lat="45.97055" lon="6.326">
        <ele>1565</ele>
        <time>2016-10-02T07:20:13+02:00</time>
      </trkpt>
      <trkpt lat="45.97053" lon="6.32601">
        <ele>1565</ele>
        <time>2016-10-02T07:20:14+02:00</time>
      </trkpt>
      <trkpt lat="45.97052" lon="6.32603">
        <ele>1564</ele>
        <time>2016-10-02T07:20:16+02:00</time>
      </trkpt>
      <trkpt lat="45.9705" lon="6.32604">
        <ele>1564</ele>
        <time>2016-10-02T07:20:17+02:00</time>
      </trkpt>
      <trkpt lat="45.97049" lon="6.32606">
        <ele>1564</ele>
        <time>2016-10-02T07:20:19+02:00</time>
      </trkpt>
      <trkpt lat="45.97047" lon="6.32607">
        <ele>1564</ele>
        <time>2016-10-02T07:20:20+02:00</time>
      </trkpt>
      <trkpt lat="45.97045" lon="6.32609">
        <ele>1563</ele>
        <time>2016-10-02T07:20:22+02:00</time>
      </trkpt>
      <trkpt lat="45.97043" lon="6.3261">
        <ele>1563</ele>
        <time>2016-10-02T07:20:24+02:00</time>
      </trkpt>
      <trkpt lat="45.97041" lon="6.32612">
        <ele>1563</ele>
        <time>2016-10-02T07:20:26+02:00</time>
      </trkpt>
      <trkpt lat="45.97039" lon="6.32613">
        <ele>1563</ele>
        <time>2016-10-02T07:20:28+02:00</time>
      </trkpt>
      <trkpt lat="45.97037" lon="6.32614">
        <ele>1562</ele>
        <time>2016-10-02T07:20:30+02:00</time>
      </trkpt>
      <trkpt lat="45.97035" lon="6.32615">
        <ele>1562</ele>
        <time>2016-10-02T07:20:32+02:00</time>
      </trkpt>
      <trkpt lat="45.97032" lon="6.32616">
        <ele>1562</ele>
        <time>2016-10-02T07:20:34+02:00</time>
      </trkpt>
      <trkpt lat="45.9703" lon="6.32617">
        <ele>1562</ele>
        <time>2016-10-02T07:20:36+02:00</time>
      </trkpt>
      <trkpt lat="45.97028" lon="6.32618">
        <ele>1561</ele>
        <time>2016-10-02T07:20:37+02:00</time>
      </trkpt>
      <trkpt lat="45.97026" lon="6.32618">
        <ele>1561</ele>
        <time>2016-10-02T07:20:39+02:00</time>
      </trkpt>
      <trkpt lat="45.97024" lon="6.32619">
        <ele>1561</ele>
        <time>2016-10-02T07:20:41+02:00</time>
      </trkpt>
      <trkpt lat="45.97022" lon="6.3262">
        <ele>1561</ele>
        <time>2016-10-02T07:20:42+02:00</time>
      </trkpt>
      <trkpt lat="45.97021" lon="6.32621">
        <ele>1560</ele>
        <time>2016-10-02T07:20:44+02:00</time>
      </trkpt>
      <trkpt lat="45.97019" lon="6.32621">
        <ele>1560</ele>
        <time>2016-10-02T07:20:45+02:00</time>
      </trkpt>
      <trkpt lat="45.97017" lon="6.32622">
        <ele>1560</ele>
        <time>2016-10-02T07:20:47+02:00</time>
      </trkpt>
      <trkpt lat="45.97015" lon="6.32622">
        <ele>1560</ele>
        <time>2016-10-02T07:20:48+02:00</time>
      </trkpt>
      <trkpt lat="45.97013" lon="6.32623">
        <ele>1560</ele>
        <time>2016-10-02T07:20:50+02:00</time>
      </trkpt>
      <trkpt lat="45.97011" lon="6.32623">
        <ele>1559</ele>
        <time>2016-10-02T07:20:51+02:00</time>
      </trkpt>
      <trkpt lat="45.97009" lon="6.32623">
        <ele>1559</ele>
        <time>2016-10-02T07:20:53+02:00</time>
      </trkpt>
      <trkpt lat="45.97007" lon="6.32623">
        <ele>1559</ele>
        <time>2016-10-02T07:20:55+02:00</time>
      </trkpt>
      <trkpt lat="45.97005" lon="6.32623">
        <ele>1559</ele>
        <time>2016-10-02T07:20:57+02:00</time>
      </trkpt>
      <trkpt lat="45.97002" lon="6.32622">
        <ele>1558</ele>
        <time>2016-10-02T07:20:59+02:00</time>
      </trkpt>
      <trkpt lat="45.96999" lon="6.32622">
        <ele>1558</ele>
        <time>2016-10-02T07:21:02+02:00</time>
      </trkpt>
      <trkpt lat="45.96996" lon="6.32621">
        <ele>1558</ele>
        <time>2016-10-02T07:21:04+02:00</time>
      </trkpt>
      <trkpt lat="45.96993" lon="6.32621">
        <ele>1557</ele>
        <time>2016-10-02T07:21:06+02:00</time>
      </trkpt>
      <trkpt lat="45.96991" lon="6.3262">
        <ele>1557</ele>
        <time>2016-10-02T07:21:08+02:00</time>
      </trkpt>
      <trkpt lat="45.96988" lon="6.3262">
        <ele>1557</ele>
        <time>2016-10-02T07:21:10+02:00</time>
      </trkpt>
      <trkpt lat="45.96986" lon="6.3262">
        <ele>1557</ele>
        <time>2016-10-02T07:21:12+02:00</time>
      </trkpt>
      <trkpt lat="45.96984" lon="6.3262">
        <ele>1556</ele>
        <time>2016-10-02T07:21:14+02:00</time>
      </trkpt>
      <trkpt lat="45.96982" lon="6.3262">
        <ele>1556</ele>
        <time>2016-10-02T07:21:15+02:00</time>
      </trkpt>
      <trkpt lat="45.9698" lon="6.3262">
        <ele>1556</ele>
        <time>2016-10-02T07:21:17+02:00</time>
      </trkpt>
      <trkpt lat="45.96978" lon="6.3262">
        <ele>1556</ele>
        <time>2016-10-02T07:21:19+02:00</time>
      </trkpt>
      <trkpt lat="45.96976" lon="6.32619">
        <ele>1556</ele>
        <time>2016-10-02T07:21:20+02:00</time>
      </trkpt>
      <trkpt lat="45.96974" lon="6.32619">
        <ele>1555</ele>
        <time>2016-10-02T07:21:22+02:00</time>
      </trkpt>
      <trkpt lat="45.96972" lon="6.32619">
        <ele>1555</ele>
        <time>2016-10-02T07:21:23+02:00</time>
      </trkpt>
      <trkpt lat="45.96971" lon="6.3262">
        <ele>1555</ele>
        <time>2016-10-02T07:21:25+02:00</time>
      </trkpt>
      <trkpt lat="45.96969" lon="6.32621">
        <ele>1555</ele>
        <time>2016-10-02T07:21:26+02:00</time>
      </trkpt>
      <trkpt lat="45.96968" lon="6.32622">
        <ele>1555</ele>
        <time>2016-10-02T07:21:28+02:00</time>
      </trkpt>
      <trkpt lat="45.96966" lon="6.32623">
        <ele>1554</ele>
        <time>2016-10-02T07:21:29+02:00</time>
      </trkpt>
      <trkpt lat="45.96965" lon="6.32625">
        <ele>1554</ele>
        <time>2016-10-02T07:21:30+02:00</time>
      </trkpt>
      <trkpt lat="45.96964" lon="6.32626">
        <ele>1554</ele>
        <time>2016-10-02T07:21:32+02:00</time>
      </trkpt>
      <trkpt lat="45.96962" lon="6.32628">
        <ele>1554</ele>
        <time>2016-10-02T07:21:33+02:00</time>
      </trkpt>
      <trkpt lat="45.96961" lon="6.32629">
        <ele>1554</ele>
        <time>2016-10-02T07:21:35+02:00</time>
      </trkpt>
      <trkpt lat="45.9696" lon="6.3263">
        <ele>1554</ele>
        <time>2016-10-02T07:21:36+02:00</time>
      </trkpt>
      <trkpt lat="45.96958" lon="6.32631">
        <ele>1553</ele>
        <time>2016-10-02T07:21:37+02:00</time>
      </trkpt>
      <trkpt lat="45.96957" lon="6.32632">
        <ele>1553</ele>
        <time>2016-10-02T07:21:38+02:00</time>
      </trkpt>
      <trkpt lat="45.96955" lon="6.32633">
        <ele>1553</ele>
        <time>2016-10-02T07:21:40+02:00</time>
      </trkpt>
      <trkpt lat="45.96953" lon="6.32634">
        <ele>1553</ele>
        <time>2016-10-02T07:21:42+02:00</time>
      </trkpt>
      <trkpt lat="45.96951" lon="6.32636">
        <ele>1553</ele>
        <time>2016-10-02T07:21:44+02:00</time>
      </trkpt>
      <trkpt lat="45.96949" lon="6.32637">
        <ele>1552</ele>
        <time>2016-10-02T07:21:46+02:00</time>
      </trkpt>
      <trkpt lat="45.96947" lon="6.32639">
        <ele>1552</ele>
        <time>2016-10-02T07:21:47+02:00</time>
      </trkpt>
      <trkpt lat="45.96945" lon="6.32641">
        <ele>1552</ele>
        <time>2016-10-02T07:21:50+02:00</time>
      </trkpt>
      <trkpt lat="45.96942" lon="6.32644">
        <ele>1552</ele>
        <time>2016-10-02T07:21:52+02:00</time>
      </trkpt>
      <trkpt lat="45.9694" lon="6.32646">
        <ele>1551</ele>
        <time>2016-10-02T07:21:54+02:00</time>
      </trkpt>
      <trkpt lat="45.96938" lon="6.32647">
        <ele>1551</ele>
        <time>2016-10-02T07:21:56+02:00</time>
      </trkpt>
      <trkpt lat="45.96937" lon="6.32649">
        <ele>1551</ele>
        <time>2016-10-02T07:21:57+02:00</time>
      </trkpt>
      <trkpt lat="45.96935" lon="6.3265">
        <ele>1551</ele>
        <time>2016-10-02T07:21:59+02:00</time>
      </trkpt>
      <trkpt lat="45.96934" lon="6.32652">
        <ele>1551</ele>
        <time>2016-10-02T07:22:01+02:00</time>
      </trkpt>
      <trkpt lat="45.96933" lon="6.32654">
        <ele>1551</ele>
        <time>2016-10-02T07:22:02+02:00</time>
      </trkpt>
      <trkpt lat="45.96932" lon="6.32656">
        <ele>1550</ele>
        <time>2016-10-02T07:22:03+02:00</time>
      </trkpt>
      <trkpt lat="45.9693" lon="6.32659">
        <ele>1550</ele>
        <time>2016-10-02T07:22:05+02:00</time>
      </trkpt>
      <trkpt lat="45.96929" lon="6.32661">
        <ele>1550</ele>
        <time>2016-10-02T07:22:07+02:00</time>
      </trkpt>
      <trkpt lat="45.96928" lon="6.32662">
        <ele>1550</ele>
        <time>2016-10-02T07:22:08+02:00</time>
      </trkpt>
      <trkpt lat="45.96926" lon="6.32663">
        <ele>1550</ele>
        <time>2016-10-02T07:22:10+02:00</time>
      </trkpt>
      <trkpt lat="45.96924" lon="6.32664">
        <ele>1550</ele>
        <time>2016-10-02T07:22:12+02:00</time>
      </trkpt>
      <trkpt lat="45.96922" lon="6.32665">
        <ele>1550</ele>
        <time>2016-10-02T07:22:13+02:00</time>
      </trkpt>
      <trkpt lat="45.96921" lon="6.32666">
        <ele>1549</ele>
        <time>2016-10-02T07:22:14+02:00</time>
      </trkpt>
      <trkpt lat="45.96919" lon="6.32668">
        <ele>1549</ele>
        <time>2016-10-02T07:22:16+02:00</time>
      </trkpt>
      <trkpt lat="45.96918" lon="6.3267">
        <ele>1549</ele>
        <time>2016-10-02T07:22:18+02:00</time>
      </trkpt>
      <trkpt lat="45.96916" lon="6.32673">
        <ele>1549</ele>
        <time>2016-10-02T07:22:20+02:00</time>
      </trkpt>
      <trkpt lat="45.96914" lon="6.32675">
        <ele>1549</ele>
        <time>2016-10-02T07:22:22+02:00</time>
      </trkpt>
      <trkpt lat="45.96912" lon="6.32676">
        <ele>1549</ele>
        <time>2016-10-02T07:22:23+02:00</time>
      </trkpt>
      <trkpt lat="45.96911" lon="6.32678">
        <ele>1549</ele>
        <time>2016-10-02T07:22:25+02:00</time>
      </trkpt>
      <trkpt lat="45.9691" lon="6.3268">
        <ele>1549</ele>
        <time>2016-10-02T07:22:26+02:00</time>
      </trkpt>
      <trkpt lat="45.96909" lon="6.32682">
        <ele>1549</ele>
        <time>2016-10-02T07:22:27+02:00</time>
      </trkpt>
      <trkpt lat="45.96907" lon="6.32683">
        <ele>1549</ele>
        <time>2016-10-02T07:22:29+02:00</time>
      </trkpt>
      <trkpt lat="45.96906" lon="6.32684">
        <ele>1549</ele>
        <time>2016-10-02T07:22:30+02:00</time>
      </trkpt>
      <trkpt lat="45.96904" lon="6.32684">
        <ele>1548</ele>
        <time>2016-10-02T07:22:32+02:00</time>
      </trkpt>
      <trkpt lat="45.96903" lon="6.32685">
        <ele>1548</ele>
        <time>2016-10-02T07:22:33+02:00</time>
      </trkpt>
      <trkpt lat="45.96901" lon="6.32686">
        <ele>1548</ele>
        <time>2016-10-02T07:22:34+02:00</time>
      </trkpt>
      <trkpt lat="45.969" lon="6.32687">
        <ele>1548</ele>
        <time>2016-10-02T07:22:36+02:00</time>
      </trkpt>
      <trkpt lat="45.96898" lon="6.32688">
        <ele>1548</ele>
        <time>2016-10-02T07:22:37+02:00</time>
      </trkpt>
      <trkpt lat="45.96896" lon="6.32689">
        <ele>1548</ele>
        <time>2016-10-02T07:22:39+02:00</time>
      </trkpt>
      <trkpt lat="45.96894" lon="6.32691">
        <ele>1548</ele>
        <time>2016-10-02T07:22:41+02:00</time>
      </trkpt>
      <trkpt lat="45.96893" lon="6.32693">
        <ele>1548</ele>
        <time>2016-10-02T07:22:42+02:00</time>
      </trkpt>
      <trkpt lat="45.96891" lon="6.32694">
        <ele>1548</ele>
        <time>2016-10-02T07:22:44+02:00</time>
      </trkpt>
      <trkpt lat="45.96889" lon="6.32695">
        <ele>1547</ele>
        <time>2016-10-02T07:22:46+02:00</time>
      </trkpt>
      <trkpt lat="45.96887" lon="6.32695">
        <ele>1547</ele>
        <time>2016-10-02T07:22:47+02:00</time>
      </trkpt>
      <trkpt lat="45.96885" lon="6.32696">
        <ele>1547</ele>
        <time>2016-10-02T07:22:49+02:00</time>
      </trkpt>
      <trkpt lat="45.96883" lon="6.32697">
        <ele>1547</ele>
        <time>2016-10-02T07:22:51+02:00</time>
      </trkpt>
      <trkpt lat="45.96881" lon="6.32699">
        <ele>1547</ele>
        <time>2016-10-02T07:22:53+02:00</time>
      </trkpt>
      <trkpt lat="45.96879" lon="6.327">
        <ele>1547</ele>
        <time>2016-10-02T07:22:54+02:00</time>
      </trkpt>
      <trkpt lat="45.96877" lon="6.32701">
        <ele>1547</ele>
        <time>2016-10-02T07:22:56+02:00</time>
      </trkpt>
      <trkpt lat="45.96874" lon="6.32702">
        <ele>1547</ele>
        <time>2016-10-02T07:22:58+02:00</time>
      </trkpt>
      <trkpt lat="45.96872" lon="6.32703">
        <ele>1546</ele>
        <time>2016-10-02T07:23:00+02:00</time>
      </trkpt>
      <trkpt lat="45.96871" lon="6.32703">
        <ele>1546</ele>
        <time>2016-10-02T07:23:01+02:00</time>
      </trkpt>
      <trkpt lat="45.96869" lon="6.32704">
        <ele>1546</ele>
        <time>2016-10-02T07:23:03+02:00</time>
      </trkpt>
      <trkpt lat="45.96867" lon="6.32704">
        <ele>1546</ele>
        <time>2016-10-02T07:23:05+02:00</time>
      </trkpt>
      <trkpt lat="45.96865" lon="6.32705">
        <ele>1546</ele>
        <time>2016-10-02T07:23:06+02:00</time>
      </trkpt>
      <trkpt lat="45.96864" lon="6.32706">
        <ele>1546</ele>
        <time>2016-10-02T07:23:07+02:00</time>
      </trkpt>
      <trkpt lat="45.96862" lon="6.32708">
        <ele>1546</ele>
        <time>2016-10-02T07:23:09+02:00</time>
      </trkpt>
      <trkpt lat="45.9686" lon="6.32709">
        <ele>1546</ele>
        <time>2016-10-02T07:23:10+02:00</time>
      </trkpt>
      <trkpt lat="45.96858" lon="6.3271">
        <ele>1545</ele>
        <time>2016-10-02T07:23:12+02:00</time>
      </trkpt>
      <trkpt lat="45.96856" lon="6.32711">
        <ele>1545</ele>
        <time>2016-10-02T07:23:14+02:00</time>
      </trkpt>
      <trkpt lat="45.96855" lon="6.32712">
        <ele>1545</ele>
        <time>2016-10-02T07:23:15+02:00</time>
      </trkpt>
      <trkpt lat="45.96853" lon="6.32713">
        <ele>1545</ele>
        <time>2016-10-02T07:23:17+02:00</time>
      </trkpt>
      <trkpt lat="45.96852" lon="6.32714">
        <ele>1545</ele>
        <time>2016-10-02T07:23:18+02:00</time>
      </trkpt>
      <trkpt lat="45.9685" lon="6.32716">
        <ele>1545</ele>
        <time>2016-10-02T07:23:20+02:00</time>
      </trkpt>
      <trkpt lat="45.96849" lon="6.32717">
        <ele>1545</ele>
        <time>2016-10-02T07:23:21+02:00</time>
      </trkpt>
      <trkpt lat="45.96847" lon="6.32719">
        <ele>1545</ele>
        <time>2016-10-02T07:23:23+02:00</time>
      </trkpt>
      <trkpt lat="45.96845" lon="6.32721">
        <ele>1545</ele>
        <time>2016-10-02T07:23:24+02:00</time>
      </trkpt>
      <trkpt lat="45.96844" lon="6.32725">
        <ele>1545</ele>
        <time>2016-10-02T07:23:27+02:00</time>
      </trkpt>
      <trkpt lat="45.96843" lon="6.32729">
        <ele>1545</ele>
        <time>2016-10-02T07:23:29+02:00</time>
      </trkpt>
      <trkpt lat="45.96842" lon="6.32732">
        <ele>1545</ele>
        <time>2016-10-02T07:23:31+02:00</time>
      </trkpt>
      <trkpt lat="45.9684" lon="6.32736">
        <ele>1545</ele>
        <time>2016-10-02T07:23:33+02:00</time>
      </trkpt>
      <trkpt lat="45.96839" lon="6.32739">
        <ele>1545</ele>
        <time>2016-10-02T07:23:35+02:00</time>
      </trkpt>
      <trkpt lat="45.96837" lon="6.32741">
        <ele>1545</ele>
        <time>2016-10-02T07:23:37+02:00</time>
      </trkpt>
      <trkpt lat="45.96836" lon="6.32743">
        <ele>1545</ele>
        <time>2016-10-02T07:23:39+02:00</time>
      </trkpt>
      <trkpt lat="45.96835" lon="6.32745">
        <ele>1545</ele>
        <time>2016-10-02T07:23:41+02:00</time>
      </trkpt>
      <trkpt lat="45.96834" lon="6.32747">
        <ele>1545</ele>
        <time>2016-10-02T07:23:42+02:00</time>
      </trkpt>
      <trkpt lat="45.96833" lon="6.32749">
        <ele>1545</ele>
        <time>2016-10-02T07:23:43+02:00</time>
      </trkpt>
      <trkpt lat="45.96832" lon="6.32751">
        <ele>1545</ele>
        <time>2016-10-02T07:23:44+02:00</time>
      </trkpt>
      <trkpt lat="45.96831" lon="6.32753">
        <ele>1545</ele>
        <time>2016-10-02T07:23:46+02:00</time>
      </trkpt>
      <trkpt lat="45.9683" lon="6.32754">
        <ele>1545</ele>
        <time>2016-10-02T07:23:47+02:00</time>
      </trkpt>
      <trkpt lat="45.96829" lon="6.32755">
        <ele>1545</ele>
        <time>2016-10-02T07:23:48+02:00</time>
      </trkpt>
      <trkpt lat="45.96827" lon="6.32757">
        <ele>1544</ele>
        <time>2016-10-02T07:23:50+02:00</time>
      </trkpt>
      <trkpt lat="45.96827" lon="6.32761">
        <ele>1544</ele>
        <time>2016-10-02T07:23:52+02:00</time>
      </trkpt>
      <trkpt lat="45.96826" lon="6.32765">
        <ele>1544</ele>
        <time>2016-10-02T07:23:54+02:00</time>
      </trkpt>
      <trkpt lat="45.96826" lon="6.32767">
        <ele>1544</ele>
        <time>2016-10-02T07:23:56+02:00</time>
      </trkpt>
      <trkpt lat="45.96826" lon="6.32769">
        <ele>1544</ele>
        <time>2016-10-02T07:23:57+02:00</time>
      </trkpt>
      <trkpt lat="45.96826" lon="6.32771">
        <ele>1544</ele>
        <time>2016-10-02T07:23:58+02:00</time>
      </trkpt>
      <trkpt lat="45.96825" lon="6.32774">
        <ele>1544</ele>
        <time>2016-10-02T07:24:00+02:00</time>
      </trkpt>
      <trkpt lat="45.96825" lon="6.32777">
        <ele>1544</ele>
        <time>2016-10-02T07:24:01+02:00</time>
      </trkpt>
      <trkpt lat="45.96825" lon="6.3278">
        <ele>1543</ele>
        <time>2016-10-02T07:24:03+02:00</time>
      </trkpt>
      <trkpt lat="45.96824" lon="6.32783">
        <ele>1543</ele>
        <time>2016-10-02T07:24:05+02:00</time>
      </trkpt>
      <trkpt lat="45.96824" lon="6.32786">
        <ele>1543</ele>
        <time>2016-10-02T07:24:07+02:00</time>
      </trkpt>
      <trkpt lat="45.96823" lon="6.32789">
        <ele>1543</ele>
        <time>2016-10-02T07:24:09+02:00</time>
      </trkpt>
      <trkpt lat="45.96823" lon="6.32792">
        <ele>1543</ele>
        <time>2016-10-02T07:24:10+02:00</time>
      </trkpt>
      <trkpt lat="45.96824" lon="6.32794">
        <ele>1543</ele>
        <time>2016-10-02T07:24:11+02:00</time>
      </trkpt>
      <trkpt lat="45.96825" lon="6.32796">
        <ele>1543</ele>
        <time>2016-10-02T07:24:13+02:00</time>
      </trkpt>
      <trkpt lat="45.96825" lon="6.32799">
        <ele>1543</ele>
        <time>2016-10-02T07:24:14+02:00</time>
      </trkpt>
      <trkpt lat="45.96826" lon="6.32801">
        <ele>1543</ele>
        <time>2016-10-02T07:24:16+02:00</time>
      </trkpt>
      <trkpt lat="45.96826" lon="6.32803">
        <ele>1543</ele>
        <time>2016-10-02T07:24:17+02:00</time>
      </trkpt>
      <trkpt lat="45.96827" lon="6.32805">
        <ele>1543</ele>
        <time>2016-10-02T07:24:18+02:00</time>
      </trkpt>
      <trkpt lat="45.96827" lon="6.32807">
        <ele>1543</ele>
        <time>2016-10-02T07:24:19+02:00</time>
      </trkpt>
      <trkpt lat="45.96827" lon="6.32809">
        <ele>1543</ele>
        <time>2016-10-02T07:24:20+02:00</time>
      </trkpt>
      <trkpt lat="45.96828" lon="6.32812">
        <ele>1543</ele>
        <time>2016-10-02T07:24:22+02:00</time>
      </trkpt>
      <trkpt lat="45.96829" lon="6.32814">
        <ele>1543</ele>
        <time>2016-10-02T07:24:24+02:00</time>
      </trkpt>
      <trkpt lat="45.9683" lon="6.32815">
        <ele>1543</ele>
        <time>2016-10-02T07:24:25+02:00</time>
      </trkpt>
      <trkpt lat="45.96831" lon="6.32818">
        <ele>1543</ele>
        <time>2016-10-02T07:24:26+02:00</time>
      </trkpt>
      <trkpt lat="45.9683" lon="6.3282">
        <ele>1543</ele>
        <time>2016-10-02T07:24:28+02:00</time>
      </trkpt>
      <trkpt lat="45.96829" lon="6.32822">
        <ele>1543</ele>
        <time>2016-10-02T07:24:29+02:00</time>
      </trkpt>
      <trkpt lat="45.96829" lon="6.32825">
        <ele>1542</ele>
        <time>2016-10-02T07:24:30+02:00</time>
      </trkpt>
      <trkpt lat="45.96828" lon="6.32828">
        <ele>1542</ele>
        <time>2016-10-02T07:24:32+02:00</time>
      </trkpt>
      <trkpt lat="45.96826" lon="6.32831">
        <ele>1542</ele>
        <time>2016-10-02T07:24:34+02:00</time>
      </trkpt>
      <trkpt lat="45.96826" lon="6.32832">
        <ele>1542</ele>
        <time>2016-10-02T07:24:35+02:00</time>
      </trkpt>
      <trkpt lat="45.96825" lon="6.32834">
        <ele>1542</ele>
        <time>2016-10-02T07:24:36+02:00</time>
      </trkpt>
      <trkpt lat="45.96824" lon="6.32836">
        <ele>1541</ele>
        <time>2016-10-02T07:24:38+02:00</time>
      </trkpt>
      <trkpt lat="45.96824" lon="6.32839">
        <ele>1541</ele>
        <time>2016-10-02T07:24:39+02:00</time>
      </trkpt>
      <trkpt lat="45.96823" lon="6.32843">
        <ele>1540</ele>
        <time>2016-10-02T07:24:42+02:00</time>
      </trkpt>
      <trkpt lat="45.96822" lon="6.32846">
        <ele>1540</ele>
        <time>2016-10-02T07:24:44+02:00</time>
      </trkpt>
      <trkpt lat="45.96821" lon="6.32849">
        <ele>1540</ele>
        <time>2016-10-02T07:24:46+02:00</time>
      </trkpt>
      <trkpt lat="45.96821" lon="6.32851">
        <ele>1539</ele>
        <time>2016-10-02T07:24:47+02:00</time>
      </trkpt>
      <trkpt lat="45.96821" lon="6.32854">
        <ele>1539</ele>
        <time>2016-10-02T07:24:49+02:00</time>
      </trkpt>
      <trkpt lat="45.96821" lon="6.32857">
        <ele>1539</ele>
        <time>2016-10-02T07:24:50+02:00</time>
      </trkpt>
      <trkpt lat="45.96822" lon="6.3286">
        <ele>1539</ele>
        <time>2016-10-02T07:24:52+02:00</time>
      </trkpt>
      <trkpt lat="45.96822" lon="6.32862">
        <ele>1539</ele>
        <time>2016-10-02T07:24:54+02:00</time>
      </trkpt>
      <trkpt lat="45.96822" lon="6.32864">
        <ele>1538</ele>
        <time>2016-10-02T07:24:55+02:00</time>
      </trkpt>
      <trkpt lat="45.96822" lon="6.32867">
        <ele>1538</ele>
        <time>2016-10-02T07:24:56+02:00</time>
      </trkpt>
      <trkpt lat="45.96823" lon="6.32869">
        <ele>1538</ele>
        <time>2016-10-02T07:24:57+02:00</time>
      </trkpt>
      <trkpt lat="45.96823" lon="6.32871">
        <ele>1538</ele>
        <time>2016-10-02T07:24:59+02:00</time>
      </trkpt>
      <trkpt lat="45.96823" lon="6.32873">
        <ele>1538</ele>
        <time>2016-10-02T07:25:00+02:00</time>
      </trkpt>
      <trkpt lat="45.96823" lon="6.32875">
        <ele>1538</ele>
        <time>2016-10-02T07:25:01+02:00</time>
      </trkpt>
      <trkpt lat="45.96823" lon="6.32878">
        <ele>1537</ele>
        <time>2016-10-02T07:25:03+02:00</time>
      </trkpt>
      <trkpt lat="45.96824" lon="6.3288">
        <ele>1537</ele>
        <time>2016-10-02T07:25:04+02:00</time>
      </trkpt>
      <trkpt lat="45.96822" lon="6.3288">
        <ele>1537</ele>
        <time>2016-10-02T07:25:05+02:00</time>
      </trkpt>
      <trkpt lat="45.96821" lon="6.32881">
        <ele>1537</ele>
        <time>2016-10-02T07:25:06+02:00</time>
      </trkpt>
      <trkpt lat="45.9682" lon="6.32883">
        <ele>1536</ele>
        <time>2016-10-02T07:25:08+02:00</time>
      </trkpt>
      <trkpt lat="45.96819" lon="6.32885">
        <ele>1536</ele>
        <time>2016-10-02T07:25:09+02:00</time>
      </trkpt>
      <trkpt lat="45.96818" lon="6.32888">
        <ele>1535</ele>
        <time>2016-10-02T07:25:11+02:00</time>
      </trkpt>
      <trkpt lat="45.96818" lon="6.3289">
        <ele>1535</ele>
        <time>2016-10-02T07:25:12+02:00</time>
      </trkpt>
      <trkpt lat="45.96817" lon="6.32891">
        <ele>1535</ele>
        <time>2016-10-02T07:25:13+02:00</time>
      </trkpt>
      <trkpt lat="45.96817" lon="6.32893">
        <ele>1534</ele>
        <time>2016-10-02T07:25:15+02:00</time>
      </trkpt>
      <trkpt lat="45.96816" lon="6.32894">
        <ele>1534</ele>
        <time>2016-10-02T07:25:16+02:00</time>
      </trkpt>
      <trkpt lat="45.96815" lon="6.32897">
        <ele>1534</ele>
        <time>2016-10-02T07:25:17+02:00</time>
      </trkpt>
      <trkpt lat="45.96814" lon="6.32899">
        <ele>1533</ele>
        <time>2016-10-02T07:25:19+02:00</time>
      </trkpt>
      <trkpt lat="45.96813" lon="6.32901">
        <ele>1533</ele>
        <time>2016-10-02T07:25:20+02:00</time>
      </trkpt>
      <trkpt lat="45.96814" lon="6.32903">
        <ele>1533</ele>
        <time>2016-10-02T07:25:21+02:00</time>
      </trkpt>
      <trkpt lat="45.96814" lon="6.32902">
        <ele>1533</ele>
        <time>2016-10-02T07:25:22+02:00</time>
      </trkpt>
      <trkpt lat="45.96812" lon="6.32903">
        <ele>1532</ele>
        <time>2016-10-02T07:25:23+02:00</time>
      </trkpt>
      <trkpt lat="45.96811" lon="6.32905">
        <ele>1532</ele>
        <time>2016-10-02T07:25:25+02:00</time>
      </trkpt>
      <trkpt lat="45.9681" lon="6.32907">
        <ele>1531</ele>
        <time>2016-10-02T07:25:27+02:00</time>
      </trkpt>
      <trkpt lat="45.96808" lon="6.32908">
        <ele>1530</ele>
        <time>2016-10-02T07:25:28+02:00</time>
      </trkpt>
      <trkpt lat="45.96805" lon="6.3291">
        <ele>1530</ele>
        <time>2016-10-02T07:25:30+02:00</time>
      </trkpt>
      <trkpt lat="45.96804" lon="6.32911">
        <ele>1529</ele>
        <time>2016-10-02T07:25:32+02:00</time>
      </trkpt>
      <trkpt lat="45.96803" lon="6.32911">
        <ele>1529</ele>
        <time>2016-10-02T07:25:33+02:00</time>
      </trkpt>
      <trkpt lat="45.96801" lon="6.32911">
        <ele>1528</ele>
        <time>2016-10-02T07:25:34+02:00</time>
      </trkpt>
      <trkpt lat="45.96799" lon="6.32912">
        <ele>1528</ele>
        <time>2016-10-02T07:25:36+02:00</time>
      </trkpt>
      <trkpt lat="45.96797" lon="6.32913">
        <ele>1527</ele>
        <time>2016-10-02T07:25:38+02:00</time>
      </trkpt>
      <trkpt lat="45.96795" lon="6.32913">
        <ele>1526</ele>
        <time>2016-10-02T07:25:40+02:00</time>
      </trkpt>
      <trkpt lat="45.96794" lon="6.32913">
        <ele>1526</ele>
        <time>2016-10-02T07:25:41+02:00</time>
      </trkpt>
      <trkpt lat="45.96792" lon="6.32912">
        <ele>1526</ele>
        <time>2016-10-02T07:25:43+02:00</time>
      </trkpt>
      <trkpt lat="45.96791" lon="6.3291">
        <ele>1526</ele>
        <time>2016-10-02T07:25:43+02:00</time>
      </trkpt>
      <trkpt lat="45.96789" lon="6.3291">
        <ele>1525</ele>
        <time>2016-10-02T07:25:45+02:00</time>
      </trkpt>
      <trkpt lat="45.96788" lon="6.32909">
        <ele>1525</ele>
        <time>2016-10-02T07:25:46+02:00</time>
      </trkpt>
      <trkpt lat="45.96786" lon="6.32909">
        <ele>1524</ele>
        <time>2016-10-02T07:25:47+02:00</time>
      </trkpt>
      <trkpt lat="45.96784" lon="6.32909">
        <ele>1524</ele>
        <time>2016-10-02T07:25:49+02:00</time>
      </trkpt>
      <trkpt lat="45.96783" lon="6.32909">
        <ele>1524</ele>
        <time>2016-10-02T07:25:50+02:00</time>
      </trkpt>
      <trkpt lat="45.96782" lon="6.3291">
        <ele>1523</ele>
        <time>2016-10-02T07:25:52+02:00</time>
      </trkpt>
      <trkpt lat="45.96781" lon="6.32912">
        <ele>1523</ele>
        <time>2016-10-02T07:25:53+02:00</time>
      </trkpt>
      <trkpt lat="45.96782" lon="6.32914">
        <ele>1523</ele>
        <time>2016-10-02T07:25:54+02:00</time>
      </trkpt>
      <trkpt lat="45.96782" lon="6.32916">
        <ele>1522</ele>
        <time>2016-10-02T07:25:56+02:00</time>
      </trkpt>
      <trkpt lat="45.96783" lon="6.32917">
        <ele>1522</ele>
        <time>2016-10-02T07:25:57+02:00</time>
      </trkpt>
      <trkpt lat="45.96784" lon="6.32919">
        <ele>1522</ele>
        <time>2016-10-02T07:25:58+02:00</time>
      </trkpt>
      <trkpt lat="45.96782" lon="6.3292">
        <ele>1522</ele>
        <time>2016-10-02T07:25:59+02:00</time>
      </trkpt>
      <trkpt lat="45.96782" lon="6.32922">
        <ele>1521</ele>
        <time>2016-10-02T07:26:01+02:00</time>
      </trkpt>
      <trkpt lat="45.96781" lon="6.32923">
        <ele>1520</ele>
        <time>2016-10-02T07:26:02+02:00</time>
      </trkpt>
      <trkpt lat="45.9678" lon="6.32925">
        <ele>1520</ele>
        <time>2016-10-02T07:26:03+02:00</time>
      </trkpt>
      <trkpt lat="45.9678" lon="6.32928">
        <ele>1519</ele>
        <time>2016-10-02T07:26:05+02:00</time>
      </trkpt>
      <trkpt lat="45.9678" lon="6.32931">
        <ele>1519</ele>
        <time>2016-10-02T07:26:07+02:00</time>
      </trkpt>
      <trkpt lat="45.96781" lon="6.32933">
        <ele>1519</ele>
        <time>2016-10-02T07:26:08+02:00</time>
      </trkpt>
      <trkpt lat="45.96781" lon="6.32935">
        <ele>1518</ele>
        <time>2016-10-02T07:26:10+02:00</time>
      </trkpt>
      <trkpt lat="45.96779" lon="6.32934">
        <ele>1518</ele>
        <time>2016-10-02T07:26:11+02:00</time>
      </trkpt>
      <trkpt lat="45.96779" lon="6.32933">
        <ele>1518</ele>
        <time>2016-10-02T07:26:12+02:00</time>
      </trkpt>
      <trkpt lat="45.96777" lon="6.32932">
        <ele>1518</ele>
        <time>2016-10-02T07:26:13+02:00</time>
      </trkpt>
      <trkpt lat="45.96776" lon="6.32933">
        <ele>1517</ele>
        <time>2016-10-02T07:26:14+02:00</time>
      </trkpt>
      <trkpt lat="45.96775" lon="6.32935">
        <ele>1516</ele>
        <time>2016-10-02T07:26:16+02:00</time>
      </trkpt>
      <trkpt lat="45.96775" lon="6.32938">
        <ele>1516</ele>
        <time>2016-10-02T07:26:18+02:00</time>
      </trkpt>
      <trkpt lat="45.96775" lon="6.32941">
        <ele>1515</ele>
        <time>2016-10-02T07:26:19+02:00</time>
      </trkpt>
      <trkpt lat="45.96774" lon="6.32944">
        <ele>1514</ele>
        <time>2016-10-02T07:26:21+02:00</time>
      </trkpt>
      <trkpt lat="45.96774" lon="6.32947">
        <ele>1514</ele>
        <time>2016-10-02T07:26:23+02:00</time>
      </trkpt>
      <trkpt lat="45.96774" lon="6.32948">
        <ele>1513</ele>
        <time>2016-10-02T07:26:24+02:00</time>
      </trkpt>
      <trkpt lat="45.96774" lon="6.3295">
        <ele>1513</ele>
        <time>2016-10-02T07:26:25+02:00</time>
      </trkpt>
      <trkpt lat="45.96775" lon="6.32954">
        <ele>1513</ele>
        <time>2016-10-02T07:26:27+02:00</time>
      </trkpt>
      <trkpt lat="45.96775" lon="6.32957">
        <ele>1512</ele>
        <time>2016-10-02T07:26:30+02:00</time>
      </trkpt>
      <trkpt lat="45.96775" lon="6.32961">
        <ele>1511</ele>
        <time>2016-10-02T07:26:32+02:00</time>
      </trkpt>
      <trkpt lat="45.96775" lon="6.32965">
        <ele>1510</ele>
        <time>2016-10-02T07:26:34+02:00</time>
      </trkpt>
      <trkpt lat="45.96775" lon="6.32969">
        <ele>1509</ele>
        <time>2016-10-02T07:26:37+02:00</time>
      </trkpt>
      <trkpt lat="45.96774" lon="6.32973">
        <ele>1508</ele>
        <time>2016-10-02T07:26:39+02:00</time>
      </trkpt>
      <trkpt lat="45.96773" lon="6.32977">
        <ele>1507</ele>
        <time>2016-10-02T07:26:41+02:00</time>
      </trkpt>
      <trkpt lat="45.96773" lon="6.3298">
        <ele>1506</ele>
        <time>2016-10-02T07:26:43+02:00</time>
      </trkpt>
      <trkpt lat="45.96772" lon="6.32984">
        <ele>1505</ele>
        <time>2016-10-02T07:26:46+02:00</time>
      </trkpt>
      <trkpt lat="45.96771" lon="6.32988">
        <ele>1504</ele>
        <time>2016-10-02T07:26:48+02:00</time>
      </trkpt>
      <trkpt lat="45.9677" lon="6.32992">
        <ele>1503</ele>
        <time>2016-10-02T07:26:51+02:00</time>
      </trkpt>
      <trkpt lat="45.96769" lon="6.32996">
        <ele>1502</ele>
        <time>2016-10-02T07:26:54+02:00</time>
      </trkpt>
      <trkpt lat="45.96768" lon="6.33">
        <ele>1501</ele>
        <time>2016-10-02T07:26:56+02:00</time>
      </trkpt>
      <trkpt lat="45.96767" lon="6.33004">
        <ele>1499</ele>
        <time>2016-10-02T07:26:59+02:00</time>
      </trkpt>
      <trkpt lat="45.96765" lon="6.33008">
        <ele>1498</ele>
        <time>2016-10-02T07:27:02+02:00</time>
      </trkpt>
      <trkpt lat="45.96764" lon="6.33013">
        <ele>1497</ele>
        <time>2016-10-02T07:27:04+02:00</time>
      </trkpt>
      <trkpt lat="45.96762" lon="6.33017">
        <ele>1496</ele>
        <time>2016-10-02T07:27:07+02:00</time>
      </trkpt>
      <trkpt lat="45.96761" lon="6.33021">
        <ele>1494</ele>
        <time>2016-10-02T07:27:10+02:00</time>
      </trkpt>
      <trkpt lat="45.96759" lon="6.33024">
        <ele>1493</ele>
        <time>2016-10-02T07:27:13+02:00</time>
      </trkpt>
      <trkpt lat="45.96757" lon="6.33028">
        <ele>1492</ele>
        <time>2016-10-02T07:27:16+02:00</time>
      </trkpt>
      <trkpt lat="45.96754" lon="6.33032">
        <ele>1490</ele>
        <time>2016-10-02T07:27:19+02:00</time>
      </trkpt>
      <trkpt lat="45.96753" lon="6.33035">
        <ele>1489</ele>
        <time>2016-10-02T07:27:21+02:00</time>
      </trkpt>
      <trkpt lat="45.96751" lon="6.33038">
        <ele>1488</ele>
        <time>2016-10-02T07:27:24+02:00</time>
      </trkpt>
      <trkpt lat="45.9675" lon="6.33042">
        <ele>1487</ele>
        <time>2016-10-02T07:27:26+02:00</time>
      </trkpt>
      <trkpt lat="45.96748" lon="6.33046">
        <ele>1486</ele>
        <time>2016-10-02T07:27:29+02:00</time>
      </trkpt>
      <trkpt lat="45.96747" lon="6.3305">
        <ele>1485</ele>
        <time>2016-10-02T07:27:31+02:00</time>
      </trkpt>
      <trkpt lat="45.96747" lon="6.33054">
        <ele>1484</ele>
        <time>2016-10-02T07:27:33+02:00</time>
      </trkpt>
      <trkpt lat="45.96746" lon="6.33057">
        <ele>1483</ele>
        <time>2016-10-02T07:27:36+02:00</time>
      </trkpt>
      <trkpt lat="45.96746" lon="6.33061">
        <ele>1482</ele>
        <time>2016-10-02T07:27:38+02:00</time>
      </trkpt>
      <trkpt lat="45.96746" lon="6.33065">
        <ele>1482</ele>
        <time>2016-10-02T07:27:40+02:00</time>
      </trkpt>
      <trkpt lat="45.96745" lon="6.33068">
        <ele>1481</ele>
        <time>2016-10-02T07:27:42+02:00</time>
      </trkpt>
      <trkpt lat="45.96743" lon="6.33071">
        <ele>1480</ele>
        <time>2016-10-02T07:27:44+02:00</time>
      </trkpt>
      <trkpt lat="45.96741" lon="6.33074">
        <ele>1479</ele>
        <time>2016-10-02T07:27:47+02:00</time>
      </trkpt>
      <trkpt lat="45.96738" lon="6.33077">
        <ele>1478</ele>
        <time>2016-10-02T07:27:49+02:00</time>
      </trkpt>
      <trkpt lat="45.96736" lon="6.3308">
        <ele>1476</ele>
        <time>2016-10-02T07:27:52+02:00</time>
      </trkpt>
      <trkpt lat="45.96733" lon="6.33084">
        <ele>1475</ele>
        <time>2016-10-02T07:27:56+02:00</time>
      </trkpt>
      <trkpt lat="45.9673" lon="6.33088">
        <ele>1474</ele>
        <time>2016-10-02T07:27:59+02:00</time>
      </trkpt>
      <trkpt lat="45.96728" lon="6.33092">
        <ele>1473</ele>
        <time>2016-10-02T07:28:02+02:00</time>
      </trkpt>
      <trkpt lat="45.96727" lon="6.33096">
        <ele>1472</ele>
        <time>2016-10-02T07:28:04+02:00</time>
      </trkpt>
      <trkpt lat="45.96725" lon="6.331">
        <ele>1471</ele>
        <time>2016-10-02T07:28:07+02:00</time>
      </trkpt>
      <trkpt lat="45.96723" lon="6.33105">
        <ele>1470</ele>
        <time>2016-10-02T07:28:10+02:00</time>
      </trkpt>
      <trkpt lat="45.96722" lon="6.33109">
        <ele>1469</ele>
        <time>2016-10-02T07:28:13+02:00</time>
      </trkpt>
      <trkpt lat="45.9672" lon="6.33115">
        <ele>1467</ele>
        <time>2016-10-02T07:28:16+02:00</time>
      </trkpt>
      <trkpt lat="45.96718" lon="6.3312">
        <ele>1466</ele>
        <time>2016-10-02T07:28:20+02:00</time>
      </trkpt>
      <trkpt lat="45.96715" lon="6.33126">
        <ele>1465</ele>
        <time>2016-10-02T07:28:24+02:00</time>
      </trkpt>
      <trkpt lat="45.96712" lon="6.33132">
        <ele>1463</ele>
        <time>2016-10-02T07:28:28+02:00</time>
      </trkpt>
      <trkpt lat="45.9671" lon="6.33138">
        <ele>1462</ele>
        <time>2016-10-02T07:28:32+02:00</time>
      </trkpt>
      <trkpt lat="45.96708" lon="6.33144">
        <ele>1461</ele>
        <time>2016-10-02T07:28:36+02:00</time>
      </trkpt>
      <trkpt lat="45.96706" lon="6.33151">
        <ele>1459</ele>
        <time>2016-10-02T07:28:40+02:00</time>
      </trkpt>
      <trkpt lat="45.96704" lon="6.33157">
        <ele>1458</ele>
        <time>2016-10-02T07:28:44+02:00</time>
      </trkpt>
      <trkpt lat="45.96702" lon="6.33162">
        <ele>1456</ele>
        <time>2016-10-02T07:28:48+02:00</time>
      </trkpt>
      <trkpt lat="45.967" lon="6.33168">
        <ele>1455</ele>
        <time>2016-10-02T07:28:51+02:00</time>
      </trkpt>
      <trkpt lat="45.96698" lon="6.33173">
        <ele>1454</ele>
        <time>2016-10-02T07:28:54+02:00</time>
      </trkpt>
      <trkpt lat="45.96696" lon="6.33177">
        <ele>1453</ele>
        <time>2016-10-02T07:28:57+02:00</time>
      </trkpt>
      <trkpt lat="45.96695" lon="6.33181">
        <ele>1453</ele>
        <time>2016-10-02T07:29:00+02:00</time>
      </trkpt>
      <trkpt lat="45.96694" lon="6.33183">
        <ele>1452</ele>
        <time>2016-10-02T07:29:01+02:00</time>
      </trkpt>
      <trkpt lat="45.96693" lon="6.33186">
        <ele>1452</ele>
        <time>2016-10-02T07:29:03+02:00</time>
      </trkpt>
      <trkpt lat="45.96693" lon="6.33188">
        <ele>1451</ele>
        <time>2016-10-02T07:29:04+02:00</time>
      </trkpt>
      <trkpt lat="45.96692" lon="6.33191">
        <ele>1451</ele>
        <time>2016-10-02T07:29:06+02:00</time>
      </trkpt>
      <trkpt lat="45.96692" lon="6.33194">
        <ele>1450</ele>
        <time>2016-10-02T07:29:08+02:00</time>
      </trkpt>
      <trkpt lat="45.96691" lon="6.33197">
        <ele>1450</ele>
        <time>2016-10-02T07:29:10+02:00</time>
      </trkpt>
      <trkpt lat="45.96689" lon="6.332">
        <ele>1449</ele>
        <time>2016-10-02T07:29:12+02:00</time>
      </trkpt>
      <trkpt lat="45.96689" lon="6.33202">
        <ele>1449</ele>
        <time>2016-10-02T07:29:13+02:00</time>
      </trkpt>
      <trkpt lat="45.96688" lon="6.33204">
        <ele>1448</ele>
        <time>2016-10-02T07:29:14+02:00</time>
      </trkpt>
      <trkpt lat="45.96686" lon="6.33206">
        <ele>1448</ele>
        <time>2016-10-02T07:29:16+02:00</time>
      </trkpt>
      <trkpt lat="45.96686" lon="6.33208">
        <ele>1447</ele>
        <time>2016-10-02T07:29:18+02:00</time>
      </trkpt>
      <trkpt lat="45.96685" lon="6.33209">
        <ele>1447</ele>
        <time>2016-10-02T07:29:19+02:00</time>
      </trkpt>
      <trkpt lat="45.96683" lon="6.3321">
        <ele>1447</ele>
        <time>2016-10-02T07:29:20+02:00</time>
      </trkpt>
      <trkpt lat="45.96681" lon="6.33211">
        <ele>1446</ele>
        <time>2016-10-02T07:29:22+02:00</time>
      </trkpt>
      <trkpt lat="45.9668" lon="6.33211">
        <ele>1446</ele>
        <time>2016-10-02T07:29:23+02:00</time>
      </trkpt>
      <trkpt lat="45.96678" lon="6.33212">
        <ele>1446</ele>
        <time>2016-10-02T07:29:24+02:00</time>
      </trkpt>
      <trkpt lat="45.96676" lon="6.33213">
        <ele>1445</ele>
        <time>2016-10-02T07:29:26+02:00</time>
      </trkpt>
      <trkpt lat="45.96674" lon="6.33212">
        <ele>1445</ele>
        <time>2016-10-02T07:29:28+02:00</time>
      </trkpt>
      <trkpt lat="45.96672" lon="6.33211">
        <ele>1445</ele>
        <time>2016-10-02T07:29:30+02:00</time>
      </trkpt>
      <trkpt lat="45.96669" lon="6.33209">
        <ele>1444</ele>
        <time>2016-10-02T07:29:32+02:00</time>
      </trkpt>
      <trkpt lat="45.96667" lon="6.33207">
        <ele>1444</ele>
        <time>2016-10-02T07:29:34+02:00</time>
      </trkpt>
      <trkpt lat="45.96665" lon="6.33205">
        <ele>1444</ele>
        <time>2016-10-02T07:29:36+02:00</time>
      </trkpt>
      <trkpt lat="45.96664" lon="6.33204">
        <ele>1444</ele>
        <time>2016-10-02T07:29:37+02:00</time>
      </trkpt>
      <trkpt lat="45.96662" lon="6.33203">
        <ele>1444</ele>
        <time>2016-10-02T07:29:38+02:00</time>
      </trkpt>
      <trkpt lat="45.96661" lon="6.33202">
        <ele>1444</ele>
        <time>2016-10-02T07:29:40+02:00</time>
      </trkpt>
      <trkpt lat="45.96659" lon="6.33201">
        <ele>1444</ele>
        <time>2016-10-02T07:29:42+02:00</time>
      </trkpt>
      <trkpt lat="45.96658" lon="6.33201">
        <ele>1444</ele>
        <time>2016-10-02T07:29:43+02:00</time>
      </trkpt>
      <trkpt lat="45.96657" lon="6.33203">
        <ele>1444</ele>
        <time>2016-10-02T07:29:44+02:00</time>
      </trkpt>
      <trkpt lat="45.96657" lon="6.33205">
        <ele>1443</ele>
        <time>2016-10-02T07:29:45+02:00</time>
      </trkpt>
      <trkpt lat="45.96656" lon="6.33207">
        <ele>1443</ele>
        <time>2016-10-02T07:29:47+02:00</time>
      </trkpt>
      <trkpt lat="45.96656" lon="6.33205">
        <ele>1443</ele>
        <time>2016-10-02T07:29:47+02:00</time>
      </trkpt>
      <trkpt lat="45.96656" lon="6.33203">
        <ele>1444</ele>
        <time>2016-10-02T07:29:49+02:00</time>
      </trkpt>
      <trkpt lat="45.96657" lon="6.33199">
        <ele>1444</ele>
        <time>2016-10-02T07:29:51+02:00</time>
      </trkpt>
      <trkpt lat="45.96658" lon="6.33197">
        <ele>1444</ele>
        <time>2016-10-02T07:29:52+02:00</time>
      </trkpt>
      <trkpt lat="45.96658" lon="6.33196">
        <ele>1445</ele>
        <time>2016-10-02T07:29:54+02:00</time>
      </trkpt>
      <trkpt lat="45.96659" lon="6.33194">
        <ele>1445</ele>
        <time>2016-10-02T07:29:55+02:00</time>
      </trkpt>
      <trkpt lat="45.96659" lon="6.33192">
        <ele>1445</ele>
        <time>2016-10-02T07:29:56+02:00</time>
      </trkpt>
      <trkpt lat="45.9666" lon="6.3319">
        <ele>1445</ele>
        <time>2016-10-02T07:29:57+02:00</time>
      </trkpt>
      <trkpt lat="45.9666" lon="6.33188">
        <ele>1446</ele>
        <time>2016-10-02T07:29:59+02:00</time>
      </trkpt>
      <trkpt lat="45.96659" lon="6.33186">
        <ele>1446</ele>
        <time>2016-10-02T07:30:00+02:00</time>
      </trkpt>
      <trkpt lat="45.96657" lon="6.33184">
        <ele>1446</ele>
        <time>2016-10-02T07:30:01+02:00</time>
      </trkpt>
      <trkpt lat="45.96656" lon="6.33182">
        <ele>1446</ele>
        <time>2016-10-02T07:30:03+02:00</time>
      </trkpt>
      <trkpt lat="45.96655" lon="6.3318">
        <ele>1446</ele>
        <time>2016-10-02T07:30:04+02:00</time>
      </trkpt>
      <trkpt lat="45.96653" lon="6.33178">
        <ele>1446</ele>
        <time>2016-10-02T07:30:06+02:00</time>
      </trkpt>
      <trkpt lat="45.96651" lon="6.33176">
        <ele>1446</ele>
        <time>2016-10-02T07:30:08+02:00</time>
      </trkpt>
      <trkpt lat="45.96649" lon="6.33174">
        <ele>1446</ele>
        <time>2016-10-02T07:30:10+02:00</time>
      </trkpt>
      <trkpt lat="45.96647" lon="6.33172">
        <ele>1446</ele>
        <time>2016-10-02T07:30:12+02:00</time>
      </trkpt>
      <trkpt lat="45.96644" lon="6.3317">
        <ele>1446</ele>
        <time>2016-10-02T07:30:15+02:00</time>
      </trkpt>
      <trkpt lat="45.96642" lon="6.33168">
        <ele>1446</ele>
        <time>2016-10-02T07:30:17+02:00</time>
      </trkpt>
      <trkpt lat="45.9664" lon="6.33168">
        <ele>1445</ele>
        <time>2016-10-02T07:30:18+02:00</time>
      </trkpt>
      <trkpt lat="45.96639" lon="6.33168">
        <ele>1445</ele>
        <time>2016-10-02T07:30:19+02:00</time>
      </trkpt>
      <trkpt lat="45.96637" lon="6.33171">
        <ele>1445</ele>
        <time>2016-10-02T07:30:21+02:00</time>
      </trkpt>
      <trkpt lat="45.96636" lon="6.33173">
        <ele>1444</ele>
        <time>2016-10-02T07:30:23+02:00</time>
      </trkpt>
      <trkpt lat="45.96635" lon="6.33175">
        <ele>1444</ele>
        <time>2016-10-02T07:30:25+02:00</time>
      </trkpt>
      <trkpt lat="45.96635" lon="6.33175">
        <ele>1444</ele>
        <time>2016-10-02T07:30:25+02:00</time>
      </trkpt>
      <trkpt lat="45.96635" lon="6.33175">
        <ele>1444</ele>
        <time>2016-10-02T07:30:26+02:00</time>
      </trkpt>
      <trkpt lat="45.96635" lon="6.33173">
        <ele>1444</ele>
        <time>2016-10-02T07:30:27+02:00</time>
      </trkpt>
      <trkpt lat="45.96634" lon="6.3317">
        <ele>1444</ele>
        <time>2016-10-02T07:30:29+02:00</time>
      </trkpt>
      <trkpt lat="45.96634" lon="6.33167">
        <ele>1445</ele>
        <time>2016-10-02T07:30:31+02:00</time>
      </trkpt>
      <trkpt lat="45.96633" lon="6.33164">
        <ele>1445</ele>
        <time>2016-10-02T07:30:32+02:00</time>
      </trkpt>
      <trkpt lat="45.96633" lon="6.33162">
        <ele>1445</ele>
        <time>2016-10-02T07:30:34+02:00</time>
      </trkpt>
      <trkpt lat="45.96632" lon="6.3316">
        <ele>1445</ele>
        <time>2016-10-02T07:30:35+02:00</time>
      </trkpt>
      <trkpt lat="45.96631" lon="6.33157">
        <ele>1445</ele>
        <time>2016-10-02T07:30:37+02:00</time>
      </trkpt>
      <trkpt lat="45.9663" lon="6.33154">
        <ele>1446</ele>
        <time>2016-10-02T07:30:39+02:00</time>
      </trkpt>
      <trkpt lat="45.96628" lon="6.3315">
        <ele>1446</ele>
        <time>2016-10-02T07:30:41+02:00</time>
      </trkpt>
      <trkpt lat="45.96626" lon="6.33147">
        <ele>1446</ele>
        <time>2016-10-02T07:30:44+02:00</time>
      </trkpt>
      <trkpt lat="45.96623" lon="6.33143">
        <ele>1446</ele>
        <time>2016-10-02T07:30:47+02:00</time>
      </trkpt>
      <trkpt lat="45.96621" lon="6.33139">
        <ele>1446</ele>
        <time>2016-10-02T07:30:50+02:00</time>
      </trkpt>
      <trkpt lat="45.96618" lon="6.33135">
        <ele>1446</ele>
        <time>2016-10-02T07:30:53+02:00</time>
      </trkpt>
      <trkpt lat="45.96616" lon="6.3313">
        <ele>1446</ele>
        <time>2016-10-02T07:30:56+02:00</time>
      </trkpt>
      <trkpt lat="45.96613" lon="6.33126">
        <ele>1446</ele>
        <time>2016-10-02T07:30:59+02:00</time>
      </trkpt>
      <trkpt lat="45.9661" lon="6.33122">
        <ele>1446</ele>
        <time>2016-10-02T07:31:03+02:00</time>
      </trkpt>
      <trkpt lat="45.96608" lon="6.33117">
        <ele>1446</ele>
        <time>2016-10-02T07:31:06+02:00</time>
      </trkpt>
      <trkpt lat="45.96605" lon="6.33113">
        <ele>1446</ele>
        <time>2016-10-02T07:31:09+02:00</time>
      </trkpt>
      <trkpt lat="45.96603" lon="6.3311">
        <ele>1446</ele>
        <time>2016-10-02T07:31:12+02:00</time>
      </trkpt>
      <trkpt lat="45.966" lon="6.33106">
        <ele>1445</ele>
        <time>2016-10-02T07:31:15+02:00</time>
      </trkpt>
      <trkpt lat="45.96597" lon="6.33102">
        <ele>1445</ele>
        <time>2016-10-02T07:31:18+02:00</time>
      </trkpt>
      <trkpt lat="45.96594" lon="6.33099">
        <ele>1445</ele>
        <time>2016-10-02T07:31:21+02:00</time>
      </trkpt>
      <trkpt lat="45.96592" lon="6.33095">
        <ele>1445</ele>
        <time>2016-10-02T07:31:24+02:00</time>
      </trkpt>
      <trkpt lat="45.96589" lon="6.33091">
        <ele>1445</ele>
        <time>2016-10-02T07:31:27+02:00</time>
      </trkpt>
      <trkpt lat="45.96587" lon="6.33088">
        <ele>1444</ele>
        <time>2016-10-02T07:31:29+02:00</time>
      </trkpt>
      <trkpt lat="45.96584" lon="6.33084">
        <ele>1444</ele>
        <time>2016-10-02T07:31:32+02:00</time>
      </trkpt>
      <trkpt lat="45.96582" lon="6.3308">
        <ele>1444</ele>
        <time>2016-10-02T07:31:35+02:00</time>
      </trkpt>
      <trkpt lat="45.96579" lon="6.33076">
        <ele>1444</ele>
        <time>2016-10-02T07:31:38+02:00</time>
      </trkpt>
      <trkpt lat="45.96576" lon="6.33072">
        <ele>1444</ele>
        <time>2016-10-02T07:31:41+02:00</time>
      </trkpt>
      <trkpt lat="45.96574" lon="6.33069">
        <ele>1444</ele>
        <time>2016-10-02T07:31:44+02:00</time>
      </trkpt>
      <trkpt lat="45.96572" lon="6.33066">
        <ele>1444</ele>
        <time>2016-10-02T07:31:47+02:00</time>
      </trkpt>
      <trkpt lat="45.96569" lon="6.33062">
        <ele>1444</ele>
        <time>2016-10-02T07:31:50+02:00</time>
      </trkpt>
      <trkpt lat="45.96567" lon="6.33058">
        <ele>1444</ele>
        <time>2016-10-02T07:31:53+02:00</time>
      </trkpt>
      <trkpt lat="45.96564" lon="6.33053">
        <ele>1444</ele>
        <time>2016-10-02T07:31:56+02:00</time>
      </trkpt>
      <trkpt lat="45.96561" lon="6.33049">
        <ele>1444</ele>
        <time>2016-10-02T07:31:59+02:00</time>
      </trkpt>
      <trkpt lat="45.96559" lon="6.33044">
        <ele>1444</ele>
        <time>2016-10-02T07:32:03+02:00</time>
      </trkpt>
      <trkpt lat="45.96556" lon="6.3304">
        <ele>1444</ele>
        <time>2016-10-02T07:32:06+02:00</time>
      </trkpt>
      <trkpt lat="45.96553" lon="6.33035">
        <ele>1445</ele>
        <time>2016-10-02T07:32:09+02:00</time>
      </trkpt>
      <trkpt lat="45.96551" lon="6.33031">
        <ele>1445</ele>
        <time>2016-10-02T07:32:13+02:00</time>
      </trkpt>
      <trkpt lat="45.96548" lon="6.33026">
        <ele>1445</ele>
        <time>2016-10-02T07:32:16+02:00</time>
      </trkpt>
      <trkpt lat="45.96546" lon="6.33022">
        <ele>1445</ele>
        <time>2016-10-02T07:32:19+02:00</time>
      </trkpt>
      <trkpt lat="45.96544" lon="6.33017">
        <ele>1445</ele>
        <time>2016-10-02T07:32:22+02:00</time>
      </trkpt>
      <trkpt lat="45.96542" lon="6.33013">
        <ele>1445</ele>
        <time>2016-10-02T07:32:25+02:00</time>
      </trkpt>
      <trkpt lat="45.9654" lon="6.3301">
        <ele>1445</ele>
        <time>2016-10-02T07:32:27+02:00</time>
      </trkpt>
      <trkpt lat="45.96538" lon="6.33007">
        <ele>1445</ele>
        <time>2016-10-02T07:32:29+02:00</time>
      </trkpt>
      <trkpt lat="45.96536" lon="6.33005">
        <ele>1445</ele>
        <time>2016-10-02T07:32:31+02:00</time>
      </trkpt>
      <trkpt lat="45.96535" lon="6.33003">
        <ele>1445</ele>
        <time>2016-10-02T07:32:33+02:00</time>
      </trkpt>
      <trkpt lat="45.96534" lon="6.33001">
        <ele>1445</ele>
        <time>2016-10-02T07:32:34+02:00</time>
      </trkpt>
      <trkpt lat="45.96533" lon="6.32998">
        <ele>1445</ele>
        <time>2016-10-02T07:32:36+02:00</time>
      </trkpt>
      <trkpt lat="45.96533" lon="6.32997">
        <ele>1445</ele>
        <time>2016-10-02T07:32:37+02:00</time>
      </trkpt>
      <trkpt lat="45.96532" lon="6.32993">
        <ele>1446</ele>
        <time>2016-10-02T07:32:39+02:00</time>
      </trkpt>
      <trkpt lat="45.96532" lon="6.32992">
        <ele>1446</ele>
        <time>2016-10-02T07:32:40+02:00</time>
      </trkpt>
      <trkpt lat="45.96531" lon="6.3299">
        <ele>1446</ele>
        <time>2016-10-02T07:32:41+02:00</time>
      </trkpt>
      <trkpt lat="45.9653" lon="6.32988">
        <ele>1446</ele>
        <time>2016-10-02T07:32:42+02:00</time>
      </trkpt>
      <trkpt lat="45.96529" lon="6.32987">
        <ele>1446</ele>
        <time>2016-10-02T07:32:43+02:00</time>
      </trkpt>
      <trkpt lat="45.96529" lon="6.32985">
        <ele>1446</ele>
        <time>2016-10-02T07:32:44+02:00</time>
      </trkpt>
      <trkpt lat="45.96528" lon="6.32983">
        <ele>1446</ele>
        <time>2016-10-02T07:32:46+02:00</time>
      </trkpt>
      <trkpt lat="45.96527" lon="6.32981">
        <ele>1446</ele>
        <time>2016-10-02T07:32:47+02:00</time>
      </trkpt>
      <trkpt lat="45.96526" lon="6.32979">
        <ele>1446</ele>
        <time>2016-10-02T07:32:48+02:00</time>
      </trkpt>
      <trkpt lat="45.96526" lon="6.32977">
        <ele>1446</ele>
        <time>2016-10-02T07:32:49+02:00</time>
      </trkpt>
      <trkpt lat="45.96525" lon="6.32975">
        <ele>1446</ele>
        <time>2016-10-02T07:32:50+02:00</time>
      </trkpt>
      <trkpt lat="45.96524" lon="6.32974">
        <ele>1446</ele>
        <time>2016-10-02T07:32:52+02:00</time>
      </trkpt>
      <trkpt lat="45.96524" lon="6.32972">
        <ele>1446</ele>
        <time>2016-10-02T07:32:53+02:00</time>
      </trkpt>
      <trkpt lat="45.96523" lon="6.3297">
        <ele>1447</ele>
        <time>2016-10-02T07:32:54+02:00</time>
      </trkpt>
      <trkpt lat="45.96522" lon="6.32968">
        <ele>1447</ele>
        <time>2016-10-02T07:32:55+02:00</time>
      </trkpt>
      <trkpt lat="45.96521" lon="6.32967">
        <ele>1447</ele>
        <time>2016-10-02T07:32:56+02:00</time>
      </trkpt>
      <trkpt lat="45.9652" lon="6.32966">
        <ele>1447</ele>
        <time>2016-10-02T07:32:57+02:00</time>
      </trkpt>
      <trkpt lat="45.96519" lon="6.32964">
        <ele>1446</ele>
        <time>2016-10-02T07:32:58+02:00</time>
      </trkpt>
      <trkpt lat="45.96518" lon="6.32963">
        <ele>1446</ele>
        <time>2016-10-02T07:32:59+02:00</time>
      </trkpt>
      <trkpt lat="45.96517" lon="6.32961">
        <ele>1446</ele>
        <time>2016-10-02T07:33:01+02:00</time>
      </trkpt>
      <trkpt lat="45.96516" lon="6.3296">
        <ele>1446</ele>
        <time>2016-10-02T07:33:02+02:00</time>
      </trkpt>
      <trkpt lat="45.96515" lon="6.32958">
        <ele>1447</ele>
        <time>2016-10-02T07:33:03+02:00</time>
      </trkpt>
      <trkpt lat="45.96514" lon="6.32956">
        <ele>1447</ele>
        <time>2016-10-02T07:33:05+02:00</time>
      </trkpt>
      <trkpt lat="45.96513" lon="6.32954">
        <ele>1447</ele>
        <time>2016-10-02T07:33:06+02:00</time>
      </trkpt>
      <trkpt lat="45.96512" lon="6.32952">
        <ele>1447</ele>
        <time>2016-10-02T07:33:07+02:00</time>
      </trkpt>
      <trkpt lat="45.96511" lon="6.3295">
        <ele>1447</ele>
        <time>2016-10-02T07:33:09+02:00</time>
      </trkpt>
      <trkpt lat="45.9651" lon="6.32949">
        <ele>1446</ele>
        <time>2016-10-02T07:33:10+02:00</time>
      </trkpt>
      <trkpt lat="45.96509" lon="6.32947">
        <ele>1447</ele>
        <time>2016-10-02T07:33:11+02:00</time>
      </trkpt>
      <trkpt lat="45.96508" lon="6.32945">
        <ele>1446</ele>
        <time>2016-10-02T07:33:12+02:00</time>
      </trkpt>
      <trkpt lat="45.96507" lon="6.32944">
        <ele>1446</ele>
        <time>2016-10-02T07:33:14+02:00</time>
      </trkpt>
      <trkpt lat="45.96506" lon="6.32942">
        <ele>1446</ele>
        <time>2016-10-02T07:33:15+02:00</time>
      </trkpt>
      <trkpt lat="45.96505" lon="6.32941">
        <ele>1446</ele>
        <time>2016-10-02T07:33:16+02:00</time>
      </trkpt>
      <trkpt lat="45.96505" lon="6.32939">
        <ele>1446</ele>
        <time>2016-10-02T07:33:17+02:00</time>
      </trkpt>
      <trkpt lat="45.96504" lon="6.32938">
        <ele>1446</ele>
        <time>2016-10-02T07:33:18+02:00</time>
      </trkpt>
      <trkpt lat="45.96503" lon="6.32937">
        <ele>1446</ele>
        <time>2016-10-02T07:33:19+02:00</time>
      </trkpt>
      <trkpt lat="45.96502" lon="6.32935">
        <ele>1446</ele>
        <time>2016-10-02T07:33:20+02:00</time>
      </trkpt>
      <trkpt lat="45.96501" lon="6.32934">
        <ele>1446</ele>
        <time>2016-10-02T07:33:21+02:00</time>
      </trkpt>
      <trkpt lat="45.965" lon="6.32932">
        <ele>1446</ele>
        <time>2016-10-02T07:33:22+02:00</time>
      </trkpt>
      <trkpt lat="45.96499" lon="6.32931">
        <ele>1446</ele>
        <time>2016-10-02T07:33:23+02:00</time>
      </trkpt>
      <trkpt lat="45.96498" lon="6.32929">
        <ele>1446</ele>
        <time>2016-10-02T07:33:25+02:00</time>
      </trkpt>
      <trkpt lat="45.96497" lon="6.32927">
        <ele>1446</ele>
        <time>2016-10-02T07:33:26+02:00</time>
      </trkpt>
      <trkpt lat="45.96496" lon="6.32926">
        <ele>1446</ele>
        <time>2016-10-02T07:33:27+02:00</time>
      </trkpt>
      <trkpt lat="45.96495" lon="6.32924">
        <ele>1446</ele>
        <time>2016-10-02T07:33:28+02:00</time>
      </trkpt>
      <trkpt lat="45.96494" lon="6.32923">
        <ele>1446</ele>
        <time>2016-10-02T07:33:29+02:00</time>
      </trkpt>
      <trkpt lat="45.96493" lon="6.32922">
        <ele>1446</ele>
        <time>2016-10-02T07:33:30+02:00</time>
      </trkpt>
      <trkpt lat="45.96492" lon="6.32921">
        <ele>1446</ele>
        <time>2016-10-02T07:33:32+02:00</time>
      </trkpt>
      <trkpt lat="45.96491" lon="6.32919">
        <ele>1446</ele>
        <time>2016-10-02T07:33:33+02:00</time>
      </trkpt>
      <trkpt lat="45.9649" lon="6.32918">
        <ele>1446</ele>
        <time>2016-10-02T07:33:34+02:00</time>
      </trkpt>
      <trkpt lat="45.96489" lon="6.32916">
        <ele>1446</ele>
        <time>2016-10-02T07:33:35+02:00</time>
      </trkpt>
      <trkpt lat="45.96488" lon="6.32915">
        <ele>1445</ele>
        <time>2016-10-02T07:33:36+02:00</time>
      </trkpt>
      <trkpt lat="45.96487" lon="6.32913">
        <ele>1445</ele>
        <time>2016-10-02T07:33:37+02:00</time>
      </trkpt>
      <trkpt lat="45.96486" lon="6.32911">
        <ele>1445</ele>
        <time>2016-10-02T07:33:39+02:00</time>
      </trkpt>
      <trkpt lat="45.96485" lon="6.3291">
        <ele>1445</ele>
        <time>2016-10-02T07:33:40+02:00</time>
      </trkpt>
      <trkpt lat="45.96484" lon="6.32908">
        <ele>1445</ele>
        <time>2016-10-02T07:33:41+02:00</time>
      </trkpt>
      <trkpt lat="45.96483" lon="6.32907">
        <ele>1445</ele>
        <time>2016-10-02T07:33:42+02:00</time>
      </trkpt>
      <trkpt lat="45.96482" lon="6.32905">
        <ele>1445</ele>
        <time>2016-10-02T07:33:44+02:00</time>
      </trkpt>
      <trkpt lat="45.96481" lon="6.32904">
        <ele>1445</ele>
        <time>2016-10-02T07:33:45+02:00</time>
      </trkpt>
      <trkpt lat="45.9648" lon="6.32902">
        <ele>1445</ele>
        <time>2016-10-02T07:33:46+02:00</time>
      </trkpt>
      <trkpt lat="45.96479" lon="6.329">
        <ele>1445</ele>
        <time>2016-10-02T07:33:47+02:00</time>
      </trkpt>
      <trkpt lat="45.96478" lon="6.32899">
        <ele>1445</ele>
        <time>2016-10-02T07:33:48+02:00</time>
      </trkpt>
      <trkpt lat="45.96477" lon="6.32897">
        <ele>1445</ele>
        <time>2016-10-02T07:33:49+02:00</time>
      </trkpt>
      <trkpt lat="45.96476" lon="6.32896">
        <ele>1445</ele>
        <time>2016-10-02T07:33:51+02:00</time>
      </trkpt>
      <trkpt lat="45.96475" lon="6.32894">
        <ele>1445</ele>
        <time>2016-10-02T07:33:52+02:00</time>
      </trkpt>
      <trkpt lat="45.96474" lon="6.32893">
        <ele>1445</ele>
        <time>2016-10-02T07:33:53+02:00</time>
      </trkpt>
      <trkpt lat="45.96473" lon="6.32891">
        <ele>1445</ele>
        <time>2016-10-02T07:33:54+02:00</time>
      </trkpt>
      <trkpt lat="45.96472" lon="6.3289">
        <ele>1444</ele>
        <time>2016-10-02T07:33:55+02:00</time>
      </trkpt>
      <trkpt lat="45.96471" lon="6.32888">
        <ele>1444</ele>
        <time>2016-10-02T07:33:57+02:00</time>
      </trkpt>
      <trkpt lat="45.9647" lon="6.32887">
        <ele>1444</ele>
        <time>2016-10-02T07:33:58+02:00</time>
      </trkpt>
      <trkpt lat="45.96469" lon="6.32885">
        <ele>1444</ele>
        <time>2016-10-02T07:33:59+02:00</time>
      </trkpt>
      <trkpt lat="45.96468" lon="6.32884">
        <ele>1444</ele>
        <time>2016-10-02T07:34:00+02:00</time>
      </trkpt>
      <trkpt lat="45.96466" lon="6.32882">
        <ele>1444</ele>
        <time>2016-10-02T07:34:01+02:00</time>
      </trkpt>
      <trkpt lat="45.96465" lon="6.32881">
        <ele>1444</ele>
        <time>2016-10-02T07:34:03+02:00</time>
      </trkpt>
      <trkpt lat="45.96464" lon="6.3288">
        <ele>1444</ele>
        <time>2016-10-02T07:34:04+02:00</time>
      </trkpt>
      <trkpt lat="45.96463" lon="6.32878">
        <ele>1444</ele>
        <time>2016-10-02T07:34:05+02:00</time>
      </trkpt>
      <trkpt lat="45.96462" lon="6.32877">
        <ele>1444</ele>
        <time>2016-10-02T07:34:06+02:00</time>
      </trkpt>
      <trkpt lat="45.96461" lon="6.32876">
        <ele>1443</ele>
        <time>2016-10-02T07:34:07+02:00</time>
      </trkpt>
      <trkpt lat="45.9646" lon="6.32875">
        <ele>1443</ele>
        <time>2016-10-02T07:34:08+02:00</time>
      </trkpt>
      <trkpt lat="45.96459" lon="6.32873">
        <ele>1443</ele>
        <time>2016-10-02T07:34:09+02:00</time>
      </trkpt>
      <trkpt lat="45.96458" lon="6.32872">
        <ele>1443</ele>
        <time>2016-10-02T07:34:11+02:00</time>
      </trkpt>
      <trkpt lat="45.96457" lon="6.32871">
        <ele>1443</ele>
        <time>2016-10-02T07:34:12+02:00</time>
      </trkpt>
      <trkpt lat="45.96456" lon="6.32869">
        <ele>1443</ele>
        <time>2016-10-02T07:34:13+02:00</time>
      </trkpt>
      <trkpt lat="45.96455" lon="6.32868">
        <ele>1443</ele>
        <time>2016-10-02T07:34:14+02:00</time>
      </trkpt>
      <trkpt lat="45.96453" lon="6.32866">
        <ele>1443</ele>
        <time>2016-10-02T07:34:15+02:00</time>
      </trkpt>
      <trkpt lat="45.96452" lon="6.32865">
        <ele>1443</ele>
        <time>2016-10-02T07:34:16+02:00</time>
      </trkpt>
      <trkpt lat="45.96451" lon="6.32863">
        <ele>1443</ele>
        <time>2016-10-02T07:34:17+02:00</time>
      </trkpt>
      <trkpt lat="45.9645" lon="6.32862">
        <ele>1443</ele>
        <time>2016-10-02T07:34:19+02:00</time>
      </trkpt>
      <trkpt lat="45.96449" lon="6.3286">
        <ele>1443</ele>
        <time>2016-10-02T07:34:20+02:00</time>
      </trkpt>
      <trkpt lat="45.96448" lon="6.32859">
        <ele>1443</ele>
        <time>2016-10-02T07:34:21+02:00</time>
      </trkpt>
      <trkpt lat="45.96447" lon="6.32858">
        <ele>1443</ele>
        <time>2016-10-02T07:34:22+02:00</time>
      </trkpt>
      <trkpt lat="45.96446" lon="6.32856">
        <ele>1442</ele>
        <time>2016-10-02T07:34:23+02:00</time>
      </trkpt>
      <trkpt lat="45.96445" lon="6.32855">
        <ele>1442</ele>
        <time>2016-10-02T07:34:24+02:00</time>
      </trkpt>
      <trkpt lat="45.96444" lon="6.32853">
        <ele>1442</ele>
        <time>2016-10-02T07:34:26+02:00</time>
      </trkpt>
      <trkpt lat="45.96443" lon="6.32851">
        <ele>1442</ele>
        <time>2016-10-02T07:34:27+02:00</time>
      </trkpt>
      <trkpt lat="45.96442" lon="6.32849">
        <ele>1442</ele>
        <time>2016-10-02T07:34:29+02:00</time>
      </trkpt>
      <trkpt lat="45.96441" lon="6.32847">
        <ele>1442</ele>
        <time>2016-10-02T07:34:30+02:00</time>
      </trkpt>
      <trkpt lat="45.9644" lon="6.32844">
        <ele>1442</ele>
        <time>2016-10-02T07:34:32+02:00</time>
      </trkpt>
      <trkpt lat="45.96438" lon="6.32842">
        <ele>1442</ele>
        <time>2016-10-02T07:34:34+02:00</time>
      </trkpt>
      <trkpt lat="45.96435" lon="6.3284">
        <ele>1442</ele>
        <time>2016-10-02T07:34:36+02:00</time>
      </trkpt>
      <trkpt lat="45.96433" lon="6.32838">
        <ele>1442</ele>
        <time>2016-10-02T07:34:38+02:00</time>
      </trkpt>
      <trkpt lat="45.96432" lon="6.32836">
        <ele>1442</ele>
        <time>2016-10-02T07:34:40+02:00</time>
      </trkpt>
      <trkpt lat="45.96431" lon="6.32835">
        <ele>1442</ele>
        <time>2016-10-02T07:34:41+02:00</time>
      </trkpt>
      <trkpt lat="45.9643" lon="6.32833">
        <ele>1442</ele>
        <time>2016-10-02T07:34:42+02:00</time>
      </trkpt>
      <trkpt lat="45.9643" lon="6.32831">
        <ele>1442</ele>
        <time>2016-10-02T07:34:43+02:00</time>
      </trkpt>
      <trkpt lat="45.96428" lon="6.3283">
        <ele>1442</ele>
        <time>2016-10-02T07:34:44+02:00</time>
      </trkpt>
      <trkpt lat="45.96427" lon="6.32827">
        <ele>1442</ele>
        <time>2016-10-02T07:34:47+02:00</time>
      </trkpt>
      <trkpt lat="45.96426" lon="6.32826">
        <ele>1442</ele>
        <time>2016-10-02T07:34:48+02:00</time>
      </trkpt>
      <trkpt lat="45.96425" lon="6.32824">
        <ele>1442</ele>
        <time>2016-10-02T07:34:49+02:00</time>
      </trkpt>
      <trkpt lat="45.96424" lon="6.32823">
        <ele>1441</ele>
        <time>2016-10-02T07:34:50+02:00</time>
      </trkpt>
      <trkpt lat="45.96423" lon="6.32821">
        <ele>1441</ele>
        <time>2016-10-02T07:34:51+02:00</time>
      </trkpt>
      <trkpt lat="45.96422" lon="6.3282">
        <ele>1441</ele>
        <time>2016-10-02T07:34:52+02:00</time>
      </trkpt>
      <trkpt lat="45.96421" lon="6.32819">
        <ele>1441</ele>
        <time>2016-10-02T07:34:53+02:00</time>
      </trkpt>
      <trkpt lat="45.9642" lon="6.32817">
        <ele>1441</ele>
        <time>2016-10-02T07:34:54+02:00</time>
      </trkpt>
      <trkpt lat="45.96419" lon="6.32816">
        <ele>1441</ele>
        <time>2016-10-02T07:34:55+02:00</time>
      </trkpt>
      <trkpt lat="45.96418" lon="6.32814">
        <ele>1441</ele>
        <time>2016-10-02T07:34:56+02:00</time>
      </trkpt>
      <trkpt lat="45.96417" lon="6.32813">
        <ele>1441</ele>
        <time>2016-10-02T07:34:57+02:00</time>
      </trkpt>
      <trkpt lat="45.96417" lon="6.32811">
        <ele>1441</ele>
        <time>2016-10-02T07:34:59+02:00</time>
      </trkpt>
      <trkpt lat="45.96416" lon="6.3281">
        <ele>1441</ele>
        <time>2016-10-02T07:35:00+02:00</time>
      </trkpt>
      <trkpt lat="45.96415" lon="6.32809">
        <ele>1441</ele>
        <time>2016-10-02T07:35:01+02:00</time>
      </trkpt>
      <trkpt lat="45.96414" lon="6.32807">
        <ele>1441</ele>
        <time>2016-10-02T07:35:02+02:00</time>
      </trkpt>
      <trkpt lat="45.96413" lon="6.32806">
        <ele>1441</ele>
        <time>2016-10-02T07:35:03+02:00</time>
      </trkpt>
      <trkpt lat="45.96412" lon="6.32804">
        <ele>1441</ele>
        <time>2016-10-02T07:35:04+02:00</time>
      </trkpt>
      <trkpt lat="45.96411" lon="6.32803">
        <ele>1441</ele>
        <time>2016-10-02T07:35:05+02:00</time>
      </trkpt>
      <trkpt lat="45.9641" lon="6.32801">
        <ele>1441</ele>
        <time>2016-10-02T07:35:06+02:00</time>
      </trkpt>
      <trkpt lat="45.9641" lon="6.328">
        <ele>1441</ele>
        <time>2016-10-02T07:35:07+02:00</time>
      </trkpt>
      <trkpt lat="45.96409" lon="6.32798">
        <ele>1441</ele>
        <time>2016-10-02T07:35:08+02:00</time>
      </trkpt>
      <trkpt lat="45.96408" lon="6.32797">
        <ele>1441</ele>
        <time>2016-10-02T07:35:09+02:00</time>
      </trkpt>
      <trkpt lat="45.96407" lon="6.32795">
        <ele>1441</ele>
        <time>2016-10-02T07:35:10+02:00</time>
      </trkpt>
      <trkpt lat="45.96406" lon="6.32794">
        <ele>1441</ele>
        <time>2016-10-02T07:35:11+02:00</time>
      </trkpt>
      <trkpt lat="45.96406" lon="6.32792">
        <ele>1441</ele>
        <time>2016-10-02T07:35:12+02:00</time>
      </trkpt>
      <trkpt lat="45.96405" lon="6.32791">
        <ele>1441</ele>
        <time>2016-10-02T07:35:13+02:00</time>
      </trkpt>
      <trkpt lat="45.96404" lon="6.32789">
        <ele>1441</ele>
        <time>2016-10-02T07:35:15+02:00</time>
      </trkpt>
      <trkpt lat="45.96403" lon="6.32788">
        <ele>1441</ele>
        <time>2016-10-02T07:35:16+02:00</time>
      </trkpt>
      <trkpt lat="45.96401" lon="6.32785">
        <ele>1440</ele>
        <time>2016-10-02T07:35:18+02:00</time>
      </trkpt>
      <trkpt lat="45.96401" lon="6.32784">
        <ele>1440</ele>
        <time>2016-10-02T07:35:19+02:00</time>
      </trkpt>
      <trkpt lat="45.964" lon="6.32783">
        <ele>1440</ele>
        <time>2016-10-02T07:35:20+02:00</time>
      </trkpt>
      <trkpt lat="45.96398" lon="6.32781">
        <ele>1440</ele>
        <time>2016-10-02T07:35:21+02:00</time>
      </trkpt>
      <trkpt lat="45.96397" lon="6.3278">
        <ele>1440</ele>
        <time>2016-10-02T07:35:22+02:00</time>
      </trkpt>
      <trkpt lat="45.96396" lon="6.32778">
        <ele>1440</ele>
        <time>2016-10-02T07:35:23+02:00</time>
      </trkpt>
      <trkpt lat="45.96395" lon="6.32777">
        <ele>1440</ele>
        <time>2016-10-02T07:35:25+02:00</time>
      </trkpt>
      <trkpt lat="45.96394" lon="6.32775">
        <ele>1440</ele>
        <time>2016-10-02T07:35:26+02:00</time>
      </trkpt>
      <trkpt lat="45.96393" lon="6.32773">
        <ele>1440</ele>
        <time>2016-10-02T07:35:27+02:00</time>
      </trkpt>
      <trkpt lat="45.96392" lon="6.32772">
        <ele>1440</ele>
        <time>2016-10-02T07:35:28+02:00</time>
      </trkpt>
      <trkpt lat="45.96391" lon="6.3277">
        <ele>1440</ele>
        <time>2016-10-02T07:35:29+02:00</time>
      </trkpt>
      <trkpt lat="45.9639" lon="6.32769">
        <ele>1440</ele>
        <time>2016-10-02T07:35:31+02:00</time>
      </trkpt>
      <trkpt lat="45.96389" lon="6.32767">
        <ele>1440</ele>
        <time>2016-10-02T07:35:32+02:00</time>
      </trkpt>
      <trkpt lat="45.96388" lon="6.32766">
        <ele>1440</ele>
        <time>2016-10-02T07:35:33+02:00</time>
      </trkpt>
      <trkpt lat="45.96387" lon="6.32764">
        <ele>1440</ele>
        <time>2016-10-02T07:35:34+02:00</time>
      </trkpt>
      <trkpt lat="45.96386" lon="6.32762">
        <ele>1440</ele>
        <time>2016-10-02T07:35:36+02:00</time>
      </trkpt>
      <trkpt lat="45.96385" lon="6.3276">
        <ele>1440</ele>
        <time>2016-10-02T07:35:37+02:00</time>
      </trkpt>
      <trkpt lat="45.96384" lon="6.32759">
        <ele>1440</ele>
        <time>2016-10-02T07:35:38+02:00</time>
      </trkpt>
      <trkpt lat="45.96384" lon="6.32757">
        <ele>1440</ele>
        <time>2016-10-02T07:35:39+02:00</time>
      </trkpt>
      <trkpt lat="45.96383" lon="6.32755">
        <ele>1440</ele>
        <time>2016-10-02T07:35:40+02:00</time>
      </trkpt>
      <trkpt lat="45.96382" lon="6.32753">
        <ele>1440</ele>
        <time>2016-10-02T07:35:41+02:00</time>
      </trkpt>
      <trkpt lat="45.96381" lon="6.32752">
        <ele>1440</ele>
        <time>2016-10-02T07:35:43+02:00</time>
      </trkpt>
      <trkpt lat="45.9638" lon="6.3275">
        <ele>1440</ele>
        <time>2016-10-02T07:35:44+02:00</time>
      </trkpt>
      <trkpt lat="45.96379" lon="6.32749">
        <ele>1440</ele>
        <time>2016-10-02T07:35:45+02:00</time>
      </trkpt>
      <trkpt lat="45.96378" lon="6.32747">
        <ele>1440</ele>
        <time>2016-10-02T07:35:46+02:00</time>
      </trkpt>
      <trkpt lat="45.96378" lon="6.32745">
        <ele>1440</ele>
        <time>2016-10-02T07:35:47+02:00</time>
      </trkpt>
      <trkpt lat="45.96377" lon="6.32744">
        <ele>1440</ele>
        <time>2016-10-02T07:35:48+02:00</time>
      </trkpt>
      <trkpt lat="45.96375" lon="6.32741">
        <ele>1440</ele>
        <time>2016-10-02T07:35:50+02:00</time>
      </trkpt>
      <trkpt lat="45.96374" lon="6.32739">
        <ele>1439</ele>
        <time>2016-10-02T07:35:52+02:00</time>
      </trkpt>
      <trkpt lat="45.96372" lon="6.32736">
        <ele>1439</ele>
        <time>2016-10-02T07:35:54+02:00</time>
      </trkpt>
      <trkpt lat="45.96371" lon="6.32735">
        <ele>1439</ele>
        <time>2016-10-02T07:35:55+02:00</time>
      </trkpt>
      <trkpt lat="45.9637" lon="6.32733">
        <ele>1439</ele>
        <time>2016-10-02T07:35:56+02:00</time>
      </trkpt>
      <trkpt lat="45.96369" lon="6.32732">
        <ele>1439</ele>
        <time>2016-10-02T07:35:57+02:00</time>
      </trkpt>
      <trkpt lat="45.96368" lon="6.32731">
        <ele>1439</ele>
        <time>2016-10-02T07:35:58+02:00</time>
      </trkpt>
      <trkpt lat="45.96367" lon="6.3273">
        <ele>1439</ele>
        <time>2016-10-02T07:35:59+02:00</time>
      </trkpt>
      <trkpt lat="45.96366" lon="6.32727">
        <ele>1439</ele>
        <time>2016-10-02T07:36:01+02:00</time>
      </trkpt>
      <trkpt lat="45.96365" lon="6.32725">
        <ele>1439</ele>
        <time>2016-10-02T07:36:03+02:00</time>
      </trkpt>
      <trkpt lat="45.96364" lon="6.32724">
        <ele>1439</ele>
        <time>2016-10-02T07:36:04+02:00</time>
      </trkpt>
      <trkpt lat="45.96363" lon="6.32722">
        <ele>1439</ele>
        <time>2016-10-02T07:36:05+02:00</time>
      </trkpt>
      <trkpt lat="45.96362" lon="6.3272">
        <ele>1439</ele>
        <time>2016-10-02T07:36:06+02:00</time>
      </trkpt>
      <trkpt lat="45.96361" lon="6.32719">
        <ele>1439</ele>
        <time>2016-10-02T07:36:07+02:00</time>
      </trkpt>
      <trkpt lat="45.9636" lon="6.32718">
        <ele>1439</ele>
        <time>2016-10-02T07:36:08+02:00</time>
      </trkpt>
      <trkpt lat="45.96359" lon="6.32717">
        <ele>1439</ele>
        <time>2016-10-02T07:36:09+02:00</time>
      </trkpt>
      <trkpt lat="45.96357" lon="6.32716">
        <ele>1439</ele>
        <time>2016-10-02T07:36:11+02:00</time>
      </trkpt>
      <trkpt lat="45.96356" lon="6.32715">
        <ele>1438</ele>
        <time>2016-10-02T07:36:12+02:00</time>
      </trkpt>
      <trkpt lat="45.96355" lon="6.32714">
        <ele>1438</ele>
        <time>2016-10-02T07:36:13+02:00</time>
      </trkpt>
      <trkpt lat="45.96353" lon="6.32713">
        <ele>1438</ele>
        <time>2016-10-02T07:36:14+02:00</time>
      </trkpt>
      <trkpt lat="45.96352" lon="6.32711">
        <ele>1438</ele>
        <time>2016-10-02T07:36:16+02:00</time>
      </trkpt>
      <trkpt lat="45.96351" lon="6.3271">
        <ele>1438</ele>
        <time>2016-10-02T07:36:17+02:00</time>
      </trkpt>
      <trkpt lat="45.9635" lon="6.32709">
        <ele>1438</ele>
        <time>2016-10-02T07:36:18+02:00</time>
      </trkpt>
      <trkpt lat="45.96349" lon="6.32708">
        <ele>1438</ele>
        <time>2016-10-02T07:36:19+02:00</time>
      </trkpt>
      <trkpt lat="45.96348" lon="6.32706">
        <ele>1438</ele>
        <time>2016-10-02T07:36:20+02:00</time>
      </trkpt>
      <trkpt lat="45.96347" lon="6.32705">
        <ele>1438</ele>
        <time>2016-10-02T07:36:21+02:00</time>
      </trkpt>
      <trkpt lat="45.96346" lon="6.32703">
        <ele>1438</ele>
        <time>2016-10-02T07:36:22+02:00</time>
      </trkpt>
      <trkpt lat="45.96346" lon="6.32702">
        <ele>1438</ele>
        <time>2016-10-02T07:36:23+02:00</time>
      </trkpt>
      <trkpt lat="45.96345" lon="6.327">
        <ele>1438</ele>
        <time>2016-10-02T07:36:24+02:00</time>
      </trkpt>
      <trkpt lat="45.96344" lon="6.32699">
        <ele>1438</ele>
        <time>2016-10-02T07:36:25+02:00</time>
      </trkpt>
      <trkpt lat="45.96343" lon="6.32697">
        <ele>1438</ele>
        <time>2016-10-02T07:36:26+02:00</time>
      </trkpt>
      <trkpt lat="45.96342" lon="6.32695">
        <ele>1438</ele>
        <time>2016-10-02T07:36:28+02:00</time>
      </trkpt>
      <trkpt lat="45.9634" lon="6.32693">
        <ele>1438</ele>
        <time>2016-10-02T07:36:30+02:00</time>
      </trkpt>
      <trkpt lat="45.96339" lon="6.32692">
        <ele>1437</ele>
        <time>2016-10-02T07:36:31+02:00</time>
      </trkpt>
      <trkpt lat="45.96338" lon="6.3269">
        <ele>1437</ele>
        <time>2016-10-02T07:36:32+02:00</time>
      </trkpt>
      <trkpt lat="45.96337" lon="6.32689">
        <ele>1437</ele>
        <time>2016-10-02T07:36:33+02:00</time>
      </trkpt>
      <trkpt lat="45.96337" lon="6.32687">
        <ele>1438</ele>
        <time>2016-10-02T07:36:34+02:00</time>
      </trkpt>
      <trkpt lat="45.96336" lon="6.32685">
        <ele>1438</ele>
        <time>2016-10-02T07:36:35+02:00</time>
      </trkpt>
      <trkpt lat="45.96336" lon="6.32683">
        <ele>1438</ele>
        <time>2016-10-02T07:36:36+02:00</time>
      </trkpt>
      <trkpt lat="45.96335" lon="6.32682">
        <ele>1438</ele>
        <time>2016-10-02T07:36:37+02:00</time>
      </trkpt>
      <trkpt lat="45.96334" lon="6.32678">
        <ele>1438</ele>
        <time>2016-10-02T07:36:39+02:00</time>
      </trkpt>
      <trkpt lat="45.96334" lon="6.32677">
        <ele>1438</ele>
        <time>2016-10-02T07:36:40+02:00</time>
      </trkpt>
      <trkpt lat="45.96334" lon="6.32675">
        <ele>1438</ele>
        <time>2016-10-02T07:36:41+02:00</time>
      </trkpt>
      <trkpt lat="45.96333" lon="6.32673">
        <ele>1438</ele>
        <time>2016-10-02T07:36:43+02:00</time>
      </trkpt>
      <trkpt lat="45.96333" lon="6.32671">
        <ele>1438</ele>
        <time>2016-10-02T07:36:44+02:00</time>
      </trkpt>
      <trkpt lat="45.96332" lon="6.32668">
        <ele>1439</ele>
        <time>2016-10-02T07:36:46+02:00</time>
      </trkpt>
      <trkpt lat="45.96331" lon="6.32665">
        <ele>1439</ele>
        <time>2016-10-02T07:36:47+02:00</time>
      </trkpt>
      <trkpt lat="45.9633" lon="6.32662">
        <ele>1439</ele>
        <time>2016-10-02T07:36:49+02:00</time>
      </trkpt>
      <trkpt lat="45.96329" lon="6.32661">
        <ele>1439</ele>
        <time>2016-10-02T07:36:50+02:00</time>
      </trkpt>
      <trkpt lat="45.96328" lon="6.32659">
        <ele>1439</ele>
        <time>2016-10-02T07:36:52+02:00</time>
      </trkpt>
      <trkpt lat="45.96327" lon="6.32658">
        <ele>1439</ele>
        <time>2016-10-02T07:36:53+02:00</time>
      </trkpt>
      <trkpt lat="45.96326" lon="6.32656">
        <ele>1438</ele>
        <time>2016-10-02T07:36:54+02:00</time>
      </trkpt>
      <trkpt lat="45.96325" lon="6.32656">
        <ele>1438</ele>
        <time>2016-10-02T07:36:55+02:00</time>
      </trkpt>
      <trkpt lat="45.96324" lon="6.32655">
        <ele>1438</ele>
        <time>2016-10-02T07:36:56+02:00</time>
      </trkpt>
      <trkpt lat="45.96323" lon="6.32654">
        <ele>1438</ele>
        <time>2016-10-02T07:36:57+02:00</time>
      </trkpt>
      <trkpt lat="45.96321" lon="6.32653">
        <ele>1438</ele>
        <time>2016-10-02T07:36:58+02:00</time>
      </trkpt>
      <trkpt lat="45.9632" lon="6.32653">
        <ele>1437</ele>
        <time>2016-10-02T07:37:00+02:00</time>
      </trkpt>
      <trkpt lat="45.96318" lon="6.32652">
        <ele>1437</ele>
        <time>2016-10-02T07:37:01+02:00</time>
      </trkpt>
      <trkpt lat="45.96317" lon="6.32651">
        <ele>1437</ele>
        <time>2016-10-02T07:37:02+02:00</time>
      </trkpt>
      <trkpt lat="45.96316" lon="6.3265">
        <ele>1437</ele>
        <time>2016-10-02T07:37:03+02:00</time>
      </trkpt>
      <trkpt lat="45.96314" lon="6.32648">
        <ele>1437</ele>
        <time>2016-10-02T07:37:05+02:00</time>
      </trkpt>
      <trkpt lat="45.96312" lon="6.32648">
        <ele>1436</ele>
        <time>2016-10-02T07:37:07+02:00</time>
      </trkpt>
      <trkpt lat="45.9631" lon="6.32648">
        <ele>1436</ele>
        <time>2016-10-02T07:37:08+02:00</time>
      </trkpt>
      <trkpt lat="45.96309" lon="6.32649">
        <ele>1436</ele>
        <time>2016-10-02T07:37:09+02:00</time>
      </trkpt>
      <trkpt lat="45.96308" lon="6.32649">
        <ele>1435</ele>
        <time>2016-10-02T07:37:10+02:00</time>
      </trkpt>
      <trkpt lat="45.96305" lon="6.3265">
        <ele>1435</ele>
        <time>2016-10-02T07:37:12+02:00</time>
      </trkpt>
      <trkpt lat="45.96304" lon="6.32651">
        <ele>1435</ele>
        <time>2016-10-02T07:37:13+02:00</time>
      </trkpt>
      <trkpt lat="45.96303" lon="6.32651">
        <ele>1434</ele>
        <time>2016-10-02T07:37:15+02:00</time>
      </trkpt>
      <trkpt lat="45.96301" lon="6.32652">
        <ele>1434</ele>
        <time>2016-10-02T07:37:16+02:00</time>
      </trkpt>
      <trkpt lat="45.96299" lon="6.32652">
        <ele>1433</ele>
        <time>2016-10-02T07:37:18+02:00</time>
      </trkpt>
      <trkpt lat="45.96297" lon="6.32653">
        <ele>1433</ele>
        <time>2016-10-02T07:37:19+02:00</time>
      </trkpt>
      <trkpt lat="45.96295" lon="6.32653">
        <ele>1433</ele>
        <time>2016-10-02T07:37:21+02:00</time>
      </trkpt>
      <trkpt lat="45.96293" lon="6.32653">
        <ele>1432</ele>
        <time>2016-10-02T07:37:23+02:00</time>
      </trkpt>
      <trkpt lat="45.96291" lon="6.32653">
        <ele>1432</ele>
        <time>2016-10-02T07:37:25+02:00</time>
      </trkpt>
      <trkpt lat="45.96288" lon="6.32654">
        <ele>1431</ele>
        <time>2016-10-02T07:37:27+02:00</time>
      </trkpt>
      <trkpt lat="45.96286" lon="6.32654">
        <ele>1431</ele>
        <time>2016-10-02T07:37:28+02:00</time>
      </trkpt>
      <trkpt lat="45.96284" lon="6.32653">
        <ele>1430</ele>
        <time>2016-10-02T07:37:30+02:00</time>
      </trkpt>
      <trkpt lat="45.96281" lon="6.32653">
        <ele>1430</ele>
        <time>2016-10-02T07:37:32+02:00</time>
      </trkpt>
      <trkpt lat="45.96279" lon="6.32652">
        <ele>1429</ele>
        <time>2016-10-02T07:37:34+02:00</time>
      </trkpt>
      <trkpt lat="45.96276" lon="6.32652">
        <ele>1429</ele>
        <time>2016-10-02T07:37:36+02:00</time>
      </trkpt>
      <trkpt lat="45.96274" lon="6.32652">
        <ele>1428</ele>
        <time>2016-10-02T07:37:39+02:00</time>
      </trkpt>
      <trkpt lat="45.96271" lon="6.32651">
        <ele>1428</ele>
        <time>2016-10-02T07:37:41+02:00</time>
      </trkpt>
      <trkpt lat="45.96269" lon="6.3265">
        <ele>1428</ele>
        <time>2016-10-02T07:37:43+02:00</time>
      </trkpt>
      <trkpt lat="45.96266" lon="6.32649">
        <ele>1427</ele>
        <time>2016-10-02T07:37:45+02:00</time>
      </trkpt>
      <trkpt lat="45.96264" lon="6.32648">
        <ele>1427</ele>
        <time>2016-10-02T07:37:47+02:00</time>
      </trkpt>
      <trkpt lat="45.96262" lon="6.32647">
        <ele>1426</ele>
        <time>2016-10-02T07:37:49+02:00</time>
      </trkpt>
      <trkpt lat="45.9626" lon="6.32646">
        <ele>1426</ele>
        <time>2016-10-02T07:37:51+02:00</time>
      </trkpt>
      <trkpt lat="45.96258" lon="6.32644">
        <ele>1426</ele>
        <time>2016-10-02T07:37:52+02:00</time>
      </trkpt>
      <trkpt lat="45.96256" lon="6.32642">
        <ele>1425</ele>
        <time>2016-10-02T07:37:54+02:00</time>
      </trkpt>
      <trkpt lat="45.96254" lon="6.32639">
        <ele>1425</ele>
        <time>2016-10-02T07:37:56+02:00</time>
      </trkpt>
      <trkpt lat="45.96253" lon="6.32637">
        <ele>1425</ele>
        <time>2016-10-02T07:37:58+02:00</time>
      </trkpt>
      <trkpt lat="45.96251" lon="6.32634">
        <ele>1425</ele>
        <time>2016-10-02T07:38:00+02:00</time>
      </trkpt>
      <trkpt lat="45.9625" lon="6.32631">
        <ele>1425</ele>
        <time>2016-10-02T07:38:02+02:00</time>
      </trkpt>
      <trkpt lat="45.96249" lon="6.32628">
        <ele>1425</ele>
        <time>2016-10-02T07:38:04+02:00</time>
      </trkpt>
      <trkpt lat="45.96247" lon="6.32625">
        <ele>1425</ele>
        <time>2016-10-02T07:38:06+02:00</time>
      </trkpt>
      <trkpt lat="45.96246" lon="6.32623">
        <ele>1425</ele>
        <time>2016-10-02T07:38:08+02:00</time>
      </trkpt>
      <trkpt lat="45.96245" lon="6.3262">
        <ele>1425</ele>
        <time>2016-10-02T07:38:09+02:00</time>
      </trkpt>
      <trkpt lat="45.96244" lon="6.32617">
        <ele>1425</ele>
        <time>2016-10-02T07:38:11+02:00</time>
      </trkpt>
      <trkpt lat="45.96243" lon="6.32614">
        <ele>1425</ele>
        <time>2016-10-02T07:38:13+02:00</time>
      </trkpt>
      <trkpt lat="45.96242" lon="6.32612">
        <ele>1425</ele>
        <time>2016-10-02T07:38:15+02:00</time>
      </trkpt>
      <trkpt lat="45.96241" lon="6.3261">
        <ele>1425</ele>
        <time>2016-10-02T07:38:16+02:00</time>
      </trkpt>
      <trkpt lat="45.96239" lon="6.32608">
        <ele>1424</ele>
        <time>2016-10-02T07:38:18+02:00</time>
      </trkpt>
      <trkpt lat="45.96237" lon="6.32607">
        <ele>1424</ele>
        <time>2016-10-02T07:38:20+02:00</time>
      </trkpt>
      <trkpt lat="45.96235" lon="6.32606">
        <ele>1424</ele>
        <time>2016-10-02T07:38:22+02:00</time>
      </trkpt>
      <trkpt lat="45.96232" lon="6.32605">
        <ele>1424</ele>
        <time>2016-10-02T07:38:24+02:00</time>
      </trkpt>
      <trkpt lat="45.9623" lon="6.32604">
        <ele>1423</ele>
        <time>2016-10-02T07:38:26+02:00</time>
      </trkpt>
      <trkpt lat="45.96228" lon="6.32603">
        <ele>1423</ele>
        <time>2016-10-02T07:38:27+02:00</time>
      </trkpt>
      <trkpt lat="45.96226" lon="6.32602">
        <ele>1423</ele>
        <time>2016-10-02T07:38:29+02:00</time>
      </trkpt>
      <trkpt lat="45.96224" lon="6.32602">
        <ele>1423</ele>
        <time>2016-10-02T07:38:31+02:00</time>
      </trkpt>
      <trkpt lat="45.96221" lon="6.32601">
        <ele>1422</ele>
        <time>2016-10-02T07:38:33+02:00</time>
      </trkpt>
      <trkpt lat="45.96219" lon="6.326">
        <ele>1422</ele>
        <time>2016-10-02T07:38:35+02:00</time>
      </trkpt>
      <trkpt lat="45.96217" lon="6.32599">
        <ele>1422</ele>
        <time>2016-10-02T07:38:37+02:00</time>
      </trkpt>
      <trkpt lat="45.96215" lon="6.32598">
        <ele>1422</ele>
        <time>2016-10-02T07:38:38+02:00</time>
      </trkpt>
      <trkpt lat="45.96213" lon="6.32597">
        <ele>1421</ele>
        <time>2016-10-02T07:38:40+02:00</time>
      </trkpt>
      <trkpt lat="45.96211" lon="6.32596">
        <ele>1421</ele>
        <time>2016-10-02T07:38:42+02:00</time>
      </trkpt>
      <trkpt lat="45.96209" lon="6.32595">
        <ele>1421</ele>
        <time>2016-10-02T07:38:44+02:00</time>
      </trkpt>
      <trkpt lat="45.96206" lon="6.32594">
        <ele>1420</ele>
        <time>2016-10-02T07:38:46+02:00</time>
      </trkpt>
      <trkpt lat="45.96204" lon="6.32593">
        <ele>1420</ele>
        <time>2016-10-02T07:38:47+02:00</time>
      </trkpt>
      <trkpt lat="45.96202" lon="6.32592">
        <ele>1420</ele>
        <time>2016-10-02T07:38:49+02:00</time>
      </trkpt>
      <trkpt lat="45.962" lon="6.32592">
        <ele>1420</ele>
        <time>2016-10-02T07:38:51+02:00</time>
      </trkpt>
      <trkpt lat="45.96198" lon="6.32591">
        <ele>1419</ele>
        <time>2016-10-02T07:38:53+02:00</time>
      </trkpt>
      <trkpt lat="45.96195" lon="6.3259">
        <ele>1419</ele>
        <time>2016-10-02T07:38:55+02:00</time>
      </trkpt>
      <trkpt lat="45.96193" lon="6.32589">
        <ele>1419</ele>
        <time>2016-10-02T07:38:57+02:00</time>
      </trkpt>
      <trkpt lat="45.96191" lon="6.32588">
        <ele>1418</ele>
        <time>2016-10-02T07:38:58+02:00</time>
      </trkpt>
      <trkpt lat="45.96189" lon="6.32587">
        <ele>1418</ele>
        <time>2016-10-02T07:39:00+02:00</time>
      </trkpt>
      <trkpt lat="45.96187" lon="6.32586">
        <ele>1418</ele>
        <time>2016-10-02T07:39:02+02:00</time>
      </trkpt>
      <trkpt lat="45.96185" lon="6.32585">
        <ele>1418</ele>
        <time>2016-10-02T07:39:04+02:00</time>
      </trkpt>
      <trkpt lat="45.96183" lon="6.32583">
        <ele>1417</ele>
        <time>2016-10-02T07:39:06+02:00</time>
      </trkpt>
      <trkpt lat="45.96181" lon="6.32582">
        <ele>1417</ele>
        <time>2016-10-02T07:39:08+02:00</time>
      </trkpt>
      <trkpt lat="45.96178" lon="6.3258">
        <ele>1417</ele>
        <time>2016-10-02T07:39:10+02:00</time>
      </trkpt>
      <trkpt lat="45.96176" lon="6.32579">
        <ele>1416</ele>
        <time>2016-10-02T07:39:12+02:00</time>
      </trkpt>
      <trkpt lat="45.96174" lon="6.32577">
        <ele>1416</ele>
        <time>2016-10-02T07:39:14+02:00</time>
      </trkpt>
      <trkpt lat="45.96171" lon="6.32576">
        <ele>1416</ele>
        <time>2016-10-02T07:39:16+02:00</time>
      </trkpt>
      <trkpt lat="45.96169" lon="6.32574">
        <ele>1416</ele>
        <time>2016-10-02T07:39:18+02:00</time>
      </trkpt>
      <trkpt lat="45.96167" lon="6.32572">
        <ele>1415</ele>
        <time>2016-10-02T07:39:20+02:00</time>
      </trkpt>
      <trkpt lat="45.96165" lon="6.32571">
        <ele>1415</ele>
        <time>2016-10-02T07:39:22+02:00</time>
      </trkpt>
      <trkpt lat="45.96162" lon="6.32569">
        <ele>1415</ele>
        <time>2016-10-02T07:39:24+02:00</time>
      </trkpt>
      <trkpt lat="45.9616" lon="6.32567">
        <ele>1415</ele>
        <time>2016-10-02T07:39:27+02:00</time>
      </trkpt>
      <trkpt lat="45.96158" lon="6.32566">
        <ele>1414</ele>
        <time>2016-10-02T07:39:29+02:00</time>
      </trkpt>
      <trkpt lat="45.96156" lon="6.32564">
        <ele>1414</ele>
        <time>2016-10-02T07:39:31+02:00</time>
      </trkpt>
      <trkpt lat="45.96153" lon="6.32562">
        <ele>1414</ele>
        <time>2016-10-02T07:39:33+02:00</time>
      </trkpt>
      <trkpt lat="45.96151" lon="6.3256">
        <ele>1414</ele>
        <time>2016-10-02T07:39:35+02:00</time>
      </trkpt>
      <trkpt lat="45.96149" lon="6.32558">
        <ele>1414</ele>
        <time>2016-10-02T07:39:37+02:00</time>
      </trkpt>
      <trkpt lat="45.96147" lon="6.32557">
        <ele>1413</ele>
        <time>2016-10-02T07:39:39+02:00</time>
      </trkpt>
      <trkpt lat="45.96144" lon="6.32555">
        <ele>1413</ele>
        <time>2016-10-02T07:39:41+02:00</time>
      </trkpt>
      <trkpt lat="45.96142" lon="6.32553">
        <ele>1413</ele>
        <time>2016-10-02T07:39:44+02:00</time>
      </trkpt>
      <trkpt lat="45.96139" lon="6.32552">
        <ele>1413</ele>
        <time>2016-10-02T07:39:46+02:00</time>
      </trkpt>
      <trkpt lat="45.96137" lon="6.32551">
        <ele>1413</ele>
        <time>2016-10-02T07:39:48+02:00</time>
      </trkpt>
      <trkpt lat="45.96134" lon="6.32549">
        <ele>1412</ele>
        <time>2016-10-02T07:39:50+02:00</time>
      </trkpt>
      <trkpt lat="45.96132" lon="6.32548">
        <ele>1412</ele>
        <time>2016-10-02T07:39:53+02:00</time>
      </trkpt>
      <trkpt lat="45.96129" lon="6.32546">
        <ele>1412</ele>
        <time>2016-10-02T07:39:55+02:00</time>
      </trkpt>
      <trkpt lat="45.96127" lon="6.32546">
        <ele>1412</ele>
        <time>2016-10-02T07:39:57+02:00</time>
      </trkpt>
      <trkpt lat="45.96124" lon="6.32546">
        <ele>1411</ele>
        <time>2016-10-02T07:39:59+02:00</time>
      </trkpt>
      <trkpt lat="45.96122" lon="6.32546">
        <ele>1411</ele>
        <time>2016-10-02T07:40:01+02:00</time>
      </trkpt>
      <trkpt lat="45.96119" lon="6.32546">
        <ele>1411</ele>
        <time>2016-10-02T07:40:03+02:00</time>
      </trkpt>
      <trkpt lat="45.96117" lon="6.32546">
        <ele>1411</ele>
        <time>2016-10-02T07:40:05+02:00</time>
      </trkpt>
      <trkpt lat="45.96115" lon="6.32547">
        <ele>1410</ele>
        <time>2016-10-02T07:40:06+02:00</time>
      </trkpt>
      <trkpt lat="45.96113" lon="6.32548">
        <ele>1410</ele>
        <time>2016-10-02T07:40:08+02:00</time>
      </trkpt>
      <trkpt lat="45.9611" lon="6.32549">
        <ele>1410</ele>
        <time>2016-10-02T07:40:10+02:00</time>
      </trkpt>
      <trkpt lat="45.96108" lon="6.32551">
        <ele>1409</ele>
        <time>2016-10-02T07:40:12+02:00</time>
      </trkpt>
      <trkpt lat="45.96106" lon="6.32552">
        <ele>1409</ele>
        <time>2016-10-02T07:40:14+02:00</time>
      </trkpt>
      <trkpt lat="45.96104" lon="6.32553">
        <ele>1409</ele>
        <time>2016-10-02T07:40:16+02:00</time>
      </trkpt>
      <trkpt lat="45.96102" lon="6.32555">
        <ele>1409</ele>
        <time>2016-10-02T07:40:18+02:00</time>
      </trkpt>
      <trkpt lat="45.961" lon="6.32556">
        <ele>1408</ele>
        <time>2016-10-02T07:40:20+02:00</time>
      </trkpt>
      <trkpt lat="45.96097" lon="6.32557">
        <ele>1408</ele>
        <time>2016-10-02T07:40:22+02:00</time>
      </trkpt>
      <trkpt lat="45.96095" lon="6.32559">
        <ele>1408</ele>
        <time>2016-10-02T07:40:24+02:00</time>
      </trkpt>
      <trkpt lat="45.96093" lon="6.3256">
        <ele>1408</ele>
        <time>2016-10-02T07:40:26+02:00</time>
      </trkpt>
      <trkpt lat="45.96091" lon="6.32562">
        <ele>1407</ele>
        <time>2016-10-02T07:40:27+02:00</time>
      </trkpt>
      <trkpt lat="45.96089" lon="6.32564">
        <ele>1407</ele>
        <time>2016-10-02T07:40:30+02:00</time>
      </trkpt>
      <trkpt lat="45.96087" lon="6.32566">
        <ele>1407</ele>
        <time>2016-10-02T07:40:32+02:00</time>
      </trkpt>
      <trkpt lat="45.96085" lon="6.32568">
        <ele>1407</ele>
        <time>2016-10-02T07:40:34+02:00</time>
      </trkpt>
      <trkpt lat="45.96082" lon="6.32569">
        <ele>1406</ele>
        <time>2016-10-02T07:40:36+02:00</time>
      </trkpt>
      <trkpt lat="45.9608" lon="6.32571">
        <ele>1406</ele>
        <time>2016-10-02T07:40:38+02:00</time>
      </trkpt>
      <trkpt lat="45.96077" lon="6.32573">
        <ele>1406</ele>
        <time>2016-10-02T07:40:41+02:00</time>
      </trkpt>
      <trkpt lat="45.96074" lon="6.32575">
        <ele>1406</ele>
        <time>2016-10-02T07:40:43+02:00</time>
      </trkpt>
      <trkpt lat="45.96072" lon="6.32577">
        <ele>1405</ele>
        <time>2016-10-02T07:40:46+02:00</time>
      </trkpt>
      <trkpt lat="45.96069" lon="6.32578">
        <ele>1405</ele>
        <time>2016-10-02T07:40:48+02:00</time>
      </trkpt>
      <trkpt lat="45.96067" lon="6.32579">
        <ele>1405</ele>
        <time>2016-10-02T07:40:50+02:00</time>
      </trkpt>
      <trkpt lat="45.96065" lon="6.32581">
        <ele>1405</ele>
        <time>2016-10-02T07:40:52+02:00</time>
      </trkpt>
      <trkpt lat="45.96063" lon="6.32582">
        <ele>1405</ele>
        <time>2016-10-02T07:40:54+02:00</time>
      </trkpt>
      <trkpt lat="45.96061" lon="6.32583">
        <ele>1404</ele>
        <time>2016-10-02T07:40:55+02:00</time>
      </trkpt>
      <trkpt lat="45.96058" lon="6.32584">
        <ele>1404</ele>
        <time>2016-10-02T07:40:57+02:00</time>
      </trkpt>
      <trkpt lat="45.96057" lon="6.32585">
        <ele>1404</ele>
        <time>2016-10-02T07:40:59+02:00</time>
      </trkpt>
      <trkpt lat="45.96055" lon="6.32586">
        <ele>1404</ele>
        <time>2016-10-02T07:41:00+02:00</time>
      </trkpt>
      <trkpt lat="45.96055" lon="6.32588">
        <ele>1404</ele>
        <time>2016-10-02T07:41:01+02:00</time>
      </trkpt>
      <trkpt lat="45.96054" lon="6.32589">
        <ele>1404</ele>
        <time>2016-10-02T07:41:02+02:00</time>
      </trkpt>
      <trkpt lat="45.96052" lon="6.3259">
        <ele>1404</ele>
        <time>2016-10-02T07:41:03+02:00</time>
      </trkpt>
      <trkpt lat="45.96051" lon="6.3259">
        <ele>1404</ele>
        <time>2016-10-02T07:41:05+02:00</time>
      </trkpt>
      <trkpt lat="45.96049" lon="6.3259">
        <ele>1404</ele>
        <time>2016-10-02T07:41:06+02:00</time>
      </trkpt>
      <trkpt lat="45.96048" lon="6.3259">
        <ele>1404</ele>
        <time>2016-10-02T07:41:07+02:00</time>
      </trkpt>
      <trkpt lat="45.96047" lon="6.32589">
        <ele>1404</ele>
        <time>2016-10-02T07:41:08+02:00</time>
      </trkpt>
      <trkpt lat="45.96045" lon="6.32588">
        <ele>1403</ele>
        <time>2016-10-02T07:41:10+02:00</time>
      </trkpt>
      <trkpt lat="45.96043" lon="6.32587">
        <ele>1403</ele>
        <time>2016-10-02T07:41:11+02:00</time>
      </trkpt>
      <trkpt lat="45.96042" lon="6.32585">
        <ele>1403</ele>
        <time>2016-10-02T07:41:13+02:00</time>
      </trkpt>
      <trkpt lat="45.9604" lon="6.32584">
        <ele>1403</ele>
        <time>2016-10-02T07:41:14+02:00</time>
      </trkpt>
      <trkpt lat="45.96038" lon="6.32583">
        <ele>1403</ele>
        <time>2016-10-02T07:41:16+02:00</time>
      </trkpt>
      <trkpt lat="45.96037" lon="6.32582">
        <ele>1403</ele>
        <time>2016-10-02T07:41:17+02:00</time>
      </trkpt>
      <trkpt lat="45.96035" lon="6.32581">
        <ele>1403</ele>
        <time>2016-10-02T07:41:18+02:00</time>
      </trkpt>
      <trkpt lat="45.96033" lon="6.32581">
        <ele>1402</ele>
        <time>2016-10-02T07:41:20+02:00</time>
      </trkpt>
      <trkpt lat="45.96031" lon="6.32581">
        <ele>1402</ele>
        <time>2016-10-02T07:41:22+02:00</time>
      </trkpt>
      <trkpt lat="45.96029" lon="6.32581">
        <ele>1402</ele>
        <time>2016-10-02T07:41:24+02:00</time>
      </trkpt>
      <trkpt lat="45.96027" lon="6.32581">
        <ele>1402</ele>
        <time>2016-10-02T07:41:25+02:00</time>
      </trkpt>
      <trkpt lat="45.96025" lon="6.32581">
        <ele>1402</ele>
        <time>2016-10-02T07:41:27+02:00</time>
      </trkpt>
      <trkpt lat="45.96023" lon="6.32581">
        <ele>1402</ele>
        <time>2016-10-02T07:41:28+02:00</time>
      </trkpt>
      <trkpt lat="45.96022" lon="6.32581">
        <ele>1402</ele>
        <time>2016-10-02T07:41:30+02:00</time>
      </trkpt>
      <trkpt lat="45.96019" lon="6.3258">
        <ele>1401</ele>
        <time>2016-10-02T07:41:31+02:00</time>
      </trkpt>
      <trkpt lat="45.96018" lon="6.32579">
        <ele>1401</ele>
        <time>2016-10-02T07:41:33+02:00</time>
      </trkpt>
      <trkpt lat="45.96016" lon="6.32579">
        <ele>1401</ele>
        <time>2016-10-02T07:41:34+02:00</time>
      </trkpt>
      <trkpt lat="45.96014" lon="6.32578">
        <ele>1401</ele>
        <time>2016-10-02T07:41:36+02:00</time>
      </trkpt>
      <trkpt lat="45.96013" lon="6.32577">
        <ele>1401</ele>
        <time>2016-10-02T07:41:37+02:00</time>
      </trkpt>
      <trkpt lat="45.96012" lon="6.32577">
        <ele>1401</ele>
        <time>2016-10-02T07:41:38+02:00</time>
      </trkpt>
      <trkpt lat="45.9601" lon="6.32576">
        <ele>1401</ele>
        <time>2016-10-02T07:41:39+02:00</time>
      </trkpt>
      <trkpt lat="45.96009" lon="6.32575">
        <ele>1401</ele>
        <time>2016-10-02T07:41:40+02:00</time>
      </trkpt>
      <trkpt lat="45.96008" lon="6.32574">
        <ele>1401</ele>
        <time>2016-10-02T07:41:41+02:00</time>
      </trkpt>
      <trkpt lat="45.96007" lon="6.32573">
        <ele>1401</ele>
        <time>2016-10-02T07:41:43+02:00</time>
      </trkpt>
      <trkpt lat="45.96006" lon="6.32571">
        <ele>1400</ele>
        <time>2016-10-02T07:41:44+02:00</time>
      </trkpt>
      <trkpt lat="45.96005" lon="6.32569">
        <ele>1400</ele>
        <time>2016-10-02T07:41:45+02:00</time>
      </trkpt>
      <trkpt lat="45.96004" lon="6.32567">
        <ele>1400</ele>
        <time>2016-10-02T07:41:46+02:00</time>
      </trkpt>
      <trkpt lat="45.96003" lon="6.32566">
        <ele>1400</ele>
        <time>2016-10-02T07:41:48+02:00</time>
      </trkpt>
      <trkpt lat="45.96002" lon="6.32564">
        <ele>1400</ele>
        <time>2016-10-02T07:41:49+02:00</time>
      </trkpt>
      <trkpt lat="45.96" lon="6.32561">
        <ele>1400</ele>
        <time>2016-10-02T07:41:51+02:00</time>
      </trkpt>
      <trkpt lat="45.95999" lon="6.32559">
        <ele>1400</ele>
        <time>2016-10-02T07:41:53+02:00</time>
      </trkpt>
      <trkpt lat="45.95998" lon="6.32556">
        <ele>1400</ele>
        <time>2016-10-02T07:41:55+02:00</time>
      </trkpt>
      <trkpt lat="45.95997" lon="6.32553">
        <ele>1400</ele>
        <time>2016-10-02T07:41:56+02:00</time>
      </trkpt>
      <trkpt lat="45.95995" lon="6.3255">
        <ele>1400</ele>
        <time>2016-10-02T07:41:58+02:00</time>
      </trkpt>
      <trkpt lat="45.95994" lon="6.32547">
        <ele>1400</ele>
        <time>2016-10-02T07:42:00+02:00</time>
      </trkpt>
      <trkpt lat="45.95993" lon="6.32545">
        <ele>1400</ele>
        <time>2016-10-02T07:42:02+02:00</time>
      </trkpt>
      <trkpt lat="45.95991" lon="6.32541">
        <ele>1400</ele>
        <time>2016-10-02T07:42:04+02:00</time>
      </trkpt>
      <trkpt lat="45.9599" lon="6.32538">
        <ele>1400</ele>
        <time>2016-10-02T07:42:06+02:00</time>
      </trkpt>
      <trkpt lat="45.95989" lon="6.32535">
        <ele>1400</ele>
        <time>2016-10-02T07:42:09+02:00</time>
      </trkpt>
      <trkpt lat="45.95988" lon="6.32531">
        <ele>1400</ele>
        <time>2016-10-02T07:42:11+02:00</time>
      </trkpt>
      <trkpt lat="45.95987" lon="6.32528">
        <ele>1400</ele>
        <time>2016-10-02T07:42:13+02:00</time>
      </trkpt>
      <trkpt lat="45.95985" lon="6.32524">
        <ele>1400</ele>
        <time>2016-10-02T07:42:15+02:00</time>
      </trkpt>
      <trkpt lat="45.95984" lon="6.32521">
        <ele>1400</ele>
        <time>2016-10-02T07:42:17+02:00</time>
      </trkpt>
      <trkpt lat="45.95983" lon="6.32517">
        <ele>1400</ele>
        <time>2016-10-02T07:42:20+02:00</time>
      </trkpt>
      <trkpt lat="45.95982" lon="6.32514">
        <ele>1400</ele>
        <time>2016-10-02T07:42:22+02:00</time>
      </trkpt>
      <trkpt lat="45.95981" lon="6.32511">
        <ele>1400</ele>
        <time>2016-10-02T07:42:24+02:00</time>
      </trkpt>
      <trkpt lat="45.9598" lon="6.32507">
        <ele>1400</ele>
        <time>2016-10-02T07:42:26+02:00</time>
      </trkpt>
      <trkpt lat="45.95979" lon="6.32504">
        <ele>1400</ele>
        <time>2016-10-02T07:42:28+02:00</time>
      </trkpt>
      <trkpt lat="45.95978" lon="6.325">
        <ele>1400</ele>
        <time>2016-10-02T07:42:30+02:00</time>
      </trkpt>
      <trkpt lat="45.95977" lon="6.32497">
        <ele>1400</ele>
        <time>2016-10-02T07:42:32+02:00</time>
      </trkpt>
      <trkpt lat="45.95976" lon="6.32493">
        <ele>1400</ele>
        <time>2016-10-02T07:42:35+02:00</time>
      </trkpt>
      <trkpt lat="45.95974" lon="6.3249">
        <ele>1401</ele>
        <time>2016-10-02T07:42:37+02:00</time>
      </trkpt>
      <trkpt lat="45.95972" lon="6.32487">
        <ele>1401</ele>
        <time>2016-10-02T07:42:39+02:00</time>
      </trkpt>
      <trkpt lat="45.9597" lon="6.32485">
        <ele>1401</ele>
        <time>2016-10-02T07:42:41+02:00</time>
      </trkpt>
      <trkpt lat="45.95968" lon="6.32482">
        <ele>1401</ele>
        <time>2016-10-02T07:42:43+02:00</time>
      </trkpt>
      <trkpt lat="45.95966" lon="6.3248">
        <ele>1401</ele>
        <time>2016-10-02T07:42:46+02:00</time>
      </trkpt>
      <trkpt lat="45.95964" lon="6.32478">
        <ele>1401</ele>
        <time>2016-10-02T07:42:48+02:00</time>
      </trkpt>
      <trkpt lat="45.95961" lon="6.32476">
        <ele>1401</ele>
        <time>2016-10-02T07:42:50+02:00</time>
      </trkpt>
      <trkpt lat="45.95959" lon="6.32474">
        <ele>1401</ele>
        <time>2016-10-02T07:42:52+02:00</time>
      </trkpt>
      <trkpt lat="45.95957" lon="6.32472">
        <ele>1401</ele>
        <time>2016-10-02T07:42:54+02:00</time>
      </trkpt>
      <trkpt lat="45.95955" lon="6.3247">
        <ele>1401</ele>
        <time>2016-10-02T07:42:56+02:00</time>
      </trkpt>
      <trkpt lat="45.95954" lon="6.32468">
        <ele>1401</ele>
        <time>2016-10-02T07:42:57+02:00</time>
      </trkpt>
      <trkpt lat="45.95952" lon="6.32466">
        <ele>1401</ele>
        <time>2016-10-02T07:42:59+02:00</time>
      </trkpt>
      <trkpt lat="45.9595" lon="6.32464">
        <ele>1401</ele>
        <time>2016-10-02T07:43:01+02:00</time>
      </trkpt>
      <trkpt lat="45.95948" lon="6.32462">
        <ele>1401</ele>
        <time>2016-10-02T07:43:03+02:00</time>
      </trkpt>
      <trkpt lat="45.95946" lon="6.3246">
        <ele>1401</ele>
        <time>2016-10-02T07:43:05+02:00</time>
      </trkpt>
      <trkpt lat="45.95944" lon="6.32457">
        <ele>1401</ele>
        <time>2016-10-02T07:43:07+02:00</time>
      </trkpt>
      <trkpt lat="45.95942" lon="6.32455">
        <ele>1401</ele>
        <time>2016-10-02T07:43:09+02:00</time>
      </trkpt>
      <trkpt lat="45.9594" lon="6.32452">
        <ele>1401</ele>
        <time>2016-10-02T07:43:11+02:00</time>
      </trkpt>
      <trkpt lat="45.95938" lon="6.3245">
        <ele>1401</ele>
        <time>2016-10-02T07:43:13+02:00</time>
      </trkpt>
      <trkpt lat="45.95936" lon="6.32447">
        <ele>1401</ele>
        <time>2016-10-02T07:43:16+02:00</time>
      </trkpt>
      <trkpt lat="45.95934" lon="6.32445">
        <ele>1401</ele>
        <time>2016-10-02T07:43:18+02:00</time>
      </trkpt>
      <trkpt lat="45.95932" lon="6.32443">
        <ele>1401</ele>
        <time>2016-10-02T07:43:20+02:00</time>
      </trkpt>
      <trkpt lat="45.9593" lon="6.3244">
        <ele>1401</ele>
        <time>2016-10-02T07:43:22+02:00</time>
      </trkpt>
      <trkpt lat="45.95929" lon="6.32438">
        <ele>1401</ele>
        <time>2016-10-02T07:43:24+02:00</time>
      </trkpt>
      <trkpt lat="45.95927" lon="6.32435">
        <ele>1400</ele>
        <time>2016-10-02T07:43:26+02:00</time>
      </trkpt>
      <trkpt lat="45.95925" lon="6.32433">
        <ele>1400</ele>
        <time>2016-10-02T07:43:28+02:00</time>
      </trkpt>
      <trkpt lat="45.95923" lon="6.32431">
        <ele>1400</ele>
        <time>2016-10-02T07:43:30+02:00</time>
      </trkpt>
      <trkpt lat="45.95921" lon="6.32428">
        <ele>1400</ele>
        <time>2016-10-02T07:43:32+02:00</time>
      </trkpt>
      <trkpt lat="45.95919" lon="6.32425">
        <ele>1400</ele>
        <time>2016-10-02T07:43:34+02:00</time>
      </trkpt>
      <trkpt lat="45.95917" lon="6.32423">
        <ele>1400</ele>
        <time>2016-10-02T07:43:36+02:00</time>
      </trkpt>
      <trkpt lat="45.95915" lon="6.3242">
        <ele>1400</ele>
        <time>2016-10-02T07:43:38+02:00</time>
      </trkpt>
      <trkpt lat="45.95914" lon="6.32418">
        <ele>1400</ele>
        <time>2016-10-02T07:43:40+02:00</time>
      </trkpt>
      <trkpt lat="45.95912" lon="6.32415">
        <ele>1400</ele>
        <time>2016-10-02T07:43:42+02:00</time>
      </trkpt>
      <trkpt lat="45.9591" lon="6.32412">
        <ele>1400</ele>
        <time>2016-10-02T07:43:44+02:00</time>
      </trkpt>
      <trkpt lat="45.95909" lon="6.3241">
        <ele>1401</ele>
        <time>2016-10-02T07:43:46+02:00</time>
      </trkpt>
      <trkpt lat="45.95907" lon="6.32407">
        <ele>1401</ele>
        <time>2016-10-02T07:43:48+02:00</time>
      </trkpt>
      <trkpt lat="45.95905" lon="6.32404">
        <ele>1401</ele>
        <time>2016-10-02T07:43:50+02:00</time>
      </trkpt>
      <trkpt lat="45.95903" lon="6.32402">
        <ele>1401</ele>
        <time>2016-10-02T07:43:53+02:00</time>
      </trkpt>
      <trkpt lat="45.95901" lon="6.32399">
        <ele>1401</ele>
        <time>2016-10-02T07:43:55+02:00</time>
      </trkpt>
      <trkpt lat="45.95899" lon="6.32397">
        <ele>1401</ele>
        <time>2016-10-02T07:43:57+02:00</time>
      </trkpt>
      <trkpt lat="45.95897" lon="6.32394">
        <ele>1401</ele>
        <time>2016-10-02T07:43:59+02:00</time>
      </trkpt>
      <trkpt lat="45.95895" lon="6.32392">
        <ele>1401</ele>
        <time>2016-10-02T07:44:01+02:00</time>
      </trkpt>
      <trkpt lat="45.95893" lon="6.3239">
        <ele>1401</ele>
        <time>2016-10-02T07:44:03+02:00</time>
      </trkpt>
      <trkpt lat="45.95891" lon="6.32387">
        <ele>1401</ele>
        <time>2016-10-02T07:44:05+02:00</time>
      </trkpt>
      <trkpt lat="45.95889" lon="6.32385">
        <ele>1401</ele>
        <time>2016-10-02T07:44:07+02:00</time>
      </trkpt>
      <trkpt lat="45.95887" lon="6.32383">
        <ele>1401</ele>
        <time>2016-10-02T07:44:09+02:00</time>
      </trkpt>
      <trkpt lat="45.95885" lon="6.32381">
        <ele>1401</ele>
        <time>2016-10-02T07:44:11+02:00</time>
      </trkpt>
      <trkpt lat="45.95883" lon="6.32379">
        <ele>1401</ele>
        <time>2016-10-02T07:44:13+02:00</time>
      </trkpt>
      <trkpt lat="45.9588" lon="6.32376">
        <ele>1401</ele>
        <time>2016-10-02T07:44:16+02:00</time>
      </trkpt>
      <trkpt lat="45.95878" lon="6.32374">
        <ele>1401</ele>
        <time>2016-10-02T07:44:18+02:00</time>
      </trkpt>
      <trkpt lat="45.95876" lon="6.32372">
        <ele>1401</ele>
        <time>2016-10-02T07:44:20+02:00</time>
      </trkpt>
      <trkpt lat="45.95874" lon="6.32371">
        <ele>1401</ele>
        <time>2016-10-02T07:44:22+02:00</time>
      </trkpt>
      <trkpt lat="45.95871" lon="6.32369">
        <ele>1401</ele>
        <time>2016-10-02T07:44:24+02:00</time>
      </trkpt>
      <trkpt lat="45.95869" lon="6.32367">
        <ele>1401</ele>
        <time>2016-10-02T07:44:26+02:00</time>
      </trkpt>
      <trkpt lat="45.95867" lon="6.32366">
        <ele>1401</ele>
        <time>2016-10-02T07:44:28+02:00</time>
      </trkpt>
      <trkpt lat="45.95865" lon="6.32364">
        <ele>1401</ele>
        <time>2016-10-02T07:44:30+02:00</time>
      </trkpt>
      <trkpt lat="45.95862" lon="6.32362">
        <ele>1401</ele>
        <time>2016-10-02T07:44:32+02:00</time>
      </trkpt>
      <trkpt lat="45.9586" lon="6.32361">
        <ele>1401</ele>
        <time>2016-10-02T07:44:34+02:00</time>
      </trkpt>
      <trkpt lat="45.95857" lon="6.32359">
        <ele>1401</ele>
        <time>2016-10-02T07:44:37+02:00</time>
      </trkpt>
      <trkpt lat="45.95855" lon="6.32357">
        <ele>1401</ele>
        <time>2016-10-02T07:44:38+02:00</time>
      </trkpt>
      <trkpt lat="45.95853" lon="6.32356">
        <ele>1401</ele>
        <time>2016-10-02T07:44:40+02:00</time>
      </trkpt>
      <trkpt lat="45.95851" lon="6.32353">
        <ele>1401</ele>
        <time>2016-10-02T07:44:42+02:00</time>
      </trkpt>
      <trkpt lat="45.95849" lon="6.32352">
        <ele>1401</ele>
        <time>2016-10-02T07:44:44+02:00</time>
      </trkpt>
      <trkpt lat="45.95847" lon="6.3235">
        <ele>1401</ele>
        <time>2016-10-02T07:44:46+02:00</time>
      </trkpt>
      <trkpt lat="45.95845" lon="6.32348">
        <ele>1401</ele>
        <time>2016-10-02T07:44:48+02:00</time>
      </trkpt>
      <trkpt lat="45.95843" lon="6.32346">
        <ele>1401</ele>
        <time>2016-10-02T07:44:50+02:00</time>
      </trkpt>
      <trkpt lat="45.95841" lon="6.32344">
        <ele>1401</ele>
        <time>2016-10-02T07:44:52+02:00</time>
      </trkpt>
      <trkpt lat="45.95839" lon="6.32343">
        <ele>1401</ele>
        <time>2016-10-02T07:44:54+02:00</time>
      </trkpt>
      <trkpt lat="45.95836" lon="6.3234">
        <ele>1400</ele>
        <time>2016-10-02T07:44:56+02:00</time>
      </trkpt>
      <trkpt lat="45.95834" lon="6.32338">
        <ele>1400</ele>
        <time>2016-10-02T07:44:59+02:00</time>
      </trkpt>
      <trkpt lat="45.95832" lon="6.32336">
        <ele>1400</ele>
        <time>2016-10-02T07:45:00+02:00</time>
      </trkpt>
      <trkpt lat="45.9583" lon="6.32335">
        <ele>1400</ele>
        <time>2016-10-02T07:45:02+02:00</time>
      </trkpt>
      <trkpt lat="45.95828" lon="6.32333">
        <ele>1401</ele>
        <time>2016-10-02T07:45:04+02:00</time>
      </trkpt>
      <trkpt lat="45.95826" lon="6.32332">
        <ele>1401</ele>
        <time>2016-10-02T07:45:06+02:00</time>
      </trkpt>
      <trkpt lat="45.95824" lon="6.3233">
        <ele>1401</ele>
        <time>2016-10-02T07:45:08+02:00</time>
      </trkpt>
      <trkpt lat="45.95822" lon="6.32329">
        <ele>1401</ele>
        <time>2016-10-02T07:45:10+02:00</time>
      </trkpt>
      <trkpt lat="45.95819" lon="6.32327">
        <ele>1402</ele>
        <time>2016-10-02T07:45:12+02:00</time>
      </trkpt>
      <trkpt lat="45.95817" lon="6.32325">
        <ele>1402</ele>
        <time>2016-10-02T07:45:14+02:00</time>
      </trkpt>
      <trkpt lat="45.95815" lon="6.32323">
        <ele>1402</ele>
        <time>2016-10-02T07:45:16+02:00</time>
      </trkpt>
      <trkpt lat="45.95812" lon="6.32322">
        <ele>1402</ele>
        <time>2016-10-02T07:45:18+02:00</time>
      </trkpt>
      <trkpt lat="45.9581" lon="6.32321">
        <ele>1402</ele>
        <time>2016-10-02T07:45:20+02:00</time>
      </trkpt>
      <trkpt lat="45.95808" lon="6.3232">
        <ele>1402</ele>
        <time>2016-10-02T07:45:23+02:00</time>
      </trkpt>
      <trkpt lat="45.95805" lon="6.32318">
        <ele>1403</ele>
        <time>2016-10-02T07:45:25+02:00</time>
      </trkpt>
      <trkpt lat="45.95803" lon="6.32317">
        <ele>1403</ele>
        <time>2016-10-02T07:45:27+02:00</time>
      </trkpt>
      <trkpt lat="45.95801" lon="6.32315">
        <ele>1403</ele>
        <time>2016-10-02T07:45:29+02:00</time>
      </trkpt>
      <trkpt lat="45.95799" lon="6.32314">
        <ele>1403</ele>
        <time>2016-10-02T07:45:30+02:00</time>
      </trkpt>
      <trkpt lat="45.95797" lon="6.32312">
        <ele>1403</ele>
        <time>2016-10-02T07:45:32+02:00</time>
      </trkpt>
      <trkpt lat="45.95794" lon="6.3231">
        <ele>1403</ele>
        <time>2016-10-02T07:45:34+02:00</time>
      </trkpt>
      <trkpt lat="45.95792" lon="6.32309">
        <ele>1403</ele>
        <time>2016-10-02T07:45:36+02:00</time>
      </trkpt>
      <trkpt lat="45.9579" lon="6.32308">
        <ele>1403</ele>
        <time>2016-10-02T07:45:38+02:00</time>
      </trkpt>
      <trkpt lat="45.95788" lon="6.32306">
        <ele>1403</ele>
        <time>2016-10-02T07:45:40+02:00</time>
      </trkpt>
      <trkpt lat="45.95786" lon="6.32304">
        <ele>1403</ele>
        <time>2016-10-02T07:45:42+02:00</time>
      </trkpt>
      <trkpt lat="45.95784" lon="6.32303">
        <ele>1403</ele>
        <time>2016-10-02T07:45:44+02:00</time>
      </trkpt>
      <trkpt lat="45.95782" lon="6.32301">
        <ele>1403</ele>
        <time>2016-10-02T07:45:46+02:00</time>
      </trkpt>
      <trkpt lat="45.95779" lon="6.32299">
        <ele>1403</ele>
        <time>2016-10-02T07:45:48+02:00</time>
      </trkpt>
      <trkpt lat="45.95777" lon="6.32297">
        <ele>1403</ele>
        <time>2016-10-02T07:45:50+02:00</time>
      </trkpt>
      <trkpt lat="45.95775" lon="6.32296">
        <ele>1403</ele>
        <time>2016-10-02T07:45:52+02:00</time>
      </trkpt>
      <trkpt lat="45.95773" lon="6.32294">
        <ele>1403</ele>
        <time>2016-10-02T07:45:54+02:00</time>
      </trkpt>
      <trkpt lat="45.95771" lon="6.32291">
        <ele>1403</ele>
        <time>2016-10-02T07:45:56+02:00</time>
      </trkpt>
      <trkpt lat="45.95769" lon="6.32289">
        <ele>1402</ele>
        <time>2016-10-02T07:45:58+02:00</time>
      </trkpt>
      <trkpt lat="45.95768" lon="6.32287">
        <ele>1402</ele>
        <time>2016-10-02T07:46:00+02:00</time>
      </trkpt>
      <trkpt lat="45.95766" lon="6.32285">
        <ele>1402</ele>
        <time>2016-10-02T07:46:02+02:00</time>
      </trkpt>
      <trkpt lat="45.95764" lon="6.32283">
        <ele>1402</ele>
        <time>2016-10-02T07:46:04+02:00</time>
      </trkpt>
      <trkpt lat="45.95762" lon="6.32281">
        <ele>1402</ele>
        <time>2016-10-02T07:46:06+02:00</time>
      </trkpt>
      <trkpt lat="45.9576" lon="6.32279">
        <ele>1401</ele>
        <time>2016-10-02T07:46:08+02:00</time>
      </trkpt>
      <trkpt lat="45.95758" lon="6.32277">
        <ele>1401</ele>
        <time>2016-10-02T07:46:09+02:00</time>
      </trkpt>
      <trkpt lat="45.95756" lon="6.32275">
        <ele>1401</ele>
        <time>2016-10-02T07:46:12+02:00</time>
      </trkpt>
      <trkpt lat="45.95754" lon="6.32272">
        <ele>1400</ele>
        <time>2016-10-02T07:46:14+02:00</time>
      </trkpt>
      <trkpt lat="45.95752" lon="6.3227">
        <ele>1400</ele>
        <time>2016-10-02T07:46:16+02:00</time>
      </trkpt>
      <trkpt lat="45.95751" lon="6.32268">
        <ele>1400</ele>
        <time>2016-10-02T07:46:18+02:00</time>
      </trkpt>
      <trkpt lat="45.95749" lon="6.32265">
        <ele>1399</ele>
        <time>2016-10-02T07:46:20+02:00</time>
      </trkpt>
      <trkpt lat="45.95747" lon="6.32263">
        <ele>1399</ele>
        <time>2016-10-02T07:46:22+02:00</time>
      </trkpt>
      <trkpt lat="45.95745" lon="6.3226">
        <ele>1399</ele>
        <time>2016-10-02T07:46:24+02:00</time>
      </trkpt>
      <trkpt lat="45.95743" lon="6.32258">
        <ele>1399</ele>
        <time>2016-10-02T07:46:26+02:00</time>
      </trkpt>
      <trkpt lat="45.95742" lon="6.32255">
        <ele>1399</ele>
        <time>2016-10-02T07:46:28+02:00</time>
      </trkpt>
      <trkpt lat="45.9574" lon="6.32253">
        <ele>1398</ele>
        <time>2016-10-02T07:46:30+02:00</time>
      </trkpt>
      <trkpt lat="45.95738" lon="6.32251">
        <ele>1398</ele>
        <time>2016-10-02T07:46:32+02:00</time>
      </trkpt>
      <trkpt lat="45.95736" lon="6.32248">
        <ele>1398</ele>
        <time>2016-10-02T07:46:34+02:00</time>
      </trkpt>
      <trkpt lat="45.95734" lon="6.32246">
        <ele>1398</ele>
        <time>2016-10-02T07:46:36+02:00</time>
      </trkpt>
      <trkpt lat="45.95732" lon="6.32243">
        <ele>1398</ele>
        <time>2016-10-02T07:46:38+02:00</time>
      </trkpt>
      <trkpt lat="45.9573" lon="6.32241">
        <ele>1398</ele>
        <time>2016-10-02T07:46:40+02:00</time>
      </trkpt>
      <trkpt lat="45.95728" lon="6.32239">
        <ele>1398</ele>
        <time>2016-10-02T07:46:42+02:00</time>
      </trkpt>
      <trkpt lat="45.95726" lon="6.32237">
        <ele>1398</ele>
        <time>2016-10-02T07:46:44+02:00</time>
      </trkpt>
      <trkpt lat="45.95724" lon="6.32235">
        <ele>1398</ele>
        <time>2016-10-02T07:46:46+02:00</time>
      </trkpt>
      <trkpt lat="45.95721" lon="6.32233">
        <ele>1398</ele>
        <time>2016-10-02T07:46:48+02:00</time>
      </trkpt>
      <trkpt lat="45.95719" lon="6.32231">
        <ele>1397</ele>
        <time>2016-10-02T07:46:50+02:00</time>
      </trkpt>
      <trkpt lat="45.95717" lon="6.32229">
        <ele>1397</ele>
        <time>2016-10-02T07:46:52+02:00</time>
      </trkpt>
      <trkpt lat="45.95715" lon="6.32227">
        <ele>1397</ele>
        <time>2016-10-02T07:46:54+02:00</time>
      </trkpt>
      <trkpt lat="45.95713" lon="6.32225">
        <ele>1397</ele>
        <time>2016-10-02T07:46:56+02:00</time>
      </trkpt>
      <trkpt lat="45.95711" lon="6.32223">
        <ele>1397</ele>
        <time>2016-10-02T07:46:58+02:00</time>
      </trkpt>
      <trkpt lat="45.9571" lon="6.32221">
        <ele>1396</ele>
        <time>2016-10-02T07:47:00+02:00</time>
      </trkpt>
      <trkpt lat="45.95708" lon="6.32219">
        <ele>1396</ele>
        <time>2016-10-02T07:47:02+02:00</time>
      </trkpt>
      <trkpt lat="45.95706" lon="6.32216">
        <ele>1396</ele>
        <time>2016-10-02T07:47:04+02:00</time>
      </trkpt>
      <trkpt lat="45.95704" lon="6.32214">
        <ele>1396</ele>
        <time>2016-10-02T07:47:05+02:00</time>
      </trkpt>
      <trkpt lat="45.95703" lon="6.32212">
        <ele>1395</ele>
        <time>2016-10-02T07:47:07+02:00</time>
      </trkpt>
      <trkpt lat="45.95701" lon="6.3221">
        <ele>1395</ele>
        <time>2016-10-02T07:47:09+02:00</time>
      </trkpt>
      <trkpt lat="45.95699" lon="6.32207">
        <ele>1395</ele>
        <time>2016-10-02T07:47:11+02:00</time>
      </trkpt>
      <trkpt lat="45.95697" lon="6.32205">
        <ele>1394</ele>
        <time>2016-10-02T07:47:13+02:00</time>
      </trkpt>
      <trkpt lat="45.95695" lon="6.32203">
        <ele>1394</ele>
        <time>2016-10-02T07:47:15+02:00</time>
      </trkpt>
      <trkpt lat="45.95694" lon="6.322">
        <ele>1393</ele>
        <time>2016-10-02T07:47:17+02:00</time>
      </trkpt>
      <trkpt lat="45.95692" lon="6.32198">
        <ele>1393</ele>
        <time>2016-10-02T07:47:19+02:00</time>
      </trkpt>
      <trkpt lat="45.9569" lon="6.32195">
        <ele>1393</ele>
        <time>2016-10-02T07:47:21+02:00</time>
      </trkpt>
      <trkpt lat="45.95688" lon="6.32193">
        <ele>1392</ele>
        <time>2016-10-02T07:47:23+02:00</time>
      </trkpt>
      <trkpt lat="45.95686" lon="6.32191">
        <ele>1392</ele>
        <time>2016-10-02T07:47:25+02:00</time>
      </trkpt>
      <trkpt lat="45.95684" lon="6.32189">
        <ele>1391</ele>
        <time>2016-10-02T07:47:27+02:00</time>
      </trkpt>
      <trkpt lat="45.95682" lon="6.32188">
        <ele>1391</ele>
        <time>2016-10-02T07:47:29+02:00</time>
      </trkpt>
      <trkpt lat="45.95681" lon="6.32187">
        <ele>1391</ele>
        <time>2016-10-02T07:47:30+02:00</time>
      </trkpt>
      <trkpt lat="45.95679" lon="6.32186">
        <ele>1391</ele>
        <time>2016-10-02T07:47:31+02:00</time>
      </trkpt>
      <trkpt lat="45.95678" lon="6.32185">
        <ele>1390</ele>
        <time>2016-10-02T07:47:32+02:00</time>
      </trkpt>
      <trkpt lat="45.95677" lon="6.32185">
        <ele>1390</ele>
        <time>2016-10-02T07:47:33+02:00</time>
      </trkpt>
      <trkpt lat="45.95674" lon="6.32184">
        <ele>1390</ele>
        <time>2016-10-02T07:47:35+02:00</time>
      </trkpt>
      <trkpt lat="45.95673" lon="6.32182">
        <ele>1390</ele>
        <time>2016-10-02T07:47:37+02:00</time>
      </trkpt>
      <trkpt lat="45.95672" lon="6.3218">
        <ele>1389</ele>
        <time>2016-10-02T07:47:38+02:00</time>
      </trkpt>
      <trkpt lat="45.95671" lon="6.32178">
        <ele>1389</ele>
        <time>2016-10-02T07:47:39+02:00</time>
      </trkpt>
      <trkpt lat="45.9567" lon="6.32176">
        <ele>1388</ele>
        <time>2016-10-02T07:47:41+02:00</time>
      </trkpt>
      <trkpt lat="45.95669" lon="6.32173">
        <ele>1388</ele>
        <time>2016-10-02T07:47:43+02:00</time>
      </trkpt>
      <trkpt lat="45.95667" lon="6.32171">
        <ele>1387</ele>
        <time>2016-10-02T07:47:45+02:00</time>
      </trkpt>
      <trkpt lat="45.95666" lon="6.32169">
        <ele>1387</ele>
        <time>2016-10-02T07:47:46+02:00</time>
      </trkpt>
      <trkpt lat="45.95664" lon="6.32167">
        <ele>1386</ele>
        <time>2016-10-02T07:47:48+02:00</time>
      </trkpt>
      <trkpt lat="45.95662" lon="6.32165">
        <ele>1386</ele>
        <time>2016-10-02T07:47:50+02:00</time>
      </trkpt>
      <trkpt lat="45.9566" lon="6.32164">
        <ele>1386</ele>
        <time>2016-10-02T07:47:52+02:00</time>
      </trkpt>
      <trkpt lat="45.95658" lon="6.32163">
        <ele>1386</ele>
        <time>2016-10-02T07:47:54+02:00</time>
      </trkpt>
      <trkpt lat="45.95655" lon="6.32162">
        <ele>1386</ele>
        <time>2016-10-02T07:47:56+02:00</time>
      </trkpt>
      <trkpt lat="45.95653" lon="6.32162">
        <ele>1386</ele>
        <time>2016-10-02T07:47:58+02:00</time>
      </trkpt>
      <trkpt lat="45.9565" lon="6.32162">
        <ele>1386</ele>
        <time>2016-10-02T07:48:00+02:00</time>
      </trkpt>
      <trkpt lat="45.95647" lon="6.32162">
        <ele>1386</ele>
        <time>2016-10-02T07:48:03+02:00</time>
      </trkpt>
      <trkpt lat="45.95644" lon="6.32162">
        <ele>1386</ele>
        <time>2016-10-02T07:48:05+02:00</time>
      </trkpt>
      <trkpt lat="45.95642" lon="6.32163">
        <ele>1386</ele>
        <time>2016-10-02T07:48:07+02:00</time>
      </trkpt>
      <trkpt lat="45.95639" lon="6.32164">
        <ele>1386</ele>
        <time>2016-10-02T07:48:10+02:00</time>
      </trkpt>
      <trkpt lat="45.95636" lon="6.32165">
        <ele>1386</ele>
        <time>2016-10-02T07:48:12+02:00</time>
      </trkpt>
      <trkpt lat="45.95633" lon="6.32167">
        <ele>1386</ele>
        <time>2016-10-02T07:48:14+02:00</time>
      </trkpt>
      <trkpt lat="45.95631" lon="6.32168">
        <ele>1387</ele>
        <time>2016-10-02T07:48:16+02:00</time>
      </trkpt>
      <trkpt lat="45.95628" lon="6.3217">
        <ele>1387</ele>
        <time>2016-10-02T07:48:19+02:00</time>
      </trkpt>
      <trkpt lat="45.95626" lon="6.32173">
        <ele>1388</ele>
        <time>2016-10-02T07:48:21+02:00</time>
      </trkpt>
      <trkpt lat="45.95623" lon="6.32175">
        <ele>1388</ele>
        <time>2016-10-02T07:48:23+02:00</time>
      </trkpt>
      <trkpt lat="45.95621" lon="6.32178">
        <ele>1389</ele>
        <time>2016-10-02T07:48:26+02:00</time>
      </trkpt>
      <trkpt lat="45.95619" lon="6.32181">
        <ele>1389</ele>
        <time>2016-10-02T07:48:28+02:00</time>
      </trkpt>
      <trkpt lat="45.95617" lon="6.32183">
        <ele>1390</ele>
        <time>2016-10-02T07:48:31+02:00</time>
      </trkpt>
      <trkpt lat="45.95614" lon="6.32186">
        <ele>1390</ele>
        <time>2016-10-02T07:48:33+02:00</time>
      </trkpt>
      <trkpt lat="45.95612" lon="6.32189">
        <ele>1391</ele>
        <time>2016-10-02T07:48:35+02:00</time>
      </trkpt>
      <trkpt lat="45.9561" lon="6.32192">
        <ele>1391</ele>
        <time>2016-10-02T07:48:38+02:00</time>
      </trkpt>
      <trkpt lat="45.95608" lon="6.32195">
        <ele>1392</ele>
        <time>2016-10-02T07:48:40+02:00</time>
      </trkpt>
      <trkpt lat="45.95606" lon="6.32198">
        <ele>1392</ele>
        <time>2016-10-02T07:48:42+02:00</time>
      </trkpt>
      <trkpt lat="45.95604" lon="6.32201">
        <ele>1393</ele>
        <time>2016-10-02T07:48:45+02:00</time>
      </trkpt>
      <trkpt lat="45.95602" lon="6.32204">
        <ele>1393</ele>
        <time>2016-10-02T07:48:47+02:00</time>
      </trkpt>
      <trkpt lat="45.956" lon="6.32206">
        <ele>1394</ele>
        <time>2016-10-02T07:48:49+02:00</time>
      </trkpt>
      <trkpt lat="45.95597" lon="6.32209">
        <ele>1394</ele>
        <time>2016-10-02T07:48:51+02:00</time>
      </trkpt>
      <trkpt lat="45.95595" lon="6.32211">
        <ele>1395</ele>
        <time>2016-10-02T07:48:54+02:00</time>
      </trkpt>
      <trkpt lat="45.95592" lon="6.32212">
        <ele>1395</ele>
        <time>2016-10-02T07:48:56+02:00</time>
      </trkpt>
      <trkpt lat="45.9559" lon="6.32214">
        <ele>1395</ele>
        <time>2016-10-02T07:48:59+02:00</time>
      </trkpt>
      <trkpt lat="45.95588" lon="6.32215">
        <ele>1395</ele>
        <time>2016-10-02T07:49:00+02:00</time>
      </trkpt>
      <trkpt lat="45.95586" lon="6.32215">
        <ele>1395</ele>
        <time>2016-10-02T07:49:02+02:00</time>
      </trkpt>
      <trkpt lat="45.95585" lon="6.32216">
        <ele>1395</ele>
        <time>2016-10-02T07:49:03+02:00</time>
      </trkpt>
      <trkpt lat="45.95584" lon="6.32217">
        <ele>1395</ele>
        <time>2016-10-02T07:49:04+02:00</time>
      </trkpt>
      <trkpt lat="45.95582" lon="6.32218">
        <ele>1395</ele>
        <time>2016-10-02T07:49:05+02:00</time>
      </trkpt>
      <trkpt lat="45.9558" lon="6.3222">
        <ele>1395</ele>
        <time>2016-10-02T07:49:08+02:00</time>
      </trkpt>
      <trkpt lat="45.95577" lon="6.32221">
        <ele>1395</ele>
        <time>2016-10-02T07:49:10+02:00</time>
      </trkpt>
      <trkpt lat="45.95574" lon="6.32223">
        <ele>1395</ele>
        <time>2016-10-02T07:49:13+02:00</time>
      </trkpt>
      <trkpt lat="45.95571" lon="6.32224">
        <ele>1394</ele>
        <time>2016-10-02T07:49:15+02:00</time>
      </trkpt>
      <trkpt lat="45.95568" lon="6.32224">
        <ele>1394</ele>
        <time>2016-10-02T07:49:18+02:00</time>
      </trkpt>
      <trkpt lat="45.95565" lon="6.32224">
        <ele>1393</ele>
        <time>2016-10-02T07:49:20+02:00</time>
      </trkpt>
      <trkpt lat="45.95561" lon="6.32225">
        <ele>1393</ele>
        <time>2016-10-02T07:49:23+02:00</time>
      </trkpt>
      <trkpt lat="45.95558" lon="6.32225">
        <ele>1392</ele>
        <time>2016-10-02T07:49:25+02:00</time>
      </trkpt>
      <trkpt lat="45.95555" lon="6.32225">
        <ele>1392</ele>
        <time>2016-10-02T07:49:28+02:00</time>
      </trkpt>
      <trkpt lat="45.95553" lon="6.32226">
        <ele>1391</ele>
        <time>2016-10-02T07:49:30+02:00</time>
      </trkpt>
      <trkpt lat="45.9555" lon="6.32227">
        <ele>1391</ele>
        <time>2016-10-02T07:49:33+02:00</time>
      </trkpt>
      <trkpt lat="45.95547" lon="6.32228">
        <ele>1390</ele>
        <time>2016-10-02T07:49:35+02:00</time>
      </trkpt>
      <trkpt lat="45.95544" lon="6.32229">
        <ele>1390</ele>
        <time>2016-10-02T07:49:37+02:00</time>
      </trkpt>
      <trkpt lat="45.95542" lon="6.3223">
        <ele>1390</ele>
        <time>2016-10-02T07:49:39+02:00</time>
      </trkpt>
      <trkpt lat="45.9554" lon="6.32232">
        <ele>1390</ele>
        <time>2016-10-02T07:49:41+02:00</time>
      </trkpt>
      <trkpt lat="45.95538" lon="6.32234">
        <ele>1390</ele>
        <time>2016-10-02T07:49:43+02:00</time>
      </trkpt>
      <trkpt lat="45.95537" lon="6.32237">
        <ele>1389</ele>
        <time>2016-10-02T07:49:45+02:00</time>
      </trkpt>
      <trkpt lat="45.95536" lon="6.32238">
        <ele>1389</ele>
        <time>2016-10-02T07:49:46+02:00</time>
      </trkpt>
      <trkpt lat="45.95535" lon="6.3224">
        <ele>1389</ele>
        <time>2016-10-02T07:49:47+02:00</time>
      </trkpt>
      <trkpt lat="45.95534" lon="6.32241">
        <ele>1389</ele>
        <time>2016-10-02T07:49:49+02:00</time>
      </trkpt>
      <trkpt lat="45.95534" lon="6.32242">
        <ele>1390</ele>
        <time>2016-10-02T07:49:50+02:00</time>
      </trkpt>
      <trkpt lat="45.95535" lon="6.32242">
        <ele>1390</ele>
        <time>2016-10-02T07:49:50+02:00</time>
      </trkpt>
      <trkpt lat="45.95534" lon="6.32243">
        <ele>1390</ele>
        <time>2016-10-02T07:49:51+02:00</time>
      </trkpt>
      <trkpt lat="45.95532" lon="6.32244">
        <ele>1389</ele>
        <time>2016-10-02T07:49:53+02:00</time>
      </trkpt>
      <trkpt lat="45.9553" lon="6.32245">
        <ele>1389</ele>
        <time>2016-10-02T07:49:55+02:00</time>
      </trkpt>
      <trkpt lat="45.95527" lon="6.32246">
        <ele>1388</ele>
        <time>2016-10-02T07:49:57+02:00</time>
      </trkpt>
      <trkpt lat="45.95524" lon="6.32247">
        <ele>1388</ele>
        <time>2016-10-02T07:50:00+02:00</time>
      </trkpt>
      <trkpt lat="45.95521" lon="6.32248">
        <ele>1387</ele>
        <time>2016-10-02T07:50:02+02:00</time>
      </trkpt>
      <trkpt lat="45.95518" lon="6.3225">
        <ele>1387</ele>
        <time>2016-10-02T07:50:05+02:00</time>
      </trkpt>
      <trkpt lat="45.95515" lon="6.32252">
        <ele>1386</ele>
        <time>2016-10-02T07:50:08+02:00</time>
      </trkpt>
      <trkpt lat="45.95512" lon="6.32254">
        <ele>1386</ele>
        <time>2016-10-02T07:50:10+02:00</time>
      </trkpt>
      <trkpt lat="45.95509" lon="6.32256">
        <ele>1386</ele>
        <time>2016-10-02T07:50:13+02:00</time>
      </trkpt>
      <trkpt lat="45.95506" lon="6.32258">
        <ele>1385</ele>
        <time>2016-10-02T07:50:15+02:00</time>
      </trkpt>
      <trkpt lat="45.95503" lon="6.3226">
        <ele>1385</ele>
        <time>2016-10-02T07:50:18+02:00</time>
      </trkpt>
      <trkpt lat="45.95501" lon="6.32262">
        <ele>1385</ele>
        <time>2016-10-02T07:50:20+02:00</time>
      </trkpt>
      <trkpt lat="45.95498" lon="6.32265">
        <ele>1385</ele>
        <time>2016-10-02T07:50:23+02:00</time>
      </trkpt>
      <trkpt lat="45.95495" lon="6.32268">
        <ele>1385</ele>
        <time>2016-10-02T07:50:26+02:00</time>
      </trkpt>
      <trkpt lat="45.95493" lon="6.3227">
        <ele>1385</ele>
        <time>2016-10-02T07:50:28+02:00</time>
      </trkpt>
      <trkpt lat="45.9549" lon="6.32272">
        <ele>1385</ele>
        <time>2016-10-02T07:50:31+02:00</time>
      </trkpt>
      <trkpt lat="45.95487" lon="6.32275">
        <ele>1385</ele>
        <time>2016-10-02T07:50:34+02:00</time>
      </trkpt>
      <trkpt lat="45.95484" lon="6.32277">
        <ele>1385</ele>
        <time>2016-10-02T07:50:36+02:00</time>
      </trkpt>
      <trkpt lat="45.95481" lon="6.32279">
        <ele>1385</ele>
        <time>2016-10-02T07:50:39+02:00</time>
      </trkpt>
      <trkpt lat="45.95479" lon="6.32281">
        <ele>1385</ele>
        <time>2016-10-02T07:50:41+02:00</time>
      </trkpt>
      <trkpt lat="45.95476" lon="6.32284">
        <ele>1385</ele>
        <time>2016-10-02T07:50:44+02:00</time>
      </trkpt>
      <trkpt lat="45.95473" lon="6.32286">
        <ele>1385</ele>
        <time>2016-10-02T07:50:46+02:00</time>
      </trkpt>
      <trkpt lat="45.95471" lon="6.3229">
        <ele>1386</ele>
        <time>2016-10-02T07:50:49+02:00</time>
      </trkpt>
      <trkpt lat="45.95468" lon="6.32293">
        <ele>1386</ele>
        <time>2016-10-02T07:50:52+02:00</time>
      </trkpt>
      <trkpt lat="45.95466" lon="6.32296">
        <ele>1386</ele>
        <time>2016-10-02T07:50:55+02:00</time>
      </trkpt>
      <trkpt lat="45.95463" lon="6.32298">
        <ele>1386</ele>
        <time>2016-10-02T07:50:57+02:00</time>
      </trkpt>
      <trkpt lat="45.9546" lon="6.32299">
        <ele>1385</ele>
        <time>2016-10-02T07:51:00+02:00</time>
      </trkpt>
      <trkpt lat="45.95457" lon="6.32299">
        <ele>1385</ele>
        <time>2016-10-02T07:51:02+02:00</time>
      </trkpt>
      <trkpt lat="45.95454" lon="6.32297">
        <ele>1385</ele>
        <time>2016-10-02T07:51:05+02:00</time>
      </trkpt>
      <trkpt lat="45.95451" lon="6.32294">
        <ele>1384</ele>
        <time>2016-10-02T07:51:07+02:00</time>
      </trkpt>
      <trkpt lat="45.95449" lon="6.3229">
        <ele>1384</ele>
        <time>2016-10-02T07:51:10+02:00</time>
      </trkpt>
      <trkpt lat="45.95447" lon="6.32286">
        <ele>1383</ele>
        <time>2016-10-02T07:51:13+02:00</time>
      </trkpt>
      <trkpt lat="45.95445" lon="6.32282">
        <ele>1383</ele>
        <time>2016-10-02T07:51:16+02:00</time>
      </trkpt>
      <trkpt lat="45.95442" lon="6.32278">
        <ele>1383</ele>
        <time>2016-10-02T07:51:19+02:00</time>
      </trkpt>
      <trkpt lat="45.95439" lon="6.32274">
        <ele>1382</ele>
        <time>2016-10-02T07:51:22+02:00</time>
      </trkpt>
      <trkpt lat="45.95437" lon="6.3227">
        <ele>1382</ele>
        <time>2016-10-02T07:51:25+02:00</time>
      </trkpt>
      <trkpt lat="45.95434" lon="6.32266">
        <ele>1381</ele>
        <time>2016-10-02T07:51:28+02:00</time>
      </trkpt>
      <trkpt lat="45.95431" lon="6.32262">
        <ele>1381</ele>
        <time>2016-10-02T07:51:31+02:00</time>
      </trkpt>
      <trkpt lat="45.95428" lon="6.32259">
        <ele>1381</ele>
        <time>2016-10-02T07:51:35+02:00</time>
      </trkpt>
      <trkpt lat="45.95426" lon="6.32255">
        <ele>1381</ele>
        <time>2016-10-02T07:51:38+02:00</time>
      </trkpt>
      <trkpt lat="45.95423" lon="6.32252">
        <ele>1380</ele>
        <time>2016-10-02T07:51:40+02:00</time>
      </trkpt>
      <trkpt lat="45.95421" lon="6.32248">
        <ele>1380</ele>
        <time>2016-10-02T07:51:43+02:00</time>
      </trkpt>
      <trkpt lat="45.95418" lon="6.32244">
        <ele>1380</ele>
        <time>2016-10-02T07:51:46+02:00</time>
      </trkpt>
      <trkpt lat="45.95416" lon="6.32241">
        <ele>1380</ele>
        <time>2016-10-02T07:51:49+02:00</time>
      </trkpt>
      <trkpt lat="45.95414" lon="6.32237">
        <ele>1380</ele>
        <time>2016-10-02T07:51:51+02:00</time>
      </trkpt>
      <trkpt lat="45.95412" lon="6.32234">
        <ele>1379</ele>
        <time>2016-10-02T07:51:54+02:00</time>
      </trkpt>
      <trkpt lat="45.9541" lon="6.3223">
        <ele>1379</ele>
        <time>2016-10-02T07:51:57+02:00</time>
      </trkpt>
      <trkpt lat="45.95408" lon="6.32226">
        <ele>1379</ele>
        <time>2016-10-02T07:52:00+02:00</time>
      </trkpt>
      <trkpt lat="45.95407" lon="6.32222">
        <ele>1379</ele>
        <time>2016-10-02T07:52:02+02:00</time>
      </trkpt>
      <trkpt lat="45.95405" lon="6.32218">
        <ele>1379</ele>
        <time>2016-10-02T07:52:05+02:00</time>
      </trkpt>
      <trkpt lat="45.95403" lon="6.32213">
        <ele>1379</ele>
        <time>2016-10-02T07:52:08+02:00</time>
      </trkpt>
      <trkpt lat="45.95402" lon="6.32208">
        <ele>1378</ele>
        <time>2016-10-02T07:52:11+02:00</time>
      </trkpt>
      <trkpt lat="45.95402" lon="6.32203">
        <ele>1378</ele>
        <time>2016-10-02T07:52:14+02:00</time>
      </trkpt>
      <trkpt lat="45.95401" lon="6.32197">
        <ele>1378</ele>
        <time>2016-10-02T07:52:17+02:00</time>
      </trkpt>
      <trkpt lat="45.95401" lon="6.32192">
        <ele>1378</ele>
        <time>2016-10-02T07:52:20+02:00</time>
      </trkpt>
      <trkpt lat="45.954" lon="6.32188">
        <ele>1378</ele>
        <time>2016-10-02T07:52:22+02:00</time>
      </trkpt>
      <trkpt lat="45.95399" lon="6.32184">
        <ele>1378</ele>
        <time>2016-10-02T07:52:25+02:00</time>
      </trkpt>
      <trkpt lat="45.95398" lon="6.3218">
        <ele>1377</ele>
        <time>2016-10-02T07:52:27+02:00</time>
      </trkpt>
      <trkpt lat="45.95396" lon="6.32176">
        <ele>1377</ele>
        <time>2016-10-02T07:52:29+02:00</time>
      </trkpt>
      <trkpt lat="45.95394" lon="6.32173">
        <ele>1377</ele>
        <time>2016-10-02T07:52:31+02:00</time>
      </trkpt>
      <trkpt lat="45.95392" lon="6.32172">
        <ele>1377</ele>
        <time>2016-10-02T07:52:33+02:00</time>
      </trkpt>
      <trkpt lat="45.9539" lon="6.32173">
        <ele>1377</ele>
        <time>2016-10-02T07:52:35+02:00</time>
      </trkpt>
      <trkpt lat="45.95387" lon="6.32174">
        <ele>1377</ele>
        <time>2016-10-02T07:52:38+02:00</time>
      </trkpt>
      <trkpt lat="45.95384" lon="6.32175">
        <ele>1377</ele>
        <time>2016-10-02T07:52:40+02:00</time>
      </trkpt>
      <trkpt lat="45.95381" lon="6.32176">
        <ele>1377</ele>
        <time>2016-10-02T07:52:43+02:00</time>
      </trkpt>
      <trkpt lat="45.95378" lon="6.32176">
        <ele>1377</ele>
        <time>2016-10-02T07:52:45+02:00</time>
      </trkpt>
      <trkpt lat="45.95376" lon="6.32176">
        <ele>1377</ele>
        <time>2016-10-02T07:52:46+02:00</time>
      </trkpt>
      <trkpt lat="45.95374" lon="6.32176">
        <ele>1377</ele>
        <time>2016-10-02T07:52:48+02:00</time>
      </trkpt>
      <trkpt lat="45.95372" lon="6.32176">
        <ele>1377</ele>
        <time>2016-10-02T07:52:50+02:00</time>
      </trkpt>
      <trkpt lat="45.9537" lon="6.32176">
        <ele>1377</ele>
        <time>2016-10-02T07:52:51+02:00</time>
      </trkpt>
      <trkpt lat="45.95368" lon="6.32176">
        <ele>1377</ele>
        <time>2016-10-02T07:52:53+02:00</time>
      </trkpt>
      <trkpt lat="45.95365" lon="6.32176">
        <ele>1377</ele>
        <time>2016-10-02T07:52:55+02:00</time>
      </trkpt>
      <trkpt lat="45.95364" lon="6.32176">
        <ele>1377</ele>
        <time>2016-10-02T07:52:56+02:00</time>
      </trkpt>
      <trkpt lat="45.95362" lon="6.32177">
        <ele>1377</ele>
        <time>2016-10-02T07:52:58+02:00</time>
      </trkpt>
      <trkpt lat="45.9536" lon="6.32177">
        <ele>1377</ele>
        <time>2016-10-02T07:52:59+02:00</time>
      </trkpt>
      <trkpt lat="45.95359" lon="6.32178">
        <ele>1377</ele>
        <time>2016-10-02T07:53:00+02:00</time>
      </trkpt>
      <trkpt lat="45.95358" lon="6.32178">
        <ele>1377</ele>
        <time>2016-10-02T07:53:01+02:00</time>
      </trkpt>
      <trkpt lat="45.95356" lon="6.32179">
        <ele>1377</ele>
        <time>2016-10-02T07:53:03+02:00</time>
      </trkpt>
      <trkpt lat="45.95354" lon="6.32179">
        <ele>1377</ele>
        <time>2016-10-02T07:53:04+02:00</time>
      </trkpt>
      <trkpt lat="45.95352" lon="6.32179">
        <ele>1377</ele>
        <time>2016-10-02T07:53:06+02:00</time>
      </trkpt>
      <trkpt lat="45.9535" lon="6.3218">
        <ele>1377</ele>
        <time>2016-10-02T07:53:07+02:00</time>
      </trkpt>
      <trkpt lat="45.95348" lon="6.3218">
        <ele>1377</ele>
        <time>2016-10-02T07:53:09+02:00</time>
      </trkpt>
      <trkpt lat="45.95346" lon="6.3218">
        <ele>1377</ele>
        <time>2016-10-02T07:53:11+02:00</time>
      </trkpt>
      <trkpt lat="45.95344" lon="6.32181">
        <ele>1377</ele>
        <time>2016-10-02T07:53:12+02:00</time>
      </trkpt>
      <trkpt lat="45.95342" lon="6.32181">
        <ele>1378</ele>
        <time>2016-10-02T07:53:14+02:00</time>
      </trkpt>
      <trkpt lat="45.9534" lon="6.32181">
        <ele>1378</ele>
        <time>2016-10-02T07:53:16+02:00</time>
      </trkpt>
      <trkpt lat="45.95338" lon="6.32181">
        <ele>1378</ele>
        <time>2016-10-02T07:53:17+02:00</time>
      </trkpt>
      <trkpt lat="45.95336" lon="6.3218">
        <ele>1377</ele>
        <time>2016-10-02T07:53:19+02:00</time>
      </trkpt>
      <trkpt lat="45.95334" lon="6.32179">
        <ele>1377</ele>
        <time>2016-10-02T07:53:21+02:00</time>
      </trkpt>
      <trkpt lat="45.95332" lon="6.32179">
        <ele>1378</ele>
        <time>2016-10-02T07:53:22+02:00</time>
      </trkpt>
      <trkpt lat="45.9533" lon="6.32179">
        <ele>1378</ele>
        <time>2016-10-02T07:53:24+02:00</time>
      </trkpt>
      <trkpt lat="45.95328" lon="6.32179">
        <ele>1378</ele>
        <time>2016-10-02T07:53:26+02:00</time>
      </trkpt>
      <trkpt lat="45.95326" lon="6.32179">
        <ele>1378</ele>
        <time>2016-10-02T07:53:28+02:00</time>
      </trkpt>
      <trkpt lat="45.95324" lon="6.32178">
        <ele>1378</ele>
        <time>2016-10-02T07:53:29+02:00</time>
      </trkpt>
      <trkpt lat="45.95323" lon="6.32177">
        <ele>1378</ele>
        <time>2016-10-02T07:53:30+02:00</time>
      </trkpt>
      <trkpt lat="45.95322" lon="6.32173">
        <ele>1378</ele>
        <time>2016-10-02T07:53:32+02:00</time>
      </trkpt>
      <trkpt lat="45.95322" lon="6.3217">
        <ele>1378</ele>
        <time>2016-10-02T07:53:34+02:00</time>
      </trkpt>
      <trkpt lat="45.95321" lon="6.32166">
        <ele>1378</ele>
        <time>2016-10-02T07:53:36+02:00</time>
      </trkpt>
      <trkpt lat="45.95321" lon="6.32163">
        <ele>1378</ele>
        <time>2016-10-02T07:53:38+02:00</time>
      </trkpt>
      <trkpt lat="45.9532" lon="6.3216">
        <ele>1378</ele>
        <time>2016-10-02T07:53:40+02:00</time>
      </trkpt>
      <trkpt lat="45.9532" lon="6.32156">
        <ele>1378</ele>
        <time>2016-10-02T07:53:42+02:00</time>
      </trkpt>
      <trkpt lat="45.9532" lon="6.32153">
        <ele>1379</ele>
        <time>2016-10-02T07:53:44+02:00</time>
      </trkpt>
      <trkpt lat="45.9532" lon="6.32149">
        <ele>1379</ele>
        <time>2016-10-02T07:53:46+02:00</time>
      </trkpt>
      <trkpt lat="45.9532" lon="6.32146">
        <ele>1379</ele>
        <time>2016-10-02T07:53:48+02:00</time>
      </trkpt>
      <trkpt lat="45.9532" lon="6.32142">
        <ele>1379</ele>
        <time>2016-10-02T07:53:50+02:00</time>
      </trkpt>
      <trkpt lat="45.9532" lon="6.32139">
        <ele>1379</ele>
        <time>2016-10-02T07:53:52+02:00</time>
      </trkpt>
      <trkpt lat="45.9532" lon="6.32136">
        <ele>1379</ele>
        <time>2016-10-02T07:53:54+02:00</time>
      </trkpt>
      <trkpt lat="45.9532" lon="6.32132">
        <ele>1379</ele>
        <time>2016-10-02T07:53:55+02:00</time>
      </trkpt>
      <trkpt lat="45.95321" lon="6.32129">
        <ele>1379</ele>
        <time>2016-10-02T07:53:57+02:00</time>
      </trkpt>
      <trkpt lat="45.95321" lon="6.32125">
        <ele>1379</ele>
        <time>2016-10-02T07:53:59+02:00</time>
      </trkpt>
      <trkpt lat="45.95322" lon="6.32122">
        <ele>1379</ele>
        <time>2016-10-02T07:54:01+02:00</time>
      </trkpt>
      <trkpt lat="45.95323" lon="6.3212">
        <ele>1379</ele>
        <time>2016-10-02T07:54:03+02:00</time>
      </trkpt>
      <trkpt lat="45.95323" lon="6.32117">
        <ele>1379</ele>
        <time>2016-10-02T07:54:05+02:00</time>
      </trkpt>
      <trkpt lat="45.95323" lon="6.32114">
        <ele>1379</ele>
        <time>2016-10-02T07:54:06+02:00</time>
      </trkpt>
      <trkpt lat="45.95324" lon="6.32111">
        <ele>1379</ele>
        <time>2016-10-02T07:54:08+02:00</time>
      </trkpt>
      <trkpt lat="45.95325" lon="6.32109">
        <ele>1379</ele>
        <time>2016-10-02T07:54:09+02:00</time>
      </trkpt>
      <trkpt lat="45.95326" lon="6.32108">
        <ele>1379</ele>
        <time>2016-10-02T07:54:10+02:00</time>
      </trkpt>
      <trkpt lat="45.95327" lon="6.32106">
        <ele>1379</ele>
        <time>2016-10-02T07:54:12+02:00</time>
      </trkpt>
      <trkpt lat="45.95329" lon="6.32104">
        <ele>1378</ele>
        <time>2016-10-02T07:54:13+02:00</time>
      </trkpt>
      <trkpt lat="45.9533" lon="6.32103">
        <ele>1378</ele>
        <time>2016-10-02T07:54:15+02:00</time>
      </trkpt>
      <trkpt lat="45.95331" lon="6.32101">
        <ele>1378</ele>
        <time>2016-10-02T07:54:16+02:00</time>
      </trkpt>
      <trkpt lat="45.95332" lon="6.32099">
        <ele>1378</ele>
        <time>2016-10-02T07:54:17+02:00</time>
      </trkpt>
      <trkpt lat="45.95333" lon="6.32098">
        <ele>1378</ele>
        <time>2016-10-02T07:54:18+02:00</time>
      </trkpt>
      <trkpt lat="45.95333" lon="6.32095">
        <ele>1378</ele>
        <time>2016-10-02T07:54:20+02:00</time>
      </trkpt>
      <trkpt lat="45.95332" lon="6.32093">
        <ele>1378</ele>
        <time>2016-10-02T07:54:21+02:00</time>
      </trkpt>
      <trkpt lat="45.95331" lon="6.32091">
        <ele>1378</ele>
        <time>2016-10-02T07:54:23+02:00</time>
      </trkpt>
      <trkpt lat="45.95329" lon="6.32089">
        <ele>1379</ele>
        <time>2016-10-02T07:54:25+02:00</time>
      </trkpt>
      <trkpt lat="45.95328" lon="6.32088">
        <ele>1379</ele>
        <time>2016-10-02T07:54:26+02:00</time>
      </trkpt>
      <trkpt lat="45.95326" lon="6.32087">
        <ele>1379</ele>
        <time>2016-10-02T07:54:27+02:00</time>
      </trkpt>
      <trkpt lat="45.95325" lon="6.32085">
        <ele>1379</ele>
        <time>2016-10-02T07:54:29+02:00</time>
      </trkpt>
      <trkpt lat="45.95324" lon="6.32084">
        <ele>1379</ele>
        <time>2016-10-02T07:54:30+02:00</time>
      </trkpt>
      <trkpt lat="45.95322" lon="6.32082">
        <ele>1380</ele>
        <time>2016-10-02T07:54:31+02:00</time>
      </trkpt>
      <trkpt lat="45.95322" lon="6.32079">
        <ele>1380</ele>
        <time>2016-10-02T07:54:33+02:00</time>
      </trkpt>
      <trkpt lat="45.95321" lon="6.32077">
        <ele>1380</ele>
        <time>2016-10-02T07:54:35+02:00</time>
      </trkpt>
      <trkpt lat="45.9532" lon="6.32074">
        <ele>1381</ele>
        <time>2016-10-02T07:54:36+02:00</time>
      </trkpt>
      <trkpt lat="45.9532" lon="6.32071">
        <ele>1381</ele>
        <time>2016-10-02T07:54:38+02:00</time>
      </trkpt>
      <trkpt lat="45.95319" lon="6.32069">
        <ele>1381</ele>
        <time>2016-10-02T07:54:39+02:00</time>
      </trkpt>
      <trkpt lat="45.9532" lon="6.32066">
        <ele>1381</ele>
        <time>2016-10-02T07:54:41+02:00</time>
      </trkpt>
      <trkpt lat="45.95319" lon="6.32064">
        <ele>1382</ele>
        <time>2016-10-02T07:54:42+02:00</time>
      </trkpt>
      <trkpt lat="45.95319" lon="6.32062">
        <ele>1382</ele>
        <time>2016-10-02T07:54:43+02:00</time>
      </trkpt>
      <trkpt lat="45.95318" lon="6.3206">
        <ele>1382</ele>
        <time>2016-10-02T07:54:45+02:00</time>
      </trkpt>
      <trkpt lat="45.95318" lon="6.32058">
        <ele>1382</ele>
        <time>2016-10-02T07:54:46+02:00</time>
      </trkpt>
      <trkpt lat="45.95318" lon="6.32056">
        <ele>1383</ele>
        <time>2016-10-02T07:54:47+02:00</time>
      </trkpt>
      <trkpt lat="45.95317" lon="6.32054">
        <ele>1383</ele>
        <time>2016-10-02T07:54:48+02:00</time>
      </trkpt>
      <trkpt lat="45.95317" lon="6.32052">
        <ele>1383</ele>
        <time>2016-10-02T07:54:49+02:00</time>
      </trkpt>
      <trkpt lat="45.95317" lon="6.3205">
        <ele>1383</ele>
        <time>2016-10-02T07:54:51+02:00</time>
      </trkpt>
      <trkpt lat="45.95316" lon="6.32048">
        <ele>1384</ele>
        <time>2016-10-02T07:54:52+02:00</time>
      </trkpt>
      <trkpt lat="45.95316" lon="6.32045">
        <ele>1384</ele>
        <time>2016-10-02T07:54:53+02:00</time>
      </trkpt>
      <trkpt lat="45.95315" lon="6.32043">
        <ele>1384</ele>
        <time>2016-10-02T07:54:54+02:00</time>
      </trkpt>
      <trkpt lat="45.95314" lon="6.32042">
        <ele>1384</ele>
        <time>2016-10-02T07:54:56+02:00</time>
      </trkpt>
      <trkpt lat="45.95314" lon="6.3204">
        <ele>1385</ele>
        <time>2016-10-02T07:54:57+02:00</time>
      </trkpt>
      <trkpt lat="45.95313" lon="6.32037">
        <ele>1385</ele>
        <time>2016-10-02T07:54:59+02:00</time>
      </trkpt>
      <trkpt lat="45.95312" lon="6.32036">
        <ele>1385</ele>
        <time>2016-10-02T07:55:00+02:00</time>
      </trkpt>
      <trkpt lat="45.95312" lon="6.32034">
        <ele>1385</ele>
        <time>2016-10-02T07:55:01+02:00</time>
      </trkpt>
      <trkpt lat="45.9531" lon="6.32032">
        <ele>1386</ele>
        <time>2016-10-02T07:55:02+02:00</time>
      </trkpt>
      <trkpt lat="45.95309" lon="6.32029">
        <ele>1386</ele>
        <time>2016-10-02T07:55:04+02:00</time>
      </trkpt>
      <trkpt lat="45.95308" lon="6.32027">
        <ele>1387</ele>
        <time>2016-10-02T07:55:06+02:00</time>
      </trkpt>
      <trkpt lat="45.95307" lon="6.32025">
        <ele>1387</ele>
        <time>2016-10-02T07:55:07+02:00</time>
      </trkpt>
      <trkpt lat="45.95306" lon="6.32023">
        <ele>1387</ele>
        <time>2016-10-02T07:55:08+02:00</time>
      </trkpt>
      <trkpt lat="45.95306" lon="6.32022">
        <ele>1387</ele>
        <time>2016-10-02T07:55:09+02:00</time>
      </trkpt>
      <trkpt lat="45.95305" lon="6.3202">
        <ele>1388</ele>
        <time>2016-10-02T07:55:10+02:00</time>
      </trkpt>
      <trkpt lat="45.95304" lon="6.32019">
        <ele>1388</ele>
        <time>2016-10-02T07:55:11+02:00</time>
      </trkpt>
      <trkpt lat="45.95303" lon="6.32017">
        <ele>1388</ele>
        <time>2016-10-02T07:55:13+02:00</time>
      </trkpt>
      <trkpt lat="45.95302" lon="6.32014">
        <ele>1389</ele>
        <time>2016-10-02T07:55:15+02:00</time>
      </trkpt>
      <trkpt lat="45.95301" lon="6.32012">
        <ele>1389</ele>
        <time>2016-10-02T07:55:16+02:00</time>
      </trkpt>
      <trkpt lat="45.953" lon="6.3201">
        <ele>1389</ele>
        <time>2016-10-02T07:55:17+02:00</time>
      </trkpt>
      <trkpt lat="45.95299" lon="6.32009">
        <ele>1390</ele>
        <time>2016-10-02T07:55:19+02:00</time>
      </trkpt>
      <trkpt lat="45.95298" lon="6.32007">
        <ele>1390</ele>
        <time>2016-10-02T07:55:20+02:00</time>
      </trkpt>
      <trkpt lat="45.95298" lon="6.32005">
        <ele>1390</ele>
        <time>2016-10-02T07:55:21+02:00</time>
      </trkpt>
      <trkpt lat="45.95297" lon="6.32003">
        <ele>1390</ele>
        <time>2016-10-02T07:55:22+02:00</time>
      </trkpt>
      <trkpt lat="45.95296" lon="6.32002">
        <ele>1391</ele>
        <time>2016-10-02T07:55:23+02:00</time>
      </trkpt>
      <trkpt lat="45.95295" lon="6.31999">
        <ele>1391</ele>
        <time>2016-10-02T07:55:25+02:00</time>
      </trkpt>
      <trkpt lat="45.95295" lon="6.31997">
        <ele>1391</ele>
        <time>2016-10-02T07:55:26+02:00</time>
      </trkpt>
      <trkpt lat="45.95294" lon="6.31995">
        <ele>1392</ele>
        <time>2016-10-02T07:55:28+02:00</time>
      </trkpt>
      <trkpt lat="45.95294" lon="6.31993">
        <ele>1392</ele>
        <time>2016-10-02T07:55:29+02:00</time>
      </trkpt>
      <trkpt lat="45.95293" lon="6.31991">
        <ele>1392</ele>
        <time>2016-10-02T07:55:30+02:00</time>
      </trkpt>
      <trkpt lat="45.95292" lon="6.31989">
        <ele>1392</ele>
        <time>2016-10-02T07:55:32+02:00</time>
      </trkpt>
      <trkpt lat="45.95291" lon="6.31986">
        <ele>1393</ele>
        <time>2016-10-02T07:55:33+02:00</time>
      </trkpt>
      <trkpt lat="45.9529" lon="6.31983">
        <ele>1393</ele>
        <time>2016-10-02T07:55:35+02:00</time>
      </trkpt>
      <trkpt lat="45.95289" lon="6.31982">
        <ele>1394</ele>
        <time>2016-10-02T07:55:36+02:00</time>
      </trkpt>
      <trkpt lat="45.95288" lon="6.31981">
        <ele>1394</ele>
        <time>2016-10-02T07:55:37+02:00</time>
      </trkpt>
      <trkpt lat="45.95287" lon="6.31981">
        <ele>1394</ele>
        <time>2016-10-02T07:55:38+02:00</time>
      </trkpt>
      <trkpt lat="45.95285" lon="6.31979">
        <ele>1395</ele>
        <time>2016-10-02T07:55:40+02:00</time>
      </trkpt>
      <trkpt lat="45.95283" lon="6.31978">
        <ele>1395</ele>
        <time>2016-10-02T07:55:42+02:00</time>
      </trkpt>
      <trkpt lat="45.95282" lon="6.31977">
        <ele>1395</ele>
        <time>2016-10-02T07:55:43+02:00</time>
      </trkpt>
      <trkpt lat="45.9528" lon="6.31976">
        <ele>1395</ele>
        <time>2016-10-02T07:55:44+02:00</time>
      </trkpt>
      <trkpt lat="45.95279" lon="6.31976">
        <ele>1396</ele>
        <time>2016-10-02T07:55:45+02:00</time>
      </trkpt>
      <trkpt lat="45.95278" lon="6.31975">
        <ele>1396</ele>
        <time>2016-10-02T07:55:46+02:00</time>
      </trkpt>
      <trkpt lat="45.95276" lon="6.31975">
        <ele>1396</ele>
        <time>2016-10-02T07:55:48+02:00</time>
      </trkpt>
      <trkpt lat="45.95274" lon="6.31974">
        <ele>1397</ele>
        <time>2016-10-02T07:55:49+02:00</time>
      </trkpt>
      <trkpt lat="45.95272" lon="6.31973">
        <ele>1397</ele>
        <time>2016-10-02T07:55:51+02:00</time>
      </trkpt>
      <trkpt lat="45.9527" lon="6.31971">
        <ele>1397</ele>
        <time>2016-10-02T07:55:53+02:00</time>
      </trkpt>
      <trkpt lat="45.95269" lon="6.3197">
        <ele>1398</ele>
        <time>2016-10-02T07:55:54+02:00</time>
      </trkpt>
      <trkpt lat="45.95268" lon="6.31968">
        <ele>1398</ele>
        <time>2016-10-02T07:55:56+02:00</time>
      </trkpt>
      <trkpt lat="45.95266" lon="6.31966">
        <ele>1399</ele>
        <time>2016-10-02T07:55:58+02:00</time>
      </trkpt>
      <trkpt lat="45.95264" lon="6.31964">
        <ele>1399</ele>
        <time>2016-10-02T07:56:00+02:00</time>
      </trkpt>
      <trkpt lat="45.95263" lon="6.31963">
        <ele>1399</ele>
        <time>2016-10-02T07:56:01+02:00</time>
      </trkpt>
      <trkpt lat="45.95262" lon="6.31961">
        <ele>1400</ele>
        <time>2016-10-02T07:56:02+02:00</time>
      </trkpt>
      <trkpt lat="45.95261" lon="6.3196">
        <ele>1400</ele>
        <time>2016-10-02T07:56:03+02:00</time>
      </trkpt>
      <trkpt lat="45.9526" lon="6.31958">
        <ele>1400</ele>
        <time>2016-10-02T07:56:05+02:00</time>
      </trkpt>
      <trkpt lat="45.95259" lon="6.31956">
        <ele>1400</ele>
        <time>2016-10-02T07:56:06+02:00</time>
      </trkpt>
      <trkpt lat="45.95258" lon="6.31955">
        <ele>1401</ele>
        <time>2016-10-02T07:56:07+02:00</time>
      </trkpt>
      <trkpt lat="45.95257" lon="6.31954">
        <ele>1401</ele>
        <time>2016-10-02T07:56:08+02:00</time>
      </trkpt>
      <trkpt lat="45.95255" lon="6.31952">
        <ele>1401</ele>
        <time>2016-10-02T07:56:10+02:00</time>
      </trkpt>
      <trkpt lat="45.95253" lon="6.3195">
        <ele>1402</ele>
        <time>2016-10-02T07:56:12+02:00</time>
      </trkpt>
      <trkpt lat="45.95251" lon="6.31949">
        <ele>1402</ele>
        <time>2016-10-02T07:56:14+02:00</time>
      </trkpt>
      <trkpt lat="45.9525" lon="6.31947">
        <ele>1402</ele>
        <time>2016-10-02T07:56:15+02:00</time>
      </trkpt>
      <trkpt lat="45.95248" lon="6.31946">
        <ele>1403</ele>
        <time>2016-10-02T07:56:17+02:00</time>
      </trkpt>
      <trkpt lat="45.95246" lon="6.31944">
        <ele>1403</ele>
        <time>2016-10-02T07:56:19+02:00</time>
      </trkpt>
      <trkpt lat="45.95245" lon="6.31943">
        <ele>1403</ele>
        <time>2016-10-02T07:56:20+02:00</time>
      </trkpt>
      <trkpt lat="45.95244" lon="6.31942">
        <ele>1404</ele>
        <time>2016-10-02T07:56:21+02:00</time>
      </trkpt>
      <trkpt lat="45.95243" lon="6.3194">
        <ele>1404</ele>
        <time>2016-10-02T07:56:23+02:00</time>
      </trkpt>
      <trkpt lat="45.95241" lon="6.31938">
        <ele>1404</ele>
        <time>2016-10-02T07:56:24+02:00</time>
      </trkpt>
      <trkpt lat="45.95241" lon="6.31937">
        <ele>1405</ele>
        <time>2016-10-02T07:56:25+02:00</time>
      </trkpt>
      <trkpt lat="45.95239" lon="6.31935">
        <ele>1405</ele>
        <time>2016-10-02T07:56:26+02:00</time>
      </trkpt>
      <trkpt lat="45.95238" lon="6.31934">
        <ele>1405</ele>
        <time>2016-10-02T07:56:28+02:00</time>
      </trkpt>
      <trkpt lat="45.95237" lon="6.31933">
        <ele>1405</ele>
        <time>2016-10-02T07:56:29+02:00</time>
      </trkpt>
      <trkpt lat="45.95235" lon="6.31931">
        <ele>1406</ele>
        <time>2016-10-02T07:56:31+02:00</time>
      </trkpt>
      <trkpt lat="45.95234" lon="6.3193">
        <ele>1406</ele>
        <time>2016-10-02T07:56:32+02:00</time>
      </trkpt>
      <trkpt lat="45.95232" lon="6.31929">
        <ele>1406</ele>
        <time>2016-10-02T07:56:34+02:00</time>
      </trkpt>
      <trkpt lat="45.95231" lon="6.31928">
        <ele>1406</ele>
        <time>2016-10-02T07:56:35+02:00</time>
      </trkpt>
      <trkpt lat="45.9523" lon="6.31927">
        <ele>1407</ele>
        <time>2016-10-02T07:56:36+02:00</time>
      </trkpt>
      <trkpt lat="45.95228" lon="6.31926">
        <ele>1407</ele>
        <time>2016-10-02T07:56:38+02:00</time>
      </trkpt>
      <trkpt lat="45.95227" lon="6.31926">
        <ele>1407</ele>
        <time>2016-10-02T07:56:39+02:00</time>
      </trkpt>
      <trkpt lat="45.95225" lon="6.31926">
        <ele>1407</ele>
        <time>2016-10-02T07:56:40+02:00</time>
      </trkpt>
      <trkpt lat="45.95224" lon="6.31926">
        <ele>1407</ele>
        <time>2016-10-02T07:56:41+02:00</time>
      </trkpt>
      <trkpt lat="45.95222" lon="6.31927">
        <ele>1408</ele>
        <time>2016-10-02T07:56:42+02:00</time>
      </trkpt>
      <trkpt lat="45.95221" lon="6.31927">
        <ele>1408</ele>
        <time>2016-10-02T07:56:43+02:00</time>
      </trkpt>
      <trkpt lat="45.9522" lon="6.31928">
        <ele>1408</ele>
        <time>2016-10-02T07:56:44+02:00</time>
      </trkpt>
      <trkpt lat="45.95218" lon="6.31928">
        <ele>1408</ele>
        <time>2016-10-02T07:56:45+02:00</time>
      </trkpt>
      <trkpt lat="45.95217" lon="6.31928">
        <ele>1408</ele>
        <time>2016-10-02T07:56:46+02:00</time>
      </trkpt>
      <trkpt lat="45.95216" lon="6.31928">
        <ele>1408</ele>
        <time>2016-10-02T07:56:47+02:00</time>
      </trkpt>
      <trkpt lat="45.95215" lon="6.31929">
        <ele>1408</ele>
        <time>2016-10-02T07:56:48+02:00</time>
      </trkpt>
      <trkpt lat="45.95213" lon="6.31929">
        <ele>1409</ele>
        <time>2016-10-02T07:56:50+02:00</time>
      </trkpt>
      <trkpt lat="45.95211" lon="6.3193">
        <ele>1409</ele>
        <time>2016-10-02T07:56:51+02:00</time>
      </trkpt>
      <trkpt lat="45.95209" lon="6.3193">
        <ele>1409</ele>
        <time>2016-10-02T07:56:53+02:00</time>
      </trkpt>
      <trkpt lat="45.95207" lon="6.31931">
        <ele>1409</ele>
        <time>2016-10-02T07:56:55+02:00</time>
      </trkpt>
      <trkpt lat="45.95205" lon="6.31932">
        <ele>1409</ele>
        <time>2016-10-02T07:56:57+02:00</time>
      </trkpt>
      <trkpt lat="45.95203" lon="6.31933">
        <ele>1410</ele>
        <time>2016-10-02T07:56:58+02:00</time>
      </trkpt>
      <trkpt lat="45.95201" lon="6.31933">
        <ele>1410</ele>
        <time>2016-10-02T07:57:00+02:00</time>
      </trkpt>
      <trkpt lat="45.952" lon="6.31933">
        <ele>1410</ele>
        <time>2016-10-02T07:57:01+02:00</time>
      </trkpt>
      <trkpt lat="45.95198" lon="6.31933">
        <ele>1410</ele>
        <time>2016-10-02T07:57:02+02:00</time>
      </trkpt>
      <trkpt lat="45.95197" lon="6.31934">
        <ele>1410</ele>
        <time>2016-10-02T07:57:03+02:00</time>
      </trkpt>
      <trkpt lat="45.95196" lon="6.31934">
        <ele>1410</ele>
        <time>2016-10-02T07:57:04+02:00</time>
      </trkpt>
      <trkpt lat="45.95194" lon="6.31934">
        <ele>1411</ele>
        <time>2016-10-02T07:57:05+02:00</time>
      </trkpt>
      <trkpt lat="45.95193" lon="6.31934">
        <ele>1411</ele>
        <time>2016-10-02T07:57:07+02:00</time>
      </trkpt>
      <trkpt lat="45.95192" lon="6.31934">
        <ele>1411</ele>
        <time>2016-10-02T07:57:08+02:00</time>
      </trkpt>
      <trkpt lat="45.9519" lon="6.31934">
        <ele>1411</ele>
        <time>2016-10-02T07:57:09+02:00</time>
      </trkpt>
      <trkpt lat="45.95188" lon="6.31934">
        <ele>1411</ele>
        <time>2016-10-02T07:57:10+02:00</time>
      </trkpt>
      <trkpt lat="45.95186" lon="6.31933">
        <ele>1412</ele>
        <time>2016-10-02T07:57:12+02:00</time>
      </trkpt>
      <trkpt lat="45.95185" lon="6.31933">
        <ele>1412</ele>
        <time>2016-10-02T07:57:13+02:00</time>
      </trkpt>
      <trkpt lat="45.95183" lon="6.31933">
        <ele>1412</ele>
        <time>2016-10-02T07:57:15+02:00</time>
      </trkpt>
      <trkpt lat="45.95182" lon="6.31933">
        <ele>1412</ele>
        <time>2016-10-02T07:57:16+02:00</time>
      </trkpt>
      <trkpt lat="45.9518" lon="6.31933">
        <ele>1412</ele>
        <time>2016-10-02T07:57:17+02:00</time>
      </trkpt>
      <trkpt lat="45.95179" lon="6.31934">
        <ele>1412</ele>
        <time>2016-10-02T07:57:18+02:00</time>
      </trkpt>
      <trkpt lat="45.95177" lon="6.31935">
        <ele>1413</ele>
        <time>2016-10-02T07:57:20+02:00</time>
      </trkpt>
      <trkpt lat="45.95175" lon="6.31935">
        <ele>1413</ele>
        <time>2016-10-02T07:57:21+02:00</time>
      </trkpt>
      <trkpt lat="45.95174" lon="6.31936">
        <ele>1413</ele>
        <time>2016-10-02T07:57:22+02:00</time>
      </trkpt>
      <trkpt lat="45.95173" lon="6.31937">
        <ele>1413</ele>
        <time>2016-10-02T07:57:23+02:00</time>
      </trkpt>
      <trkpt lat="45.95172" lon="6.31938">
        <ele>1413</ele>
        <time>2016-10-02T07:57:24+02:00</time>
      </trkpt>
      <trkpt lat="45.95171" lon="6.31939">
        <ele>1413</ele>
        <time>2016-10-02T07:57:25+02:00</time>
      </trkpt>
      <trkpt lat="45.95169" lon="6.3194">
        <ele>1413</ele>
        <time>2016-10-02T07:57:27+02:00</time>
      </trkpt>
      <trkpt lat="45.95168" lon="6.3194">
        <ele>1413</ele>
        <time>2016-10-02T07:57:28+02:00</time>
      </trkpt>
      <trkpt lat="45.95167" lon="6.31941">
        <ele>1414</ele>
        <time>2016-10-02T07:57:29+02:00</time>
      </trkpt>
      <trkpt lat="45.95165" lon="6.31942">
        <ele>1413</ele>
        <time>2016-10-02T07:57:30+02:00</time>
      </trkpt>
      <trkpt lat="45.95164" lon="6.31942">
        <ele>1413</ele>
        <time>2016-10-02T07:57:31+02:00</time>
      </trkpt>
      <trkpt lat="45.95162" lon="6.31942">
        <ele>1413</ele>
        <time>2016-10-02T07:57:33+02:00</time>
      </trkpt>
      <trkpt lat="45.95161" lon="6.31943">
        <ele>1413</ele>
        <time>2016-10-02T07:57:34+02:00</time>
      </trkpt>
      <trkpt lat="45.95159" lon="6.31943">
        <ele>1413</ele>
        <time>2016-10-02T07:57:35+02:00</time>
      </trkpt>
      <trkpt lat="45.95157" lon="6.31943">
        <ele>1413</ele>
        <time>2016-10-02T07:57:36+02:00</time>
      </trkpt>
      <trkpt lat="45.95156" lon="6.31944">
        <ele>1413</ele>
        <time>2016-10-02T07:57:38+02:00</time>
      </trkpt>
      <trkpt lat="45.95154" lon="6.31943">
        <ele>1413</ele>
        <time>2016-10-02T07:57:39+02:00</time>
      </trkpt>
      <trkpt lat="45.95153" lon="6.31943">
        <ele>1413</ele>
        <time>2016-10-02T07:57:40+02:00</time>
      </trkpt>
      <trkpt lat="45.95152" lon="6.31943">
        <ele>1413</ele>
        <time>2016-10-02T07:57:41+02:00</time>
      </trkpt>
      <trkpt lat="45.9515" lon="6.31942">
        <ele>1413</ele>
        <time>2016-10-02T07:57:43+02:00</time>
      </trkpt>
      <trkpt lat="45.95148" lon="6.31941">
        <ele>1413</ele>
        <time>2016-10-02T07:57:44+02:00</time>
      </trkpt>
      <trkpt lat="45.95146" lon="6.3194">
        <ele>1413</ele>
        <time>2016-10-02T07:57:46+02:00</time>
      </trkpt>
      <trkpt lat="45.95144" lon="6.31939">
        <ele>1413</ele>
        <time>2016-10-02T07:57:48+02:00</time>
      </trkpt>
      <trkpt lat="45.95143" lon="6.31937">
        <ele>1413</ele>
        <time>2016-10-02T07:57:49+02:00</time>
      </trkpt>
      <trkpt lat="45.95141" lon="6.31936">
        <ele>1413</ele>
        <time>2016-10-02T07:57:51+02:00</time>
      </trkpt>
      <trkpt lat="45.95139" lon="6.31933">
        <ele>1413</ele>
        <time>2016-10-02T07:57:53+02:00</time>
      </trkpt>
      <trkpt lat="45.95136" lon="6.31931">
        <ele>1413</ele>
        <time>2016-10-02T07:57:56+02:00</time>
      </trkpt>
      <trkpt lat="45.95133" lon="6.31928">
        <ele>1413</ele>
        <time>2016-10-02T07:57:59+02:00</time>
      </trkpt>
      <trkpt lat="45.9513" lon="6.31925">
        <ele>1413</ele>
        <time>2016-10-02T07:58:01+02:00</time>
      </trkpt>
      <trkpt lat="45.95127" lon="6.31923">
        <ele>1412</ele>
        <time>2016-10-02T07:58:04+02:00</time>
      </trkpt>
      <trkpt lat="45.95124" lon="6.3192">
        <ele>1412</ele>
        <time>2016-10-02T07:58:07+02:00</time>
      </trkpt>
      <trkpt lat="45.95121" lon="6.31919">
        <ele>1412</ele>
        <time>2016-10-02T07:58:09+02:00</time>
      </trkpt>
      <trkpt lat="45.95119" lon="6.31917">
        <ele>1412</ele>
        <time>2016-10-02T07:58:12+02:00</time>
      </trkpt>
      <trkpt lat="45.95117" lon="6.31916">
        <ele>1412</ele>
        <time>2016-10-02T07:58:13+02:00</time>
      </trkpt>
      <trkpt lat="45.95115" lon="6.31915">
        <ele>1412</ele>
        <time>2016-10-02T07:58:15+02:00</time>
      </trkpt>
      <trkpt lat="45.95113" lon="6.31914">
        <ele>1412</ele>
        <time>2016-10-02T07:58:17+02:00</time>
      </trkpt>
      <trkpt lat="45.95112" lon="6.31913">
        <ele>1412</ele>
        <time>2016-10-02T07:58:18+02:00</time>
      </trkpt>
      <trkpt lat="45.9511" lon="6.31912">
        <ele>1412</ele>
        <time>2016-10-02T07:58:20+02:00</time>
      </trkpt>
      <trkpt lat="45.95108" lon="6.31912">
        <ele>1411</ele>
        <time>2016-10-02T07:58:21+02:00</time>
      </trkpt>
      <trkpt lat="45.95106" lon="6.31912">
        <ele>1411</ele>
        <time>2016-10-02T07:58:23+02:00</time>
      </trkpt>
      <trkpt lat="45.95104" lon="6.31912">
        <ele>1411</ele>
        <time>2016-10-02T07:58:24+02:00</time>
      </trkpt>
      <trkpt lat="45.95101" lon="6.31912">
        <ele>1411</ele>
        <time>2016-10-02T07:58:26+02:00</time>
      </trkpt>
      <trkpt lat="45.95099" lon="6.31912">
        <ele>1411</ele>
        <time>2016-10-02T07:58:29+02:00</time>
      </trkpt>
      <trkpt lat="45.95096" lon="6.31912">
        <ele>1411</ele>
        <time>2016-10-02T07:58:31+02:00</time>
      </trkpt>
      <trkpt lat="45.95094" lon="6.31911">
        <ele>1411</ele>
        <time>2016-10-02T07:58:32+02:00</time>
      </trkpt>
      <trkpt lat="45.95092" lon="6.31912">
        <ele>1410</ele>
        <time>2016-10-02T07:58:34+02:00</time>
      </trkpt>
      <trkpt lat="45.95089" lon="6.31911">
        <ele>1410</ele>
        <time>2016-10-02T07:58:36+02:00</time>
      </trkpt>
      <trkpt lat="45.95087" lon="6.31911">
        <ele>1410</ele>
        <time>2016-10-02T07:58:38+02:00</time>
      </trkpt>
      <trkpt lat="45.95085" lon="6.31911">
        <ele>1410</ele>
        <time>2016-10-02T07:58:40+02:00</time>
      </trkpt>
      <trkpt lat="45.95082" lon="6.3191">
        <ele>1410</ele>
        <time>2016-10-02T07:58:42+02:00</time>
      </trkpt>
      <trkpt lat="45.9508" lon="6.31909">
        <ele>1410</ele>
        <time>2016-10-02T07:58:43+02:00</time>
      </trkpt>
      <trkpt lat="45.95078" lon="6.31908">
        <ele>1409</ele>
        <time>2016-10-02T07:58:45+02:00</time>
      </trkpt>
      <trkpt lat="45.95076" lon="6.31907">
        <ele>1409</ele>
        <time>2016-10-02T07:58:47+02:00</time>
      </trkpt>
      <trkpt lat="45.95074" lon="6.31905">
        <ele>1409</ele>
        <time>2016-10-02T07:58:49+02:00</time>
      </trkpt>
      <trkpt lat="45.95073" lon="6.31904">
        <ele>1409</ele>
        <time>2016-10-02T07:58:50+02:00</time>
      </trkpt>
      <trkpt lat="45.95071" lon="6.31902">
        <ele>1408</ele>
        <time>2016-10-02T07:58:52+02:00</time>
      </trkpt>
      <trkpt lat="45.95069" lon="6.319">
        <ele>1408</ele>
        <time>2016-10-02T07:58:54+02:00</time>
      </trkpt>
      <trkpt lat="45.95067" lon="6.31899">
        <ele>1408</ele>
        <time>2016-10-02T07:58:55+02:00</time>
      </trkpt>
      <trkpt lat="45.95065" lon="6.31898">
        <ele>1408</ele>
        <time>2016-10-02T07:58:57+02:00</time>
      </trkpt>
      <trkpt lat="45.95063" lon="6.31897">
        <ele>1407</ele>
        <time>2016-10-02T07:58:59+02:00</time>
      </trkpt>
      <trkpt lat="45.95061" lon="6.31896">
        <ele>1407</ele>
        <time>2016-10-02T07:59:01+02:00</time>
      </trkpt>
      <trkpt lat="45.95059" lon="6.31895">
        <ele>1407</ele>
        <time>2016-10-02T07:59:03+02:00</time>
      </trkpt>
      <trkpt lat="45.95057" lon="6.31893">
        <ele>1407</ele>
        <time>2016-10-02T07:59:04+02:00</time>
      </trkpt>
      <trkpt lat="45.95055" lon="6.31892">
        <ele>1406</ele>
        <time>2016-10-02T07:59:06+02:00</time>
      </trkpt>
      <trkpt lat="45.95053" lon="6.31891">
        <ele>1406</ele>
        <time>2016-10-02T07:59:08+02:00</time>
      </trkpt>
      <trkpt lat="45.95051" lon="6.31889">
        <ele>1406</ele>
        <time>2016-10-02T07:59:10+02:00</time>
      </trkpt>
      <trkpt lat="45.95049" lon="6.31887">
        <ele>1406</ele>
        <time>2016-10-02T07:59:12+02:00</time>
      </trkpt>
      <trkpt lat="45.95046" lon="6.31885">
        <ele>1405</ele>
        <time>2016-10-02T07:59:14+02:00</time>
      </trkpt>
      <trkpt lat="45.95044" lon="6.31883">
        <ele>1405</ele>
        <time>2016-10-02T07:59:16+02:00</time>
      </trkpt>
      <trkpt lat="45.95042" lon="6.31882">
        <ele>1405</ele>
        <time>2016-10-02T07:59:18+02:00</time>
      </trkpt>
      <trkpt lat="45.9504" lon="6.31882">
        <ele>1405</ele>
        <time>2016-10-02T07:59:20+02:00</time>
      </trkpt>
      <trkpt lat="45.95038" lon="6.31881">
        <ele>1404</ele>
        <time>2016-10-02T07:59:22+02:00</time>
      </trkpt>
      <trkpt lat="45.95035" lon="6.3188">
        <ele>1404</ele>
        <time>2016-10-02T07:59:24+02:00</time>
      </trkpt>
      <trkpt lat="45.95033" lon="6.3188">
        <ele>1404</ele>
        <time>2016-10-02T07:59:26+02:00</time>
      </trkpt>
      <trkpt lat="45.9503" lon="6.31879">
        <ele>1403</ele>
        <time>2016-10-02T07:59:28+02:00</time>
      </trkpt>
      <trkpt lat="45.95028" lon="6.31879">
        <ele>1403</ele>
        <time>2016-10-02T07:59:29+02:00</time>
      </trkpt>
      <trkpt lat="45.95026" lon="6.31879">
        <ele>1403</ele>
        <time>2016-10-02T07:59:31+02:00</time>
      </trkpt>
      <trkpt lat="45.95023" lon="6.3188">
        <ele>1403</ele>
        <time>2016-10-02T07:59:33+02:00</time>
      </trkpt>
      <trkpt lat="45.95021" lon="6.3188">
        <ele>1402</ele>
        <time>2016-10-02T07:59:35+02:00</time>
      </trkpt>
      <trkpt lat="45.95019" lon="6.3188">
        <ele>1402</ele>
        <time>2016-10-02T07:59:36+02:00</time>
      </trkpt>
      <trkpt lat="45.95017" lon="6.3188">
        <ele>1402</ele>
        <time>2016-10-02T07:59:38+02:00</time>
      </trkpt>
      <trkpt lat="45.95016" lon="6.3188">
        <ele>1402</ele>
        <time>2016-10-02T07:59:40+02:00</time>
      </trkpt>
      <trkpt lat="45.95014" lon="6.31879">
        <ele>1402</ele>
        <time>2016-10-02T07:59:41+02:00</time>
      </trkpt>
      <trkpt lat="45.95012" lon="6.31879">
        <ele>1401</ele>
        <time>2016-10-02T07:59:43+02:00</time>
      </trkpt>
      <trkpt lat="45.9501" lon="6.31878">
        <ele>1401</ele>
        <time>2016-10-02T07:59:44+02:00</time>
      </trkpt>
      <trkpt lat="45.95008" lon="6.31878">
        <ele>1401</ele>
        <time>2016-10-02T07:59:46+02:00</time>
      </trkpt>
      <trkpt lat="45.95006" lon="6.31877">
        <ele>1401</ele>
        <time>2016-10-02T07:59:48+02:00</time>
      </trkpt>
      <trkpt lat="45.95004" lon="6.31877">
        <ele>1400</ele>
        <time>2016-10-02T07:59:50+02:00</time>
      </trkpt>
      <trkpt lat="45.95001" lon="6.31876">
        <ele>1400</ele>
        <time>2016-10-02T07:59:51+02:00</time>
      </trkpt>
      <trkpt lat="45.94999" lon="6.31875">
        <ele>1400</ele>
        <time>2016-10-02T07:59:53+02:00</time>
      </trkpt>
      <trkpt lat="45.94997" lon="6.31874">
        <ele>1400</ele>
        <time>2016-10-02T07:59:55+02:00</time>
      </trkpt>
      <trkpt lat="45.94995" lon="6.31873">
        <ele>1400</ele>
        <time>2016-10-02T07:59:57+02:00</time>
      </trkpt>
      <trkpt lat="45.94992" lon="6.31871">
        <ele>1401</ele>
        <time>2016-10-02T07:59:59+02:00</time>
      </trkpt>
      <trkpt lat="45.9499" lon="6.31871">
        <ele>1401</ele>
        <time>2016-10-02T08:00:01+02:00</time>
      </trkpt>
      <trkpt lat="45.94988" lon="6.3187">
        <ele>1401</ele>
        <time>2016-10-02T08:00:03+02:00</time>
      </trkpt>
      <trkpt lat="45.94986" lon="6.3187">
        <ele>1401</ele>
        <time>2016-10-02T08:00:04+02:00</time>
      </trkpt>
      <trkpt lat="45.94984" lon="6.31869">
        <ele>1401</ele>
        <time>2016-10-02T08:00:06+02:00</time>
      </trkpt>
      <trkpt lat="45.94982" lon="6.31867">
        <ele>1401</ele>
        <time>2016-10-02T08:00:08+02:00</time>
      </trkpt>
      <trkpt lat="45.9498" lon="6.31866">
        <ele>1401</ele>
        <time>2016-10-02T08:00:10+02:00</time>
      </trkpt>
      <trkpt lat="45.94979" lon="6.31864">
        <ele>1401</ele>
        <time>2016-10-02T08:00:11+02:00</time>
      </trkpt>
      <trkpt lat="45.94978" lon="6.31864">
        <ele>1402</ele>
        <time>2016-10-02T08:00:12+02:00</time>
      </trkpt>
      <trkpt lat="45.94977" lon="6.31862">
        <ele>1402</ele>
        <time>2016-10-02T08:00:13+02:00</time>
      </trkpt>
      <trkpt lat="45.94978" lon="6.31864">
        <ele>1401</ele>
        <time>2016-10-02T08:00:14+02:00</time>
      </trkpt>
      <trkpt lat="45.94979" lon="6.31863">
        <ele>1401</ele>
        <time>2016-10-02T08:00:15+02:00</time>
      </trkpt>
      <trkpt lat="45.94979" lon="6.31862">
        <ele>1401</ele>
        <time>2016-10-02T08:00:16+02:00</time>
      </trkpt>
      <trkpt lat="45.94977" lon="6.31862">
        <ele>1402</ele>
        <time>2016-10-02T08:00:17+02:00</time>
      </trkpt>
      <trkpt lat="45.94974" lon="6.31863">
        <ele>1402</ele>
        <time>2016-10-02T08:00:20+02:00</time>
      </trkpt>
      <trkpt lat="45.94971" lon="6.31864">
        <ele>1402</ele>
        <time>2016-10-02T08:00:22+02:00</time>
      </trkpt>
      <trkpt lat="45.94968" lon="6.31865">
        <ele>1402</ele>
        <time>2016-10-02T08:00:24+02:00</time>
      </trkpt>
      <trkpt lat="45.94965" lon="6.31866">
        <ele>1402</ele>
        <time>2016-10-02T08:00:27+02:00</time>
      </trkpt>
      <trkpt lat="45.94962" lon="6.31867">
        <ele>1403</ele>
        <time>2016-10-02T08:00:29+02:00</time>
      </trkpt>
      <trkpt lat="45.94959" lon="6.31867">
        <ele>1403</ele>
        <time>2016-10-02T08:00:32+02:00</time>
      </trkpt>
      <trkpt lat="45.94957" lon="6.31868">
        <ele>1403</ele>
        <time>2016-10-02T08:00:33+02:00</time>
      </trkpt>
      <trkpt lat="45.94955" lon="6.31869">
        <ele>1403</ele>
        <time>2016-10-02T08:00:35+02:00</time>
      </trkpt>
      <trkpt lat="45.94954" lon="6.31869">
        <ele>1403</ele>
        <time>2016-10-02T08:00:36+02:00</time>
      </trkpt>
      <trkpt lat="45.94952" lon="6.31869">
        <ele>1403</ele>
        <time>2016-10-02T08:00:37+02:00</time>
      </trkpt>
      <trkpt lat="45.94951" lon="6.31869">
        <ele>1403</ele>
        <time>2016-10-02T08:00:39+02:00</time>
      </trkpt>
      <trkpt lat="45.94949" lon="6.31869">
        <ele>1403</ele>
        <time>2016-10-02T08:00:40+02:00</time>
      </trkpt>
      <trkpt lat="45.94948" lon="6.31869">
        <ele>1403</ele>
        <time>2016-10-02T08:00:41+02:00</time>
      </trkpt>
      <trkpt lat="45.94946" lon="6.31869">
        <ele>1404</ele>
        <time>2016-10-02T08:00:43+02:00</time>
      </trkpt>
      <trkpt lat="45.94945" lon="6.31868">
        <ele>1404</ele>
        <time>2016-10-02T08:00:44+02:00</time>
      </trkpt>
      <trkpt lat="45.94943" lon="6.31868">
        <ele>1404</ele>
        <time>2016-10-02T08:00:45+02:00</time>
      </trkpt>
      <trkpt lat="45.94942" lon="6.31868">
        <ele>1404</ele>
        <time>2016-10-02T08:00:46+02:00</time>
      </trkpt>
      <trkpt lat="45.9494" lon="6.31867">
        <ele>1404</ele>
        <time>2016-10-02T08:00:47+02:00</time>
      </trkpt>
      <trkpt lat="45.94938" lon="6.31866">
        <ele>1404</ele>
        <time>2016-10-02T08:00:49+02:00</time>
      </trkpt>
      <trkpt lat="45.94937" lon="6.31866">
        <ele>1404</ele>
        <time>2016-10-02T08:00:50+02:00</time>
      </trkpt>
      <trkpt lat="45.94935" lon="6.31866">
        <ele>1404</ele>
        <time>2016-10-02T08:00:52+02:00</time>
      </trkpt>
      <trkpt lat="45.94932" lon="6.31866">
        <ele>1405</ele>
        <time>2016-10-02T08:00:54+02:00</time>
      </trkpt>
      <trkpt lat="45.94931" lon="6.31866">
        <ele>1405</ele>
        <time>2016-10-02T08:00:55+02:00</time>
      </trkpt>
      <trkpt lat="45.94929" lon="6.31865">
        <ele>1405</ele>
        <time>2016-10-02T08:00:57+02:00</time>
      </trkpt>
      <trkpt lat="45.94927" lon="6.31866">
        <ele>1405</ele>
        <time>2016-10-02T08:00:58+02:00</time>
      </trkpt>
      <trkpt lat="45.94926" lon="6.31866">
        <ele>1405</ele>
        <time>2016-10-02T08:00:59+02:00</time>
      </trkpt>
      <trkpt lat="45.94924" lon="6.31865">
        <ele>1405</ele>
        <time>2016-10-02T08:01:00+02:00</time>
      </trkpt>
      <trkpt lat="45.94923" lon="6.31865">
        <ele>1405</ele>
        <time>2016-10-02T08:01:01+02:00</time>
      </trkpt>
      <trkpt lat="45.94922" lon="6.31865">
        <ele>1405</ele>
        <time>2016-10-02T08:01:02+02:00</time>
      </trkpt>
      <trkpt lat="45.9492" lon="6.31864">
        <ele>1405</ele>
        <time>2016-10-02T08:01:03+02:00</time>
      </trkpt>
      <trkpt lat="45.94919" lon="6.31864">
        <ele>1405</ele>
        <time>2016-10-02T08:01:05+02:00</time>
      </trkpt>
      <trkpt lat="45.94917" lon="6.31863">
        <ele>1406</ele>
        <time>2016-10-02T08:01:06+02:00</time>
      </trkpt>
      <trkpt lat="45.94916" lon="6.31862">
        <ele>1406</ele>
        <time>2016-10-02T08:01:07+02:00</time>
      </trkpt>
      <trkpt lat="45.94914" lon="6.31861">
        <ele>1406</ele>
        <time>2016-10-02T08:01:09+02:00</time>
      </trkpt>
      <trkpt lat="45.94913" lon="6.3186">
        <ele>1406</ele>
        <time>2016-10-02T08:01:10+02:00</time>
      </trkpt>
      <trkpt lat="45.94911" lon="6.31859">
        <ele>1406</ele>
        <time>2016-10-02T08:01:11+02:00</time>
      </trkpt>
      <trkpt lat="45.94909" lon="6.31858">
        <ele>1406</ele>
        <time>2016-10-02T08:01:13+02:00</time>
      </trkpt>
      <trkpt lat="45.94907" lon="6.31855">
        <ele>1406</ele>
        <time>2016-10-02T08:01:15+02:00</time>
      </trkpt>
      <trkpt lat="45.94906" lon="6.31854">
        <ele>1406</ele>
        <time>2016-10-02T08:01:16+02:00</time>
      </trkpt>
      <trkpt lat="45.94905" lon="6.31853">
        <ele>1407</ele>
        <time>2016-10-02T08:01:17+02:00</time>
      </trkpt>
      <trkpt lat="45.94904" lon="6.31852">
        <ele>1407</ele>
        <time>2016-10-02T08:01:18+02:00</time>
      </trkpt>
      <trkpt lat="45.94903" lon="6.31849">
        <ele>1407</ele>
        <time>2016-10-02T08:01:20+02:00</time>
      </trkpt>
      <trkpt lat="45.94901" lon="6.31846">
        <ele>1407</ele>
        <time>2016-10-02T08:01:22+02:00</time>
      </trkpt>
      <trkpt lat="45.949" lon="6.31845">
        <ele>1407</ele>
        <time>2016-10-02T08:01:23+02:00</time>
      </trkpt>
      <trkpt lat="45.949" lon="6.31843">
        <ele>1407</ele>
        <time>2016-10-02T08:01:24+02:00</time>
      </trkpt>
      <trkpt lat="45.94899" lon="6.31842">
        <ele>1407</ele>
        <time>2016-10-02T08:01:25+02:00</time>
      </trkpt>
      <trkpt lat="45.94898" lon="6.3184">
        <ele>1407</ele>
        <time>2016-10-02T08:01:26+02:00</time>
      </trkpt>
      <trkpt lat="45.94897" lon="6.31839">
        <ele>1407</ele>
        <time>2016-10-02T08:01:28+02:00</time>
      </trkpt>
      <trkpt lat="45.94896" lon="6.31837">
        <ele>1407</ele>
        <time>2016-10-02T08:01:29+02:00</time>
      </trkpt>
      <trkpt lat="45.94896" lon="6.31836">
        <ele>1407</ele>
        <time>2016-10-02T08:01:30+02:00</time>
      </trkpt>
      <trkpt lat="45.94895" lon="6.31834">
        <ele>1407</ele>
        <time>2016-10-02T08:01:31+02:00</time>
      </trkpt>
      <trkpt lat="45.94894" lon="6.31832">
        <ele>1407</ele>
        <time>2016-10-02T08:01:32+02:00</time>
      </trkpt>
      <trkpt lat="45.94893" lon="6.31831">
        <ele>1408</ele>
        <time>2016-10-02T08:01:34+02:00</time>
      </trkpt>
      <trkpt lat="45.94892" lon="6.31828">
        <ele>1408</ele>
        <time>2016-10-02T08:01:35+02:00</time>
      </trkpt>
      <trkpt lat="45.94892" lon="6.31825">
        <ele>1408</ele>
        <time>2016-10-02T08:01:37+02:00</time>
      </trkpt>
      <trkpt lat="45.94892" lon="6.31822">
        <ele>1408</ele>
        <time>2016-10-02T08:01:39+02:00</time>
      </trkpt>
      <trkpt lat="45.94891" lon="6.31819">
        <ele>1408</ele>
        <time>2016-10-02T08:01:40+02:00</time>
      </trkpt>
      <trkpt lat="45.9489" lon="6.31816">
        <ele>1408</ele>
        <time>2016-10-02T08:01:42+02:00</time>
      </trkpt>
      <trkpt lat="45.94888" lon="6.31814">
        <ele>1408</ele>
        <time>2016-10-02T08:01:44+02:00</time>
      </trkpt>
      <trkpt lat="45.94886" lon="6.31814">
        <ele>1408</ele>
        <time>2016-10-02T08:01:45+02:00</time>
      </trkpt>
      <trkpt lat="45.94885" lon="6.31814">
        <ele>1408</ele>
        <time>2016-10-02T08:01:46+02:00</time>
      </trkpt>
      <trkpt lat="45.94885" lon="6.31814">
        <ele>1408</ele>
        <time>2016-10-02T08:01:47+02:00</time>
      </trkpt>
      <trkpt lat="45.94884" lon="6.31813">
        <ele>1408</ele>
        <time>2016-10-02T08:01:47+02:00</time>
      </trkpt>
      <trkpt lat="45.94883" lon="6.3181">
        <ele>1408</ele>
        <time>2016-10-02T08:01:49+02:00</time>
      </trkpt>
      <trkpt lat="45.94883" lon="6.31808">
        <ele>1409</ele>
        <time>2016-10-02T08:01:50+02:00</time>
      </trkpt>
      <trkpt lat="45.94882" lon="6.31805">
        <ele>1409</ele>
        <time>2016-10-02T08:01:52+02:00</time>
      </trkpt>
      <trkpt lat="45.94883" lon="6.31802">
        <ele>1409</ele>
        <time>2016-10-02T08:01:54+02:00</time>
      </trkpt>
      <trkpt lat="45.94883" lon="6.318">
        <ele>1409</ele>
        <time>2016-10-02T08:01:55+02:00</time>
      </trkpt>
      <trkpt lat="45.94883" lon="6.31799">
        <ele>1409</ele>
        <time>2016-10-02T08:01:56+02:00</time>
      </trkpt>
      <trkpt lat="45.94882" lon="6.31797">
        <ele>1409</ele>
        <time>2016-10-02T08:01:57+02:00</time>
      </trkpt>
      <trkpt lat="45.94882" lon="6.31794">
        <ele>1409</ele>
        <time>2016-10-02T08:01:58+02:00</time>
      </trkpt>
      <trkpt lat="45.94881" lon="6.31791">
        <ele>1409</ele>
        <time>2016-10-02T08:02:00+02:00</time>
      </trkpt>
      <trkpt lat="45.94881" lon="6.31788">
        <ele>1409</ele>
        <time>2016-10-02T08:02:02+02:00</time>
      </trkpt>
      <trkpt lat="45.9488" lon="6.31786">
        <ele>1409</ele>
        <time>2016-10-02T08:02:03+02:00</time>
      </trkpt>
      <trkpt lat="45.9488" lon="6.31783">
        <ele>1409</ele>
        <time>2016-10-02T08:02:05+02:00</time>
      </trkpt>
      <trkpt lat="45.94879" lon="6.31781">
        <ele>1409</ele>
        <time>2016-10-02T08:02:06+02:00</time>
      </trkpt>
      <trkpt lat="45.94878" lon="6.31778">
        <ele>1409</ele>
        <time>2016-10-02T08:02:08+02:00</time>
      </trkpt>
      <trkpt lat="45.94878" lon="6.31776">
        <ele>1409</ele>
        <time>2016-10-02T08:02:09+02:00</time>
      </trkpt>
      <trkpt lat="45.94877" lon="6.31774">
        <ele>1409</ele>
        <time>2016-10-02T08:02:10+02:00</time>
      </trkpt>
      <trkpt lat="45.94876" lon="6.31771">
        <ele>1409</ele>
        <time>2016-10-02T08:02:12+02:00</time>
      </trkpt>
      <trkpt lat="45.94875" lon="6.31769">
        <ele>1409</ele>
        <time>2016-10-02T08:02:14+02:00</time>
      </trkpt>
      <trkpt lat="45.94874" lon="6.31766">
        <ele>1409</ele>
        <time>2016-10-02T08:02:16+02:00</time>
      </trkpt>
      <trkpt lat="45.94873" lon="6.31762">
        <ele>1409</ele>
        <time>2016-10-02T08:02:18+02:00</time>
      </trkpt>
      <trkpt lat="45.94871" lon="6.31759">
        <ele>1409</ele>
        <time>2016-10-02T08:02:20+02:00</time>
      </trkpt>
      <trkpt lat="45.9487" lon="6.31755">
        <ele>1409</ele>
        <time>2016-10-02T08:02:23+02:00</time>
      </trkpt>
      <trkpt lat="45.94868" lon="6.31751">
        <ele>1409</ele>
        <time>2016-10-02T08:02:25+02:00</time>
      </trkpt>
      <trkpt lat="45.94867" lon="6.31747">
        <ele>1409</ele>
        <time>2016-10-02T08:02:28+02:00</time>
      </trkpt>
      <trkpt lat="45.94865" lon="6.31742">
        <ele>1410</ele>
        <time>2016-10-02T08:02:30+02:00</time>
      </trkpt>
      <trkpt lat="45.94864" lon="6.31738">
        <ele>1410</ele>
        <time>2016-10-02T08:02:33+02:00</time>
      </trkpt>
      <trkpt lat="45.94862" lon="6.31734">
        <ele>1410</ele>
        <time>2016-10-02T08:02:36+02:00</time>
      </trkpt>
      <trkpt lat="45.9486" lon="6.31729">
        <ele>1410</ele>
        <time>2016-10-02T08:02:39+02:00</time>
      </trkpt>
      <trkpt lat="45.94858" lon="6.31725">
        <ele>1410</ele>
        <time>2016-10-02T08:02:42+02:00</time>
      </trkpt>
      <trkpt lat="45.94856" lon="6.3172">
        <ele>1410</ele>
        <time>2016-10-02T08:02:45+02:00</time>
      </trkpt>
      <trkpt lat="45.94854" lon="6.31715">
        <ele>1410</ele>
        <time>2016-10-02T08:02:48+02:00</time>
      </trkpt>
      <trkpt lat="45.94852" lon="6.3171">
        <ele>1410</ele>
        <time>2016-10-02T08:02:51+02:00</time>
      </trkpt>
      <trkpt lat="45.94851" lon="6.31706">
        <ele>1410</ele>
        <time>2016-10-02T08:02:54+02:00</time>
      </trkpt>
      <trkpt lat="45.94849" lon="6.31702">
        <ele>1409</ele>
        <time>2016-10-02T08:02:57+02:00</time>
      </trkpt>
      <trkpt lat="45.94846" lon="6.31698">
        <ele>1409</ele>
        <time>2016-10-02T08:03:00+02:00</time>
      </trkpt>
      <trkpt lat="45.94844" lon="6.31693">
        <ele>1409</ele>
        <time>2016-10-02T08:03:03+02:00</time>
      </trkpt>
      <trkpt lat="45.94842" lon="6.31689">
        <ele>1409</ele>
        <time>2016-10-02T08:03:06+02:00</time>
      </trkpt>
      <trkpt lat="45.94839" lon="6.31685">
        <ele>1409</ele>
        <time>2016-10-02T08:03:09+02:00</time>
      </trkpt>
      <trkpt lat="45.94836" lon="6.31682">
        <ele>1408</ele>
        <time>2016-10-02T08:03:12+02:00</time>
      </trkpt>
      <trkpt lat="45.94833" lon="6.31678">
        <ele>1408</ele>
        <time>2016-10-02T08:03:15+02:00</time>
      </trkpt>
      <trkpt lat="45.94831" lon="6.31675">
        <ele>1408</ele>
        <time>2016-10-02T08:03:18+02:00</time>
      </trkpt>
      <trkpt lat="45.94828" lon="6.31671">
        <ele>1408</ele>
        <time>2016-10-02T08:03:21+02:00</time>
      </trkpt>
      <trkpt lat="45.94826" lon="6.31667">
        <ele>1407</ele>
        <time>2016-10-02T08:03:24+02:00</time>
      </trkpt>
      <trkpt lat="45.94824" lon="6.31663">
        <ele>1407</ele>
        <time>2016-10-02T08:03:26+02:00</time>
      </trkpt>
      <trkpt lat="45.94822" lon="6.31659">
        <ele>1407</ele>
        <time>2016-10-02T08:03:29+02:00</time>
      </trkpt>
      <trkpt lat="45.9482" lon="6.31656">
        <ele>1407</ele>
        <time>2016-10-02T08:03:32+02:00</time>
      </trkpt>
      <trkpt lat="45.94818" lon="6.31652">
        <ele>1407</ele>
        <time>2016-10-02T08:03:34+02:00</time>
      </trkpt>
      <trkpt lat="45.94817" lon="6.31648">
        <ele>1407</ele>
        <time>2016-10-02T08:03:37+02:00</time>
      </trkpt>
      <trkpt lat="45.94815" lon="6.31643">
        <ele>1407</ele>
        <time>2016-10-02T08:03:39+02:00</time>
      </trkpt>
      <trkpt lat="45.94814" lon="6.31639">
        <ele>1408</ele>
        <time>2016-10-02T08:03:42+02:00</time>
      </trkpt>
      <trkpt lat="45.94813" lon="6.31635">
        <ele>1408</ele>
        <time>2016-10-02T08:03:45+02:00</time>
      </trkpt>
      <trkpt lat="45.94812" lon="6.3163">
        <ele>1408</ele>
        <time>2016-10-02T08:03:47+02:00</time>
      </trkpt>
      <trkpt lat="45.94811" lon="6.31626">
        <ele>1408</ele>
        <time>2016-10-02T08:03:50+02:00</time>
      </trkpt>
      <trkpt lat="45.9481" lon="6.31622">
        <ele>1408</ele>
        <time>2016-10-02T08:03:52+02:00</time>
      </trkpt>
      <trkpt lat="45.94809" lon="6.31618">
        <ele>1408</ele>
        <time>2016-10-02T08:03:55+02:00</time>
      </trkpt>
      <trkpt lat="45.94809" lon="6.31615">
        <ele>1408</ele>
        <time>2016-10-02T08:03:56+02:00</time>
      </trkpt>
      <trkpt lat="45.94808" lon="6.31612">
        <ele>1408</ele>
        <time>2016-10-02T08:03:58+02:00</time>
      </trkpt>
      <trkpt lat="45.94808" lon="6.31611">
        <ele>1408</ele>
        <time>2016-10-02T08:03:59+02:00</time>
      </trkpt>
      <trkpt lat="45.94808" lon="6.31609">
        <ele>1409</ele>
        <time>2016-10-02T08:04:00+02:00</time>
      </trkpt>
      <trkpt lat="45.94808" lon="6.31605">
        <ele>1409</ele>
        <time>2016-10-02T08:04:02+02:00</time>
      </trkpt>
      <trkpt lat="45.94808" lon="6.31602">
        <ele>1409</ele>
        <time>2016-10-02T08:04:04+02:00</time>
      </trkpt>
      <trkpt lat="45.94809" lon="6.31599">
        <ele>1409</ele>
        <time>2016-10-02T08:04:06+02:00</time>
      </trkpt>
      <trkpt lat="45.94809" lon="6.31595">
        <ele>1409</ele>
        <time>2016-10-02T08:04:08+02:00</time>
      </trkpt>
      <trkpt lat="45.9481" lon="6.31592">
        <ele>1410</ele>
        <time>2016-10-02T08:04:09+02:00</time>
      </trkpt>
      <trkpt lat="45.94811" lon="6.3159">
        <ele>1410</ele>
        <time>2016-10-02T08:04:11+02:00</time>
      </trkpt>
      <trkpt lat="45.94804" lon="6.31578">
        <ele>1410</ele>
        <time>2016-10-02T08:04:20+02:00</time>
      </trkpt>
      <trkpt lat="45.94799" lon="6.31571">
        <ele>1409</ele>
        <time>2016-10-02T08:04:25+02:00</time>
      </trkpt>
      <trkpt lat="45.94789" lon="6.31564">
        <ele>1409</ele>
        <time>2016-10-02T08:04:36+02:00</time>
      </trkpt>
      <trkpt lat="45.94785" lon="6.31562">
        <ele>1408</ele>
        <time>2016-10-02T08:04:39+02:00</time>
      </trkpt>
      <trkpt lat="45.9478" lon="6.31562">
        <ele>1408</ele>
        <time>2016-10-02T08:04:43+02:00</time>
      </trkpt>
      <trkpt lat="45.94777" lon="6.3156">
        <ele>1408</ele>
        <time>2016-10-02T08:04:46+02:00</time>
      </trkpt>
      <trkpt lat="45.94773" lon="6.31557">
        <ele>1408</ele>
        <time>2016-10-02T08:04:50+02:00</time>
      </trkpt>
      <trkpt lat="45.94769" lon="6.31553">
        <ele>1408</ele>
        <time>2016-10-02T08:04:54+02:00</time>
      </trkpt>
      <trkpt lat="45.94765" lon="6.31549">
        <ele>1408</ele>
        <time>2016-10-02T08:04:57+02:00</time>
      </trkpt>
      <trkpt lat="45.94762" lon="6.31544">
        <ele>1408</ele>
        <time>2016-10-02T08:05:01+02:00</time>
      </trkpt>
      <trkpt lat="45.94759" lon="6.3154">
        <ele>1408</ele>
        <time>2016-10-02T08:05:05+02:00</time>
      </trkpt>
      <trkpt lat="45.94756" lon="6.31536">
        <ele>1408</ele>
        <time>2016-10-02T08:05:08+02:00</time>
      </trkpt>
      <trkpt lat="45.94753" lon="6.31532">
        <ele>1408</ele>
        <time>2016-10-02T08:05:11+02:00</time>
      </trkpt>
      <trkpt lat="45.94749" lon="6.31528">
        <ele>1408</ele>
        <time>2016-10-02T08:05:15+02:00</time>
      </trkpt>
      <trkpt lat="45.94745" lon="6.31525">
        <ele>1409</ele>
        <time>2016-10-02T08:05:19+02:00</time>
      </trkpt>
      <trkpt lat="45.94741" lon="6.31522">
        <ele>1409</ele>
        <time>2016-10-02T08:05:22+02:00</time>
      </trkpt>
      <trkpt lat="45.94737" lon="6.31519">
        <ele>1409</ele>
        <time>2016-10-02T08:05:26+02:00</time>
      </trkpt>
      <trkpt lat="45.94733" lon="6.31516">
        <ele>1410</ele>
        <time>2016-10-02T08:05:29+02:00</time>
      </trkpt>
      <trkpt lat="45.94728" lon="6.31514">
        <ele>1410</ele>
        <time>2016-10-02T08:05:33+02:00</time>
      </trkpt>
      <trkpt lat="45.94724" lon="6.31512">
        <ele>1411</ele>
        <time>2016-10-02T08:05:37+02:00</time>
      </trkpt>
      <trkpt lat="45.9472" lon="6.3151">
        <ele>1411</ele>
        <time>2016-10-02T08:05:40+02:00</time>
      </trkpt>
      <trkpt lat="45.94715" lon="6.31509">
        <ele>1411</ele>
        <time>2016-10-02T08:05:44+02:00</time>
      </trkpt>
      <trkpt lat="45.94711" lon="6.31508">
        <ele>1411</ele>
        <time>2016-10-02T08:05:48+02:00</time>
      </trkpt>
      <trkpt lat="45.94706" lon="6.31507">
        <ele>1412</ele>
        <time>2016-10-02T08:05:52+02:00</time>
      </trkpt>
      <trkpt lat="45.94702" lon="6.31506">
        <ele>1412</ele>
        <time>2016-10-02T08:05:55+02:00</time>
      </trkpt>
      <trkpt lat="45.94698" lon="6.31503">
        <ele>1412</ele>
        <time>2016-10-02T08:05:59+02:00</time>
      </trkpt>
      <trkpt lat="45.94694" lon="6.31501">
        <ele>1413</ele>
        <time>2016-10-02T08:06:02+02:00</time>
      </trkpt>
      <trkpt lat="45.94689" lon="6.31498">
        <ele>1413</ele>
        <time>2016-10-02T08:06:06+02:00</time>
      </trkpt>
      <trkpt lat="45.94685" lon="6.31495">
        <ele>1414</ele>
        <time>2016-10-02T08:06:10+02:00</time>
      </trkpt>
      <trkpt lat="45.94681" lon="6.31491">
        <ele>1414</ele>
        <time>2016-10-02T08:06:14+02:00</time>
      </trkpt>
      <trkpt lat="45.94678" lon="6.31487">
        <ele>1415</ele>
        <time>2016-10-02T08:06:18+02:00</time>
      </trkpt>
      <trkpt lat="45.94673" lon="6.31484">
        <ele>1415</ele>
        <time>2016-10-02T08:06:21+02:00</time>
      </trkpt>
      <trkpt lat="45.94669" lon="6.3148">
        <ele>1416</ele>
        <time>2016-10-02T08:06:25+02:00</time>
      </trkpt>
      <trkpt lat="45.94665" lon="6.31476">
        <ele>1416</ele>
        <time>2016-10-02T08:06:29+02:00</time>
      </trkpt>
      <trkpt lat="45.94662" lon="6.31471">
        <ele>1417</ele>
        <time>2016-10-02T08:06:33+02:00</time>
      </trkpt>
      <trkpt lat="45.94657" lon="6.31467">
        <ele>1417</ele>
        <time>2016-10-02T08:06:37+02:00</time>
      </trkpt>
      <trkpt lat="45.94653" lon="6.31464">
        <ele>1417</ele>
        <time>2016-10-02T08:06:41+02:00</time>
      </trkpt>
      <trkpt lat="45.94648" lon="6.3146">
        <ele>1418</ele>
        <time>2016-10-02T08:06:45+02:00</time>
      </trkpt>
      <trkpt lat="45.94643" lon="6.31457">
        <ele>1418</ele>
        <time>2016-10-02T08:06:50+02:00</time>
      </trkpt>
      <trkpt lat="45.94639" lon="6.31454">
        <ele>1419</ele>
        <time>2016-10-02T08:06:54+02:00</time>
      </trkpt>
      <trkpt lat="45.94634" lon="6.31452">
        <ele>1419</ele>
        <time>2016-10-02T08:06:58+02:00</time>
      </trkpt>
      <trkpt lat="45.94629" lon="6.31449">
        <ele>1419</ele>
        <time>2016-10-02T08:07:02+02:00</time>
      </trkpt>
      <trkpt lat="45.94625" lon="6.31446">
        <ele>1420</ele>
        <time>2016-10-02T08:07:06+02:00</time>
      </trkpt>
      <trkpt lat="45.9462" lon="6.31444">
        <ele>1420</ele>
        <time>2016-10-02T08:07:10+02:00</time>
      </trkpt>
      <trkpt lat="45.94615" lon="6.31442">
        <ele>1421</ele>
        <time>2016-10-02T08:07:14+02:00</time>
      </trkpt>
      <trkpt lat="45.9461" lon="6.31442">
        <ele>1421</ele>
        <time>2016-10-02T08:07:18+02:00</time>
      </trkpt>
      <trkpt lat="45.94606" lon="6.3144">
        <ele>1421</ele>
        <time>2016-10-02T08:07:22+02:00</time>
      </trkpt>
      <trkpt lat="45.94601" lon="6.31439">
        <ele>1421</ele>
        <time>2016-10-02T08:07:25+02:00</time>
      </trkpt>
      <trkpt lat="45.94597" lon="6.31437">
        <ele>1422</ele>
        <time>2016-10-02T08:07:29+02:00</time>
      </trkpt>
      <trkpt lat="45.94593" lon="6.31436">
        <ele>1422</ele>
        <time>2016-10-02T08:07:32+02:00</time>
      </trkpt>
      <trkpt lat="45.94589" lon="6.31434">
        <ele>1422</ele>
        <time>2016-10-02T08:07:35+02:00</time>
      </trkpt>
      <trkpt lat="45.94585" lon="6.31431">
        <ele>1423</ele>
        <time>2016-10-02T08:07:39+02:00</time>
      </trkpt>
      <trkpt lat="45.94581" lon="6.31429">
        <ele>1423</ele>
        <time>2016-10-02T08:07:43+02:00</time>
      </trkpt>
      <trkpt lat="45.94576" lon="6.31428">
        <ele>1423</ele>
        <time>2016-10-02T08:07:46+02:00</time>
      </trkpt>
      <trkpt lat="45.94572" lon="6.31427">
        <ele>1423</ele>
        <time>2016-10-02T08:07:50+02:00</time>
      </trkpt>
      <trkpt lat="45.94567" lon="6.31426">
        <ele>1423</ele>
        <time>2016-10-02T08:07:54+02:00</time>
      </trkpt>
      <trkpt lat="45.94563" lon="6.31423">
        <ele>1424</ele>
        <time>2016-10-02T08:07:57+02:00</time>
      </trkpt>
      <trkpt lat="45.94559" lon="6.31421">
        <ele>1424</ele>
        <time>2016-10-02T08:08:01+02:00</time>
      </trkpt>
      <trkpt lat="45.94554" lon="6.31417">
        <ele>1424</ele>
        <time>2016-10-02T08:08:05+02:00</time>
      </trkpt>
      <trkpt lat="45.9455" lon="6.31413">
        <ele>1425</ele>
        <time>2016-10-02T08:08:09+02:00</time>
      </trkpt>
      <trkpt lat="45.94547" lon="6.31409">
        <ele>1426</ele>
        <time>2016-10-02T08:08:13+02:00</time>
      </trkpt>
      <trkpt lat="45.94544" lon="6.31404">
        <ele>1426</ele>
        <time>2016-10-02T08:08:17+02:00</time>
      </trkpt>
      <trkpt lat="45.9454" lon="6.31399">
        <ele>1427</ele>
        <time>2016-10-02T08:08:21+02:00</time>
      </trkpt>
      <trkpt lat="45.94537" lon="6.31395">
        <ele>1428</ele>
        <time>2016-10-02T08:08:24+02:00</time>
      </trkpt>
      <trkpt lat="45.94533" lon="6.31392">
        <ele>1428</ele>
        <time>2016-10-02T08:08:28+02:00</time>
      </trkpt>
      <trkpt lat="45.94529" lon="6.31389">
        <ele>1428</ele>
        <time>2016-10-02T08:08:32+02:00</time>
      </trkpt>
      <trkpt lat="45.94525" lon="6.31388">
        <ele>1429</ele>
        <time>2016-10-02T08:08:35+02:00</time>
      </trkpt>
      <trkpt lat="45.94521" lon="6.31386">
        <ele>1429</ele>
        <time>2016-10-02T08:08:38+02:00</time>
      </trkpt>
      <trkpt lat="45.94517" lon="6.31385">
        <ele>1429</ele>
        <time>2016-10-02T08:08:41+02:00</time>
      </trkpt>
      <trkpt lat="45.94513" lon="6.31383">
        <ele>1430</ele>
        <time>2016-10-02T08:08:45+02:00</time>
      </trkpt>
      <trkpt lat="45.94509" lon="6.31382">
        <ele>1430</ele>
        <time>2016-10-02T08:08:48+02:00</time>
      </trkpt>
      <trkpt lat="45.94505" lon="6.31381">
        <ele>1430</ele>
        <time>2016-10-02T08:08:52+02:00</time>
      </trkpt>
      <trkpt lat="45.94501" lon="6.31379">
        <ele>1430</ele>
        <time>2016-10-02T08:08:55+02:00</time>
      </trkpt>
      <trkpt lat="45.94496" lon="6.31378">
        <ele>1431</ele>
        <time>2016-10-02T08:08:59+02:00</time>
      </trkpt>
      <trkpt lat="45.94491" lon="6.31377">
        <ele>1431</ele>
        <time>2016-10-02T08:09:03+02:00</time>
      </trkpt>
      <trkpt lat="45.94486" lon="6.31375">
        <ele>1431</ele>
        <time>2016-10-02T08:09:07+02:00</time>
      </trkpt>
      <trkpt lat="45.94482" lon="6.31374">
        <ele>1431</ele>
        <time>2016-10-02T08:09:11+02:00</time>
      </trkpt>
      <trkpt lat="45.94477" lon="6.31372">
        <ele>1431</ele>
        <time>2016-10-02T08:09:15+02:00</time>
      </trkpt>
      <trkpt lat="45.94472" lon="6.31371">
        <ele>1431</ele>
        <time>2016-10-02T08:09:19+02:00</time>
      </trkpt>
      <trkpt lat="45.94467" lon="6.3137">
        <ele>1431</ele>
        <time>2016-10-02T08:09:23+02:00</time>
      </trkpt>
      <trkpt lat="45.94463" lon="6.31368">
        <ele>1432</ele>
        <time>2016-10-02T08:09:26+02:00</time>
      </trkpt>
      <trkpt lat="45.94458" lon="6.31368">
        <ele>1432</ele>
        <time>2016-10-02T08:09:30+02:00</time>
      </trkpt>
      <trkpt lat="45.94453" lon="6.31368">
        <ele>1432</ele>
        <time>2016-10-02T08:09:34+02:00</time>
      </trkpt>
      <trkpt lat="45.94448" lon="6.31367">
        <ele>1432</ele>
        <time>2016-10-02T08:09:38+02:00</time>
      </trkpt>
      <trkpt lat="45.94444" lon="6.31364">
        <ele>1432</ele>
        <time>2016-10-02T08:09:42+02:00</time>
      </trkpt>
      <trkpt lat="45.94439" lon="6.31362">
        <ele>1432</ele>
        <time>2016-10-02T08:09:46+02:00</time>
      </trkpt>
      <trkpt lat="45.94434" lon="6.31362">
        <ele>1432</ele>
        <time>2016-10-02T08:09:50+02:00</time>
      </trkpt>
      <trkpt lat="45.94429" lon="6.31363">
        <ele>1432</ele>
        <time>2016-10-02T08:09:54+02:00</time>
      </trkpt>
      <trkpt lat="45.94424" lon="6.31362">
        <ele>1432</ele>
        <time>2016-10-02T08:09:58+02:00</time>
      </trkpt>
      <trkpt lat="45.94419" lon="6.31361">
        <ele>1432</ele>
        <time>2016-10-02T08:10:02+02:00</time>
      </trkpt>
      <trkpt lat="45.94415" lon="6.3136">
        <ele>1433</ele>
        <time>2016-10-02T08:10:06+02:00</time>
      </trkpt>
      <trkpt lat="45.9441" lon="6.31358">
        <ele>1433</ele>
        <time>2016-10-02T08:10:09+02:00</time>
      </trkpt>
      <trkpt lat="45.94406" lon="6.31356">
        <ele>1433</ele>
        <time>2016-10-02T08:10:13+02:00</time>
      </trkpt>
      <trkpt lat="45.94402" lon="6.31352">
        <ele>1434</ele>
        <time>2016-10-02T08:10:17+02:00</time>
      </trkpt>
      <trkpt lat="45.94397" lon="6.31349">
        <ele>1434</ele>
        <time>2016-10-02T08:10:21+02:00</time>
      </trkpt>
      <trkpt lat="45.94392" lon="6.31346">
        <ele>1435</ele>
        <time>2016-10-02T08:10:26+02:00</time>
      </trkpt>
      <trkpt lat="45.94386" lon="6.31345">
        <ele>1435</ele>
        <time>2016-10-02T08:10:30+02:00</time>
      </trkpt>
      <trkpt lat="45.94381" lon="6.31343">
        <ele>1435</ele>
        <time>2016-10-02T08:10:34+02:00</time>
      </trkpt>
      <trkpt lat="45.94376" lon="6.31341">
        <ele>1435</ele>
        <time>2016-10-02T08:10:39+02:00</time>
      </trkpt>
      <trkpt lat="45.94372" lon="6.31338">
        <ele>1436</ele>
        <time>2016-10-02T08:10:42+02:00</time>
      </trkpt>
      <trkpt lat="45.94369" lon="6.31336">
        <ele>1436</ele>
        <time>2016-10-02T08:10:45+02:00</time>
      </trkpt>
      <trkpt lat="45.94364" lon="6.31333">
        <ele>1437</ele>
        <time>2016-10-02T08:10:49+02:00</time>
      </trkpt>
      <trkpt lat="45.94359" lon="6.31329">
        <ele>1437</ele>
        <time>2016-10-02T08:10:54+02:00</time>
      </trkpt>
      <trkpt lat="45.94356" lon="6.31326">
        <ele>1438</ele>
        <time>2016-10-02T08:10:57+02:00</time>
      </trkpt>
      <trkpt lat="45.94351" lon="6.31323">
        <ele>1439</ele>
        <time>2016-10-02T08:11:01+02:00</time>
      </trkpt>
      <trkpt lat="45.94346" lon="6.3132">
        <ele>1439</ele>
        <time>2016-10-02T08:11:05+02:00</time>
      </trkpt>
      <trkpt lat="45.94342" lon="6.31317">
        <ele>1440</ele>
        <time>2016-10-02T08:11:09+02:00</time>
      </trkpt>
      <trkpt lat="45.94337" lon="6.31316">
        <ele>1440</ele>
        <time>2016-10-02T08:11:13+02:00</time>
      </trkpt>
      <trkpt lat="45.94332" lon="6.31316">
        <ele>1440</ele>
        <time>2016-10-02T08:11:17+02:00</time>
      </trkpt>
      <trkpt lat="45.94327" lon="6.31317">
        <ele>1440</ele>
        <time>2016-10-02T08:11:21+02:00</time>
      </trkpt>
      <trkpt lat="45.94322" lon="6.31318">
        <ele>1439</ele>
        <time>2016-10-02T08:11:25+02:00</time>
      </trkpt>
      <trkpt lat="45.94317" lon="6.31319">
        <ele>1439</ele>
        <time>2016-10-02T08:11:29+02:00</time>
      </trkpt>
      <trkpt lat="45.94312" lon="6.31321">
        <ele>1439</ele>
        <time>2016-10-02T08:11:33+02:00</time>
      </trkpt>
      <trkpt lat="45.94308" lon="6.31323">
        <ele>1438</ele>
        <time>2016-10-02T08:11:37+02:00</time>
      </trkpt>
      <trkpt lat="45.94303" lon="6.31325">
        <ele>1438</ele>
        <time>2016-10-02T08:11:41+02:00</time>
      </trkpt>
      <trkpt lat="45.94299" lon="6.31327">
        <ele>1438</ele>
        <time>2016-10-02T08:11:45+02:00</time>
      </trkpt>
      <trkpt lat="45.94294" lon="6.31328">
        <ele>1438</ele>
        <time>2016-10-02T08:11:49+02:00</time>
      </trkpt>
      <trkpt lat="45.9429" lon="6.3133">
        <ele>1437</ele>
        <time>2016-10-02T08:11:52+02:00</time>
      </trkpt>
      <trkpt lat="45.94286" lon="6.31332">
        <ele>1437</ele>
        <time>2016-10-02T08:11:56+02:00</time>
      </trkpt>
      <trkpt lat="45.94282" lon="6.31333">
        <ele>1437</ele>
        <time>2016-10-02T08:11:59+02:00</time>
      </trkpt>
      <trkpt lat="45.94277" lon="6.31335">
        <ele>1436</ele>
        <time>2016-10-02T08:12:02+02:00</time>
      </trkpt>
      <trkpt lat="45.94273" lon="6.31337">
        <ele>1436</ele>
        <time>2016-10-02T08:12:06+02:00</time>
      </trkpt>
      <trkpt lat="45.94269" lon="6.31339">
        <ele>1436</ele>
        <time>2016-10-02T08:12:10+02:00</time>
      </trkpt>
      <trkpt lat="45.94265" lon="6.31341">
        <ele>1436</ele>
        <time>2016-10-02T08:12:13+02:00</time>
      </trkpt>
      <trkpt lat="45.9426" lon="6.31344">
        <ele>1436</ele>
        <time>2016-10-02T08:12:17+02:00</time>
      </trkpt>
      <trkpt lat="45.94256" lon="6.31346">
        <ele>1436</ele>
        <time>2016-10-02T08:12:21+02:00</time>
      </trkpt>
      <trkpt lat="45.94251" lon="6.31348">
        <ele>1436</ele>
        <time>2016-10-02T08:12:25+02:00</time>
      </trkpt>
      <trkpt lat="45.94247" lon="6.31351">
        <ele>1435</ele>
        <time>2016-10-02T08:12:29+02:00</time>
      </trkpt>
      <trkpt lat="45.94242" lon="6.31354">
        <ele>1436</ele>
        <time>2016-10-02T08:12:32+02:00</time>
      </trkpt>
      <trkpt lat="45.94238" lon="6.31356">
        <ele>1435</ele>
        <time>2016-10-02T08:12:36+02:00</time>
      </trkpt>
      <trkpt lat="45.94233" lon="6.31358">
        <ele>1436</ele>
        <time>2016-10-02T08:12:40+02:00</time>
      </trkpt>
      <trkpt lat="45.94229" lon="6.31359">
        <ele>1436</ele>
        <time>2016-10-02T08:12:44+02:00</time>
      </trkpt>
      <trkpt lat="45.94224" lon="6.3136">
        <ele>1436</ele>
        <time>2016-10-02T08:12:47+02:00</time>
      </trkpt>
      <trkpt lat="45.9422" lon="6.31359">
        <ele>1436</ele>
        <time>2016-10-02T08:12:51+02:00</time>
      </trkpt>
      <trkpt lat="45.94215" lon="6.31358">
        <ele>1436</ele>
        <time>2016-10-02T08:12:55+02:00</time>
      </trkpt>
      <trkpt lat="45.9421" lon="6.31357">
        <ele>1437</ele>
        <time>2016-10-02T08:12:59+02:00</time>
      </trkpt>
      <trkpt lat="45.94206" lon="6.31356">
        <ele>1437</ele>
        <time>2016-10-02T08:13:02+02:00</time>
      </trkpt>
      <trkpt lat="45.94202" lon="6.31355">
        <ele>1438</ele>
        <time>2016-10-02T08:13:06+02:00</time>
      </trkpt>
      <trkpt lat="45.94197" lon="6.31354">
        <ele>1438</ele>
        <time>2016-10-02T08:13:10+02:00</time>
      </trkpt>
      <trkpt lat="45.94192" lon="6.31353">
        <ele>1438</ele>
        <time>2016-10-02T08:13:13+02:00</time>
      </trkpt>
      <trkpt lat="45.94188" lon="6.31351">
        <ele>1439</ele>
        <time>2016-10-02T08:13:17+02:00</time>
      </trkpt>
      <trkpt lat="45.94183" lon="6.3135">
        <ele>1439</ele>
        <time>2016-10-02T08:13:21+02:00</time>
      </trkpt>
      <trkpt lat="45.94178" lon="6.31348">
        <ele>1440</ele>
        <time>2016-10-02T08:13:25+02:00</time>
      </trkpt>
      <trkpt lat="45.94173" lon="6.31347">
        <ele>1440</ele>
        <time>2016-10-02T08:13:29+02:00</time>
      </trkpt>
      <trkpt lat="45.94168" lon="6.31346">
        <ele>1441</ele>
        <time>2016-10-02T08:13:33+02:00</time>
      </trkpt>
      <trkpt lat="45.94164" lon="6.31345">
        <ele>1441</ele>
        <time>2016-10-02T08:13:37+02:00</time>
      </trkpt>
      <trkpt lat="45.94159" lon="6.31344">
        <ele>1442</ele>
        <time>2016-10-02T08:13:41+02:00</time>
      </trkpt>
      <trkpt lat="45.94154" lon="6.31344">
        <ele>1442</ele>
        <time>2016-10-02T08:13:45+02:00</time>
      </trkpt>
      <trkpt lat="45.94149" lon="6.31343">
        <ele>1442</ele>
        <time>2016-10-02T08:13:49+02:00</time>
      </trkpt>
      <trkpt lat="45.94144" lon="6.31342">
        <ele>1443</ele>
        <time>2016-10-02T08:13:53+02:00</time>
      </trkpt>
      <trkpt lat="45.94139" lon="6.31341">
        <ele>1443</ele>
        <time>2016-10-02T08:13:57+02:00</time>
      </trkpt>
      <trkpt lat="45.94135" lon="6.31341">
        <ele>1443</ele>
        <time>2016-10-02T08:14:00+02:00</time>
      </trkpt>
      <trkpt lat="45.94131" lon="6.31341">
        <ele>1444</ele>
        <time>2016-10-02T08:14:03+02:00</time>
      </trkpt>
      <trkpt lat="45.94126" lon="6.31341">
        <ele>1444</ele>
        <time>2016-10-02T08:14:07+02:00</time>
      </trkpt>
      <trkpt lat="45.94122" lon="6.31342">
        <ele>1444</ele>
        <time>2016-10-02T08:14:11+02:00</time>
      </trkpt>
      <trkpt lat="45.94118" lon="6.31343">
        <ele>1444</ele>
        <time>2016-10-02T08:14:14+02:00</time>
      </trkpt>
      <trkpt lat="45.94114" lon="6.31343">
        <ele>1444</ele>
        <time>2016-10-02T08:14:17+02:00</time>
      </trkpt>
      <trkpt lat="45.94109" lon="6.31344">
        <ele>1444</ele>
        <time>2016-10-02T08:14:21+02:00</time>
      </trkpt>
      <trkpt lat="45.94105" lon="6.31345">
        <ele>1444</ele>
        <time>2016-10-02T08:14:24+02:00</time>
      </trkpt>
      <trkpt lat="45.941" lon="6.31346">
        <ele>1445</ele>
        <time>2016-10-02T08:14:29+02:00</time>
      </trkpt>
      <trkpt lat="45.94096" lon="6.31346">
        <ele>1445</ele>
        <time>2016-10-02T08:14:32+02:00</time>
      </trkpt>
      <trkpt lat="45.94093" lon="6.31346">
        <ele>1445</ele>
        <time>2016-10-02T08:14:34+02:00</time>
      </trkpt>
      <trkpt lat="45.94089" lon="6.31345">
        <ele>1445</ele>
        <time>2016-10-02T08:14:37+02:00</time>
      </trkpt>
      <trkpt lat="45.94085" lon="6.31343">
        <ele>1446</ele>
        <time>2016-10-02T08:14:41+02:00</time>
      </trkpt>
      <trkpt lat="45.94081" lon="6.31343">
        <ele>1446</ele>
        <time>2016-10-02T08:14:44+02:00</time>
      </trkpt>
      <trkpt lat="45.94077" lon="6.31342">
        <ele>1447</ele>
        <time>2016-10-02T08:14:47+02:00</time>
      </trkpt>
      <trkpt lat="45.94073" lon="6.31341">
        <ele>1448</ele>
        <time>2016-10-02T08:14:50+02:00</time>
      </trkpt>
      <trkpt lat="45.9407" lon="6.31339">
        <ele>1449</ele>
        <time>2016-10-02T08:14:53+02:00</time>
      </trkpt>
      <trkpt lat="45.94066" lon="6.31338">
        <ele>1449</ele>
        <time>2016-10-02T08:14:57+02:00</time>
      </trkpt>
      <trkpt lat="45.94062" lon="6.31337">
        <ele>1450</ele>
        <time>2016-10-02T08:15:00+02:00</time>
      </trkpt>
      <trkpt lat="45.94059" lon="6.31336">
        <ele>1451</ele>
        <time>2016-10-02T08:15:02+02:00</time>
      </trkpt>
      <trkpt lat="45.94055" lon="6.31334">
        <ele>1452</ele>
        <time>2016-10-02T08:15:05+02:00</time>
      </trkpt>
      <trkpt lat="45.94051" lon="6.31333">
        <ele>1453</ele>
        <time>2016-10-02T08:15:09+02:00</time>
      </trkpt>
      <trkpt lat="45.94047" lon="6.31332">
        <ele>1453</ele>
        <time>2016-10-02T08:15:12+02:00</time>
      </trkpt>
      <trkpt lat="45.94043" lon="6.31331">
        <ele>1454</ele>
        <time>2016-10-02T08:15:16+02:00</time>
      </trkpt>
      <trkpt lat="45.94038" lon="6.3133">
        <ele>1455</ele>
        <time>2016-10-02T08:15:19+02:00</time>
      </trkpt>
      <trkpt lat="45.94034" lon="6.3133">
        <ele>1456</ele>
        <time>2016-10-02T08:15:23+02:00</time>
      </trkpt>
      <trkpt lat="45.9403" lon="6.31331">
        <ele>1457</ele>
        <time>2016-10-02T08:15:26+02:00</time>
      </trkpt>
      <trkpt lat="45.94026" lon="6.31329">
        <ele>1457</ele>
        <time>2016-10-02T08:15:30+02:00</time>
      </trkpt>
      <trkpt lat="45.94022" lon="6.31328">
        <ele>1458</ele>
        <time>2016-10-02T08:15:33+02:00</time>
      </trkpt>
      <trkpt lat="45.94018" lon="6.31327">
        <ele>1459</ele>
        <time>2016-10-02T08:15:36+02:00</time>
      </trkpt>
      <trkpt lat="45.94013" lon="6.31326">
        <ele>1460</ele>
        <time>2016-10-02T08:15:40+02:00</time>
      </trkpt>
      <trkpt lat="45.94009" lon="6.31325">
        <ele>1461</ele>
        <time>2016-10-02T08:15:43+02:00</time>
      </trkpt>
      <trkpt lat="45.94005" lon="6.31324">
        <ele>1462</ele>
        <time>2016-10-02T08:15:46+02:00</time>
      </trkpt>
      <trkpt lat="45.94001" lon="6.31323">
        <ele>1463</ele>
        <time>2016-10-02T08:15:50+02:00</time>
      </trkpt>
      <trkpt lat="45.93997" lon="6.31323">
        <ele>1463</ele>
        <time>2016-10-02T08:15:53+02:00</time>
      </trkpt>
      <trkpt lat="45.93993" lon="6.31322">
        <ele>1463</ele>
        <time>2016-10-02T08:15:56+02:00</time>
      </trkpt>
      <trkpt lat="45.93989" lon="6.31321">
        <ele>1463</ele>
        <time>2016-10-02T08:16:00+02:00</time>
      </trkpt>
      <trkpt lat="45.93984" lon="6.3132">
        <ele>1464</ele>
        <time>2016-10-02T08:16:03+02:00</time>
      </trkpt>
      <trkpt lat="45.9398" lon="6.31319">
        <ele>1464</ele>
        <time>2016-10-02T08:16:07+02:00</time>
      </trkpt>
      <trkpt lat="45.93976" lon="6.31319">
        <ele>1464</ele>
        <time>2016-10-02T08:16:10+02:00</time>
      </trkpt>
      <trkpt lat="45.93972" lon="6.31318">
        <ele>1464</ele>
        <time>2016-10-02T08:16:14+02:00</time>
      </trkpt>
      <trkpt lat="45.93967" lon="6.31317">
        <ele>1465</ele>
        <time>2016-10-02T08:16:17+02:00</time>
      </trkpt>
      <trkpt lat="45.93963" lon="6.31316">
        <ele>1465</ele>
        <time>2016-10-02T08:16:21+02:00</time>
      </trkpt>
      <trkpt lat="45.93959" lon="6.31315">
        <ele>1465</ele>
        <time>2016-10-02T08:16:24+02:00</time>
      </trkpt>
      <trkpt lat="45.93954" lon="6.31313">
        <ele>1466</ele>
        <time>2016-10-02T08:16:28+02:00</time>
      </trkpt>
      <trkpt lat="45.9395" lon="6.31309">
        <ele>1467</ele>
        <time>2016-10-02T08:16:32+02:00</time>
      </trkpt>
      <trkpt lat="45.93947" lon="6.31306">
        <ele>1467</ele>
        <time>2016-10-02T08:16:35+02:00</time>
      </trkpt>
      <trkpt lat="45.93944" lon="6.31302">
        <ele>1468</ele>
        <time>2016-10-02T08:16:39+02:00</time>
      </trkpt>
      <trkpt lat="45.93942" lon="6.31297">
        <ele>1469</ele>
        <time>2016-10-02T08:16:42+02:00</time>
      </trkpt>
      <trkpt lat="45.9394" lon="6.31291">
        <ele>1470</ele>
        <time>2016-10-02T08:16:45+02:00</time>
      </trkpt>
      <trkpt lat="45.93939" lon="6.31285">
        <ele>1470</ele>
        <time>2016-10-02T08:16:49+02:00</time>
      </trkpt>
      <trkpt lat="45.93937" lon="6.31279">
        <ele>1471</ele>
        <time>2016-10-02T08:16:53+02:00</time>
      </trkpt>
      <trkpt lat="45.93935" lon="6.31273">
        <ele>1472</ele>
        <time>2016-10-02T08:16:56+02:00</time>
      </trkpt>
      <trkpt lat="45.93933" lon="6.31267">
        <ele>1473</ele>
        <time>2016-10-02T08:17:00+02:00</time>
      </trkpt>
      <trkpt lat="45.93932" lon="6.31261">
        <ele>1474</ele>
        <time>2016-10-02T08:17:04+02:00</time>
      </trkpt>
      <trkpt lat="45.9393" lon="6.31255">
        <ele>1475</ele>
        <time>2016-10-02T08:17:07+02:00</time>
      </trkpt>
      <trkpt lat="45.93928" lon="6.31249">
        <ele>1476</ele>
        <time>2016-10-02T08:17:11+02:00</time>
      </trkpt>
      <trkpt lat="45.93926" lon="6.31243">
        <ele>1477</ele>
        <time>2016-10-02T08:17:15+02:00</time>
      </trkpt>
      <trkpt lat="45.93923" lon="6.31236">
        <ele>1478</ele>
        <time>2016-10-02T08:17:19+02:00</time>
      </trkpt>
      <trkpt lat="45.93921" lon="6.31231">
        <ele>1479</ele>
        <time>2016-10-02T08:17:23+02:00</time>
      </trkpt>
      <trkpt lat="45.93917" lon="6.31226">
        <ele>1480</ele>
        <time>2016-10-02T08:17:27+02:00</time>
      </trkpt>
      <trkpt lat="45.93914" lon="6.31222">
        <ele>1480</ele>
        <time>2016-10-02T08:17:30+02:00</time>
      </trkpt>
      <trkpt lat="45.93909" lon="6.31219">
        <ele>1480</ele>
        <time>2016-10-02T08:17:34+02:00</time>
      </trkpt>
      <trkpt lat="45.93905" lon="6.31216">
        <ele>1480</ele>
        <time>2016-10-02T08:17:38+02:00</time>
      </trkpt>
      <trkpt lat="45.93903" lon="6.3121">
        <ele>1481</ele>
        <time>2016-10-02T08:17:42+02:00</time>
      </trkpt>
      <trkpt lat="45.93903" lon="6.31205">
        <ele>1481</ele>
        <time>2016-10-02T08:17:45+02:00</time>
      </trkpt>
      <trkpt lat="45.93901" lon="6.31198">
        <ele>1482</ele>
        <time>2016-10-02T08:17:48+02:00</time>
      </trkpt>
      <trkpt lat="45.939" lon="6.31193">
        <ele>1483</ele>
        <time>2016-10-02T08:17:52+02:00</time>
      </trkpt>
      <trkpt lat="45.93901" lon="6.31187">
        <ele>1484</ele>
        <time>2016-10-02T08:17:55+02:00</time>
      </trkpt>
      <trkpt lat="45.93901" lon="6.31181">
        <ele>1485</ele>
        <time>2016-10-02T08:17:59+02:00</time>
      </trkpt>
      <trkpt lat="45.939" lon="6.31177">
        <ele>1486</ele>
        <time>2016-10-02T08:18:01+02:00</time>
      </trkpt>
      <trkpt lat="45.93898" lon="6.31172">
        <ele>1486</ele>
        <time>2016-10-02T08:18:04+02:00</time>
      </trkpt>
      <trkpt lat="45.93895" lon="6.31167">
        <ele>1487</ele>
        <time>2016-10-02T08:18:08+02:00</time>
      </trkpt>
      <trkpt lat="45.93892" lon="6.31164">
        <ele>1487</ele>
        <time>2016-10-02T08:18:11+02:00</time>
      </trkpt>
      <trkpt lat="45.93889" lon="6.3116">
        <ele>1487</ele>
        <time>2016-10-02T08:18:14+02:00</time>
      </trkpt>
      <trkpt lat="45.93886" lon="6.31157">
        <ele>1487</ele>
        <time>2016-10-02T08:18:17+02:00</time>
      </trkpt>
      <trkpt lat="45.93884" lon="6.3115">
        <ele>1488</ele>
        <time>2016-10-02T08:18:21+02:00</time>
      </trkpt>
      <trkpt lat="45.93883" lon="6.31144">
        <ele>1490</ele>
        <time>2016-10-02T08:18:25+02:00</time>
      </trkpt>
      <trkpt lat="45.93879" lon="6.3114">
        <ele>1490</ele>
        <time>2016-10-02T08:18:29+02:00</time>
      </trkpt>
      <trkpt lat="45.93876" lon="6.31138">
        <ele>1490</ele>
        <time>2016-10-02T08:18:32+02:00</time>
      </trkpt>
      <trkpt lat="45.93872" lon="6.31135">
        <ele>1490</ele>
        <time>2016-10-02T08:18:35+02:00</time>
      </trkpt>
      <trkpt lat="45.93868" lon="6.31133">
        <ele>1489</ele>
        <time>2016-10-02T08:18:39+02:00</time>
      </trkpt>
      <trkpt lat="45.93863" lon="6.31131">
        <ele>1489</ele>
        <time>2016-10-02T08:18:43+02:00</time>
      </trkpt>
      <trkpt lat="45.9386" lon="6.31128">
        <ele>1489</ele>
        <time>2016-10-02T08:18:46+02:00</time>
      </trkpt>
      <trkpt lat="45.93855" lon="6.31125">
        <ele>1489</ele>
        <time>2016-10-02T08:18:50+02:00</time>
      </trkpt>
      <trkpt lat="45.93852" lon="6.31123">
        <ele>1489</ele>
        <time>2016-10-02T08:18:53+02:00</time>
      </trkpt>
      <trkpt lat="45.93848" lon="6.3112">
        <ele>1489</ele>
        <time>2016-10-02T08:18:57+02:00</time>
      </trkpt>
      <trkpt lat="45.93845" lon="6.31116">
        <ele>1489</ele>
        <time>2016-10-02T08:19:00+02:00</time>
      </trkpt>
      <trkpt lat="45.93842" lon="6.3111">
        <ele>1490</ele>
        <time>2016-10-02T08:19:05+02:00</time>
      </trkpt>
      <trkpt lat="45.93838" lon="6.31107">
        <ele>1490</ele>
        <time>2016-10-02T08:19:08+02:00</time>
      </trkpt>
      <trkpt lat="45.93835" lon="6.31104">
        <ele>1490</ele>
        <time>2016-10-02T08:19:11+02:00</time>
      </trkpt>
      <trkpt lat="45.93832" lon="6.31099">
        <ele>1491</ele>
        <time>2016-10-02T08:19:15+02:00</time>
      </trkpt>
      <trkpt lat="45.9383" lon="6.31094">
        <ele>1492</ele>
        <time>2016-10-02T08:19:18+02:00</time>
      </trkpt>
      <trkpt lat="45.93829" lon="6.31088">
        <ele>1493</ele>
        <time>2016-10-02T08:19:22+02:00</time>
      </trkpt>
      <trkpt lat="45.93828" lon="6.31083">
        <ele>1494</ele>
        <time>2016-10-02T08:19:25+02:00</time>
      </trkpt>
      <trkpt lat="45.93826" lon="6.31079">
        <ele>1495</ele>
        <time>2016-10-02T08:19:28+02:00</time>
      </trkpt>
      <trkpt lat="45.93822" lon="6.31076">
        <ele>1495</ele>
        <time>2016-10-02T08:19:32+02:00</time>
      </trkpt>
      <trkpt lat="45.93818" lon="6.31074">
        <ele>1496</ele>
        <time>2016-10-02T08:19:36+02:00</time>
      </trkpt>
      <trkpt lat="45.93813" lon="6.31073">
        <ele>1496</ele>
        <time>2016-10-02T08:19:39+02:00</time>
      </trkpt>
      <trkpt lat="45.93809" lon="6.31074">
        <ele>1496</ele>
        <time>2016-10-02T08:19:42+02:00</time>
      </trkpt>
      <trkpt lat="45.93805" lon="6.31072">
        <ele>1496</ele>
        <time>2016-10-02T08:19:46+02:00</time>
      </trkpt>
      <trkpt lat="45.93803" lon="6.31072">
        <ele>1496</ele>
        <time>2016-10-02T08:19:48+02:00</time>
      </trkpt>
      <trkpt lat="45.93799" lon="6.31071">
        <ele>1496</ele>
        <time>2016-10-02T08:19:51+02:00</time>
      </trkpt>
      <trkpt lat="45.93796" lon="6.31066">
        <ele>1497</ele>
        <time>2016-10-02T08:19:54+02:00</time>
      </trkpt>
      <trkpt lat="45.93799" lon="6.3106">
        <ele>1498</ele>
        <time>2016-10-02T08:19:58+02:00</time>
      </trkpt>
      <trkpt lat="45.93802" lon="6.31051">
        <ele>1500</ele>
        <time>2016-10-02T08:20:04+02:00</time>
      </trkpt>
      <trkpt lat="45.93802" lon="6.31046">
        <ele>1501</ele>
        <time>2016-10-02T08:20:07+02:00</time>
      </trkpt>
      <trkpt lat="45.93806" lon="6.31042">
        <ele>1502</ele>
        <time>2016-10-02T08:20:10+02:00</time>
      </trkpt>
      <trkpt lat="45.93809" lon="6.31035">
        <ele>1504</ele>
        <time>2016-10-02T08:20:16+02:00</time>
      </trkpt>
      <trkpt lat="45.93814" lon="6.31026">
        <ele>1506</ele>
        <time>2016-10-02T08:20:23+02:00</time>
      </trkpt>
      <trkpt lat="45.93812" lon="6.3102">
        <ele>1507</ele>
        <time>2016-10-02T08:20:27+02:00</time>
      </trkpt>
      <trkpt lat="45.93815" lon="6.31021">
        <ele>1507</ele>
        <time>2016-10-02T08:20:31+02:00</time>
      </trkpt>
      <trkpt lat="45.93819" lon="6.31015">
        <ele>1508</ele>
        <time>2016-10-02T08:20:35+02:00</time>
      </trkpt>
      <trkpt lat="45.9382" lon="6.31009">
        <ele>1510</ele>
        <time>2016-10-02T08:20:38+02:00</time>
      </trkpt>
      <trkpt lat="45.93825" lon="6.31007">
        <ele>1510</ele>
        <time>2016-10-02T08:20:42+02:00</time>
      </trkpt>
      <trkpt lat="45.93828" lon="6.31007">
        <ele>1510</ele>
        <time>2016-10-02T08:20:44+02:00</time>
      </trkpt>
      <trkpt lat="45.9383" lon="6.31003">
        <ele>1511</ele>
        <time>2016-10-02T08:20:48+02:00</time>
      </trkpt>
      <trkpt lat="45.93829" lon="6.30998">
        <ele>1512</ele>
        <time>2016-10-02T08:20:50+02:00</time>
      </trkpt>
      <trkpt lat="45.9383" lon="6.30992">
        <ele>1513</ele>
        <time>2016-10-02T08:20:54+02:00</time>
      </trkpt>
      <trkpt lat="45.93832" lon="6.30983">
        <ele>1515</ele>
        <time>2016-10-02T08:20:59+02:00</time>
      </trkpt>
      <trkpt lat="45.93834" lon="6.30979">
        <ele>1516</ele>
        <time>2016-10-02T08:21:03+02:00</time>
      </trkpt>
      <trkpt lat="45.93836" lon="6.30972">
        <ele>1518</ele>
        <time>2016-10-02T08:21:07+02:00</time>
      </trkpt>
      <trkpt lat="45.93838" lon="6.30967">
        <ele>1519</ele>
        <time>2016-10-02T08:21:10+02:00</time>
      </trkpt>
      <trkpt lat="45.93839" lon="6.30961">
        <ele>1520</ele>
        <time>2016-10-02T08:21:13+02:00</time>
      </trkpt>
      <trkpt lat="45.93839" lon="6.30956">
        <ele>1521</ele>
        <time>2016-10-02T08:21:16+02:00</time>
      </trkpt>
      <trkpt lat="45.9384" lon="6.30952">
        <ele>1522</ele>
        <time>2016-10-02T08:21:19+02:00</time>
      </trkpt>
      <trkpt lat="45.93842" lon="6.30946">
        <ele>1524</ele>
        <time>2016-10-02T08:21:24+02:00</time>
      </trkpt>
      <trkpt lat="45.93844" lon="6.30936">
        <ele>1526</ele>
        <time>2016-10-02T08:21:30+02:00</time>
      </trkpt>
      <trkpt lat="45.93847" lon="6.30931">
        <ele>1527</ele>
        <time>2016-10-02T08:21:33+02:00</time>
      </trkpt>
      <trkpt lat="45.93848" lon="6.30926">
        <ele>1528</ele>
        <time>2016-10-02T08:21:37+02:00</time>
      </trkpt>
      <trkpt lat="45.93848" lon="6.3092">
        <ele>1529</ele>
        <time>2016-10-02T08:21:40+02:00</time>
      </trkpt>
      <trkpt lat="45.93846" lon="6.30913">
        <ele>1530</ele>
        <time>2016-10-02T08:21:45+02:00</time>
      </trkpt>
      <trkpt lat="45.93843" lon="6.30909">
        <ele>1531</ele>
        <time>2016-10-02T08:21:48+02:00</time>
      </trkpt>
      <trkpt lat="45.93838" lon="6.30905">
        <ele>1531</ele>
        <time>2016-10-02T08:21:53+02:00</time>
      </trkpt>
      <trkpt lat="45.93835" lon="6.30905">
        <ele>1531</ele>
        <time>2016-10-02T08:21:56+02:00</time>
      </trkpt>
      <trkpt lat="45.93829" lon="6.30905">
        <ele>1530</ele>
        <time>2016-10-02T08:22:00+02:00</time>
      </trkpt>
      <trkpt lat="45.93823" lon="6.309">
        <ele>1531</ele>
        <time>2016-10-02T08:22:07+02:00</time>
      </trkpt>
      <trkpt lat="45.93818" lon="6.30895">
        <ele>1532</ele>
        <time>2016-10-02T08:22:11+02:00</time>
      </trkpt>
      <trkpt lat="45.93816" lon="6.3089">
        <ele>1533</ele>
        <time>2016-10-02T08:22:14+02:00</time>
      </trkpt>
      <trkpt lat="45.93815" lon="6.30886">
        <ele>1533</ele>
        <time>2016-10-02T08:22:17+02:00</time>
      </trkpt>
      <trkpt lat="45.93813" lon="6.3088">
        <ele>1534</ele>
        <time>2016-10-02T08:22:21+02:00</time>
      </trkpt>
      <trkpt lat="45.93813" lon="6.30873">
        <ele>1536</ele>
        <time>2016-10-02T08:22:25+02:00</time>
      </trkpt>
      <trkpt lat="45.9381" lon="6.30867">
        <ele>1537</ele>
        <time>2016-10-02T08:22:29+02:00</time>
      </trkpt>
      <trkpt lat="45.93806" lon="6.30865">
        <ele>1537</ele>
        <time>2016-10-02T08:22:32+02:00</time>
      </trkpt>
      <trkpt lat="45.93802" lon="6.30865">
        <ele>1537</ele>
        <time>2016-10-02T08:22:36+02:00</time>
      </trkpt>
      <trkpt lat="45.93798" lon="6.30866">
        <ele>1536</ele>
        <time>2016-10-02T08:22:39+02:00</time>
      </trkpt>
      <trkpt lat="45.93794" lon="6.30867">
        <ele>1536</ele>
        <time>2016-10-02T08:22:42+02:00</time>
      </trkpt>
      <trkpt lat="45.93789" lon="6.30866">
        <ele>1535</ele>
        <time>2016-10-02T08:22:46+02:00</time>
      </trkpt>
      <trkpt lat="45.93785" lon="6.30867">
        <ele>1535</ele>
        <time>2016-10-02T08:22:49+02:00</time>
      </trkpt>
      <trkpt lat="45.93781" lon="6.30868">
        <ele>1534</ele>
        <time>2016-10-02T08:22:53+02:00</time>
      </trkpt>
      <trkpt lat="45.93777" lon="6.30869">
        <ele>1534</ele>
        <time>2016-10-02T08:22:56+02:00</time>
      </trkpt>
      <trkpt lat="45.93773" lon="6.30871">
        <ele>1533</ele>
        <time>2016-10-02T08:23:00+02:00</time>
      </trkpt>
      <trkpt lat="45.93769" lon="6.30875">
        <ele>1532</ele>
        <time>2016-10-02T08:23:03+02:00</time>
      </trkpt>
      <trkpt lat="45.93765" lon="6.30877">
        <ele>1531</ele>
        <time>2016-10-02T08:23:07+02:00</time>
      </trkpt>
      <trkpt lat="45.93761" lon="6.30877">
        <ele>1531</ele>
        <time>2016-10-02T08:23:10+02:00</time>
      </trkpt>
      <trkpt lat="45.93756" lon="6.30878">
        <ele>1530</ele>
        <time>2016-10-02T08:23:14+02:00</time>
      </trkpt>
      <trkpt lat="45.93751" lon="6.30877">
        <ele>1530</ele>
        <time>2016-10-02T08:23:18+02:00</time>
      </trkpt>
      <trkpt lat="45.93746" lon="6.30875">
        <ele>1531</ele>
        <time>2016-10-02T08:23:22+02:00</time>
      </trkpt>
      <trkpt lat="45.93742" lon="6.30874">
        <ele>1531</ele>
        <time>2016-10-02T08:23:25+02:00</time>
      </trkpt>
      <trkpt lat="45.93739" lon="6.30877">
        <ele>1531</ele>
        <time>2016-10-02T08:23:29+02:00</time>
      </trkpt>
      <trkpt lat="45.93735" lon="6.30878">
        <ele>1531</ele>
        <time>2016-10-02T08:23:32+02:00</time>
      </trkpt>
      <trkpt lat="45.9373" lon="6.30879">
        <ele>1532</ele>
        <time>2016-10-02T08:23:36+02:00</time>
      </trkpt>
      <trkpt lat="45.93725" lon="6.30878">
        <ele>1532</ele>
        <time>2016-10-02T08:23:40+02:00</time>
      </trkpt>
      <trkpt lat="45.93722" lon="6.30878">
        <ele>1533</ele>
        <time>2016-10-02T08:23:42+02:00</time>
      </trkpt>
      <trkpt lat="45.93718" lon="6.30876">
        <ele>1533</ele>
        <time>2016-10-02T08:23:46+02:00</time>
      </trkpt>
      <trkpt lat="45.93714" lon="6.30874">
        <ele>1534</ele>
        <time>2016-10-02T08:23:49+02:00</time>
      </trkpt>
      <trkpt lat="45.9371" lon="6.30874">
        <ele>1534</ele>
        <time>2016-10-02T08:23:52+02:00</time>
      </trkpt>
      <trkpt lat="45.93706" lon="6.30874">
        <ele>1535</ele>
        <time>2016-10-02T08:23:56+02:00</time>
      </trkpt>
      <trkpt lat="45.93702" lon="6.30872">
        <ele>1535</ele>
        <time>2016-10-02T08:23:59+02:00</time>
      </trkpt>
      <trkpt lat="45.93698" lon="6.3087">
        <ele>1536</ele>
        <time>2016-10-02T08:24:02+02:00</time>
      </trkpt>
      <trkpt lat="45.93694" lon="6.30867">
        <ele>1537</ele>
        <time>2016-10-02T08:24:06+02:00</time>
      </trkpt>
      <trkpt lat="45.93691" lon="6.30863">
        <ele>1537</ele>
        <time>2016-10-02T08:24:09+02:00</time>
      </trkpt>
      <trkpt lat="45.93686" lon="6.30861">
        <ele>1538</ele>
        <time>2016-10-02T08:24:13+02:00</time>
      </trkpt>
      <trkpt lat="45.93682" lon="6.3086">
        <ele>1539</ele>
        <time>2016-10-02T08:24:17+02:00</time>
      </trkpt>
      <trkpt lat="45.93678" lon="6.30859">
        <ele>1539</ele>
        <time>2016-10-02T08:24:20+02:00</time>
      </trkpt>
      <trkpt lat="45.93676" lon="6.30858">
        <ele>1539</ele>
        <time>2016-10-02T08:24:22+02:00</time>
      </trkpt>
      <trkpt lat="45.93671" lon="6.30856">
        <ele>1540</ele>
        <time>2016-10-02T08:24:26+02:00</time>
      </trkpt>
      <trkpt lat="45.93667" lon="6.30854">
        <ele>1541</ele>
        <time>2016-10-02T08:24:29+02:00</time>
      </trkpt>
      <trkpt lat="45.93661" lon="6.30851">
        <ele>1542</ele>
        <time>2016-10-02T08:24:34+02:00</time>
      </trkpt>
      <trkpt lat="45.93657" lon="6.30848">
        <ele>1543</ele>
        <time>2016-10-02T08:24:38+02:00</time>
      </trkpt>
      <trkpt lat="45.93653" lon="6.30846">
        <ele>1543</ele>
        <time>2016-10-02T08:24:42+02:00</time>
      </trkpt>
      <trkpt lat="45.93649" lon="6.30844">
        <ele>1544</ele>
        <time>2016-10-02T08:24:45+02:00</time>
      </trkpt>
      <trkpt lat="45.93645" lon="6.30841">
        <ele>1545</ele>
        <time>2016-10-02T08:24:48+02:00</time>
      </trkpt>
      <trkpt lat="45.93641" lon="6.30838">
        <ele>1546</ele>
        <time>2016-10-02T08:24:53+02:00</time>
      </trkpt>
      <trkpt lat="45.93636" lon="6.30838">
        <ele>1547</ele>
        <time>2016-10-02T08:24:56+02:00</time>
      </trkpt>
      <trkpt lat="45.93632" lon="6.30836">
        <ele>1548</ele>
        <time>2016-10-02T08:25:00+02:00</time>
      </trkpt>
      <trkpt lat="45.93629" lon="6.30834">
        <ele>1549</ele>
        <time>2016-10-02T08:25:03+02:00</time>
      </trkpt>
      <trkpt lat="45.93625" lon="6.30831">
        <ele>1550</ele>
        <time>2016-10-02T08:25:06+02:00</time>
      </trkpt>
      <trkpt lat="45.93621" lon="6.30828">
        <ele>1551</ele>
        <time>2016-10-02T08:25:10+02:00</time>
      </trkpt>
      <trkpt lat="45.93618" lon="6.30826">
        <ele>1552</ele>
        <time>2016-10-02T08:25:13+02:00</time>
      </trkpt>
      <trkpt lat="45.93614" lon="6.30824">
        <ele>1553</ele>
        <time>2016-10-02T08:25:16+02:00</time>
      </trkpt>
      <trkpt lat="45.93611" lon="6.30823">
        <ele>1553</ele>
        <time>2016-10-02T08:25:19+02:00</time>
      </trkpt>
      <trkpt lat="45.93607" lon="6.30821">
        <ele>1554</ele>
        <time>2016-10-02T08:25:22+02:00</time>
      </trkpt>
      <trkpt lat="45.93603" lon="6.30818">
        <ele>1555</ele>
        <time>2016-10-02T08:25:25+02:00</time>
      </trkpt>
      <trkpt lat="45.936" lon="6.30816">
        <ele>1556</ele>
        <time>2016-10-02T08:25:29+02:00</time>
      </trkpt>
      <trkpt lat="45.93595" lon="6.30813">
        <ele>1557</ele>
        <time>2016-10-02T08:25:32+02:00</time>
      </trkpt>
      <trkpt lat="45.93591" lon="6.30811">
        <ele>1558</ele>
        <time>2016-10-02T08:25:36+02:00</time>
      </trkpt>
      <trkpt lat="45.93587" lon="6.3081">
        <ele>1559</ele>
        <time>2016-10-02T08:25:40+02:00</time>
      </trkpt>
      <trkpt lat="45.93582" lon="6.3081">
        <ele>1560</ele>
        <time>2016-10-02T08:25:43+02:00</time>
      </trkpt>
      <trkpt lat="45.93576" lon="6.30809">
        <ele>1560</ele>
        <time>2016-10-02T08:25:48+02:00</time>
      </trkpt>
      <trkpt lat="45.93572" lon="6.3081">
        <ele>1560</ele>
        <time>2016-10-02T08:25:52+02:00</time>
      </trkpt>
      <trkpt lat="45.93568" lon="6.30812">
        <ele>1559</ele>
        <time>2016-10-02T08:25:55+02:00</time>
      </trkpt>
      <trkpt lat="45.93564" lon="6.30814">
        <ele>1559</ele>
        <time>2016-10-02T08:25:59+02:00</time>
      </trkpt>
      <trkpt lat="45.9356" lon="6.30815">
        <ele>1559</ele>
        <time>2016-10-02T08:26:02+02:00</time>
      </trkpt>
      <trkpt lat="45.93555" lon="6.30814">
        <ele>1559</ele>
        <time>2016-10-02T08:26:05+02:00</time>
      </trkpt>
      <trkpt lat="45.93551" lon="6.30813">
        <ele>1559</ele>
        <time>2016-10-02T08:26:09+02:00</time>
      </trkpt>
      <trkpt lat="45.93548" lon="6.30811">
        <ele>1559</ele>
        <time>2016-10-02T08:26:11+02:00</time>
      </trkpt>
      <trkpt lat="45.93545" lon="6.30802">
        <ele>1561</ele>
        <time>2016-10-02T08:26:17+02:00</time>
      </trkpt>
      <trkpt lat="45.93545" lon="6.30795">
        <ele>1562</ele>
        <time>2016-10-02T08:26:21+02:00</time>
      </trkpt>
      <trkpt lat="45.93538" lon="6.3079">
        <ele>1563</ele>
        <time>2016-10-02T08:26:27+02:00</time>
      </trkpt>
      <trkpt lat="45.93533" lon="6.30784">
        <ele>1564</ele>
        <time>2016-10-02T08:26:32+02:00</time>
      </trkpt>
      <trkpt lat="45.9353" lon="6.30772">
        <ele>1566</ele>
        <time>2016-10-02T08:26:40+02:00</time>
      </trkpt>
      <trkpt lat="45.93529" lon="6.30767">
        <ele>1567</ele>
        <time>2016-10-02T08:26:43+02:00</time>
      </trkpt>
      <trkpt lat="45.93525" lon="6.30761">
        <ele>1568</ele>
        <time>2016-10-02T08:26:48+02:00</time>
      </trkpt>
      <trkpt lat="45.9352" lon="6.30758">
        <ele>1569</ele>
        <time>2016-10-02T08:26:52+02:00</time>
      </trkpt>
      <trkpt lat="45.93516" lon="6.30755">
        <ele>1570</ele>
        <time>2016-10-02T08:26:56+02:00</time>
      </trkpt>
      <trkpt lat="45.93512" lon="6.30755">
        <ele>1570</ele>
        <time>2016-10-02T08:26:59+02:00</time>
      </trkpt>
      <trkpt lat="45.93508" lon="6.30754">
        <ele>1570</ele>
        <time>2016-10-02T08:27:02+02:00</time>
      </trkpt>
      <trkpt lat="45.93504" lon="6.30752">
        <ele>1571</ele>
        <time>2016-10-02T08:27:05+02:00</time>
      </trkpt>
      <trkpt lat="45.935" lon="6.30751">
        <ele>1571</ele>
        <time>2016-10-02T08:27:09+02:00</time>
      </trkpt>
      <trkpt lat="45.93497" lon="6.30743">
        <ele>1572</ele>
        <time>2016-10-02T08:27:14+02:00</time>
      </trkpt>
      <trkpt lat="45.93494" lon="6.30735">
        <ele>1574</ele>
        <time>2016-10-02T08:27:19+02:00</time>
      </trkpt>
      <trkpt lat="45.93491" lon="6.30731">
        <ele>1575</ele>
        <time>2016-10-02T08:27:22+02:00</time>
      </trkpt>
      <trkpt lat="45.93488" lon="6.30727">
        <ele>1575</ele>
        <time>2016-10-02T08:27:25+02:00</time>
      </trkpt>
      <trkpt lat="45.93485" lon="6.30726">
        <ele>1575</ele>
        <time>2016-10-02T08:27:28+02:00</time>
      </trkpt>
      <trkpt lat="45.93484" lon="6.3072">
        <ele>1576</ele>
        <time>2016-10-02T08:27:32+02:00</time>
      </trkpt>
      <trkpt lat="45.93482" lon="6.30714">
        <ele>1578</ele>
        <time>2016-10-02T08:27:36+02:00</time>
      </trkpt>
      <trkpt lat="45.9348" lon="6.30708">
        <ele>1579</ele>
        <time>2016-10-02T08:27:39+02:00</time>
      </trkpt>
      <trkpt lat="45.93475" lon="6.30702">
        <ele>1580</ele>
        <time>2016-10-02T08:27:44+02:00</time>
      </trkpt>
      <trkpt lat="45.93472" lon="6.30699">
        <ele>1580</ele>
        <time>2016-10-02T08:27:48+02:00</time>
      </trkpt>
      <trkpt lat="45.93468" lon="6.30698">
        <ele>1580</ele>
        <time>2016-10-02T08:27:51+02:00</time>
      </trkpt>
      <trkpt lat="45.93464" lon="6.30693">
        <ele>1581</ele>
        <time>2016-10-02T08:27:56+02:00</time>
      </trkpt>
      <trkpt lat="45.93461" lon="6.3069">
        <ele>1581</ele>
        <time>2016-10-02T08:27:59+02:00</time>
      </trkpt>
      <trkpt lat="45.93459" lon="6.30682">
        <ele>1583</ele>
        <time>2016-10-02T08:28:04+02:00</time>
      </trkpt>
      <trkpt lat="45.93457" lon="6.30673">
        <ele>1585</ele>
        <time>2016-10-02T08:28:09+02:00</time>
      </trkpt>
      <trkpt lat="45.93454" lon="6.30671">
        <ele>1585</ele>
        <time>2016-10-02T08:28:12+02:00</time>
      </trkpt>
      <trkpt lat="45.93452" lon="6.30666">
        <ele>1586</ele>
        <time>2016-10-02T08:28:15+02:00</time>
      </trkpt>
      <trkpt lat="45.93447" lon="6.30662">
        <ele>1587</ele>
        <time>2016-10-02T08:28:20+02:00</time>
      </trkpt>
      <trkpt lat="45.93443" lon="6.30661">
        <ele>1587</ele>
        <time>2016-10-02T08:28:23+02:00</time>
      </trkpt>
      <trkpt lat="45.93439" lon="6.3066">
        <ele>1587</ele>
        <time>2016-10-02T08:28:26+02:00</time>
      </trkpt>
      <trkpt lat="45.93435" lon="6.30657">
        <ele>1587</ele>
        <time>2016-10-02T08:28:30+02:00</time>
      </trkpt>
      <trkpt lat="45.93431" lon="6.30651">
        <ele>1588</ele>
        <time>2016-10-02T08:28:35+02:00</time>
      </trkpt>
      <trkpt lat="45.93427" lon="6.30648">
        <ele>1589</ele>
        <time>2016-10-02T08:28:38+02:00</time>
      </trkpt>
      <trkpt lat="45.9342" lon="6.30647">
        <ele>1589</ele>
        <time>2016-10-02T08:28:43+02:00</time>
      </trkpt>
      <trkpt lat="45.93416" lon="6.30647">
        <ele>1589</ele>
        <time>2016-10-02T08:28:47+02:00</time>
      </trkpt>
      <trkpt lat="45.93414" lon="6.30645">
        <ele>1589</ele>
        <time>2016-10-02T08:28:49+02:00</time>
      </trkpt>
      <trkpt lat="45.93408" lon="6.30637">
        <ele>1591</ele>
        <time>2016-10-02T08:28:55+02:00</time>
      </trkpt>
      <trkpt lat="45.93405" lon="6.30635">
        <ele>1591</ele>
        <time>2016-10-02T08:28:58+02:00</time>
      </trkpt>
      <trkpt lat="45.93399" lon="6.30628">
        <ele>1593</ele>
        <time>2016-10-02T08:29:05+02:00</time>
      </trkpt>
      <trkpt lat="45.93394" lon="6.30624">
        <ele>1593</ele>
        <time>2016-10-02T08:29:09+02:00</time>
      </trkpt>
      <trkpt lat="45.93391" lon="6.3062">
        <ele>1594</ele>
        <time>2016-10-02T08:29:12+02:00</time>
      </trkpt>
      <trkpt lat="45.93388" lon="6.30617">
        <ele>1595</ele>
        <time>2016-10-02T08:29:16+02:00</time>
      </trkpt>
      <trkpt lat="45.93384" lon="6.30615">
        <ele>1595</ele>
        <time>2016-10-02T08:29:19+02:00</time>
      </trkpt>
      <trkpt lat="45.9338" lon="6.3061">
        <ele>1596</ele>
        <time>2016-10-02T08:29:23+02:00</time>
      </trkpt>
      <trkpt lat="45.93377" lon="6.30607">
        <ele>1597</ele>
        <time>2016-10-02T08:29:26+02:00</time>
      </trkpt>
      <trkpt lat="45.93374" lon="6.30598">
        <ele>1599</ele>
        <time>2016-10-02T08:29:32+02:00</time>
      </trkpt>
      <trkpt lat="45.9337" lon="6.30592">
        <ele>1600</ele>
        <time>2016-10-02T08:29:37+02:00</time>
      </trkpt>
      <trkpt lat="45.93368" lon="6.30587">
        <ele>1601</ele>
        <time>2016-10-02T08:29:40+02:00</time>
      </trkpt>
      <trkpt lat="45.93365" lon="6.30583">
        <ele>1602</ele>
        <time>2016-10-02T08:29:43+02:00</time>
      </trkpt>
      <trkpt lat="45.93362" lon="6.30577">
        <ele>1604</ele>
        <time>2016-10-02T08:29:48+02:00</time>
      </trkpt>
      <trkpt lat="45.9336" lon="6.30571">
        <ele>1605</ele>
        <time>2016-10-02T08:29:51+02:00</time>
      </trkpt>
      <trkpt lat="45.93357" lon="6.30566">
        <ele>1607</ele>
        <time>2016-10-02T08:29:55+02:00</time>
      </trkpt>
      <trkpt lat="45.93355" lon="6.30562">
        <ele>1608</ele>
        <time>2016-10-02T08:29:58+02:00</time>
      </trkpt>
      <trkpt lat="45.93352" lon="6.30558">
        <ele>1609</ele>
        <time>2016-10-02T08:30:01+02:00</time>
      </trkpt>
      <trkpt lat="45.9335" lon="6.30553">
        <ele>1610</ele>
        <time>2016-10-02T08:30:05+02:00</time>
      </trkpt>
      <trkpt lat="45.93347" lon="6.30546">
        <ele>1613</ele>
        <time>2016-10-02T08:30:10+02:00</time>
      </trkpt>
      <trkpt lat="45.93344" lon="6.3054">
        <ele>1614</ele>
        <time>2016-10-02T08:30:14+02:00</time>
      </trkpt>
      <trkpt lat="45.9334" lon="6.30536">
        <ele>1615</ele>
        <time>2016-10-02T08:30:18+02:00</time>
      </trkpt>
      <trkpt lat="45.93336" lon="6.30534">
        <ele>1616</ele>
        <time>2016-10-02T08:30:22+02:00</time>
      </trkpt>
      <trkpt lat="45.93332" lon="6.30533">
        <ele>1616</ele>
        <time>2016-10-02T08:30:25+02:00</time>
      </trkpt>
      <trkpt lat="45.9333" lon="6.30531">
        <ele>1617</ele>
        <time>2016-10-02T08:30:27+02:00</time>
      </trkpt>
      <trkpt lat="45.93326" lon="6.30527">
        <ele>1618</ele>
        <time>2016-10-02T08:30:31+02:00</time>
      </trkpt>
      <trkpt lat="45.93323" lon="6.30524">
        <ele>1618</ele>
        <time>2016-10-02T08:30:34+02:00</time>
      </trkpt>
      <trkpt lat="45.93322" lon="6.3052">
        <ele>1620</ele>
        <time>2016-10-02T08:30:36+02:00</time>
      </trkpt>
      <trkpt lat="45.93319" lon="6.30516">
        <ele>1621</ele>
        <time>2016-10-02T08:30:39+02:00</time>
      </trkpt>
      <trkpt lat="45.93315" lon="6.30513">
        <ele>1622</ele>
        <time>2016-10-02T08:30:43+02:00</time>
      </trkpt>
      <trkpt lat="45.93312" lon="6.30509">
        <ele>1623</ele>
        <time>2016-10-02T08:30:47+02:00</time>
      </trkpt>
      <trkpt lat="45.93309" lon="6.30504">
        <ele>1624</ele>
        <time>2016-10-02T08:30:51+02:00</time>
      </trkpt>
      <trkpt lat="45.93307" lon="6.30505">
        <ele>1624</ele>
        <time>2016-10-02T08:30:52+02:00</time>
      </trkpt>
      <trkpt lat="45.93309" lon="6.305">
        <ele>1625</ele>
        <time>2016-10-02T08:30:55+02:00</time>
      </trkpt>
      <trkpt lat="45.93306" lon="6.30494">
        <ele>1627</ele>
        <time>2016-10-02T08:31:00+02:00</time>
      </trkpt>
      <trkpt lat="45.93301" lon="6.3049">
        <ele>1628</ele>
        <time>2016-10-02T08:31:05+02:00</time>
      </trkpt>
      <trkpt lat="45.93296" lon="6.30488">
        <ele>1628</ele>
        <time>2016-10-02T08:31:08+02:00</time>
      </trkpt>
      <trkpt lat="45.93293" lon="6.30483">
        <ele>1629</ele>
        <time>2016-10-02T08:31:12+02:00</time>
      </trkpt>
      <trkpt lat="45.9329" lon="6.30478">
        <ele>1631</ele>
        <time>2016-10-02T08:31:16+02:00</time>
      </trkpt>
      <trkpt lat="45.93286" lon="6.30476">
        <ele>1631</ele>
        <time>2016-10-02T08:31:19+02:00</time>
      </trkpt>
      <trkpt lat="45.93282" lon="6.30472">
        <ele>1632</ele>
        <time>2016-10-02T08:31:23+02:00</time>
      </trkpt>
      <trkpt lat="45.9328" lon="6.30468">
        <ele>1633</ele>
        <time>2016-10-02T08:31:26+02:00</time>
      </trkpt>
      <trkpt lat="45.93277" lon="6.30464">
        <ele>1635</ele>
        <time>2016-10-02T08:31:30+02:00</time>
      </trkpt>
      <trkpt lat="45.93272" lon="6.30462">
        <ele>1635</ele>
        <time>2016-10-02T08:31:34+02:00</time>
      </trkpt>
      <trkpt lat="45.93269" lon="6.30462">
        <ele>1635</ele>
        <time>2016-10-02T08:31:36+02:00</time>
      </trkpt>
      <trkpt lat="45.93265" lon="6.3046">
        <ele>1636</ele>
        <time>2016-10-02T08:31:39+02:00</time>
      </trkpt>
      <trkpt lat="45.93263" lon="6.30455">
        <ele>1638</ele>
        <time>2016-10-02T08:31:43+02:00</time>
      </trkpt>
      <trkpt lat="45.93258" lon="6.30449">
        <ele>1640</ele>
        <time>2016-10-02T08:31:48+02:00</time>
      </trkpt>
      <trkpt lat="45.93256" lon="6.30442">
        <ele>1642</ele>
        <time>2016-10-02T08:31:53+02:00</time>
      </trkpt>
      <trkpt lat="45.93254" lon="6.30439">
        <ele>1643</ele>
        <time>2016-10-02T08:31:55+02:00</time>
      </trkpt>
      <trkpt lat="45.93251" lon="6.30435">
        <ele>1644</ele>
        <time>2016-10-02T08:31:59+02:00</time>
      </trkpt>
      <trkpt lat="45.93248" lon="6.30431">
        <ele>1646</ele>
        <time>2016-10-02T08:32:02+02:00</time>
      </trkpt>
      <trkpt lat="45.93246" lon="6.30428">
        <ele>1646</ele>
        <time>2016-10-02T08:32:04+02:00</time>
      </trkpt>
      <trkpt lat="45.93242" lon="6.30425">
        <ele>1647</ele>
        <time>2016-10-02T08:32:08+02:00</time>
      </trkpt>
      <trkpt lat="45.93238" lon="6.30423">
        <ele>1648</ele>
        <time>2016-10-02T08:32:11+02:00</time>
      </trkpt>
      <trkpt lat="45.93234" lon="6.30413">
        <ele>1650</ele>
        <time>2016-10-02T08:32:18+02:00</time>
      </trkpt>
      <trkpt lat="45.93232" lon="6.30404">
        <ele>1652</ele>
        <time>2016-10-02T08:32:23+02:00</time>
      </trkpt>
      <trkpt lat="45.93236" lon="6.30399">
        <ele>1653</ele>
        <time>2016-10-02T08:32:27+02:00</time>
      </trkpt>
      <trkpt lat="45.93238" lon="6.30394">
        <ele>1654</ele>
        <time>2016-10-02T08:32:30+02:00</time>
      </trkpt>
      <trkpt lat="45.93239" lon="6.3039">
        <ele>1655</ele>
        <time>2016-10-02T08:32:33+02:00</time>
      </trkpt>
      <trkpt lat="45.93239" lon="6.30384">
        <ele>1656</ele>
        <time>2016-10-02T08:32:36+02:00</time>
      </trkpt>
      <trkpt lat="45.93241" lon="6.3038">
        <ele>1657</ele>
        <time>2016-10-02T08:32:40+02:00</time>
      </trkpt>
      <trkpt lat="45.93243" lon="6.30375">
        <ele>1658</ele>
        <time>2016-10-02T08:32:43+02:00</time>
      </trkpt>
      <trkpt lat="45.9324" lon="6.30375">
        <ele>1658</ele>
        <time>2016-10-02T08:32:46+02:00</time>
      </trkpt>
      <trkpt lat="45.93239" lon="6.30369">
        <ele>1659</ele>
        <time>2016-10-02T08:32:50+02:00</time>
      </trkpt>
      <trkpt lat="45.93237" lon="6.30365">
        <ele>1660</ele>
        <time>2016-10-02T08:32:53+02:00</time>
      </trkpt>
      <trkpt lat="45.93234" lon="6.30361">
        <ele>1661</ele>
        <time>2016-10-02T08:32:56+02:00</time>
      </trkpt>
      <trkpt lat="45.93232" lon="6.30355">
        <ele>1662</ele>
        <time>2016-10-02T08:32:59+02:00</time>
      </trkpt>
      <trkpt lat="45.93231" lon="6.30352">
        <ele>1663</ele>
        <time>2016-10-02T08:33:02+02:00</time>
      </trkpt>
      <trkpt lat="45.93229" lon="6.30347">
        <ele>1664</ele>
        <time>2016-10-02T08:33:05+02:00</time>
      </trkpt>
      <trkpt lat="45.93225" lon="6.30343">
        <ele>1665</ele>
        <time>2016-10-02T08:33:09+02:00</time>
      </trkpt>
      <trkpt lat="45.93226" lon="6.30336">
        <ele>1666</ele>
        <time>2016-10-02T08:33:13+02:00</time>
      </trkpt>
      <trkpt lat="45.93223" lon="6.30333">
        <ele>1667</ele>
        <time>2016-10-02T08:33:16+02:00</time>
      </trkpt>
      <trkpt lat="45.93219" lon="6.30334">
        <ele>1667</ele>
        <time>2016-10-02T08:33:19+02:00</time>
      </trkpt>
      <trkpt lat="45.93215" lon="6.30335">
        <ele>1667</ele>
        <time>2016-10-02T08:33:23+02:00</time>
      </trkpt>
      <trkpt lat="45.93211" lon="6.30333">
        <ele>1667</ele>
        <time>2016-10-02T08:33:27+02:00</time>
      </trkpt>
      <trkpt lat="45.93205" lon="6.30334">
        <ele>1667</ele>
        <time>2016-10-02T08:33:31+02:00</time>
      </trkpt>
      <trkpt lat="45.932" lon="6.30332">
        <ele>1667</ele>
        <time>2016-10-02T08:33:36+02:00</time>
      </trkpt>
      <trkpt lat="45.93198" lon="6.30323">
        <ele>1669</ele>
        <time>2016-10-02T08:33:42+02:00</time>
      </trkpt>
      <trkpt lat="45.93195" lon="6.30321">
        <ele>1670</ele>
        <time>2016-10-02T08:33:45+02:00</time>
      </trkpt>
      <trkpt lat="45.93193" lon="6.30318">
        <ele>1670</ele>
        <time>2016-10-02T08:33:47+02:00</time>
      </trkpt>
      <trkpt lat="45.9319" lon="6.30313">
        <ele>1671</ele>
        <time>2016-10-02T08:33:51+02:00</time>
      </trkpt>
      <trkpt lat="45.93184" lon="6.3031">
        <ele>1672</ele>
        <time>2016-10-02T08:33:56+02:00</time>
      </trkpt>
      <trkpt lat="45.93183" lon="6.30305">
        <ele>1673</ele>
        <time>2016-10-02T08:33:59+02:00</time>
      </trkpt>
      <trkpt lat="45.93181" lon="6.30299">
        <ele>1675</ele>
        <time>2016-10-02T08:34:03+02:00</time>
      </trkpt>
      <trkpt lat="45.9318" lon="6.30294">
        <ele>1676</ele>
        <time>2016-10-02T08:34:06+02:00</time>
      </trkpt>
      <trkpt lat="45.93176" lon="6.30293">
        <ele>1676</ele>
        <time>2016-10-02T08:34:10+02:00</time>
      </trkpt>
      <trkpt lat="45.93172" lon="6.3029">
        <ele>1677</ele>
        <time>2016-10-02T08:34:14+02:00</time>
      </trkpt>
      <trkpt lat="45.9317" lon="6.30281">
        <ele>1680</ele>
        <time>2016-10-02T08:34:20+02:00</time>
      </trkpt>
      <trkpt lat="45.93166" lon="6.30275">
        <ele>1681</ele>
        <time>2016-10-02T08:34:24+02:00</time>
      </trkpt>
      <trkpt lat="45.93164" lon="6.30269">
        <ele>1682</ele>
        <time>2016-10-02T08:34:28+02:00</time>
      </trkpt>
      <trkpt lat="45.93163" lon="6.30265">
        <ele>1683</ele>
        <time>2016-10-02T08:34:31+02:00</time>
      </trkpt>
      <trkpt lat="45.93161" lon="6.3026">
        <ele>1684</ele>
        <time>2016-10-02T08:34:34+02:00</time>
      </trkpt>
      <trkpt lat="45.93158" lon="6.30255">
        <ele>1685</ele>
        <time>2016-10-02T08:34:38+02:00</time>
      </trkpt>
      <trkpt lat="45.93154" lon="6.30252">
        <ele>1685</ele>
        <time>2016-10-02T08:34:42+02:00</time>
      </trkpt>
      <trkpt lat="45.93151" lon="6.30248">
        <ele>1686</ele>
        <time>2016-10-02T08:34:45+02:00</time>
      </trkpt>
      <trkpt lat="45.93148" lon="6.30244">
        <ele>1687</ele>
        <time>2016-10-02T08:34:49+02:00</time>
      </trkpt>
      <trkpt lat="45.93144" lon="6.30241">
        <ele>1687</ele>
        <time>2016-10-02T08:34:52+02:00</time>
      </trkpt>
      <trkpt lat="45.93141" lon="6.30238">
        <ele>1688</ele>
        <time>2016-10-02T08:34:56+02:00</time>
      </trkpt>
      <trkpt lat="45.93138" lon="6.30234">
        <ele>1689</ele>
        <time>2016-10-02T08:34:59+02:00</time>
      </trkpt>
      <trkpt lat="45.93135" lon="6.3023">
        <ele>1689</ele>
        <time>2016-10-02T08:35:03+02:00</time>
      </trkpt>
      <trkpt lat="45.93134" lon="6.30224">
        <ele>1691</ele>
        <time>2016-10-02T08:35:06+02:00</time>
      </trkpt>
      <trkpt lat="45.93131" lon="6.30219">
        <ele>1692</ele>
        <time>2016-10-02T08:35:10+02:00</time>
      </trkpt>
      <trkpt lat="45.93126" lon="6.30219">
        <ele>1692</ele>
        <time>2016-10-02T08:35:14+02:00</time>
      </trkpt>
      <trkpt lat="45.93123" lon="6.30216">
        <ele>1692</ele>
        <time>2016-10-02T08:35:17+02:00</time>
      </trkpt>
      <trkpt lat="45.9312" lon="6.30211">
        <ele>1694</ele>
        <time>2016-10-02T08:35:21+02:00</time>
      </trkpt>
      <trkpt lat="45.93117" lon="6.30207">
        <ele>1695</ele>
        <time>2016-10-02T08:35:24+02:00</time>
      </trkpt>
      <trkpt lat="45.93115" lon="6.30203">
        <ele>1696</ele>
        <time>2016-10-02T08:35:27+02:00</time>
      </trkpt>
      <trkpt lat="45.9311" lon="6.30198">
        <ele>1697</ele>
        <time>2016-10-02T08:35:32+02:00</time>
      </trkpt>
      <trkpt lat="45.93106" lon="6.30196">
        <ele>1697</ele>
        <time>2016-10-02T08:35:35+02:00</time>
      </trkpt>
      <trkpt lat="45.93102" lon="6.30194">
        <ele>1698</ele>
        <time>2016-10-02T08:35:39+02:00</time>
      </trkpt>
      <trkpt lat="45.93099" lon="6.30192">
        <ele>1698</ele>
        <time>2016-10-02T08:35:42+02:00</time>
      </trkpt>
      <trkpt lat="45.93095" lon="6.30189">
        <ele>1699</ele>
        <time>2016-10-02T08:35:45+02:00</time>
      </trkpt>
      <trkpt lat="45.93093" lon="6.30184">
        <ele>1700</ele>
        <time>2016-10-02T08:35:48+02:00</time>
      </trkpt>
      <trkpt lat="45.9309" lon="6.30179">
        <ele>1701</ele>
        <time>2016-10-02T08:35:52+02:00</time>
      </trkpt>
      <trkpt lat="45.93089" lon="6.30173">
        <ele>1703</ele>
        <time>2016-10-02T08:35:55+02:00</time>
      </trkpt>
      <trkpt lat="45.93093" lon="6.30163">
        <ele>1706</ele>
        <time>2016-10-02T08:36:01+02:00</time>
      </trkpt>
      <trkpt lat="45.93093" lon="6.30156">
        <ele>1708</ele>
        <time>2016-10-02T08:36:05+02:00</time>
      </trkpt>
      <trkpt lat="45.93095" lon="6.3015">
        <ele>1709</ele>
        <time>2016-10-02T08:36:09+02:00</time>
      </trkpt>
      <trkpt lat="45.93099" lon="6.30146">
        <ele>1710</ele>
        <time>2016-10-02T08:36:13+02:00</time>
      </trkpt>
      <trkpt lat="45.93101" lon="6.30142">
        <ele>1712</ele>
        <time>2016-10-02T08:36:17+02:00</time>
      </trkpt>
      <trkpt lat="45.93108" lon="6.30139">
        <ele>1713</ele>
        <time>2016-10-02T08:36:23+02:00</time>
      </trkpt>
      <trkpt lat="45.93107" lon="6.30132">
        <ele>1714</ele>
        <time>2016-10-02T08:36:27+02:00</time>
      </trkpt>
      <trkpt lat="45.93109" lon="6.30127">
        <ele>1715</ele>
        <time>2016-10-02T08:36:30+02:00</time>
      </trkpt>
      <trkpt lat="45.93112" lon="6.30124">
        <ele>1716</ele>
        <time>2016-10-02T08:36:34+02:00</time>
      </trkpt>
      <trkpt lat="45.93114" lon="6.30118">
        <ele>1717</ele>
        <time>2016-10-02T08:36:38+02:00</time>
      </trkpt>
      <trkpt lat="45.93117" lon="6.30113">
        <ele>1719</ele>
        <time>2016-10-02T08:36:41+02:00</time>
      </trkpt>
      <trkpt lat="45.93119" lon="6.30108">
        <ele>1720</ele>
        <time>2016-10-02T08:36:45+02:00</time>
      </trkpt>
      <trkpt lat="45.93122" lon="6.30101">
        <ele>1721</ele>
        <time>2016-10-02T08:36:50+02:00</time>
      </trkpt>
      <trkpt lat="45.93125" lon="6.30097">
        <ele>1722</ele>
        <time>2016-10-02T08:36:53+02:00</time>
      </trkpt>
      <trkpt lat="45.93129" lon="6.30096">
        <ele>1722</ele>
        <time>2016-10-02T08:36:57+02:00</time>
      </trkpt>
      <trkpt lat="45.93134" lon="6.30095">
        <ele>1723</ele>
        <time>2016-10-02T08:37:00+02:00</time>
      </trkpt>
      <trkpt lat="45.93137" lon="6.30092">
        <ele>1723</ele>
        <time>2016-10-02T08:37:03+02:00</time>
      </trkpt>
      <trkpt lat="45.93139" lon="6.30087">
        <ele>1724</ele>
        <time>2016-10-02T08:37:07+02:00</time>
      </trkpt>
      <trkpt lat="45.9314" lon="6.30081">
        <ele>1725</ele>
        <time>2016-10-02T08:37:10+02:00</time>
      </trkpt>
      <trkpt lat="45.93144" lon="6.30084">
        <ele>1725</ele>
        <time>2016-10-02T08:37:13+02:00</time>
      </trkpt>
      <trkpt lat="45.93145" lon="6.3009">
        <ele>1724</ele>
        <time>2016-10-02T08:37:17+02:00</time>
      </trkpt>
      <trkpt lat="45.93147" lon="6.30096">
        <ele>1722</ele>
        <time>2016-10-02T08:37:21+02:00</time>
      </trkpt>
      <trkpt lat="45.93149" lon="6.301">
        <ele>1722</ele>
        <time>2016-10-02T08:37:24+02:00</time>
      </trkpt>
      <trkpt lat="45.93154" lon="6.30107">
        <ele>1720</ele>
        <time>2016-10-02T08:37:30+02:00</time>
      </trkpt>
      <trkpt lat="45.93154" lon="6.30103">
        <ele>1721</ele>
        <time>2016-10-02T08:37:33+02:00</time>
      </trkpt>
      <trkpt lat="45.93154" lon="6.30098">
        <ele>1722</ele>
        <time>2016-10-02T08:37:36+02:00</time>
      </trkpt>
      <trkpt lat="45.93154" lon="6.30092">
        <ele>1723</ele>
        <time>2016-10-02T08:37:40+02:00</time>
      </trkpt>
      <trkpt lat="45.93152" lon="6.30086">
        <ele>1724</ele>
        <time>2016-10-02T08:37:43+02:00</time>
      </trkpt>
      <trkpt lat="45.93148" lon="6.30084">
        <ele>1725</ele>
        <time>2016-10-02T08:37:46+02:00</time>
      </trkpt>
      <trkpt lat="45.93143" lon="6.30078">
        <ele>1726</ele>
        <time>2016-10-02T08:37:52+02:00</time>
      </trkpt>
      <trkpt lat="45.93142" lon="6.30072">
        <ele>1727</ele>
        <time>2016-10-02T08:37:55+02:00</time>
      </trkpt>
      <trkpt lat="45.93142" lon="6.30067">
        <ele>1727</ele>
        <time>2016-10-02T08:37:58+02:00</time>
      </trkpt>
      <trkpt lat="45.9314" lon="6.30062">
        <ele>1728</ele>
        <time>2016-10-02T08:38:01+02:00</time>
      </trkpt>
      <trkpt lat="45.93139" lon="6.30056">
        <ele>1729</ele>
        <time>2016-10-02T08:38:05+02:00</time>
      </trkpt>
      <trkpt lat="45.93139" lon="6.30051">
        <ele>1730</ele>
        <time>2016-10-02T08:38:08+02:00</time>
      </trkpt>
      <trkpt lat="45.93139" lon="6.30044">
        <ele>1731</ele>
        <time>2016-10-02T08:38:12+02:00</time>
      </trkpt>
      <trkpt lat="45.9314" lon="6.30036">
        <ele>1732</ele>
        <time>2016-10-02T08:38:17+02:00</time>
      </trkpt>
      <trkpt lat="45.93142" lon="6.30026">
        <ele>1733</ele>
        <time>2016-10-02T08:38:23+02:00</time>
      </trkpt>
      <trkpt lat="45.93141" lon="6.3002">
        <ele>1734</ele>
        <time>2016-10-02T08:38:26+02:00</time>
      </trkpt>
      <trkpt lat="45.93137" lon="6.30015">
        <ele>1735</ele>
        <time>2016-10-02T08:38:30+02:00</time>
      </trkpt>
      <trkpt lat="45.93135" lon="6.30011">
        <ele>1736</ele>
        <time>2016-10-02T08:38:33+02:00</time>
      </trkpt>
      <trkpt lat="45.93134" lon="6.30005">
        <ele>1737</ele>
        <time>2016-10-02T08:38:36+02:00</time>
      </trkpt>
      <trkpt lat="45.9313" lon="6.30001">
        <ele>1738</ele>
        <time>2016-10-02T08:38:40+02:00</time>
      </trkpt>
      <trkpt lat="45.93124" lon="6.29998">
        <ele>1739</ele>
        <time>2016-10-02T08:38:46+02:00</time>
      </trkpt>
      <trkpt lat="45.93122" lon="6.29994">
        <ele>1739</ele>
        <time>2016-10-02T08:38:48+02:00</time>
      </trkpt>
      <trkpt lat="45.9312" lon="6.29988">
        <ele>1740</ele>
        <time>2016-10-02T08:38:52+02:00</time>
      </trkpt>
      <trkpt lat="45.93117" lon="6.29984">
        <ele>1741</ele>
        <time>2016-10-02T08:38:55+02:00</time>
      </trkpt>
      <trkpt lat="45.93113" lon="6.29982">
        <ele>1742</ele>
        <time>2016-10-02T08:38:59+02:00</time>
      </trkpt>
      <trkpt lat="45.93116" lon="6.29975">
        <ele>1742</ele>
        <time>2016-10-02T08:39:03+02:00</time>
      </trkpt>
      <trkpt lat="45.93113" lon="6.29969">
        <ele>1743</ele>
        <time>2016-10-02T08:39:07+02:00</time>
      </trkpt>
      <trkpt lat="45.93116" lon="6.29966">
        <ele>1743</ele>
        <time>2016-10-02T08:39:10+02:00</time>
      </trkpt>
      <trkpt lat="45.93119" lon="6.29961">
        <ele>1743</ele>
        <time>2016-10-02T08:39:14+02:00</time>
      </trkpt>
      <trkpt lat="45.93122" lon="6.29956">
        <ele>1743</ele>
        <time>2016-10-02T08:39:17+02:00</time>
      </trkpt>
      <trkpt lat="45.93124" lon="6.29954">
        <ele>1743</ele>
        <time>2016-10-02T08:39:20+02:00</time>
      </trkpt>
      <trkpt lat="45.93126" lon="6.29948">
        <ele>1743</ele>
        <time>2016-10-02T08:39:23+02:00</time>
      </trkpt>
      <trkpt lat="45.93123" lon="6.29943">
        <ele>1744</ele>
        <time>2016-10-02T08:39:27+02:00</time>
      </trkpt>
      <trkpt lat="45.93119" lon="6.29937">
        <ele>1745</ele>
        <time>2016-10-02T08:39:31+02:00</time>
      </trkpt>
      <trkpt lat="45.93116" lon="6.29934">
        <ele>1747</ele>
        <time>2016-10-02T08:39:34+02:00</time>
      </trkpt>
      <trkpt lat="45.93115" lon="6.29928">
        <ele>1748</ele>
        <time>2016-10-02T08:39:38+02:00</time>
      </trkpt>
      <trkpt lat="45.93116" lon="6.29921">
        <ele>1748</ele>
        <time>2016-10-02T08:39:42+02:00</time>
      </trkpt>
      <trkpt lat="45.93118" lon="6.29915">
        <ele>1748</ele>
        <time>2016-10-02T08:39:46+02:00</time>
      </trkpt>
      <trkpt lat="45.93116" lon="6.29909">
        <ele>1748</ele>
        <time>2016-10-02T08:39:49+02:00</time>
      </trkpt>
      <trkpt lat="45.93116" lon="6.29904">
        <ele>1747</ele>
        <time>2016-10-02T08:39:52+02:00</time>
      </trkpt>
      <trkpt lat="45.93117" lon="6.29898">
        <ele>1746</ele>
        <time>2016-10-02T08:39:56+02:00</time>
      </trkpt>
      <trkpt lat="45.93116" lon="6.29892">
        <ele>1746</ele>
        <time>2016-10-02T08:39:59+02:00</time>
      </trkpt>
      <trkpt lat="45.93116" lon="6.29886">
        <ele>1745</ele>
        <time>2016-10-02T08:40:03+02:00</time>
      </trkpt>
      <trkpt lat="45.93115" lon="6.2988">
        <ele>1745</ele>
        <time>2016-10-02T08:40:06+02:00</time>
      </trkpt>
      <trkpt lat="45.93114" lon="6.29876">
        <ele>1745</ele>
        <time>2016-10-02T08:40:09+02:00</time>
      </trkpt>
      <trkpt lat="45.93112" lon="6.29869">
        <ele>1745</ele>
        <time>2016-10-02T08:40:13+02:00</time>
      </trkpt>
      <trkpt lat="45.93113" lon="6.29863">
        <ele>1744</ele>
        <time>2016-10-02T08:40:16+02:00</time>
      </trkpt>
      <trkpt lat="45.93112" lon="6.29856">
        <ele>1744</ele>
        <time>2016-10-02T08:40:20+02:00</time>
      </trkpt>
      <trkpt lat="45.9311" lon="6.29851">
        <ele>1744</ele>
        <time>2016-10-02T08:40:23+02:00</time>
      </trkpt>
      <trkpt lat="45.93107" lon="6.29846">
        <ele>1745</ele>
        <time>2016-10-02T08:40:27+02:00</time>
      </trkpt>
      <trkpt lat="45.93105" lon="6.29843">
        <ele>1746</ele>
        <time>2016-10-02T08:40:29+02:00</time>
      </trkpt>
      <trkpt lat="45.93104" lon="6.29837">
        <ele>1746</ele>
        <time>2016-10-02T08:40:33+02:00</time>
      </trkpt>
      <trkpt lat="45.93102" lon="6.29831">
        <ele>1746</ele>
        <time>2016-10-02T08:40:36+02:00</time>
      </trkpt>
      <trkpt lat="45.93102" lon="6.29825">
        <ele>1746</ele>
        <time>2016-10-02T08:40:40+02:00</time>
      </trkpt>
      <trkpt lat="45.93099" lon="6.29821">
        <ele>1747</ele>
        <time>2016-10-02T08:40:43+02:00</time>
      </trkpt>
      <trkpt lat="45.93096" lon="6.2982">
        <ele>1748</ele>
        <time>2016-10-02T08:40:46+02:00</time>
      </trkpt>
      <trkpt lat="45.9309" lon="6.29818">
        <ele>1751</ele>
        <time>2016-10-02T08:40:51+02:00</time>
      </trkpt>
      <trkpt lat="45.93086" lon="6.29815">
        <ele>1752</ele>
        <time>2016-10-02T08:40:55+02:00</time>
      </trkpt>
      <trkpt lat="45.93082" lon="6.29813">
        <ele>1754</ele>
        <time>2016-10-02T08:40:58+02:00</time>
      </trkpt>
      <trkpt lat="45.93079" lon="6.29813">
        <ele>1754</ele>
        <time>2016-10-02T08:41:01+02:00</time>
      </trkpt>
      <trkpt lat="45.93075" lon="6.29811">
        <ele>1755</ele>
        <time>2016-10-02T08:41:04+02:00</time>
      </trkpt>
      <trkpt lat="45.9307" lon="6.29809">
        <ele>1755</ele>
        <time>2016-10-02T08:41:08+02:00</time>
      </trkpt>
      <trkpt lat="45.93067" lon="6.29805">
        <ele>1756</ele>
        <time>2016-10-02T08:41:12+02:00</time>
      </trkpt>
      <trkpt lat="45.93063" lon="6.29802">
        <ele>1757</ele>
        <time>2016-10-02T08:41:16+02:00</time>
      </trkpt>
      <trkpt lat="45.93058" lon="6.29801">
        <ele>1758</ele>
        <time>2016-10-02T08:41:19+02:00</time>
      </trkpt>
      <trkpt lat="45.93055" lon="6.29797">
        <ele>1758</ele>
        <time>2016-10-02T08:41:22+02:00</time>
      </trkpt>
      <trkpt lat="45.93055" lon="6.29791">
        <ele>1758</ele>
        <time>2016-10-02T08:41:26+02:00</time>
      </trkpt>
      <trkpt lat="45.93055" lon="6.29784">
        <ele>1758</ele>
        <time>2016-10-02T08:41:30+02:00</time>
      </trkpt>
      <trkpt lat="45.93051" lon="6.2978">
        <ele>1759</ele>
        <time>2016-10-02T08:41:33+02:00</time>
      </trkpt>
      <trkpt lat="45.9305" lon="6.29774">
        <ele>1760</ele>
        <time>2016-10-02T08:41:37+02:00</time>
      </trkpt>
      <trkpt lat="45.93052" lon="6.29768">
        <ele>1760</ele>
        <time>2016-10-02T08:41:40+02:00</time>
      </trkpt>
      <trkpt lat="45.93049" lon="6.29764">
        <ele>1760</ele>
        <time>2016-10-02T08:41:43+02:00</time>
      </trkpt>
      <trkpt lat="45.93045" lon="6.29761">
        <ele>1762</ele>
        <time>2016-10-02T08:41:47+02:00</time>
      </trkpt>
      <trkpt lat="45.93044" lon="6.29756">
        <ele>1762</ele>
        <time>2016-10-02T08:41:50+02:00</time>
      </trkpt>
      <trkpt lat="45.93043" lon="6.2975">
        <ele>1763</ele>
        <time>2016-10-02T08:41:54+02:00</time>
      </trkpt>
      <trkpt lat="45.93041" lon="6.29744">
        <ele>1763</ele>
        <time>2016-10-02T08:41:57+02:00</time>
      </trkpt>
      <trkpt lat="45.9304" lon="6.29739">
        <ele>1763</ele>
        <time>2016-10-02T08:42:00+02:00</time>
      </trkpt>
      <trkpt lat="45.93037" lon="6.29736">
        <ele>1764</ele>
        <time>2016-10-02T08:42:03+02:00</time>
      </trkpt>
      <trkpt lat="45.93034" lon="6.29732">
        <ele>1765</ele>
        <time>2016-10-02T08:42:07+02:00</time>
      </trkpt>
      <trkpt lat="45.93031" lon="6.29728">
        <ele>1766</ele>
        <time>2016-10-02T08:42:10+02:00</time>
      </trkpt>
      <trkpt lat="45.93028" lon="6.29725">
        <ele>1767</ele>
        <time>2016-10-02T08:42:13+02:00</time>
      </trkpt>
      <trkpt lat="45.93026" lon="6.29723">
        <ele>1767</ele>
        <time>2016-10-02T08:42:15+02:00</time>
      </trkpt>
      <trkpt lat="45.93022" lon="6.29717">
        <ele>1769</ele>
        <time>2016-10-02T08:42:20+02:00</time>
      </trkpt>
      <trkpt lat="45.9302" lon="6.29708">
        <ele>1769</ele>
        <time>2016-10-02T08:42:25+02:00</time>
      </trkpt>
      <trkpt lat="45.93016" lon="6.29705">
        <ele>1771</ele>
        <time>2016-10-02T08:42:29+02:00</time>
      </trkpt>
      <trkpt lat="45.93011" lon="6.29701">
        <ele>1773</ele>
        <time>2016-10-02T08:42:34+02:00</time>
      </trkpt>
      <trkpt lat="45.93007" lon="6.29695">
        <ele>1774</ele>
        <time>2016-10-02T08:42:39+02:00</time>
      </trkpt>
      <trkpt lat="45.93003" lon="6.2969">
        <ele>1776</ele>
        <time>2016-10-02T08:42:43+02:00</time>
      </trkpt>
      <trkpt lat="45.92997" lon="6.29684">
        <ele>1778</ele>
        <time>2016-10-02T08:42:49+02:00</time>
      </trkpt>
      <trkpt lat="45.92998" lon="6.29678">
        <ele>1778</ele>
        <time>2016-10-02T08:42:52+02:00</time>
      </trkpt>
      <trkpt lat="45.93002" lon="6.29667">
        <ele>1776</ele>
        <time>2016-10-02T08:42:59+02:00</time>
      </trkpt>
      <trkpt lat="45.93001" lon="6.29661">
        <ele>1775</ele>
        <time>2016-10-02T08:43:03+02:00</time>
      </trkpt>
      <trkpt lat="45.93001" lon="6.2965">
        <ele>1772</ele>
        <time>2016-10-02T08:43:09+02:00</time>
      </trkpt>
      <trkpt lat="45.92998" lon="6.29645">
        <ele>1771</ele>
        <time>2016-10-02T08:43:13+02:00</time>
      </trkpt>
      <trkpt lat="45.92994" lon="6.29637">
        <ele>1771</ele>
        <time>2016-10-02T08:43:19+02:00</time>
      </trkpt>
      <trkpt lat="45.9299" lon="6.29632">
        <ele>1771</ele>
        <time>2016-10-02T08:43:24+02:00</time>
      </trkpt>
      <trkpt lat="45.92987" lon="6.29629">
        <ele>1772</ele>
        <time>2016-10-02T08:43:27+02:00</time>
      </trkpt>
      <trkpt lat="45.92983" lon="6.29624">
        <ele>1772</ele>
        <time>2016-10-02T08:43:31+02:00</time>
      </trkpt>
      <trkpt lat="45.92982" lon="6.29618">
        <ele>1771</ele>
        <time>2016-10-02T08:43:34+02:00</time>
      </trkpt>
      <trkpt lat="45.92979" lon="6.29614">
        <ele>1771</ele>
        <time>2016-10-02T08:43:38+02:00</time>
      </trkpt>
      <trkpt lat="45.92976" lon="6.29609">
        <ele>1771</ele>
        <time>2016-10-02T08:43:41+02:00</time>
      </trkpt>
      <trkpt lat="45.92974" lon="6.29603">
        <ele>1771</ele>
        <time>2016-10-02T08:43:46+02:00</time>
      </trkpt>
      <trkpt lat="45.9297" lon="6.296">
        <ele>1772</ele>
        <time>2016-10-02T08:43:49+02:00</time>
      </trkpt>
      <trkpt lat="45.92967" lon="6.29597">
        <ele>1773</ele>
        <time>2016-10-02T08:43:52+02:00</time>
      </trkpt>
      <trkpt lat="45.92967" lon="6.29591">
        <ele>1771</ele>
        <time>2016-10-02T08:43:56+02:00</time>
      </trkpt>
      <trkpt lat="45.92966" lon="6.29587">
        <ele>1771</ele>
        <time>2016-10-02T08:43:58+02:00</time>
      </trkpt>
      <trkpt lat="45.92962" lon="6.29584">
        <ele>1772</ele>
        <time>2016-10-02T08:44:02+02:00</time>
      </trkpt>
      <trkpt lat="45.92957" lon="6.29582">
        <ele>1774</ele>
        <time>2016-10-02T08:44:06+02:00</time>
      </trkpt>
      <trkpt lat="45.92954" lon="6.2958">
        <ele>1775</ele>
        <time>2016-10-02T08:44:09+02:00</time>
      </trkpt>
      <trkpt lat="45.92949" lon="6.29579">
        <ele>1777</ele>
        <time>2016-10-02T08:44:13+02:00</time>
      </trkpt>
      <trkpt lat="45.92944" lon="6.29579">
        <ele>1780</ele>
        <time>2016-10-02T08:44:17+02:00</time>
      </trkpt>
      <trkpt lat="45.92942" lon="6.29575">
        <ele>1780</ele>
        <time>2016-10-02T08:44:20+02:00</time>
      </trkpt>
      <trkpt lat="45.9294" lon="6.2957">
        <ele>1778</ele>
        <time>2016-10-02T08:44:23+02:00</time>
      </trkpt>
      <trkpt lat="45.92939" lon="6.29566">
        <ele>1778</ele>
        <time>2016-10-02T08:44:26+02:00</time>
      </trkpt>
      <trkpt lat="45.92938" lon="6.2956">
        <ele>1776</ele>
        <time>2016-10-02T08:44:29+02:00</time>
      </trkpt>
      <trkpt lat="45.92936" lon="6.29554">
        <ele>1775</ele>
        <time>2016-10-02T08:44:33+02:00</time>
      </trkpt>
      <trkpt lat="45.92935" lon="6.29547">
        <ele>1772</ele>
        <time>2016-10-02T08:44:37+02:00</time>
      </trkpt>
      <trkpt lat="45.92933" lon="6.29543">
        <ele>1772</ele>
        <time>2016-10-02T08:44:41+02:00</time>
      </trkpt>
      <trkpt lat="45.9293" lon="6.29542">
        <ele>1773</ele>
        <time>2016-10-02T08:44:43+02:00</time>
      </trkpt>
      <trkpt lat="45.92926" lon="6.2954">
        <ele>1775</ele>
        <time>2016-10-02T08:44:47+02:00</time>
      </trkpt>
      <trkpt lat="45.92923" lon="6.29536">
        <ele>1774</ele>
        <time>2016-10-02T08:44:50+02:00</time>
      </trkpt>
      <trkpt lat="45.9292" lon="6.29532">
        <ele>1774</ele>
        <time>2016-10-02T08:44:53+02:00</time>
      </trkpt>
      <trkpt lat="45.92918" lon="6.29526">
        <ele>1773</ele>
        <time>2016-10-02T08:44:57+02:00</time>
      </trkpt>
      <trkpt lat="45.92914" lon="6.29523">
        <ele>1774</ele>
        <time>2016-10-02T08:45:01+02:00</time>
      </trkpt>
      <trkpt lat="45.92912" lon="6.29521">
        <ele>1774</ele>
        <time>2016-10-02T08:45:03+02:00</time>
      </trkpt>
      <trkpt lat="45.92909" lon="6.29517">
        <ele>1774</ele>
        <time>2016-10-02T08:45:06+02:00</time>
      </trkpt>
      <trkpt lat="45.92907" lon="6.29513">
        <ele>1774</ele>
        <time>2016-10-02T08:45:09+02:00</time>
      </trkpt>
      <trkpt lat="45.92905" lon="6.29512">
        <ele>1775</ele>
        <time>2016-10-02T08:45:11+02:00</time>
      </trkpt>
      <trkpt lat="45.92901" lon="6.29508">
        <ele>1776</ele>
        <time>2016-10-02T08:45:15+02:00</time>
      </trkpt>
      <trkpt lat="45.92899" lon="6.29507">
        <ele>1776</ele>
        <time>2016-10-02T08:45:17+02:00</time>
      </trkpt>
      <trkpt lat="45.92896" lon="6.29502">
        <ele>1776</ele>
        <time>2016-10-02T08:45:21+02:00</time>
      </trkpt>
      <trkpt lat="45.92894" lon="6.29497">
        <ele>1775</ele>
        <time>2016-10-02T08:45:24+02:00</time>
      </trkpt>
      <trkpt lat="45.92891" lon="6.29492">
        <ele>1774</ele>
        <time>2016-10-02T08:45:28+02:00</time>
      </trkpt>
      <trkpt lat="45.92887" lon="6.29488">
        <ele>1775</ele>
        <time>2016-10-02T08:45:32+02:00</time>
      </trkpt>
      <trkpt lat="45.92884" lon="6.29485">
        <ele>1776</ele>
        <time>2016-10-02T08:45:35+02:00</time>
      </trkpt>
      <trkpt lat="45.92882" lon="6.29482">
        <ele>1775</ele>
        <time>2016-10-02T08:45:37+02:00</time>
      </trkpt>
      <trkpt lat="45.92881" lon="6.29479">
        <ele>1775</ele>
        <time>2016-10-02T08:45:39+02:00</time>
      </trkpt>
      <trkpt lat="45.92878" lon="6.29475">
        <ele>1774</ele>
        <time>2016-10-02T08:45:43+02:00</time>
      </trkpt>
      <trkpt lat="45.92875" lon="6.29466">
        <ele>1772</ele>
        <time>2016-10-02T08:45:48+02:00</time>
      </trkpt>
      <trkpt lat="45.92873" lon="6.29461">
        <ele>1771</ele>
        <time>2016-10-02T08:45:51+02:00</time>
      </trkpt>
      <trkpt lat="45.9287" lon="6.29457">
        <ele>1770</ele>
        <time>2016-10-02T08:45:55+02:00</time>
      </trkpt>
      <trkpt lat="45.92867" lon="6.29452">
        <ele>1769</ele>
        <time>2016-10-02T08:45:58+02:00</time>
      </trkpt>
      <trkpt lat="45.92866" lon="6.29447">
        <ele>1767</ele>
        <time>2016-10-02T08:46:01+02:00</time>
      </trkpt>
      <trkpt lat="45.92864" lon="6.29442">
        <ele>1766</ele>
        <time>2016-10-02T08:46:05+02:00</time>
      </trkpt>
      <trkpt lat="45.92861" lon="6.29439">
        <ele>1766</ele>
        <time>2016-10-02T08:46:09+02:00</time>
      </trkpt>
      <trkpt lat="45.9286" lon="6.29435">
        <ele>1765</ele>
        <time>2016-10-02T08:46:11+02:00</time>
      </trkpt>
      <trkpt lat="45.92861" lon="6.29433">
        <ele>1763</ele>
        <time>2016-10-02T08:46:12+02:00</time>
      </trkpt>
      <trkpt lat="45.92861" lon="6.29439">
        <ele>1766</ele>
        <time>2016-10-02T08:46:16+02:00</time>
      </trkpt>
      <trkpt lat="45.9286" lon="6.29445">
        <ele>1770</ele>
        <time>2016-10-02T08:46:19+02:00</time>
      </trkpt>
      <trkpt lat="45.92857" lon="6.29449">
        <ele>1773</ele>
        <time>2016-10-02T08:46:23+02:00</time>
      </trkpt>
      <trkpt lat="45.92852" lon="6.29451">
        <ele>1777</ele>
        <time>2016-10-02T08:46:27+02:00</time>
      </trkpt>
      <trkpt lat="45.92847" lon="6.29453">
        <ele>1780</ele>
        <time>2016-10-02T08:46:31+02:00</time>
      </trkpt>
      <trkpt lat="45.92843" lon="6.29455">
        <ele>1783</ele>
        <time>2016-10-02T08:46:34+02:00</time>
      </trkpt>
      <trkpt lat="45.92839" lon="6.29457">
        <ele>1786</ele>
        <time>2016-10-02T08:46:38+02:00</time>
      </trkpt>
      <trkpt lat="45.92835" lon="6.29459">
        <ele>1789</ele>
        <time>2016-10-02T08:46:41+02:00</time>
      </trkpt>
      <trkpt lat="45.92831" lon="6.29458">
        <ele>1790</ele>
        <time>2016-10-02T08:46:44+02:00</time>
      </trkpt>
      <trkpt lat="45.92829" lon="6.29459">
        <ele>1790</ele>
        <time>2016-10-02T08:46:46+02:00</time>
      </trkpt>
      <trkpt lat="45.92825" lon="6.29459">
        <ele>1790</ele>
        <time>2016-10-02T08:46:50+02:00</time>
      </trkpt>
      <trkpt lat="45.92821" lon="6.29462">
        <ele>1792</ele>
        <time>2016-10-02T08:46:53+02:00</time>
      </trkpt>
      <trkpt lat="45.92818" lon="6.29465">
        <ele>1793</ele>
        <time>2016-10-02T08:46:57+02:00</time>
      </trkpt>
      <trkpt lat="45.92814" lon="6.2946">
        <ele>1790</ele>
        <time>2016-10-02T08:47:01+02:00</time>
      </trkpt>
      <trkpt lat="45.92811" lon="6.29458">
        <ele>1790</ele>
        <time>2016-10-02T08:47:05+02:00</time>
      </trkpt>
      <trkpt lat="45.92808" lon="6.29462">
        <ele>1791</ele>
        <time>2016-10-02T08:47:08+02:00</time>
      </trkpt>
      <trkpt lat="45.92805" lon="6.29459">
        <ele>1790</ele>
        <time>2016-10-02T08:47:12+02:00</time>
      </trkpt>
      <trkpt lat="45.92801" lon="6.29455">
        <ele>1788</ele>
        <time>2016-10-02T08:47:16+02:00</time>
      </trkpt>
      <trkpt lat="45.92798" lon="6.29455">
        <ele>1788</ele>
        <time>2016-10-02T08:47:18+02:00</time>
      </trkpt>
      <trkpt lat="45.92796" lon="6.29453">
        <ele>1788</ele>
        <time>2016-10-02T08:47:21+02:00</time>
      </trkpt>
      <trkpt lat="45.92791" lon="6.29453">
        <ele>1787</ele>
        <time>2016-10-02T08:47:24+02:00</time>
      </trkpt>
      <trkpt lat="45.92787" lon="6.29453">
        <ele>1788</ele>
        <time>2016-10-02T08:47:28+02:00</time>
      </trkpt>
      <trkpt lat="45.92783" lon="6.29457">
        <ele>1789</ele>
        <time>2016-10-02T08:47:31+02:00</time>
      </trkpt>
      <trkpt lat="45.9278" lon="6.29461">
        <ele>1790</ele>
        <time>2016-10-02T08:47:35+02:00</time>
      </trkpt>
      <trkpt lat="45.92776" lon="6.29464">
        <ele>1791</ele>
        <time>2016-10-02T08:47:38+02:00</time>
      </trkpt>
      <trkpt lat="45.92772" lon="6.29463">
        <ele>1791</ele>
        <time>2016-10-02T08:47:42+02:00</time>
      </trkpt>
      <trkpt lat="45.92768" lon="6.29462">
        <ele>1790</ele>
        <time>2016-10-02T08:47:45+02:00</time>
      </trkpt>
      <trkpt lat="45.92764" lon="6.29462">
        <ele>1790</ele>
        <time>2016-10-02T08:47:49+02:00</time>
      </trkpt>
      <trkpt lat="45.92762" lon="6.29462">
        <ele>1790</ele>
        <time>2016-10-02T08:47:51+02:00</time>
      </trkpt>
      <trkpt lat="45.92757" lon="6.29462">
        <ele>1790</ele>
        <time>2016-10-02T08:47:54+02:00</time>
      </trkpt>
      <trkpt lat="45.92755" lon="6.29461">
        <ele>1790</ele>
        <time>2016-10-02T08:47:56+02:00</time>
      </trkpt>
      <trkpt lat="45.92752" lon="6.29459">
        <ele>1789</ele>
        <time>2016-10-02T08:47:59+02:00</time>
      </trkpt>
      <trkpt lat="45.92748" lon="6.29456">
        <ele>1788</ele>
        <time>2016-10-02T08:48:03+02:00</time>
      </trkpt>
      <trkpt lat="45.92744" lon="6.29455">
        <ele>1787</ele>
        <time>2016-10-02T08:48:06+02:00</time>
      </trkpt>
      <trkpt lat="45.92741" lon="6.29455">
        <ele>1787</ele>
        <time>2016-10-02T08:48:08+02:00</time>
      </trkpt>
      <trkpt lat="45.92736" lon="6.29456">
        <ele>1787</ele>
        <time>2016-10-02T08:48:12+02:00</time>
      </trkpt>
      <trkpt lat="45.92732" lon="6.29453">
        <ele>1786</ele>
        <time>2016-10-02T08:48:16+02:00</time>
      </trkpt>
      <trkpt lat="45.92728" lon="6.29452">
        <ele>1786</ele>
        <time>2016-10-02T08:48:19+02:00</time>
      </trkpt>
      <trkpt lat="45.92724" lon="6.29451">
        <ele>1785</ele>
        <time>2016-10-02T08:48:23+02:00</time>
      </trkpt>
      <trkpt lat="45.92721" lon="6.29452">
        <ele>1785</ele>
        <time>2016-10-02T08:48:25+02:00</time>
      </trkpt>
      <trkpt lat="45.92717" lon="6.29453">
        <ele>1785</ele>
        <time>2016-10-02T08:48:28+02:00</time>
      </trkpt>
      <trkpt lat="45.92713" lon="6.29453">
        <ele>1785</ele>
        <time>2016-10-02T08:48:32+02:00</time>
      </trkpt>
      <trkpt lat="45.92708" lon="6.29453">
        <ele>1785</ele>
        <time>2016-10-02T08:48:36+02:00</time>
      </trkpt>
      <trkpt lat="45.92704" lon="6.29455">
        <ele>1785</ele>
        <time>2016-10-02T08:48:39+02:00</time>
      </trkpt>
      <trkpt lat="45.927" lon="6.29453">
        <ele>1784</ele>
        <time>2016-10-02T08:48:43+02:00</time>
      </trkpt>
      <trkpt lat="45.92696" lon="6.29451">
        <ele>1784</ele>
        <time>2016-10-02T08:48:46+02:00</time>
      </trkpt>
      <trkpt lat="45.92693" lon="6.29447">
        <ele>1783</ele>
        <time>2016-10-02T08:48:49+02:00</time>
      </trkpt>
      <trkpt lat="45.92689" lon="6.29445">
        <ele>1783</ele>
        <time>2016-10-02T08:48:52+02:00</time>
      </trkpt>
      <trkpt lat="45.92687" lon="6.29446">
        <ele>1783</ele>
        <time>2016-10-02T08:48:54+02:00</time>
      </trkpt>
      <trkpt lat="45.92684" lon="6.29447">
        <ele>1783</ele>
        <time>2016-10-02T08:48:56+02:00</time>
      </trkpt>
      <trkpt lat="45.9268" lon="6.2945">
        <ele>1783</ele>
        <time>2016-10-02T08:49:00+02:00</time>
      </trkpt>
      <trkpt lat="45.92675" lon="6.29452">
        <ele>1783</ele>
        <time>2016-10-02T08:49:05+02:00</time>
      </trkpt>
      <trkpt lat="45.92669" lon="6.29451">
        <ele>1782</ele>
        <time>2016-10-02T08:49:09+02:00</time>
      </trkpt>
      <trkpt lat="45.92666" lon="6.29448">
        <ele>1782</ele>
        <time>2016-10-02T08:49:13+02:00</time>
      </trkpt>
      <trkpt lat="45.92662" lon="6.29445">
        <ele>1782</ele>
        <time>2016-10-02T08:49:16+02:00</time>
      </trkpt>
      <trkpt lat="45.9266" lon="6.29442">
        <ele>1782</ele>
        <time>2016-10-02T08:49:19+02:00</time>
      </trkpt>
      <trkpt lat="45.92656" lon="6.29435">
        <ele>1783</ele>
        <time>2016-10-02T08:49:24+02:00</time>
      </trkpt>
      <trkpt lat="45.92654" lon="6.29433">
        <ele>1783</ele>
        <time>2016-10-02T08:49:26+02:00</time>
      </trkpt>
      <trkpt lat="45.92653" lon="6.29428">
        <ele>1783</ele>
        <time>2016-10-02T08:49:29+02:00</time>
      </trkpt>
      <trkpt lat="45.9265" lon="6.29422">
        <ele>1784</ele>
        <time>2016-10-02T08:49:33+02:00</time>
      </trkpt>
      <trkpt lat="45.92646" lon="6.29418">
        <ele>1785</ele>
        <time>2016-10-02T08:49:37+02:00</time>
      </trkpt>
      <trkpt lat="45.92644" lon="6.29415">
        <ele>1785</ele>
        <time>2016-10-02T08:49:39+02:00</time>
      </trkpt>
      <trkpt lat="45.92641" lon="6.2941">
        <ele>1786</ele>
        <time>2016-10-02T08:49:43+02:00</time>
      </trkpt>
      <trkpt lat="45.92638" lon="6.29408">
        <ele>1786</ele>
        <time>2016-10-02T08:49:46+02:00</time>
      </trkpt>
      <trkpt lat="45.92636" lon="6.29406">
        <ele>1787</ele>
        <time>2016-10-02T08:49:48+02:00</time>
      </trkpt>
      <trkpt lat="45.92633" lon="6.29404">
        <ele>1788</ele>
        <time>2016-10-02T08:49:50+02:00</time>
      </trkpt>
      <trkpt lat="45.92631" lon="6.29401">
        <ele>1788</ele>
        <time>2016-10-02T08:49:53+02:00</time>
      </trkpt>
      <trkpt lat="45.92628" lon="6.29399">
        <ele>1789</ele>
        <time>2016-10-02T08:49:55+02:00</time>
      </trkpt>
      <trkpt lat="45.92626" lon="6.29398">
        <ele>1790</ele>
        <time>2016-10-02T08:49:57+02:00</time>
      </trkpt>
      <trkpt lat="45.92622" lon="6.29394">
        <ele>1791</ele>
        <time>2016-10-02T08:50:01+02:00</time>
      </trkpt>
      <trkpt lat="45.92619" lon="6.29393">
        <ele>1792</ele>
        <time>2016-10-02T08:50:03+02:00</time>
      </trkpt>
      <trkpt lat="45.92615" lon="6.29394">
        <ele>1793</ele>
        <time>2016-10-02T08:50:07+02:00</time>
      </trkpt>
      <trkpt lat="45.92612" lon="6.29391">
        <ele>1795</ele>
        <time>2016-10-02T08:50:10+02:00</time>
      </trkpt>
      <trkpt lat="45.92607" lon="6.29383">
        <ele>1797</ele>
        <time>2016-10-02T08:50:16+02:00</time>
      </trkpt>
      <trkpt lat="45.92608" lon="6.29377">
        <ele>1797</ele>
        <time>2016-10-02T08:50:19+02:00</time>
      </trkpt>
      <trkpt lat="45.92606" lon="6.2937">
        <ele>1798</ele>
        <time>2016-10-02T08:50:23+02:00</time>
      </trkpt>
      <trkpt lat="45.926" lon="6.29363">
        <ele>1801</ele>
        <time>2016-10-02T08:50:29+02:00</time>
      </trkpt>
      <trkpt lat="45.92599" lon="6.29359">
        <ele>1803</ele>
        <time>2016-10-02T08:50:32+02:00</time>
      </trkpt>
      <trkpt lat="45.92597" lon="6.29356">
        <ele>1804</ele>
        <time>2016-10-02T08:50:34+02:00</time>
      </trkpt>
      <trkpt lat="45.92597" lon="6.29352">
        <ele>1804</ele>
        <time>2016-10-02T08:50:37+02:00</time>
      </trkpt>
      <trkpt lat="45.92594" lon="6.29346">
        <ele>1806</ele>
        <time>2016-10-02T08:50:40+02:00</time>
      </trkpt>
      <trkpt lat="45.92591" lon="6.29346">
        <ele>1808</ele>
        <time>2016-10-02T08:50:43+02:00</time>
      </trkpt>
      <trkpt lat="45.92588" lon="6.29342">
        <ele>1810</ele>
        <time>2016-10-02T08:50:47+02:00</time>
      </trkpt>
      <trkpt lat="45.92585" lon="6.29337">
        <ele>1812</ele>
        <time>2016-10-02T08:50:50+02:00</time>
      </trkpt>
      <trkpt lat="45.92582" lon="6.29331">
        <ele>1814</ele>
        <time>2016-10-02T08:50:54+02:00</time>
      </trkpt>
      <trkpt lat="45.92579" lon="6.29326">
        <ele>1816</ele>
        <time>2016-10-02T08:50:58+02:00</time>
      </trkpt>
      <trkpt lat="45.92576" lon="6.29322">
        <ele>1817</ele>
        <time>2016-10-02T08:51:01+02:00</time>
      </trkpt>
      <trkpt lat="45.92573" lon="6.29318">
        <ele>1818</ele>
        <time>2016-10-02T08:51:04+02:00</time>
      </trkpt>
      <trkpt lat="45.92572" lon="6.29315">
        <ele>1818</ele>
        <time>2016-10-02T08:51:06+02:00</time>
      </trkpt>
      <trkpt lat="45.9257" lon="6.2931">
        <ele>1820</ele>
        <time>2016-10-02T08:51:10+02:00</time>
      </trkpt>
      <trkpt lat="45.92567" lon="6.29305">
        <ele>1821</ele>
        <time>2016-10-02T08:51:13+02:00</time>
      </trkpt>
      <trkpt lat="45.92564" lon="6.29301">
        <ele>1822</ele>
        <time>2016-10-02T08:51:17+02:00</time>
      </trkpt>
      <trkpt lat="45.92561" lon="6.29296">
        <ele>1824</ele>
        <time>2016-10-02T08:51:21+02:00</time>
      </trkpt>
      <trkpt lat="45.92561" lon="6.29289">
        <ele>1825</ele>
        <time>2016-10-02T08:51:25+02:00</time>
      </trkpt>
      <trkpt lat="45.92561" lon="6.29281">
        <ele>1825</ele>
        <time>2016-10-02T08:51:30+02:00</time>
      </trkpt>
      <trkpt lat="45.9256" lon="6.29272">
        <ele>1827</ele>
        <time>2016-10-02T08:51:35+02:00</time>
      </trkpt>
      <trkpt lat="45.92555" lon="6.29271">
        <ele>1829</ele>
        <time>2016-10-02T08:51:39+02:00</time>
      </trkpt>
      <trkpt lat="45.92553" lon="6.29266">
        <ele>1830</ele>
        <time>2016-10-02T08:51:43+02:00</time>
      </trkpt>
      <trkpt lat="45.92551" lon="6.29259">
        <ele>1832</ele>
        <time>2016-10-02T08:51:47+02:00</time>
      </trkpt>
      <trkpt lat="45.92548" lon="6.29252">
        <ele>1834</ele>
        <time>2016-10-02T08:51:52+02:00</time>
      </trkpt>
      <trkpt lat="45.92547" lon="6.29247">
        <ele>1835</ele>
        <time>2016-10-02T08:51:56+02:00</time>
      </trkpt>
      <trkpt lat="45.92546" lon="6.29243">
        <ele>1834</ele>
        <time>2016-10-02T08:51:59+02:00</time>
      </trkpt>
      <trkpt lat="45.92543" lon="6.29237">
        <ele>1835</ele>
        <time>2016-10-02T08:52:03+02:00</time>
      </trkpt>
      <trkpt lat="45.92541" lon="6.29231">
        <ele>1836</ele>
        <time>2016-10-02T08:52:07+02:00</time>
      </trkpt>
      <trkpt lat="45.92539" lon="6.29226">
        <ele>1836</ele>
        <time>2016-10-02T08:52:10+02:00</time>
      </trkpt>
      <trkpt lat="45.92537" lon="6.2922">
        <ele>1837</ele>
        <time>2016-10-02T08:52:15+02:00</time>
      </trkpt>
      <trkpt lat="45.92536" lon="6.29214">
        <ele>1837</ele>
        <time>2016-10-02T08:52:19+02:00</time>
      </trkpt>
      <trkpt lat="45.92534" lon="6.29208">
        <ele>1838</ele>
        <time>2016-10-02T08:52:22+02:00</time>
      </trkpt>
      <trkpt lat="45.92533" lon="6.29203">
        <ele>1838</ele>
        <time>2016-10-02T08:52:26+02:00</time>
      </trkpt>
      <trkpt lat="45.92534" lon="6.29194">
        <ele>1837</ele>
        <time>2016-10-02T08:52:31+02:00</time>
      </trkpt>
      <trkpt lat="45.92533" lon="6.29187">
        <ele>1837</ele>
        <time>2016-10-02T08:52:36+02:00</time>
      </trkpt>
      <trkpt lat="45.92531" lon="6.29181">
        <ele>1837</ele>
        <time>2016-10-02T08:52:40+02:00</time>
      </trkpt>
      <trkpt lat="45.92531" lon="6.29174">
        <ele>1837</ele>
        <time>2016-10-02T08:52:43+02:00</time>
      </trkpt>
      <trkpt lat="45.92529" lon="6.29172">
        <ele>1838</ele>
        <time>2016-10-02T08:52:45+02:00</time>
      </trkpt>
      <trkpt lat="45.92527" lon="6.29167">
        <ele>1839</ele>
        <time>2016-10-02T08:52:49+02:00</time>
      </trkpt>
      <trkpt lat="45.92525" lon="6.29164">
        <ele>1838</ele>
        <time>2016-10-02T08:52:51+02:00</time>
      </trkpt>
      <trkpt lat="45.92523" lon="6.29159">
        <ele>1837</ele>
        <time>2016-10-02T08:52:54+02:00</time>
      </trkpt>
      <trkpt lat="45.9252" lon="6.29154">
        <ele>1836</ele>
        <time>2016-10-02T08:52:58+02:00</time>
      </trkpt>
      <trkpt lat="45.92519" lon="6.2915">
        <ele>1835</ele>
        <time>2016-10-02T08:53:00+02:00</time>
      </trkpt>
      <trkpt lat="45.92516" lon="6.29146">
        <ele>1835</ele>
        <time>2016-10-02T08:53:04+02:00</time>
      </trkpt>
      <trkpt lat="45.92513" lon="6.29142">
        <ele>1834</ele>
        <time>2016-10-02T08:53:07+02:00</time>
      </trkpt>
      <trkpt lat="45.92508" lon="6.29141">
        <ele>1836</ele>
        <time>2016-10-02T08:53:11+02:00</time>
      </trkpt>
      <trkpt lat="45.92503" lon="6.2914">
        <ele>1838</ele>
        <time>2016-10-02T08:53:15+02:00</time>
      </trkpt>
      <trkpt lat="45.925" lon="6.29139">
        <ele>1839</ele>
        <time>2016-10-02T08:53:17+02:00</time>
      </trkpt>
      <trkpt lat="45.92493" lon="6.29141">
        <ele>1840</ele>
        <time>2016-10-02T08:53:23+02:00</time>
      </trkpt>
      <trkpt lat="45.92488" lon="6.29143">
        <ele>1840</ele>
        <time>2016-10-02T08:53:27+02:00</time>
      </trkpt>
      <trkpt lat="45.92484" lon="6.29145">
        <ele>1840</ele>
        <time>2016-10-02T08:53:31+02:00</time>
      </trkpt>
      <trkpt lat="45.9248" lon="6.29145">
        <ele>1840</ele>
        <time>2016-10-02T08:53:34+02:00</time>
      </trkpt>
      <trkpt lat="45.92476" lon="6.29143">
        <ele>1839</ele>
        <time>2016-10-02T08:53:37+02:00</time>
      </trkpt>
      <trkpt lat="45.92473" lon="6.29141">
        <ele>1837</ele>
        <time>2016-10-02T08:53:41+02:00</time>
      </trkpt>
      <trkpt lat="45.92469" lon="6.2914">
        <ele>1836</ele>
        <time>2016-10-02T08:53:44+02:00</time>
      </trkpt>
      <trkpt lat="45.92465" lon="6.29137">
        <ele>1835</ele>
        <time>2016-10-02T08:53:47+02:00</time>
      </trkpt>
      <trkpt lat="45.92461" lon="6.29134">
        <ele>1833</ele>
        <time>2016-10-02T08:53:52+02:00</time>
      </trkpt>
      <trkpt lat="45.92454" lon="6.29132">
        <ele>1832</ele>
        <time>2016-10-02T08:53:58+02:00</time>
      </trkpt>
      <trkpt lat="45.92448" lon="6.29134">
        <ele>1832</ele>
        <time>2016-10-02T08:54:03+02:00</time>
      </trkpt>
      <trkpt lat="45.92443" lon="6.29134">
        <ele>1832</ele>
        <time>2016-10-02T08:54:08+02:00</time>
      </trkpt>
      <trkpt lat="45.92439" lon="6.2913">
        <ele>1830</ele>
        <time>2016-10-02T08:54:12+02:00</time>
      </trkpt>
      <trkpt lat="45.92435" lon="6.29123">
        <ele>1828</ele>
        <time>2016-10-02T08:54:17+02:00</time>
      </trkpt>
      <trkpt lat="45.92432" lon="6.2912">
        <ele>1827</ele>
        <time>2016-10-02T08:54:21+02:00</time>
      </trkpt>
      <trkpt lat="45.92428" lon="6.29121">
        <ele>1827</ele>
        <time>2016-10-02T08:54:24+02:00</time>
      </trkpt>
      <trkpt lat="45.92424" lon="6.2912">
        <ele>1827</ele>
        <time>2016-10-02T08:54:27+02:00</time>
      </trkpt>
      <trkpt lat="45.9242" lon="6.29118">
        <ele>1826</ele>
        <time>2016-10-02T08:54:31+02:00</time>
      </trkpt>
      <trkpt lat="45.92417" lon="6.29115">
        <ele>1825</ele>
        <time>2016-10-02T08:54:34+02:00</time>
      </trkpt>
      <trkpt lat="45.92414" lon="6.29111">
        <ele>1824</ele>
        <time>2016-10-02T08:54:37+02:00</time>
      </trkpt>
      <trkpt lat="45.9241" lon="6.29108">
        <ele>1823</ele>
        <time>2016-10-02T08:54:40+02:00</time>
      </trkpt>
      <trkpt lat="45.92406" lon="6.29109">
        <ele>1823</ele>
        <time>2016-10-02T08:54:44+02:00</time>
      </trkpt>
      <trkpt lat="45.92404" lon="6.29106">
        <ele>1822</ele>
        <time>2016-10-02T08:54:46+02:00</time>
      </trkpt>
      <trkpt lat="45.924" lon="6.29104">
        <ele>1822</ele>
        <time>2016-10-02T08:54:49+02:00</time>
      </trkpt>
      <trkpt lat="45.92398" lon="6.29106">
        <ele>1822</ele>
        <time>2016-10-02T08:54:52+02:00</time>
      </trkpt>
      <trkpt lat="45.92394" lon="6.29104">
        <ele>1822</ele>
        <time>2016-10-02T08:54:55+02:00</time>
      </trkpt>
      <trkpt lat="45.92392" lon="6.29102">
        <ele>1821</ele>
        <time>2016-10-02T08:54:57+02:00</time>
      </trkpt>
      <trkpt lat="45.9239" lon="6.29101">
        <ele>1821</ele>
        <time>2016-10-02T08:54:59+02:00</time>
      </trkpt>
      <trkpt lat="45.92387" lon="6.29097">
        <ele>1820</ele>
        <time>2016-10-02T08:55:02+02:00</time>
      </trkpt>
      <trkpt lat="45.92384" lon="6.29092">
        <ele>1820</ele>
        <time>2016-10-02T08:55:06+02:00</time>
      </trkpt>
      <trkpt lat="45.92383" lon="6.29089">
        <ele>1819</ele>
        <time>2016-10-02T08:55:08+02:00</time>
      </trkpt>
      <trkpt lat="45.92379" lon="6.29084">
        <ele>1819</ele>
        <time>2016-10-02T08:55:12+02:00</time>
      </trkpt>
      <trkpt lat="45.92376" lon="6.2908">
        <ele>1818</ele>
        <time>2016-10-02T08:55:15+02:00</time>
      </trkpt>
      <trkpt lat="45.92373" lon="6.29075">
        <ele>1817</ele>
        <time>2016-10-02T08:55:19+02:00</time>
      </trkpt>
      <trkpt lat="45.9237" lon="6.2907">
        <ele>1816</ele>
        <time>2016-10-02T08:55:23+02:00</time>
      </trkpt>
      <trkpt lat="45.92367" lon="6.29067">
        <ele>1816</ele>
        <time>2016-10-02T08:55:26+02:00</time>
      </trkpt>
      <trkpt lat="45.92365" lon="6.29064">
        <ele>1816</ele>
        <time>2016-10-02T08:55:28+02:00</time>
      </trkpt>
      <trkpt lat="45.92361" lon="6.29059">
        <ele>1815</ele>
        <time>2016-10-02T08:55:33+02:00</time>
      </trkpt>
      <trkpt lat="45.92357" lon="6.29054">
        <ele>1814</ele>
        <time>2016-10-02T08:55:37+02:00</time>
      </trkpt>
      <trkpt lat="45.92355" lon="6.2905">
        <ele>1814</ele>
        <time>2016-10-02T08:55:40+02:00</time>
      </trkpt>
      <trkpt lat="45.92351" lon="6.29047">
        <ele>1814</ele>
        <time>2016-10-02T08:55:43+02:00</time>
      </trkpt>
      <trkpt lat="45.92348" lon="6.29043">
        <ele>1814</ele>
        <time>2016-10-02T08:55:46+02:00</time>
      </trkpt>
      <trkpt lat="45.92345" lon="6.29039">
        <ele>1814</ele>
        <time>2016-10-02T08:55:49+02:00</time>
      </trkpt>
      <trkpt lat="45.92343" lon="6.29035">
        <ele>1813</ele>
        <time>2016-10-02T08:55:53+02:00</time>
      </trkpt>
      <trkpt lat="45.92341" lon="6.2903">
        <ele>1813</ele>
        <time>2016-10-02T08:55:56+02:00</time>
      </trkpt>
      <trkpt lat="45.9234" lon="6.29024">
        <ele>1812</ele>
        <time>2016-10-02T08:55:59+02:00</time>
      </trkpt>
      <trkpt lat="45.92339" lon="6.29017">
        <ele>1812</ele>
        <time>2016-10-02T08:56:03+02:00</time>
      </trkpt>
      <trkpt lat="45.92339" lon="6.29014">
        <ele>1811</ele>
        <time>2016-10-02T08:56:05+02:00</time>
      </trkpt>
      <trkpt lat="45.92338" lon="6.29007">
        <ele>1811</ele>
        <time>2016-10-02T08:56:09+02:00</time>
      </trkpt>
      <trkpt lat="45.92337" lon="6.29004">
        <ele>1811</ele>
        <time>2016-10-02T08:56:11+02:00</time>
      </trkpt>
      <trkpt lat="45.92334" lon="6.29001">
        <ele>1811</ele>
        <time>2016-10-02T08:56:14+02:00</time>
      </trkpt>
      <trkpt lat="45.92331" lon="6.28996">
        <ele>1811</ele>
        <time>2016-10-02T08:56:17+02:00</time>
      </trkpt>
      <trkpt lat="45.92328" lon="6.28992">
        <ele>1811</ele>
        <time>2016-10-02T08:56:21+02:00</time>
      </trkpt>
      <trkpt lat="45.92326" lon="6.28987">
        <ele>1811</ele>
        <time>2016-10-02T08:56:24+02:00</time>
      </trkpt>
      <trkpt lat="45.92324" lon="6.28984">
        <ele>1812</ele>
        <time>2016-10-02T08:56:26+02:00</time>
      </trkpt>
      <trkpt lat="45.92321" lon="6.2898">
        <ele>1812</ele>
        <time>2016-10-02T08:56:30+02:00</time>
      </trkpt>
      <trkpt lat="45.9232" lon="6.28975">
        <ele>1812</ele>
        <time>2016-10-02T08:56:33+02:00</time>
      </trkpt>
      <trkpt lat="45.92319" lon="6.28971">
        <ele>1812</ele>
        <time>2016-10-02T08:56:35+02:00</time>
      </trkpt>
      <trkpt lat="45.92317" lon="6.28966">
        <ele>1812</ele>
        <time>2016-10-02T08:56:39+02:00</time>
      </trkpt>
      <trkpt lat="45.92315" lon="6.28961">
        <ele>1812</ele>
        <time>2016-10-02T08:56:42+02:00</time>
      </trkpt>
      <trkpt lat="45.92313" lon="6.28955">
        <ele>1812</ele>
        <time>2016-10-02T08:56:46+02:00</time>
      </trkpt>
      <trkpt lat="45.92312" lon="6.28949">
        <ele>1812</ele>
        <time>2016-10-02T08:56:49+02:00</time>
      </trkpt>
      <trkpt lat="45.92311" lon="6.28943">
        <ele>1812</ele>
        <time>2016-10-02T08:56:52+02:00</time>
      </trkpt>
      <trkpt lat="45.9231" lon="6.2894">
        <ele>1812</ele>
        <time>2016-10-02T08:56:54+02:00</time>
      </trkpt>
      <trkpt lat="45.92308" lon="6.28934">
        <ele>1813</ele>
        <time>2016-10-02T08:56:58+02:00</time>
      </trkpt>
      <trkpt lat="45.92306" lon="6.28929">
        <ele>1813</ele>
        <time>2016-10-02T08:57:01+02:00</time>
      </trkpt>
      <trkpt lat="45.92305" lon="6.28925">
        <ele>1813</ele>
        <time>2016-10-02T08:57:03+02:00</time>
      </trkpt>
      <trkpt lat="45.92303" lon="6.2892">
        <ele>1813</ele>
        <time>2016-10-02T08:57:07+02:00</time>
      </trkpt>
      <trkpt lat="45.92301" lon="6.28915">
        <ele>1814</ele>
        <time>2016-10-02T08:57:10+02:00</time>
      </trkpt>
      <trkpt lat="45.92298" lon="6.28911">
        <ele>1815</ele>
        <time>2016-10-02T08:57:14+02:00</time>
      </trkpt>
      <trkpt lat="45.92297" lon="6.28907">
        <ele>1815</ele>
        <time>2016-10-02T08:57:16+02:00</time>
      </trkpt>
      <trkpt lat="45.92296" lon="6.28903">
        <ele>1815</ele>
        <time>2016-10-02T08:57:19+02:00</time>
      </trkpt>
      <trkpt lat="45.92295" lon="6.28898">
        <ele>1815</ele>
        <time>2016-10-02T08:57:22+02:00</time>
      </trkpt>
      <trkpt lat="45.92293" lon="6.28894">
        <ele>1815</ele>
        <time>2016-10-02T08:57:24+02:00</time>
      </trkpt>
      <trkpt lat="45.92293" lon="6.28891">
        <ele>1815</ele>
        <time>2016-10-02T08:57:26+02:00</time>
      </trkpt>
      <trkpt lat="45.92293" lon="6.28885">
        <ele>1814</ele>
        <time>2016-10-02T08:57:29+02:00</time>
      </trkpt>
      <trkpt lat="45.92292" lon="6.28881">
        <ele>1814</ele>
        <time>2016-10-02T08:57:32+02:00</time>
      </trkpt>
      <trkpt lat="45.92291" lon="6.28877">
        <ele>1814</ele>
        <time>2016-10-02T08:57:34+02:00</time>
      </trkpt>
      <trkpt lat="45.92289" lon="6.28871">
        <ele>1815</ele>
        <time>2016-10-02T08:57:38+02:00</time>
      </trkpt>
      <trkpt lat="45.92289" lon="6.28868">
        <ele>1814</ele>
        <time>2016-10-02T08:57:40+02:00</time>
      </trkpt>
      <trkpt lat="45.92289" lon="6.28861">
        <ele>1814</ele>
        <time>2016-10-02T08:57:44+02:00</time>
      </trkpt>
      <trkpt lat="45.92287" lon="6.28856">
        <ele>1814</ele>
        <time>2016-10-02T08:57:47+02:00</time>
      </trkpt>
      <trkpt lat="45.92285" lon="6.28854">
        <ele>1815</ele>
        <time>2016-10-02T08:57:49+02:00</time>
      </trkpt>
      <trkpt lat="45.92284" lon="6.28848">
        <ele>1815</ele>
        <time>2016-10-02T08:57:52+02:00</time>
      </trkpt>
      <trkpt lat="45.92283" lon="6.28842">
        <ele>1815</ele>
        <time>2016-10-02T08:57:56+02:00</time>
      </trkpt>
      <trkpt lat="45.92283" lon="6.28836">
        <ele>1814</ele>
        <time>2016-10-02T08:58:00+02:00</time>
      </trkpt>
      <trkpt lat="45.92283" lon="6.2883">
        <ele>1813</ele>
        <time>2016-10-02T08:58:03+02:00</time>
      </trkpt>
      <trkpt lat="45.92283" lon="6.28823">
        <ele>1812</ele>
        <time>2016-10-02T08:58:07+02:00</time>
      </trkpt>
      <trkpt lat="45.92283" lon="6.28817">
        <ele>1812</ele>
        <time>2016-10-02T08:58:10+02:00</time>
      </trkpt>
      <trkpt lat="45.92282" lon="6.2881">
        <ele>1811</ele>
        <time>2016-10-02T08:58:14+02:00</time>
      </trkpt>
      <trkpt lat="45.92282" lon="6.28804">
        <ele>1810</ele>
        <time>2016-10-02T08:58:17+02:00</time>
      </trkpt>
      <trkpt lat="45.92282" lon="6.28799">
        <ele>1810</ele>
        <time>2016-10-02T08:58:20+02:00</time>
      </trkpt>
      <trkpt lat="45.92282" lon="6.28792">
        <ele>1809</ele>
        <time>2016-10-02T08:58:24+02:00</time>
      </trkpt>
      <trkpt lat="45.92282" lon="6.28788">
        <ele>1808</ele>
        <time>2016-10-02T08:58:26+02:00</time>
      </trkpt>
      <trkpt lat="45.9228" lon="6.28781">
        <ele>1808</ele>
        <time>2016-10-02T08:58:31+02:00</time>
      </trkpt>
      <trkpt lat="45.9228" lon="6.28775">
        <ele>1807</ele>
        <time>2016-10-02T08:58:34+02:00</time>
      </trkpt>
      <trkpt lat="45.92281" lon="6.2877">
        <ele>1806</ele>
        <time>2016-10-02T08:58:38+02:00</time>
      </trkpt>
      <trkpt lat="45.9228" lon="6.28761">
        <ele>1805</ele>
        <time>2016-10-02T08:58:43+02:00</time>
      </trkpt>
      <trkpt lat="45.92283" lon="6.28754">
        <ele>1803</ele>
        <time>2016-10-02T08:58:48+02:00</time>
      </trkpt>
      <trkpt lat="45.92287" lon="6.28748">
        <ele>1801</ele>
        <time>2016-10-02T08:58:53+02:00</time>
      </trkpt>
      <trkpt lat="45.9229" lon="6.28748">
        <ele>1800</ele>
        <time>2016-10-02T08:58:55+02:00</time>
      </trkpt>
      <trkpt lat="45.92292" lon="6.28746">
        <ele>1799</ele>
        <time>2016-10-02T08:58:57+02:00</time>
      </trkpt>
      <trkpt lat="45.92294" lon="6.28743">
        <ele>1797</ele>
        <time>2016-10-02T08:59:00+02:00</time>
      </trkpt>
      <trkpt lat="45.92292" lon="6.28738">
        <ele>1797</ele>
        <time>2016-10-02T08:59:03+02:00</time>
      </trkpt>
      <trkpt lat="45.9229" lon="6.28733">
        <ele>1797</ele>
        <time>2016-10-02T08:59:07+02:00</time>
      </trkpt>
      <trkpt lat="45.9229" lon="6.28729">
        <ele>1795</ele>
        <time>2016-10-02T08:59:09+02:00</time>
      </trkpt>
      <trkpt lat="45.9229" lon="6.28726">
        <ele>1795</ele>
        <time>2016-10-02T08:59:11+02:00</time>
      </trkpt>
      <trkpt lat="45.92288" lon="6.2872">
        <ele>1794</ele>
        <time>2016-10-02T08:59:15+02:00</time>
      </trkpt>
      <trkpt lat="45.92289" lon="6.28714">
        <ele>1793</ele>
        <time>2016-10-02T08:59:18+02:00</time>
      </trkpt>
      <trkpt lat="45.92291" lon="6.28711">
        <ele>1792</ele>
        <time>2016-10-02T08:59:20+02:00</time>
      </trkpt>
      <trkpt lat="45.92291" lon="6.28706">
        <ele>1790</ele>
        <time>2016-10-02T08:59:23+02:00</time>
      </trkpt>
      <trkpt lat="45.9229" lon="6.287">
        <ele>1789</ele>
        <time>2016-10-02T08:59:27+02:00</time>
      </trkpt>
      <trkpt lat="45.9229" lon="6.28695">
        <ele>1788</ele>
        <time>2016-10-02T08:59:30+02:00</time>
      </trkpt>
      <trkpt lat="45.92293" lon="6.28695">
        <ele>1787</ele>
        <time>2016-10-02T08:59:32+02:00</time>
      </trkpt>
      <trkpt lat="45.92297" lon="6.28693">
        <ele>1785</ele>
        <time>2016-10-02T08:59:36+02:00</time>
      </trkpt>
      <trkpt lat="45.92299" lon="6.28693">
        <ele>1785</ele>
        <time>2016-10-02T08:59:38+02:00</time>
      </trkpt>
      <trkpt lat="45.92299" lon="6.28687">
        <ele>1784</ele>
        <time>2016-10-02T08:59:41+02:00</time>
      </trkpt>
      <trkpt lat="45.92303" lon="6.28682">
        <ele>1781</ele>
        <time>2016-10-02T08:59:47+02:00</time>
      </trkpt>
      <trkpt lat="45.92297" lon="6.28677">
        <ele>1782</ele>
        <time>2016-10-02T08:59:53+02:00</time>
      </trkpt>
      <trkpt lat="45.92294" lon="6.28676">
        <ele>1783</ele>
        <time>2016-10-02T08:59:57+02:00</time>
      </trkpt>
      <trkpt lat="45.92291" lon="6.28671">
        <ele>1782</ele>
        <time>2016-10-02T09:00:00+02:00</time>
      </trkpt>
      <trkpt lat="45.9229" lon="6.28668">
        <ele>1782</ele>
        <time>2016-10-02T09:00:02+02:00</time>
      </trkpt>
      <trkpt lat="45.92289" lon="6.28664">
        <ele>1782</ele>
        <time>2016-10-02T09:00:04+02:00</time>
      </trkpt>
      <trkpt lat="45.92288" lon="6.2866">
        <ele>1781</ele>
        <time>2016-10-02T09:00:07+02:00</time>
      </trkpt>
      <trkpt lat="45.92286" lon="6.28657">
        <ele>1781</ele>
        <time>2016-10-02T09:00:09+02:00</time>
      </trkpt>
      <trkpt lat="45.92284" lon="6.28654">
        <ele>1782</ele>
        <time>2016-10-02T09:00:11+02:00</time>
      </trkpt>
      <trkpt lat="45.92284" lon="6.28649">
        <ele>1781</ele>
        <time>2016-10-02T09:00:14+02:00</time>
      </trkpt>
      <trkpt lat="45.92283" lon="6.28647">
        <ele>1781</ele>
        <time>2016-10-02T09:00:16+02:00</time>
      </trkpt>
      <trkpt lat="45.92282" lon="6.2864">
        <ele>1780</ele>
        <time>2016-10-02T09:00:20+02:00</time>
      </trkpt>
      <trkpt lat="45.92281" lon="6.28637">
        <ele>1779</ele>
        <time>2016-10-02T09:00:22+02:00</time>
      </trkpt>
      <trkpt lat="45.92282" lon="6.28632">
        <ele>1778</ele>
        <time>2016-10-02T09:00:25+02:00</time>
      </trkpt>
      <trkpt lat="45.92281" lon="6.28627">
        <ele>1777</ele>
        <time>2016-10-02T09:00:27+02:00</time>
      </trkpt>
      <trkpt lat="45.9228" lon="6.2862">
        <ele>1776</ele>
        <time>2016-10-02T09:00:31+02:00</time>
      </trkpt>
      <trkpt lat="45.9228" lon="6.28615">
        <ele>1775</ele>
        <time>2016-10-02T09:00:35+02:00</time>
      </trkpt>
      <trkpt lat="45.92281" lon="6.28609">
        <ele>1774</ele>
        <time>2016-10-02T09:00:38+02:00</time>
      </trkpt>
      <trkpt lat="45.92284" lon="6.28606">
        <ele>1772</ele>
        <time>2016-10-02T09:00:41+02:00</time>
      </trkpt>
      <trkpt lat="45.92281" lon="6.28601">
        <ele>1772</ele>
        <time>2016-10-02T09:00:45+02:00</time>
      </trkpt>
      <trkpt lat="45.92279" lon="6.28595">
        <ele>1772</ele>
        <time>2016-10-02T09:00:48+02:00</time>
      </trkpt>
      <trkpt lat="45.92279" lon="6.28589">
        <ele>1771</ele>
        <time>2016-10-02T09:00:52+02:00</time>
      </trkpt>
      <trkpt lat="45.92277" lon="6.28584">
        <ele>1770</ele>
        <time>2016-10-02T09:00:55+02:00</time>
      </trkpt>
      <trkpt lat="45.92277" lon="6.2858">
        <ele>1770</ele>
        <time>2016-10-02T09:00:57+02:00</time>
      </trkpt>
      <trkpt lat="45.92275" lon="6.28574">
        <ele>1769</ele>
        <time>2016-10-02T09:01:01+02:00</time>
      </trkpt>
      <trkpt lat="45.92273" lon="6.28568">
        <ele>1769</ele>
        <time>2016-10-02T09:01:05+02:00</time>
      </trkpt>
      <trkpt lat="45.92272" lon="6.28564">
        <ele>1768</ele>
        <time>2016-10-02T09:01:07+02:00</time>
      </trkpt>
      <trkpt lat="45.92271" lon="6.28561">
        <ele>1768</ele>
        <time>2016-10-02T09:01:09+02:00</time>
      </trkpt>
      <trkpt lat="45.9227" lon="6.28558">
        <ele>1768</ele>
        <time>2016-10-02T09:01:11+02:00</time>
      </trkpt>
      <trkpt lat="45.92268" lon="6.28554">
        <ele>1768</ele>
        <time>2016-10-02T09:01:13+02:00</time>
      </trkpt>
      <trkpt lat="45.92267" lon="6.28552">
        <ele>1768</ele>
        <time>2016-10-02T09:01:15+02:00</time>
      </trkpt>
      <trkpt lat="45.92266" lon="6.28548">
        <ele>1767</ele>
        <time>2016-10-02T09:01:17+02:00</time>
      </trkpt>
      <trkpt lat="45.92265" lon="6.28545">
        <ele>1767</ele>
        <time>2016-10-02T09:01:19+02:00</time>
      </trkpt>
      <trkpt lat="45.92264" lon="6.28542">
        <ele>1767</ele>
        <time>2016-10-02T09:01:21+02:00</time>
      </trkpt>
      <trkpt lat="45.92262" lon="6.28537">
        <ele>1767</ele>
        <time>2016-10-02T09:01:25+02:00</time>
      </trkpt>
      <trkpt lat="45.92259" lon="6.28532">
        <ele>1767</ele>
        <time>2016-10-02T09:01:28+02:00</time>
      </trkpt>
      <trkpt lat="45.92257" lon="6.28527">
        <ele>1767</ele>
        <time>2016-10-02T09:01:32+02:00</time>
      </trkpt>
      <trkpt lat="45.92256" lon="6.28521">
        <ele>1766</ele>
        <time>2016-10-02T09:01:35+02:00</time>
      </trkpt>
      <trkpt lat="45.92256" lon="6.28518">
        <ele>1765</ele>
        <time>2016-10-02T09:01:37+02:00</time>
      </trkpt>
      <trkpt lat="45.92257" lon="6.28511">
        <ele>1764</ele>
        <time>2016-10-02T09:01:41+02:00</time>
      </trkpt>
      <trkpt lat="45.92257" lon="6.28506">
        <ele>1763</ele>
        <time>2016-10-02T09:01:44+02:00</time>
      </trkpt>
      <trkpt lat="45.92257" lon="6.28501">
        <ele>1762</ele>
        <time>2016-10-02T09:01:47+02:00</time>
      </trkpt>
      <trkpt lat="45.92258" lon="6.28497">
        <ele>1761</ele>
        <time>2016-10-02T09:01:49+02:00</time>
      </trkpt>
      <trkpt lat="45.92259" lon="6.28493">
        <ele>1760</ele>
        <time>2016-10-02T09:01:51+02:00</time>
      </trkpt>
      <trkpt lat="45.9226" lon="6.28488">
        <ele>1759</ele>
        <time>2016-10-02T09:01:55+02:00</time>
      </trkpt>
      <trkpt lat="45.9226" lon="6.28484">
        <ele>1758</ele>
        <time>2016-10-02T09:01:57+02:00</time>
      </trkpt>
      <trkpt lat="45.92259" lon="6.28481">
        <ele>1758</ele>
        <time>2016-10-02T09:01:59+02:00</time>
      </trkpt>
      <trkpt lat="45.92258" lon="6.28477">
        <ele>1758</ele>
        <time>2016-10-02T09:02:01+02:00</time>
      </trkpt>
      <trkpt lat="45.9226" lon="6.28475">
        <ele>1756</ele>
        <time>2016-10-02T09:02:03+02:00</time>
      </trkpt>
      <trkpt lat="45.92263" lon="6.28477">
        <ele>1756</ele>
        <time>2016-10-02T09:02:05+02:00</time>
      </trkpt>
      <trkpt lat="45.92266" lon="6.28479">
        <ele>1755</ele>
        <time>2016-10-02T09:02:08+02:00</time>
      </trkpt>
      <trkpt lat="45.92269" lon="6.28481">
        <ele>1755</ele>
        <time>2016-10-02T09:02:10+02:00</time>
      </trkpt>
      <trkpt lat="45.92271" lon="6.28478">
        <ele>1753</ele>
        <time>2016-10-02T09:02:12+02:00</time>
      </trkpt>
      <trkpt lat="45.92271" lon="6.28474">
        <ele>1753</ele>
        <time>2016-10-02T09:02:14+02:00</time>
      </trkpt>
      <trkpt lat="45.92271" lon="6.28471">
        <ele>1752</ele>
        <time>2016-10-02T09:02:16+02:00</time>
      </trkpt>
      <trkpt lat="45.92273" lon="6.28469">
        <ele>1751</ele>
        <time>2016-10-02T09:02:18+02:00</time>
      </trkpt>
      <trkpt lat="45.92276" lon="6.28471">
        <ele>1751</ele>
        <time>2016-10-02T09:02:21+02:00</time>
      </trkpt>
      <trkpt lat="45.9228" lon="6.28473">
        <ele>1750</ele>
        <time>2016-10-02T09:02:24+02:00</time>
      </trkpt>
      <trkpt lat="45.92283" lon="6.28476">
        <ele>1749</ele>
        <time>2016-10-02T09:02:28+02:00</time>
      </trkpt>
      <trkpt lat="45.92287" lon="6.28476">
        <ele>1748</ele>
        <time>2016-10-02T09:02:31+02:00</time>
      </trkpt>
      <trkpt lat="45.92291" lon="6.28476">
        <ele>1747</ele>
        <time>2016-10-02T09:02:34+02:00</time>
      </trkpt>
      <trkpt lat="45.92294" lon="6.28472">
        <ele>1745</ele>
        <time>2016-10-02T09:02:38+02:00</time>
      </trkpt>
      <trkpt lat="45.92296" lon="6.28469">
        <ele>1743</ele>
        <time>2016-10-02T09:02:41+02:00</time>
      </trkpt>
      <trkpt lat="45.92298" lon="6.28465">
        <ele>1742</ele>
        <time>2016-10-02T09:02:43+02:00</time>
      </trkpt>
      <trkpt lat="45.92298" lon="6.28461">
        <ele>1741</ele>
        <time>2016-10-02T09:02:46+02:00</time>
      </trkpt>
      <trkpt lat="45.92298" lon="6.28457">
        <ele>1740</ele>
        <time>2016-10-02T09:02:48+02:00</time>
      </trkpt>
      <trkpt lat="45.92297" lon="6.28451">
        <ele>1739</ele>
        <time>2016-10-02T09:02:51+02:00</time>
      </trkpt>
      <trkpt lat="45.92298" lon="6.28447">
        <ele>1738</ele>
        <time>2016-10-02T09:02:53+02:00</time>
      </trkpt>
      <trkpt lat="45.92298" lon="6.28444">
        <ele>1738</ele>
        <time>2016-10-02T09:02:55+02:00</time>
      </trkpt>
      <trkpt lat="45.92298" lon="6.2844">
        <ele>1737</ele>
        <time>2016-10-02T09:02:57+02:00</time>
      </trkpt>
      <trkpt lat="45.92298" lon="6.28436">
        <ele>1736</ele>
        <time>2016-10-02T09:03:00+02:00</time>
      </trkpt>
      <trkpt lat="45.92298" lon="6.28432">
        <ele>1735</ele>
        <time>2016-10-02T09:03:02+02:00</time>
      </trkpt>
      <trkpt lat="45.92298" lon="6.28429">
        <ele>1735</ele>
        <time>2016-10-02T09:03:04+02:00</time>
      </trkpt>
      <trkpt lat="45.92298" lon="6.28422">
        <ele>1733</ele>
        <time>2016-10-02T09:03:08+02:00</time>
      </trkpt>
      <trkpt lat="45.92298" lon="6.28418">
        <ele>1732</ele>
        <time>2016-10-02T09:03:10+02:00</time>
      </trkpt>
      <trkpt lat="45.923" lon="6.28415">
        <ele>1731</ele>
        <time>2016-10-02T09:03:12+02:00</time>
      </trkpt>
      <trkpt lat="45.92303" lon="6.28411">
        <ele>1729</ele>
        <time>2016-10-02T09:03:16+02:00</time>
      </trkpt>
      <trkpt lat="45.92306" lon="6.2841">
        <ele>1728</ele>
        <time>2016-10-02T09:03:19+02:00</time>
      </trkpt>
      <trkpt lat="45.92309" lon="6.2841">
        <ele>1727</ele>
        <time>2016-10-02T09:03:21+02:00</time>
      </trkpt>
      <trkpt lat="45.92313" lon="6.28406">
        <ele>1724</ele>
        <time>2016-10-02T09:03:25+02:00</time>
      </trkpt>
      <trkpt lat="45.92315" lon="6.28401">
        <ele>1723</ele>
        <time>2016-10-02T09:03:29+02:00</time>
      </trkpt>
      <trkpt lat="45.92317" lon="6.28394">
        <ele>1720</ele>
        <time>2016-10-02T09:03:33+02:00</time>
      </trkpt>
      <trkpt lat="45.92318" lon="6.28391">
        <ele>1719</ele>
        <time>2016-10-02T09:03:35+02:00</time>
      </trkpt>
      <trkpt lat="45.92316" lon="6.28386">
        <ele>1719</ele>
        <time>2016-10-02T09:03:38+02:00</time>
      </trkpt>
      <trkpt lat="45.92313" lon="6.28382">
        <ele>1720</ele>
        <time>2016-10-02T09:03:41+02:00</time>
      </trkpt>
      <trkpt lat="45.92309" lon="6.28378">
        <ele>1720</ele>
        <time>2016-10-02T09:03:45+02:00</time>
      </trkpt>
      <trkpt lat="45.92307" lon="6.28375">
        <ele>1721</ele>
        <time>2016-10-02T09:03:47+02:00</time>
      </trkpt>
      <trkpt lat="45.92305" lon="6.28372">
        <ele>1721</ele>
        <time>2016-10-02T09:03:50+02:00</time>
      </trkpt>
      <trkpt lat="45.92302" lon="6.2837">
        <ele>1721</ele>
        <time>2016-10-02T09:03:52+02:00</time>
      </trkpt>
      <trkpt lat="45.92302" lon="6.28366">
        <ele>1721</ele>
        <time>2016-10-02T09:03:55+02:00</time>
      </trkpt>
      <trkpt lat="45.92301" lon="6.28362">
        <ele>1720</ele>
        <time>2016-10-02T09:03:57+02:00</time>
      </trkpt>
      <trkpt lat="45.923" lon="6.28359">
        <ele>1720</ele>
        <time>2016-10-02T09:03:59+02:00</time>
      </trkpt>
      <trkpt lat="45.92299" lon="6.28355">
        <ele>1719</ele>
        <time>2016-10-02T09:04:01+02:00</time>
      </trkpt>
      <trkpt lat="45.92298" lon="6.28352">
        <ele>1719</ele>
        <time>2016-10-02T09:04:03+02:00</time>
      </trkpt>
      <trkpt lat="45.92297" lon="6.28349">
        <ele>1719</ele>
        <time>2016-10-02T09:04:05+02:00</time>
      </trkpt>
      <trkpt lat="45.92296" lon="6.28345">
        <ele>1719</ele>
        <time>2016-10-02T09:04:08+02:00</time>
      </trkpt>
      <trkpt lat="45.92294" lon="6.28342">
        <ele>1719</ele>
        <time>2016-10-02T09:04:10+02:00</time>
      </trkpt>
      <trkpt lat="45.92291" lon="6.28338">
        <ele>1719</ele>
        <time>2016-10-02T09:04:14+02:00</time>
      </trkpt>
      <trkpt lat="45.92289" lon="6.28332">
        <ele>1719</ele>
        <time>2016-10-02T09:04:17+02:00</time>
      </trkpt>
      <trkpt lat="45.92287" lon="6.28329">
        <ele>1719</ele>
        <time>2016-10-02T09:04:19+02:00</time>
      </trkpt>
      <trkpt lat="45.92285" lon="6.28323">
        <ele>1718</ele>
        <time>2016-10-02T09:04:23+02:00</time>
      </trkpt>
      <trkpt lat="45.92284" lon="6.28317">
        <ele>1717</ele>
        <time>2016-10-02T09:04:27+02:00</time>
      </trkpt>
      <trkpt lat="45.92283" lon="6.28314">
        <ele>1717</ele>
        <time>2016-10-02T09:04:29+02:00</time>
      </trkpt>
      <trkpt lat="45.92282" lon="6.28309">
        <ele>1716</ele>
        <time>2016-10-02T09:04:31+02:00</time>
      </trkpt>
      <trkpt lat="45.92283" lon="6.28303">
        <ele>1715</ele>
        <time>2016-10-02T09:04:35+02:00</time>
      </trkpt>
      <trkpt lat="45.92285" lon="6.283">
        <ele>1714</ele>
        <time>2016-10-02T09:04:37+02:00</time>
      </trkpt>
      <trkpt lat="45.92286" lon="6.28297">
        <ele>1712</ele>
        <time>2016-10-02T09:04:40+02:00</time>
      </trkpt>
      <trkpt lat="45.92288" lon="6.28294">
        <ele>1711</ele>
        <time>2016-10-02T09:04:42+02:00</time>
      </trkpt>
      <trkpt lat="45.92288" lon="6.2829">
        <ele>1710</ele>
        <time>2016-10-02T09:04:44+02:00</time>
      </trkpt>
      <trkpt lat="45.92289" lon="6.28287">
        <ele>1709</ele>
        <time>2016-10-02T09:04:46+02:00</time>
      </trkpt>
      <trkpt lat="45.92289" lon="6.2828">
        <ele>1708</ele>
        <time>2016-10-02T09:04:50+02:00</time>
      </trkpt>
      <trkpt lat="45.92288" lon="6.28274">
        <ele>1707</ele>
        <time>2016-10-02T09:04:53+02:00</time>
      </trkpt>
      <trkpt lat="45.92287" lon="6.28269">
        <ele>1706</ele>
        <time>2016-10-02T09:04:57+02:00</time>
      </trkpt>
      <trkpt lat="45.92286" lon="6.28266">
        <ele>1706</ele>
        <time>2016-10-02T09:04:59+02:00</time>
      </trkpt>
      <trkpt lat="45.92288" lon="6.28262">
        <ele>1704</ele>
        <time>2016-10-02T09:05:02+02:00</time>
      </trkpt>
      <trkpt lat="45.92289" lon="6.28258">
        <ele>1703</ele>
        <time>2016-10-02T09:05:05+02:00</time>
      </trkpt>
      <trkpt lat="45.92288" lon="6.28254">
        <ele>1702</ele>
        <time>2016-10-02T09:05:06+02:00</time>
      </trkpt>
      <trkpt lat="45.92289" lon="6.28248">
        <ele>1700</ele>
        <time>2016-10-02T09:05:10+02:00</time>
      </trkpt>
      <trkpt lat="45.92291" lon="6.28241">
        <ele>1698</ele>
        <time>2016-10-02T09:05:14+02:00</time>
      </trkpt>
      <trkpt lat="45.92293" lon="6.28235">
        <ele>1696</ele>
        <time>2016-10-02T09:05:18+02:00</time>
      </trkpt>
      <trkpt lat="45.92294" lon="6.2823">
        <ele>1695</ele>
        <time>2016-10-02T09:05:21+02:00</time>
      </trkpt>
      <trkpt lat="45.92293" lon="6.28224">
        <ele>1693</ele>
        <time>2016-10-02T09:05:25+02:00</time>
      </trkpt>
      <trkpt lat="45.92293" lon="6.2822">
        <ele>1692</ele>
        <time>2016-10-02T09:05:27+02:00</time>
      </trkpt>
      <trkpt lat="45.92294" lon="6.28216">
        <ele>1691</ele>
        <time>2016-10-02T09:05:29+02:00</time>
      </trkpt>
      <trkpt lat="45.92295" lon="6.28212">
        <ele>1690</ele>
        <time>2016-10-02T09:05:31+02:00</time>
      </trkpt>
      <trkpt lat="45.92296" lon="6.28208">
        <ele>1689</ele>
        <time>2016-10-02T09:05:34+02:00</time>
      </trkpt>
      <trkpt lat="45.92295" lon="6.28203">
        <ele>1688</ele>
        <time>2016-10-02T09:05:37+02:00</time>
      </trkpt>
      <trkpt lat="45.92294" lon="6.28198">
        <ele>1687</ele>
        <time>2016-10-02T09:05:40+02:00</time>
      </trkpt>
      <trkpt lat="45.92293" lon="6.28194">
        <ele>1687</ele>
        <time>2016-10-02T09:05:43+02:00</time>
      </trkpt>
      <trkpt lat="45.92292" lon="6.28188">
        <ele>1686</ele>
        <time>2016-10-02T09:05:46+02:00</time>
      </trkpt>
      <trkpt lat="45.92292" lon="6.28184">
        <ele>1685</ele>
        <time>2016-10-02T09:05:48+02:00</time>
      </trkpt>
      <trkpt lat="45.92291" lon="6.28179">
        <ele>1684</ele>
        <time>2016-10-02T09:05:51+02:00</time>
      </trkpt>
      <trkpt lat="45.92291" lon="6.28173">
        <ele>1683</ele>
        <time>2016-10-02T09:05:55+02:00</time>
      </trkpt>
      <trkpt lat="45.92291" lon="6.28169">
        <ele>1682</ele>
        <time>2016-10-02T09:05:57+02:00</time>
      </trkpt>
      <trkpt lat="45.9229" lon="6.28163">
        <ele>1681</ele>
        <time>2016-10-02T09:06:00+02:00</time>
      </trkpt>
      <trkpt lat="45.92288" lon="6.28157">
        <ele>1681</ele>
        <time>2016-10-02T09:06:04+02:00</time>
      </trkpt>
      <trkpt lat="45.92285" lon="6.28152">
        <ele>1681</ele>
        <time>2016-10-02T09:06:08+02:00</time>
      </trkpt>
      <trkpt lat="45.92282" lon="6.28148">
        <ele>1681</ele>
        <time>2016-10-02T09:06:11+02:00</time>
      </trkpt>
      <trkpt lat="45.9228" lon="6.28143">
        <ele>1681</ele>
        <time>2016-10-02T09:06:15+02:00</time>
      </trkpt>
      <trkpt lat="45.92279" lon="6.2814">
        <ele>1681</ele>
        <time>2016-10-02T09:06:17+02:00</time>
      </trkpt>
      <trkpt lat="45.92278" lon="6.28136">
        <ele>1680</ele>
        <time>2016-10-02T09:06:19+02:00</time>
      </trkpt>
      <trkpt lat="45.92279" lon="6.28131">
        <ele>1679</ele>
        <time>2016-10-02T09:06:22+02:00</time>
      </trkpt>
      <trkpt lat="45.92281" lon="6.28126">
        <ele>1677</ele>
        <time>2016-10-02T09:06:25+02:00</time>
      </trkpt>
      <trkpt lat="45.92281" lon="6.28122">
        <ele>1676</ele>
        <time>2016-10-02T09:06:27+02:00</time>
      </trkpt>
      <trkpt lat="45.92279" lon="6.28117">
        <ele>1676</ele>
        <time>2016-10-02T09:06:31+02:00</time>
      </trkpt>
      <trkpt lat="45.9228" lon="6.28114">
        <ele>1674</ele>
        <time>2016-10-02T09:06:33+02:00</time>
      </trkpt>
      <trkpt lat="45.92279" lon="6.2811">
        <ele>1674</ele>
        <time>2016-10-02T09:06:35+02:00</time>
      </trkpt>
      <trkpt lat="45.92277" lon="6.28105">
        <ele>1674</ele>
        <time>2016-10-02T09:06:38+02:00</time>
      </trkpt>
      <trkpt lat="45.92277" lon="6.28102">
        <ele>1673</ele>
        <time>2016-10-02T09:06:40+02:00</time>
      </trkpt>
      <trkpt lat="45.92278" lon="6.28096">
        <ele>1671</ele>
        <time>2016-10-02T09:06:44+02:00</time>
      </trkpt>
      <trkpt lat="45.92277" lon="6.2809">
        <ele>1670</ele>
        <time>2016-10-02T09:06:47+02:00</time>
      </trkpt>
      <trkpt lat="45.92277" lon="6.28086">
        <ele>1670</ele>
        <time>2016-10-02T09:06:50+02:00</time>
      </trkpt>
      <trkpt lat="45.92275" lon="6.28084">
        <ele>1670</ele>
        <time>2016-10-02T09:06:52+02:00</time>
      </trkpt>
      <trkpt lat="45.92274" lon="6.2808">
        <ele>1670</ele>
        <time>2016-10-02T09:06:54+02:00</time>
      </trkpt>
      <trkpt lat="45.92273" lon="6.28074">
        <ele>1669</ele>
        <time>2016-10-02T09:06:58+02:00</time>
      </trkpt>
      <trkpt lat="45.92272" lon="6.28068">
        <ele>1668</ele>
        <time>2016-10-02T09:07:01+02:00</time>
      </trkpt>
      <trkpt lat="45.92272" lon="6.28064">
        <ele>1668</ele>
        <time>2016-10-02T09:07:03+02:00</time>
      </trkpt>
      <trkpt lat="45.92271" lon="6.28061">
        <ele>1668</ele>
        <time>2016-10-02T09:07:05+02:00</time>
      </trkpt>
      <trkpt lat="45.9227" lon="6.28057">
        <ele>1667</ele>
        <time>2016-10-02T09:07:08+02:00</time>
      </trkpt>
      <trkpt lat="45.92268" lon="6.2805">
        <ele>1667</ele>
        <time>2016-10-02T09:07:12+02:00</time>
      </trkpt>
      <trkpt lat="45.92268" lon="6.28044">
        <ele>1666</ele>
        <time>2016-10-02T09:07:15+02:00</time>
      </trkpt>
      <trkpt lat="45.92267" lon="6.28038">
        <ele>1666</ele>
        <time>2016-10-02T09:07:19+02:00</time>
      </trkpt>
      <trkpt lat="45.92264" lon="6.28033">
        <ele>1666</ele>
        <time>2016-10-02T09:07:22+02:00</time>
      </trkpt>
      <trkpt lat="45.92262" lon="6.28028">
        <ele>1666</ele>
        <time>2016-10-02T09:07:25+02:00</time>
      </trkpt>
      <trkpt lat="45.9226" lon="6.28023">
        <ele>1666</ele>
        <time>2016-10-02T09:07:29+02:00</time>
      </trkpt>
      <trkpt lat="45.9226" lon="6.28019">
        <ele>1665</ele>
        <time>2016-10-02T09:07:31+02:00</time>
      </trkpt>
      <trkpt lat="45.92259" lon="6.28013">
        <ele>1665</ele>
        <time>2016-10-02T09:07:35+02:00</time>
      </trkpt>
      <trkpt lat="45.92258" lon="6.2801">
        <ele>1664</ele>
        <time>2016-10-02T09:07:37+02:00</time>
      </trkpt>
      <trkpt lat="45.92258" lon="6.28007">
        <ele>1664</ele>
        <time>2016-10-02T09:07:39+02:00</time>
      </trkpt>
      <trkpt lat="45.92258" lon="6.28001">
        <ele>1663</ele>
        <time>2016-10-02T09:07:42+02:00</time>
      </trkpt>
      <trkpt lat="45.92257" lon="6.27996">
        <ele>1662</ele>
        <time>2016-10-02T09:07:45+02:00</time>
      </trkpt>
      <trkpt lat="45.92256" lon="6.27992">
        <ele>1662</ele>
        <time>2016-10-02T09:07:47+02:00</time>
      </trkpt>
      <trkpt lat="45.92255" lon="6.27986">
        <ele>1662</ele>
        <time>2016-10-02T09:07:51+02:00</time>
      </trkpt>
      <trkpt lat="45.92252" lon="6.27982">
        <ele>1663</ele>
        <time>2016-10-02T09:07:54+02:00</time>
      </trkpt>
      <trkpt lat="45.9225" lon="6.27977">
        <ele>1663</ele>
        <time>2016-10-02T09:07:57+02:00</time>
      </trkpt>
      <trkpt lat="45.92247" lon="6.27973">
        <ele>1663</ele>
        <time>2016-10-02T09:08:00+02:00</time>
      </trkpt>
      <trkpt lat="45.92246" lon="6.2797">
        <ele>1663</ele>
        <time>2016-10-02T09:08:03+02:00</time>
      </trkpt>
      <trkpt lat="45.92244" lon="6.27967">
        <ele>1663</ele>
        <time>2016-10-02T09:08:05+02:00</time>
      </trkpt>
      <trkpt lat="45.92243" lon="6.27961">
        <ele>1663</ele>
        <time>2016-10-02T09:08:08+02:00</time>
      </trkpt>
      <trkpt lat="45.92242" lon="6.27958">
        <ele>1663</ele>
        <time>2016-10-02T09:08:10+02:00</time>
      </trkpt>
      <trkpt lat="45.92241" lon="6.27955">
        <ele>1663</ele>
        <time>2016-10-02T09:08:12+02:00</time>
      </trkpt>
      <trkpt lat="45.9224" lon="6.27952">
        <ele>1663</ele>
        <time>2016-10-02T09:08:14+02:00</time>
      </trkpt>
      <trkpt lat="45.92239" lon="6.27946">
        <ele>1662</ele>
        <time>2016-10-02T09:08:17+02:00</time>
      </trkpt>
      <trkpt lat="45.92238" lon="6.2794">
        <ele>1662</ele>
        <time>2016-10-02T09:08:21+02:00</time>
      </trkpt>
      <trkpt lat="45.92237" lon="6.27936">
        <ele>1661</ele>
        <time>2016-10-02T09:08:23+02:00</time>
      </trkpt>
      <trkpt lat="45.92237" lon="6.2793">
        <ele>1661</ele>
        <time>2016-10-02T09:08:27+02:00</time>
      </trkpt>
      <trkpt lat="45.92236" lon="6.27926">
        <ele>1660</ele>
        <time>2016-10-02T09:08:29+02:00</time>
      </trkpt>
      <trkpt lat="45.92235" lon="6.27922">
        <ele>1660</ele>
        <time>2016-10-02T09:08:31+02:00</time>
      </trkpt>
      <trkpt lat="45.92234" lon="6.27919">
        <ele>1660</ele>
        <time>2016-10-02T09:08:33+02:00</time>
      </trkpt>
      <trkpt lat="45.9223" lon="6.27915">
        <ele>1661</ele>
        <time>2016-10-02T09:08:37+02:00</time>
      </trkpt>
      <trkpt lat="45.9223" lon="6.27912">
        <ele>1660</ele>
        <time>2016-10-02T09:08:39+02:00</time>
      </trkpt>
      <trkpt lat="45.92228" lon="6.27906">
        <ele>1660</ele>
        <time>2016-10-02T09:08:42+02:00</time>
      </trkpt>
      <trkpt lat="45.92227" lon="6.27901">
        <ele>1659</ele>
        <time>2016-10-02T09:08:46+02:00</time>
      </trkpt>
      <trkpt lat="45.92225" lon="6.27894">
        <ele>1658</ele>
        <time>2016-10-02T09:08:49+02:00</time>
      </trkpt>
      <trkpt lat="45.92224" lon="6.27889">
        <ele>1657</ele>
        <time>2016-10-02T09:08:53+02:00</time>
      </trkpt>
      <trkpt lat="45.92221" lon="6.27885">
        <ele>1657</ele>
        <time>2016-10-02T09:08:56+02:00</time>
      </trkpt>
      <trkpt lat="45.92218" lon="6.2788">
        <ele>1658</ele>
        <time>2016-10-02T09:08:59+02:00</time>
      </trkpt>
      <trkpt lat="45.92218" lon="6.27877">
        <ele>1657</ele>
        <time>2016-10-02T09:09:01+02:00</time>
      </trkpt>
      <trkpt lat="45.92218" lon="6.27873">
        <ele>1656</ele>
        <time>2016-10-02T09:09:03+02:00</time>
      </trkpt>
      <trkpt lat="45.92218" lon="6.2787">
        <ele>1656</ele>
        <time>2016-10-02T09:09:05+02:00</time>
      </trkpt>
      <trkpt lat="45.92216" lon="6.27864">
        <ele>1655</ele>
        <time>2016-10-02T09:09:09+02:00</time>
      </trkpt>
      <trkpt lat="45.92214" lon="6.27858">
        <ele>1655</ele>
        <time>2016-10-02T09:09:13+02:00</time>
      </trkpt>
      <trkpt lat="45.92212" lon="6.27852">
        <ele>1654</ele>
        <time>2016-10-02T09:09:16+02:00</time>
      </trkpt>
      <trkpt lat="45.92209" lon="6.27848">
        <ele>1655</ele>
        <time>2016-10-02T09:09:20+02:00</time>
      </trkpt>
      <trkpt lat="45.92207" lon="6.27845">
        <ele>1655</ele>
        <time>2016-10-02T09:09:21+02:00</time>
      </trkpt>
      <trkpt lat="45.92207" lon="6.27842">
        <ele>1654</ele>
        <time>2016-10-02T09:09:24+02:00</time>
      </trkpt>
      <trkpt lat="45.92206" lon="6.27836">
        <ele>1654</ele>
        <time>2016-10-02T09:09:27+02:00</time>
      </trkpt>
      <trkpt lat="45.92203" lon="6.27831">
        <ele>1654</ele>
        <time>2016-10-02T09:09:30+02:00</time>
      </trkpt>
      <trkpt lat="45.92201" lon="6.27826">
        <ele>1652</ele>
        <time>2016-10-02T09:09:34+02:00</time>
      </trkpt>
      <trkpt lat="45.92199" lon="6.2782">
        <ele>1651</ele>
        <time>2016-10-02T09:09:37+02:00</time>
      </trkpt>
      <trkpt lat="45.92197" lon="6.27816">
        <ele>1651</ele>
        <time>2016-10-02T09:09:41+02:00</time>
      </trkpt>
      <trkpt lat="45.92196" lon="6.27813">
        <ele>1650</ele>
        <time>2016-10-02T09:09:42+02:00</time>
      </trkpt>
      <trkpt lat="45.92195" lon="6.27807">
        <ele>1648</ele>
        <time>2016-10-02T09:09:45+02:00</time>
      </trkpt>
      <trkpt lat="45.92199" lon="6.27801">
        <ele>1644</ele>
        <time>2016-10-02T09:09:50+02:00</time>
      </trkpt>
      <trkpt lat="45.92201" lon="6.278">
        <ele>1642</ele>
        <time>2016-10-02T09:09:52+02:00</time>
      </trkpt>
      <trkpt lat="45.92205" lon="6.27796">
        <ele>1639</ele>
        <time>2016-10-02T09:09:56+02:00</time>
      </trkpt>
      <trkpt lat="45.92207" lon="6.27791">
        <ele>1636</ele>
        <time>2016-10-02T09:09:59+02:00</time>
      </trkpt>
      <trkpt lat="45.92207" lon="6.27789">
        <ele>1636</ele>
        <time>2016-10-02T09:10:03+02:00</time>
      </trkpt>
      <trkpt lat="45.92206" lon="6.27783">
        <ele>1634</ele>
        <time>2016-10-02T09:10:07+02:00</time>
      </trkpt>
      <trkpt lat="45.92206" lon="6.27774">
        <ele>1631</ele>
        <time>2016-10-02T09:10:12+02:00</time>
      </trkpt>
      <trkpt lat="45.92205" lon="6.27771">
        <ele>1630</ele>
        <time>2016-10-02T09:10:14+02:00</time>
      </trkpt>
      <trkpt lat="45.92208" lon="6.27766">
        <ele>1626</ele>
        <time>2016-10-02T09:10:18+02:00</time>
      </trkpt>
      <trkpt lat="45.92211" lon="6.27764">
        <ele>1624</ele>
        <time>2016-10-02T09:10:21+02:00</time>
      </trkpt>
      <trkpt lat="45.92213" lon="6.27759">
        <ele>1621</ele>
        <time>2016-10-02T09:10:24+02:00</time>
      </trkpt>
      <trkpt lat="45.92216" lon="6.27755">
        <ele>1618</ele>
        <time>2016-10-02T09:10:27+02:00</time>
      </trkpt>
      <trkpt lat="45.92219" lon="6.2775">
        <ele>1615</ele>
        <time>2016-10-02T09:10:31+02:00</time>
      </trkpt>
      <trkpt lat="45.92218" lon="6.27745">
        <ele>1614</ele>
        <time>2016-10-02T09:10:34+02:00</time>
      </trkpt>
      <trkpt lat="45.92215" lon="6.27741">
        <ele>1614</ele>
        <time>2016-10-02T09:10:38+02:00</time>
      </trkpt>
      <trkpt lat="45.92212" lon="6.27738">
        <ele>1614</ele>
        <time>2016-10-02T09:10:40+02:00</time>
      </trkpt>
      <trkpt lat="45.9221" lon="6.27736">
        <ele>1614</ele>
        <time>2016-10-02T09:10:42+02:00</time>
      </trkpt>
      <trkpt lat="45.92208" lon="6.27735">
        <ele>1615</ele>
        <time>2016-10-02T09:10:44+02:00</time>
      </trkpt>
      <trkpt lat="45.92206" lon="6.27733">
        <ele>1615</ele>
        <time>2016-10-02T09:10:46+02:00</time>
      </trkpt>
      <trkpt lat="45.92204" lon="6.27731">
        <ele>1616</ele>
        <time>2016-10-02T09:10:48+02:00</time>
      </trkpt>
      <trkpt lat="45.922" lon="6.27728">
        <ele>1617</ele>
        <time>2016-10-02T09:10:52+02:00</time>
      </trkpt>
      <trkpt lat="45.92196" lon="6.27725">
        <ele>1618</ele>
        <time>2016-10-02T09:10:56+02:00</time>
      </trkpt>
      <trkpt lat="45.92193" lon="6.27722">
        <ele>1618</ele>
        <time>2016-10-02T09:10:59+02:00</time>
      </trkpt>
      <trkpt lat="45.9219" lon="6.27718">
        <ele>1618</ele>
        <time>2016-10-02T09:11:02+02:00</time>
      </trkpt>
      <trkpt lat="45.92188" lon="6.27709">
        <ele>1617</ele>
        <time>2016-10-02T09:11:08+02:00</time>
      </trkpt>
      <trkpt lat="45.92186" lon="6.27704">
        <ele>1616</ele>
        <time>2016-10-02T09:11:12+02:00</time>
      </trkpt>
      <trkpt lat="45.92188" lon="6.27698">
        <ele>1613</ele>
        <time>2016-10-02T09:11:17+02:00</time>
      </trkpt>
      <trkpt lat="45.92185" lon="6.27693">
        <ele>1613</ele>
        <time>2016-10-02T09:11:21+02:00</time>
      </trkpt>
      <trkpt lat="45.92181" lon="6.27689">
        <ele>1613</ele>
        <time>2016-10-02T09:11:24+02:00</time>
      </trkpt>
      <trkpt lat="45.92177" lon="6.27686">
        <ele>1615</ele>
        <time>2016-10-02T09:11:28+02:00</time>
      </trkpt>
      <trkpt lat="45.92175" lon="6.27683">
        <ele>1615</ele>
        <time>2016-10-02T09:11:31+02:00</time>
      </trkpt>
      <trkpt lat="45.92172" lon="6.27676">
        <ele>1614</ele>
        <time>2016-10-02T09:11:35+02:00</time>
      </trkpt>
      <trkpt lat="45.9217" lon="6.27674">
        <ele>1615</ele>
        <time>2016-10-02T09:11:37+02:00</time>
      </trkpt>
      <trkpt lat="45.92167" lon="6.27671">
        <ele>1615</ele>
        <time>2016-10-02T09:11:41+02:00</time>
      </trkpt>
      <trkpt lat="45.92164" lon="6.27667">
        <ele>1615</ele>
        <time>2016-10-02T09:11:44+02:00</time>
      </trkpt>
      <trkpt lat="45.92154" lon="6.27663">
        <ele>1618</ele>
        <time>2016-10-02T09:11:52+02:00</time>
      </trkpt>
      <trkpt lat="45.92152" lon="6.27657">
        <ele>1616</ele>
        <time>2016-10-02T09:11:56+02:00</time>
      </trkpt>
      <trkpt lat="45.92144" lon="6.27649">
        <ele>1616</ele>
        <time>2016-10-02T09:12:05+02:00</time>
      </trkpt>
      <trkpt lat="45.92135" lon="6.27643">
        <ele>1617</ele>
        <time>2016-10-02T09:12:12+02:00</time>
      </trkpt>
      <trkpt lat="45.92127" lon="6.27637">
        <ele>1617</ele>
        <time>2016-10-02T09:12:20+02:00</time>
      </trkpt>
      <trkpt lat="45.92118" lon="6.27632">
        <ele>1618</ele>
        <time>2016-10-02T09:12:27+02:00</time>
      </trkpt>
      <trkpt lat="45.92111" lon="6.27623">
        <ele>1617</ele>
        <time>2016-10-02T09:12:35+02:00</time>
      </trkpt>
      <trkpt lat="45.92105" lon="6.27613">
        <ele>1615</ele>
        <time>2016-10-02T09:12:42+02:00</time>
      </trkpt>
      <trkpt lat="45.921" lon="6.27602">
        <ele>1612</ele>
        <time>2016-10-02T09:12:50+02:00</time>
      </trkpt>
      <trkpt lat="45.92094" lon="6.27592">
        <ele>1610</ele>
        <time>2016-10-02T09:12:58+02:00</time>
      </trkpt>
      <trkpt lat="45.92089" lon="6.2758">
        <ele>1606</ele>
        <time>2016-10-02T09:13:06+02:00</time>
      </trkpt>
      <trkpt lat="45.92081" lon="6.27573">
        <ele>1606</ele>
        <time>2016-10-02T09:13:13+02:00</time>
      </trkpt>
      <trkpt lat="45.92076" lon="6.27561">
        <ele>1603</ele>
        <time>2016-10-02T09:13:21+02:00</time>
      </trkpt>
      <trkpt lat="45.92067" lon="6.27558">
        <ele>1605</ele>
        <time>2016-10-02T09:13:28+02:00</time>
      </trkpt>
      <trkpt lat="45.9206" lon="6.27549">
        <ele>1604</ele>
        <time>2016-10-02T09:13:36+02:00</time>
      </trkpt>
      <trkpt lat="45.92051" lon="6.27543">
        <ele>1605</ele>
        <time>2016-10-02T09:13:44+02:00</time>
      </trkpt>
      <trkpt lat="45.92045" lon="6.27534">
        <ele>1604</ele>
        <time>2016-10-02T09:13:51+02:00</time>
      </trkpt>
      <trkpt lat="45.92036" lon="6.27529">
        <ele>1605</ele>
        <time>2016-10-02T09:13:59+02:00</time>
      </trkpt>
      <trkpt lat="45.92027" lon="6.27519">
        <ele>1604</ele>
        <time>2016-10-02T09:14:08+02:00</time>
      </trkpt>
      <trkpt lat="45.92018" lon="6.27515">
        <ele>1606</ele>
        <time>2016-10-02T09:14:15+02:00</time>
      </trkpt>
      <trkpt lat="45.92011" lon="6.27507">
        <ele>1605</ele>
        <time>2016-10-02T09:14:23+02:00</time>
      </trkpt>
      <trkpt lat="45.92009" lon="6.27494">
        <ele>1600</ele>
        <time>2016-10-02T09:14:31+02:00</time>
      </trkpt>
      <trkpt lat="45.92013" lon="6.27481">
        <ele>1595</ele>
        <time>2016-10-02T09:14:39+02:00</time>
      </trkpt>
      <trkpt lat="45.92015" lon="6.27468">
        <ele>1590</ele>
        <time>2016-10-02T09:14:47+02:00</time>
      </trkpt>
      <trkpt lat="45.92014" lon="6.27455">
        <ele>1586</ele>
        <time>2016-10-02T09:14:54+02:00</time>
      </trkpt>
      <trkpt lat="45.92011" lon="6.27442">
        <ele>1582</ele>
        <time>2016-10-02T09:15:03+02:00</time>
      </trkpt>
      <trkpt lat="45.92006" lon="6.27431">
        <ele>1580</ele>
        <time>2016-10-02T09:15:10+02:00</time>
      </trkpt>
      <trkpt lat="45.92" lon="6.2742">
        <ele>1578</ele>
        <time>2016-10-02T09:15:17+02:00</time>
      </trkpt>
      <trkpt lat="45.91993" lon="6.27412">
        <ele>1579</ele>
        <time>2016-10-02T09:15:25+02:00</time>
      </trkpt>
      <trkpt lat="45.91987" lon="6.274">
        <ele>1579</ele>
        <time>2016-10-02T09:15:33+02:00</time>
      </trkpt>
      <trkpt lat="45.91986" lon="6.27387">
        <ele>1576</ele>
        <time>2016-10-02T09:15:41+02:00</time>
      </trkpt>
      <trkpt lat="45.91988" lon="6.27374">
        <ele>1572</ele>
        <time>2016-10-02T09:15:48+02:00</time>
      </trkpt>
      <trkpt lat="45.91988" lon="6.2737">
        <ele>1571</ele>
        <time>2016-10-02T09:15:50+02:00</time>
      </trkpt>
      <trkpt lat="45.91987" lon="6.27366">
        <ele>1571</ele>
        <time>2016-10-02T09:15:53+02:00</time>
      </trkpt>
      <trkpt lat="45.91986" lon="6.27363">
        <ele>1571</ele>
        <time>2016-10-02T09:15:54+02:00</time>
      </trkpt>
      <trkpt lat="45.91983" lon="6.27359">
        <ele>1571</ele>
        <time>2016-10-02T09:15:58+02:00</time>
      </trkpt>
      <trkpt lat="45.91981" lon="6.27356">
        <ele>1571</ele>
        <time>2016-10-02T09:16:00+02:00</time>
      </trkpt>
      <trkpt lat="45.9198" lon="6.27353">
        <ele>1570</ele>
        <time>2016-10-02T09:16:02+02:00</time>
      </trkpt>
      <trkpt lat="45.91979" lon="6.27349">
        <ele>1570</ele>
        <time>2016-10-02T09:16:05+02:00</time>
      </trkpt>
      <trkpt lat="45.91975" lon="6.27345">
        <ele>1570</ele>
        <time>2016-10-02T09:16:09+02:00</time>
      </trkpt>
      <trkpt lat="45.91973" lon="6.27343">
        <ele>1570</ele>
        <time>2016-10-02T09:16:11+02:00</time>
      </trkpt>
      <trkpt lat="45.91968" lon="6.27331">
        <ele>1569</ele>
        <time>2016-10-02T09:16:18+02:00</time>
      </trkpt>
      <trkpt lat="45.9197" lon="6.27327">
        <ele>1568</ele>
        <time>2016-10-02T09:16:21+02:00</time>
      </trkpt>
      <trkpt lat="45.91972" lon="6.27314">
        <ele>1567</ele>
        <time>2016-10-02T09:16:28+02:00</time>
      </trkpt>
      <trkpt lat="45.91972" lon="6.27307">
        <ele>1566</ele>
        <time>2016-10-02T09:16:32+02:00</time>
      </trkpt>
      <trkpt lat="45.91973" lon="6.27304">
        <ele>1566</ele>
        <time>2016-10-02T09:16:34+02:00</time>
      </trkpt>
      <trkpt lat="45.91979" lon="6.273">
        <ele>1564</ele>
        <time>2016-10-02T09:16:40+02:00</time>
      </trkpt>
      <trkpt lat="45.9198" lon="6.27295">
        <ele>1564</ele>
        <time>2016-10-02T09:16:43+02:00</time>
      </trkpt>
      <trkpt lat="45.91983" lon="6.27281">
        <ele>1563</ele>
        <time>2016-10-02T09:16:52+02:00</time>
      </trkpt>
      <trkpt lat="45.91984" lon="6.27276">
        <ele>1562</ele>
        <time>2016-10-02T09:16:54+02:00</time>
      </trkpt>
      <trkpt lat="45.91987" lon="6.27273">
        <ele>1562</ele>
        <time>2016-10-02T09:16:57+02:00</time>
      </trkpt>
      <trkpt lat="45.91989" lon="6.27272">
        <ele>1561</ele>
        <time>2016-10-02T09:16:59+02:00</time>
      </trkpt>
      <trkpt lat="45.91991" lon="6.27267">
        <ele>1561</ele>
        <time>2016-10-02T09:17:03+02:00</time>
      </trkpt>
      <trkpt lat="45.92" lon="6.27272">
        <ele>1559</ele>
        <time>2016-10-02T09:17:11+02:00</time>
      </trkpt>
      <trkpt lat="45.92002" lon="6.27273">
        <ele>1559</ele>
        <time>2016-10-02T09:17:13+02:00</time>
      </trkpt>
      <trkpt lat="45.92004" lon="6.27274">
        <ele>1559</ele>
        <time>2016-10-02T09:17:15+02:00</time>
      </trkpt>
      <trkpt lat="45.92007" lon="6.27275">
        <ele>1559</ele>
        <time>2016-10-02T09:17:17+02:00</time>
      </trkpt>
      <trkpt lat="45.92009" lon="6.27276">
        <ele>1559</ele>
        <time>2016-10-02T09:17:19+02:00</time>
      </trkpt>
      <trkpt lat="45.92012" lon="6.27279">
        <ele>1558</ele>
        <time>2016-10-02T09:17:22+02:00</time>
      </trkpt>
      <trkpt lat="45.92015" lon="6.2728">
        <ele>1558</ele>
        <time>2016-10-02T09:17:25+02:00</time>
      </trkpt>
      <trkpt lat="45.92019" lon="6.27283">
        <ele>1558</ele>
        <time>2016-10-02T09:17:29+02:00</time>
      </trkpt>
      <trkpt lat="45.92021" lon="6.27285">
        <ele>1558</ele>
        <time>2016-10-02T09:17:31+02:00</time>
      </trkpt>
      <trkpt lat="45.92024" lon="6.27287">
        <ele>1558</ele>
        <time>2016-10-02T09:17:33+02:00</time>
      </trkpt>
      <trkpt lat="45.92026" lon="6.27289">
        <ele>1557</ele>
        <time>2016-10-02T09:17:35+02:00</time>
      </trkpt>
      <trkpt lat="45.92028" lon="6.27291">
        <ele>1557</ele>
        <time>2016-10-02T09:17:37+02:00</time>
      </trkpt>
      <trkpt lat="45.92031" lon="6.27295">
        <ele>1557</ele>
        <time>2016-10-02T09:17:41+02:00</time>
      </trkpt>
      <trkpt lat="45.92033" lon="6.27297">
        <ele>1556</ele>
        <time>2016-10-02T09:17:43+02:00</time>
      </trkpt>
      <trkpt lat="45.92036" lon="6.27298">
        <ele>1556</ele>
        <time>2016-10-02T09:17:45+02:00</time>
      </trkpt>
      <trkpt lat="45.92038" lon="6.27299">
        <ele>1556</ele>
        <time>2016-10-02T09:17:47+02:00</time>
      </trkpt>
      <trkpt lat="45.9204" lon="6.273">
        <ele>1555</ele>
        <time>2016-10-02T09:17:49+02:00</time>
      </trkpt>
      <trkpt lat="45.92042" lon="6.27301">
        <ele>1555</ele>
        <time>2016-10-02T09:17:51+02:00</time>
      </trkpt>
      <trkpt lat="45.92045" lon="6.27302">
        <ele>1555</ele>
        <time>2016-10-02T09:17:53+02:00</time>
      </trkpt>
      <trkpt lat="45.92049" lon="6.27303">
        <ele>1554</ele>
        <time>2016-10-02T09:17:56+02:00</time>
      </trkpt>
      <trkpt lat="45.92051" lon="6.27304">
        <ele>1554</ele>
        <time>2016-10-02T09:17:58+02:00</time>
      </trkpt>
      <trkpt lat="45.92053" lon="6.27305">
        <ele>1554</ele>
        <time>2016-10-02T09:18:00+02:00</time>
      </trkpt>
      <trkpt lat="45.92057" lon="6.27306">
        <ele>1553</ele>
        <time>2016-10-02T09:18:03+02:00</time>
      </trkpt>
      <trkpt lat="45.92061" lon="6.27308">
        <ele>1553</ele>
        <time>2016-10-02T09:18:06+02:00</time>
      </trkpt>
      <trkpt lat="45.92063" lon="6.27308">
        <ele>1552</ele>
        <time>2016-10-02T09:18:08+02:00</time>
      </trkpt>
      <trkpt lat="45.92067" lon="6.2731">
        <ele>1552</ele>
        <time>2016-10-02T09:18:12+02:00</time>
      </trkpt>
      <trkpt lat="45.92069" lon="6.27311">
        <ele>1551</ele>
        <time>2016-10-02T09:18:13+02:00</time>
      </trkpt>
      <trkpt lat="45.92072" lon="6.27314">
        <ele>1551</ele>
        <time>2016-10-02T09:18:17+02:00</time>
      </trkpt>
      <trkpt lat="45.92076" lon="6.27317">
        <ele>1550</ele>
        <time>2016-10-02T09:18:20+02:00</time>
      </trkpt>
      <trkpt lat="45.92078" lon="6.27319">
        <ele>1549</ele>
        <time>2016-10-02T09:18:22+02:00</time>
      </trkpt>
      <trkpt lat="45.92079" lon="6.27322">
        <ele>1549</ele>
        <time>2016-10-02T09:18:24+02:00</time>
      </trkpt>
      <trkpt lat="45.92082" lon="6.27323">
        <ele>1548</ele>
        <time>2016-10-02T09:18:26+02:00</time>
      </trkpt>
      <trkpt lat="45.92084" lon="6.27324">
        <ele>1548</ele>
        <time>2016-10-02T09:18:28+02:00</time>
      </trkpt>
      <trkpt lat="45.92093" lon="6.27329">
        <ele>1546</ele>
        <time>2016-10-02T09:18:36+02:00</time>
      </trkpt>
      <trkpt lat="45.92103" lon="6.27334">
        <ele>1544</ele>
        <time>2016-10-02T09:18:44+02:00</time>
      </trkpt>
      <trkpt lat="45.92106" lon="6.27335">
        <ele>1544</ele>
        <time>2016-10-02T09:18:47+02:00</time>
      </trkpt>
      <trkpt lat="45.92109" lon="6.27336">
        <ele>1544</ele>
        <time>2016-10-02T09:18:49+02:00</time>
      </trkpt>
      <trkpt lat="45.92111" lon="6.27337">
        <ele>1543</ele>
        <time>2016-10-02T09:18:51+02:00</time>
      </trkpt>
      <trkpt lat="45.92113" lon="6.27338">
        <ele>1543</ele>
        <time>2016-10-02T09:18:53+02:00</time>
      </trkpt>
      <trkpt lat="45.92115" lon="6.27339">
        <ele>1543</ele>
        <time>2016-10-02T09:18:55+02:00</time>
      </trkpt>
      <trkpt lat="45.92118" lon="6.27339">
        <ele>1542</ele>
        <time>2016-10-02T09:18:57+02:00</time>
      </trkpt>
      <trkpt lat="45.9212" lon="6.27339">
        <ele>1542</ele>
        <time>2016-10-02T09:18:59+02:00</time>
      </trkpt>
      <trkpt lat="45.92124" lon="6.27342">
        <ele>1541</ele>
        <time>2016-10-02T09:19:02+02:00</time>
      </trkpt>
      <trkpt lat="45.92127" lon="6.27343">
        <ele>1541</ele>
        <time>2016-10-02T09:19:04+02:00</time>
      </trkpt>
      <trkpt lat="45.92129" lon="6.27344">
        <ele>1541</ele>
        <time>2016-10-02T09:19:06+02:00</time>
      </trkpt>
      <trkpt lat="45.92135" lon="6.2735">
        <ele>1540</ele>
        <time>2016-10-02T09:19:12+02:00</time>
      </trkpt>
      <trkpt lat="45.92144" lon="6.27358">
        <ele>1538</ele>
        <time>2016-10-02T09:19:21+02:00</time>
      </trkpt>
      <trkpt lat="45.92149" lon="6.27361">
        <ele>1537</ele>
        <time>2016-10-02T09:19:25+02:00</time>
      </trkpt>
      <trkpt lat="45.92152" lon="6.27365">
        <ele>1536</ele>
        <time>2016-10-02T09:19:29+02:00</time>
      </trkpt>
      <trkpt lat="45.92155" lon="6.27367">
        <ele>1536</ele>
        <time>2016-10-02T09:19:31+02:00</time>
      </trkpt>
      <trkpt lat="45.92158" lon="6.2737">
        <ele>1535</ele>
        <time>2016-10-02T09:19:34+02:00</time>
      </trkpt>
      <trkpt lat="45.92162" lon="6.27373">
        <ele>1534</ele>
        <time>2016-10-02T09:19:37+02:00</time>
      </trkpt>
      <trkpt lat="45.92164" lon="6.27375">
        <ele>1534</ele>
        <time>2016-10-02T09:19:39+02:00</time>
      </trkpt>
      <trkpt lat="45.92167" lon="6.27377">
        <ele>1533</ele>
        <time>2016-10-02T09:19:43+02:00</time>
      </trkpt>
      <trkpt lat="45.92171" lon="6.2738">
        <ele>1532</ele>
        <time>2016-10-02T09:19:46+02:00</time>
      </trkpt>
      <trkpt lat="45.92173" lon="6.2738">
        <ele>1532</ele>
        <time>2016-10-02T09:19:48+02:00</time>
      </trkpt>
      <trkpt lat="45.92175" lon="6.27382">
        <ele>1531</ele>
        <time>2016-10-02T09:19:50+02:00</time>
      </trkpt>
      <trkpt lat="45.92178" lon="6.27383">
        <ele>1531</ele>
        <time>2016-10-02T09:19:52+02:00</time>
      </trkpt>
      <trkpt lat="45.92181" lon="6.27384">
        <ele>1530</ele>
        <time>2016-10-02T09:19:55+02:00</time>
      </trkpt>
      <trkpt lat="45.92187" lon="6.27391">
        <ele>1529</ele>
        <time>2016-10-02T09:20:02+02:00</time>
      </trkpt>
      <trkpt lat="45.92193" lon="6.27395">
        <ele>1527</ele>
        <time>2016-10-02T09:20:07+02:00</time>
      </trkpt>
      <trkpt lat="45.92195" lon="6.27396">
        <ele>1527</ele>
        <time>2016-10-02T09:20:09+02:00</time>
      </trkpt>
      <trkpt lat="45.92202" lon="6.27399">
        <ele>1525</ele>
        <time>2016-10-02T09:20:14+02:00</time>
      </trkpt>
      <trkpt lat="45.92204" lon="6.27404">
        <ele>1524</ele>
        <time>2016-10-02T09:20:18+02:00</time>
      </trkpt>
      <trkpt lat="45.92209" lon="6.2741">
        <ele>1523</ele>
        <time>2016-10-02T09:20:54+02:00</time>
      </trkpt>
      <trkpt lat="45.92224" lon="6.27436">
        <ele>1520</ele>
        <time>2016-10-02T09:21:13+02:00</time>
      </trkpt>
      <trkpt lat="45.92238" lon="6.27467">
        <ele>1517</ele>
        <time>2016-10-02T09:21:33+02:00</time>
      </trkpt>
      <trkpt lat="45.92266" lon="6.27502">
        <ele>1510</ele>
        <time>2016-10-02T09:22:03+02:00</time>
      </trkpt>
      <trkpt lat="45.92302" lon="6.27539">
        <ele>1506</ele>
        <time>2016-10-02T09:22:38+02:00</time>
      </trkpt>
      <trkpt lat="45.92321" lon="6.27558">
        <ele>1502</ele>
        <time>2016-10-02T09:22:57+02:00</time>
      </trkpt>
      <trkpt lat="45.92358" lon="6.27588">
        <ele>1496</ele>
        <time>2016-10-02T09:23:31+02:00</time>
      </trkpt>
      <trkpt lat="45.92391" lon="6.27607">
        <ele>1494</ele>
        <time>2016-10-02T09:24:00+02:00</time>
      </trkpt>
      <trkpt lat="45.9242" lon="6.27625">
        <ele>1491</ele>
        <time>2016-10-02T09:24:25+02:00</time>
      </trkpt>
      <trkpt lat="45.92446" lon="6.27643">
        <ele>1488</ele>
        <time>2016-10-02T09:24:48+02:00</time>
      </trkpt>
      <trkpt lat="45.9242" lon="6.27625">
        <ele>1491</ele>
        <time>2016-10-02T09:25:11+02:00</time>
      </trkpt>
      <trkpt lat="45.92446" lon="6.27643">
        <ele>1488</ele>
        <time>2016-10-02T09:25:35+02:00</time>
      </trkpt>
      <trkpt lat="45.92469" lon="6.27666">
        <ele>1485</ele>
        <time>2016-10-02T09:25:57+02:00</time>
      </trkpt>
      <trkpt lat="45.92501" lon="6.27701">
        <ele>1488</ele>
        <time>2016-10-02T09:26:29+02:00</time>
      </trkpt>
      <trkpt lat="45.92532" lon="6.27708">
        <ele>1483</ele>
        <time>2016-10-02T09:26:55+02:00</time>
      </trkpt>
      <trkpt lat="45.92563" lon="6.2773">
        <ele>1480</ele>
        <time>2016-10-02T09:27:23+02:00</time>
      </trkpt>
      <trkpt lat="45.926" lon="6.27758">
        <ele>1475</ele>
        <time>2016-10-02T09:27:56+02:00</time>
      </trkpt>
      <trkpt lat="45.92633" lon="6.2778">
        <ele>1471</ele>
        <time>2016-10-02T09:28:26+02:00</time>
      </trkpt>
      <trkpt lat="45.92672" lon="6.27807">
        <ele>1465</ele>
        <time>2016-10-02T09:29:01+02:00</time>
      </trkpt>
      <trkpt lat="45.92696" lon="6.27822">
        <ele>1461</ele>
        <time>2016-10-02T09:29:23+02:00</time>
      </trkpt>
      <trkpt lat="45.9271" lon="6.27844">
        <ele>1460</ele>
        <time>2016-10-02T09:29:39+02:00</time>
      </trkpt>
      <trkpt lat="45.92735" lon="6.27879">
        <ele>1458</ele>
        <time>2016-10-02T09:30:07+02:00</time>
      </trkpt>
      <trkpt lat="45.92754" lon="6.27905">
        <ele>1456</ele>
        <time>2016-10-02T09:30:29+02:00</time>
      </trkpt>
      <trkpt lat="45.92755" lon="6.27932">
        <ele>1459</ele>
        <time>2016-10-02T09:30:43+02:00</time>
      </trkpt>
      <trkpt lat="45.92764" lon="6.27948">
        <ele>1459</ele>
        <time>2016-10-02T09:30:55+02:00</time>
      </trkpt>
      <trkpt lat="45.92784" lon="6.27964">
        <ele>1456</ele>
        <time>2016-10-02T09:31:14+02:00</time>
      </trkpt>
      <trkpt lat="45.92808" lon="6.27969">
        <ele>1451</ele>
        <time>2016-10-02T09:31:33+02:00</time>
      </trkpt>
      <trkpt lat="45.92824" lon="6.27968">
        <ele>1447</ele>
        <time>2016-10-02T09:31:46+02:00</time>
      </trkpt>
      <trkpt lat="45.92886" lon="6.27969">
        <ele>1436</ele>
        <time>2016-10-02T09:32:36+02:00</time>
      </trkpt>
      <trkpt lat="45.92917" lon="6.2797">
        <ele>1430</ele>
        <time>2016-10-02T09:33:01+02:00</time>
      </trkpt>
      <trkpt lat="45.92949" lon="6.2797">
        <ele>1426</ele>
        <time>2016-10-02T09:33:27+02:00</time>
      </trkpt>
      <trkpt lat="45.92968" lon="6.27982">
        <ele>1424</ele>
        <time>2016-10-02T09:33:44+02:00</time>
      </trkpt>
      <trkpt lat="45.9299" lon="6.27995">
        <ele>1422</ele>
        <time>2016-10-02T09:34:03+02:00</time>
      </trkpt>
      <trkpt lat="45.93005" lon="6.28009">
        <ele>1420</ele>
        <time>2016-10-02T09:34:18+02:00</time>
      </trkpt>
      <trkpt lat="45.93021" lon="6.28024">
        <ele>1419</ele>
        <time>2016-10-02T09:34:33+02:00</time>
      </trkpt>
      <trkpt lat="45.93039" lon="6.28044">
        <ele>1418</ele>
        <time>2016-10-02T09:34:51+02:00</time>
      </trkpt>
      <trkpt lat="45.93057" lon="6.28064">
        <ele>1416</ele>
        <time>2016-10-02T09:35:10+02:00</time>
      </trkpt>
      <trkpt lat="45.93067" lon="6.28083">
        <ele>1415</ele>
        <time>2016-10-02T09:35:23+02:00</time>
      </trkpt>
      <trkpt lat="45.93076" lon="6.28091">
        <ele>1414</ele>
        <time>2016-10-02T09:35:31+02:00</time>
      </trkpt>
      <trkpt lat="45.93087" lon="6.28108">
        <ele>1414</ele>
        <time>2016-10-02T09:35:44+02:00</time>
      </trkpt>
      <trkpt lat="45.93099" lon="6.2813">
        <ele>1412</ele>
        <time>2016-10-02T09:36:00+02:00</time>
      </trkpt>
      <trkpt lat="45.93113" lon="6.28139">
        <ele>1410</ele>
        <time>2016-10-02T09:36:12+02:00</time>
      </trkpt>
      <trkpt lat="45.93126" lon="6.28157">
        <ele>1408</ele>
        <time>2016-10-02T09:36:27+02:00</time>
      </trkpt>
      <trkpt lat="45.93146" lon="6.28174">
        <ele>1404</ele>
        <time>2016-10-02T09:36:46+02:00</time>
      </trkpt>
      <trkpt lat="45.93169" lon="6.28192">
        <ele>1400</ele>
        <time>2016-10-02T09:37:07+02:00</time>
      </trkpt>
      <trkpt lat="45.9318" lon="6.282">
        <ele>1398</ele>
        <time>2016-10-02T09:37:17+02:00</time>
      </trkpt>
      <trkpt lat="45.93181" lon="6.28218">
        <ele>1398</ele>
        <time>2016-10-02T09:37:27+02:00</time>
      </trkpt>
      <trkpt lat="45.93187" lon="6.28233">
        <ele>1397</ele>
        <time>2016-10-02T09:37:37+02:00</time>
      </trkpt>
      <trkpt lat="45.932" lon="6.28246">
        <ele>1394</ele>
        <time>2016-10-02T09:37:50+02:00</time>
      </trkpt>
      <trkpt lat="45.93215" lon="6.2825">
        <ele>1391</ele>
        <time>2016-10-02T09:38:02+02:00</time>
      </trkpt>
      <trkpt lat="45.93223" lon="6.28242">
        <ele>1390</ele>
        <time>2016-10-02T09:38:10+02:00</time>
      </trkpt>
      <trkpt lat="45.93225" lon="6.28227">
        <ele>1390</ele>
        <time>2016-10-02T09:38:19+02:00</time>
      </trkpt>
      <trkpt lat="45.93222" lon="6.28218">
        <ele>1391</ele>
        <time>2016-10-02T09:38:24+02:00</time>
      </trkpt>
      <trkpt lat="45.93215" lon="6.28208">
        <ele>1392</ele>
        <time>2016-10-02T09:38:36+02:00</time>
      </trkpt>
      <trkpt lat="45.93211" lon="6.28204">
        <ele>1393</ele>
        <time>2016-10-02T09:38:40+02:00</time>
      </trkpt>
      <trkpt lat="45.93208" lon="6.282">
        <ele>1393</ele>
        <time>2016-10-02T09:38:43+02:00</time>
      </trkpt>
      <trkpt lat="45.93206" lon="6.28198">
        <ele>1394</ele>
        <time>2016-10-02T09:38:45+02:00</time>
      </trkpt>
      <trkpt lat="45.93203" lon="6.28195">
        <ele>1394</ele>
        <time>2016-10-02T09:38:48+02:00</time>
      </trkpt>
      <trkpt lat="45.932" lon="6.28189">
        <ele>1395</ele>
        <time>2016-10-02T09:38:52+02:00</time>
      </trkpt>
      <trkpt lat="45.93195" lon="6.28183">
        <ele>1396</ele>
        <time>2016-10-02T09:38:57+02:00</time>
      </trkpt>
      <trkpt lat="45.93191" lon="6.28177">
        <ele>1396</ele>
        <time>2016-10-02T09:39:02+02:00</time>
      </trkpt>
      <trkpt lat="45.93188" lon="6.28175">
        <ele>1397</ele>
        <time>2016-10-02T09:39:04+02:00</time>
      </trkpt>
      <trkpt lat="45.93184" lon="6.2817">
        <ele>1397</ele>
        <time>2016-10-02T09:39:09+02:00</time>
      </trkpt>
      <trkpt lat="45.93182" lon="6.28167">
        <ele>1398</ele>
        <time>2016-10-02T09:39:11+02:00</time>
      </trkpt>
      <trkpt lat="45.93178" lon="6.28162">
        <ele>1398</ele>
        <time>2016-10-02T09:39:15+02:00</time>
      </trkpt>
      <trkpt lat="45.93174" lon="6.28158">
        <ele>1399</ele>
        <time>2016-10-02T09:39:20+02:00</time>
      </trkpt>
      <trkpt lat="45.93171" lon="6.28155">
        <ele>1399</ele>
        <time>2016-10-02T09:39:22+02:00</time>
      </trkpt>
      <trkpt lat="45.93167" lon="6.28151">
        <ele>1400</ele>
        <time>2016-10-02T09:39:26+02:00</time>
      </trkpt>
      <trkpt lat="45.93165" lon="6.28148">
        <ele>1400</ele>
        <time>2016-10-02T09:39:28+02:00</time>
      </trkpt>
      <trkpt lat="45.93161" lon="6.28144">
        <ele>1401</ele>
        <time>2016-10-02T09:39:33+02:00</time>
      </trkpt>
      <trkpt lat="45.93157" lon="6.2814">
        <ele>1401</ele>
        <time>2016-10-02T09:39:36+02:00</time>
      </trkpt>
      <trkpt lat="45.93154" lon="6.28135">
        <ele>1402</ele>
        <time>2016-10-02T09:39:40+02:00</time>
      </trkpt>
      <trkpt lat="45.9315" lon="6.2813">
        <ele>1403</ele>
        <time>2016-10-02T09:39:44+02:00</time>
      </trkpt>
      <trkpt lat="45.93147" lon="6.28124">
        <ele>1403</ele>
        <time>2016-10-02T09:39:48+02:00</time>
      </trkpt>
      <trkpt lat="45.93144" lon="6.28118">
        <ele>1404</ele>
        <time>2016-10-02T09:39:53+02:00</time>
      </trkpt>
      <trkpt lat="45.93141" lon="6.28111">
        <ele>1404</ele>
        <time>2016-10-02T09:39:57+02:00</time>
      </trkpt>
      <trkpt lat="45.93139" lon="6.28105">
        <ele>1404</ele>
        <time>2016-10-02T09:40:01+02:00</time>
      </trkpt>
      <trkpt lat="45.93138" lon="6.28099">
        <ele>1404</ele>
        <time>2016-10-02T09:40:04+02:00</time>
      </trkpt>
      <trkpt lat="45.93137" lon="6.28092">
        <ele>1404</ele>
        <time>2016-10-02T09:40:08+02:00</time>
      </trkpt>
      <trkpt lat="45.93133" lon="6.28091">
        <ele>1405</ele>
        <time>2016-10-02T09:40:12+02:00</time>
      </trkpt>
      <trkpt lat="45.93129" lon="6.28086">
        <ele>1405</ele>
        <time>2016-10-02T09:40:16+02:00</time>
      </trkpt>
      <trkpt lat="45.93126" lon="6.28081">
        <ele>1406</ele>
        <time>2016-10-02T09:40:20+02:00</time>
      </trkpt>
      <trkpt lat="45.93122" lon="6.28077">
        <ele>1407</ele>
        <time>2016-10-02T09:40:23+02:00</time>
      </trkpt>
      <trkpt lat="45.93119" lon="6.28073">
        <ele>1408</ele>
        <time>2016-10-02T09:40:27+02:00</time>
      </trkpt>
      <trkpt lat="45.93115" lon="6.28068">
        <ele>1408</ele>
        <time>2016-10-02T09:40:31+02:00</time>
      </trkpt>
      <trkpt lat="45.93112" lon="6.28063">
        <ele>1409</ele>
        <time>2016-10-02T09:40:35+02:00</time>
      </trkpt>
      <trkpt lat="45.93109" lon="6.28058">
        <ele>1410</ele>
        <time>2016-10-02T09:40:39+02:00</time>
      </trkpt>
      <trkpt lat="45.93106" lon="6.28053">
        <ele>1410</ele>
        <time>2016-10-02T09:40:42+02:00</time>
      </trkpt>
      <trkpt lat="45.93103" lon="6.28049">
        <ele>1411</ele>
        <time>2016-10-02T09:40:46+02:00</time>
      </trkpt>
      <trkpt lat="45.93098" lon="6.28045">
        <ele>1412</ele>
        <time>2016-10-02T09:40:50+02:00</time>
      </trkpt>
      <trkpt lat="45.93096" lon="6.28043">
        <ele>1412</ele>
        <time>2016-10-02T09:40:52+02:00</time>
      </trkpt>
      <trkpt lat="45.93092" lon="6.2804">
        <ele>1413</ele>
        <time>2016-10-02T09:40:56+02:00</time>
      </trkpt>
      <trkpt lat="45.93087" lon="6.28036">
        <ele>1414</ele>
        <time>2016-10-02T09:41:01+02:00</time>
      </trkpt>
      <trkpt lat="45.93082" lon="6.28032">
        <ele>1414</ele>
        <time>2016-10-02T09:41:05+02:00</time>
      </trkpt>
      <trkpt lat="45.93079" lon="6.28029">
        <ele>1415</ele>
        <time>2016-10-02T09:41:08+02:00</time>
      </trkpt>
      <trkpt lat="45.93074" lon="6.28026">
        <ele>1415</ele>
        <time>2016-10-02T09:41:12+02:00</time>
      </trkpt>
      <trkpt lat="45.9307" lon="6.28022">
        <ele>1416</ele>
        <time>2016-10-02T09:41:17+02:00</time>
      </trkpt>
      <trkpt lat="45.93067" lon="6.2802">
        <ele>1416</ele>
        <time>2016-10-02T09:41:19+02:00</time>
      </trkpt>
      <trkpt lat="45.93065" lon="6.28018">
        <ele>1416</ele>
        <time>2016-10-02T09:41:21+02:00</time>
      </trkpt>
      <trkpt lat="45.93062" lon="6.28016">
        <ele>1416</ele>
        <time>2016-10-02T09:41:24+02:00</time>
      </trkpt>
      <trkpt lat="45.93058" lon="6.28011">
        <ele>1417</ele>
        <time>2016-10-02T09:41:28+02:00</time>
      </trkpt>
      <trkpt lat="45.93054" lon="6.28007">
        <ele>1417</ele>
        <time>2016-10-02T09:41:32+02:00</time>
      </trkpt>
      <trkpt lat="45.93049" lon="6.28004">
        <ele>1417</ele>
        <time>2016-10-02T09:41:36+02:00</time>
      </trkpt>
      <trkpt lat="45.93045" lon="6.28">
        <ele>1417</ele>
        <time>2016-10-02T09:41:40+02:00</time>
      </trkpt>
      <trkpt lat="45.93041" lon="6.27996">
        <ele>1418</ele>
        <time>2016-10-02T09:41:44+02:00</time>
      </trkpt>
      <trkpt lat="45.93037" lon="6.27992">
        <ele>1418</ele>
        <time>2016-10-02T09:41:48+02:00</time>
      </trkpt>
      <trkpt lat="45.93033" lon="6.27989">
        <ele>1418</ele>
        <time>2016-10-02T09:41:52+02:00</time>
      </trkpt>
      <trkpt lat="45.9303" lon="6.27986">
        <ele>1418</ele>
        <time>2016-10-02T09:41:54+02:00</time>
      </trkpt>
      <trkpt lat="45.93028" lon="6.27984">
        <ele>1419</ele>
        <time>2016-10-02T09:41:57+02:00</time>
      </trkpt>
      <trkpt lat="45.93024" lon="6.27979">
        <ele>1419</ele>
        <time>2016-10-02T09:42:01+02:00</time>
      </trkpt>
      <trkpt lat="45.93021" lon="6.27974">
        <ele>1419</ele>
        <time>2016-10-02T09:42:05+02:00</time>
      </trkpt>
      <trkpt lat="45.9302" lon="6.2797">
        <ele>1419</ele>
        <time>2016-10-02T09:42:07+02:00</time>
      </trkpt>
      <trkpt lat="45.93017" lon="6.27967">
        <ele>1419</ele>
        <time>2016-10-02T09:42:10+02:00</time>
      </trkpt>
      <trkpt lat="45.93014" lon="6.27965">
        <ele>1419</ele>
        <time>2016-10-02T09:42:12+02:00</time>
      </trkpt>
      <trkpt lat="45.93012" lon="6.2796">
        <ele>1420</ele>
        <time>2016-10-02T09:42:16+02:00</time>
      </trkpt>
      <trkpt lat="45.93011" lon="6.27953">
        <ele>1420</ele>
        <time>2016-10-02T09:42:19+02:00</time>
      </trkpt>
      <trkpt lat="45.93011" lon="6.27946">
        <ele>1420</ele>
        <time>2016-10-02T09:42:23+02:00</time>
      </trkpt>
      <trkpt lat="45.93009" lon="6.27939">
        <ele>1420</ele>
        <time>2016-10-02T09:42:28+02:00</time>
      </trkpt>
      <trkpt lat="45.93008" lon="6.27936">
        <ele>1420</ele>
        <time>2016-10-02T09:42:30+02:00</time>
      </trkpt>
      <trkpt lat="45.93006" lon="6.27932">
        <ele>1420</ele>
        <time>2016-10-02T09:42:32+02:00</time>
      </trkpt>
      <trkpt lat="45.93005" lon="6.27929">
        <ele>1420</ele>
        <time>2016-10-02T09:42:34+02:00</time>
      </trkpt>
      <trkpt lat="45.93003" lon="6.27922">
        <ele>1420</ele>
        <time>2016-10-02T09:42:39+02:00</time>
      </trkpt>
      <trkpt lat="45.93001" lon="6.27915">
        <ele>1420</ele>
        <time>2016-10-02T09:42:43+02:00</time>
      </trkpt>
      <trkpt lat="45.92999" lon="6.27908">
        <ele>1421</ele>
        <time>2016-10-02T09:42:47+02:00</time>
      </trkpt>
      <trkpt lat="45.92998" lon="6.27905">
        <ele>1422</ele>
        <time>2016-10-02T09:42:49+02:00</time>
      </trkpt>
      <trkpt lat="45.92996" lon="6.27902">
        <ele>1422</ele>
        <time>2016-10-02T09:42:51+02:00</time>
      </trkpt>
      <trkpt lat="45.92994" lon="6.27899">
        <ele>1423</ele>
        <time>2016-10-02T09:42:54+02:00</time>
      </trkpt>
      <trkpt lat="45.92993" lon="6.27896">
        <ele>1423</ele>
        <time>2016-10-02T09:42:56+02:00</time>
      </trkpt>
      <trkpt lat="45.9299" lon="6.27894">
        <ele>1424</ele>
        <time>2016-10-02T09:42:58+02:00</time>
      </trkpt>
      <trkpt lat="45.92988" lon="6.27892">
        <ele>1424</ele>
        <time>2016-10-02T09:43:00+02:00</time>
      </trkpt>
      <trkpt lat="45.92986" lon="6.2789">
        <ele>1424</ele>
        <time>2016-10-02T09:43:02+02:00</time>
      </trkpt>
      <trkpt lat="45.92982" lon="6.27886">
        <ele>1425</ele>
        <time>2016-10-02T09:43:06+02:00</time>
      </trkpt>
      <trkpt lat="45.9298" lon="6.27884">
        <ele>1425</ele>
        <time>2016-10-02T09:43:08+02:00</time>
      </trkpt>
      <trkpt lat="45.92977" lon="6.27878">
        <ele>1426</ele>
        <time>2016-10-02T09:43:12+02:00</time>
      </trkpt>
      <trkpt lat="45.92974" lon="6.27875">
        <ele>1427</ele>
        <time>2016-10-02T09:43:15+02:00</time>
      </trkpt>
      <trkpt lat="45.92972" lon="6.27871">
        <ele>1427</ele>
        <time>2016-10-02T09:43:18+02:00</time>
      </trkpt>
      <trkpt lat="45.9297" lon="6.27868">
        <ele>1428</ele>
        <time>2016-10-02T09:43:20+02:00</time>
      </trkpt>
      <trkpt lat="45.92966" lon="6.27864">
        <ele>1428</ele>
        <time>2016-10-02T09:43:24+02:00</time>
      </trkpt>
      <trkpt lat="45.92964" lon="6.27861">
        <ele>1429</ele>
        <time>2016-10-02T09:43:26+02:00</time>
      </trkpt>
      <trkpt lat="45.92962" lon="6.27859">
        <ele>1429</ele>
        <time>2016-10-02T09:43:28+02:00</time>
      </trkpt>
      <trkpt lat="45.9296" lon="6.27857">
        <ele>1429</ele>
        <time>2016-10-02T09:43:30+02:00</time>
      </trkpt>
      <trkpt lat="45.92955" lon="6.27854">
        <ele>1430</ele>
        <time>2016-10-02T09:43:35+02:00</time>
      </trkpt>
      <trkpt lat="45.92953" lon="6.27853">
        <ele>1430</ele>
        <time>2016-10-02T09:43:37+02:00</time>
      </trkpt>
      <trkpt lat="45.9295" lon="6.27852">
        <ele>1430</ele>
        <time>2016-10-02T09:43:39+02:00</time>
      </trkpt>
      <trkpt lat="45.92947" lon="6.27851">
        <ele>1431</ele>
        <time>2016-10-02T09:43:42+02:00</time>
      </trkpt>
      <trkpt lat="45.92944" lon="6.2785">
        <ele>1431</ele>
        <time>2016-10-02T09:43:44+02:00</time>
      </trkpt>
      <trkpt lat="45.92941" lon="6.27849">
        <ele>1431</ele>
        <time>2016-10-02T09:43:46+02:00</time>
      </trkpt>
      <trkpt lat="45.92939" lon="6.27849">
        <ele>1431</ele>
        <time>2016-10-02T09:43:49+02:00</time>
      </trkpt>
      <trkpt lat="45.92936" lon="6.27848">
        <ele>1431</ele>
        <time>2016-10-02T09:43:51+02:00</time>
      </trkpt>
      <trkpt lat="45.92931" lon="6.27847">
        <ele>1431</ele>
        <time>2016-10-02T09:43:55+02:00</time>
      </trkpt>
      <trkpt lat="45.92929" lon="6.27846">
        <ele>1432</ele>
        <time>2016-10-02T09:43:57+02:00</time>
      </trkpt>
      <trkpt lat="45.92926" lon="6.27845">
        <ele>1432</ele>
        <time>2016-10-02T09:43:59+02:00</time>
      </trkpt>
      <trkpt lat="45.92923" lon="6.27843">
        <ele>1432</ele>
        <time>2016-10-02T09:44:01+02:00</time>
      </trkpt>
      <trkpt lat="45.92921" lon="6.27842">
        <ele>1432</ele>
        <time>2016-10-02T09:44:03+02:00</time>
      </trkpt>
      <trkpt lat="45.92916" lon="6.2784">
        <ele>1432</ele>
        <time>2016-10-02T09:44:07+02:00</time>
      </trkpt>
      <trkpt lat="45.92912" lon="6.27838">
        <ele>1433</ele>
        <time>2016-10-02T09:44:11+02:00</time>
      </trkpt>
      <trkpt lat="45.9291" lon="6.27837">
        <ele>1433</ele>
        <time>2016-10-02T09:44:13+02:00</time>
      </trkpt>
      <trkpt lat="45.92907" lon="6.27836">
        <ele>1434</ele>
        <time>2016-10-02T09:44:15+02:00</time>
      </trkpt>
      <trkpt lat="45.92903" lon="6.27833">
        <ele>1434</ele>
        <time>2016-10-02T09:44:19+02:00</time>
      </trkpt>
      <trkpt lat="45.92898" lon="6.27831">
        <ele>1435</ele>
        <time>2016-10-02T09:44:23+02:00</time>
      </trkpt>
      <trkpt lat="45.92894" lon="6.27828">
        <ele>1436</ele>
        <time>2016-10-02T09:44:26+02:00</time>
      </trkpt>
      <trkpt lat="45.92891" lon="6.27824">
        <ele>1437</ele>
        <time>2016-10-02T09:44:30+02:00</time>
      </trkpt>
      <trkpt lat="45.92889" lon="6.27818">
        <ele>1438</ele>
        <time>2016-10-02T09:44:34+02:00</time>
      </trkpt>
      <trkpt lat="45.92888" lon="6.27815">
        <ele>1438</ele>
        <time>2016-10-02T09:44:36+02:00</time>
      </trkpt>
      <trkpt lat="45.92886" lon="6.27808">
        <ele>1439</ele>
        <time>2016-10-02T09:44:40+02:00</time>
      </trkpt>
      <trkpt lat="45.92885" lon="6.27805">
        <ele>1439</ele>
        <time>2016-10-02T09:44:42+02:00</time>
      </trkpt>
      <trkpt lat="45.92883" lon="6.27801">
        <ele>1440</ele>
        <time>2016-10-02T09:44:45+02:00</time>
      </trkpt>
      <trkpt lat="45.92881" lon="6.27797">
        <ele>1441</ele>
        <time>2016-10-02T09:44:47+02:00</time>
      </trkpt>
      <trkpt lat="45.9288" lon="6.27794">
        <ele>1441</ele>
        <time>2016-10-02T09:44:49+02:00</time>
      </trkpt>
      <trkpt lat="45.92878" lon="6.27791">
        <ele>1441</ele>
        <time>2016-10-02T09:44:52+02:00</time>
      </trkpt>
      <trkpt lat="45.92875" lon="6.27788">
        <ele>1442</ele>
        <time>2016-10-02T09:44:54+02:00</time>
      </trkpt>
      <trkpt lat="45.92874" lon="6.27786">
        <ele>1442</ele>
        <time>2016-10-02T09:44:56+02:00</time>
      </trkpt>
      <trkpt lat="45.92872" lon="6.27783">
        <ele>1442</ele>
        <time>2016-10-02T09:44:58+02:00</time>
      </trkpt>
      <trkpt lat="45.9287" lon="6.27781">
        <ele>1442</ele>
        <time>2016-10-02T09:45:00+02:00</time>
      </trkpt>
      <trkpt lat="45.92868" lon="6.27779">
        <ele>1443</ele>
        <time>2016-10-02T09:45:02+02:00</time>
      </trkpt>
      <trkpt lat="45.92866" lon="6.27777">
        <ele>1443</ele>
        <time>2016-10-02T09:45:04+02:00</time>
      </trkpt>
      <trkpt lat="45.92864" lon="6.27775">
        <ele>1443</ele>
        <time>2016-10-02T09:45:07+02:00</time>
      </trkpt>
      <trkpt lat="45.92861" lon="6.27774">
        <ele>1443</ele>
        <time>2016-10-02T09:45:09+02:00</time>
      </trkpt>
      <trkpt lat="45.92858" lon="6.27773">
        <ele>1443</ele>
        <time>2016-10-02T09:45:11+02:00</time>
      </trkpt>
      <trkpt lat="45.92856" lon="6.2777">
        <ele>1443</ele>
        <time>2016-10-02T09:45:13+02:00</time>
      </trkpt>
      <trkpt lat="45.92854" lon="6.27767">
        <ele>1443</ele>
        <time>2016-10-02T09:45:16+02:00</time>
      </trkpt>
      <trkpt lat="45.92852" lon="6.27764">
        <ele>1443</ele>
        <time>2016-10-02T09:45:18+02:00</time>
      </trkpt>
      <trkpt lat="45.9285" lon="6.2776">
        <ele>1443</ele>
        <time>2016-10-02T09:45:21+02:00</time>
      </trkpt>
      <trkpt lat="45.92848" lon="6.27758">
        <ele>1444</ele>
        <time>2016-10-02T09:45:23+02:00</time>
      </trkpt>
      <trkpt lat="45.92847" lon="6.27755">
        <ele>1444</ele>
        <time>2016-10-02T09:45:25+02:00</time>
      </trkpt>
      <trkpt lat="45.92845" lon="6.27751">
        <ele>1444</ele>
        <time>2016-10-02T09:45:28+02:00</time>
      </trkpt>
      <trkpt lat="45.92843" lon="6.27748">
        <ele>1445</ele>
        <time>2016-10-02T09:45:30+02:00</time>
      </trkpt>
      <trkpt lat="45.92842" lon="6.27744">
        <ele>1447</ele>
        <time>2016-10-02T09:45:32+02:00</time>
      </trkpt>
      <trkpt lat="45.9284" lon="6.27742">
        <ele>1448</ele>
        <time>2016-10-02T09:45:34+02:00</time>
      </trkpt>
      <trkpt lat="45.92839" lon="6.27739">
        <ele>1450</ele>
        <time>2016-10-02T09:45:36+02:00</time>
      </trkpt>
      <trkpt lat="45.92836" lon="6.27733">
        <ele>1453</ele>
        <time>2016-10-02T09:45:40+02:00</time>
      </trkpt>
      <trkpt lat="45.92834" lon="6.27728">
        <ele>1456</ele>
        <time>2016-10-02T09:45:43+02:00</time>
      </trkpt>
      <trkpt lat="45.92833" lon="6.27721">
        <ele>1459</ele>
        <time>2016-10-02T09:45:47+02:00</time>
      </trkpt>
      <trkpt lat="45.92831" lon="6.27718">
        <ele>1460</ele>
        <time>2016-10-02T09:45:49+02:00</time>
      </trkpt>
      <trkpt lat="45.9283" lon="6.27716">
        <ele>1462</ele>
        <time>2016-10-02T09:45:51+02:00</time>
      </trkpt>
      <trkpt lat="45.92828" lon="6.27713">
        <ele>1463</ele>
        <time>2016-10-02T09:45:53+02:00</time>
      </trkpt>
      <trkpt lat="45.92825" lon="6.27711">
        <ele>1464</ele>
        <time>2016-10-02T09:45:56+02:00</time>
      </trkpt>
      <trkpt lat="45.92823" lon="6.2771">
        <ele>1464</ele>
        <time>2016-10-02T09:45:58+02:00</time>
      </trkpt>
      <trkpt lat="45.9282" lon="6.27708">
        <ele>1465</ele>
        <time>2016-10-02T09:46:00+02:00</time>
      </trkpt>
      <trkpt lat="45.92816" lon="6.27709">
        <ele>1464</ele>
        <time>2016-10-02T09:46:04+02:00</time>
      </trkpt>
      <trkpt lat="45.92812" lon="6.27704">
        <ele>1466</ele>
        <time>2016-10-02T09:46:08+02:00</time>
      </trkpt>
      <trkpt lat="45.92808" lon="6.27703">
        <ele>1466</ele>
        <time>2016-10-02T09:46:11+02:00</time>
      </trkpt>
      <trkpt lat="45.92805" lon="6.27704">
        <ele>1465</ele>
        <time>2016-10-02T09:46:14+02:00</time>
      </trkpt>
      <trkpt lat="45.92801" lon="6.27708">
        <ele>1463</ele>
        <time>2016-10-02T09:46:18+02:00</time>
      </trkpt>
      <trkpt lat="45.92798" lon="6.27714">
        <ele>1461</ele>
        <time>2016-10-02T09:46:22+02:00</time>
      </trkpt>
      <trkpt lat="45.92797" lon="6.27731">
        <ele>1454</ele>
        <time>2016-10-02T09:46:31+02:00</time>
      </trkpt>
      <trkpt lat="45.9279" lon="6.27731">
        <ele>1454</ele>
        <time>2016-10-02T09:46:36+02:00</time>
      </trkpt>
      <trkpt lat="45.92788" lon="6.2773">
        <ele>1455</ele>
        <time>2016-10-02T09:46:38+02:00</time>
      </trkpt>
      <trkpt lat="45.92786" lon="6.27728">
        <ele>1455</ele>
        <time>2016-10-02T09:46:40+02:00</time>
      </trkpt>
      <trkpt lat="45.92783" lon="6.27726">
        <ele>1456</ele>
        <time>2016-10-02T09:46:43+02:00</time>
      </trkpt>
      <trkpt lat="45.9278" lon="6.27723">
        <ele>1457</ele>
        <time>2016-10-02T09:46:46+02:00</time>
      </trkpt>
      <trkpt lat="45.92778" lon="6.27721">
        <ele>1457</ele>
        <time>2016-10-02T09:46:48+02:00</time>
      </trkpt>
      <trkpt lat="45.92775" lon="6.27719">
        <ele>1458</ele>
        <time>2016-10-02T09:46:51+02:00</time>
      </trkpt>
      <trkpt lat="45.92773" lon="6.27717">
        <ele>1458</ele>
        <time>2016-10-02T09:46:53+02:00</time>
      </trkpt>
      <trkpt lat="45.92771" lon="6.27715">
        <ele>1458</ele>
        <time>2016-10-02T09:46:55+02:00</time>
      </trkpt>
      <trkpt lat="45.92767" lon="6.27712">
        <ele>1459</ele>
        <time>2016-10-02T09:46:58+02:00</time>
      </trkpt>
      <trkpt lat="45.92765" lon="6.27709">
        <ele>1459</ele>
        <time>2016-10-02T09:47:00+02:00</time>
      </trkpt>
      <trkpt lat="45.92763" lon="6.27706">
        <ele>1459</ele>
        <time>2016-10-02T09:47:03+02:00</time>
      </trkpt>
      <trkpt lat="45.92761" lon="6.27704">
        <ele>1459</ele>
        <time>2016-10-02T09:47:05+02:00</time>
      </trkpt>
      <trkpt lat="45.92759" lon="6.27702">
        <ele>1459</ele>
        <time>2016-10-02T09:47:07+02:00</time>
      </trkpt>
      <trkpt lat="45.92757" lon="6.27699">
        <ele>1460</ele>
        <time>2016-10-02T09:47:09+02:00</time>
      </trkpt>
      <trkpt lat="45.92756" lon="6.27696">
        <ele>1460</ele>
        <time>2016-10-02T09:47:11+02:00</time>
      </trkpt>
      <trkpt lat="45.92754" lon="6.27693">
        <ele>1460</ele>
        <time>2016-10-02T09:47:13+02:00</time>
      </trkpt>
      <trkpt lat="45.92753" lon="6.27691">
        <ele>1460</ele>
        <time>2016-10-02T09:47:15+02:00</time>
      </trkpt>
      <trkpt lat="45.92751" lon="6.27688">
        <ele>1460</ele>
        <time>2016-10-02T09:47:17+02:00</time>
      </trkpt>
      <trkpt lat="45.92749" lon="6.27686">
        <ele>1460</ele>
        <time>2016-10-02T09:47:19+02:00</time>
      </trkpt>
      <trkpt lat="45.92746" lon="6.27683">
        <ele>1460</ele>
        <time>2016-10-02T09:47:22+02:00</time>
      </trkpt>
      <trkpt lat="45.92744" lon="6.27681">
        <ele>1460</ele>
        <time>2016-10-02T09:47:24+02:00</time>
      </trkpt>
      <trkpt lat="45.92742" lon="6.27678">
        <ele>1461</ele>
        <time>2016-10-02T09:47:26+02:00</time>
      </trkpt>
      <trkpt lat="45.9274" lon="6.27676">
        <ele>1461</ele>
        <time>2016-10-02T09:47:28+02:00</time>
      </trkpt>
      <trkpt lat="45.92738" lon="6.27674">
        <ele>1461</ele>
        <time>2016-10-02T09:47:30+02:00</time>
      </trkpt>
      <trkpt lat="45.92736" lon="6.27672">
        <ele>1461</ele>
        <time>2016-10-02T09:47:32+02:00</time>
      </trkpt>
      <trkpt lat="45.92732" lon="6.27669">
        <ele>1461</ele>
        <time>2016-10-02T09:47:35+02:00</time>
      </trkpt>
      <trkpt lat="45.92731" lon="6.27666">
        <ele>1462</ele>
        <time>2016-10-02T09:47:37+02:00</time>
      </trkpt>
      <trkpt lat="45.92729" lon="6.27664">
        <ele>1463</ele>
        <time>2016-10-02T09:47:39+02:00</time>
      </trkpt>
      <trkpt lat="45.92727" lon="6.27663">
        <ele>1464</ele>
        <time>2016-10-02T09:47:41+02:00</time>
      </trkpt>
      <trkpt lat="45.92725" lon="6.27662">
        <ele>1464</ele>
        <time>2016-10-02T09:47:43+02:00</time>
      </trkpt>
      <trkpt lat="45.92723" lon="6.27661">
        <ele>1464</ele>
        <time>2016-10-02T09:47:45+02:00</time>
      </trkpt>
      <trkpt lat="45.92719" lon="6.27659">
        <ele>1465</ele>
        <time>2016-10-02T09:47:48+02:00</time>
      </trkpt>
      <trkpt lat="45.92717" lon="6.27659">
        <ele>1465</ele>
        <time>2016-10-02T09:47:50+02:00</time>
      </trkpt>
      <trkpt lat="45.92714" lon="6.27659">
        <ele>1465</ele>
        <time>2016-10-02T09:47:52+02:00</time>
      </trkpt>
      <trkpt lat="45.92712" lon="6.27658">
        <ele>1465</ele>
        <time>2016-10-02T09:47:54+02:00</time>
      </trkpt>
      <trkpt lat="45.9271" lon="6.27656">
        <ele>1466</ele>
        <time>2016-10-02T09:47:56+02:00</time>
      </trkpt>
      <trkpt lat="45.92707" lon="6.27655">
        <ele>1467</ele>
        <time>2016-10-02T09:47:58+02:00</time>
      </trkpt>
      <trkpt lat="45.92705" lon="6.27653">
        <ele>1467</ele>
        <time>2016-10-02T09:48:00+02:00</time>
      </trkpt>
      <trkpt lat="45.92702" lon="6.27651">
        <ele>1468</ele>
        <time>2016-10-02T09:48:02+02:00</time>
      </trkpt>
      <trkpt lat="45.92701" lon="6.27648">
        <ele>1469</ele>
        <time>2016-10-02T09:48:04+02:00</time>
      </trkpt>
      <trkpt lat="45.92699" lon="6.27644">
        <ele>1471</ele>
        <time>2016-10-02T09:48:07+02:00</time>
      </trkpt>
      <trkpt lat="45.92697" lon="6.27642">
        <ele>1472</ele>
        <time>2016-10-02T09:48:09+02:00</time>
      </trkpt>
      <trkpt lat="45.92696" lon="6.27638">
        <ele>1473</ele>
        <time>2016-10-02T09:48:11+02:00</time>
      </trkpt>
      <trkpt lat="45.92693" lon="6.27636">
        <ele>1474</ele>
        <time>2016-10-02T09:48:14+02:00</time>
      </trkpt>
      <trkpt lat="45.92691" lon="6.27633">
        <ele>1474</ele>
        <time>2016-10-02T09:48:16+02:00</time>
      </trkpt>
      <trkpt lat="45.92689" lon="6.27631">
        <ele>1475</ele>
        <time>2016-10-02T09:48:18+02:00</time>
      </trkpt>
      <trkpt lat="45.92687" lon="6.27628">
        <ele>1476</ele>
        <time>2016-10-02T09:48:20+02:00</time>
      </trkpt>
      <trkpt lat="45.92685" lon="6.27626">
        <ele>1477</ele>
        <time>2016-10-02T09:48:22+02:00</time>
      </trkpt>
      <trkpt lat="45.92682" lon="6.27624">
        <ele>1477</ele>
        <time>2016-10-02T09:48:25+02:00</time>
      </trkpt>
      <trkpt lat="45.9268" lon="6.27623">
        <ele>1477</ele>
        <time>2016-10-02T09:48:27+02:00</time>
      </trkpt>
      <trkpt lat="45.92675" lon="6.27622">
        <ele>1476</ele>
        <time>2016-10-02T09:48:31+02:00</time>
      </trkpt>
      <trkpt lat="45.92673" lon="6.27622">
        <ele>1476</ele>
        <time>2016-10-02T09:48:33+02:00</time>
      </trkpt>
      <trkpt lat="45.9267" lon="6.27621">
        <ele>1475</ele>
        <time>2016-10-02T09:48:35+02:00</time>
      </trkpt>
      <trkpt lat="45.92667" lon="6.27621">
        <ele>1475</ele>
        <time>2016-10-02T09:48:38+02:00</time>
      </trkpt>
      <trkpt lat="45.92664" lon="6.27623">
        <ele>1474</ele>
        <time>2016-10-02T09:48:40+02:00</time>
      </trkpt>
      <trkpt lat="45.92655" lon="6.27622">
        <ele>1473</ele>
        <time>2016-10-02T09:48:48+02:00</time>
      </trkpt>
      <trkpt lat="45.92648" lon="6.27623">
        <ele>1473</ele>
        <time>2016-10-02T09:48:53+02:00</time>
      </trkpt>
      <trkpt lat="45.92646" lon="6.27623">
        <ele>1472</ele>
        <time>2016-10-02T09:48:55+02:00</time>
      </trkpt>
      <trkpt lat="45.92642" lon="6.27621">
        <ele>1473</ele>
        <time>2016-10-02T09:48:58+02:00</time>
      </trkpt>
      <trkpt lat="45.9264" lon="6.27621">
        <ele>1472</ele>
        <time>2016-10-02T09:48:59+02:00</time>
      </trkpt>
      <trkpt lat="45.92637" lon="6.2762">
        <ele>1472</ele>
        <time>2016-10-02T09:49:01+02:00</time>
      </trkpt>
      <trkpt lat="45.92635" lon="6.2762">
        <ele>1472</ele>
        <time>2016-10-02T09:49:03+02:00</time>
      </trkpt>
      <trkpt lat="45.92633" lon="6.27618">
        <ele>1472</ele>
        <time>2016-10-02T09:49:05+02:00</time>
      </trkpt>
      <trkpt lat="45.92628" lon="6.27617">
        <ele>1472</ele>
        <time>2016-10-02T09:49:09+02:00</time>
      </trkpt>
      <trkpt lat="45.92619" lon="6.27614">
        <ele>1472</ele>
        <time>2016-10-02T09:49:17+02:00</time>
      </trkpt>
      <trkpt lat="45.92609" lon="6.27614">
        <ele>1471</ele>
        <time>2016-10-02T09:49:25+02:00</time>
      </trkpt>
      <trkpt lat="45.92606" lon="6.27608">
        <ele>1471</ele>
        <time>2016-10-02T09:49:29+02:00</time>
      </trkpt>
      <trkpt lat="45.92601" lon="6.27603">
        <ele>1472</ele>
        <time>2016-10-02T09:49:33+02:00</time>
      </trkpt>
      <trkpt lat="45.92593" lon="6.27598">
        <ele>1471</ele>
        <time>2016-10-02T09:49:41+02:00</time>
      </trkpt>
      <trkpt lat="45.9259" lon="6.27597">
        <ele>1471</ele>
        <time>2016-10-02T09:49:43+02:00</time>
      </trkpt>
      <trkpt lat="45.92587" lon="6.27597">
        <ele>1470</ele>
        <time>2016-10-02T09:49:46+02:00</time>
      </trkpt>
      <trkpt lat="45.92585" lon="6.27598">
        <ele>1470</ele>
        <time>2016-10-02T09:49:48+02:00</time>
      </trkpt>
      <trkpt lat="45.92581" lon="6.27596">
        <ele>1470</ele>
        <time>2016-10-02T09:49:51+02:00</time>
      </trkpt>
      <trkpt lat="45.92572" lon="6.27589">
        <ele>1471</ele>
        <time>2016-10-02T09:49:59+02:00</time>
      </trkpt>
      <trkpt lat="45.92563" lon="6.27586">
        <ele>1472</ele>
        <time>2016-10-02T09:50:07+02:00</time>
      </trkpt>
      <trkpt lat="45.92556" lon="6.27578">
        <ele>1474</ele>
        <time>2016-10-02T09:50:14+02:00</time>
      </trkpt>
      <trkpt lat="45.92554" lon="6.27575">
        <ele>1475</ele>
        <time>2016-10-02T09:50:16+02:00</time>
      </trkpt>
      <trkpt lat="45.92552" lon="6.27573">
        <ele>1475</ele>
        <time>2016-10-02T09:50:18+02:00</time>
      </trkpt>
      <trkpt lat="45.9255" lon="6.27571">
        <ele>1476</ele>
        <time>2016-10-02T09:50:20+02:00</time>
      </trkpt>
      <trkpt lat="45.92548" lon="6.27569">
        <ele>1477</ele>
        <time>2016-10-02T09:50:22+02:00</time>
      </trkpt>
      <trkpt lat="45.92547" lon="6.27566">
        <ele>1478</ele>
        <time>2016-10-02T09:50:24+02:00</time>
      </trkpt>
      <trkpt lat="45.92545" lon="6.27564">
        <ele>1478</ele>
        <time>2016-10-02T09:50:26+02:00</time>
      </trkpt>
      <trkpt lat="45.92543" lon="6.27561">
        <ele>1479</ele>
        <time>2016-10-02T09:50:28+02:00</time>
      </trkpt>
      <trkpt lat="45.92542" lon="6.27558">
        <ele>1480</ele>
        <time>2016-10-02T09:50:30+02:00</time>
      </trkpt>
      <trkpt lat="45.9254" lon="6.27555">
        <ele>1481</ele>
        <time>2016-10-02T09:50:33+02:00</time>
      </trkpt>
      <trkpt lat="45.92538" lon="6.27553">
        <ele>1481</ele>
        <time>2016-10-02T09:50:35+02:00</time>
      </trkpt>
      <trkpt lat="45.92536" lon="6.2755">
        <ele>1482</ele>
        <time>2016-10-02T09:50:37+02:00</time>
      </trkpt>
      <trkpt lat="45.92535" lon="6.27547">
        <ele>1483</ele>
        <time>2016-10-02T09:50:39+02:00</time>
      </trkpt>
      <trkpt lat="45.92534" lon="6.27543">
        <ele>1484</ele>
        <time>2016-10-02T09:50:41+02:00</time>
      </trkpt>
      <trkpt lat="45.92533" lon="6.27539">
        <ele>1485</ele>
        <time>2016-10-02T09:50:44+02:00</time>
      </trkpt>
      <trkpt lat="45.92531" lon="6.27535">
        <ele>1486</ele>
        <time>2016-10-02T09:50:47+02:00</time>
      </trkpt>
      <trkpt lat="45.92529" lon="6.27531">
        <ele>1487</ele>
        <time>2016-10-02T09:50:50+02:00</time>
      </trkpt>
      <trkpt lat="45.92527" lon="6.27527">
        <ele>1487</ele>
        <time>2016-10-02T09:50:52+02:00</time>
      </trkpt>
      <trkpt lat="45.92525" lon="6.27526">
        <ele>1487</ele>
        <time>2016-10-02T09:50:54+02:00</time>
      </trkpt>
      <trkpt lat="45.92521" lon="6.27524">
        <ele>1487</ele>
        <time>2016-10-02T09:50:57+02:00</time>
      </trkpt>
      <trkpt lat="45.9252" lon="6.27521">
        <ele>1488</ele>
        <time>2016-10-02T09:51:00+02:00</time>
      </trkpt>
      <trkpt lat="45.92518" lon="6.27519">
        <ele>1488</ele>
        <time>2016-10-02T09:51:02+02:00</time>
      </trkpt>
      <trkpt lat="45.92517" lon="6.27516">
        <ele>1488</ele>
        <time>2016-10-02T09:51:04+02:00</time>
      </trkpt>
      <trkpt lat="45.92515" lon="6.27513">
        <ele>1489</ele>
        <time>2016-10-02T09:51:06+02:00</time>
      </trkpt>
      <trkpt lat="45.92512" lon="6.27511">
        <ele>1489</ele>
        <time>2016-10-02T09:51:08+02:00</time>
      </trkpt>
      <trkpt lat="45.92511" lon="6.27509">
        <ele>1489</ele>
        <time>2016-10-02T09:51:10+02:00</time>
      </trkpt>
      <trkpt lat="45.92507" lon="6.27506">
        <ele>1489</ele>
        <time>2016-10-02T09:51:14+02:00</time>
      </trkpt>
      <trkpt lat="45.92504" lon="6.27503">
        <ele>1488</ele>
        <time>2016-10-02T09:51:17+02:00</time>
      </trkpt>
      <trkpt lat="45.92501" lon="6.27501">
        <ele>1488</ele>
        <time>2016-10-02T09:51:19+02:00</time>
      </trkpt>
      <trkpt lat="45.92499" lon="6.275">
        <ele>1488</ele>
        <time>2016-10-02T09:51:21+02:00</time>
      </trkpt>
      <trkpt lat="45.92497" lon="6.27498">
        <ele>1489</ele>
        <time>2016-10-02T09:51:23+02:00</time>
      </trkpt>
      <trkpt lat="45.92494" lon="6.27495">
        <ele>1490</ele>
        <time>2016-10-02T09:51:26+02:00</time>
      </trkpt>
      <trkpt lat="45.92493" lon="6.27493">
        <ele>1491</ele>
        <time>2016-10-02T09:51:28+02:00</time>
      </trkpt>
      <trkpt lat="45.9249" lon="6.27492">
        <ele>1491</ele>
        <time>2016-10-02T09:51:30+02:00</time>
      </trkpt>
      <trkpt lat="45.92488" lon="6.27491">
        <ele>1491</ele>
        <time>2016-10-02T09:51:32+02:00</time>
      </trkpt>
      <trkpt lat="45.92486" lon="6.27489">
        <ele>1492</ele>
        <time>2016-10-02T09:51:34+02:00</time>
      </trkpt>
      <trkpt lat="45.92484" lon="6.27487">
        <ele>1492</ele>
        <time>2016-10-02T09:51:36+02:00</time>
      </trkpt>
      <trkpt lat="45.9248" lon="6.27486">
        <ele>1493</ele>
        <time>2016-10-02T09:51:39+02:00</time>
      </trkpt>
      <trkpt lat="45.92478" lon="6.27485">
        <ele>1493</ele>
        <time>2016-10-02T09:51:40+02:00</time>
      </trkpt>
      <trkpt lat="45.92476" lon="6.27483">
        <ele>1494</ele>
        <time>2016-10-02T09:51:42+02:00</time>
      </trkpt>
      <trkpt lat="45.92474" lon="6.27483">
        <ele>1494</ele>
        <time>2016-10-02T09:51:44+02:00</time>
      </trkpt>
      <trkpt lat="45.92472" lon="6.27481">
        <ele>1494</ele>
        <time>2016-10-02T09:51:47+02:00</time>
      </trkpt>
      <trkpt lat="45.92468" lon="6.27478">
        <ele>1495</ele>
        <time>2016-10-02T09:51:50+02:00</time>
      </trkpt>
      <trkpt lat="45.92466" lon="6.27476">
        <ele>1495</ele>
        <time>2016-10-02T09:51:52+02:00</time>
      </trkpt>
      <trkpt lat="45.92464" lon="6.27475">
        <ele>1496</ele>
        <time>2016-10-02T09:51:54+02:00</time>
      </trkpt>
      <trkpt lat="45.92461" lon="6.27473">
        <ele>1496</ele>
        <time>2016-10-02T09:51:56+02:00</time>
      </trkpt>
      <trkpt lat="45.92459" lon="6.27472">
        <ele>1496</ele>
        <time>2016-10-02T09:51:58+02:00</time>
      </trkpt>
      <trkpt lat="45.92456" lon="6.27471">
        <ele>1497</ele>
        <time>2016-10-02T09:52:00+02:00</time>
      </trkpt>
      <trkpt lat="45.92454" lon="6.27469">
        <ele>1497</ele>
        <time>2016-10-02T09:52:03+02:00</time>
      </trkpt>
      <trkpt lat="45.92451" lon="6.27467">
        <ele>1497</ele>
        <time>2016-10-02T09:52:05+02:00</time>
      </trkpt>
      <trkpt lat="45.92446" lon="6.27464">
        <ele>1498</ele>
        <time>2016-10-02T09:52:10+02:00</time>
      </trkpt>
      <trkpt lat="45.92443" lon="6.27463">
        <ele>1498</ele>
        <time>2016-10-02T09:52:12+02:00</time>
      </trkpt>
      <trkpt lat="45.92439" lon="6.2746">
        <ele>1498</ele>
        <time>2016-10-02T09:52:16+02:00</time>
      </trkpt>
      <trkpt lat="45.92437" lon="6.27459">
        <ele>1498</ele>
        <time>2016-10-02T09:52:18+02:00</time>
      </trkpt>
      <trkpt lat="45.92434" lon="6.27458">
        <ele>1498</ele>
        <time>2016-10-02T09:52:20+02:00</time>
      </trkpt>
      <trkpt lat="45.92431" lon="6.27457">
        <ele>1498</ele>
        <time>2016-10-02T09:52:23+02:00</time>
      </trkpt>
      <trkpt lat="45.92429" lon="6.27456">
        <ele>1498</ele>
        <time>2016-10-02T09:52:25+02:00</time>
      </trkpt>
      <trkpt lat="45.92426" lon="6.27454">
        <ele>1499</ele>
        <time>2016-10-02T09:52:27+02:00</time>
      </trkpt>
      <trkpt lat="45.92423" lon="6.27453">
        <ele>1499</ele>
        <time>2016-10-02T09:52:29+02:00</time>
      </trkpt>
      <trkpt lat="45.92421" lon="6.2745">
        <ele>1499</ele>
        <time>2016-10-02T09:52:31+02:00</time>
      </trkpt>
      <trkpt lat="45.92419" lon="6.27449">
        <ele>1499</ele>
        <time>2016-10-02T09:52:34+02:00</time>
      </trkpt>
      <trkpt lat="45.92417" lon="6.27445">
        <ele>1500</ele>
        <time>2016-10-02T09:52:37+02:00</time>
      </trkpt>
      <trkpt lat="45.92421" lon="6.27453">
        <ele>1498</ele>
        <time>2016-10-02T09:52:42+02:00</time>
      </trkpt>
      <trkpt lat="45.9242" lon="6.2745">
        <ele>1499</ele>
        <time>2016-10-02T09:52:44+02:00</time>
      </trkpt>
      <trkpt lat="45.92416" lon="6.27445">
        <ele>1500</ele>
        <time>2016-10-02T09:52:48+02:00</time>
      </trkpt>
      <trkpt lat="45.92415" lon="6.27442">
        <ele>1501</ele>
        <time>2016-10-02T09:52:50+02:00</time>
      </trkpt>
      <trkpt lat="45.92413" lon="6.27439">
        <ele>1502</ele>
        <time>2016-10-02T09:52:52+02:00</time>
      </trkpt>
      <trkpt lat="45.92411" lon="6.27434">
        <ele>1504</ele>
        <time>2016-10-02T09:52:56+02:00</time>
      </trkpt>
      <trkpt lat="45.92409" lon="6.27429">
        <ele>1505</ele>
        <time>2016-10-02T09:52:59+02:00</time>
      </trkpt>
      <trkpt lat="45.92407" lon="6.2743">
        <ele>1505</ele>
        <time>2016-10-02T09:53:01+02:00</time>
      </trkpt>
      <trkpt lat="45.92406" lon="6.27426">
        <ele>1506</ele>
        <time>2016-10-02T09:53:05+02:00</time>
      </trkpt>
      <trkpt lat="45.92403" lon="6.27423">
        <ele>1506</ele>
        <time>2016-10-02T09:53:09+02:00</time>
      </trkpt>
      <trkpt lat="45.924" lon="6.27419">
        <ele>1507</ele>
        <time>2016-10-02T09:53:12+02:00</time>
      </trkpt>
      <trkpt lat="45.92398" lon="6.27417">
        <ele>1508</ele>
        <time>2016-10-02T09:53:14+02:00</time>
      </trkpt>
      <trkpt lat="45.92396" lon="6.27416">
        <ele>1508</ele>
        <time>2016-10-02T09:53:16+02:00</time>
      </trkpt>
      <trkpt lat="45.92394" lon="6.27414">
        <ele>1509</ele>
        <time>2016-10-02T09:53:18+02:00</time>
      </trkpt>
      <trkpt lat="45.92392" lon="6.27413">
        <ele>1510</ele>
        <time>2016-10-02T09:53:20+02:00</time>
      </trkpt>
      <trkpt lat="45.9239" lon="6.27411">
        <ele>1511</ele>
        <time>2016-10-02T09:53:22+02:00</time>
      </trkpt>
      <trkpt lat="45.92388" lon="6.27409">
        <ele>1512</ele>
        <time>2016-10-02T09:53:24+02:00</time>
      </trkpt>
      <trkpt lat="45.92386" lon="6.27407">
        <ele>1513</ele>
        <time>2016-10-02T09:53:25+02:00</time>
      </trkpt>
      <trkpt lat="45.92384" lon="6.27407">
        <ele>1513</ele>
        <time>2016-10-02T09:53:27+02:00</time>
      </trkpt>
      <trkpt lat="45.92382" lon="6.27407">
        <ele>1512</ele>
        <time>2016-10-02T09:53:29+02:00</time>
      </trkpt>
      <trkpt lat="45.92378" lon="6.27406">
        <ele>1513</ele>
        <time>2016-10-02T09:53:33+02:00</time>
      </trkpt>
      <trkpt lat="45.92376" lon="6.27405">
        <ele>1513</ele>
        <time>2016-10-02T09:53:35+02:00</time>
      </trkpt>
      <trkpt lat="45.92374" lon="6.27404">
        <ele>1514</ele>
        <time>2016-10-02T09:53:37+02:00</time>
      </trkpt>
      <trkpt lat="45.92373" lon="6.27398">
        <ele>1517</ele>
        <time>2016-10-02T09:53:43+02:00</time>
      </trkpt>
      <trkpt lat="45.92364" lon="6.27394">
        <ele>1519</ele>
        <time>2016-10-02T09:53:52+02:00</time>
      </trkpt>
      <trkpt lat="45.92358" lon="6.27388">
        <ele>1521</ele>
        <time>2016-10-02T09:53:58+02:00</time>
      </trkpt>
      <trkpt lat="45.92348" lon="6.27384">
        <ele>1522</ele>
        <time>2016-10-02T09:54:07+02:00</time>
      </trkpt>
      <trkpt lat="45.9234" lon="6.2738">
        <ele>1523</ele>
        <time>2016-10-02T09:54:14+02:00</time>
      </trkpt>
      <trkpt lat="45.92332" lon="6.27376">
        <ele>1524</ele>
        <time>2016-10-02T09:54:21+02:00</time>
      </trkpt>
      <trkpt lat="45.92325" lon="6.27368">
        <ele>1528</ele>
        <time>2016-10-02T09:54:28+02:00</time>
      </trkpt>
      <trkpt lat="45.92317" lon="6.2736">
        <ele>1531</ele>
        <time>2016-10-02T09:54:36+02:00</time>
      </trkpt>
      <trkpt lat="45.92308" lon="6.27352">
        <ele>1534</ele>
        <time>2016-10-02T09:54:45+02:00</time>
      </trkpt>
      <trkpt lat="45.92298" lon="6.27345">
        <ele>1535</ele>
        <time>2016-10-02T09:54:54+02:00</time>
      </trkpt>
      <trkpt lat="45.92291" lon="6.27335">
        <ele>1537</ele>
        <time>2016-10-02T09:55:02+02:00</time>
      </trkpt>
      <trkpt lat="45.92282" lon="6.27327">
        <ele>1540</ele>
        <time>2016-10-02T09:55:11+02:00</time>
      </trkpt>
      <trkpt lat="45.92274" lon="6.27319">
        <ele>1543</ele>
        <time>2016-10-02T09:55:19+02:00</time>
      </trkpt>
      <trkpt lat="45.92265" lon="6.27313">
        <ele>1545</ele>
        <time>2016-10-02T09:55:27+02:00</time>
      </trkpt>
      <trkpt lat="45.9226" lon="6.27305">
        <ele>1549</ele>
        <time>2016-10-02T09:55:34+02:00</time>
      </trkpt>
      <trkpt lat="45.92253" lon="6.27299">
        <ele>1552</ele>
        <time>2016-10-02T09:55:41+02:00</time>
      </trkpt>
      <trkpt lat="45.92245" lon="6.27287">
        <ele>1558</ele>
        <time>2016-10-02T09:55:50+02:00</time>
      </trkpt>
      <trkpt lat="45.92238" lon="6.27275">
        <ele>1565</ele>
        <time>2016-10-02T09:55:59+02:00</time>
      </trkpt>
      <trkpt lat="45.92232" lon="6.27268">
        <ele>1568</ele>
        <time>2016-10-02T09:56:05+02:00</time>
      </trkpt>
      <trkpt lat="45.92226" lon="6.27258">
        <ele>1572</ele>
        <time>2016-10-02T09:56:14+02:00</time>
      </trkpt>
      <trkpt lat="45.92216" lon="6.27253">
        <ele>1573</ele>
        <time>2016-10-02T09:56:23+02:00</time>
      </trkpt>
      <trkpt lat="45.9221" lon="6.27249">
        <ele>1574</ele>
        <time>2016-10-02T09:56:29+02:00</time>
      </trkpt>
      <trkpt lat="45.92221" lon="6.27242">
        <ele>1580</ele>
        <time>2016-10-02T09:56:39+02:00</time>
      </trkpt>
      <trkpt lat="45.92231" lon="6.27241">
        <ele>1582</ele>
        <time>2016-10-02T09:56:49+02:00</time>
      </trkpt>
      <trkpt lat="45.92236" lon="6.27232">
        <ele>1587</ele>
        <time>2016-10-02T09:56:56+02:00</time>
      </trkpt>
      <trkpt lat="45.92241" lon="6.2723">
        <ele>1589</ele>
        <time>2016-10-02T09:57:02+02:00</time>
      </trkpt>
      <trkpt lat="45.92248" lon="6.27218">
        <ele>1595</ele>
        <time>2016-10-02T09:57:12+02:00</time>
      </trkpt>
      <trkpt lat="45.92255" lon="6.27222">
        <ele>1594</ele>
        <time>2016-10-02T09:57:19+02:00</time>
      </trkpt>
      <trkpt lat="45.92264" lon="6.27228">
        <ele>1592</ele>
        <time>2016-10-02T09:57:27+02:00</time>
      </trkpt>
      <trkpt lat="45.92273" lon="6.27228">
        <ele>1593</ele>
        <time>2016-10-02T09:57:34+02:00</time>
      </trkpt>
      <trkpt lat="45.9228" lon="6.27227">
        <ele>1594</ele>
        <time>2016-10-02T09:57:40+02:00</time>
      </trkpt>
      <trkpt lat="45.92288" lon="6.27225">
        <ele>1596</ele>
        <time>2016-10-02T09:57:46+02:00</time>
      </trkpt>
      <trkpt lat="45.92296" lon="6.27223">
        <ele>1597</ele>
        <time>2016-10-02T09:57:53+02:00</time>
      </trkpt>
      <trkpt lat="45.92303" lon="6.2723">
        <ele>1595</ele>
        <time>2016-10-02T09:58:00+02:00</time>
      </trkpt>
      <trkpt lat="45.92311" lon="6.27234">
        <ele>1594</ele>
        <time>2016-10-02T09:58:07+02:00</time>
      </trkpt>
      <trkpt lat="45.9232" lon="6.27233">
        <ele>1596</ele>
        <time>2016-10-02T09:58:14+02:00</time>
      </trkpt>
      <trkpt lat="45.92327" lon="6.27231">
        <ele>1597</ele>
        <time>2016-10-02T09:58:20+02:00</time>
      </trkpt>
      <trkpt lat="45.92337" lon="6.27225">
        <ele>1599</ele>
        <time>2016-10-02T09:58:29+02:00</time>
      </trkpt>
      <trkpt lat="45.92346" lon="6.27217">
        <ele>1603</ele>
        <time>2016-10-02T09:58:37+02:00</time>
      </trkpt>
      <trkpt lat="45.92353" lon="6.2721">
        <ele>1605</ele>
        <time>2016-10-02T09:58:44+02:00</time>
      </trkpt>
      <trkpt lat="45.92361" lon="6.27204">
        <ele>1608</ele>
        <time>2016-10-02T09:58:52+02:00</time>
      </trkpt>
      <trkpt lat="45.92367" lon="6.27196">
        <ele>1611</ele>
        <time>2016-10-02T09:58:58+02:00</time>
      </trkpt>
      <trkpt lat="45.92362" lon="6.27187">
        <ele>1614</ele>
        <time>2016-10-02T09:59:06+02:00</time>
      </trkpt>
      <trkpt lat="45.92358" lon="6.2718">
        <ele>1616</ele>
        <time>2016-10-02T09:59:11+02:00</time>
      </trkpt>
      <trkpt lat="45.92359" lon="6.27169">
        <ele>1619</ele>
        <time>2016-10-02T09:59:18+02:00</time>
      </trkpt>
      <trkpt lat="45.92351" lon="6.27164">
        <ele>1621</ele>
        <time>2016-10-02T09:59:25+02:00</time>
      </trkpt>
      <trkpt lat="45.92343" lon="6.27162">
        <ele>1621</ele>
        <time>2016-10-02T09:59:32+02:00</time>
      </trkpt>
      <trkpt lat="45.92336" lon="6.27155">
        <ele>1623</ele>
        <time>2016-10-02T09:59:39+02:00</time>
      </trkpt>
      <trkpt lat="45.92338" lon="6.27147">
        <ele>1625</ele>
        <time>2016-10-02T09:59:44+02:00</time>
      </trkpt>
      <trkpt lat="45.92339" lon="6.27139">
        <ele>1628</ele>
        <time>2016-10-02T09:59:50+02:00</time>
      </trkpt>
      <trkpt lat="45.92334" lon="6.27129">
        <ele>1631</ele>
        <time>2016-10-02T09:59:57+02:00</time>
      </trkpt>
      <trkpt lat="45.92326" lon="6.27118">
        <ele>1634</ele>
        <time>2016-10-02T10:00:06+02:00</time>
      </trkpt>
      <trkpt lat="45.92321" lon="6.2711">
        <ele>1637</ele>
        <time>2016-10-02T10:00:12+02:00</time>
      </trkpt>
      <trkpt lat="45.92325" lon="6.27101">
        <ele>1640</ele>
        <time>2016-10-02T10:00:18+02:00</time>
      </trkpt>
      <trkpt lat="45.92329" lon="6.27086">
        <ele>1645</ele>
        <time>2016-10-02T10:00:27+02:00</time>
      </trkpt>
      <trkpt lat="45.92337" lon="6.27078">
        <ele>1647</ele>
        <time>2016-10-02T10:00:36+02:00</time>
      </trkpt>
      <trkpt lat="45.92346" lon="6.27071">
        <ele>1648</ele>
        <time>2016-10-02T10:00:44+02:00</time>
      </trkpt>
      <trkpt lat="45.92354" lon="6.27066">
        <ele>1649</ele>
        <time>2016-10-02T10:00:51+02:00</time>
      </trkpt>
      <trkpt lat="45.92358" lon="6.27057">
        <ele>1651</ele>
        <time>2016-10-02T10:00:58+02:00</time>
      </trkpt>
      <trkpt lat="45.92359" lon="6.27043">
        <ele>1654</ele>
        <time>2016-10-02T10:01:06+02:00</time>
      </trkpt>
      <trkpt lat="45.92365" lon="6.27034">
        <ele>1656</ele>
        <time>2016-10-02T10:01:12+02:00</time>
      </trkpt>
      <trkpt lat="45.9237" lon="6.27025">
        <ele>1658</ele>
        <time>2016-10-02T10:01:19+02:00</time>
      </trkpt>
      <trkpt lat="45.92378" lon="6.27016">
        <ele>1659</ele>
        <time>2016-10-02T10:01:27+02:00</time>
      </trkpt>
      <trkpt lat="45.92382" lon="6.27006">
        <ele>1661</ele>
        <time>2016-10-02T10:01:34+02:00</time>
      </trkpt>
      <trkpt lat="45.92386" lon="6.26995">
        <ele>1663</ele>
        <time>2016-10-02T10:01:41+02:00</time>
      </trkpt>
      <trkpt lat="45.9239" lon="6.26985">
        <ele>1665</ele>
        <time>2016-10-02T10:01:48+02:00</time>
      </trkpt>
      <trkpt lat="45.92396" lon="6.26978">
        <ele>1666</ele>
        <time>2016-10-02T10:01:54+02:00</time>
      </trkpt>
      <trkpt lat="45.92392" lon="6.26967">
        <ele>1668</ele>
        <time>2016-10-02T10:02:02+02:00</time>
      </trkpt>
      <trkpt lat="45.92396" lon="6.26956">
        <ele>1669</ele>
        <time>2016-10-02T10:02:09+02:00</time>
      </trkpt>
      <trkpt lat="45.92402" lon="6.26948">
        <ele>1670</ele>
        <time>2016-10-02T10:02:16+02:00</time>
      </trkpt>
      <trkpt lat="45.92403" lon="6.26937">
        <ele>1672</ele>
        <time>2016-10-02T10:02:22+02:00</time>
      </trkpt>
      <trkpt lat="45.92403" lon="6.26925">
        <ele>1674</ele>
        <time>2016-10-02T10:02:29+02:00</time>
      </trkpt>
      <trkpt lat="45.92409" lon="6.26914">
        <ele>1675</ele>
        <time>2016-10-02T10:02:36+02:00</time>
      </trkpt>
      <trkpt lat="45.92415" lon="6.26908">
        <ele>1675</ele>
        <time>2016-10-02T10:02:42+02:00</time>
      </trkpt>
      <trkpt lat="45.9242" lon="6.269">
        <ele>1675</ele>
        <time>2016-10-02T10:02:49+02:00</time>
      </trkpt>
      <trkpt lat="45.92424" lon="6.2689">
        <ele>1675</ele>
        <time>2016-10-02T10:02:55+02:00</time>
      </trkpt>
      <trkpt lat="45.92425" lon="6.26876">
        <ele>1676</ele>
        <time>2016-10-02T10:03:03+02:00</time>
      </trkpt>
      <trkpt lat="45.92426" lon="6.26865">
        <ele>1677</ele>
        <time>2016-10-02T10:03:09+02:00</time>
      </trkpt>
      <trkpt lat="45.92426" lon="6.26854">
        <ele>1678</ele>
        <time>2016-10-02T10:03:15+02:00</time>
      </trkpt>
      <trkpt lat="45.9243" lon="6.26842">
        <ele>1679</ele>
        <time>2016-10-02T10:03:23+02:00</time>
      </trkpt>
      <trkpt lat="45.92431" lon="6.2683">
        <ele>1679</ele>
        <time>2016-10-02T10:03:29+02:00</time>
      </trkpt>
      <trkpt lat="45.9243" lon="6.26816">
        <ele>1680</ele>
        <time>2016-10-02T10:03:37+02:00</time>
      </trkpt>
      <trkpt lat="45.92432" lon="6.26804">
        <ele>1680</ele>
        <time>2016-10-02T10:03:44+02:00</time>
      </trkpt>
      <trkpt lat="45.92429" lon="6.26793">
        <ele>1681</ele>
        <time>2016-10-02T10:03:50+02:00</time>
      </trkpt>
      <trkpt lat="45.92429" lon="6.2678">
        <ele>1681</ele>
        <time>2016-10-02T10:03:57+02:00</time>
      </trkpt>
      <trkpt lat="45.9243" lon="6.26766">
        <ele>1681</ele>
        <time>2016-10-02T10:04:06+02:00</time>
      </trkpt>
      <trkpt lat="45.92431" lon="6.26751">
        <ele>1682</ele>
        <time>2016-10-02T10:04:14+02:00</time>
      </trkpt>
      <trkpt lat="45.92429" lon="6.26739">
        <ele>1682</ele>
        <time>2016-10-02T10:04:21+02:00</time>
      </trkpt>
      <trkpt lat="45.92426" lon="6.26727">
        <ele>1682</ele>
        <time>2016-10-02T10:04:28+02:00</time>
      </trkpt>
      <trkpt lat="45.92426" lon="6.26713">
        <ele>1682</ele>
        <time>2016-10-02T10:04:36+02:00</time>
      </trkpt>
      <trkpt lat="45.92428" lon="6.26703">
        <ele>1681</ele>
        <time>2016-10-02T10:04:42+02:00</time>
      </trkpt>
      <trkpt lat="45.92432" lon="6.26693">
        <ele>1680</ele>
        <time>2016-10-02T10:04:48+02:00</time>
      </trkpt>
      <trkpt lat="45.92432" lon="6.2668">
        <ele>1680</ele>
        <time>2016-10-02T10:04:55+02:00</time>
      </trkpt>
      <trkpt lat="45.92433" lon="6.26668">
        <ele>1679</ele>
        <time>2016-10-02T10:05:02+02:00</time>
      </trkpt>
      <trkpt lat="45.92434" lon="6.26656">
        <ele>1678</ele>
        <time>2016-10-02T10:05:09+02:00</time>
      </trkpt>
      <trkpt lat="45.92433" lon="6.26644">
        <ele>1677</ele>
        <time>2016-10-02T10:05:16+02:00</time>
      </trkpt>
      <trkpt lat="45.92433" lon="6.26631">
        <ele>1676</ele>
        <time>2016-10-02T10:05:23+02:00</time>
      </trkpt>
      <trkpt lat="45.92428" lon="6.26617">
        <ele>1675</ele>
        <time>2016-10-02T10:05:32+02:00</time>
      </trkpt>
      <trkpt lat="45.9243" lon="6.26607">
        <ele>1674</ele>
        <time>2016-10-02T10:05:38+02:00</time>
      </trkpt>
      <trkpt lat="45.92429" lon="6.26595">
        <ele>1673</ele>
        <time>2016-10-02T10:05:45+02:00</time>
      </trkpt>
      <trkpt lat="45.92424" lon="6.26584">
        <ele>1673</ele>
        <time>2016-10-02T10:05:51+02:00</time>
      </trkpt>
      <trkpt lat="45.92424" lon="6.26573">
        <ele>1672</ele>
        <time>2016-10-02T10:05:58+02:00</time>
      </trkpt>
      <trkpt lat="45.92421" lon="6.2656">
        <ele>1671</ele>
        <time>2016-10-02T10:06:05+02:00</time>
      </trkpt>
      <trkpt lat="45.92417" lon="6.26548">
        <ele>1671</ele>
        <time>2016-10-02T10:06:13+02:00</time>
      </trkpt>
      <trkpt lat="45.9241" lon="6.26542">
        <ele>1671</ele>
        <time>2016-10-02T10:06:19+02:00</time>
      </trkpt>
      <trkpt lat="45.92402" lon="6.26532">
        <ele>1672</ele>
        <time>2016-10-02T10:06:28+02:00</time>
      </trkpt>
      <trkpt lat="45.924" lon="6.26518">
        <ele>1671</ele>
        <time>2016-10-02T10:06:35+02:00</time>
      </trkpt>
      <trkpt lat="45.92395" lon="6.26504">
        <ele>1671</ele>
        <time>2016-10-02T10:06:44+02:00</time>
      </trkpt>
      <trkpt lat="45.92396" lon="6.2649">
        <ele>1669</ele>
        <time>2016-10-02T10:06:52+02:00</time>
      </trkpt>
      <trkpt lat="45.92398" lon="6.26476">
        <ele>1667</ele>
        <time>2016-10-02T10:07:00+02:00</time>
      </trkpt>
      <trkpt lat="45.92398" lon="6.26463">
        <ele>1665</ele>
        <time>2016-10-02T10:07:07+02:00</time>
      </trkpt>
      <trkpt lat="45.92403" lon="6.26453">
        <ele>1663</ele>
        <time>2016-10-02T10:07:14+02:00</time>
      </trkpt>
      <trkpt lat="45.92409" lon="6.26443">
        <ele>1661</ele>
        <time>2016-10-02T10:07:22+02:00</time>
      </trkpt>
      <trkpt lat="45.92413" lon="6.26434">
        <ele>1659</ele>
        <time>2016-10-02T10:07:28+02:00</time>
      </trkpt>
      <trkpt lat="45.92417" lon="6.26424">
        <ele>1657</ele>
        <time>2016-10-02T10:07:34+02:00</time>
      </trkpt>
      <trkpt lat="45.92417" lon="6.26409">
        <ele>1655</ele>
        <time>2016-10-02T10:07:43+02:00</time>
      </trkpt>
      <trkpt lat="45.92423" lon="6.26404">
        <ele>1653</ele>
        <time>2016-10-02T10:07:49+02:00</time>
      </trkpt>
      <trkpt lat="45.92426" lon="6.26395">
        <ele>1652</ele>
        <time>2016-10-02T10:07:55+02:00</time>
      </trkpt>
      <trkpt lat="45.92425" lon="6.26382">
        <ele>1651</ele>
        <time>2016-10-02T10:08:03+02:00</time>
      </trkpt>
      <trkpt lat="45.92428" lon="6.26373">
        <ele>1649</ele>
        <time>2016-10-02T10:08:08+02:00</time>
      </trkpt>
      <trkpt lat="45.92436" lon="6.26373">
        <ele>1647</ele>
        <time>2016-10-02T10:08:15+02:00</time>
      </trkpt>
      <trkpt lat="45.9244" lon="6.26362">
        <ele>1646</ele>
        <time>2016-10-02T10:08:22+02:00</time>
      </trkpt>
      <trkpt lat="45.92441" lon="6.26349">
        <ele>1644</ele>
        <time>2016-10-02T10:08:30+02:00</time>
      </trkpt>
      <trkpt lat="45.92443" lon="6.26337">
        <ele>1642</ele>
        <time>2016-10-02T10:08:37+02:00</time>
      </trkpt>
      <trkpt lat="45.9244" lon="6.26323">
        <ele>1641</ele>
        <time>2016-10-02T10:08:45+02:00</time>
      </trkpt>
      <trkpt lat="45.92443" lon="6.26313">
        <ele>1639</ele>
        <time>2016-10-02T10:08:52+02:00</time>
      </trkpt>
      <trkpt lat="45.92446" lon="6.26301">
        <ele>1638</ele>
        <time>2016-10-02T10:08:59+02:00</time>
      </trkpt>
      <trkpt lat="45.92448" lon="6.26288">
        <ele>1636</ele>
        <time>2016-10-02T10:09:07+02:00</time>
      </trkpt>
      <trkpt lat="45.92453" lon="6.26276">
        <ele>1634</ele>
        <time>2016-10-02T10:09:14+02:00</time>
      </trkpt>
      <trkpt lat="45.92454" lon="6.26263">
        <ele>1632</ele>
        <time>2016-10-02T10:09:22+02:00</time>
      </trkpt>
      <trkpt lat="45.92458" lon="6.2625">
        <ele>1630</ele>
        <time>2016-10-02T10:09:30+02:00</time>
      </trkpt>
      <trkpt lat="45.92465" lon="6.26243">
        <ele>1628</ele>
        <time>2016-10-02T10:09:37+02:00</time>
      </trkpt>
      <trkpt lat="45.92473" lon="6.26236">
        <ele>1625</ele>
        <time>2016-10-02T10:09:45+02:00</time>
      </trkpt>
      <trkpt lat="45.92481" lon="6.2623">
        <ele>1623</ele>
        <time>2016-10-02T10:09:52+02:00</time>
      </trkpt>
      <trkpt lat="45.92488" lon="6.26223">
        <ele>1621</ele>
        <time>2016-10-02T10:09:59+02:00</time>
      </trkpt>
      <trkpt lat="45.92492" lon="6.26214">
        <ele>1619</ele>
        <time>2016-10-02T10:10:05+02:00</time>
      </trkpt>
      <trkpt lat="45.92493" lon="6.26204">
        <ele>1617</ele>
        <time>2016-10-02T10:10:11+02:00</time>
      </trkpt>
      <trkpt lat="45.92493" lon="6.26192">
        <ele>1616</ele>
        <time>2016-10-02T10:10:18+02:00</time>
      </trkpt>
      <trkpt lat="45.92497" lon="6.26182">
        <ele>1614</ele>
        <time>2016-10-02T10:10:24+02:00</time>
      </trkpt>
      <trkpt lat="45.92499" lon="6.26171">
        <ele>1612</ele>
        <time>2016-10-02T10:10:31+02:00</time>
      </trkpt>
      <trkpt lat="45.92503" lon="6.26159">
        <ele>1609</ele>
        <time>2016-10-02T10:10:38+02:00</time>
      </trkpt>
      <trkpt lat="45.92504" lon="6.26146">
        <ele>1607</ele>
        <time>2016-10-02T10:10:46+02:00</time>
      </trkpt>
      <trkpt lat="45.92506" lon="6.26132">
        <ele>1605</ele>
        <time>2016-10-02T10:10:54+02:00</time>
      </trkpt>
      <trkpt lat="45.92511" lon="6.26125">
        <ele>1602</ele>
        <time>2016-10-02T10:11:00+02:00</time>
      </trkpt>
      <trkpt lat="45.92513" lon="6.26113">
        <ele>1600</ele>
        <time>2016-10-02T10:11:07+02:00</time>
      </trkpt>
      <trkpt lat="45.92516" lon="6.26101">
        <ele>1597</ele>
        <time>2016-10-02T10:11:14+02:00</time>
      </trkpt>
      <trkpt lat="45.92517" lon="6.26089">
        <ele>1595</ele>
        <time>2016-10-02T10:11:21+02:00</time>
      </trkpt>
      <trkpt lat="45.92521" lon="6.26079">
        <ele>1592</ele>
        <time>2016-10-02T10:11:28+02:00</time>
      </trkpt>
      <trkpt lat="45.92526" lon="6.26069">
        <ele>1589</ele>
        <time>2016-10-02T10:11:36+02:00</time>
      </trkpt>
      <trkpt lat="45.92533" lon="6.26058">
        <ele>1584</ele>
        <time>2016-10-02T10:11:45+02:00</time>
      </trkpt>
      <trkpt lat="45.9254" lon="6.26047">
        <ele>1581</ele>
        <time>2016-10-02T10:11:52+02:00</time>
      </trkpt>
      <trkpt lat="45.92548" lon="6.26034">
        <ele>1576</ele>
        <time>2016-10-02T10:12:03+02:00</time>
      </trkpt>
      <trkpt lat="45.92555" lon="6.26022">
        <ele>1571</ele>
        <time>2016-10-02T10:12:12+02:00</time>
      </trkpt>
      <trkpt lat="45.92558" lon="6.26005">
        <ele>1568</ele>
        <time>2016-10-02T10:12:22+02:00</time>
      </trkpt>
      <trkpt lat="45.92564" lon="6.25987">
        <ele>1563</ele>
        <time>2016-10-02T10:12:33+02:00</time>
      </trkpt>
      <trkpt lat="45.92563" lon="6.25977">
        <ele>1562</ele>
        <time>2016-10-02T10:12:39+02:00</time>
      </trkpt>
      <trkpt lat="45.92556" lon="6.25971">
        <ele>1563</ele>
        <time>2016-10-02T10:12:45+02:00</time>
      </trkpt>
      <trkpt lat="45.9255" lon="6.25963">
        <ele>1564</ele>
        <time>2016-10-02T10:12:52+02:00</time>
      </trkpt>
      <trkpt lat="45.92547" lon="6.25949">
        <ele>1563</ele>
        <time>2016-10-02T10:13:01+02:00</time>
      </trkpt>
      <trkpt lat="45.92546" lon="6.25938">
        <ele>1561</ele>
        <time>2016-10-02T10:13:07+02:00</time>
      </trkpt>
      <trkpt lat="45.92542" lon="6.25924">
        <ele>1561</ele>
        <time>2016-10-02T10:13:15+02:00</time>
      </trkpt>
      <trkpt lat="45.92539" lon="6.25911">
        <ele>1560</ele>
        <time>2016-10-02T10:13:23+02:00</time>
      </trkpt>
      <trkpt lat="45.92529" lon="6.2589">
        <ele>1559</ele>
        <time>2016-10-02T10:13:37+02:00</time>
      </trkpt>
      <trkpt lat="45.92525" lon="6.25877">
        <ele>1559</ele>
        <time>2016-10-02T10:13:45+02:00</time>
      </trkpt>
      <trkpt lat="45.9252" lon="6.25868">
        <ele>1559</ele>
        <time>2016-10-02T10:13:52+02:00</time>
      </trkpt>
      <trkpt lat="45.92519" lon="6.25846">
        <ele>1555</ele>
        <time>2016-10-02T10:14:04+02:00</time>
      </trkpt>
      <trkpt lat="45.92517" lon="6.25835">
        <ele>1554</ele>
        <time>2016-10-02T10:14:10+02:00</time>
      </trkpt>
      <trkpt lat="45.92515" lon="6.25822">
        <ele>1553</ele>
        <time>2016-10-02T10:14:18+02:00</time>
      </trkpt>
      <trkpt lat="45.92511" lon="6.25805">
        <ele>1551</ele>
        <time>2016-10-02T10:14:28+02:00</time>
      </trkpt>
      <trkpt lat="45.9251" lon="6.25787">
        <ele>1549</ele>
        <time>2016-10-02T10:14:39+02:00</time>
      </trkpt>
      <trkpt lat="45.92511" lon="6.25775">
        <ele>1547</ele>
        <time>2016-10-02T10:14:45+02:00</time>
      </trkpt>
      <trkpt lat="45.92506" lon="6.25763">
        <ele>1547</ele>
        <time>2016-10-02T10:14:53+02:00</time>
      </trkpt>
      <trkpt lat="45.92504" lon="6.25748">
        <ele>1545</ele>
        <time>2016-10-02T10:15:02+02:00</time>
      </trkpt>
      <trkpt lat="45.92503" lon="6.25734">
        <ele>1545</ele>
        <time>2016-10-02T10:15:10+02:00</time>
      </trkpt>
      <trkpt lat="45.92501" lon="6.25719">
        <ele>1544</ele>
        <time>2016-10-02T10:15:18+02:00</time>
      </trkpt>
      <trkpt lat="45.92499" lon="6.25708">
        <ele>1544</ele>
        <time>2016-10-02T10:15:25+02:00</time>
      </trkpt>
      <trkpt lat="45.92498" lon="6.25696">
        <ele>1543</ele>
        <time>2016-10-02T10:15:32+02:00</time>
      </trkpt>
      <trkpt lat="45.92501" lon="6.25676">
        <ele>1541</ele>
        <time>2016-10-02T10:15:43+02:00</time>
      </trkpt>
      <trkpt lat="45.92504" lon="6.25665">
        <ele>1540</ele>
        <time>2016-10-02T10:15:50+02:00</time>
      </trkpt>
      <trkpt lat="45.92505" lon="6.25648">
        <ele>1541</ele>
        <time>2016-10-02T10:15:59+02:00</time>
      </trkpt>
      <trkpt lat="45.92509" lon="6.25629">
        <ele>1541</ele>
        <time>2016-10-02T10:16:10+02:00</time>
      </trkpt>
      <trkpt lat="45.92511" lon="6.25612">
        <ele>1542</ele>
        <time>2016-10-02T10:16:20+02:00</time>
      </trkpt>
      <trkpt lat="45.9251" lon="6.25594">
        <ele>1542</ele>
        <time>2016-10-02T10:16:30+02:00</time>
      </trkpt>
      <trkpt lat="45.92516" lon="6.25578">
        <ele>1543</ele>
        <time>2016-10-02T10:16:40+02:00</time>
      </trkpt>
      <trkpt lat="45.92522" lon="6.25559">
        <ele>1544</ele>
        <time>2016-10-02T10:16:52+02:00</time>
      </trkpt>
      <trkpt lat="45.92526" lon="6.25538">
        <ele>1546</ele>
        <time>2016-10-02T10:17:04+02:00</time>
      </trkpt>
      <trkpt lat="45.92531" lon="6.25529">
        <ele>1547</ele>
        <time>2016-10-02T10:17:10+02:00</time>
      </trkpt>
      <trkpt lat="45.92537" lon="6.25521">
        <ele>1547</ele>
        <time>2016-10-02T10:17:17+02:00</time>
      </trkpt>
      <trkpt lat="45.92542" lon="6.2551">
        <ele>1548</ele>
        <time>2016-10-02T10:17:24+02:00</time>
      </trkpt>
      <trkpt lat="45.92551" lon="6.25495">
        <ele>1549</ele>
        <time>2016-10-02T10:17:35+02:00</time>
      </trkpt>
      <trkpt lat="45.9256" lon="6.25481">
        <ele>1550</ele>
        <time>2016-10-02T10:17:46+02:00</time>
      </trkpt>
      <trkpt lat="45.92569" lon="6.25468">
        <ele>1551</ele>
        <time>2016-10-02T10:17:57+02:00</time>
      </trkpt>
      <trkpt lat="45.92577" lon="6.25457">
        <ele>1552</ele>
        <time>2016-10-02T10:18:06+02:00</time>
      </trkpt>
      <trkpt lat="45.92587" lon="6.25445">
        <ele>1553</ele>
        <time>2016-10-02T10:18:17+02:00</time>
      </trkpt>
      <trkpt lat="45.92596" lon="6.25429">
        <ele>1555</ele>
        <time>2016-10-02T10:18:28+02:00</time>
      </trkpt>
      <trkpt lat="45.92601" lon="6.25421">
        <ele>1555</ele>
        <time>2016-10-02T10:18:34+02:00</time>
      </trkpt>
      <trkpt lat="45.92611" lon="6.25408">
        <ele>1556</ele>
        <time>2016-10-02T10:18:45+02:00</time>
      </trkpt>
      <trkpt lat="45.9262" lon="6.25394">
        <ele>1558</ele>
        <time>2016-10-02T10:18:55+02:00</time>
      </trkpt>
      <trkpt lat="45.92632" lon="6.2538">
        <ele>1559</ele>
        <time>2016-10-02T10:19:08+02:00</time>
      </trkpt>
      <trkpt lat="45.92639" lon="6.25373">
        <ele>1559</ele>
        <time>2016-10-02T10:19:14+02:00</time>
      </trkpt>
      <trkpt lat="45.92645" lon="6.25366">
        <ele>1560</ele>
        <time>2016-10-02T10:19:21+02:00</time>
      </trkpt>
      <trkpt lat="45.92653" lon="6.25362">
        <ele>1560</ele>
        <time>2016-10-02T10:19:28+02:00</time>
      </trkpt>
      <trkpt lat="45.92663" lon="6.25351">
        <ele>1561</ele>
        <time>2016-10-02T10:19:38+02:00</time>
      </trkpt>
      <trkpt lat="45.92675" lon="6.25342">
        <ele>1561</ele>
        <time>2016-10-02T10:19:49+02:00</time>
      </trkpt>
      <trkpt lat="45.92683" lon="6.25331">
        <ele>1562</ele>
        <time>2016-10-02T10:19:57+02:00</time>
      </trkpt>
      <trkpt lat="45.9269" lon="6.25318">
        <ele>1563</ele>
        <time>2016-10-02T10:20:07+02:00</time>
      </trkpt>
      <trkpt lat="45.92696" lon="6.2531">
        <ele>1564</ele>
        <time>2016-10-02T10:20:13+02:00</time>
      </trkpt>
      <trkpt lat="45.92702" lon="6.253">
        <ele>1565</ele>
        <time>2016-10-02T10:20:21+02:00</time>
      </trkpt>
      <trkpt lat="45.92709" lon="6.25291">
        <ele>1566</ele>
        <time>2016-10-02T10:20:28+02:00</time>
      </trkpt>
      <trkpt lat="45.92715" lon="6.25286">
        <ele>1566</ele>
        <time>2016-10-02T10:20:34+02:00</time>
      </trkpt>
      <trkpt lat="45.92725" lon="6.25279">
        <ele>1567</ele>
        <time>2016-10-02T10:20:42+02:00</time>
      </trkpt>
      <trkpt lat="45.92732" lon="6.25272">
        <ele>1568</ele>
        <time>2016-10-02T10:20:50+02:00</time>
      </trkpt>
      <trkpt lat="45.92742" lon="6.2526">
        <ele>1569</ele>
        <time>2016-10-02T10:21:00+02:00</time>
      </trkpt>
      <trkpt lat="45.92746" lon="6.25274">
        <ele>1567</ele>
        <time>2016-10-02T10:21:09+02:00</time>
      </trkpt>
      <trkpt lat="45.92746" lon="6.2529">
        <ele>1564</ele>
        <time>2016-10-02T10:21:18+02:00</time>
      </trkpt>
      <trkpt lat="45.92747" lon="6.25305">
        <ele>1562</ele>
        <time>2016-10-02T10:21:26+02:00</time>
      </trkpt>
      <trkpt lat="45.92753" lon="6.25315">
        <ele>1560</ele>
        <time>2016-10-02T10:21:33+02:00</time>
      </trkpt>
      <trkpt lat="45.9276" lon="6.2532">
        <ele>1560</ele>
        <time>2016-10-02T10:21:39+02:00</time>
      </trkpt>
      <trkpt lat="45.92768" lon="6.25321">
        <ele>1560</ele>
        <time>2016-10-02T10:21:46+02:00</time>
      </trkpt>
      <trkpt lat="45.92776" lon="6.25322">
        <ele>1560</ele>
        <time>2016-10-02T10:21:53+02:00</time>
      </trkpt>
      <trkpt lat="45.92785" lon="6.25325">
        <ele>1560</ele>
        <time>2016-10-02T10:22:00+02:00</time>
      </trkpt>
      <trkpt lat="45.92795" lon="6.25327">
        <ele>1561</ele>
        <time>2016-10-02T10:22:08+02:00</time>
      </trkpt>
      <trkpt lat="45.92806" lon="6.25331">
        <ele>1561</ele>
        <time>2016-10-02T10:22:17+02:00</time>
      </trkpt>
      <trkpt lat="45.92818" lon="6.25338">
        <ele>1560</ele>
        <time>2016-10-02T10:22:28+02:00</time>
      </trkpt>
      <trkpt lat="45.9283" lon="6.25349">
        <ele>1559</ele>
        <time>2016-10-02T10:22:39+02:00</time>
      </trkpt>
      <trkpt lat="45.92844" lon="6.25359">
        <ele>1558</ele>
        <time>2016-10-02T10:22:51+02:00</time>
      </trkpt>
      <trkpt lat="45.92851" lon="6.25365">
        <ele>1558</ele>
        <time>2016-10-02T10:22:58+02:00</time>
      </trkpt>
      <trkpt lat="45.92859" lon="6.25373">
        <ele>1557</ele>
        <time>2016-10-02T10:23:06+02:00</time>
      </trkpt>
      <trkpt lat="45.92872" lon="6.25375">
        <ele>1557</ele>
        <time>2016-10-02T10:23:16+02:00</time>
      </trkpt>
      <trkpt lat="45.92882" lon="6.2538">
        <ele>1557</ele>
        <time>2016-10-02T10:23:25+02:00</time>
      </trkpt>
      <trkpt lat="45.92891" lon="6.25385">
        <ele>1557</ele>
        <time>2016-10-02T10:23:33+02:00</time>
      </trkpt>
      <trkpt lat="45.92903" lon="6.25391">
        <ele>1557</ele>
        <time>2016-10-02T10:23:42+02:00</time>
      </trkpt>
      <trkpt lat="45.92913" lon="6.25397">
        <ele>1557</ele>
        <time>2016-10-02T10:23:52+02:00</time>
      </trkpt>
      <trkpt lat="45.92923" lon="6.25405">
        <ele>1557</ele>
        <time>2016-10-02T10:24:01+02:00</time>
      </trkpt>
      <trkpt lat="45.92933" lon="6.25411">
        <ele>1557</ele>
        <time>2016-10-02T10:24:09+02:00</time>
      </trkpt>
      <trkpt lat="45.92942" lon="6.25418">
        <ele>1556</ele>
        <time>2016-10-02T10:24:17+02:00</time>
      </trkpt>
      <trkpt lat="45.92948" lon="6.25426">
        <ele>1555</ele>
        <time>2016-10-02T10:24:24+02:00</time>
      </trkpt>
      <trkpt lat="45.92956" lon="6.25433">
        <ele>1554</ele>
        <time>2016-10-02T10:24:32+02:00</time>
      </trkpt>
      <trkpt lat="45.92965" lon="6.25437">
        <ele>1554</ele>
        <time>2016-10-02T10:24:40+02:00</time>
      </trkpt>
      <trkpt lat="45.92975" lon="6.25442">
        <ele>1554</ele>
        <time>2016-10-02T10:24:49+02:00</time>
      </trkpt>
      <trkpt lat="45.92985" lon="6.25446">
        <ele>1554</ele>
        <time>2016-10-02T10:24:57+02:00</time>
      </trkpt>
      <trkpt lat="45.92994" lon="6.25449">
        <ele>1554</ele>
        <time>2016-10-02T10:25:05+02:00</time>
      </trkpt>
      <trkpt lat="45.93002" lon="6.25456">
        <ele>1553</ele>
        <time>2016-10-02T10:25:12+02:00</time>
      </trkpt>
      <trkpt lat="45.9301" lon="6.25458">
        <ele>1553</ele>
        <time>2016-10-02T10:25:19+02:00</time>
      </trkpt>
      <trkpt lat="45.93018" lon="6.25458">
        <ele>1554</ele>
        <time>2016-10-02T10:25:26+02:00</time>
      </trkpt>
      <trkpt lat="45.93025" lon="6.25462">
        <ele>1554</ele>
        <time>2016-10-02T10:25:31+02:00</time>
      </trkpt>
      <trkpt lat="45.93036" lon="6.2547">
        <ele>1553</ele>
        <time>2016-10-02T10:25:42+02:00</time>
      </trkpt>
      <trkpt lat="45.93045" lon="6.25473">
        <ele>1553</ele>
        <time>2016-10-02T10:25:49+02:00</time>
      </trkpt>
      <trkpt lat="45.93052" lon="6.2548">
        <ele>1552</ele>
        <time>2016-10-02T10:25:56+02:00</time>
      </trkpt>
      <trkpt lat="45.93059" lon="6.25487">
        <ele>1551</ele>
        <time>2016-10-02T10:26:03+02:00</time>
      </trkpt>
      <trkpt lat="45.93068" lon="6.25485">
        <ele>1552</ele>
        <time>2016-10-02T10:26:10+02:00</time>
      </trkpt>
      <trkpt lat="45.93075" lon="6.25489">
        <ele>1552</ele>
        <time>2016-10-02T10:26:17+02:00</time>
      </trkpt>
      <trkpt lat="45.93084" lon="6.25485">
        <ele>1553</ele>
        <time>2016-10-02T10:26:24+02:00</time>
      </trkpt>
      <trkpt lat="45.93093" lon="6.25484">
        <ele>1554</ele>
        <time>2016-10-02T10:26:31+02:00</time>
      </trkpt>
      <trkpt lat="45.93102" lon="6.25481">
        <ele>1556</ele>
        <time>2016-10-02T10:26:39+02:00</time>
      </trkpt>
      <trkpt lat="45.93113" lon="6.25477">
        <ele>1557</ele>
        <time>2016-10-02T10:26:48+02:00</time>
      </trkpt>
      <trkpt lat="45.93125" lon="6.25478">
        <ele>1558</ele>
        <time>2016-10-02T10:26:57+02:00</time>
      </trkpt>
      <trkpt lat="45.93136" lon="6.25477">
        <ele>1560</ele>
        <time>2016-10-02T10:27:06+02:00</time>
      </trkpt>
      <trkpt lat="45.93148" lon="6.25476">
        <ele>1561</ele>
        <time>2016-10-02T10:27:16+02:00</time>
      </trkpt>
      <trkpt lat="45.9316" lon="6.25472">
        <ele>1563</ele>
        <time>2016-10-02T10:27:25+02:00</time>
      </trkpt>
      <trkpt lat="45.93172" lon="6.25473">
        <ele>1563</ele>
        <time>2016-10-02T10:27:35+02:00</time>
      </trkpt>
      <trkpt lat="45.93182" lon="6.25468">
        <ele>1564</ele>
        <time>2016-10-02T10:27:43+02:00</time>
      </trkpt>
      <trkpt lat="45.93192" lon="6.2547">
        <ele>1564</ele>
        <time>2016-10-02T10:27:51+02:00</time>
      </trkpt>
      <trkpt lat="45.93203" lon="6.25469">
        <ele>1564</ele>
        <time>2016-10-02T10:28:00+02:00</time>
      </trkpt>
      <trkpt lat="45.93213" lon="6.25468">
        <ele>1564</ele>
        <time>2016-10-02T10:28:09+02:00</time>
      </trkpt>
      <trkpt lat="45.93225" lon="6.25466">
        <ele>1565</ele>
        <time>2016-10-02T10:28:18+02:00</time>
      </trkpt>
      <trkpt lat="45.93236" lon="6.25464">
        <ele>1565</ele>
        <time>2016-10-02T10:28:27+02:00</time>
      </trkpt>
      <trkpt lat="45.93247" lon="6.25463">
        <ele>1566</ele>
        <time>2016-10-02T10:28:36+02:00</time>
      </trkpt>
      <trkpt lat="45.93258" lon="6.25466">
        <ele>1566</ele>
        <time>2016-10-02T10:28:45+02:00</time>
      </trkpt>
      <trkpt lat="45.93268" lon="6.25465">
        <ele>1568</ele>
        <time>2016-10-02T10:28:53+02:00</time>
      </trkpt>
      <trkpt lat="45.93279" lon="6.25463">
        <ele>1570</ele>
        <time>2016-10-02T10:29:02+02:00</time>
      </trkpt>
      <trkpt lat="45.9329" lon="6.25461">
        <ele>1572</ele>
        <time>2016-10-02T10:29:11+02:00</time>
      </trkpt>
      <trkpt lat="45.933" lon="6.25463">
        <ele>1572</ele>
        <time>2016-10-02T10:29:19+02:00</time>
      </trkpt>
      <trkpt lat="45.93311" lon="6.25464">
        <ele>1573</ele>
        <time>2016-10-02T10:29:28+02:00</time>
      </trkpt>
      <trkpt lat="45.93319" lon="6.25474">
        <ele>1572</ele>
        <time>2016-10-02T10:29:36+02:00</time>
      </trkpt>
      <trkpt lat="45.9333" lon="6.25479">
        <ele>1571</ele>
        <time>2016-10-02T10:29:45+02:00</time>
      </trkpt>
      <trkpt lat="45.9334" lon="6.25488">
        <ele>1570</ele>
        <time>2016-10-02T10:29:55+02:00</time>
      </trkpt>
      <trkpt lat="45.93351" lon="6.25496">
        <ele>1569</ele>
        <time>2016-10-02T10:30:05+02:00</time>
      </trkpt>
      <trkpt lat="45.9336" lon="6.25503">
        <ele>1569</ele>
        <time>2016-10-02T10:30:13+02:00</time>
      </trkpt>
      <trkpt lat="45.93371" lon="6.25509">
        <ele>1568</ele>
        <time>2016-10-02T10:30:22+02:00</time>
      </trkpt>
      <trkpt lat="45.93383" lon="6.25515">
        <ele>1567</ele>
        <time>2016-10-02T10:30:33+02:00</time>
      </trkpt>
      <trkpt lat="45.93391" lon="6.25524">
        <ele>1565</ele>
        <time>2016-10-02T10:30:41+02:00</time>
      </trkpt>
      <trkpt lat="45.93404" lon="6.25529">
        <ele>1565</ele>
        <time>2016-10-02T10:30:51+02:00</time>
      </trkpt>
      <trkpt lat="45.93414" lon="6.2553">
        <ele>1566</ele>
        <time>2016-10-02T10:31:00+02:00</time>
      </trkpt>
      <trkpt lat="45.93424" lon="6.25536">
        <ele>1565</ele>
        <time>2016-10-02T10:31:08+02:00</time>
      </trkpt>
      <trkpt lat="45.93433" lon="6.25541">
        <ele>1565</ele>
        <time>2016-10-02T10:31:16+02:00</time>
      </trkpt>
      <trkpt lat="45.93445" lon="6.25542">
        <ele>1566</ele>
        <time>2016-10-02T10:31:25+02:00</time>
      </trkpt>
      <trkpt lat="45.93455" lon="6.25539">
        <ele>1569</ele>
        <time>2016-10-02T10:31:34+02:00</time>
      </trkpt>
      <trkpt lat="45.93467" lon="6.25542">
        <ele>1569</ele>
        <time>2016-10-02T10:31:43+02:00</time>
      </trkpt>
      <trkpt lat="45.93477" lon="6.25546">
        <ele>1569</ele>
        <time>2016-10-02T10:31:52+02:00</time>
      </trkpt>
      <trkpt lat="45.93487" lon="6.25552">
        <ele>1569</ele>
        <time>2016-10-02T10:32:00+02:00</time>
      </trkpt>
      <trkpt lat="45.93496" lon="6.25558">
        <ele>1567</ele>
        <time>2016-10-02T10:32:08+02:00</time>
      </trkpt>
      <trkpt lat="45.93506" lon="6.25558">
        <ele>1569</ele>
        <time>2016-10-02T10:32:17+02:00</time>
      </trkpt>
      <trkpt lat="45.93516" lon="6.25554">
        <ele>1571</ele>
        <time>2016-10-02T10:32:25+02:00</time>
      </trkpt>
      <trkpt lat="45.93525" lon="6.25548">
        <ele>1575</ele>
        <time>2016-10-02T10:32:34+02:00</time>
      </trkpt>
      <trkpt lat="45.93534" lon="6.25539">
        <ele>1579</ele>
        <time>2016-10-02T10:32:42+02:00</time>
      </trkpt>
      <trkpt lat="45.93543" lon="6.25533">
        <ele>1583</ele>
        <time>2016-10-02T10:32:51+02:00</time>
      </trkpt>
      <trkpt lat="45.9355" lon="6.25522">
        <ele>1588</ele>
        <time>2016-10-02T10:33:00+02:00</time>
      </trkpt>
      <trkpt lat="45.93559" lon="6.2552">
        <ele>1590</ele>
        <time>2016-10-02T10:33:09+02:00</time>
      </trkpt>
      <trkpt lat="45.93569" lon="6.25513">
        <ele>1593</ele>
        <time>2016-10-02T10:33:18+02:00</time>
      </trkpt>
      <trkpt lat="45.93578" lon="6.25506">
        <ele>1596</ele>
        <time>2016-10-02T10:33:27+02:00</time>
      </trkpt>
      <trkpt lat="45.93588" lon="6.25503">
        <ele>1600</ele>
        <time>2016-10-02T10:33:36+02:00</time>
      </trkpt>
      <trkpt lat="45.93598" lon="6.25497">
        <ele>1605</ele>
        <time>2016-10-02T10:33:45+02:00</time>
      </trkpt>
      <trkpt lat="45.93598" lon="6.25482">
        <ele>1610</ele>
        <time>2016-10-02T10:33:55+02:00</time>
      </trkpt>
      <trkpt lat="45.93596" lon="6.25469">
        <ele>1614</ele>
        <time>2016-10-02T10:34:06+02:00</time>
      </trkpt>
      <trkpt lat="45.93605" lon="6.25464">
        <ele>1618</ele>
        <time>2016-10-02T10:34:15+02:00</time>
      </trkpt>
      <trkpt lat="45.9362" lon="6.25474">
        <ele>1618</ele>
        <time>2016-10-02T10:34:29+02:00</time>
      </trkpt>
      <trkpt lat="45.93629" lon="6.2547">
        <ele>1622</ele>
        <time>2016-10-02T10:34:37+02:00</time>
      </trkpt>
      <trkpt lat="45.93639" lon="6.25469">
        <ele>1625</ele>
        <time>2016-10-02T10:34:46+02:00</time>
      </trkpt>
      <trkpt lat="45.9365" lon="6.25473">
        <ele>1626</ele>
        <time>2016-10-02T10:34:55+02:00</time>
      </trkpt>
      <trkpt lat="45.93659" lon="6.2548">
        <ele>1627</ele>
        <time>2016-10-02T10:35:03+02:00</time>
      </trkpt>
      <trkpt lat="45.93662" lon="6.25493">
        <ele>1625</ele>
        <time>2016-10-02T10:35:11+02:00</time>
      </trkpt>
      <trkpt lat="45.93672" lon="6.25498">
        <ele>1627</ele>
        <time>2016-10-02T10:35:19+02:00</time>
      </trkpt>
      <trkpt lat="45.9368" lon="6.25505">
        <ele>1626</ele>
        <time>2016-10-02T10:35:28+02:00</time>
      </trkpt>
      <trkpt lat="45.93691" lon="6.25506">
        <ele>1629</ele>
        <time>2016-10-02T10:35:36+02:00</time>
      </trkpt>
      <trkpt lat="45.93701" lon="6.25509">
        <ele>1629</ele>
        <time>2016-10-02T10:35:45+02:00</time>
      </trkpt>
      <trkpt lat="45.9371" lon="6.2551">
        <ele>1631</ele>
        <time>2016-10-02T10:35:52+02:00</time>
      </trkpt>
      <trkpt lat="45.93719" lon="6.25504">
        <ele>1636</ele>
        <time>2016-10-02T10:36:00+02:00</time>
      </trkpt>
      <trkpt lat="45.93725" lon="6.25492">
        <ele>1642</ele>
        <time>2016-10-02T10:36:11+02:00</time>
      </trkpt>
      <trkpt lat="45.93729" lon="6.25479">
        <ele>1647</ele>
        <time>2016-10-02T10:36:21+02:00</time>
      </trkpt>
      <trkpt lat="45.93729" lon="6.25464">
        <ele>1652</ele>
        <time>2016-10-02T10:36:30+02:00</time>
      </trkpt>
      <trkpt lat="45.93733" lon="6.2545">
        <ele>1658</ele>
        <time>2016-10-02T10:36:39+02:00</time>
      </trkpt>
      <trkpt lat="45.93737" lon="6.25439">
        <ele>1663</ele>
        <time>2016-10-02T10:36:46+02:00</time>
      </trkpt>
      <trkpt lat="45.9374" lon="6.25429">
        <ele>1668</ele>
        <time>2016-10-02T10:36:52+02:00</time>
      </trkpt>
      <trkpt lat="45.93739" lon="6.25416">
        <ele>1672</ele>
        <time>2016-10-02T10:36:59+02:00</time>
      </trkpt>
      <trkpt lat="45.93743" lon="6.25404">
        <ele>1674</ele>
        <time>2016-10-02T10:37:07+02:00</time>
      </trkpt>
      <trkpt lat="45.93749" lon="6.25393">
        <ele>1676</ele>
        <time>2016-10-02T10:37:14+02:00</time>
      </trkpt>
      <trkpt lat="45.93756" lon="6.25383">
        <ele>1679</ele>
        <time>2016-10-02T10:37:23+02:00</time>
      </trkpt>
      <trkpt lat="45.93762" lon="6.2537">
        <ele>1681</ele>
        <time>2016-10-02T10:37:31+02:00</time>
      </trkpt>
      <trkpt lat="45.93766" lon="6.25357">
        <ele>1683</ele>
        <time>2016-10-02T10:37:40+02:00</time>
      </trkpt>
      <trkpt lat="45.93772" lon="6.25346">
        <ele>1686</ele>
        <time>2016-10-02T10:37:48+02:00</time>
      </trkpt>
      <trkpt lat="45.93782" lon="6.25341">
        <ele>1689</ele>
        <time>2016-10-02T10:37:57+02:00</time>
      </trkpt>
      <trkpt lat="45.93792" lon="6.25347">
        <ele>1693</ele>
        <time>2016-10-02T10:38:06+02:00</time>
      </trkpt>
      <trkpt lat="45.93797" lon="6.25327">
        <ele>1696</ele>
        <time>2016-10-02T10:38:19+02:00</time>
      </trkpt>
      <trkpt lat="45.93797" lon="6.25312">
        <ele>1699</ele>
        <time>2016-10-02T10:38:28+02:00</time>
      </trkpt>
      <trkpt lat="45.93795" lon="6.25297">
        <ele>1700</ele>
        <time>2016-10-02T10:38:37+02:00</time>
      </trkpt>
      <trkpt lat="45.93802" lon="6.25286">
        <ele>1704</ele>
        <time>2016-10-02T10:38:46+02:00</time>
      </trkpt>
      <trkpt lat="45.93807" lon="6.25273">
        <ele>1707</ele>
        <time>2016-10-02T10:38:54+02:00</time>
      </trkpt>
      <trkpt lat="45.93814" lon="6.25263">
        <ele>1710</ele>
        <time>2016-10-02T10:39:04+02:00</time>
      </trkpt>
      <trkpt lat="45.9382" lon="6.25252">
        <ele>1713</ele>
        <time>2016-10-02T10:39:14+02:00</time>
      </trkpt>
      <trkpt lat="45.93821" lon="6.25237">
        <ele>1717</ele>
        <time>2016-10-02T10:39:23+02:00</time>
      </trkpt>
      <trkpt lat="45.93819" lon="6.25227">
        <ele>1720</ele>
        <time>2016-10-02T10:39:30+02:00</time>
      </trkpt>
      <trkpt lat="45.9382" lon="6.25213">
        <ele>1725</ele>
        <time>2016-10-02T10:39:39+02:00</time>
      </trkpt>
      <trkpt lat="45.93819" lon="6.252">
        <ele>1729</ele>
        <time>2016-10-02T10:39:47+02:00</time>
      </trkpt>
      <trkpt lat="45.93821" lon="6.25186">
        <ele>1733</ele>
        <time>2016-10-02T10:39:56+02:00</time>
      </trkpt>
      <trkpt lat="45.93828" lon="6.25166">
        <ele>1739</ele>
        <time>2016-10-02T10:40:10+02:00</time>
      </trkpt>
      <trkpt lat="45.93834" lon="6.25158">
        <ele>1743</ele>
        <time>2016-10-02T10:40:17+02:00</time>
      </trkpt>
      <trkpt lat="45.93842" lon="6.25149">
        <ele>1747</ele>
        <time>2016-10-02T10:40:26+02:00</time>
      </trkpt>
      <trkpt lat="45.93845" lon="6.25134">
        <ele>1753</ele>
        <time>2016-10-02T10:40:36+02:00</time>
      </trkpt>
      <trkpt lat="45.93852" lon="6.25131">
        <ele>1755</ele>
        <time>2016-10-02T10:40:43+02:00</time>
      </trkpt>
      <trkpt lat="45.93855" lon="6.2512">
        <ele>1759</ele>
        <time>2016-10-02T10:40:50+02:00</time>
      </trkpt>
      <trkpt lat="45.93856" lon="6.25108">
        <ele>1764</ele>
        <time>2016-10-02T10:40:57+02:00</time>
      </trkpt>
      <trkpt lat="45.9386" lon="6.25098">
        <ele>1768</ele>
        <time>2016-10-02T10:41:04+02:00</time>
      </trkpt>
      <trkpt lat="45.93866" lon="6.25086">
        <ele>1772</ele>
        <time>2016-10-02T10:41:12+02:00</time>
      </trkpt>
      <trkpt lat="45.93869" lon="6.25072">
        <ele>1776</ele>
        <time>2016-10-02T10:41:20+02:00</time>
      </trkpt>
      <trkpt lat="45.93868" lon="6.25058">
        <ele>1781</ele>
        <time>2016-10-02T10:41:29+02:00</time>
      </trkpt>
      <trkpt lat="45.93869" lon="6.25046">
        <ele>1784</ele>
        <time>2016-10-02T10:41:37+02:00</time>
      </trkpt>
      <trkpt lat="45.93867" lon="6.25028">
        <ele>1791</ele>
        <time>2016-10-02T10:41:48+02:00</time>
      </trkpt>
      <trkpt lat="45.93867" lon="6.25016">
        <ele>1795</ele>
        <time>2016-10-02T10:41:55+02:00</time>
      </trkpt>
      <trkpt lat="45.93864" lon="6.24999">
        <ele>1801</ele>
        <time>2016-10-02T10:42:05+02:00</time>
      </trkpt>
      <trkpt lat="45.9386" lon="6.2499">
        <ele>1803</ele>
        <time>2016-10-02T10:42:11+02:00</time>
      </trkpt>
      <trkpt lat="45.93858" lon="6.24973">
        <ele>1807</ele>
        <time>2016-10-02T10:42:21+02:00</time>
      </trkpt>
      <trkpt lat="45.93853" lon="6.24965">
        <ele>1809</ele>
        <time>2016-10-02T10:42:28+02:00</time>
      </trkpt>
      <trkpt lat="45.93849" lon="6.24956">
        <ele>1812</ele>
        <time>2016-10-02T10:42:34+02:00</time>
      </trkpt>
      <trkpt lat="45.93851" lon="6.24946">
        <ele>1813</ele>
        <time>2016-10-02T10:42:41+02:00</time>
      </trkpt>
      <trkpt lat="45.93857" lon="6.24934">
        <ele>1814</ele>
        <time>2016-10-02T10:42:49+02:00</time>
      </trkpt>
      <trkpt lat="45.93866" lon="6.24927">
        <ele>1814</ele>
        <time>2016-10-02T10:42:57+02:00</time>
      </trkpt>
      <trkpt lat="45.93874" lon="6.2492">
        <ele>1814</ele>
        <time>2016-10-02T10:43:05+02:00</time>
      </trkpt>
      <trkpt lat="45.93877" lon="6.24906">
        <ele>1811</ele>
        <time>2016-10-02T10:43:13+02:00</time>
      </trkpt>
      <trkpt lat="45.93882" lon="6.24892">
        <ele>1807</ele>
        <time>2016-10-02T10:43:22+02:00</time>
      </trkpt>
      <trkpt lat="45.93887" lon="6.24879">
        <ele>1805</ele>
        <time>2016-10-02T10:43:30+02:00</time>
      </trkpt>
      <trkpt lat="45.93887" lon="6.24865">
        <ele>1803</ele>
        <time>2016-10-02T10:43:39+02:00</time>
      </trkpt>
      <trkpt lat="45.93895" lon="6.24857">
        <ele>1804</ele>
        <time>2016-10-02T10:43:48+02:00</time>
      </trkpt>
      <trkpt lat="45.93903" lon="6.24846">
        <ele>1807</ele>
        <time>2016-10-02T10:43:57+02:00</time>
      </trkpt>
      <trkpt lat="45.93911" lon="6.2484">
        <ele>1811</ele>
        <time>2016-10-02T10:44:05+02:00</time>
      </trkpt>
      <trkpt lat="45.93921" lon="6.24837">
        <ele>1815</ele>
        <time>2016-10-02T10:44:14+02:00</time>
      </trkpt>
      <trkpt lat="45.9393" lon="6.24829">
        <ele>1813</ele>
        <time>2016-10-02T10:44:22+02:00</time>
      </trkpt>
      <trkpt lat="45.93932" lon="6.24814">
        <ele>1807</ele>
        <time>2016-10-02T10:44:31+02:00</time>
      </trkpt>
      <trkpt lat="45.93932" lon="6.24799">
        <ele>1800</ele>
        <time>2016-10-02T10:44:39+02:00</time>
      </trkpt>
      <trkpt lat="45.93933" lon="6.24784">
        <ele>1795</ele>
        <time>2016-10-02T10:44:48+02:00</time>
      </trkpt>
      <trkpt lat="45.93935" lon="6.24769">
        <ele>1789</ele>
        <time>2016-10-02T10:44:56+02:00</time>
      </trkpt>
      <trkpt lat="45.93945" lon="6.24763">
        <ele>1791</ele>
        <time>2016-10-02T10:45:05+02:00</time>
      </trkpt>
      <trkpt lat="45.93954" lon="6.24755">
        <ele>1794</ele>
        <time>2016-10-02T10:45:14+02:00</time>
      </trkpt>
      <trkpt lat="45.93965" lon="6.24761">
        <ele>1801</ele>
        <time>2016-10-02T10:45:23+02:00</time>
      </trkpt>
      <trkpt lat="45.93972" lon="6.24772">
        <ele>1806</ele>
        <time>2016-10-02T10:45:31+02:00</time>
      </trkpt>
      <trkpt lat="45.93981" lon="6.24777">
        <ele>1810</ele>
        <time>2016-10-02T10:45:39+02:00</time>
      </trkpt>
      <trkpt lat="45.9399" lon="6.24772">
        <ele>1814</ele>
        <time>2016-10-02T10:45:47+02:00</time>
      </trkpt>
      <trkpt lat="45.93999" lon="6.24763">
        <ele>1818</ele>
        <time>2016-10-02T10:45:56+02:00</time>
      </trkpt>
      <trkpt lat="45.94008" lon="6.2477">
        <ele>1817</ele>
        <time>2016-10-02T10:46:04+02:00</time>
      </trkpt>
      <trkpt lat="45.94015" lon="6.24759">
        <ele>1818</ele>
        <time>2016-10-02T10:46:12+02:00</time>
      </trkpt>
      <trkpt lat="45.94026" lon="6.24759">
        <ele>1817</ele>
        <time>2016-10-02T10:46:21+02:00</time>
      </trkpt>
      <trkpt lat="45.94033" lon="6.2477">
        <ele>1816</ele>
        <time>2016-10-02T10:46:30+02:00</time>
      </trkpt>
      <trkpt lat="45.94039" lon="6.24782">
        <ele>1815</ele>
        <time>2016-10-02T10:46:38+02:00</time>
      </trkpt>
      <trkpt lat="45.94046" lon="6.24772">
        <ele>1815</ele>
        <time>2016-10-02T10:46:48+02:00</time>
      </trkpt>
      <trkpt lat="45.94047" lon="6.24757">
        <ele>1816</ele>
        <time>2016-10-02T10:46:57+02:00</time>
      </trkpt>
      <trkpt lat="45.94054" lon="6.24745">
        <ele>1816</ele>
        <time>2016-10-02T10:47:05+02:00</time>
      </trkpt>
      <trkpt lat="45.9406" lon="6.24734">
        <ele>1815</ele>
        <time>2016-10-02T10:47:13+02:00</time>
      </trkpt>
      <trkpt lat="45.94069" lon="6.24729">
        <ele>1816</ele>
        <time>2016-10-02T10:47:21+02:00</time>
      </trkpt>
      <trkpt lat="45.94078" lon="6.24737">
        <ele>1816</ele>
        <time>2016-10-02T10:47:30+02:00</time>
      </trkpt>
      <trkpt lat="45.94082" lon="6.24725">
        <ele>1817</ele>
        <time>2016-10-02T10:47:38+02:00</time>
      </trkpt>
      <trkpt lat="45.94092" lon="6.24727">
        <ele>1817</ele>
        <time>2016-10-02T10:47:46+02:00</time>
      </trkpt>
      <trkpt lat="45.94103" lon="6.24728">
        <ele>1817</ele>
        <time>2016-10-02T10:47:55+02:00</time>
      </trkpt>
      <trkpt lat="45.94111" lon="6.2472">
        <ele>1819</ele>
        <time>2016-10-02T10:48:03+02:00</time>
      </trkpt>
      <trkpt lat="45.94121" lon="6.24721">
        <ele>1819</ele>
        <time>2016-10-02T10:48:11+02:00</time>
      </trkpt>
      <trkpt lat="45.94126" lon="6.24711">
        <ele>1821</ele>
        <time>2016-10-02T10:48:18+02:00</time>
      </trkpt>
      <trkpt lat="45.94133" lon="6.2471">
        <ele>1821</ele>
        <time>2016-10-02T10:48:24+02:00</time>
      </trkpt>
      <trkpt lat="45.94142" lon="6.247">
        <ele>1823</ele>
        <time>2016-10-02T10:48:33+02:00</time>
      </trkpt>
      <trkpt lat="45.94146" lon="6.24687">
        <ele>1826</ele>
        <time>2016-10-02T10:48:41+02:00</time>
      </trkpt>
      <trkpt lat="45.94148" lon="6.24673">
        <ele>1829</ele>
        <time>2016-10-02T10:48:49+02:00</time>
      </trkpt>
      <trkpt lat="45.94151" lon="6.24659">
        <ele>1831</ele>
        <time>2016-10-02T10:48:57+02:00</time>
      </trkpt>
      <trkpt lat="45.94153" lon="6.24645">
        <ele>1832</ele>
        <time>2016-10-02T10:49:05+02:00</time>
      </trkpt>
      <trkpt lat="45.94155" lon="6.24634">
        <ele>1833</ele>
        <time>2016-10-02T10:49:12+02:00</time>
      </trkpt>
      <trkpt lat="45.94154" lon="6.24623">
        <ele>1833</ele>
        <time>2016-10-02T10:49:18+02:00</time>
      </trkpt>
      <trkpt lat="45.94156" lon="6.24613">
        <ele>1834</ele>
        <time>2016-10-02T10:49:24+02:00</time>
      </trkpt>
      <trkpt lat="45.94159" lon="6.24601">
        <ele>1836</ele>
        <time>2016-10-02T10:49:31+02:00</time>
      </trkpt>
      <trkpt lat="45.94161" lon="6.24589">
        <ele>1838</ele>
        <time>2016-10-02T10:49:39+02:00</time>
      </trkpt>
      <trkpt lat="45.94164" lon="6.24576">
        <ele>1838</ele>
        <time>2016-10-02T10:49:46+02:00</time>
      </trkpt>
      <trkpt lat="45.94172" lon="6.24566">
        <ele>1837</ele>
        <time>2016-10-02T10:49:55+02:00</time>
      </trkpt>
      <trkpt lat="45.94175" lon="6.24552">
        <ele>1835</ele>
        <time>2016-10-02T10:50:04+02:00</time>
      </trkpt>
      <trkpt lat="45.94178" lon="6.24541">
        <ele>1834</ele>
        <time>2016-10-02T10:50:10+02:00</time>
      </trkpt>
      <trkpt lat="45.94187" lon="6.24533">
        <ele>1833</ele>
        <time>2016-10-02T10:50:19+02:00</time>
      </trkpt>
      <trkpt lat="45.94193" lon="6.24522">
        <ele>1832</ele>
        <time>2016-10-02T10:50:27+02:00</time>
      </trkpt>
      <trkpt lat="45.94201" lon="6.24512">
        <ele>1832</ele>
        <time>2016-10-02T10:50:35+02:00</time>
      </trkpt>
      <trkpt lat="45.94205" lon="6.245">
        <ele>1832</ele>
        <time>2016-10-02T10:50:43+02:00</time>
      </trkpt>
      <trkpt lat="45.94213" lon="6.24492">
        <ele>1826</ele>
        <time>2016-10-02T10:50:51+02:00</time>
      </trkpt>
      <trkpt lat="45.94219" lon="6.24483">
        <ele>1821</ele>
        <time>2016-10-02T10:50:58+02:00</time>
      </trkpt>
      <trkpt lat="45.94229" lon="6.24478">
        <ele>1823</ele>
        <time>2016-10-02T10:51:07+02:00</time>
      </trkpt>
      <trkpt lat="45.9424" lon="6.24475">
        <ele>1826</ele>
        <time>2016-10-02T10:51:16+02:00</time>
      </trkpt>
      <trkpt lat="45.9425" lon="6.2447">
        <ele>1830</ele>
        <time>2016-10-02T10:51:24+02:00</time>
      </trkpt>
      <trkpt lat="45.94255" lon="6.24457">
        <ele>1826</ele>
        <time>2016-10-02T10:51:32+02:00</time>
      </trkpt>
      <trkpt lat="45.94265" lon="6.24447">
        <ele>1824</ele>
        <time>2016-10-02T10:51:42+02:00</time>
      </trkpt>
      <trkpt lat="45.94276" lon="6.24439">
        <ele>1822</ele>
        <time>2016-10-02T10:51:51+02:00</time>
      </trkpt>
      <trkpt lat="45.94285" lon="6.24433">
        <ele>1821</ele>
        <time>2016-10-02T10:52:00+02:00</time>
      </trkpt>
      <trkpt lat="45.94295" lon="6.2443">
        <ele>1821</ele>
        <time>2016-10-02T10:52:08+02:00</time>
      </trkpt>
      <trkpt lat="45.94303" lon="6.24424">
        <ele>1821</ele>
        <time>2016-10-02T10:52:15+02:00</time>
      </trkpt>
      <trkpt lat="45.94313" lon="6.24418">
        <ele>1821</ele>
        <time>2016-10-02T10:52:24+02:00</time>
      </trkpt>
      <trkpt lat="45.94323" lon="6.24413">
        <ele>1820</ele>
        <time>2016-10-02T10:52:33+02:00</time>
      </trkpt>
      <trkpt lat="45.94332" lon="6.24407">
        <ele>1820</ele>
        <time>2016-10-02T10:52:41+02:00</time>
      </trkpt>
      <trkpt lat="45.94341" lon="6.244">
        <ele>1818</ele>
        <time>2016-10-02T10:52:49+02:00</time>
      </trkpt>
      <trkpt lat="45.94352" lon="6.24393">
        <ele>1816</ele>
        <time>2016-10-02T10:52:58+02:00</time>
      </trkpt>
      <trkpt lat="45.94361" lon="6.24385">
        <ele>1814</ele>
        <time>2016-10-02T10:53:07+02:00</time>
      </trkpt>
      <trkpt lat="45.9437" lon="6.24377">
        <ele>1813</ele>
        <time>2016-10-02T10:53:16+02:00</time>
      </trkpt>
      <trkpt lat="45.94376" lon="6.24366">
        <ele>1811</ele>
        <time>2016-10-02T10:53:23+02:00</time>
      </trkpt>
      <trkpt lat="45.94382" lon="6.24355">
        <ele>1810</ele>
        <time>2016-10-02T10:53:31+02:00</time>
      </trkpt>
      <trkpt lat="45.94387" lon="6.24341">
        <ele>1809</ele>
        <time>2016-10-02T10:53:40+02:00</time>
      </trkpt>
      <trkpt lat="45.9439" lon="6.24328">
        <ele>1807</ele>
        <time>2016-10-02T10:53:48+02:00</time>
      </trkpt>
      <trkpt lat="45.94399" lon="6.24317">
        <ele>1806</ele>
        <time>2016-10-02T10:53:57+02:00</time>
      </trkpt>
      <trkpt lat="45.94409" lon="6.24308">
        <ele>1807</ele>
        <time>2016-10-02T10:54:06+02:00</time>
      </trkpt>
      <trkpt lat="45.94415" lon="6.24297">
        <ele>1809</ele>
        <time>2016-10-02T10:54:15+02:00</time>
      </trkpt>
      <trkpt lat="45.94414" lon="6.24282">
        <ele>1808</ele>
        <time>2016-10-02T10:54:23+02:00</time>
      </trkpt>
      <trkpt lat="45.94415" lon="6.24269">
        <ele>1809</ele>
        <time>2016-10-02T10:54:31+02:00</time>
      </trkpt>
      <trkpt lat="45.94422" lon="6.24263">
        <ele>1809</ele>
        <time>2016-10-02T10:54:38+02:00</time>
      </trkpt>
      <trkpt lat="45.94432" lon="6.2427">
        <ele>1807</ele>
        <time>2016-10-02T10:54:48+02:00</time>
      </trkpt>
      <trkpt lat="45.9444" lon="6.24274">
        <ele>1805</ele>
        <time>2016-10-02T10:54:55+02:00</time>
      </trkpt>
      <trkpt lat="45.94449" lon="6.24284">
        <ele>1803</ele>
        <time>2016-10-02T10:55:04+02:00</time>
      </trkpt>
      <trkpt lat="45.9446" lon="6.24301">
        <ele>1799</ele>
        <time>2016-10-02T10:55:17+02:00</time>
      </trkpt>
      <trkpt lat="45.94467" lon="6.24314">
        <ele>1797</ele>
        <time>2016-10-02T10:55:27+02:00</time>
      </trkpt>
      <trkpt lat="45.94472" lon="6.24302">
        <ele>1797</ele>
        <time>2016-10-02T10:55:35+02:00</time>
      </trkpt>
      <trkpt lat="45.94479" lon="6.24288">
        <ele>1796</ele>
        <time>2016-10-02T10:55:44+02:00</time>
      </trkpt>
      <trkpt lat="45.94475" lon="6.24274">
        <ele>1798</ele>
        <time>2016-10-02T10:55:53+02:00</time>
      </trkpt>
      <trkpt lat="45.94472" lon="6.2426">
        <ele>1799</ele>
        <time>2016-10-02T10:56:01+02:00</time>
      </trkpt>
      <trkpt lat="45.94479" lon="6.24248">
        <ele>1798</ele>
        <time>2016-10-02T10:56:10+02:00</time>
      </trkpt>
      <trkpt lat="45.9448" lon="6.2425">
        <ele>1798</ele>
        <time>2016-10-02T10:56:12+02:00</time>
      </trkpt>
      <trkpt lat="45.94482" lon="6.24235">
        <ele>1798</ele>
        <time>2016-10-02T10:56:21+02:00</time>
      </trkpt>
      <trkpt lat="45.94494" lon="6.24227">
        <ele>1797</ele>
        <time>2016-10-02T10:56:31+02:00</time>
      </trkpt>
      <trkpt lat="45.94505" lon="6.24224">
        <ele>1797</ele>
        <time>2016-10-02T10:56:41+02:00</time>
      </trkpt>
      <trkpt lat="45.94515" lon="6.24219">
        <ele>1796</ele>
        <time>2016-10-02T10:56:49+02:00</time>
      </trkpt>
      <trkpt lat="45.94524" lon="6.24214">
        <ele>1795</ele>
        <time>2016-10-02T10:56:57+02:00</time>
      </trkpt>
      <trkpt lat="45.94531" lon="6.2421">
        <ele>1794</ele>
        <time>2016-10-02T10:57:03+02:00</time>
      </trkpt>
      <trkpt lat="45.9454" lon="6.242">
        <ele>1794</ele>
        <time>2016-10-02T10:57:12+02:00</time>
      </trkpt>
      <trkpt lat="45.94546" lon="6.24187">
        <ele>1795</ele>
        <time>2016-10-02T10:57:21+02:00</time>
      </trkpt>
      <trkpt lat="45.94548" lon="6.24174">
        <ele>1796</ele>
        <time>2016-10-02T10:57:28+02:00</time>
      </trkpt>
      <trkpt lat="45.94547" lon="6.24159">
        <ele>1799</ele>
        <time>2016-10-02T10:57:36+02:00</time>
      </trkpt>
      <trkpt lat="45.94554" lon="6.24148">
        <ele>1799</ele>
        <time>2016-10-02T10:57:45+02:00</time>
      </trkpt>
      <trkpt lat="45.9456" lon="6.24134">
        <ele>1801</ele>
        <time>2016-10-02T10:57:54+02:00</time>
      </trkpt>
      <trkpt lat="45.94568" lon="6.24125">
        <ele>1802</ele>
        <time>2016-10-02T10:58:02+02:00</time>
      </trkpt>
      <trkpt lat="45.94573" lon="6.24117">
        <ele>1803</ele>
        <time>2016-10-02T10:58:08+02:00</time>
      </trkpt>
      <trkpt lat="45.94579" lon="6.24112">
        <ele>1804</ele>
        <time>2016-10-02T10:58:14+02:00</time>
      </trkpt>
      <trkpt lat="45.94587" lon="6.24104">
        <ele>1806</ele>
        <time>2016-10-02T10:58:23+02:00</time>
      </trkpt>
      <trkpt lat="45.9458" lon="6.2409">
        <ele>1809</ele>
        <time>2016-10-02T10:58:34+02:00</time>
      </trkpt>
      <trkpt lat="45.94575" lon="6.24073">
        <ele>1811</ele>
        <time>2016-10-02T10:58:44+02:00</time>
      </trkpt>
      <trkpt lat="45.94568" lon="6.24063">
        <ele>1810</ele>
        <time>2016-10-02T10:58:51+02:00</time>
      </trkpt>
      <trkpt lat="45.94552" lon="6.24062">
        <ele>1807</ele>
        <time>2016-10-02T10:59:04+02:00</time>
      </trkpt>
      <trkpt lat="45.94555" lon="6.24051">
        <ele>1807</ele>
        <time>2016-10-02T10:59:11+02:00</time>
      </trkpt>
      <trkpt lat="45.94563" lon="6.24043">
        <ele>1809</ele>
        <time>2016-10-02T10:59:19+02:00</time>
      </trkpt>
      <trkpt lat="45.94569" lon="6.24034">
        <ele>1811</ele>
        <time>2016-10-02T10:59:26+02:00</time>
      </trkpt>
      <trkpt lat="45.94577" lon="6.24028">
        <ele>1814</ele>
        <time>2016-10-02T10:59:33+02:00</time>
      </trkpt>
      <trkpt lat="45.94583" lon="6.24022">
        <ele>1817</ele>
        <time>2016-10-02T10:59:40+02:00</time>
      </trkpt>
      <trkpt lat="45.94591" lon="6.24023">
        <ele>1817</ele>
        <time>2016-10-02T10:59:47+02:00</time>
      </trkpt>
      <trkpt lat="45.94599" lon="6.24022">
        <ele>1817</ele>
        <time>2016-10-02T10:59:52+02:00</time>
      </trkpt>
      <trkpt lat="45.94606" lon="6.24019">
        <ele>1817</ele>
        <time>2016-10-02T10:59:59+02:00</time>
      </trkpt>
      <trkpt lat="45.94615" lon="6.24009">
        <ele>1818</ele>
        <time>2016-10-02T11:00:07+02:00</time>
      </trkpt>
      <trkpt lat="45.94616" lon="6.24">
        <ele>1820</ele>
        <time>2016-10-02T11:00:13+02:00</time>
      </trkpt>
      <trkpt lat="45.94628" lon="6.23986">
        <ele>1819</ele>
        <time>2016-10-02T11:00:26+02:00</time>
      </trkpt>
      <trkpt lat="45.94638" lon="6.23986">
        <ele>1819</ele>
        <time>2016-10-02T11:00:34+02:00</time>
      </trkpt>
      <trkpt lat="45.94649" lon="6.23987">
        <ele>1819</ele>
        <time>2016-10-02T11:00:42+02:00</time>
      </trkpt>
      <trkpt lat="45.9466" lon="6.23985">
        <ele>1819</ele>
        <time>2016-10-02T11:00:51+02:00</time>
      </trkpt>
      <trkpt lat="45.9467" lon="6.23986">
        <ele>1819</ele>
        <time>2016-10-02T11:00:59+02:00</time>
      </trkpt>
      <trkpt lat="45.94683" lon="6.23983">
        <ele>1818</ele>
        <time>2016-10-02T11:01:10+02:00</time>
      </trkpt>
      <trkpt lat="45.94693" lon="6.23979">
        <ele>1817</ele>
        <time>2016-10-02T11:01:18+02:00</time>
      </trkpt>
      <trkpt lat="45.94704" lon="6.2397">
        <ele>1817</ele>
        <time>2016-10-02T11:01:28+02:00</time>
      </trkpt>
      <trkpt lat="45.94714" lon="6.23958">
        <ele>1817</ele>
        <time>2016-10-02T11:01:38+02:00</time>
      </trkpt>
      <trkpt lat="45.94722" lon="6.23944">
        <ele>1818</ele>
        <time>2016-10-02T11:01:49+02:00</time>
      </trkpt>
      <trkpt lat="45.94728" lon="6.2393">
        <ele>1819</ele>
        <time>2016-10-02T11:01:58+02:00</time>
      </trkpt>
      <trkpt lat="45.94734" lon="6.23915">
        <ele>1820</ele>
        <time>2016-10-02T11:02:08+02:00</time>
      </trkpt>
      <trkpt lat="45.94741" lon="6.23903">
        <ele>1820</ele>
        <time>2016-10-02T11:02:17+02:00</time>
      </trkpt>
      <trkpt lat="45.94749" lon="6.23891">
        <ele>1820</ele>
        <time>2016-10-02T11:02:26+02:00</time>
      </trkpt>
      <trkpt lat="45.94756" lon="6.23885">
        <ele>1820</ele>
        <time>2016-10-02T11:02:32+02:00</time>
      </trkpt>
      <trkpt lat="45.9476" lon="6.23875">
        <ele>1820</ele>
        <time>2016-10-02T11:02:39+02:00</time>
      </trkpt>
      <trkpt lat="45.94761" lon="6.23861">
        <ele>1820</ele>
        <time>2016-10-02T11:02:47+02:00</time>
      </trkpt>
      <trkpt lat="45.94766" lon="6.23849">
        <ele>1820</ele>
        <time>2016-10-02T11:02:55+02:00</time>
      </trkpt>
      <trkpt lat="45.94768" lon="6.23838">
        <ele>1820</ele>
        <time>2016-10-02T11:03:02+02:00</time>
      </trkpt>
      <trkpt lat="45.94773" lon="6.23827">
        <ele>1819</ele>
        <time>2016-10-02T11:03:09+02:00</time>
      </trkpt>
      <trkpt lat="45.94777" lon="6.23817">
        <ele>1817</ele>
        <time>2016-10-02T11:03:16+02:00</time>
      </trkpt>
      <trkpt lat="45.94782" lon="6.23811">
        <ele>1816</ele>
        <time>2016-10-02T11:03:22+02:00</time>
      </trkpt>
      <trkpt lat="45.94797" lon="6.23811">
        <ele>1816</ele>
        <time>2016-10-02T11:03:34+02:00</time>
      </trkpt>
      <trkpt lat="45.94807" lon="6.23809">
        <ele>1815</ele>
        <time>2016-10-02T11:03:42+02:00</time>
      </trkpt>
      <trkpt lat="45.94818" lon="6.23808">
        <ele>1815</ele>
        <time>2016-10-02T11:03:50+02:00</time>
      </trkpt>
      <trkpt lat="45.94823" lon="6.23817">
        <ele>1817</ele>
        <time>2016-10-02T11:03:57+02:00</time>
      </trkpt>
      <trkpt lat="45.94823" lon="6.23828">
        <ele>1819</ele>
        <time>2016-10-02T11:04:03+02:00</time>
      </trkpt>
      <trkpt lat="45.94821" lon="6.23839">
        <ele>1820</ele>
        <time>2016-10-02T11:04:09+02:00</time>
      </trkpt>
      <trkpt lat="45.94819" lon="6.23851">
        <ele>1820</ele>
        <time>2016-10-02T11:04:17+02:00</time>
      </trkpt>
      <trkpt lat="45.94814" lon="6.23859">
        <ele>1820</ele>
        <time>2016-10-02T11:04:23+02:00</time>
      </trkpt>
      <trkpt lat="45.94811" lon="6.2387">
        <ele>1820</ele>
        <time>2016-10-02T11:04:29+02:00</time>
      </trkpt>
      <trkpt lat="45.9481" lon="6.23884">
        <ele>1820</ele>
        <time>2016-10-02T11:04:37+02:00</time>
      </trkpt>
      <trkpt lat="45.94809" lon="6.23894">
        <ele>1820</ele>
        <time>2016-10-02T11:04:43+02:00</time>
      </trkpt>
      <trkpt lat="45.94799" lon="6.2391">
        <ele>1820</ele>
        <time>2016-10-02T11:04:55+02:00</time>
      </trkpt>
      <trkpt lat="45.94794" lon="6.23928">
        <ele>1818</ele>
        <time>2016-10-02T11:05:06+02:00</time>
      </trkpt>
      <trkpt lat="45.9479" lon="6.23936">
        <ele>1817</ele>
        <time>2016-10-02T11:05:12+02:00</time>
      </trkpt>
      <trkpt lat="45.94787" lon="6.23947">
        <ele>1816</ele>
        <time>2016-10-02T11:05:19+02:00</time>
      </trkpt>
      <trkpt lat="45.94782" lon="6.23953">
        <ele>1815</ele>
        <time>2016-10-02T11:05:24+02:00</time>
      </trkpt>
      <trkpt lat="45.94774" lon="6.23955">
        <ele>1815</ele>
        <time>2016-10-02T11:05:30+02:00</time>
      </trkpt>
      <trkpt lat="45.94767" lon="6.23954">
        <ele>1815</ele>
        <time>2016-10-02T11:05:37+02:00</time>
      </trkpt>
      <trkpt lat="45.94768" lon="6.23974">
        <ele>1813</ele>
        <time>2016-10-02T11:05:48+02:00</time>
      </trkpt>
      <trkpt lat="45.94766" lon="6.23988">
        <ele>1811</ele>
        <time>2016-10-02T11:05:57+02:00</time>
      </trkpt>
      <trkpt lat="45.94764" lon="6.23998">
        <ele>1810</ele>
        <time>2016-10-02T11:06:03+02:00</time>
      </trkpt>
      <trkpt lat="45.9478" lon="6.23995">
        <ele>1810</ele>
        <time>2016-10-02T11:06:16+02:00</time>
      </trkpt>
      <trkpt lat="45.94788" lon="6.23998">
        <ele>1809</ele>
        <time>2016-10-02T11:06:23+02:00</time>
      </trkpt>
      <trkpt lat="45.94798" lon="6.24005">
        <ele>1806</ele>
        <time>2016-10-02T11:06:31+02:00</time>
      </trkpt>
      <trkpt lat="45.94806" lon="6.24007">
        <ele>1805</ele>
        <time>2016-10-02T11:06:38+02:00</time>
      </trkpt>
      <trkpt lat="45.94815" lon="6.24008">
        <ele>1804</ele>
        <time>2016-10-02T11:06:46+02:00</time>
      </trkpt>
      <trkpt lat="45.94826" lon="6.24009">
        <ele>1803</ele>
        <time>2016-10-02T11:06:55+02:00</time>
      </trkpt>
      <trkpt lat="45.94836" lon="6.24008">
        <ele>1803</ele>
        <time>2016-10-02T11:07:04+02:00</time>
      </trkpt>
      <trkpt lat="45.94845" lon="6.24004">
        <ele>1803</ele>
        <time>2016-10-02T11:07:11+02:00</time>
      </trkpt>
      <trkpt lat="45.94856" lon="6.2401">
        <ele>1801</ele>
        <time>2016-10-02T11:07:20+02:00</time>
      </trkpt>
      <trkpt lat="45.9486" lon="6.24023">
        <ele>1797</ele>
        <time>2016-10-02T11:07:29+02:00</time>
      </trkpt>
      <trkpt lat="45.94868" lon="6.24031">
        <ele>1794</ele>
        <time>2016-10-02T11:07:37+02:00</time>
      </trkpt>
      <trkpt lat="45.94875" lon="6.24036">
        <ele>1793</ele>
        <time>2016-10-02T11:07:43+02:00</time>
      </trkpt>
      <trkpt lat="45.94882" lon="6.2404">
        <ele>1791</ele>
        <time>2016-10-02T11:07:49+02:00</time>
      </trkpt>
      <trkpt lat="45.94891" lon="6.24043">
        <ele>1789</ele>
        <time>2016-10-02T11:07:57+02:00</time>
      </trkpt>
      <trkpt lat="45.94892" lon="6.24055">
        <ele>1786</ele>
        <time>2016-10-02T11:08:03+02:00</time>
      </trkpt>
      <trkpt lat="45.94899" lon="6.24058">
        <ele>1784</ele>
        <time>2016-10-02T11:08:09+02:00</time>
      </trkpt>
      <trkpt lat="45.94908" lon="6.24058">
        <ele>1784</ele>
        <time>2016-10-02T11:08:16+02:00</time>
      </trkpt>
      <trkpt lat="45.94917" lon="6.2406">
        <ele>1782</ele>
        <time>2016-10-02T11:08:24+02:00</time>
      </trkpt>
      <trkpt lat="45.94925" lon="6.24061">
        <ele>1779</ele>
        <time>2016-10-02T11:08:30+02:00</time>
      </trkpt>
      <trkpt lat="45.94935" lon="6.24058">
        <ele>1777</ele>
        <time>2016-10-02T11:08:39+02:00</time>
      </trkpt>
      <trkpt lat="45.94943" lon="6.24055">
        <ele>1775</ele>
        <time>2016-10-02T11:08:46+02:00</time>
      </trkpt>
      <trkpt lat="45.94954" lon="6.24053">
        <ele>1773</ele>
        <time>2016-10-02T11:08:54+02:00</time>
      </trkpt>
      <trkpt lat="45.94963" lon="6.24052">
        <ele>1771</ele>
        <time>2016-10-02T11:09:02+02:00</time>
      </trkpt>
      <trkpt lat="45.9497" lon="6.2405">
        <ele>1769</ele>
        <time>2016-10-02T11:09:08+02:00</time>
      </trkpt>
      <trkpt lat="45.94977" lon="6.24046">
        <ele>1768</ele>
        <time>2016-10-02T11:09:14+02:00</time>
      </trkpt>
      <trkpt lat="45.94984" lon="6.24043">
        <ele>1767</ele>
        <time>2016-10-02T11:09:20+02:00</time>
      </trkpt>
      <trkpt lat="45.94991" lon="6.24041">
        <ele>1766</ele>
        <time>2016-10-02T11:09:26+02:00</time>
      </trkpt>
      <trkpt lat="45.94997" lon="6.24037">
        <ele>1765</ele>
        <time>2016-10-02T11:09:31+02:00</time>
      </trkpt>
      <trkpt lat="45.95006" lon="6.24038">
        <ele>1761</ele>
        <time>2016-10-02T11:09:38+02:00</time>
      </trkpt>
      <trkpt lat="45.95014" lon="6.24041">
        <ele>1755</ele>
        <time>2016-10-02T11:09:46+02:00</time>
      </trkpt>
      <trkpt lat="45.9502" lon="6.24035">
        <ele>1752</ele>
        <time>2016-10-02T11:09:52+02:00</time>
      </trkpt>
      <trkpt lat="45.95027" lon="6.24029">
        <ele>1749</ele>
        <time>2016-10-02T11:09:59+02:00</time>
      </trkpt>
      <trkpt lat="45.95035" lon="6.24034">
        <ele>1743</ele>
        <time>2016-10-02T11:10:06+02:00</time>
      </trkpt>
      <trkpt lat="45.95042" lon="6.2404">
        <ele>1739</ele>
        <time>2016-10-02T11:10:12+02:00</time>
      </trkpt>
      <trkpt lat="45.95049" lon="6.24049">
        <ele>1736</ele>
        <time>2016-10-02T11:10:21+02:00</time>
      </trkpt>
      <trkpt lat="45.95058" lon="6.24046">
        <ele>1731</ele>
        <time>2016-10-02T11:10:28+02:00</time>
      </trkpt>
      <trkpt lat="45.95066" lon="6.24047">
        <ele>1727</ele>
        <time>2016-10-02T11:10:35+02:00</time>
      </trkpt>
      <trkpt lat="45.95076" lon="6.2405">
        <ele>1724</ele>
        <time>2016-10-02T11:10:43+02:00</time>
      </trkpt>
      <trkpt lat="45.95084" lon="6.24058">
        <ele>1723</ele>
        <time>2016-10-02T11:10:51+02:00</time>
      </trkpt>
      <trkpt lat="45.95084" lon="6.24073">
        <ele>1731</ele>
        <time>2016-10-02T11:10:59+02:00</time>
      </trkpt>
      <trkpt lat="45.9509" lon="6.24084">
        <ele>1732</ele>
        <time>2016-10-02T11:11:07+02:00</time>
      </trkpt>
      <trkpt lat="45.95099" lon="6.24089">
        <ele>1726</ele>
        <time>2016-10-02T11:11:15+02:00</time>
      </trkpt>
      <trkpt lat="45.95105" lon="6.24096">
        <ele>1722</ele>
        <time>2016-10-02T11:11:22+02:00</time>
      </trkpt>
      <trkpt lat="45.95114" lon="6.24099">
        <ele>1718</ele>
        <time>2016-10-02T11:11:29+02:00</time>
      </trkpt>
      <trkpt lat="45.95122" lon="6.24105">
        <ele>1713</ele>
        <time>2016-10-02T11:11:38+02:00</time>
      </trkpt>
      <trkpt lat="45.9513" lon="6.24114">
        <ele>1710</ele>
        <time>2016-10-02T11:11:45+02:00</time>
      </trkpt>
      <trkpt lat="45.95139" lon="6.2412">
        <ele>1706</ele>
        <time>2016-10-02T11:11:54+02:00</time>
      </trkpt>
      <trkpt lat="45.95149" lon="6.24121">
        <ele>1702</ele>
        <time>2016-10-02T11:12:02+02:00</time>
      </trkpt>
      <trkpt lat="45.95158" lon="6.24122">
        <ele>1698</ele>
        <time>2016-10-02T11:12:10+02:00</time>
      </trkpt>
      <trkpt lat="45.95167" lon="6.24125">
        <ele>1694</ele>
        <time>2016-10-02T11:12:17+02:00</time>
      </trkpt>
      <trkpt lat="45.95177" lon="6.24121">
        <ele>1682</ele>
        <time>2016-10-02T11:12:26+02:00</time>
      </trkpt>
      <trkpt lat="45.95188" lon="6.24119">
        <ele>1671</ele>
        <time>2016-10-02T11:12:34+02:00</time>
      </trkpt>
      <trkpt lat="45.95196" lon="6.24117">
        <ele>1661</ele>
        <time>2016-10-02T11:12:42+02:00</time>
      </trkpt>
      <trkpt lat="45.95207" lon="6.24116">
        <ele>1648</ele>
        <time>2016-10-02T11:12:51+02:00</time>
      </trkpt>
      <trkpt lat="45.95206" lon="6.24131">
        <ele>1659</ele>
        <time>2016-10-02T11:13:00+02:00</time>
      </trkpt>
      <trkpt lat="45.95199" lon="6.2414">
        <ele>1670</ele>
        <time>2016-10-02T11:13:07+02:00</time>
      </trkpt>
      <trkpt lat="45.95191" lon="6.24149">
        <ele>1681</ele>
        <time>2016-10-02T11:13:15+02:00</time>
      </trkpt>
      <trkpt lat="45.95184" lon="6.24155">
        <ele>1690</ele>
        <time>2016-10-02T11:13:22+02:00</time>
      </trkpt>
      <trkpt lat="45.95174" lon="6.24163">
        <ele>1698</ele>
        <time>2016-10-02T11:13:31+02:00</time>
      </trkpt>
      <trkpt lat="45.95167" lon="6.24168">
        <ele>1704</ele>
        <time>2016-10-02T11:13:37+02:00</time>
      </trkpt>
      <trkpt lat="45.95159" lon="6.24183">
        <ele>1703</ele>
        <time>2016-10-02T11:13:48+02:00</time>
      </trkpt>
      <trkpt lat="45.95169" lon="6.24184">
        <ele>1700</ele>
        <time>2016-10-02T11:13:56+02:00</time>
      </trkpt>
      <trkpt lat="45.95179" lon="6.24181">
        <ele>1695</ele>
        <time>2016-10-02T11:14:04+02:00</time>
      </trkpt>
      <trkpt lat="45.95189" lon="6.24172">
        <ele>1691</ele>
        <time>2016-10-02T11:14:14+02:00</time>
      </trkpt>
      <trkpt lat="45.95201" lon="6.24171">
        <ele>1685</ele>
        <time>2016-10-02T11:14:24+02:00</time>
      </trkpt>
      <trkpt lat="45.95212" lon="6.24175">
        <ele>1678</ele>
        <time>2016-10-02T11:14:33+02:00</time>
      </trkpt>
      <trkpt lat="45.95219" lon="6.24189">
        <ele>1675</ele>
        <time>2016-10-02T11:14:43+02:00</time>
      </trkpt>
      <trkpt lat="45.95226" lon="6.24202">
        <ele>1672</ele>
        <time>2016-10-02T11:14:52+02:00</time>
      </trkpt>
      <trkpt lat="45.95235" lon="6.2421">
        <ele>1669</ele>
        <time>2016-10-02T11:15:01+02:00</time>
      </trkpt>
      <trkpt lat="45.95245" lon="6.24214">
        <ele>1665</ele>
        <time>2016-10-02T11:15:09+02:00</time>
      </trkpt>
      <trkpt lat="45.95249" lon="6.24229">
        <ele>1665</ele>
        <time>2016-10-02T11:15:18+02:00</time>
      </trkpt>
      <trkpt lat="45.95248" lon="6.24244">
        <ele>1668</ele>
        <time>2016-10-02T11:15:27+02:00</time>
      </trkpt>
      <trkpt lat="45.95244" lon="6.24258">
        <ele>1669</ele>
        <time>2016-10-02T11:15:35+02:00</time>
      </trkpt>
      <trkpt lat="45.95238" lon="6.24269">
        <ele>1669</ele>
        <time>2016-10-02T11:15:43+02:00</time>
      </trkpt>
      <trkpt lat="45.95233" lon="6.24281">
        <ele>1670</ele>
        <time>2016-10-02T11:15:50+02:00</time>
      </trkpt>
      <trkpt lat="45.95229" lon="6.24294">
        <ele>1669</ele>
        <time>2016-10-02T11:15:59+02:00</time>
      </trkpt>
      <trkpt lat="45.95225" lon="6.24309">
        <ele>1669</ele>
        <time>2016-10-02T11:16:08+02:00</time>
      </trkpt>
      <trkpt lat="45.95219" lon="6.24321">
        <ele>1670</ele>
        <time>2016-10-02T11:16:16+02:00</time>
      </trkpt>
      <trkpt lat="45.95214" lon="6.24335">
        <ele>1670</ele>
        <time>2016-10-02T11:16:25+02:00</time>
      </trkpt>
      <trkpt lat="45.9521" lon="6.2435">
        <ele>1670</ele>
        <time>2016-10-02T11:16:34+02:00</time>
      </trkpt>
      <trkpt lat="45.95205" lon="6.24364">
        <ele>1671</ele>
        <time>2016-10-02T11:16:43+02:00</time>
      </trkpt>
      <trkpt lat="45.95205" lon="6.2438">
        <ele>1670</ele>
        <time>2016-10-02T11:16:52+02:00</time>
      </trkpt>
      <trkpt lat="45.95204" lon="6.24395">
        <ele>1670</ele>
        <time>2016-10-02T11:17:00+02:00</time>
      </trkpt>
      <trkpt lat="45.95205" lon="6.24408">
        <ele>1669</ele>
        <time>2016-10-02T11:17:08+02:00</time>
      </trkpt>
      <trkpt lat="45.95212" lon="6.24419">
        <ele>1666</ele>
        <time>2016-10-02T11:17:16+02:00</time>
      </trkpt>
      <trkpt lat="45.95221" lon="6.24425">
        <ele>1663</ele>
        <time>2016-10-02T11:17:24+02:00</time>
      </trkpt>
      <trkpt lat="45.95229" lon="6.24434">
        <ele>1660</ele>
        <time>2016-10-02T11:17:33+02:00</time>
      </trkpt>
      <trkpt lat="45.95237" lon="6.24439">
        <ele>1658</ele>
        <time>2016-10-02T11:17:40+02:00</time>
      </trkpt>
      <trkpt lat="45.95244" lon="6.24438">
        <ele>1656</ele>
        <time>2016-10-02T11:17:45+02:00</time>
      </trkpt>
      <trkpt lat="45.9525" lon="6.24443">
        <ele>1654</ele>
        <time>2016-10-02T11:17:51+02:00</time>
      </trkpt>
      <trkpt lat="45.95253" lon="6.24454">
        <ele>1653</ele>
        <time>2016-10-02T11:17:58+02:00</time>
      </trkpt>
      <trkpt lat="45.95258" lon="6.24464">
        <ele>1651</ele>
        <time>2016-10-02T11:18:05+02:00</time>
      </trkpt>
      <trkpt lat="45.95268" lon="6.2447">
        <ele>1649</ele>
        <time>2016-10-02T11:18:13+02:00</time>
      </trkpt>
      <trkpt lat="45.95274" lon="6.24474">
        <ele>1647</ele>
        <time>2016-10-02T11:18:19+02:00</time>
      </trkpt>
      <trkpt lat="45.95284" lon="6.24482">
        <ele>1645</ele>
        <time>2016-10-02T11:18:28+02:00</time>
      </trkpt>
      <trkpt lat="45.95291" lon="6.24495">
        <ele>1643</ele>
        <time>2016-10-02T11:18:37+02:00</time>
      </trkpt>
      <trkpt lat="45.95301" lon="6.24507">
        <ele>1643</ele>
        <time>2016-10-02T11:18:47+02:00</time>
      </trkpt>
      <trkpt lat="45.9531" lon="6.24512">
        <ele>1641</ele>
        <time>2016-10-02T11:18:56+02:00</time>
      </trkpt>
      <trkpt lat="45.95319" lon="6.24522">
        <ele>1641</ele>
        <time>2016-10-02T11:19:05+02:00</time>
      </trkpt>
      <trkpt lat="45.95327" lon="6.24532">
        <ele>1641</ele>
        <time>2016-10-02T11:19:13+02:00</time>
      </trkpt>
      <trkpt lat="45.95338" lon="6.24537">
        <ele>1639</ele>
        <time>2016-10-02T11:19:22+02:00</time>
      </trkpt>
      <trkpt lat="45.95348" lon="6.2454">
        <ele>1638</ele>
        <time>2016-10-02T11:19:31+02:00</time>
      </trkpt>
      <trkpt lat="45.95355" lon="6.24534">
        <ele>1635</ele>
        <time>2016-10-02T11:19:38+02:00</time>
      </trkpt>
      <trkpt lat="45.95367" lon="6.24533">
        <ele>1633</ele>
        <time>2016-10-02T11:19:48+02:00</time>
      </trkpt>
      <trkpt lat="45.95377" lon="6.24536">
        <ele>1631</ele>
        <time>2016-10-02T11:19:56+02:00</time>
      </trkpt>
      <trkpt lat="45.95386" lon="6.24535">
        <ele>1629</ele>
        <time>2016-10-02T11:20:03+02:00</time>
      </trkpt>
      <trkpt lat="45.95394" lon="6.2453">
        <ele>1626</ele>
        <time>2016-10-02T11:20:10+02:00</time>
      </trkpt>
      <trkpt lat="45.95402" lon="6.2452">
        <ele>1622</ele>
        <time>2016-10-02T11:20:19+02:00</time>
      </trkpt>
      <trkpt lat="45.95412" lon="6.24519">
        <ele>1620</ele>
        <time>2016-10-02T11:20:27+02:00</time>
      </trkpt>
      <trkpt lat="45.95421" lon="6.24528">
        <ele>1620</ele>
        <time>2016-10-02T11:20:36+02:00</time>
      </trkpt>
      <trkpt lat="45.9543" lon="6.24538">
        <ele>1620</ele>
        <time>2016-10-02T11:20:45+02:00</time>
      </trkpt>
      <trkpt lat="45.9544" lon="6.24543">
        <ele>1618</ele>
        <time>2016-10-02T11:20:53+02:00</time>
      </trkpt>
      <trkpt lat="45.95448" lon="6.24553">
        <ele>1617</ele>
        <time>2016-10-02T11:21:02+02:00</time>
      </trkpt>
      <trkpt lat="45.95458" lon="6.24561">
        <ele>1616</ele>
        <time>2016-10-02T11:21:11+02:00</time>
      </trkpt>
      <trkpt lat="45.95461" lon="6.24574">
        <ele>1618</ele>
        <time>2016-10-02T11:21:19+02:00</time>
      </trkpt>
      <trkpt lat="45.95465" lon="6.24589">
        <ele>1619</ele>
        <time>2016-10-02T11:21:28+02:00</time>
      </trkpt>
      <trkpt lat="45.9547" lon="6.24599">
        <ele>1619</ele>
        <time>2016-10-02T11:21:34+02:00</time>
      </trkpt>
      <trkpt lat="45.95476" lon="6.24606">
        <ele>1617</ele>
        <time>2016-10-02T11:21:41+02:00</time>
      </trkpt>
      <trkpt lat="45.95484" lon="6.24613">
        <ele>1615</ele>
        <time>2016-10-02T11:21:48+02:00</time>
      </trkpt>
      <trkpt lat="45.95492" lon="6.24624">
        <ele>1614</ele>
        <time>2016-10-02T11:21:58+02:00</time>
      </trkpt>
      <trkpt lat="45.95498" lon="6.24637">
        <ele>1613</ele>
        <time>2016-10-02T11:22:06+02:00</time>
      </trkpt>
      <trkpt lat="45.95507" lon="6.24644">
        <ele>1612</ele>
        <time>2016-10-02T11:22:15+02:00</time>
      </trkpt>
      <trkpt lat="45.95514" lon="6.24636">
        <ele>1610</ele>
        <time>2016-10-02T11:22:22+02:00</time>
      </trkpt>
      <trkpt lat="45.95522" lon="6.24638">
        <ele>1608</ele>
        <time>2016-10-02T11:22:29+02:00</time>
      </trkpt>
      <trkpt lat="45.95531" lon="6.24639">
        <ele>1606</ele>
        <time>2016-10-02T11:22:36+02:00</time>
      </trkpt>
      <trkpt lat="45.95541" lon="6.24641">
        <ele>1605</ele>
        <time>2016-10-02T11:22:44+02:00</time>
      </trkpt>
      <trkpt lat="45.9555" lon="6.24639">
        <ele>1602</ele>
        <time>2016-10-02T11:22:52+02:00</time>
      </trkpt>
      <trkpt lat="45.95559" lon="6.24633">
        <ele>1600</ele>
        <time>2016-10-02T11:23:00+02:00</time>
      </trkpt>
      <trkpt lat="45.95566" lon="6.24622">
        <ele>1597</ele>
        <time>2016-10-02T11:23:08+02:00</time>
      </trkpt>
      <trkpt lat="45.95574" lon="6.24609">
        <ele>1594</ele>
        <time>2016-10-02T11:23:17+02:00</time>
      </trkpt>
      <trkpt lat="45.95579" lon="6.24596">
        <ele>1591</ele>
        <time>2016-10-02T11:23:27+02:00</time>
      </trkpt>
      <trkpt lat="45.95583" lon="6.24585">
        <ele>1588</ele>
        <time>2016-10-02T11:23:33+02:00</time>
      </trkpt>
      <trkpt lat="45.95585" lon="6.24572">
        <ele>1586</ele>
        <time>2016-10-02T11:23:41+02:00</time>
      </trkpt>
      <trkpt lat="45.95592" lon="6.24561">
        <ele>1584</ele>
        <time>2016-10-02T11:23:49+02:00</time>
      </trkpt>
      <trkpt lat="45.95599" lon="6.2455">
        <ele>1582</ele>
        <time>2016-10-02T11:23:57+02:00</time>
      </trkpt>
      <trkpt lat="45.95606" lon="6.2454">
        <ele>1580</ele>
        <time>2016-10-02T11:24:06+02:00</time>
      </trkpt>
      <trkpt lat="45.95614" lon="6.24528">
        <ele>1578</ele>
        <time>2016-10-02T11:24:15+02:00</time>
      </trkpt>
      <trkpt lat="45.9562" lon="6.24517">
        <ele>1577</ele>
        <time>2016-10-02T11:24:23+02:00</time>
      </trkpt>
      <trkpt lat="45.95624" lon="6.24504">
        <ele>1575</ele>
        <time>2016-10-02T11:24:31+02:00</time>
      </trkpt>
      <trkpt lat="45.9563" lon="6.24492">
        <ele>1573</ele>
        <time>2016-10-02T11:24:40+02:00</time>
      </trkpt>
      <trkpt lat="45.95637" lon="6.24483">
        <ele>1572</ele>
        <time>2016-10-02T11:24:47+02:00</time>
      </trkpt>
      <trkpt lat="45.95646" lon="6.24476">
        <ele>1571</ele>
        <time>2016-10-02T11:24:56+02:00</time>
      </trkpt>
      <trkpt lat="45.95657" lon="6.24477">
        <ele>1571</ele>
        <time>2016-10-02T11:25:04+02:00</time>
      </trkpt>
      <trkpt lat="45.95667" lon="6.24478">
        <ele>1572</ele>
        <time>2016-10-02T11:25:12+02:00</time>
      </trkpt>
      <trkpt lat="45.95677" lon="6.24487">
        <ele>1572</ele>
        <time>2016-10-02T11:25:22+02:00</time>
      </trkpt>
      <trkpt lat="45.95686" lon="6.24488">
        <ele>1572</ele>
        <time>2016-10-02T11:25:30+02:00</time>
      </trkpt>
      <trkpt lat="45.95698" lon="6.2449">
        <ele>1571</ele>
        <time>2016-10-02T11:25:39+02:00</time>
      </trkpt>
      <trkpt lat="45.95706" lon="6.24493">
        <ele>1571</ele>
        <time>2016-10-02T11:25:46+02:00</time>
      </trkpt>
      <trkpt lat="45.95711" lon="6.245">
        <ele>1571</ele>
        <time>2016-10-02T11:25:52+02:00</time>
      </trkpt>
      <trkpt lat="45.95718" lon="6.24506">
        <ele>1572</ele>
        <time>2016-10-02T11:25:58+02:00</time>
      </trkpt>
      <trkpt lat="45.95726" lon="6.24511">
        <ele>1572</ele>
        <time>2016-10-02T11:26:05+02:00</time>
      </trkpt>
      <trkpt lat="45.95734" lon="6.24517">
        <ele>1572</ele>
        <time>2016-10-02T11:26:12+02:00</time>
      </trkpt>
      <trkpt lat="45.95746" lon="6.24521">
        <ele>1571</ele>
        <time>2016-10-02T11:26:22+02:00</time>
      </trkpt>
      <trkpt lat="45.95752" lon="6.24525">
        <ele>1572</ele>
        <time>2016-10-02T11:26:28+02:00</time>
      </trkpt>
      <trkpt lat="45.95758" lon="6.24533">
        <ele>1573</ele>
        <time>2016-10-02T11:26:34+02:00</time>
      </trkpt>
      <trkpt lat="45.95767" lon="6.24539">
        <ele>1575</ele>
        <time>2016-10-02T11:26:42+02:00</time>
      </trkpt>
      <trkpt lat="45.95779" lon="6.24543">
        <ele>1576</ele>
        <time>2016-10-02T11:26:52+02:00</time>
      </trkpt>
      <trkpt lat="45.9579" lon="6.24542">
        <ele>1578</ele>
        <time>2016-10-02T11:27:01+02:00</time>
      </trkpt>
      <trkpt lat="45.95801" lon="6.24537">
        <ele>1579</ele>
        <time>2016-10-02T11:27:10+02:00</time>
      </trkpt>
      <trkpt lat="45.95812" lon="6.24536">
        <ele>1581</ele>
        <time>2016-10-02T11:27:19+02:00</time>
      </trkpt>
      <trkpt lat="45.95821" lon="6.24531">
        <ele>1582</ele>
        <time>2016-10-02T11:27:27+02:00</time>
      </trkpt>
      <trkpt lat="45.95832" lon="6.24528">
        <ele>1583</ele>
        <time>2016-10-02T11:27:35+02:00</time>
      </trkpt>
      <trkpt lat="45.95841" lon="6.24523">
        <ele>1585</ele>
        <time>2016-10-02T11:27:44+02:00</time>
      </trkpt>
      <trkpt lat="45.9585" lon="6.24518">
        <ele>1587</ele>
        <time>2016-10-02T11:27:52+02:00</time>
      </trkpt>
      <trkpt lat="45.9586" lon="6.24512">
        <ele>1589</ele>
        <time>2016-10-02T11:28:00+02:00</time>
      </trkpt>
      <trkpt lat="45.95868" lon="6.24512">
        <ele>1591</ele>
        <time>2016-10-02T11:28:07+02:00</time>
      </trkpt>
      <trkpt lat="45.95882" lon="6.24502">
        <ele>1594</ele>
        <time>2016-10-02T11:28:20+02:00</time>
      </trkpt>
      <trkpt lat="45.9589" lon="6.24493">
        <ele>1596</ele>
        <time>2016-10-02T11:28:28+02:00</time>
      </trkpt>
      <trkpt lat="45.95896" lon="6.24483">
        <ele>1598</ele>
        <time>2016-10-02T11:28:35+02:00</time>
      </trkpt>
      <trkpt lat="45.95905" lon="6.24477">
        <ele>1600</ele>
        <time>2016-10-02T11:28:44+02:00</time>
      </trkpt>
      <trkpt lat="45.95911" lon="6.24469">
        <ele>1601</ele>
        <time>2016-10-02T11:28:50+02:00</time>
      </trkpt>
      <trkpt lat="45.95918" lon="6.24464">
        <ele>1602</ele>
        <time>2016-10-02T11:28:57+02:00</time>
      </trkpt>
      <trkpt lat="45.95925" lon="6.24463">
        <ele>1603</ele>
        <time>2016-10-02T11:29:03+02:00</time>
      </trkpt>
      <trkpt lat="45.95932" lon="6.24459">
        <ele>1603</ele>
        <time>2016-10-02T11:29:09+02:00</time>
      </trkpt>
      <trkpt lat="45.95939" lon="6.24456">
        <ele>1604</ele>
        <time>2016-10-02T11:29:15+02:00</time>
      </trkpt>
      <trkpt lat="45.95949" lon="6.24462">
        <ele>1604</ele>
        <time>2016-10-02T11:29:24+02:00</time>
      </trkpt>
      <trkpt lat="45.95958" lon="6.24469">
        <ele>1605</ele>
        <time>2016-10-02T11:29:32+02:00</time>
      </trkpt>
      <trkpt lat="45.95968" lon="6.24473">
        <ele>1605</ele>
        <time>2016-10-02T11:29:40+02:00</time>
      </trkpt>
      <trkpt lat="45.95977" lon="6.2448">
        <ele>1606</ele>
        <time>2016-10-02T11:29:49+02:00</time>
      </trkpt>
      <trkpt lat="45.95987" lon="6.24486">
        <ele>1607</ele>
        <time>2016-10-02T11:29:58+02:00</time>
      </trkpt>
      <trkpt lat="45.95995" lon="6.24488">
        <ele>1608</ele>
        <time>2016-10-02T11:30:05+02:00</time>
      </trkpt>
      <trkpt lat="45.96001" lon="6.24478">
        <ele>1608</ele>
        <time>2016-10-02T11:30:12+02:00</time>
      </trkpt>
      <trkpt lat="45.96003" lon="6.24469">
        <ele>1607</ele>
        <time>2016-10-02T11:30:18+02:00</time>
      </trkpt>
      <trkpt lat="45.96007" lon="6.24454">
        <ele>1605</ele>
        <time>2016-10-02T11:30:27+02:00</time>
      </trkpt>
      <trkpt lat="45.96005" lon="6.24446">
        <ele>1604</ele>
        <time>2016-10-02T11:30:32+02:00</time>
      </trkpt>
      <trkpt lat="45.96008" lon="6.24437">
        <ele>1603</ele>
        <time>2016-10-02T11:30:37+02:00</time>
      </trkpt>
      <trkpt lat="45.9601" lon="6.24427">
        <ele>1602</ele>
        <time>2016-10-02T11:30:43+02:00</time>
      </trkpt>
      <trkpt lat="45.96012" lon="6.24417">
        <ele>1601</ele>
        <time>2016-10-02T11:30:49+02:00</time>
      </trkpt>
      <trkpt lat="45.96013" lon="6.24405">
        <ele>1600</ele>
        <time>2016-10-02T11:30:56+02:00</time>
      </trkpt>
      <trkpt lat="45.96019" lon="6.24393">
        <ele>1598</ele>
        <time>2016-10-02T11:31:05+02:00</time>
      </trkpt>
      <trkpt lat="45.96026" lon="6.24384">
        <ele>1595</ele>
        <time>2016-10-02T11:31:13+02:00</time>
      </trkpt>
      <trkpt lat="45.96037" lon="6.24379">
        <ele>1592</ele>
        <time>2016-10-02T11:31:22+02:00</time>
      </trkpt>
      <trkpt lat="45.96046" lon="6.24374">
        <ele>1590</ele>
        <time>2016-10-02T11:31:31+02:00</time>
      </trkpt>
      <trkpt lat="45.96051" lon="6.24366">
        <ele>1588</ele>
        <time>2016-10-02T11:31:37+02:00</time>
      </trkpt>
      <trkpt lat="45.96056" lon="6.24357">
        <ele>1587</ele>
        <time>2016-10-02T11:31:44+02:00</time>
      </trkpt>
      <trkpt lat="45.96062" lon="6.24348">
        <ele>1585</ele>
        <time>2016-10-02T11:31:51+02:00</time>
      </trkpt>
      <trkpt lat="45.96067" lon="6.24338">
        <ele>1584</ele>
        <time>2016-10-02T11:31:58+02:00</time>
      </trkpt>
      <trkpt lat="45.96076" lon="6.24333">
        <ele>1582</ele>
        <time>2016-10-02T11:32:06+02:00</time>
      </trkpt>
      <trkpt lat="45.96084" lon="6.24329">
        <ele>1580</ele>
        <time>2016-10-02T11:32:13+02:00</time>
      </trkpt>
      <trkpt lat="45.96094" lon="6.24329">
        <ele>1576</ele>
        <time>2016-10-02T11:32:21+02:00</time>
      </trkpt>
      <trkpt lat="45.96104" lon="6.24325">
        <ele>1572</ele>
        <time>2016-10-02T11:32:30+02:00</time>
      </trkpt>
      <trkpt lat="45.96114" lon="6.24321">
        <ele>1569</ele>
        <time>2016-10-02T11:32:38+02:00</time>
      </trkpt>
      <trkpt lat="45.96121" lon="6.24321">
        <ele>1566</ele>
        <time>2016-10-02T11:32:45+02:00</time>
      </trkpt>
      <trkpt lat="45.96125" lon="6.24312">
        <ele>1566</ele>
        <time>2016-10-02T11:32:51+02:00</time>
      </trkpt>
      <trkpt lat="45.96132" lon="6.24306">
        <ele>1564</ele>
        <time>2016-10-02T11:32:57+02:00</time>
      </trkpt>
      <trkpt lat="45.96138" lon="6.24304">
        <ele>1562</ele>
        <time>2016-10-02T11:33:03+02:00</time>
      </trkpt>
      <trkpt lat="45.96146" lon="6.24305">
        <ele>1560</ele>
        <time>2016-10-02T11:33:10+02:00</time>
      </trkpt>
      <trkpt lat="45.96157" lon="6.24315">
        <ele>1554</ele>
        <time>2016-10-02T11:33:20+02:00</time>
      </trkpt>
      <trkpt lat="45.96169" lon="6.24323">
        <ele>1547</ele>
        <time>2016-10-02T11:33:31+02:00</time>
      </trkpt>
      <trkpt lat="45.96177" lon="6.24325">
        <ele>1543</ele>
        <time>2016-10-02T11:33:38+02:00</time>
      </trkpt>
      <trkpt lat="45.96186" lon="6.24324">
        <ele>1540</ele>
        <time>2016-10-02T11:33:45+02:00</time>
      </trkpt>
      <trkpt lat="45.96193" lon="6.2432">
        <ele>1539</ele>
        <time>2016-10-02T11:33:52+02:00</time>
      </trkpt>
      <trkpt lat="45.96201" lon="6.24315">
        <ele>1538</ele>
        <time>2016-10-02T11:33:59+02:00</time>
      </trkpt>
      <trkpt lat="45.9621" lon="6.2431">
        <ele>1536</ele>
        <time>2016-10-02T11:34:07+02:00</time>
      </trkpt>
      <trkpt lat="45.96219" lon="6.24307">
        <ele>1534</ele>
        <time>2016-10-02T11:34:15+02:00</time>
      </trkpt>
      <trkpt lat="45.96227" lon="6.24304">
        <ele>1532</ele>
        <time>2016-10-02T11:34:22+02:00</time>
      </trkpt>
      <trkpt lat="45.96237" lon="6.24302">
        <ele>1529</ele>
        <time>2016-10-02T11:34:30+02:00</time>
      </trkpt>
      <trkpt lat="45.96246" lon="6.24305">
        <ele>1525</ele>
        <time>2016-10-02T11:34:38+02:00</time>
      </trkpt>
      <trkpt lat="45.96255" lon="6.24304">
        <ele>1522</ele>
        <time>2016-10-02T11:34:45+02:00</time>
      </trkpt>
      <trkpt lat="45.96262" lon="6.24311">
        <ele>1518</ele>
        <time>2016-10-02T11:34:52+02:00</time>
      </trkpt>
      <trkpt lat="45.96272" lon="6.24315">
        <ele>1514</ele>
        <time>2016-10-02T11:35:00+02:00</time>
      </trkpt>
      <trkpt lat="45.96282" lon="6.24314">
        <ele>1511</ele>
        <time>2016-10-02T11:35:09+02:00</time>
      </trkpt>
      <trkpt lat="45.96291" lon="6.2432">
        <ele>1507</ele>
        <time>2016-10-02T11:35:17+02:00</time>
      </trkpt>
      <trkpt lat="45.96301" lon="6.24322">
        <ele>1505</ele>
        <time>2016-10-02T11:35:26+02:00</time>
      </trkpt>
      <trkpt lat="45.96311" lon="6.24325">
        <ele>1501</ele>
        <time>2016-10-02T11:35:34+02:00</time>
      </trkpt>
      <trkpt lat="45.96322" lon="6.24326">
        <ele>1499</ele>
        <time>2016-10-02T11:35:42+02:00</time>
      </trkpt>
      <trkpt lat="45.9633" lon="6.24325">
        <ele>1497</ele>
        <time>2016-10-02T11:35:49+02:00</time>
      </trkpt>
      <trkpt lat="45.9634" lon="6.24326">
        <ele>1495</ele>
        <time>2016-10-02T11:35:58+02:00</time>
      </trkpt>
      <trkpt lat="45.96343" lon="6.24332">
        <ele>1493</ele>
        <time>2016-10-02T11:36:02+02:00</time>
      </trkpt>
      <trkpt lat="45.9635" lon="6.2433">
        <ele>1492</ele>
        <time>2016-10-02T11:36:08+02:00</time>
      </trkpt>
      <trkpt lat="45.96361" lon="6.24335">
        <ele>1490</ele>
        <time>2016-10-02T11:36:17+02:00</time>
      </trkpt>
      <trkpt lat="45.96357" lon="6.24348">
        <ele>1490</ele>
        <time>2016-10-02T11:36:25+02:00</time>
      </trkpt>
      <trkpt lat="45.9635" lon="6.2435">
        <ele>1491</ele>
        <time>2016-10-02T11:36:31+02:00</time>
      </trkpt>
      <trkpt lat="45.96342" lon="6.2435">
        <ele>1493</ele>
        <time>2016-10-02T11:36:38+02:00</time>
      </trkpt>
      <trkpt lat="45.96335" lon="6.24353">
        <ele>1494</ele>
        <time>2016-10-02T11:36:44+02:00</time>
      </trkpt>
      <trkpt lat="45.96326" lon="6.24348">
        <ele>1496</ele>
        <time>2016-10-02T11:36:51+02:00</time>
      </trkpt>
      <trkpt lat="45.9632" lon="6.24341">
        <ele>1497</ele>
        <time>2016-10-02T11:36:58+02:00</time>
      </trkpt>
      <trkpt lat="45.96314" lon="6.24345">
        <ele>1498</ele>
        <time>2016-10-02T11:37:03+02:00</time>
      </trkpt>
      <trkpt lat="45.96304" lon="6.24343">
        <ele>1501</ele>
        <time>2016-10-02T11:37:11+02:00</time>
      </trkpt>
      <trkpt lat="45.96296" lon="6.24343">
        <ele>1502</ele>
        <time>2016-10-02T11:37:18+02:00</time>
      </trkpt>
      <trkpt lat="45.96288" lon="6.24343">
        <ele>1504</ele>
        <time>2016-10-02T11:37:24+02:00</time>
      </trkpt>
      <trkpt lat="45.96277" lon="6.24344">
        <ele>1506</ele>
        <time>2016-10-02T11:37:33+02:00</time>
      </trkpt>
      <trkpt lat="45.96267" lon="6.24349">
        <ele>1507</ele>
        <time>2016-10-02T11:37:42+02:00</time>
      </trkpt>
      <trkpt lat="45.96258" lon="6.24355">
        <ele>1508</ele>
        <time>2016-10-02T11:37:50+02:00</time>
      </trkpt>
      <trkpt lat="45.9625" lon="6.24365">
        <ele>1508</ele>
        <time>2016-10-02T11:37:58+02:00</time>
      </trkpt>
      <trkpt lat="45.96247" lon="6.24376">
        <ele>1508</ele>
        <time>2016-10-02T11:38:04+02:00</time>
      </trkpt>
      <trkpt lat="45.96248" lon="6.24385">
        <ele>1506</ele>
        <time>2016-10-02T11:38:10+02:00</time>
      </trkpt>
      <trkpt lat="45.9625" lon="6.24394">
        <ele>1504</ele>
        <time>2016-10-02T11:38:15+02:00</time>
      </trkpt>
      <trkpt lat="45.96253" lon="6.24418">
        <ele>1501</ele>
        <time>2016-10-02T11:38:28+02:00</time>
      </trkpt>
      <trkpt lat="45.96253" lon="6.24433">
        <ele>1502</ele>
        <time>2016-10-02T11:38:37+02:00</time>
      </trkpt>
      <trkpt lat="45.96254" lon="6.24446">
        <ele>1504</ele>
        <time>2016-10-02T11:38:44+02:00</time>
      </trkpt>
      <trkpt lat="45.96257" lon="6.24461">
        <ele>1505</ele>
        <time>2016-10-02T11:38:53+02:00</time>
      </trkpt>
      <trkpt lat="45.9626" lon="6.24476">
        <ele>1506</ele>
        <time>2016-10-02T11:39:01+02:00</time>
      </trkpt>
      <trkpt lat="45.96264" lon="6.24487">
        <ele>1506</ele>
        <time>2016-10-02T11:39:09+02:00</time>
      </trkpt>
      <trkpt lat="45.9627" lon="6.245">
        <ele>1506</ele>
        <time>2016-10-02T11:39:17+02:00</time>
      </trkpt>
      <trkpt lat="45.96277" lon="6.24512">
        <ele>1508</ele>
        <time>2016-10-02T11:39:26+02:00</time>
      </trkpt>
      <trkpt lat="45.96284" lon="6.24524">
        <ele>1510</ele>
        <time>2016-10-02T11:39:34+02:00</time>
      </trkpt>
      <trkpt lat="45.96288" lon="6.24538">
        <ele>1512</ele>
        <time>2016-10-02T11:39:43+02:00</time>
      </trkpt>
      <trkpt lat="45.9629" lon="6.24546">
        <ele>1514</ele>
        <time>2016-10-02T11:39:48+02:00</time>
      </trkpt>
      <trkpt lat="45.96295" lon="6.24568">
        <ele>1517</ele>
        <time>2016-10-02T11:40:01+02:00</time>
      </trkpt>
      <trkpt lat="45.96297" lon="6.24582">
        <ele>1519</ele>
        <time>2016-10-02T11:40:09+02:00</time>
      </trkpt>
      <trkpt lat="45.96301" lon="6.24593">
        <ele>1521</ele>
        <time>2016-10-02T11:40:16+02:00</time>
      </trkpt>
      <trkpt lat="45.96306" lon="6.24605">
        <ele>1522</ele>
        <time>2016-10-02T11:40:24+02:00</time>
      </trkpt>
      <trkpt lat="45.96312" lon="6.24615">
        <ele>1522</ele>
        <time>2016-10-02T11:40:31+02:00</time>
      </trkpt>
      <trkpt lat="45.96321" lon="6.24623">
        <ele>1520</ele>
        <time>2016-10-02T11:40:40+02:00</time>
      </trkpt>
      <trkpt lat="45.9633" lon="6.2463">
        <ele>1518</ele>
        <time>2016-10-02T11:40:48+02:00</time>
      </trkpt>
      <trkpt lat="45.96338" lon="6.24639">
        <ele>1518</ele>
        <time>2016-10-02T11:40:57+02:00</time>
      </trkpt>
      <trkpt lat="45.96347" lon="6.24647">
        <ele>1519</ele>
        <time>2016-10-02T11:41:05+02:00</time>
      </trkpt>
      <trkpt lat="45.96356" lon="6.24656">
        <ele>1520</ele>
        <time>2016-10-02T11:41:14+02:00</time>
      </trkpt>
      <trkpt lat="45.96362" lon="6.24667">
        <ele>1522</ele>
        <time>2016-10-02T11:41:22+02:00</time>
      </trkpt>
      <trkpt lat="45.96371" lon="6.24676">
        <ele>1522</ele>
        <time>2016-10-02T11:41:30+02:00</time>
      </trkpt>
      <trkpt lat="45.96379" lon="6.24685">
        <ele>1522</ele>
        <time>2016-10-02T11:41:39+02:00</time>
      </trkpt>
      <trkpt lat="45.96388" lon="6.24695">
        <ele>1522</ele>
        <time>2016-10-02T11:41:48+02:00</time>
      </trkpt>
      <trkpt lat="45.96394" lon="6.24708">
        <ele>1522</ele>
        <time>2016-10-02T11:41:57+02:00</time>
      </trkpt>
      <trkpt lat="45.96402" lon="6.24718">
        <ele>1522</ele>
        <time>2016-10-02T11:42:05+02:00</time>
      </trkpt>
      <trkpt lat="45.96408" lon="6.2473">
        <ele>1522</ele>
        <time>2016-10-02T11:42:13+02:00</time>
      </trkpt>
      <trkpt lat="45.96415" lon="6.24737">
        <ele>1522</ele>
        <time>2016-10-02T11:42:20+02:00</time>
      </trkpt>
      <trkpt lat="45.96422" lon="6.24742">
        <ele>1522</ele>
        <time>2016-10-02T11:42:26+02:00</time>
      </trkpt>
      <trkpt lat="45.96429" lon="6.24753">
        <ele>1524</ele>
        <time>2016-10-02T11:42:35+02:00</time>
      </trkpt>
      <trkpt lat="45.96437" lon="6.24761">
        <ele>1526</ele>
        <time>2016-10-02T11:42:43+02:00</time>
      </trkpt>
      <trkpt lat="45.96442" lon="6.24767">
        <ele>1527</ele>
        <time>2016-10-02T11:42:48+02:00</time>
      </trkpt>
      <trkpt lat="45.96448" lon="6.24777">
        <ele>1528</ele>
        <time>2016-10-02T11:42:55+02:00</time>
      </trkpt>
      <trkpt lat="45.96455" lon="6.24786">
        <ele>1530</ele>
        <time>2016-10-02T11:43:03+02:00</time>
      </trkpt>
      <trkpt lat="45.96461" lon="6.24793">
        <ele>1531</ele>
        <time>2016-10-02T11:43:09+02:00</time>
      </trkpt>
      <trkpt lat="45.96468" lon="6.24801">
        <ele>1532</ele>
        <time>2016-10-02T11:43:16+02:00</time>
      </trkpt>
      <trkpt lat="45.96475" lon="6.24808">
        <ele>1533</ele>
        <time>2016-10-02T11:43:23+02:00</time>
      </trkpt>
      <trkpt lat="45.96483" lon="6.24817">
        <ele>1534</ele>
        <time>2016-10-02T11:43:31+02:00</time>
      </trkpt>
      <trkpt lat="45.96492" lon="6.24827">
        <ele>1535</ele>
        <time>2016-10-02T11:43:40+02:00</time>
      </trkpt>
      <trkpt lat="45.96496" lon="6.24836">
        <ele>1536</ele>
        <time>2016-10-02T11:43:47+02:00</time>
      </trkpt>
      <trkpt lat="45.96503" lon="6.24847">
        <ele>1537</ele>
        <time>2016-10-02T11:43:55+02:00</time>
      </trkpt>
      <trkpt lat="45.96511" lon="6.24855">
        <ele>1540</ele>
        <time>2016-10-02T11:44:02+02:00</time>
      </trkpt>
      <trkpt lat="45.96518" lon="6.24865">
        <ele>1542</ele>
        <time>2016-10-02T11:44:10+02:00</time>
      </trkpt>
      <trkpt lat="45.96523" lon="6.24871">
        <ele>1543</ele>
        <time>2016-10-02T11:44:16+02:00</time>
      </trkpt>
      <trkpt lat="45.96529" lon="6.24876">
        <ele>1544</ele>
        <time>2016-10-02T11:44:21+02:00</time>
      </trkpt>
      <trkpt lat="45.96534" lon="6.24882">
        <ele>1546</ele>
        <time>2016-10-02T11:44:26+02:00</time>
      </trkpt>
      <trkpt lat="45.96541" lon="6.24886">
        <ele>1547</ele>
        <time>2016-10-02T11:44:32+02:00</time>
      </trkpt>
      <trkpt lat="45.96551" lon="6.2489">
        <ele>1548</ele>
        <time>2016-10-02T11:44:40+02:00</time>
      </trkpt>
      <trkpt lat="45.96561" lon="6.24895">
        <ele>1549</ele>
        <time>2016-10-02T11:44:49+02:00</time>
      </trkpt>
      <trkpt lat="45.96571" lon="6.249">
        <ele>1550</ele>
        <time>2016-10-02T11:44:58+02:00</time>
      </trkpt>
      <trkpt lat="45.96578" lon="6.24902">
        <ele>1551</ele>
        <time>2016-10-02T11:45:03+02:00</time>
      </trkpt>
      <trkpt lat="45.96587" lon="6.24908">
        <ele>1552</ele>
        <time>2016-10-02T11:45:11+02:00</time>
      </trkpt>
      <trkpt lat="45.96593" lon="6.24915">
        <ele>1554</ele>
        <time>2016-10-02T11:45:18+02:00</time>
      </trkpt>
      <trkpt lat="45.96598" lon="6.24938">
        <ele>1554</ele>
        <time>2016-10-02T11:45:31+02:00</time>
      </trkpt>
      <trkpt lat="45.96599" lon="6.24952">
        <ele>1554</ele>
        <time>2016-10-02T11:45:39+02:00</time>
      </trkpt>
      <trkpt lat="45.966" lon="6.24962">
        <ele>1554</ele>
        <time>2016-10-02T11:45:45+02:00</time>
      </trkpt>
      <trkpt lat="45.96601" lon="6.24974">
        <ele>1554</ele>
        <time>2016-10-02T11:45:51+02:00</time>
      </trkpt>
      <trkpt lat="45.9661" lon="6.24983">
        <ele>1554</ele>
        <time>2016-10-02T11:46:00+02:00</time>
      </trkpt>
      <trkpt lat="45.96614" lon="6.24991">
        <ele>1554</ele>
        <time>2016-10-02T11:46:06+02:00</time>
      </trkpt>
      <trkpt lat="45.96619" lon="6.25005">
        <ele>1553</ele>
        <time>2016-10-02T11:46:15+02:00</time>
      </trkpt>
      <trkpt lat="45.96623" lon="6.25013">
        <ele>1553</ele>
        <time>2016-10-02T11:46:20+02:00</time>
      </trkpt>
      <trkpt lat="45.96627" lon="6.2502">
        <ele>1552</ele>
        <time>2016-10-02T11:46:25+02:00</time>
      </trkpt>
      <trkpt lat="45.96631" lon="6.25026">
        <ele>1552</ele>
        <time>2016-10-02T11:46:30+02:00</time>
      </trkpt>
      <trkpt lat="45.96634" lon="6.25033">
        <ele>1551</ele>
        <time>2016-10-02T11:46:34+02:00</time>
      </trkpt>
      <trkpt lat="45.96637" lon="6.25041">
        <ele>1551</ele>
        <time>2016-10-02T11:46:39+02:00</time>
      </trkpt>
      <trkpt lat="45.96642" lon="6.25046">
        <ele>1550</ele>
        <time>2016-10-02T11:46:44+02:00</time>
      </trkpt>
      <trkpt lat="45.96648" lon="6.25046">
        <ele>1549</ele>
        <time>2016-10-02T11:46:49+02:00</time>
      </trkpt>
      <trkpt lat="45.96655" lon="6.25052">
        <ele>1548</ele>
        <time>2016-10-02T11:46:55+02:00</time>
      </trkpt>
      <trkpt lat="45.9666" lon="6.2506">
        <ele>1546</ele>
        <time>2016-10-02T11:47:02+02:00</time>
      </trkpt>
      <trkpt lat="45.96665" lon="6.25068">
        <ele>1545</ele>
        <time>2016-10-02T11:47:07+02:00</time>
      </trkpt>
      <trkpt lat="45.9667" lon="6.25075">
        <ele>1544</ele>
        <time>2016-10-02T11:47:14+02:00</time>
      </trkpt>
      <trkpt lat="45.96674" lon="6.25085">
        <ele>1543</ele>
        <time>2016-10-02T11:47:20+02:00</time>
      </trkpt>
      <trkpt lat="45.9668" lon="6.25094">
        <ele>1542</ele>
        <time>2016-10-02T11:47:27+02:00</time>
      </trkpt>
      <trkpt lat="45.96688" lon="6.251">
        <ele>1541</ele>
        <time>2016-10-02T11:47:34+02:00</time>
      </trkpt>
      <trkpt lat="45.96697" lon="6.25112">
        <ele>1540</ele>
        <time>2016-10-02T11:47:44+02:00</time>
      </trkpt>
      <trkpt lat="45.96703" lon="6.25124">
        <ele>1538</ele>
        <time>2016-10-02T11:47:52+02:00</time>
      </trkpt>
      <trkpt lat="45.96706" lon="6.25139">
        <ele>1537</ele>
        <time>2016-10-02T11:48:01+02:00</time>
      </trkpt>
      <trkpt lat="45.96712" lon="6.25155">
        <ele>1534</ele>
        <time>2016-10-02T11:48:12+02:00</time>
      </trkpt>
      <trkpt lat="45.96716" lon="6.2517">
        <ele>1532</ele>
        <time>2016-10-02T11:48:21+02:00</time>
      </trkpt>
      <trkpt lat="45.9672" lon="6.25184">
        <ele>1530</ele>
        <time>2016-10-02T11:48:29+02:00</time>
      </trkpt>
      <trkpt lat="45.96719" lon="6.25196">
        <ele>1530</ele>
        <time>2016-10-02T11:48:36+02:00</time>
      </trkpt>
      <trkpt lat="45.96722" lon="6.25207">
        <ele>1528</ele>
        <time>2016-10-02T11:48:42+02:00</time>
      </trkpt>
      <trkpt lat="45.96724" lon="6.25222">
        <ele>1527</ele>
        <time>2016-10-02T11:48:51+02:00</time>
      </trkpt>
      <trkpt lat="45.96721" lon="6.25238">
        <ele>1527</ele>
        <time>2016-10-02T11:49:00+02:00</time>
      </trkpt>
      <trkpt lat="45.96721" lon="6.25252">
        <ele>1527</ele>
        <time>2016-10-02T11:49:08+02:00</time>
      </trkpt>
      <trkpt lat="45.96721" lon="6.25267">
        <ele>1526</ele>
        <time>2016-10-02T11:49:17+02:00</time>
      </trkpt>
      <trkpt lat="45.96724" lon="6.25282">
        <ele>1525</ele>
        <time>2016-10-02T11:49:26+02:00</time>
      </trkpt>
      <trkpt lat="45.96725" lon="6.25296">
        <ele>1524</ele>
        <time>2016-10-02T11:49:34+02:00</time>
      </trkpt>
      <trkpt lat="45.96723" lon="6.25311">
        <ele>1525</ele>
        <time>2016-10-02T11:49:42+02:00</time>
      </trkpt>
      <trkpt lat="45.9672" lon="6.25326">
        <ele>1525</ele>
        <time>2016-10-02T11:49:51+02:00</time>
      </trkpt>
      <trkpt lat="45.96719" lon="6.25342">
        <ele>1526</ele>
        <time>2016-10-02T11:50:00+02:00</time>
      </trkpt>
      <trkpt lat="45.96718" lon="6.25358">
        <ele>1527</ele>
        <time>2016-10-02T11:50:09+02:00</time>
      </trkpt>
      <trkpt lat="45.96713" lon="6.25372">
        <ele>1528</ele>
        <time>2016-10-02T11:50:17+02:00</time>
      </trkpt>
      <trkpt lat="45.96704" lon="6.25376">
        <ele>1530</ele>
        <time>2016-10-02T11:50:25+02:00</time>
      </trkpt>
      <trkpt lat="45.96695" lon="6.25386">
        <ele>1532</ele>
        <time>2016-10-02T11:50:35+02:00</time>
      </trkpt>
      <trkpt lat="45.96686" lon="6.25394">
        <ele>1533</ele>
        <time>2016-10-02T11:50:43+02:00</time>
      </trkpt>
      <trkpt lat="45.96676" lon="6.25398">
        <ele>1535</ele>
        <time>2016-10-02T11:50:51+02:00</time>
      </trkpt>
      <trkpt lat="45.96667" lon="6.25408">
        <ele>1535</ele>
        <time>2016-10-02T11:51:01+02:00</time>
      </trkpt>
      <trkpt lat="45.96658" lon="6.25416">
        <ele>1538</ele>
        <time>2016-10-02T11:51:09+02:00</time>
      </trkpt>
      <trkpt lat="45.96648" lon="6.25424">
        <ele>1542</ele>
        <time>2016-10-02T11:51:18+02:00</time>
      </trkpt>
      <trkpt lat="45.96639" lon="6.2543">
        <ele>1544</ele>
        <time>2016-10-02T11:51:26+02:00</time>
      </trkpt>
      <trkpt lat="45.96631" lon="6.2544">
        <ele>1546</ele>
        <time>2016-10-02T11:51:35+02:00</time>
      </trkpt>
      <trkpt lat="45.96625" lon="6.25453">
        <ele>1547</ele>
        <time>2016-10-02T11:51:43+02:00</time>
      </trkpt>
      <trkpt lat="45.96618" lon="6.25465">
        <ele>1547</ele>
        <time>2016-10-02T11:51:52+02:00</time>
      </trkpt>
      <trkpt lat="45.96613" lon="6.25475">
        <ele>1547</ele>
        <time>2016-10-02T11:51:59+02:00</time>
      </trkpt>
      <trkpt lat="45.96606" lon="6.25478">
        <ele>1548</ele>
        <time>2016-10-02T11:52:05+02:00</time>
      </trkpt>
      <trkpt lat="45.96598" lon="6.25485">
        <ele>1549</ele>
        <time>2016-10-02T11:52:12+02:00</time>
      </trkpt>
      <trkpt lat="45.96592" lon="6.2549">
        <ele>1549</ele>
        <time>2016-10-02T11:52:18+02:00</time>
      </trkpt>
      <trkpt lat="45.96589" lon="6.25499">
        <ele>1548</ele>
        <time>2016-10-02T11:52:24+02:00</time>
      </trkpt>
      <trkpt lat="45.96584" lon="6.25506">
        <ele>1548</ele>
        <time>2016-10-02T11:52:29+02:00</time>
      </trkpt>
      <trkpt lat="45.96582" lon="6.25515">
        <ele>1548</ele>
        <time>2016-10-02T11:52:34+02:00</time>
      </trkpt>
      <trkpt lat="45.96577" lon="6.25524">
        <ele>1548</ele>
        <time>2016-10-02T11:52:41+02:00</time>
      </trkpt>
      <trkpt lat="45.96569" lon="6.25531">
        <ele>1549</ele>
        <time>2016-10-02T11:52:49+02:00</time>
      </trkpt>
      <trkpt lat="45.96558" lon="6.25537">
        <ele>1550</ele>
        <time>2016-10-02T11:52:58+02:00</time>
      </trkpt>
      <trkpt lat="45.96553" lon="6.25548">
        <ele>1551</ele>
        <time>2016-10-02T11:53:05+02:00</time>
      </trkpt>
      <trkpt lat="45.96547" lon="6.25557">
        <ele>1551</ele>
        <time>2016-10-02T11:53:12+02:00</time>
      </trkpt>
      <trkpt lat="45.96539" lon="6.2556">
        <ele>1552</ele>
        <time>2016-10-02T11:53:19+02:00</time>
      </trkpt>
      <trkpt lat="45.96532" lon="6.25566">
        <ele>1552</ele>
        <time>2016-10-02T11:53:25+02:00</time>
      </trkpt>
      <trkpt lat="45.96525" lon="6.2557">
        <ele>1553</ele>
        <time>2016-10-02T11:53:31+02:00</time>
      </trkpt>
      <trkpt lat="45.96518" lon="6.25574">
        <ele>1554</ele>
        <time>2016-10-02T11:53:38+02:00</time>
      </trkpt>
      <trkpt lat="45.96511" lon="6.2558">
        <ele>1554</ele>
        <time>2016-10-02T11:53:44+02:00</time>
      </trkpt>
      <trkpt lat="45.96506" lon="6.25588">
        <ele>1555</ele>
        <time>2016-10-02T11:53:51+02:00</time>
      </trkpt>
      <trkpt lat="45.965" lon="6.25593">
        <ele>1555</ele>
        <time>2016-10-02T11:53:57+02:00</time>
      </trkpt>
      <trkpt lat="45.96494" lon="6.25592">
        <ele>1556</ele>
        <time>2016-10-02T11:54:02+02:00</time>
      </trkpt>
      <trkpt lat="45.96486" lon="6.25594">
        <ele>1557</ele>
        <time>2016-10-02T11:54:09+02:00</time>
      </trkpt>
      <trkpt lat="45.96481" lon="6.25601">
        <ele>1557</ele>
        <time>2016-10-02T11:54:15+02:00</time>
      </trkpt>
      <trkpt lat="45.96479" lon="6.25613">
        <ele>1558</ele>
        <time>2016-10-02T11:54:22+02:00</time>
      </trkpt>
      <trkpt lat="45.96476" lon="6.25627">
        <ele>1559</ele>
        <time>2016-10-02T11:54:30+02:00</time>
      </trkpt>
      <trkpt lat="45.96469" lon="6.25636">
        <ele>1560</ele>
        <time>2016-10-02T11:54:38+02:00</time>
      </trkpt>
      <trkpt lat="45.96464" lon="6.25647">
        <ele>1560</ele>
        <time>2016-10-02T11:54:45+02:00</time>
      </trkpt>
      <trkpt lat="45.96462" lon="6.2566">
        <ele>1561</ele>
        <time>2016-10-02T11:54:52+02:00</time>
      </trkpt>
      <trkpt lat="45.96459" lon="6.25671">
        <ele>1562</ele>
        <time>2016-10-02T11:54:59+02:00</time>
      </trkpt>
      <trkpt lat="45.9645" lon="6.25674">
        <ele>1563</ele>
        <time>2016-10-02T11:55:07+02:00</time>
      </trkpt>
      <trkpt lat="45.96441" lon="6.25681">
        <ele>1564</ele>
        <time>2016-10-02T11:55:15+02:00</time>
      </trkpt>
      <trkpt lat="45.96433" lon="6.25689">
        <ele>1565</ele>
        <time>2016-10-02T11:55:23+02:00</time>
      </trkpt>
      <trkpt lat="45.96425" lon="6.25699">
        <ele>1566</ele>
        <time>2016-10-02T11:55:32+02:00</time>
      </trkpt>
      <trkpt lat="45.96417" lon="6.25706">
        <ele>1567</ele>
        <time>2016-10-02T11:55:40+02:00</time>
      </trkpt>
      <trkpt lat="45.96407" lon="6.25711">
        <ele>1570</ele>
        <time>2016-10-02T11:55:48+02:00</time>
      </trkpt>
      <trkpt lat="45.96399" lon="6.2572">
        <ele>1572</ele>
        <time>2016-10-02T11:55:56+02:00</time>
      </trkpt>
      <trkpt lat="45.96391" lon="6.25729">
        <ele>1574</ele>
        <time>2016-10-02T11:56:04+02:00</time>
      </trkpt>
      <trkpt lat="45.96386" lon="6.25741">
        <ele>1575</ele>
        <time>2016-10-02T11:56:13+02:00</time>
      </trkpt>
      <trkpt lat="45.9638" lon="6.25751">
        <ele>1577</ele>
        <time>2016-10-02T11:56:20+02:00</time>
      </trkpt>
      <trkpt lat="45.96372" lon="6.25759">
        <ele>1579</ele>
        <time>2016-10-02T11:56:27+02:00</time>
      </trkpt>
      <trkpt lat="45.96365" lon="6.25765">
        <ele>1580</ele>
        <time>2016-10-02T11:56:34+02:00</time>
      </trkpt>
      <trkpt lat="45.96358" lon="6.25767">
        <ele>1582</ele>
        <time>2016-10-02T11:56:40+02:00</time>
      </trkpt>
      <trkpt lat="45.96349" lon="6.25773">
        <ele>1583</ele>
        <time>2016-10-02T11:56:49+02:00</time>
      </trkpt>
      <trkpt lat="45.9634" lon="6.25775">
        <ele>1585</ele>
        <time>2016-10-02T11:56:56+02:00</time>
      </trkpt>
      <trkpt lat="45.96333" lon="6.25785">
        <ele>1586</ele>
        <time>2016-10-02T11:57:04+02:00</time>
      </trkpt>
      <trkpt lat="45.96325" lon="6.25793">
        <ele>1589</ele>
        <time>2016-10-02T11:57:12+02:00</time>
      </trkpt>
      <trkpt lat="45.96317" lon="6.25801">
        <ele>1592</ele>
        <time>2016-10-02T11:57:20+02:00</time>
      </trkpt>
      <trkpt lat="45.9631" lon="6.25803">
        <ele>1595</ele>
        <time>2016-10-02T11:57:25+02:00</time>
      </trkpt>
      <trkpt lat="45.96303" lon="6.25804">
        <ele>1597</ele>
        <time>2016-10-02T11:57:31+02:00</time>
      </trkpt>
      <trkpt lat="45.96297" lon="6.25808">
        <ele>1599</ele>
        <time>2016-10-02T11:57:37+02:00</time>
      </trkpt>
      <trkpt lat="45.96288" lon="6.25811">
        <ele>1602</ele>
        <time>2016-10-02T11:57:45+02:00</time>
      </trkpt>
      <trkpt lat="45.96282" lon="6.25821">
        <ele>1604</ele>
        <time>2016-10-02T11:57:52+02:00</time>
      </trkpt>
      <trkpt lat="45.96277" lon="6.2583">
        <ele>1606</ele>
        <time>2016-10-02T11:57:59+02:00</time>
      </trkpt>
      <trkpt lat="45.9627" lon="6.25837">
        <ele>1609</ele>
        <time>2016-10-02T11:58:06+02:00</time>
      </trkpt>
      <trkpt lat="45.96262" lon="6.25841">
        <ele>1611</ele>
        <time>2016-10-02T11:58:13+02:00</time>
      </trkpt>
      <trkpt lat="45.96255" lon="6.25845">
        <ele>1614</ele>
        <time>2016-10-02T11:58:19+02:00</time>
      </trkpt>
      <trkpt lat="45.96247" lon="6.25848">
        <ele>1615</ele>
        <time>2016-10-02T11:58:26+02:00</time>
      </trkpt>
      <trkpt lat="45.96239" lon="6.25848">
        <ele>1615</ele>
        <time>2016-10-02T11:58:32+02:00</time>
      </trkpt>
      <trkpt lat="45.96231" lon="6.2585">
        <ele>1615</ele>
        <time>2016-10-02T11:58:38+02:00</time>
      </trkpt>
      <trkpt lat="45.96226" lon="6.25857">
        <ele>1615</ele>
        <time>2016-10-02T11:58:44+02:00</time>
      </trkpt>
      <trkpt lat="45.96219" lon="6.25861">
        <ele>1615</ele>
        <time>2016-10-02T11:58:51+02:00</time>
      </trkpt>
      <trkpt lat="45.9621" lon="6.25866">
        <ele>1615</ele>
        <time>2016-10-02T11:58:58+02:00</time>
      </trkpt>
      <trkpt lat="45.96201" lon="6.25872">
        <ele>1614</ele>
        <time>2016-10-02T11:59:06+02:00</time>
      </trkpt>
      <trkpt lat="45.96191" lon="6.25875">
        <ele>1614</ele>
        <time>2016-10-02T11:59:15+02:00</time>
      </trkpt>
      <trkpt lat="45.9618" lon="6.25878">
        <ele>1614</ele>
        <time>2016-10-02T11:59:24+02:00</time>
      </trkpt>
      <trkpt lat="45.96169" lon="6.25879">
        <ele>1614</ele>
        <time>2016-10-02T11:59:33+02:00</time>
      </trkpt>
      <trkpt lat="45.96159" lon="6.25881">
        <ele>1614</ele>
        <time>2016-10-02T11:59:41+02:00</time>
      </trkpt>
      <trkpt lat="45.96149" lon="6.25887">
        <ele>1614</ele>
        <time>2016-10-02T11:59:49+02:00</time>
      </trkpt>
      <trkpt lat="45.9614" lon="6.25893">
        <ele>1615</ele>
        <time>2016-10-02T11:59:57+02:00</time>
      </trkpt>
      <trkpt lat="45.96132" lon="6.25901">
        <ele>1615</ele>
        <time>2016-10-02T12:00:05+02:00</time>
      </trkpt>
      <trkpt lat="45.96123" lon="6.25911">
        <ele>1616</ele>
        <time>2016-10-02T12:00:14+02:00</time>
      </trkpt>
      <trkpt lat="45.96115" lon="6.25918">
        <ele>1616</ele>
        <time>2016-10-02T12:00:22+02:00</time>
      </trkpt>
      <trkpt lat="45.96107" lon="6.25928">
        <ele>1617</ele>
        <time>2016-10-02T12:00:30+02:00</time>
      </trkpt>
      <trkpt lat="45.961" lon="6.2594">
        <ele>1617</ele>
        <time>2016-10-02T12:00:39+02:00</time>
      </trkpt>
      <trkpt lat="45.96093" lon="6.25949">
        <ele>1618</ele>
        <time>2016-10-02T12:00:47+02:00</time>
      </trkpt>
      <trkpt lat="45.96085" lon="6.2596">
        <ele>1618</ele>
        <time>2016-10-02T12:00:55+02:00</time>
      </trkpt>
      <trkpt lat="45.96079" lon="6.2597">
        <ele>1618</ele>
        <time>2016-10-02T12:01:03+02:00</time>
      </trkpt>
      <trkpt lat="45.96072" lon="6.25982">
        <ele>1619</ele>
        <time>2016-10-02T12:01:12+02:00</time>
      </trkpt>
      <trkpt lat="45.96068" lon="6.25995">
        <ele>1619</ele>
        <time>2016-10-02T12:01:20+02:00</time>
      </trkpt>
      <trkpt lat="45.96063" lon="6.26009">
        <ele>1619</ele>
        <time>2016-10-02T12:01:28+02:00</time>
      </trkpt>
      <trkpt lat="45.96058" lon="6.26023">
        <ele>1619</ele>
        <time>2016-10-02T12:01:37+02:00</time>
      </trkpt>
      <trkpt lat="45.96052" lon="6.26037">
        <ele>1619</ele>
        <time>2016-10-02T12:01:46+02:00</time>
      </trkpt>
      <trkpt lat="45.96043" lon="6.26039">
        <ele>1619</ele>
        <time>2016-10-02T12:01:54+02:00</time>
      </trkpt>
      <trkpt lat="45.96035" lon="6.26044">
        <ele>1618</ele>
        <time>2016-10-02T12:02:01+02:00</time>
      </trkpt>
      <trkpt lat="45.96027" lon="6.26047">
        <ele>1618</ele>
        <time>2016-10-02T12:02:07+02:00</time>
      </trkpt>
      <trkpt lat="45.96019" lon="6.26047">
        <ele>1618</ele>
        <time>2016-10-02T12:02:14+02:00</time>
      </trkpt>
      <trkpt lat="45.96012" lon="6.26046">
        <ele>1617</ele>
        <time>2016-10-02T12:02:19+02:00</time>
      </trkpt>
      <trkpt lat="45.96005" lon="6.26047">
        <ele>1617</ele>
        <time>2016-10-02T12:02:25+02:00</time>
      </trkpt>
      <trkpt lat="45.95998" lon="6.26046">
        <ele>1617</ele>
        <time>2016-10-02T12:02:30+02:00</time>
      </trkpt>
      <trkpt lat="45.9599" lon="6.26046">
        <ele>1617</ele>
        <time>2016-10-02T12:02:37+02:00</time>
      </trkpt>
      <trkpt lat="45.95981" lon="6.26047">
        <ele>1617</ele>
        <time>2016-10-02T12:02:44+02:00</time>
      </trkpt>
      <trkpt lat="45.95972" lon="6.26048">
        <ele>1617</ele>
        <time>2016-10-02T12:02:51+02:00</time>
      </trkpt>
      <trkpt lat="45.95967" lon="6.26059">
        <ele>1616</ele>
        <time>2016-10-02T12:02:59+02:00</time>
      </trkpt>
      <trkpt lat="45.9596" lon="6.26068">
        <ele>1616</ele>
        <time>2016-10-02T12:03:06+02:00</time>
      </trkpt>
      <trkpt lat="45.95955" lon="6.26078">
        <ele>1615</ele>
        <time>2016-10-02T12:03:13+02:00</time>
      </trkpt>
      <trkpt lat="45.95954" lon="6.26089">
        <ele>1615</ele>
        <time>2016-10-02T12:03:19+02:00</time>
      </trkpt>
      <trkpt lat="45.9595" lon="6.26103">
        <ele>1614</ele>
        <time>2016-10-02T12:03:28+02:00</time>
      </trkpt>
      <trkpt lat="45.95951" lon="6.26119">
        <ele>1613</ele>
        <time>2016-10-02T12:03:37+02:00</time>
      </trkpt>
      <trkpt lat="45.95953" lon="6.26135">
        <ele>1613</ele>
        <time>2016-10-02T12:03:46+02:00</time>
      </trkpt>
      <trkpt lat="45.95952" lon="6.26149">
        <ele>1612</ele>
        <time>2016-10-02T12:03:54+02:00</time>
      </trkpt>
      <trkpt lat="45.95959" lon="6.26161">
        <ele>1612</ele>
        <time>2016-10-02T12:04:03+02:00</time>
      </trkpt>
      <trkpt lat="45.95966" lon="6.26172">
        <ele>1612</ele>
        <time>2016-10-02T12:04:11+02:00</time>
      </trkpt>
      <trkpt lat="45.95973" lon="6.26184">
        <ele>1612</ele>
        <time>2016-10-02T12:04:20+02:00</time>
      </trkpt>
      <trkpt lat="45.95976" lon="6.26199">
        <ele>1611</ele>
        <time>2016-10-02T12:04:29+02:00</time>
      </trkpt>
      <trkpt lat="45.9598" lon="6.26213">
        <ele>1610</ele>
        <time>2016-10-02T12:04:37+02:00</time>
      </trkpt>
      <trkpt lat="45.95975" lon="6.26223">
        <ele>1609</ele>
        <time>2016-10-02T12:04:44+02:00</time>
      </trkpt>
      <trkpt lat="45.95972" lon="6.26238">
        <ele>1608</ele>
        <time>2016-10-02T12:04:53+02:00</time>
      </trkpt>
      <trkpt lat="45.95982" lon="6.26246">
        <ele>1609</ele>
        <time>2016-10-02T12:05:02+02:00</time>
      </trkpt>
      <trkpt lat="45.95989" lon="6.26254">
        <ele>1609</ele>
        <time>2016-10-02T12:05:09+02:00</time>
      </trkpt>
      <trkpt lat="45.95993" lon="6.26273">
        <ele>1608</ele>
        <time>2016-10-02T12:05:20+02:00</time>
      </trkpt>
      <trkpt lat="45.95992" lon="6.26287">
        <ele>1607</ele>
        <time>2016-10-02T12:05:28+02:00</time>
      </trkpt>
      <trkpt lat="45.95988" lon="6.26304">
        <ele>1605</ele>
        <time>2016-10-02T12:05:38+02:00</time>
      </trkpt>
      <trkpt lat="45.95987" lon="6.2632">
        <ele>1604</ele>
        <time>2016-10-02T12:05:47+02:00</time>
      </trkpt>
      <trkpt lat="45.95988" lon="6.26338">
        <ele>1603</ele>
        <time>2016-10-02T12:05:57+02:00</time>
      </trkpt>
      <trkpt lat="45.9599" lon="6.26353">
        <ele>1602</ele>
        <time>2016-10-02T12:06:06+02:00</time>
      </trkpt>
      <trkpt lat="45.95993" lon="6.26367">
        <ele>1602</ele>
        <time>2016-10-02T12:06:14+02:00</time>
      </trkpt>
      <trkpt lat="45.95997" lon="6.26381">
        <ele>1602</ele>
        <time>2016-10-02T12:06:22+02:00</time>
      </trkpt>
      <trkpt lat="45.95999" lon="6.26397">
        <ele>1602</ele>
        <time>2016-10-02T12:06:32+02:00</time>
      </trkpt>
      <trkpt lat="45.96001" lon="6.26414">
        <ele>1602</ele>
        <time>2016-10-02T12:06:42+02:00</time>
      </trkpt>
      <trkpt lat="45.95996" lon="6.26428">
        <ele>1602</ele>
        <time>2016-10-02T12:06:50+02:00</time>
      </trkpt>
      <trkpt lat="45.95995" lon="6.26443">
        <ele>1602</ele>
        <time>2016-10-02T12:06:59+02:00</time>
      </trkpt>
      <trkpt lat="45.95994" lon="6.26457">
        <ele>1602</ele>
        <time>2016-10-02T12:07:07+02:00</time>
      </trkpt>
      <trkpt lat="45.95998" lon="6.26469">
        <ele>1603</ele>
        <time>2016-10-02T12:07:14+02:00</time>
      </trkpt>
      <trkpt lat="45.95997" lon="6.26482">
        <ele>1603</ele>
        <time>2016-10-02T12:07:21+02:00</time>
      </trkpt>
      <trkpt lat="45.95993" lon="6.26496">
        <ele>1603</ele>
        <time>2016-10-02T12:07:31+02:00</time>
      </trkpt>
      <trkpt lat="45.95989" lon="6.26508">
        <ele>1602</ele>
        <time>2016-10-02T12:07:38+02:00</time>
      </trkpt>
      <trkpt lat="45.95993" lon="6.26521">
        <ele>1603</ele>
        <time>2016-10-02T12:07:46+02:00</time>
      </trkpt>
      <trkpt lat="45.96" lon="6.26531">
        <ele>1606</ele>
        <time>2016-10-02T12:07:54+02:00</time>
      </trkpt>
      <trkpt lat="45.96" lon="6.26548">
        <ele>1606</ele>
        <time>2016-10-02T12:08:03+02:00</time>
      </trkpt>
      <trkpt lat="45.95996" lon="6.26563">
        <ele>1606</ele>
        <time>2016-10-02T12:08:12+02:00</time>
      </trkpt>
      <trkpt lat="45.95988" lon="6.26572">
        <ele>1604</ele>
        <time>2016-10-02T12:08:21+02:00</time>
      </trkpt>
      <trkpt lat="45.95981" lon="6.26583">
        <ele>1602</ele>
        <time>2016-10-02T12:08:29+02:00</time>
      </trkpt>
      <trkpt lat="45.95974" lon="6.26593">
        <ele>1600</ele>
        <time>2016-10-02T12:08:37+02:00</time>
      </trkpt>
      <trkpt lat="45.95965" lon="6.26604">
        <ele>1597</ele>
        <time>2016-10-02T12:08:46+02:00</time>
      </trkpt>
      <trkpt lat="45.95958" lon="6.26614">
        <ele>1595</ele>
        <time>2016-10-02T12:08:54+02:00</time>
      </trkpt>
      <trkpt lat="45.95951" lon="6.26625">
        <ele>1593</ele>
        <time>2016-10-02T12:09:03+02:00</time>
      </trkpt>
      <trkpt lat="45.95948" lon="6.26638">
        <ele>1591</ele>
        <time>2016-10-02T12:09:11+02:00</time>
      </trkpt>
      <trkpt lat="45.95943" lon="6.26651">
        <ele>1590</ele>
        <time>2016-10-02T12:09:19+02:00</time>
      </trkpt>
      <trkpt lat="45.95938" lon="6.26662">
        <ele>1587</ele>
        <time>2016-10-02T12:09:27+02:00</time>
      </trkpt>
      <trkpt lat="45.95929" lon="6.26669">
        <ele>1584</ele>
        <time>2016-10-02T12:09:35+02:00</time>
      </trkpt>
      <trkpt lat="45.95921" lon="6.26681">
        <ele>1581</ele>
        <time>2016-10-02T12:09:44+02:00</time>
      </trkpt>
      <trkpt lat="45.95916" lon="6.26696">
        <ele>1578</ele>
        <time>2016-10-02T12:09:54+02:00</time>
      </trkpt>
      <trkpt lat="45.95911" lon="6.26712">
        <ele>1577</ele>
        <time>2016-10-02T12:10:04+02:00</time>
      </trkpt>
      <trkpt lat="45.95905" lon="6.26728">
        <ele>1575</ele>
        <time>2016-10-02T12:10:14+02:00</time>
      </trkpt>
      <trkpt lat="45.95902" lon="6.26745">
        <ele>1574</ele>
        <time>2016-10-02T12:10:23+02:00</time>
      </trkpt>
      <trkpt lat="45.95901" lon="6.26759">
        <ele>1572</ele>
        <time>2016-10-02T12:10:32+02:00</time>
      </trkpt>
      <trkpt lat="45.95898" lon="6.26776">
        <ele>1570</ele>
        <time>2016-10-02T12:10:41+02:00</time>
      </trkpt>
      <trkpt lat="45.95898" lon="6.26792">
        <ele>1569</ele>
        <time>2016-10-02T12:10:50+02:00</time>
      </trkpt>
      <trkpt lat="45.95896" lon="6.26808">
        <ele>1567</ele>
        <time>2016-10-02T12:10:59+02:00</time>
      </trkpt>
      <trkpt lat="45.95901" lon="6.26818">
        <ele>1567</ele>
        <time>2016-10-02T12:11:07+02:00</time>
      </trkpt>
      <trkpt lat="45.95899" lon="6.2683">
        <ele>1566</ele>
        <time>2016-10-02T12:11:14+02:00</time>
      </trkpt>
      <trkpt lat="45.95896" lon="6.26845">
        <ele>1563</ele>
        <time>2016-10-02T12:11:22+02:00</time>
      </trkpt>
      <trkpt lat="45.959" lon="6.26854">
        <ele>1563</ele>
        <time>2016-10-02T12:11:28+02:00</time>
      </trkpt>
      <trkpt lat="45.95902" lon="6.2687">
        <ele>1562</ele>
        <time>2016-10-02T12:11:38+02:00</time>
      </trkpt>
      <trkpt lat="45.959" lon="6.26883">
        <ele>1559</ele>
        <time>2016-10-02T12:11:46+02:00</time>
      </trkpt>
      <trkpt lat="45.95902" lon="6.26896">
        <ele>1558</ele>
        <time>2016-10-02T12:11:53+02:00</time>
      </trkpt>
      <trkpt lat="45.95907" lon="6.26908">
        <ele>1558</ele>
        <time>2016-10-02T12:12:02+02:00</time>
      </trkpt>
      <trkpt lat="45.95905" lon="6.26923">
        <ele>1556</ele>
        <time>2016-10-02T12:12:10+02:00</time>
      </trkpt>
      <trkpt lat="45.95904" lon="6.26937">
        <ele>1553</ele>
        <time>2016-10-02T12:12:19+02:00</time>
      </trkpt>
      <trkpt lat="45.959" lon="6.26951">
        <ele>1550</ele>
        <time>2016-10-02T12:12:27+02:00</time>
      </trkpt>
      <trkpt lat="45.95896" lon="6.26966">
        <ele>1546</ele>
        <time>2016-10-02T12:12:38+02:00</time>
      </trkpt>
      <trkpt lat="45.95891" lon="6.26978">
        <ele>1543</ele>
        <time>2016-10-02T12:12:46+02:00</time>
      </trkpt>
      <trkpt lat="45.95883" lon="6.26989">
        <ele>1538</ele>
        <time>2016-10-02T12:12:57+02:00</time>
      </trkpt>
      <trkpt lat="45.95879" lon="6.27004">
        <ele>1534</ele>
        <time>2016-10-02T12:13:06+02:00</time>
      </trkpt>
      <trkpt lat="45.95873" lon="6.27015">
        <ele>1530</ele>
        <time>2016-10-02T12:13:14+02:00</time>
      </trkpt>
      <trkpt lat="45.95872" lon="6.2703">
        <ele>1527</ele>
        <time>2016-10-02T12:13:22+02:00</time>
      </trkpt>
      <trkpt lat="45.95866" lon="6.27042">
        <ele>1522</ele>
        <time>2016-10-02T12:13:31+02:00</time>
      </trkpt>
      <trkpt lat="45.95861" lon="6.27057">
        <ele>1517</ele>
        <time>2016-10-02T12:13:41+02:00</time>
      </trkpt>
      <trkpt lat="45.95855" lon="6.27069">
        <ele>1512</ele>
        <time>2016-10-02T12:13:49+02:00</time>
      </trkpt>
      <trkpt lat="45.95859" lon="6.27082">
        <ele>1512</ele>
        <time>2016-10-02T12:13:59+02:00</time>
      </trkpt>
      <trkpt lat="45.95864" lon="6.27095">
        <ele>1511</ele>
        <time>2016-10-02T12:14:07+02:00</time>
      </trkpt>
      <trkpt lat="45.95869" lon="6.27107">
        <ele>1510</ele>
        <time>2016-10-02T12:14:16+02:00</time>
      </trkpt>
      <trkpt lat="45.95877" lon="6.27118">
        <ele>1512</ele>
        <time>2016-10-02T12:14:25+02:00</time>
      </trkpt>
      <trkpt lat="45.95884" lon="6.27127">
        <ele>1514</ele>
        <time>2016-10-02T12:14:33+02:00</time>
      </trkpt>
      <trkpt lat="45.95892" lon="6.27138">
        <ele>1515</ele>
        <time>2016-10-02T12:14:42+02:00</time>
      </trkpt>
      <trkpt lat="45.95897" lon="6.2715">
        <ele>1515</ele>
        <time>2016-10-02T12:14:50+02:00</time>
      </trkpt>
      <trkpt lat="45.95898" lon="6.27166">
        <ele>1512</ele>
        <time>2016-10-02T12:14:59+02:00</time>
      </trkpt>
      <trkpt lat="45.95896" lon="6.27182">
        <ele>1507</ele>
        <time>2016-10-02T12:15:08+02:00</time>
      </trkpt>
      <trkpt lat="45.95893" lon="6.27196">
        <ele>1502</ele>
        <time>2016-10-02T12:15:16+02:00</time>
      </trkpt>
      <trkpt lat="45.95887" lon="6.27209">
        <ele>1496</ele>
        <time>2016-10-02T12:15:25+02:00</time>
      </trkpt>
      <trkpt lat="45.95879" lon="6.27198">
        <ele>1494</ele>
        <time>2016-10-02T12:15:34+02:00</time>
      </trkpt>
      <trkpt lat="45.95871" lon="6.27188">
        <ele>1492</ele>
        <time>2016-10-02T12:15:43+02:00</time>
      </trkpt>
      <trkpt lat="45.95862" lon="6.27198">
        <ele>1484</ele>
        <time>2016-10-02T12:15:53+02:00</time>
      </trkpt>
      <trkpt lat="45.95862" lon="6.27214">
        <ele>1479</ele>
        <time>2016-10-02T12:16:02+02:00</time>
      </trkpt>
      <trkpt lat="45.95864" lon="6.27231">
        <ele>1475</ele>
        <time>2016-10-02T12:16:11+02:00</time>
      </trkpt>
      <trkpt lat="45.95859" lon="6.27246">
        <ele>1467</ele>
        <time>2016-10-02T12:16:21+02:00</time>
      </trkpt>
      <trkpt lat="45.95852" lon="6.27257">
        <ele>1460</ele>
        <time>2016-10-02T12:16:29+02:00</time>
      </trkpt>
      <trkpt lat="45.95851" lon="6.27272">
        <ele>1454</ele>
        <time>2016-10-02T12:16:37+02:00</time>
      </trkpt>
      <trkpt lat="45.95852" lon="6.27286">
        <ele>1450</ele>
        <time>2016-10-02T12:16:46+02:00</time>
      </trkpt>
      <trkpt lat="45.95854" lon="6.27301">
        <ele>1447</ele>
        <time>2016-10-02T12:16:55+02:00</time>
      </trkpt>
      <trkpt lat="45.95844" lon="6.27303">
        <ele>1439</ele>
        <time>2016-10-02T12:17:04+02:00</time>
      </trkpt>
      <trkpt lat="45.95837" lon="6.27291">
        <ele>1438</ele>
        <time>2016-10-02T12:17:12+02:00</time>
      </trkpt>
      <trkpt lat="45.9583" lon="6.27282">
        <ele>1437</ele>
        <time>2016-10-02T12:17:23+02:00</time>
      </trkpt>
      <trkpt lat="45.9582" lon="6.2728">
        <ele>1431</ele>
        <time>2016-10-02T12:17:31+02:00</time>
      </trkpt>
      <trkpt lat="45.9581" lon="6.27275">
        <ele>1428</ele>
        <time>2016-10-02T12:17:40+02:00</time>
      </trkpt>
      <trkpt lat="45.95801" lon="6.2727">
        <ele>1424</ele>
        <time>2016-10-02T12:17:48+02:00</time>
      </trkpt>
      <trkpt lat="45.95791" lon="6.27275">
        <ele>1417</ele>
        <time>2016-10-02T12:17:57+02:00</time>
      </trkpt>
      <trkpt lat="45.95782" lon="6.27281">
        <ele>1409</ele>
        <time>2016-10-02T12:18:05+02:00</time>
      </trkpt>
      <trkpt lat="45.95778" lon="6.27295">
        <ele>1403</ele>
        <time>2016-10-02T12:18:14+02:00</time>
      </trkpt>
      <trkpt lat="45.95767" lon="6.27298">
        <ele>1396</ele>
        <time>2016-10-02T12:18:28+02:00</time>
      </trkpt>
      <trkpt lat="45.95758" lon="6.27293">
        <ele>1392</ele>
        <time>2016-10-02T12:18:37+02:00</time>
      </trkpt>
      <trkpt lat="45.95747" lon="6.27291">
        <ele>1387</ele>
        <time>2016-10-02T12:18:46+02:00</time>
      </trkpt>
      <trkpt lat="45.95736" lon="6.27287">
        <ele>1385</ele>
        <time>2016-10-02T12:18:55+02:00</time>
      </trkpt>
      <trkpt lat="45.95726" lon="6.27289">
        <ele>1380</ele>
        <time>2016-10-02T12:19:03+02:00</time>
      </trkpt>
      <trkpt lat="45.95734" lon="6.27298">
        <ele>1380</ele>
        <time>2016-10-02T12:19:13+02:00</time>
      </trkpt>
      <trkpt lat="45.95741" lon="6.27309">
        <ele>1380</ele>
        <time>2016-10-02T12:19:22+02:00</time>
      </trkpt>
      <trkpt lat="45.95749" lon="6.2732">
        <ele>1379</ele>
        <time>2016-10-02T12:19:31+02:00</time>
      </trkpt>
      <trkpt lat="45.95756" lon="6.27332">
        <ele>1379</ele>
        <time>2016-10-02T12:19:40+02:00</time>
      </trkpt>
      <trkpt lat="45.95759" lon="6.27347">
        <ele>1377</ele>
        <time>2016-10-02T12:19:48+02:00</time>
      </trkpt>
      <trkpt lat="45.95762" lon="6.2736">
        <ele>1375</ele>
        <time>2016-10-02T12:19:57+02:00</time>
      </trkpt>
      <trkpt lat="45.95769" lon="6.27371">
        <ele>1375</ele>
        <time>2016-10-02T12:20:05+02:00</time>
      </trkpt>
      <trkpt lat="45.95775" lon="6.27382">
        <ele>1375</ele>
        <time>2016-10-02T12:20:13+02:00</time>
      </trkpt>
      <trkpt lat="45.95782" lon="6.27395">
        <ele>1375</ele>
        <time>2016-10-02T12:20:22+02:00</time>
      </trkpt>
      <trkpt lat="45.95781" lon="6.2741">
        <ele>1370</ele>
        <time>2016-10-02T12:20:31+02:00</time>
      </trkpt>
      <trkpt lat="45.9577" lon="6.27413">
        <ele>1364</ele>
        <time>2016-10-02T12:20:40+02:00</time>
      </trkpt>
      <trkpt lat="45.95759" lon="6.27407">
        <ele>1361</ele>
        <time>2016-10-02T12:20:49+02:00</time>
      </trkpt>
      <trkpt lat="45.95751" lon="6.27399">
        <ele>1359</ele>
        <time>2016-10-02T12:20:57+02:00</time>
      </trkpt>
      <trkpt lat="45.95742" lon="6.27393">
        <ele>1357</ele>
        <time>2016-10-02T12:21:05+02:00</time>
      </trkpt>
      <trkpt lat="45.95733" lon="6.27385">
        <ele>1356</ele>
        <time>2016-10-02T12:21:14+02:00</time>
      </trkpt>
      <trkpt lat="45.95723" lon="6.27378">
        <ele>1354</ele>
        <time>2016-10-02T12:21:22+02:00</time>
      </trkpt>
      <trkpt lat="45.95713" lon="6.27371">
        <ele>1353</ele>
        <time>2016-10-02T12:21:32+02:00</time>
      </trkpt>
      <trkpt lat="45.95703" lon="6.27365">
        <ele>1351</ele>
        <time>2016-10-02T12:21:40+02:00</time>
      </trkpt>
      <trkpt lat="45.95695" lon="6.27356">
        <ele>1351</ele>
        <time>2016-10-02T12:21:49+02:00</time>
      </trkpt>
      <trkpt lat="45.95684" lon="6.27356">
        <ele>1347</ele>
        <time>2016-10-02T12:21:57+02:00</time>
      </trkpt>
      <trkpt lat="45.95675" lon="6.27348">
        <ele>1347</ele>
        <time>2016-10-02T12:22:06+02:00</time>
      </trkpt>
      <trkpt lat="45.95668" lon="6.27337">
        <ele>1347</ele>
        <time>2016-10-02T12:22:15+02:00</time>
      </trkpt>
      <trkpt lat="45.95657" lon="6.27335">
        <ele>1345</ele>
        <time>2016-10-02T12:22:23+02:00</time>
      </trkpt>
      <trkpt lat="45.95647" lon="6.27328">
        <ele>1344</ele>
        <time>2016-10-02T12:22:32+02:00</time>
      </trkpt>
      <trkpt lat="45.95637" lon="6.27323">
        <ele>1343</ele>
        <time>2016-10-02T12:22:42+02:00</time>
      </trkpt>
      <trkpt lat="45.95628" lon="6.27315">
        <ele>1343</ele>
        <time>2016-10-02T12:22:50+02:00</time>
      </trkpt>
      <trkpt lat="45.95618" lon="6.27316">
        <ele>1340</ele>
        <time>2016-10-02T12:22:58+02:00</time>
      </trkpt>
      <trkpt lat="45.95608" lon="6.27313">
        <ele>1338</ele>
        <time>2016-10-02T12:23:07+02:00</time>
      </trkpt>
      <trkpt lat="45.956" lon="6.27305">
        <ele>1339</ele>
        <time>2016-10-02T12:23:15+02:00</time>
      </trkpt>
      <trkpt lat="45.9559" lon="6.27306">
        <ele>1336</ele>
        <time>2016-10-02T12:23:23+02:00</time>
      </trkpt>
      <trkpt lat="45.95579" lon="6.27308">
        <ele>1332</ele>
        <time>2016-10-02T12:23:32+02:00</time>
      </trkpt>
      <trkpt lat="45.95568" lon="6.27308">
        <ele>1329</ele>
        <time>2016-10-02T12:23:41+02:00</time>
      </trkpt>
      <trkpt lat="45.95558" lon="6.27308">
        <ele>1325</ele>
        <time>2016-10-02T12:23:49+02:00</time>
      </trkpt>
      <trkpt lat="45.95547" lon="6.27308">
        <ele>1322</ele>
        <time>2016-10-02T12:23:58+02:00</time>
      </trkpt>
      <trkpt lat="45.95537" lon="6.27305">
        <ele>1319</ele>
        <time>2016-10-02T12:24:07+02:00</time>
      </trkpt>
      <trkpt lat="45.95527" lon="6.27302">
        <ele>1317</ele>
        <time>2016-10-02T12:24:15+02:00</time>
      </trkpt>
      <trkpt lat="45.95519" lon="6.27313">
        <ele>1312</ele>
        <time>2016-10-02T12:24:24+02:00</time>
      </trkpt>
      <trkpt lat="45.9551" lon="6.27322">
        <ele>1306</ele>
        <time>2016-10-02T12:24:33+02:00</time>
      </trkpt>
      <trkpt lat="45.955" lon="6.27328">
        <ele>1302</ele>
        <time>2016-10-02T12:24:41+02:00</time>
      </trkpt>
      <trkpt lat="45.95491" lon="6.27337">
        <ele>1298</ele>
        <time>2016-10-02T12:24:51+02:00</time>
      </trkpt>
      <trkpt lat="45.95481" lon="6.27342">
        <ele>1295</ele>
        <time>2016-10-02T12:25:00+02:00</time>
      </trkpt>
      <trkpt lat="45.95473" lon="6.27351">
        <ele>1292</ele>
        <time>2016-10-02T12:25:08+02:00</time>
      </trkpt>
      <trkpt lat="45.95465" lon="6.27361">
        <ele>1290</ele>
        <time>2016-10-02T12:25:17+02:00</time>
      </trkpt>
      <trkpt lat="45.95459" lon="6.27373">
        <ele>1287</ele>
        <time>2016-10-02T12:25:26+02:00</time>
      </trkpt>
      <trkpt lat="45.95452" lon="6.27384">
        <ele>1285</ele>
        <time>2016-10-02T12:25:34+02:00</time>
      </trkpt>
      <trkpt lat="45.95445" lon="6.27397">
        <ele>1283</ele>
        <time>2016-10-02T12:25:43+02:00</time>
      </trkpt>
      <trkpt lat="45.95436" lon="6.27407">
        <ele>1281</ele>
        <time>2016-10-02T12:25:52+02:00</time>
      </trkpt>
      <trkpt lat="45.95429" lon="6.27417">
        <ele>1280</ele>
        <time>2016-10-02T12:26:01+02:00</time>
      </trkpt>
      <trkpt lat="45.9542" lon="6.27425">
        <ele>1279</ele>
        <time>2016-10-02T12:26:10+02:00</time>
      </trkpt>
      <trkpt lat="45.95411" lon="6.27433">
        <ele>1278</ele>
        <time>2016-10-02T12:26:18+02:00</time>
      </trkpt>
      <trkpt lat="45.95402" lon="6.27442">
        <ele>1278</ele>
        <time>2016-10-02T12:26:27+02:00</time>
      </trkpt>
      <trkpt lat="45.95392" lon="6.27448">
        <ele>1277</ele>
        <time>2016-10-02T12:26:36+02:00</time>
      </trkpt>
      <trkpt lat="45.95381" lon="6.27445">
        <ele>1277</ele>
        <time>2016-10-02T12:26:44+02:00</time>
      </trkpt>
      <trkpt lat="45.95372" lon="6.27439">
        <ele>1276</ele>
        <time>2016-10-02T12:26:52+02:00</time>
      </trkpt>
      <trkpt lat="45.95361" lon="6.27436">
        <ele>1276</ele>
        <time>2016-10-02T12:27:01+02:00</time>
      </trkpt>
      <trkpt lat="45.95352" lon="6.27428">
        <ele>1275</ele>
        <time>2016-10-02T12:27:10+02:00</time>
      </trkpt>
      <trkpt lat="45.95342" lon="6.27423">
        <ele>1275</ele>
        <time>2016-10-02T12:27:19+02:00</time>
      </trkpt>
      <trkpt lat="45.95339" lon="6.27413">
        <ele>1276</ele>
        <time>2016-10-02T12:27:25+02:00</time>
      </trkpt>
      <trkpt lat="45.95337" lon="6.27427">
        <ele>1275</ele>
        <time>2016-10-02T12:27:34+02:00</time>
      </trkpt>
      <trkpt lat="45.95337" lon="6.27442">
        <ele>1274</ele>
        <time>2016-10-02T12:27:42+02:00</time>
      </trkpt>
      <trkpt lat="45.95332" lon="6.27456">
        <ele>1273</ele>
        <time>2016-10-02T12:27:51+02:00</time>
      </trkpt>
      <trkpt lat="45.9533" lon="6.27472">
        <ele>1272</ele>
        <time>2016-10-02T12:28:00+02:00</time>
      </trkpt>
      <trkpt lat="45.95325" lon="6.27486">
        <ele>1271</ele>
        <time>2016-10-02T12:28:09+02:00</time>
      </trkpt>
      <trkpt lat="45.95316" lon="6.27494">
        <ele>1271</ele>
        <time>2016-10-02T12:28:17+02:00</time>
      </trkpt>
      <trkpt lat="45.9531" lon="6.27506">
        <ele>1270</ele>
        <time>2016-10-02T12:28:26+02:00</time>
      </trkpt>
      <trkpt lat="45.95304" lon="6.27519">
        <ele>1269</ele>
        <time>2016-10-02T12:28:34+02:00</time>
      </trkpt>
      <trkpt lat="45.95299" lon="6.27532">
        <ele>1267</ele>
        <time>2016-10-02T12:28:43+02:00</time>
      </trkpt>
      <trkpt lat="45.95301" lon="6.27546">
        <ele>1266</ele>
        <time>2016-10-02T12:28:51+02:00</time>
      </trkpt>
      <trkpt lat="45.95303" lon="6.27562">
        <ele>1265</ele>
        <time>2016-10-02T12:29:00+02:00</time>
      </trkpt>
      <trkpt lat="45.95304" lon="6.27573">
        <ele>1264</ele>
        <time>2016-10-02T12:29:06+02:00</time>
      </trkpt>
      <trkpt lat="45.95303" lon="6.27589">
        <ele>1262</ele>
        <time>2016-10-02T12:29:16+02:00</time>
      </trkpt>
      <trkpt lat="45.95302" lon="6.27604">
        <ele>1260</ele>
        <time>2016-10-02T12:29:24+02:00</time>
      </trkpt>
      <trkpt lat="45.95305" lon="6.27618">
        <ele>1259</ele>
        <time>2016-10-02T12:29:32+02:00</time>
      </trkpt>
      <trkpt lat="45.95309" lon="6.27635">
        <ele>1258</ele>
        <time>2016-10-02T12:29:42+02:00</time>
      </trkpt>
      <trkpt lat="45.95309" lon="6.27651">
        <ele>1256</ele>
        <time>2016-10-02T12:29:51+02:00</time>
      </trkpt>
      <trkpt lat="45.95309" lon="6.27666">
        <ele>1254</ele>
        <time>2016-10-02T12:30:00+02:00</time>
      </trkpt>
      <trkpt lat="45.95307" lon="6.27682">
        <ele>1252</ele>
        <time>2016-10-02T12:30:08+02:00</time>
      </trkpt>
      <trkpt lat="45.95307" lon="6.27696">
        <ele>1250</ele>
        <time>2016-10-02T12:30:17+02:00</time>
      </trkpt>
      <trkpt lat="45.9531" lon="6.27712">
        <ele>1249</ele>
        <time>2016-10-02T12:30:26+02:00</time>
      </trkpt>
      <trkpt lat="45.95315" lon="6.27726">
        <ele>1247</ele>
        <time>2016-10-02T12:30:35+02:00</time>
      </trkpt>
      <trkpt lat="45.9532" lon="6.2774">
        <ele>1246</ele>
        <time>2016-10-02T12:30:43+02:00</time>
      </trkpt>
      <trkpt lat="45.95328" lon="6.27749">
        <ele>1245</ele>
        <time>2016-10-02T12:30:51+02:00</time>
      </trkpt>
      <trkpt lat="45.95339" lon="6.27754">
        <ele>1246</ele>
        <time>2016-10-02T12:31:01+02:00</time>
      </trkpt>
      <trkpt lat="45.95347" lon="6.27765">
        <ele>1247</ele>
        <time>2016-10-02T12:31:09+02:00</time>
      </trkpt>
      <trkpt lat="45.95355" lon="6.27776">
        <ele>1247</ele>
        <time>2016-10-02T12:31:18+02:00</time>
      </trkpt>
      <trkpt lat="45.95364" lon="6.27785">
        <ele>1248</ele>
        <time>2016-10-02T12:31:27+02:00</time>
      </trkpt>
      <trkpt lat="45.95374" lon="6.27795">
        <ele>1248</ele>
        <time>2016-10-02T12:31:37+02:00</time>
      </trkpt>
      <trkpt lat="45.95382" lon="6.27804">
        <ele>1249</ele>
        <time>2016-10-02T12:31:45+02:00</time>
      </trkpt>
      <trkpt lat="45.95391" lon="6.27813">
        <ele>1249</ele>
        <time>2016-10-02T12:31:54+02:00</time>
      </trkpt>
      <trkpt lat="45.95401" lon="6.27821">
        <ele>1249</ele>
        <time>2016-10-02T12:32:03+02:00</time>
      </trkpt>
      <trkpt lat="45.95409" lon="6.27831">
        <ele>1248</ele>
        <time>2016-10-02T12:32:12+02:00</time>
      </trkpt>
      <trkpt lat="45.95418" lon="6.27842">
        <ele>1247</ele>
        <time>2016-10-02T12:32:21+02:00</time>
      </trkpt>
      <trkpt lat="45.95428" lon="6.27846">
        <ele>1247</ele>
        <time>2016-10-02T12:32:29+02:00</time>
      </trkpt>
      <trkpt lat="45.95437" lon="6.27852">
        <ele>1247</ele>
        <time>2016-10-02T12:32:37+02:00</time>
      </trkpt>
      <trkpt lat="45.95448" lon="6.27858">
        <ele>1247</ele>
        <time>2016-10-02T12:32:47+02:00</time>
      </trkpt>
      <trkpt lat="45.95457" lon="6.27865">
        <ele>1246</ele>
        <time>2016-10-02T12:32:55+02:00</time>
      </trkpt>
      <trkpt lat="45.95467" lon="6.27875">
        <ele>1245</ele>
        <time>2016-10-02T12:33:05+02:00</time>
      </trkpt>
      <trkpt lat="45.95475" lon="6.27883">
        <ele>1243</ele>
        <time>2016-10-02T12:33:13+02:00</time>
      </trkpt>
      <trkpt lat="45.95486" lon="6.27888">
        <ele>1242</ele>
        <time>2016-10-02T12:33:22+02:00</time>
      </trkpt>
      <trkpt lat="45.95496" lon="6.27889">
        <ele>1242</ele>
        <time>2016-10-02T12:33:30+02:00</time>
      </trkpt>
      <trkpt lat="45.95508" lon="6.27887">
        <ele>1242</ele>
        <time>2016-10-02T12:33:39+02:00</time>
      </trkpt>
      <trkpt lat="45.95519" lon="6.27888">
        <ele>1241</ele>
        <time>2016-10-02T12:33:48+02:00</time>
      </trkpt>
      <trkpt lat="45.95528" lon="6.27896">
        <ele>1239</ele>
        <time>2016-10-02T12:33:56+02:00</time>
      </trkpt>
      <trkpt lat="45.9554" lon="6.27903">
        <ele>1237</ele>
        <time>2016-10-02T12:34:07+02:00</time>
      </trkpt>
      <trkpt lat="45.95551" lon="6.2791">
        <ele>1234</ele>
        <time>2016-10-02T12:34:17+02:00</time>
      </trkpt>
      <trkpt lat="45.95562" lon="6.27913">
        <ele>1233</ele>
        <time>2016-10-02T12:34:26+02:00</time>
      </trkpt>
      <trkpt lat="45.95573" lon="6.27913">
        <ele>1232</ele>
        <time>2016-10-02T12:34:34+02:00</time>
      </trkpt>
      <trkpt lat="45.95585" lon="6.27913">
        <ele>1232</ele>
        <time>2016-10-02T12:34:45+02:00</time>
      </trkpt>
      <trkpt lat="45.95595" lon="6.27918">
        <ele>1231</ele>
        <time>2016-10-02T12:34:53+02:00</time>
      </trkpt>
      <trkpt lat="45.95606" lon="6.27917">
        <ele>1231</ele>
        <time>2016-10-02T12:35:02+02:00</time>
      </trkpt>
      <trkpt lat="45.95616" lon="6.27918">
        <ele>1231</ele>
        <time>2016-10-02T12:35:10+02:00</time>
      </trkpt>
      <trkpt lat="45.95621" lon="6.27931">
        <ele>1229</ele>
        <time>2016-10-02T12:35:19+02:00</time>
      </trkpt>
      <trkpt lat="45.95632" lon="6.27933">
        <ele>1229</ele>
        <time>2016-10-02T12:35:27+02:00</time>
      </trkpt>
      <trkpt lat="45.95639" lon="6.27922">
        <ele>1231</ele>
        <time>2016-10-02T12:35:36+02:00</time>
      </trkpt>
      <trkpt lat="45.95649" lon="6.27917">
        <ele>1232</ele>
        <time>2016-10-02T12:35:45+02:00</time>
      </trkpt>
      <trkpt lat="45.9566" lon="6.2792">
        <ele>1231</ele>
        <time>2016-10-02T12:35:53+02:00</time>
      </trkpt>
      <trkpt lat="45.95671" lon="6.27923">
        <ele>1232</ele>
        <time>2016-10-02T12:36:02+02:00</time>
      </trkpt>
      <trkpt lat="45.95678" lon="6.27932">
        <ele>1233</ele>
        <time>2016-10-02T12:36:10+02:00</time>
      </trkpt>
      <trkpt lat="45.95679" lon="6.27947">
        <ele>1231</ele>
        <time>2016-10-02T12:36:19+02:00</time>
      </trkpt>
      <trkpt lat="45.95674" lon="6.2796">
        <ele>1228</ele>
        <time>2016-10-02T12:36:27+02:00</time>
      </trkpt>
      <trkpt lat="45.95675" lon="6.27976">
        <ele>1226</ele>
        <time>2016-10-02T12:36:36+02:00</time>
      </trkpt>
      <trkpt lat="45.95677" lon="6.2799">
        <ele>1225</ele>
        <time>2016-10-02T12:36:44+02:00</time>
      </trkpt>
      <trkpt lat="45.95675" lon="6.28006">
        <ele>1222</ele>
        <time>2016-10-02T12:36:53+02:00</time>
      </trkpt>
      <trkpt lat="45.95668" lon="6.28017">
        <ele>1220</ele>
        <time>2016-10-02T12:37:01+02:00</time>
      </trkpt>
      <trkpt lat="45.95668" lon="6.28003">
        <ele>1221</ele>
        <time>2016-10-02T12:37:09+02:00</time>
      </trkpt>
      <trkpt lat="45.95676" lon="6.28012">
        <ele>1222</ele>
        <time>2016-10-02T12:37:17+02:00</time>
      </trkpt>
      <trkpt lat="45.95679" lon="6.28027">
        <ele>1221</ele>
        <time>2016-10-02T12:37:26+02:00</time>
      </trkpt>
      <trkpt lat="45.95684" lon="6.2804">
        <ele>1221</ele>
        <time>2016-10-02T12:37:34+02:00</time>
      </trkpt>
      <trkpt lat="45.95689" lon="6.28053">
        <ele>1221</ele>
        <time>2016-10-02T12:37:43+02:00</time>
      </trkpt>
      <trkpt lat="45.95695" lon="6.28066">
        <ele>1221</ele>
        <time>2016-10-02T12:37:51+02:00</time>
      </trkpt>
      <trkpt lat="45.95697" lon="6.28081">
        <ele>1219</ele>
        <time>2016-10-02T12:38:00+02:00</time>
      </trkpt>
      <trkpt lat="45.95699" lon="6.28097">
        <ele>1217</ele>
        <time>2016-10-02T12:38:09+02:00</time>
      </trkpt>
      <trkpt lat="45.95698" lon="6.28111">
        <ele>1215</ele>
        <time>2016-10-02T12:38:17+02:00</time>
      </trkpt>
      <trkpt lat="45.95694" lon="6.28125">
        <ele>1212</ele>
        <time>2016-10-02T12:38:25+02:00</time>
      </trkpt>
      <trkpt lat="45.95699" lon="6.2814">
        <ele>1211</ele>
        <time>2016-10-02T12:38:35+02:00</time>
      </trkpt>
      <trkpt lat="45.95706" lon="6.28151">
        <ele>1209</ele>
        <time>2016-10-02T12:38:43+02:00</time>
      </trkpt>
      <trkpt lat="45.95711" lon="6.28165">
        <ele>1208</ele>
        <time>2016-10-02T12:38:52+02:00</time>
      </trkpt>
      <trkpt lat="45.95714" lon="6.28179">
        <ele>1204</ele>
        <time>2016-10-02T12:39:00+02:00</time>
      </trkpt>
      <trkpt lat="45.95719" lon="6.28193">
        <ele>1201</ele>
        <time>2016-10-02T12:39:09+02:00</time>
      </trkpt>
      <trkpt lat="45.95718" lon="6.28208">
        <ele>1198</ele>
        <time>2016-10-02T12:39:17+02:00</time>
      </trkpt>
      <trkpt lat="45.95709" lon="6.28217">
        <ele>1196</ele>
        <time>2016-10-02T12:39:26+02:00</time>
      </trkpt>
      <trkpt lat="45.95699" lon="6.28212">
        <ele>1197</ele>
        <time>2016-10-02T12:39:35+02:00</time>
      </trkpt>
      <trkpt lat="45.95691" lon="6.28222">
        <ele>1195</ele>
        <time>2016-10-02T12:39:43+02:00</time>
      </trkpt>
      <trkpt lat="45.95685" lon="6.28233">
        <ele>1193</ele>
        <time>2016-10-02T12:39:54+02:00</time>
      </trkpt>
      <trkpt lat="45.95679" lon="6.28245">
        <ele>1191</ele>
        <time>2016-10-02T12:40:02+02:00</time>
      </trkpt>
      <trkpt lat="45.95675" lon="6.28258">
        <ele>1189</ele>
        <time>2016-10-02T12:40:11+02:00</time>
      </trkpt>
      <trkpt lat="45.95673" lon="6.28273">
        <ele>1187</ele>
        <time>2016-10-02T12:40:20+02:00</time>
      </trkpt>
      <trkpt lat="45.95674" lon="6.28287">
        <ele>1184</ele>
        <time>2016-10-02T12:40:29+02:00</time>
      </trkpt>
      <trkpt lat="45.95676" lon="6.28304">
        <ele>1181</ele>
        <time>2016-10-02T12:40:38+02:00</time>
      </trkpt>
      <trkpt lat="45.95682" lon="6.28315">
        <ele>1178</ele>
        <time>2016-10-02T12:40:46+02:00</time>
      </trkpt>
      <trkpt lat="45.95692" lon="6.28322">
        <ele>1174</ele>
        <time>2016-10-02T12:40:55+02:00</time>
      </trkpt>
      <trkpt lat="45.957" lon="6.28331">
        <ele>1169</ele>
        <time>2016-10-02T12:41:03+02:00</time>
      </trkpt>
      <trkpt lat="45.95701" lon="6.28346">
        <ele>1167</ele>
        <time>2016-10-02T12:41:11+02:00</time>
      </trkpt>
      <trkpt lat="45.9571" lon="6.28354">
        <ele>1161</ele>
        <time>2016-10-02T12:41:21+02:00</time>
      </trkpt>
      <trkpt lat="45.95719" lon="6.28364">
        <ele>1155</ele>
        <time>2016-10-02T12:41:30+02:00</time>
      </trkpt>
      <trkpt lat="45.95722" lon="6.28378">
        <ele>1149</ele>
        <time>2016-10-02T12:41:39+02:00</time>
      </trkpt>
      <trkpt lat="45.95721" lon="6.28393">
        <ele>1146</ele>
        <time>2016-10-02T12:41:47+02:00</time>
      </trkpt>
      <trkpt lat="45.95717" lon="6.28407">
        <ele>1145</ele>
        <time>2016-10-02T12:41:56+02:00</time>
      </trkpt>
      <trkpt lat="45.95721" lon="6.28421">
        <ele>1139</ele>
        <time>2016-10-02T12:42:05+02:00</time>
      </trkpt>
      <trkpt lat="45.95728" lon="6.28434">
        <ele>1129</ele>
        <time>2016-10-02T12:42:14+02:00</time>
      </trkpt>
      <trkpt lat="45.95733" lon="6.28448">
        <ele>1119</ele>
        <time>2016-10-02T12:42:24+02:00</time>
      </trkpt>
      <trkpt lat="45.95733" lon="6.28462">
        <ele>1115</ele>
        <time>2016-10-02T12:42:32+02:00</time>
      </trkpt>
      <trkpt lat="45.95731" lon="6.28478">
        <ele>1112</ele>
        <time>2016-10-02T12:42:41+02:00</time>
      </trkpt>
      <trkpt lat="45.95728" lon="6.28493">
        <ele>1110</ele>
        <time>2016-10-02T12:42:51+02:00</time>
      </trkpt>
      <trkpt lat="45.95729" lon="6.28508">
        <ele>1105</ele>
        <time>2016-10-02T12:42:59+02:00</time>
      </trkpt>
      <trkpt lat="45.95728" lon="6.28522">
        <ele>1104</ele>
        <time>2016-10-02T12:43:07+02:00</time>
      </trkpt>
      <trkpt lat="45.95727" lon="6.2854">
        <ele>1102</ele>
        <time>2016-10-02T12:43:17+02:00</time>
      </trkpt>
      <trkpt lat="45.95725" lon="6.28556">
        <ele>1102</ele>
        <time>2016-10-02T12:43:27+02:00</time>
      </trkpt>
      <trkpt lat="45.95718" lon="6.28569">
        <ele>1110</ele>
        <time>2016-10-02T12:43:35+02:00</time>
      </trkpt>
      <trkpt lat="45.95714" lon="6.28583">
        <ele>1114</ele>
        <time>2016-10-02T12:43:44+02:00</time>
      </trkpt>
      <trkpt lat="45.95707" lon="6.28594">
        <ele>1123</ele>
        <time>2016-10-02T12:43:54+02:00</time>
      </trkpt>
      <trkpt lat="45.95708" lon="6.28609">
        <ele>1117</ele>
        <time>2016-10-02T12:44:03+02:00</time>
      </trkpt>
      <trkpt lat="45.95716" lon="6.28616">
        <ele>1101</ele>
        <time>2016-10-02T12:44:11+02:00</time>
      </trkpt>
      <trkpt lat="45.95725" lon="6.28623">
        <ele>1084</ele>
        <time>2016-10-02T12:44:21+02:00</time>
      </trkpt>
      <trkpt lat="45.95734" lon="6.2863">
        <ele>1067</ele>
        <time>2016-10-02T12:44:30+02:00</time>
      </trkpt>
      <trkpt lat="45.95744" lon="6.28634">
        <ele>1049</ele>
        <time>2016-10-02T12:44:39+02:00</time>
      </trkpt>
      <trkpt lat="45.95746" lon="6.28648">
        <ele>1042</ele>
        <time>2016-10-02T12:44:48+02:00</time>
      </trkpt>
      <trkpt lat="45.95736" lon="6.28649">
        <ele>1058</ele>
        <time>2016-10-02T12:44:56+02:00</time>
      </trkpt>
      <trkpt lat="45.95726" lon="6.28654">
        <ele>1073</ele>
        <time>2016-10-02T12:45:05+02:00</time>
      </trkpt>
      <trkpt lat="45.95726" lon="6.28669">
        <ele>1070</ele>
        <time>2016-10-02T12:45:13+02:00</time>
      </trkpt>
      <trkpt lat="45.95727" lon="6.28684">
        <ele>1064</ele>
        <time>2016-10-02T12:45:21+02:00</time>
      </trkpt>
      <trkpt lat="45.95728" lon="6.28698">
        <ele>1057</ele>
        <time>2016-10-02T12:45:29+02:00</time>
      </trkpt>
      <trkpt lat="45.95737" lon="6.28707">
        <ele>1042</ele>
        <time>2016-10-02T12:45:38+02:00</time>
      </trkpt>
      <trkpt lat="45.95741" lon="6.28722">
        <ele>1033</ele>
        <time>2016-10-02T12:45:47+02:00</time>
      </trkpt>
      <trkpt lat="45.95735" lon="6.28733">
        <ele>1038</ele>
        <time>2016-10-02T12:45:55+02:00</time>
      </trkpt>
      <trkpt lat="45.95738" lon="6.28748">
        <ele>1031</ele>
        <time>2016-10-02T12:46:04+02:00</time>
      </trkpt>
      <trkpt lat="45.95747" lon="6.28759">
        <ele>1018</ele>
        <time>2016-10-02T12:46:14+02:00</time>
      </trkpt>
      <trkpt lat="45.95754" lon="6.28771">
        <ele>1009</ele>
        <time>2016-10-02T12:46:23+02:00</time>
      </trkpt>
      <trkpt lat="45.95762" lon="6.28783">
        <ele>1002</ele>
        <time>2016-10-02T12:46:32+02:00</time>
      </trkpt>
      <trkpt lat="45.95772" lon="6.28799">
        <ele>993</ele>
        <time>2016-10-02T12:46:44+02:00</time>
      </trkpt>
      <trkpt lat="45.95775" lon="6.28815">
        <ele>990</ele>
        <time>2016-10-02T12:46:53+02:00</time>
      </trkpt>
      <trkpt lat="45.95772" lon="6.2883">
        <ele>991</ele>
        <time>2016-10-02T12:47:02+02:00</time>
      </trkpt>
      <trkpt lat="45.95773" lon="6.28847">
        <ele>989</ele>
        <time>2016-10-02T12:47:11+02:00</time>
      </trkpt>
      <trkpt lat="45.9578" lon="6.28861">
        <ele>983</ele>
        <time>2016-10-02T12:47:21+02:00</time>
      </trkpt>
      <trkpt lat="45.95777" lon="6.28877">
        <ele>984</ele>
        <time>2016-10-02T12:47:30+02:00</time>
      </trkpt>
      <trkpt lat="45.95778" lon="6.28892">
        <ele>982</ele>
        <time>2016-10-02T12:47:39+02:00</time>
      </trkpt>
      <trkpt lat="45.95778" lon="6.28908">
        <ele>980</ele>
        <time>2016-10-02T12:47:47+02:00</time>
      </trkpt>
      <trkpt lat="45.95779" lon="6.28923">
        <ele>978</ele>
        <time>2016-10-02T12:47:57+02:00</time>
      </trkpt>
      <trkpt lat="45.95787" lon="6.28911">
        <ele>973</ele>
        <time>2016-10-02T12:48:06+02:00</time>
      </trkpt>
      <trkpt lat="45.95796" lon="6.28901">
        <ele>967</ele>
        <time>2016-10-02T12:48:16+02:00</time>
      </trkpt>
      <trkpt lat="45.95803" lon="6.28887">
        <ele>962</ele>
        <time>2016-10-02T12:48:26+02:00</time>
      </trkpt>
      <trkpt lat="45.9581" lon="6.28875">
        <ele>957</ele>
        <time>2016-10-02T12:48:35+02:00</time>
      </trkpt>
      <trkpt lat="45.95813" lon="6.2886">
        <ele>956</ele>
        <time>2016-10-02T12:48:43+02:00</time>
      </trkpt>
      <trkpt lat="45.95817" lon="6.28846">
        <ele>954</ele>
        <time>2016-10-02T12:48:52+02:00</time>
      </trkpt>
      <trkpt lat="45.95822" lon="6.2883">
        <ele>951</ele>
        <time>2016-10-02T12:49:02+02:00</time>
      </trkpt>
      <trkpt lat="45.95825" lon="6.28814">
        <ele>949</ele>
        <time>2016-10-02T12:49:12+02:00</time>
      </trkpt>
      <trkpt lat="45.95826" lon="6.28798">
        <ele>949</ele>
        <time>2016-10-02T12:49:21+02:00</time>
      </trkpt>
      <trkpt lat="45.95825" lon="6.28784">
        <ele>950</ele>
        <time>2016-10-02T12:49:29+02:00</time>
      </trkpt>
      <trkpt lat="45.95829" lon="6.28769">
        <ele>948</ele>
        <time>2016-10-02T12:49:38+02:00</time>
      </trkpt>
      <trkpt lat="45.95835" lon="6.28758">
        <ele>944</ele>
        <time>2016-10-02T12:49:46+02:00</time>
      </trkpt>
      <trkpt lat="45.95837" lon="6.28744">
        <ele>943</ele>
        <time>2016-10-02T12:49:54+02:00</time>
      </trkpt>
      <trkpt lat="45.95842" lon="6.28728">
        <ele>941</ele>
        <time>2016-10-02T12:50:04+02:00</time>
      </trkpt>
      <trkpt lat="45.95844" lon="6.28714">
        <ele>940</ele>
        <time>2016-10-02T12:50:12+02:00</time>
      </trkpt>
      <trkpt lat="45.95847" lon="6.28699">
        <ele>939</ele>
        <time>2016-10-02T12:50:21+02:00</time>
      </trkpt>
      <trkpt lat="45.95846" lon="6.28714">
        <ele>939</ele>
        <time>2016-10-02T12:50:31+02:00</time>
      </trkpt>
      <trkpt lat="45.95848" lon="6.28728">
        <ele>937</ele>
        <time>2016-10-02T12:50:40+02:00</time>
      </trkpt>
      <trkpt lat="45.95851" lon="6.28745">
        <ele>934</ele>
        <time>2016-10-02T12:50:50+02:00</time>
      </trkpt>
      <trkpt lat="45.95858" lon="6.28757">
        <ele>929</ele>
        <time>2016-10-02T12:50:59+02:00</time>
      </trkpt>
      <trkpt lat="45.95868" lon="6.28768">
        <ele>922</ele>
        <time>2016-10-02T12:51:08+02:00</time>
      </trkpt>
      <trkpt lat="45.95876" lon="6.28779">
        <ele>916</ele>
        <time>2016-10-02T12:51:18+02:00</time>
      </trkpt>
      <trkpt lat="45.95885" lon="6.28771">
        <ele>911</ele>
        <time>2016-10-02T12:51:27+02:00</time>
      </trkpt>
      <trkpt lat="45.95891" lon="6.28755">
        <ele>908</ele>
        <time>2016-10-02T12:51:37+02:00</time>
      </trkpt>
      <trkpt lat="45.95898" lon="6.28744">
        <ele>904</ele>
        <time>2016-10-02T12:51:46+02:00</time>
      </trkpt>
      <trkpt lat="45.95904" lon="6.2873">
        <ele>901</ele>
        <time>2016-10-02T12:51:55+02:00</time>
      </trkpt>
      <trkpt lat="45.9591" lon="6.28714">
        <ele>898</ele>
        <time>2016-10-02T12:52:06+02:00</time>
      </trkpt>
      <trkpt lat="45.95914" lon="6.287">
        <ele>897</ele>
        <time>2016-10-02T12:52:14+02:00</time>
      </trkpt>
      <trkpt lat="45.95917" lon="6.28686">
        <ele>895</ele>
        <time>2016-10-02T12:52:23+02:00</time>
      </trkpt>
      <trkpt lat="45.95924" lon="6.28675">
        <ele>893</ele>
        <time>2016-10-02T12:52:31+02:00</time>
      </trkpt>
      <trkpt lat="45.95933" lon="6.28662">
        <ele>890</ele>
        <time>2016-10-02T12:52:41+02:00</time>
      </trkpt>
      <trkpt lat="45.9594" lon="6.2865">
        <ele>889</ele>
        <time>2016-10-02T12:52:50+02:00</time>
      </trkpt>
      <trkpt lat="45.95943" lon="6.28635">
        <ele>889</ele>
        <time>2016-10-02T12:52:59+02:00</time>
      </trkpt>
      <trkpt lat="45.9595" lon="6.28646">
        <ele>885</ele>
        <time>2016-10-02T12:53:11+02:00</time>
      </trkpt>
      <trkpt lat="45.95955" lon="6.28658">
        <ele>881</ele>
        <time>2016-10-02T12:53:19+02:00</time>
      </trkpt>
      <trkpt lat="45.95957" lon="6.2866">
        <ele>880</ele>
        <time>2016-10-02T12:54:10+02:00</time>
      </trkpt>
      <trkpt lat="45.9596" lon="6.28663">
        <ele>878</ele>
        <time>2016-10-02T12:54:52+02:00</time>
      </trkpt>
      <trkpt lat="45.95969" lon="6.28655">
        <ele>876</ele>
        <time>2016-10-02T12:55:01+02:00</time>
      </trkpt>
      <trkpt lat="45.95979" lon="6.28658">
        <ele>871</ele>
        <time>2016-10-02T12:55:10+02:00</time>
      </trkpt>
      <trkpt lat="45.95987" lon="6.28668">
        <ele>866</ele>
        <time>2016-10-02T12:55:19+02:00</time>
      </trkpt>
      <trkpt lat="45.95991" lon="6.28681">
        <ele>863</ele>
        <time>2016-10-02T12:55:28+02:00</time>
      </trkpt>
      <trkpt lat="45.96001" lon="6.28682">
        <ele>858</ele>
        <time>2016-10-02T12:55:37+02:00</time>
      </trkpt>
      <trkpt lat="45.96013" lon="6.28682">
        <ele>855</ele>
        <time>2016-10-02T12:55:46+02:00</time>
      </trkpt>
      <trkpt lat="45.96026" lon="6.28684">
        <ele>851</ele>
        <time>2016-10-02T12:55:57+02:00</time>
      </trkpt>
      <trkpt lat="45.96034" lon="6.28691">
        <ele>847</ele>
        <time>2016-10-02T12:56:06+02:00</time>
      </trkpt>
      <trkpt lat="45.96038" lon="6.28705">
        <ele>844</ele>
        <time>2016-10-02T12:56:15+02:00</time>
      </trkpt>
      <trkpt lat="45.96035" lon="6.28719">
        <ele>842</ele>
        <time>2016-10-02T12:56:23+02:00</time>
      </trkpt>
      <trkpt lat="45.96044" lon="6.28728">
        <ele>838</ele>
        <time>2016-10-02T12:56:33+02:00</time>
      </trkpt>
      <trkpt lat="45.96054" lon="6.28726">
        <ele>834</ele>
        <time>2016-10-02T12:56:41+02:00</time>
      </trkpt>
      <trkpt lat="45.96064" lon="6.28732">
        <ele>829</ele>
        <time>2016-10-02T12:56:51+02:00</time>
      </trkpt>
      <trkpt lat="45.96072" lon="6.28741">
        <ele>824</ele>
        <time>2016-10-02T12:56:59+02:00</time>
      </trkpt>
      <trkpt lat="45.96082" lon="6.28745">
        <ele>819</ele>
        <time>2016-10-02T12:57:08+02:00</time>
      </trkpt>
      <trkpt lat="45.96093" lon="6.28746">
        <ele>817</ele>
        <time>2016-10-02T12:57:17+02:00</time>
      </trkpt>
      <trkpt lat="45.96104" lon="6.2875">
        <ele>814</ele>
        <time>2016-10-02T12:57:27+02:00</time>
      </trkpt>
      <trkpt lat="45.96115" lon="6.28757">
        <ele>812</ele>
        <time>2016-10-02T12:57:36+02:00</time>
      </trkpt>
      <trkpt lat="45.96124" lon="6.28766">
        <ele>810</ele>
        <time>2016-10-02T12:57:46+02:00</time>
      </trkpt>
      <trkpt lat="45.96128" lon="6.2878">
        <ele>807</ele>
        <time>2016-10-02T12:57:54+02:00</time>
      </trkpt>
      <trkpt lat="45.96127" lon="6.28794">
        <ele>806</ele>
        <time>2016-10-02T12:58:03+02:00</time>
      </trkpt>
      <trkpt lat="45.96129" lon="6.28809">
        <ele>803</ele>
        <time>2016-10-02T12:58:11+02:00</time>
      </trkpt>
      <trkpt lat="45.96123" lon="6.28816">
        <ele>803</ele>
        <time>2016-10-02T12:58:26+02:00</time>
      </trkpt>
      <trkpt lat="45.96113" lon="6.28813">
        <ele>806</ele>
        <time>2016-10-02T12:58:35+02:00</time>
      </trkpt>
      <trkpt lat="45.96103" lon="6.28809">
        <ele>808</ele>
        <time>2016-10-02T12:58:44+02:00</time>
      </trkpt>
      <trkpt lat="45.96091" lon="6.28802">
        <ele>811</ele>
        <time>2016-10-02T12:58:54+02:00</time>
      </trkpt>
      <trkpt lat="45.96079" lon="6.28797">
        <ele>815</ele>
        <time>2016-10-02T12:59:04+02:00</time>
      </trkpt>
      <trkpt lat="45.96069" lon="6.28792">
        <ele>819</ele>
        <time>2016-10-02T12:59:13+02:00</time>
      </trkpt>
      <trkpt lat="45.96069" lon="6.28792">
        <ele>819</ele>
        <time>2016-10-02T12:59:18+02:00</time>
      </trkpt>
      <trkpt lat="45.96067" lon="6.28807">
        <ele>819</ele>
        <time>2016-10-02T12:59:47+02:00</time>
      </trkpt>
      <trkpt lat="45.96072" lon="6.28817">
        <ele>816</ele>
        <time>2016-10-02T13:00:12+02:00</time>
      </trkpt>
      <trkpt lat="45.96069" lon="6.28834">
        <ele>816</ele>
        <time>2016-10-02T13:00:22+02:00</time>
      </trkpt>
      <trkpt lat="45.96065" lon="6.28849">
        <ele>817</ele>
        <time>2016-10-02T13:00:31+02:00</time>
      </trkpt>
      <trkpt lat="45.96061" lon="6.28865">
        <ele>818</ele>
        <time>2016-10-02T13:00:41+02:00</time>
      </trkpt>
      <trkpt lat="45.96065" lon="6.28879">
        <ele>816</ele>
        <time>2016-10-02T13:00:49+02:00</time>
      </trkpt>
      <trkpt lat="45.96063" lon="6.28894">
        <ele>816</ele>
        <time>2016-10-02T13:00:58+02:00</time>
      </trkpt>
      <trkpt lat="45.96059" lon="6.28907">
        <ele>817</ele>
        <time>2016-10-02T13:01:06+02:00</time>
      </trkpt>
      <trkpt lat="45.96048" lon="6.28912">
        <ele>822</ele>
        <time>2016-10-02T13:01:15+02:00</time>
      </trkpt>
      <trkpt lat="45.96038" lon="6.28922">
        <ele>826</ele>
        <time>2016-10-02T13:01:26+02:00</time>
      </trkpt>
      <trkpt lat="45.9603" lon="6.28951">
        <ele>830</ele>
        <time>2016-10-02T13:01:49+02:00</time>
      </trkpt>
      <trkpt lat="45.96036" lon="6.28979">
        <ele>829</ele>
        <time>2016-10-02T13:02:06+02:00</time>
      </trkpt>
      <trkpt lat="45.96046" lon="6.28998">
        <ele>828</ele>
        <time>2016-10-02T13:02:25+02:00</time>
      </trkpt>
      <trkpt lat="45.96056" lon="6.29005">
        <ele>826</ele>
        <time>2016-10-02T13:02:34+02:00</time>
      </trkpt>
      <trkpt lat="45.96068" lon="6.29006">
        <ele>824</ele>
        <time>2016-10-02T13:02:43+02:00</time>
      </trkpt>
      <trkpt lat="45.96076" lon="6.28998">
        <ele>820</ele>
        <time>2016-10-02T13:02:52+02:00</time>
      </trkpt>
      <trkpt lat="45.96086" lon="6.28994">
        <ele>818</ele>
        <time>2016-10-02T13:03:01+02:00</time>
      </trkpt>
      <trkpt lat="45.96096" lon="6.28992">
        <ele>816</ele>
        <time>2016-10-02T13:03:09+02:00</time>
      </trkpt>
      <trkpt lat="45.96107" lon="6.28991">
        <ele>815</ele>
        <time>2016-10-02T13:03:17+02:00</time>
      </trkpt>
      <trkpt lat="45.96106" lon="6.29007">
        <ele>818</ele>
        <time>2016-10-02T13:03:44+02:00</time>
      </trkpt>
      <trkpt lat="45.96104" lon="6.2902">
        <ele>820</ele>
        <time>2016-10-02T13:03:52+02:00</time>
      </trkpt>
      <trkpt lat="45.96106" lon="6.29035">
        <ele>823</ele>
        <time>2016-10-02T13:04:01+02:00</time>
      </trkpt>
      <trkpt lat="45.96114" lon="6.29054">
        <ele>826</ele>
        <time>2016-10-02T13:04:16+02:00</time>
      </trkpt>
      <trkpt lat="45.96118" lon="6.29067">
        <ele>829</ele>
        <time>2016-10-02T13:04:26+02:00</time>
      </trkpt>
      <trkpt lat="45.96118" lon="6.29081">
        <ele>832</ele>
        <time>2016-10-02T13:04:34+02:00</time>
      </trkpt>
      <trkpt lat="45.96111" lon="6.29092">
        <ele>834</ele>
        <time>2016-10-02T13:04:44+02:00</time>
      </trkpt>
      <trkpt lat="45.96102" lon="6.29097">
        <ele>835</ele>
        <time>2016-10-02T13:04:51+02:00</time>
      </trkpt>
      <trkpt lat="45.96097" lon="6.2911">
        <ele>837</ele>
        <time>2016-10-02T13:05:01+02:00</time>
      </trkpt>
      <trkpt lat="45.96106" lon="6.29105">
        <ele>836</ele>
        <time>2016-10-02T13:05:11+02:00</time>
      </trkpt>
      <trkpt lat="45.96116" lon="6.29108">
        <ele>838</ele>
        <time>2016-10-02T13:05:19+02:00</time>
      </trkpt>
      <trkpt lat="45.96126" lon="6.29106">
        <ele>838</ele>
        <time>2016-10-02T13:05:27+02:00</time>
      </trkpt>
      <trkpt lat="45.96137" lon="6.29103">
        <ele>838</ele>
        <time>2016-10-02T13:05:35+02:00</time>
      </trkpt>
      <trkpt lat="45.96146" lon="6.291">
        <ele>838</ele>
        <time>2016-10-02T13:05:43+02:00</time>
      </trkpt>
      <trkpt lat="45.96156" lon="6.29095">
        <ele>838</ele>
        <time>2016-10-02T13:05:52+02:00</time>
      </trkpt>
      <trkpt lat="45.96166" lon="6.29094">
        <ele>838</ele>
        <time>2016-10-02T13:05:59+02:00</time>
      </trkpt>
      <trkpt lat="45.96176" lon="6.29095">
        <ele>839</ele>
        <time>2016-10-02T13:06:07+02:00</time>
      </trkpt>
      <trkpt lat="45.96188" lon="6.29096">
        <ele>841</ele>
        <time>2016-10-02T13:06:17+02:00</time>
      </trkpt>
      <trkpt lat="45.96198" lon="6.29094">
        <ele>842</ele>
        <time>2016-10-02T13:06:26+02:00</time>
      </trkpt>
      <trkpt lat="45.96208" lon="6.29091">
        <ele>842</ele>
        <time>2016-10-02T13:06:33+02:00</time>
      </trkpt>
      <trkpt lat="45.96218" lon="6.2909">
        <ele>842</ele>
        <time>2016-10-02T13:06:42+02:00</time>
      </trkpt>
      <trkpt lat="45.96227" lon="6.29088">
        <ele>843</ele>
        <time>2016-10-02T13:06:49+02:00</time>
      </trkpt>
      <trkpt lat="45.96236" lon="6.29083">
        <ele>842</ele>
        <time>2016-10-02T13:06:57+02:00</time>
      </trkpt>
      <trkpt lat="45.96246" lon="6.29079">
        <ele>842</ele>
        <time>2016-10-02T13:07:05+02:00</time>
      </trkpt>
      <trkpt lat="45.96254" lon="6.29075">
        <ele>841</ele>
        <time>2016-10-02T13:07:12+02:00</time>
      </trkpt>
      <trkpt lat="45.96265" lon="6.29074">
        <ele>841</ele>
        <time>2016-10-02T13:07:21+02:00</time>
      </trkpt>
      <trkpt lat="45.96275" lon="6.29071">
        <ele>840</ele>
        <time>2016-10-02T13:07:29+02:00</time>
      </trkpt>
      <trkpt lat="45.96285" lon="6.29073">
        <ele>841</ele>
        <time>2016-10-02T13:07:37+02:00</time>
      </trkpt>
      <trkpt lat="45.96294" lon="6.29073">
        <ele>842</ele>
        <time>2016-10-02T13:07:44+02:00</time>
      </trkpt>
      <trkpt lat="45.96305" lon="6.29076">
        <ele>843</ele>
        <time>2016-10-02T13:07:53+02:00</time>
      </trkpt>
      <trkpt lat="45.96313" lon="6.29087">
        <ele>848</ele>
        <time>2016-10-02T13:08:02+02:00</time>
      </trkpt>
      <trkpt lat="45.9632" lon="6.29095">
        <ele>852</ele>
        <time>2016-10-02T13:08:09+02:00</time>
      </trkpt>
      <trkpt lat="45.96331" lon="6.29099">
        <ele>854</ele>
        <time>2016-10-02T13:08:18+02:00</time>
      </trkpt>
      <trkpt lat="45.96341" lon="6.29103">
        <ele>855</ele>
        <time>2016-10-02T13:08:27+02:00</time>
      </trkpt>
      <trkpt lat="45.96352" lon="6.29105">
        <ele>856</ele>
        <time>2016-10-02T13:08:35+02:00</time>
      </trkpt>
      <trkpt lat="45.96361" lon="6.29109">
        <ele>857</ele>
        <time>2016-10-02T13:08:43+02:00</time>
      </trkpt>
      <trkpt lat="45.96369" lon="6.29116">
        <ele>860</ele>
        <time>2016-10-02T13:08:50+02:00</time>
      </trkpt>
      <trkpt lat="45.96377" lon="6.29121">
        <ele>862</ele>
        <time>2016-10-02T13:08:57+02:00</time>
      </trkpt>
      <trkpt lat="45.96386" lon="6.29127">
        <ele>865</ele>
        <time>2016-10-02T13:09:05+02:00</time>
      </trkpt>
      <trkpt lat="45.96394" lon="6.29134">
        <ele>868</ele>
        <time>2016-10-02T13:09:13+02:00</time>
      </trkpt>
      <trkpt lat="45.96402" lon="6.29141">
        <ele>871</ele>
        <time>2016-10-02T13:09:21+02:00</time>
      </trkpt>
      <trkpt lat="45.96411" lon="6.29147">
        <ele>874</ele>
        <time>2016-10-02T13:09:28+02:00</time>
      </trkpt>
      <trkpt lat="45.96419" lon="6.29154">
        <ele>878</ele>
        <time>2016-10-02T13:09:35+02:00</time>
      </trkpt>
      <trkpt lat="45.96431" lon="6.29158">
        <ele>879</ele>
        <time>2016-10-02T13:09:46+02:00</time>
      </trkpt>
      <trkpt lat="45.96441" lon="6.29164">
        <ele>881</ele>
        <time>2016-10-02T13:09:55+02:00</time>
      </trkpt>
      <trkpt lat="45.96451" lon="6.29163">
        <ele>880</ele>
        <time>2016-10-02T13:10:04+02:00</time>
      </trkpt>
      <trkpt lat="45.9646" lon="6.29167">
        <ele>882</ele>
        <time>2016-10-02T13:10:11+02:00</time>
      </trkpt>
      <trkpt lat="45.96468" lon="6.29176">
        <ele>886</ele>
        <time>2016-10-02T13:10:19+02:00</time>
      </trkpt>
      <trkpt lat="45.96474" lon="6.29186">
        <ele>890</ele>
        <time>2016-10-02T13:10:27+02:00</time>
      </trkpt>
      <trkpt lat="45.96484" lon="6.29191">
        <ele>892</ele>
        <time>2016-10-02T13:10:35+02:00</time>
      </trkpt>
      <trkpt lat="45.96493" lon="6.2919">
        <ele>891</ele>
        <time>2016-10-02T13:10:43+02:00</time>
      </trkpt>
      <trkpt lat="45.96502" lon="6.29194">
        <ele>892</ele>
        <time>2016-10-02T13:10:50+02:00</time>
      </trkpt>
      <trkpt lat="45.96511" lon="6.29191">
        <ele>890</ele>
        <time>2016-10-02T13:10:58+02:00</time>
      </trkpt>
      <trkpt lat="45.9652" lon="6.29199">
        <ele>893</ele>
        <time>2016-10-02T13:11:07+02:00</time>
      </trkpt>
      <trkpt lat="45.96527" lon="6.29201">
        <ele>892</ele>
        <time>2016-10-02T13:11:12+02:00</time>
      </trkpt>
      <trkpt lat="45.96531" lon="6.29201">
        <ele>892</ele>
        <time>2016-10-02T13:11:16+02:00</time>
      </trkpt>
      <trkpt lat="45.96546" lon="6.29207">
        <ele>893</ele>
        <time>2016-10-02T13:11:29+02:00</time>
      </trkpt>
      <trkpt lat="45.96555" lon="6.2921">
        <ele>893</ele>
        <time>2016-10-02T13:11:36+02:00</time>
      </trkpt>
      <trkpt lat="45.96563" lon="6.29215">
        <ele>895</ele>
        <time>2016-10-02T13:11:43+02:00</time>
      </trkpt>
      <trkpt lat="45.96569" lon="6.29217">
        <ele>895</ele>
        <time>2016-10-02T13:11:48+02:00</time>
      </trkpt>
      <trkpt lat="45.96574" lon="6.29217">
        <ele>895</ele>
        <time>2016-10-02T13:11:52+02:00</time>
      </trkpt>
      <trkpt lat="45.9658" lon="6.29219">
        <ele>895</ele>
        <time>2016-10-02T13:11:57+02:00</time>
      </trkpt>
      <trkpt lat="45.96585" lon="6.29222">
        <ele>895</ele>
        <time>2016-10-02T13:12:01+02:00</time>
      </trkpt>
      <trkpt lat="45.96589" lon="6.29225">
        <ele>896</ele>
        <time>2016-10-02T13:12:05+02:00</time>
      </trkpt>
      <trkpt lat="45.96593" lon="6.29228">
        <ele>896</ele>
        <time>2016-10-02T13:12:09+02:00</time>
      </trkpt>
      <trkpt lat="45.96601" lon="6.29232">
        <ele>896</ele>
        <time>2016-10-02T13:12:15+02:00</time>
      </trkpt>
      <trkpt lat="45.96606" lon="6.29233">
        <ele>895</ele>
        <time>2016-10-02T13:12:20+02:00</time>
      </trkpt>
      <trkpt lat="45.96611" lon="6.29234">
        <ele>894</ele>
        <time>2016-10-02T13:12:24+02:00</time>
      </trkpt>
      <trkpt lat="45.9662" lon="6.29239">
        <ele>894</ele>
        <time>2016-10-02T13:12:31+02:00</time>
      </trkpt>
      <trkpt lat="45.96625" lon="6.29241">
        <ele>894</ele>
        <time>2016-10-02T13:12:35+02:00</time>
      </trkpt>
      <trkpt lat="45.96629" lon="6.29242">
        <ele>893</ele>
        <time>2016-10-02T13:12:39+02:00</time>
      </trkpt>
      <trkpt lat="45.96634" lon="6.29243">
        <ele>892</ele>
        <time>2016-10-02T13:12:43+02:00</time>
      </trkpt>
      <trkpt lat="45.96639" lon="6.29246">
        <ele>893</ele>
        <time>2016-10-02T13:12:48+02:00</time>
      </trkpt>
      <trkpt lat="45.96648" lon="6.29255">
        <ele>894</ele>
        <time>2016-10-02T13:12:56+02:00</time>
      </trkpt>
      <trkpt lat="45.96652" lon="6.29257">
        <ele>893</ele>
        <time>2016-10-02T13:12:59+02:00</time>
      </trkpt>
      <trkpt lat="45.96656" lon="6.2926">
        <ele>893</ele>
        <time>2016-10-02T13:13:03+02:00</time>
      </trkpt>
      <trkpt lat="45.9666" lon="6.29264">
        <ele>893</ele>
        <time>2016-10-02T13:13:07+02:00</time>
      </trkpt>
      <trkpt lat="45.96664" lon="6.29266">
        <ele>893</ele>
        <time>2016-10-02T13:13:10+02:00</time>
      </trkpt>
      <trkpt lat="45.96671" lon="6.2927">
        <ele>892</ele>
        <time>2016-10-02T13:13:16+02:00</time>
      </trkpt>
      <trkpt lat="45.96676" lon="6.29271">
        <ele>890</ele>
        <time>2016-10-02T13:13:20+02:00</time>
      </trkpt>
      <trkpt lat="45.96681" lon="6.29273">
        <ele>889</ele>
        <time>2016-10-02T13:13:25+02:00</time>
      </trkpt>
      <trkpt lat="45.96691" lon="6.29278">
        <ele>887</ele>
        <time>2016-10-02T13:13:33+02:00</time>
      </trkpt>
      <trkpt lat="45.967" lon="6.29283">
        <ele>885</ele>
        <time>2016-10-02T13:13:41+02:00</time>
      </trkpt>
      <trkpt lat="45.96708" lon="6.29291">
        <ele>885</ele>
        <time>2016-10-02T13:13:49+02:00</time>
      </trkpt>
      <trkpt lat="45.96718" lon="6.29299">
        <ele>884</ele>
        <time>2016-10-02T13:13:58+02:00</time>
      </trkpt>
      <trkpt lat="45.96726" lon="6.29305">
        <ele>883</ele>
        <time>2016-10-02T13:14:05+02:00</time>
      </trkpt>
      <trkpt lat="45.96734" lon="6.29315">
        <ele>884</ele>
        <time>2016-10-02T13:14:13+02:00</time>
      </trkpt>
      <trkpt lat="45.96742" lon="6.29322">
        <ele>884</ele>
        <time>2016-10-02T13:14:21+02:00</time>
      </trkpt>
      <trkpt lat="45.96751" lon="6.2933">
        <ele>883</ele>
        <time>2016-10-02T13:14:29+02:00</time>
      </trkpt>
      <trkpt lat="45.96758" lon="6.29335">
        <ele>880</ele>
        <time>2016-10-02T13:14:36+02:00</time>
      </trkpt>
      <trkpt lat="45.96764" lon="6.29348">
        <ele>879</ele>
        <time>2016-10-02T13:14:44+02:00</time>
      </trkpt>
      <trkpt lat="45.96768" lon="6.29361">
        <ele>880</ele>
        <time>2016-10-02T13:14:52+02:00</time>
      </trkpt>
      <trkpt lat="45.96772" lon="6.29375">
        <ele>881</ele>
        <time>2016-10-02T13:15:01+02:00</time>
      </trkpt>
      <trkpt lat="45.96777" lon="6.29386">
        <ele>880</ele>
        <time>2016-10-02T13:15:08+02:00</time>
      </trkpt>
      <trkpt lat="45.96782" lon="6.29398">
        <ele>880</ele>
        <time>2016-10-02T13:15:16+02:00</time>
      </trkpt>
      <trkpt lat="45.96784" lon="6.29404">
        <ele>880</ele>
        <time>2016-10-02T13:15:20+02:00</time>
      </trkpt>
      <trkpt lat="45.96785" lon="6.29418">
        <ele>883</ele>
        <time>2016-10-02T13:15:28+02:00</time>
      </trkpt>
      <trkpt lat="45.96784" lon="6.29433">
        <ele>887</ele>
        <time>2016-10-02T13:15:36+02:00</time>
      </trkpt>
      <trkpt lat="45.96788" lon="6.29445">
        <ele>887</ele>
        <time>2016-10-02T13:15:44+02:00</time>
      </trkpt>
      <trkpt lat="45.96791" lon="6.29457">
        <ele>888</ele>
        <time>2016-10-02T13:15:52+02:00</time>
      </trkpt>
      <trkpt lat="45.96794" lon="6.29472">
        <ele>890</ele>
        <time>2016-10-02T13:16:00+02:00</time>
      </trkpt>
      <trkpt lat="45.96797" lon="6.29484">
        <ele>891</ele>
        <time>2016-10-02T13:16:08+02:00</time>
      </trkpt>
      <trkpt lat="45.96802" lon="6.29497">
        <ele>890</ele>
        <time>2016-10-02T13:16:16+02:00</time>
      </trkpt>
      <trkpt lat="45.96808" lon="6.29508">
        <ele>889</ele>
        <time>2016-10-02T13:16:24+02:00</time>
      </trkpt>
      <trkpt lat="45.96813" lon="6.29519">
        <ele>888</ele>
        <time>2016-10-02T13:16:31+02:00</time>
      </trkpt>
      <trkpt lat="45.96818" lon="6.29531">
        <ele>888</ele>
        <time>2016-10-02T13:16:39+02:00</time>
      </trkpt>
      <trkpt lat="45.96821" lon="6.29545">
        <ele>889</ele>
        <time>2016-10-02T13:16:47+02:00</time>
      </trkpt>
      <trkpt lat="45.96825" lon="6.29554">
        <ele>888</ele>
        <time>2016-10-02T13:16:54+02:00</time>
      </trkpt>
      <trkpt lat="45.96827" lon="6.29568">
        <ele>890</ele>
        <time>2016-10-02T13:17:01+02:00</time>
      </trkpt>
      <trkpt lat="45.96825" lon="6.29582">
        <ele>895</ele>
        <time>2016-10-02T13:17:10+02:00</time>
      </trkpt>
      <trkpt lat="45.96824" lon="6.29596">
        <ele>898</ele>
        <time>2016-10-02T13:17:17+02:00</time>
      </trkpt>
      <trkpt lat="45.96828" lon="6.29608">
        <ele>898</ele>
        <time>2016-10-02T13:17:26+02:00</time>
      </trkpt>
      <trkpt lat="45.96837" lon="6.29604">
        <ele>892</ele>
        <time>2016-10-02T13:17:33+02:00</time>
      </trkpt>
      <trkpt lat="45.96843" lon="6.29614">
        <ele>892</ele>
        <time>2016-10-02T13:17:41+02:00</time>
      </trkpt>
      <trkpt lat="45.96849" lon="6.29627">
        <ele>892</ele>
        <time>2016-10-02T13:17:49+02:00</time>
      </trkpt>
      <trkpt lat="45.96855" lon="6.29641">
        <ele>893</ele>
        <time>2016-10-02T13:17:59+02:00</time>
      </trkpt>
      <trkpt lat="45.96859" lon="6.29659">
        <ele>895</ele>
        <time>2016-10-02T13:18:09+02:00</time>
      </trkpt>
      <trkpt lat="45.96856" lon="6.29672">
        <ele>900</ele>
        <time>2016-10-02T13:18:17+02:00</time>
      </trkpt>
      <trkpt lat="45.96854" lon="6.29685">
        <ele>904</ele>
        <time>2016-10-02T13:18:24+02:00</time>
      </trkpt>
      <trkpt lat="45.96855" lon="6.29701">
        <ele>908</ele>
        <time>2016-10-02T13:18:33+02:00</time>
      </trkpt>
      <trkpt lat="45.96853" lon="6.29717">
        <ele>913</ele>
        <time>2016-10-02T13:18:42+02:00</time>
      </trkpt>
      <trkpt lat="45.96866" lon="6.29729">
        <ele>914</ele>
        <time>2016-10-02T13:18:55+02:00</time>
      </trkpt>
      <trkpt lat="45.96872" lon="6.29739">
        <ele>917</ele>
        <time>2016-10-02T13:19:02+02:00</time>
      </trkpt>
      <trkpt lat="45.96876" lon="6.29751">
        <ele>920</ele>
        <time>2016-10-02T13:19:10+02:00</time>
      </trkpt>
      <trkpt lat="45.96871" lon="6.29765">
        <ele>925</ele>
        <time>2016-10-02T13:19:19+02:00</time>
      </trkpt>
      <trkpt lat="45.96873" lon="6.29778">
        <ele>930</ele>
        <time>2016-10-02T13:19:26+02:00</time>
      </trkpt>
      <trkpt lat="45.9687" lon="6.29791">
        <ele>934</ele>
        <time>2016-10-02T13:19:34+02:00</time>
      </trkpt>
      <trkpt lat="45.96877" lon="6.298">
        <ele>937</ele>
        <time>2016-10-02T13:19:41+02:00</time>
      </trkpt>
      <trkpt lat="45.96876" lon="6.29815">
        <ele>942</ele>
        <time>2016-10-02T13:19:50+02:00</time>
      </trkpt>
      <trkpt lat="45.96879" lon="6.29828">
        <ele>946</ele>
        <time>2016-10-02T13:19:57+02:00</time>
      </trkpt>
      <trkpt lat="45.96883" lon="6.2984">
        <ele>951</ele>
        <time>2016-10-02T13:20:05+02:00</time>
      </trkpt>
      <trkpt lat="45.96884" lon="6.29857">
        <ele>958</ele>
        <time>2016-10-02T13:20:15+02:00</time>
      </trkpt>
      <trkpt lat="45.96876" lon="6.29865">
        <ele>960</ele>
        <time>2016-10-02T13:20:22+02:00</time>
      </trkpt>
      <trkpt lat="45.96866" lon="6.29868">
        <ele>960</ele>
        <time>2016-10-02T13:20:31+02:00</time>
      </trkpt>
      <trkpt lat="45.96867" lon="6.29879">
        <ele>964</ele>
        <time>2016-10-02T13:20:39+02:00</time>
      </trkpt>
      <trkpt lat="45.96869" lon="6.2988">
        <ele>965</ele>
        <time>2016-10-02T13:20:40+02:00</time>
      </trkpt>
      <trkpt lat="45.9687" lon="6.29881">
        <ele>966</ele>
        <time>2016-10-02T13:20:41+02:00</time>
      </trkpt>
      <trkpt lat="45.96871" lon="6.29883">
        <ele>966</ele>
        <time>2016-10-02T13:20:43+02:00</time>
      </trkpt>
      <trkpt lat="45.96872" lon="6.29884">
        <ele>967</ele>
        <time>2016-10-02T13:20:44+02:00</time>
      </trkpt>
      <trkpt lat="45.96873" lon="6.29886">
        <ele>968</ele>
        <time>2016-10-02T13:20:45+02:00</time>
      </trkpt>
      <trkpt lat="45.96874" lon="6.29886">
        <ele>968</ele>
        <time>2016-10-02T13:20:46+02:00</time>
      </trkpt>
      <trkpt lat="45.96876" lon="6.29887">
        <ele>968</ele>
        <time>2016-10-02T13:20:47+02:00</time>
      </trkpt>
      <trkpt lat="45.96877" lon="6.29887">
        <ele>969</ele>
        <time>2016-10-02T13:20:49+02:00</time>
      </trkpt>
      <trkpt lat="45.96878" lon="6.29888">
        <ele>969</ele>
        <time>2016-10-02T13:20:50+02:00</time>
      </trkpt>
      <trkpt lat="45.9688" lon="6.29888">
        <ele>969</ele>
        <time>2016-10-02T13:20:51+02:00</time>
      </trkpt>
      <trkpt lat="45.96881" lon="6.29889">
        <ele>970</ele>
        <time>2016-10-02T13:20:51+02:00</time>
      </trkpt>
      <trkpt lat="45.96882" lon="6.2989">
        <ele>970</ele>
        <time>2016-10-02T13:20:53+02:00</time>
      </trkpt>
      <trkpt lat="45.96883" lon="6.29891">
        <ele>971</ele>
        <time>2016-10-02T13:20:54+02:00</time>
      </trkpt>
      <trkpt lat="45.96884" lon="6.29893">
        <ele>971</ele>
        <time>2016-10-02T13:20:55+02:00</time>
      </trkpt>
      <trkpt lat="45.96886" lon="6.29895">
        <ele>972</ele>
        <time>2016-10-02T13:20:57+02:00</time>
      </trkpt>
      <trkpt lat="45.96887" lon="6.29897">
        <ele>973</ele>
        <time>2016-10-02T13:20:58+02:00</time>
      </trkpt>
      <trkpt lat="45.96889" lon="6.29899">
        <ele>974</ele>
        <time>2016-10-02T13:21:00+02:00</time>
      </trkpt>
      <trkpt lat="45.96891" lon="6.29899">
        <ele>975</ele>
        <time>2016-10-02T13:21:02+02:00</time>
      </trkpt>
      <trkpt lat="45.96893" lon="6.299">
        <ele>975</ele>
        <time>2016-10-02T13:21:03+02:00</time>
      </trkpt>
      <trkpt lat="45.96894" lon="6.29901">
        <ele>976</ele>
        <time>2016-10-02T13:21:05+02:00</time>
      </trkpt>
      <trkpt lat="45.96896" lon="6.29902">
        <ele>976</ele>
        <time>2016-10-02T13:21:06+02:00</time>
      </trkpt>
      <trkpt lat="45.96897" lon="6.29903">
        <ele>977</ele>
        <time>2016-10-02T13:21:07+02:00</time>
      </trkpt>
      <trkpt lat="45.96899" lon="6.29904">
        <ele>978</ele>
        <time>2016-10-02T13:21:09+02:00</time>
      </trkpt>
      <trkpt lat="45.96901" lon="6.29905">
        <ele>978</ele>
        <time>2016-10-02T13:21:10+02:00</time>
      </trkpt>
      <trkpt lat="45.96902" lon="6.29906">
        <ele>979</ele>
        <time>2016-10-02T13:21:12+02:00</time>
      </trkpt>
      <trkpt lat="45.96904" lon="6.29907">
        <ele>979</ele>
        <time>2016-10-02T13:21:13+02:00</time>
      </trkpt>
      <trkpt lat="45.96905" lon="6.29907">
        <ele>980</ele>
        <time>2016-10-02T13:21:14+02:00</time>
      </trkpt>
      <trkpt lat="45.96906" lon="6.29908">
        <ele>980</ele>
        <time>2016-10-02T13:21:15+02:00</time>
      </trkpt>
      <trkpt lat="45.96907" lon="6.29908">
        <ele>980</ele>
        <time>2016-10-02T13:21:16+02:00</time>
      </trkpt>
      <trkpt lat="45.96908" lon="6.29908">
        <ele>980</ele>
        <time>2016-10-02T13:21:17+02:00</time>
      </trkpt>
      <trkpt lat="45.9691" lon="6.29908">
        <ele>981</ele>
        <time>2016-10-02T13:21:19+02:00</time>
      </trkpt>
      <trkpt lat="45.96911" lon="6.29908">
        <ele>981</ele>
        <time>2016-10-02T13:21:20+02:00</time>
      </trkpt>
      <trkpt lat="45.96913" lon="6.29908">
        <ele>981</ele>
        <time>2016-10-02T13:21:21+02:00</time>
      </trkpt>
      <trkpt lat="45.96914" lon="6.29907">
        <ele>981</ele>
        <time>2016-10-02T13:21:22+02:00</time>
      </trkpt>
      <trkpt lat="45.96916" lon="6.29907">
        <ele>981</ele>
        <time>2016-10-02T13:21:23+02:00</time>
      </trkpt>
      <trkpt lat="45.96917" lon="6.29907">
        <ele>981</ele>
        <time>2016-10-02T13:21:25+02:00</time>
      </trkpt>
      <trkpt lat="45.96919" lon="6.29907">
        <ele>983</ele>
        <time>2016-10-02T13:21:26+02:00</time>
      </trkpt>
      <trkpt lat="45.96921" lon="6.29907">
        <ele>984</ele>
        <time>2016-10-02T13:21:28+02:00</time>
      </trkpt>
      <trkpt lat="45.96922" lon="6.29907">
        <ele>985</ele>
        <time>2016-10-02T13:21:29+02:00</time>
      </trkpt>
      <trkpt lat="45.96924" lon="6.29907">
        <ele>986</ele>
        <time>2016-10-02T13:21:30+02:00</time>
      </trkpt>
      <trkpt lat="45.96925" lon="6.29907">
        <ele>987</ele>
        <time>2016-10-02T13:21:31+02:00</time>
      </trkpt>
      <trkpt lat="45.96926" lon="6.29907">
        <ele>988</ele>
        <time>2016-10-02T13:21:32+02:00</time>
      </trkpt>
      <trkpt lat="45.96928" lon="6.29907">
        <ele>989</ele>
        <time>2016-10-02T13:21:33+02:00</time>
      </trkpt>
      <trkpt lat="45.96929" lon="6.29907">
        <ele>990</ele>
        <time>2016-10-02T13:21:34+02:00</time>
      </trkpt>
      <trkpt lat="45.96931" lon="6.29907">
        <ele>991</ele>
        <time>2016-10-02T13:21:36+02:00</time>
      </trkpt>
      <trkpt lat="45.96932" lon="6.29907">
        <ele>992</ele>
        <time>2016-10-02T13:21:37+02:00</time>
      </trkpt>
      <trkpt lat="45.96933" lon="6.29907">
        <ele>993</ele>
        <time>2016-10-02T13:21:38+02:00</time>
      </trkpt>
      <trkpt lat="45.96935" lon="6.29906">
        <ele>994</ele>
        <time>2016-10-02T13:21:39+02:00</time>
      </trkpt>
      <trkpt lat="45.96936" lon="6.29906">
        <ele>995</ele>
        <time>2016-10-02T13:21:40+02:00</time>
      </trkpt>
      <trkpt lat="45.96937" lon="6.29905">
        <ele>995</ele>
        <time>2016-10-02T13:21:41+02:00</time>
      </trkpt>
      <trkpt lat="45.96939" lon="6.29905">
        <ele>996</ele>
        <time>2016-10-02T13:21:42+02:00</time>
      </trkpt>
      <trkpt lat="45.9694" lon="6.29905">
        <ele>997</ele>
        <time>2016-10-02T13:21:44+02:00</time>
      </trkpt>
      <trkpt lat="45.96942" lon="6.29905">
        <ele>998</ele>
        <time>2016-10-02T13:21:45+02:00</time>
      </trkpt>
      <trkpt lat="45.96944" lon="6.29905">
        <ele>1000</ele>
        <time>2016-10-02T13:21:46+02:00</time>
      </trkpt>
      <trkpt lat="45.96945" lon="6.29906">
        <ele>1001</ele>
        <time>2016-10-02T13:21:48+02:00</time>
      </trkpt>
      <trkpt lat="45.96947" lon="6.29907">
        <ele>1003</ele>
        <time>2016-10-02T13:21:49+02:00</time>
      </trkpt>
      <trkpt lat="45.96948" lon="6.29907">
        <ele>1004</ele>
        <time>2016-10-02T13:21:50+02:00</time>
      </trkpt>
      <trkpt lat="45.9695" lon="6.29907">
        <ele>1005</ele>
        <time>2016-10-02T13:21:51+02:00</time>
      </trkpt>
      <trkpt lat="45.96951" lon="6.29907">
        <ele>1006</ele>
        <time>2016-10-02T13:21:52+02:00</time>
      </trkpt>
      <trkpt lat="45.96952" lon="6.29907">
        <ele>1007</ele>
        <time>2016-10-02T13:21:53+02:00</time>
      </trkpt>
      <trkpt lat="45.96953" lon="6.29907">
        <ele>1007</ele>
        <time>2016-10-02T13:21:54+02:00</time>
      </trkpt>
      <trkpt lat="45.96954" lon="6.29907">
        <ele>1008</ele>
        <time>2016-10-02T13:21:55+02:00</time>
      </trkpt>
      <trkpt lat="45.96956" lon="6.29907">
        <ele>1009</ele>
        <time>2016-10-02T13:21:56+02:00</time>
      </trkpt>
      <trkpt lat="45.96957" lon="6.29906">
        <ele>1010</ele>
        <time>2016-10-02T13:21:57+02:00</time>
      </trkpt>
      <trkpt lat="45.96958" lon="6.29906">
        <ele>1011</ele>
        <time>2016-10-02T13:21:58+02:00</time>
      </trkpt>
      <trkpt lat="45.9696" lon="6.29906">
        <ele>1012</ele>
        <time>2016-10-02T13:21:59+02:00</time>
      </trkpt>
      <trkpt lat="45.96961" lon="6.29905">
        <ele>1012</ele>
        <time>2016-10-02T13:22:00+02:00</time>
      </trkpt>
      <trkpt lat="45.96962" lon="6.29905">
        <ele>1013</ele>
        <time>2016-10-02T13:22:01+02:00</time>
      </trkpt>
      <trkpt lat="45.96963" lon="6.29904">
        <ele>1013</ele>
        <time>2016-10-02T13:22:02+02:00</time>
      </trkpt>
      <trkpt lat="45.96964" lon="6.29903">
        <ele>1014</ele>
        <time>2016-10-02T13:22:03+02:00</time>
      </trkpt>
      <trkpt lat="45.96965" lon="6.29901">
        <ele>1014</ele>
        <time>2016-10-02T13:22:04+02:00</time>
      </trkpt>
      <trkpt lat="45.96966" lon="6.299">
        <ele>1014</ele>
        <time>2016-10-02T13:22:06+02:00</time>
      </trkpt>
      <trkpt lat="45.96968" lon="6.29899">
        <ele>1015</ele>
        <time>2016-10-02T13:22:07+02:00</time>
      </trkpt>
      <trkpt lat="45.96969" lon="6.29898">
        <ele>1015</ele>
        <time>2016-10-02T13:22:08+02:00</time>
      </trkpt>
      <trkpt lat="45.96969" lon="6.29897">
        <ele>1015</ele>
        <time>2016-10-02T13:22:09+02:00</time>
      </trkpt>
      <trkpt lat="45.9697" lon="6.29896">
        <ele>1015</ele>
        <time>2016-10-02T13:22:10+02:00</time>
      </trkpt>
      <trkpt lat="45.96971" lon="6.29895">
        <ele>1015</ele>
        <time>2016-10-02T13:22:11+02:00</time>
      </trkpt>
      <trkpt lat="45.96973" lon="6.29893">
        <ele>1016</ele>
        <time>2016-10-02T13:22:12+02:00</time>
      </trkpt>
      <trkpt lat="45.96974" lon="6.29892">
        <ele>1016</ele>
        <time>2016-10-02T13:22:13+02:00</time>
      </trkpt>
      <trkpt lat="45.96974" lon="6.29891">
        <ele>1016</ele>
        <time>2016-10-02T13:22:14+02:00</time>
      </trkpt>
      <trkpt lat="45.96975" lon="6.29889">
        <ele>1016</ele>
        <time>2016-10-02T13:22:15+02:00</time>
      </trkpt>
      <trkpt lat="45.96976" lon="6.29887">
        <ele>1016</ele>
        <time>2016-10-02T13:22:16+02:00</time>
      </trkpt>
      <trkpt lat="45.96977" lon="6.29878">
        <ele>1012</ele>
        <time>2016-10-02T13:22:21+02:00</time>
      </trkpt>
      <trkpt lat="45.96978" lon="6.29877">
        <ele>1013</ele>
        <time>2016-10-02T13:22:23+02:00</time>
      </trkpt>
      <trkpt lat="45.96979" lon="6.29876">
        <ele>1013</ele>
        <time>2016-10-02T13:22:24+02:00</time>
      </trkpt>
      <trkpt lat="45.9698" lon="6.29874">
        <ele>1013</ele>
        <time>2016-10-02T13:22:25+02:00</time>
      </trkpt>
      <trkpt lat="45.96981" lon="6.29874">
        <ele>1014</ele>
        <time>2016-10-02T13:22:26+02:00</time>
      </trkpt>
      <trkpt lat="45.96982" lon="6.29872">
        <ele>1014</ele>
        <time>2016-10-02T13:22:27+02:00</time>
      </trkpt>
      <trkpt lat="45.96983" lon="6.2987">
        <ele>1013</ele>
        <time>2016-10-02T13:22:28+02:00</time>
      </trkpt>
      <trkpt lat="45.96983" lon="6.29867">
        <ele>1012</ele>
        <time>2016-10-02T13:22:30+02:00</time>
      </trkpt>
      <trkpt lat="45.96983" lon="6.29865">
        <ele>1011</ele>
        <time>2016-10-02T13:22:31+02:00</time>
      </trkpt>
      <trkpt lat="45.96983" lon="6.29862">
        <ele>1010</ele>
        <time>2016-10-02T13:22:33+02:00</time>
      </trkpt>
      <trkpt lat="45.96984" lon="6.29859">
        <ele>1009</ele>
        <time>2016-10-02T13:22:35+02:00</time>
      </trkpt>
      <trkpt lat="45.96983" lon="6.29857">
        <ele>1008</ele>
        <time>2016-10-02T13:22:36+02:00</time>
      </trkpt>
      <trkpt lat="45.96983" lon="6.29856">
        <ele>1007</ele>
        <time>2016-10-02T13:22:37+02:00</time>
      </trkpt>
      <trkpt lat="45.96983" lon="6.29854">
        <ele>1006</ele>
        <time>2016-10-02T13:22:38+02:00</time>
      </trkpt>
      <trkpt lat="45.96983" lon="6.29851">
        <ele>1006</ele>
        <time>2016-10-02T13:22:39+02:00</time>
      </trkpt>
      <trkpt lat="45.96983" lon="6.29848">
        <ele>1004</ele>
        <time>2016-10-02T13:22:41+02:00</time>
      </trkpt>
      <trkpt lat="45.96984" lon="6.29846">
        <ele>1004</ele>
        <time>2016-10-02T13:22:42+02:00</time>
      </trkpt>
      <trkpt lat="45.96984" lon="6.29844">
        <ele>1003</ele>
        <time>2016-10-02T13:22:44+02:00</time>
      </trkpt>
      <trkpt lat="45.96984" lon="6.29841">
        <ele>1002</ele>
        <time>2016-10-02T13:22:45+02:00</time>
      </trkpt>
      <trkpt lat="45.96984" lon="6.29839">
        <ele>1001</ele>
        <time>2016-10-02T13:22:47+02:00</time>
      </trkpt>
      <trkpt lat="45.96984" lon="6.29836">
        <ele>1000</ele>
        <time>2016-10-02T13:22:48+02:00</time>
      </trkpt>
      <trkpt lat="45.96984" lon="6.29834">
        <ele>999</ele>
        <time>2016-10-02T13:22:49+02:00</time>
      </trkpt>
      <trkpt lat="45.96984" lon="6.29831">
        <ele>997</ele>
        <time>2016-10-02T13:22:51+02:00</time>
      </trkpt>
      <trkpt lat="45.96984" lon="6.29829">
        <ele>996</ele>
        <time>2016-10-02T13:22:52+02:00</time>
      </trkpt>
      <trkpt lat="45.96984" lon="6.29827">
        <ele>996</ele>
        <time>2016-10-02T13:22:53+02:00</time>
      </trkpt>
      <trkpt lat="45.96984" lon="6.29825">
        <ele>995</ele>
        <time>2016-10-02T13:22:55+02:00</time>
      </trkpt>
      <trkpt lat="45.96984" lon="6.29822">
        <ele>993</ele>
        <time>2016-10-02T13:22:56+02:00</time>
      </trkpt>
      <trkpt lat="45.96984" lon="6.2982">
        <ele>993</ele>
        <time>2016-10-02T13:22:57+02:00</time>
      </trkpt>
      <trkpt lat="45.96984" lon="6.29818">
        <ele>992</ele>
        <time>2016-10-02T13:22:58+02:00</time>
      </trkpt>
      <trkpt lat="45.96984" lon="6.29817">
        <ele>991</ele>
        <time>2016-10-02T13:22:59+02:00</time>
      </trkpt>
      <trkpt lat="45.96984" lon="6.29815">
        <ele>990</ele>
        <time>2016-10-02T13:23:01+02:00</time>
      </trkpt>
      <trkpt lat="45.96984" lon="6.29812">
        <ele>989</ele>
        <time>2016-10-02T13:23:02+02:00</time>
      </trkpt>
      <trkpt lat="45.96984" lon="6.29809">
        <ele>988</ele>
        <time>2016-10-02T13:23:04+02:00</time>
      </trkpt>
      <trkpt lat="45.96984" lon="6.29807">
        <ele>986</ele>
        <time>2016-10-02T13:23:05+02:00</time>
      </trkpt>
      <trkpt lat="45.96985" lon="6.29804">
        <ele>985</ele>
        <time>2016-10-02T13:23:06+02:00</time>
      </trkpt>
      <trkpt lat="45.96985" lon="6.29802">
        <ele>985</ele>
        <time>2016-10-02T13:23:08+02:00</time>
      </trkpt>
      <trkpt lat="45.96986" lon="6.29799">
        <ele>984</ele>
        <time>2016-10-02T13:23:09+02:00</time>
      </trkpt>
      <trkpt lat="45.96986" lon="6.29796">
        <ele>983</ele>
        <time>2016-10-02T13:23:11+02:00</time>
      </trkpt>
      <trkpt lat="45.96987" lon="6.29793">
        <ele>982</ele>
        <time>2016-10-02T13:23:13+02:00</time>
      </trkpt>
      <trkpt lat="45.96988" lon="6.29791">
        <ele>981</ele>
        <time>2016-10-02T13:23:15+02:00</time>
      </trkpt>
      <trkpt lat="45.96989" lon="6.29788">
        <ele>981</ele>
        <time>2016-10-02T13:23:16+02:00</time>
      </trkpt>
      <trkpt lat="45.96989" lon="6.29785">
        <ele>980</ele>
        <time>2016-10-02T13:23:18+02:00</time>
      </trkpt>
      <trkpt lat="45.9699" lon="6.29782">
        <ele>979</ele>
        <time>2016-10-02T13:23:20+02:00</time>
      </trkpt>
      <trkpt lat="45.9699" lon="6.29779">
        <ele>978</ele>
        <time>2016-10-02T13:23:22+02:00</time>
      </trkpt>
      <trkpt lat="45.96991" lon="6.29776">
        <ele>976</ele>
        <time>2016-10-02T13:23:23+02:00</time>
      </trkpt>
      <trkpt lat="45.9699" lon="6.29772">
        <ele>975</ele>
        <time>2016-10-02T13:23:26+02:00</time>
      </trkpt>
      <trkpt lat="45.9699" lon="6.29768">
        <ele>973</ele>
        <time>2016-10-02T13:23:28+02:00</time>
      </trkpt>
      <trkpt lat="45.9699" lon="6.29764">
        <ele>971</ele>
        <time>2016-10-02T13:23:30+02:00</time>
      </trkpt>
      <trkpt lat="45.96989" lon="6.2976">
        <ele>969</ele>
        <time>2016-10-02T13:23:32+02:00</time>
      </trkpt>
      <trkpt lat="45.96989" lon="6.29756">
        <ele>966</ele>
        <time>2016-10-02T13:23:35+02:00</time>
      </trkpt>
      <trkpt lat="45.96988" lon="6.29753">
        <ele>964</ele>
        <time>2016-10-02T13:23:37+02:00</time>
      </trkpt>
      <trkpt lat="45.96988" lon="6.29749">
        <ele>962</ele>
        <time>2016-10-02T13:23:39+02:00</time>
      </trkpt>
      <trkpt lat="45.96987" lon="6.29745">
        <ele>960</ele>
        <time>2016-10-02T13:23:41+02:00</time>
      </trkpt>
      <trkpt lat="45.96987" lon="6.29742">
        <ele>958</ele>
        <time>2016-10-02T13:23:43+02:00</time>
      </trkpt>
      <trkpt lat="45.96986" lon="6.29737">
        <ele>956</ele>
        <time>2016-10-02T13:23:46+02:00</time>
      </trkpt>
      <trkpt lat="45.96986" lon="6.29733">
        <ele>953</ele>
        <time>2016-10-02T13:23:48+02:00</time>
      </trkpt>
      <trkpt lat="45.96986" lon="6.29729">
        <ele>951</ele>
        <time>2016-10-02T13:23:51+02:00</time>
      </trkpt>
      <trkpt lat="45.96986" lon="6.29724">
        <ele>949</ele>
        <time>2016-10-02T13:23:53+02:00</time>
      </trkpt>
      <trkpt lat="45.96987" lon="6.29719">
        <ele>948</ele>
        <time>2016-10-02T13:23:56+02:00</time>
      </trkpt>
      <trkpt lat="45.96987" lon="6.29715">
        <ele>946</ele>
        <time>2016-10-02T13:23:59+02:00</time>
      </trkpt>
      <trkpt lat="45.96988" lon="6.2971">
        <ele>944</ele>
        <time>2016-10-02T13:24:02+02:00</time>
      </trkpt>
      <trkpt lat="45.96989" lon="6.29705">
        <ele>943</ele>
        <time>2016-10-02T13:24:04+02:00</time>
      </trkpt>
      <trkpt lat="45.9699" lon="6.29701">
        <ele>941</ele>
        <time>2016-10-02T13:24:07+02:00</time>
      </trkpt>
      <trkpt lat="45.96991" lon="6.29697">
        <ele>940</ele>
        <time>2016-10-02T13:24:09+02:00</time>
      </trkpt>
      <trkpt lat="45.96992" lon="6.29693">
        <ele>938</ele>
        <time>2016-10-02T13:24:12+02:00</time>
      </trkpt>
      <trkpt lat="45.96993" lon="6.29688">
        <ele>937</ele>
        <time>2016-10-02T13:24:15+02:00</time>
      </trkpt>
      <trkpt lat="45.96994" lon="6.29682">
        <ele>935</ele>
        <time>2016-10-02T13:24:18+02:00</time>
      </trkpt>
      <trkpt lat="45.96995" lon="6.29678">
        <ele>933</ele>
        <time>2016-10-02T13:24:21+02:00</time>
      </trkpt>
      <trkpt lat="45.96997" lon="6.29673">
        <ele>932</ele>
        <time>2016-10-02T13:24:23+02:00</time>
      </trkpt>
      <trkpt lat="45.96998" lon="6.29669">
        <ele>930</ele>
        <time>2016-10-02T13:24:26+02:00</time>
      </trkpt>
      <trkpt lat="45.96999" lon="6.29664">
        <ele>929</ele>
        <time>2016-10-02T13:24:29+02:00</time>
      </trkpt>
      <trkpt lat="45.97" lon="6.2966">
        <ele>928</ele>
        <time>2016-10-02T13:24:31+02:00</time>
      </trkpt>
      <trkpt lat="45.97002" lon="6.29657">
        <ele>928</ele>
        <time>2016-10-02T13:24:33+02:00</time>
      </trkpt>
      <trkpt lat="45.97003" lon="6.29654">
        <ele>927</ele>
        <time>2016-10-02T13:24:35+02:00</time>
      </trkpt>
      <trkpt lat="45.97004" lon="6.29652">
        <ele>927</ele>
        <time>2016-10-02T13:24:36+02:00</time>
      </trkpt>
      <trkpt lat="45.97004" lon="6.29651">
        <ele>927</ele>
        <time>2016-10-02T13:24:38+02:00</time>
      </trkpt>
      <trkpt lat="45.97005" lon="6.29648">
        <ele>927</ele>
        <time>2016-10-02T13:24:39+02:00</time>
      </trkpt>
      <trkpt lat="45.97007" lon="6.29647">
        <ele>927</ele>
        <time>2016-10-02T13:24:40+02:00</time>
      </trkpt>
      <trkpt lat="45.97007" lon="6.29645">
        <ele>926</ele>
        <time>2016-10-02T13:24:42+02:00</time>
      </trkpt>
      <trkpt lat="45.97008" lon="6.29643">
        <ele>926</ele>
        <time>2016-10-02T13:24:43+02:00</time>
      </trkpt>
      <trkpt lat="45.97009" lon="6.29641">
        <ele>926</ele>
        <time>2016-10-02T13:24:44+02:00</time>
      </trkpt>
      <trkpt lat="45.9701" lon="6.29639">
        <ele>926</ele>
        <time>2016-10-02T13:24:46+02:00</time>
      </trkpt>
      <trkpt lat="45.97011" lon="6.29638">
        <ele>926</ele>
        <time>2016-10-02T13:24:47+02:00</time>
      </trkpt>
      <trkpt lat="45.97012" lon="6.29636">
        <ele>926</ele>
        <time>2016-10-02T13:24:48+02:00</time>
      </trkpt>
      <trkpt lat="45.97013" lon="6.29635">
        <ele>926</ele>
        <time>2016-10-02T13:24:49+02:00</time>
      </trkpt>
      <trkpt lat="45.97015" lon="6.29634">
        <ele>926</ele>
        <time>2016-10-02T13:24:50+02:00</time>
      </trkpt>
      <trkpt lat="45.97016" lon="6.29633">
        <ele>927</ele>
        <time>2016-10-02T13:24:52+02:00</time>
      </trkpt>
      <trkpt lat="45.97017" lon="6.29631">
        <ele>927</ele>
        <time>2016-10-02T13:24:53+02:00</time>
      </trkpt>
      <trkpt lat="45.97018" lon="6.2963">
        <ele>927</ele>
        <time>2016-10-02T13:24:54+02:00</time>
      </trkpt>
      <trkpt lat="45.97019" lon="6.29628">
        <ele>927</ele>
        <time>2016-10-02T13:24:56+02:00</time>
      </trkpt>
      <trkpt lat="45.9702" lon="6.29626">
        <ele>926</ele>
        <time>2016-10-02T13:24:57+02:00</time>
      </trkpt>
      <trkpt lat="45.97021" lon="6.29624">
        <ele>926</ele>
        <time>2016-10-02T13:24:58+02:00</time>
      </trkpt>
      <trkpt lat="45.97022" lon="6.29623">
        <ele>926</ele>
        <time>2016-10-02T13:24:59+02:00</time>
      </trkpt>
      <trkpt lat="45.97022" lon="6.29621">
        <ele>926</ele>
        <time>2016-10-02T13:25:00+02:00</time>
      </trkpt>
      <trkpt lat="45.97023" lon="6.2962">
        <ele>926</ele>
        <time>2016-10-02T13:25:01+02:00</time>
      </trkpt>
      <trkpt lat="45.97024" lon="6.29619">
        <ele>926</ele>
        <time>2016-10-02T13:25:03+02:00</time>
      </trkpt>
      <trkpt lat="45.97025" lon="6.29617">
        <ele>926</ele>
        <time>2016-10-02T13:25:04+02:00</time>
      </trkpt>
      <trkpt lat="45.97026" lon="6.29615">
        <ele>926</ele>
        <time>2016-10-02T13:25:05+02:00</time>
      </trkpt>
      <trkpt lat="45.97027" lon="6.29613">
        <ele>926</ele>
        <time>2016-10-02T13:25:06+02:00</time>
      </trkpt>
      <trkpt lat="45.97028" lon="6.29612">
        <ele>926</ele>
        <time>2016-10-02T13:25:08+02:00</time>
      </trkpt>
      <trkpt lat="45.9703" lon="6.2961">
        <ele>926</ele>
        <time>2016-10-02T13:25:09+02:00</time>
      </trkpt>
      <trkpt lat="45.9703" lon="6.29609">
        <ele>925</ele>
        <time>2016-10-02T13:25:10+02:00</time>
      </trkpt>
      <trkpt lat="45.97031" lon="6.29607">
        <ele>925</ele>
        <time>2016-10-02T13:25:12+02:00</time>
      </trkpt>
      <trkpt lat="45.97032" lon="6.29606">
        <ele>925</ele>
        <time>2016-10-02T13:25:13+02:00</time>
      </trkpt>
      <trkpt lat="45.97033" lon="6.29604">
        <ele>925</ele>
        <time>2016-10-02T13:25:14+02:00</time>
      </trkpt>
      <trkpt lat="45.97034" lon="6.29603">
        <ele>925</ele>
        <time>2016-10-02T13:25:15+02:00</time>
      </trkpt>
      <trkpt lat="45.97035" lon="6.29601">
        <ele>925</ele>
        <time>2016-10-02T13:25:16+02:00</time>
      </trkpt>
      <trkpt lat="45.97036" lon="6.296">
        <ele>925</ele>
        <time>2016-10-02T13:25:17+02:00</time>
      </trkpt>
      <trkpt lat="45.97037" lon="6.29599">
        <ele>925</ele>
        <time>2016-10-02T13:25:18+02:00</time>
      </trkpt>
      <trkpt lat="45.97038" lon="6.29598">
        <ele>925</ele>
        <time>2016-10-02T13:25:19+02:00</time>
      </trkpt>
      <trkpt lat="45.9704" lon="6.29596">
        <ele>925</ele>
        <time>2016-10-02T13:25:21+02:00</time>
      </trkpt>
      <trkpt lat="45.97041" lon="6.29595">
        <ele>925</ele>
        <time>2016-10-02T13:25:22+02:00</time>
      </trkpt>
      <trkpt lat="45.97042" lon="6.29593">
        <ele>925</ele>
        <time>2016-10-02T13:25:23+02:00</time>
      </trkpt>
      <trkpt lat="45.97043" lon="6.29592">
        <ele>925</ele>
        <time>2016-10-02T13:25:24+02:00</time>
      </trkpt>
      <trkpt lat="45.97044" lon="6.2959">
        <ele>925</ele>
        <time>2016-10-02T13:25:25+02:00</time>
      </trkpt>
      <trkpt lat="45.97045" lon="6.29589">
        <ele>925</ele>
        <time>2016-10-02T13:25:27+02:00</time>
      </trkpt>
      <trkpt lat="45.97046" lon="6.29588">
        <ele>926</ele>
        <time>2016-10-02T13:25:28+02:00</time>
      </trkpt>
      <trkpt lat="45.97047" lon="6.29587">
        <ele>926</ele>
        <time>2016-10-02T13:25:29+02:00</time>
      </trkpt>
      <trkpt lat="45.97048" lon="6.29586">
        <ele>926</ele>
        <time>2016-10-02T13:25:30+02:00</time>
      </trkpt>
      <trkpt lat="45.97049" lon="6.29586">
        <ele>927</ele>
        <time>2016-10-02T13:25:31+02:00</time>
      </trkpt>
      <trkpt lat="45.97051" lon="6.29585">
        <ele>927</ele>
        <time>2016-10-02T13:25:32+02:00</time>
      </trkpt>
      <trkpt lat="45.97052" lon="6.29585">
        <ele>928</ele>
        <time>2016-10-02T13:25:34+02:00</time>
      </trkpt>
      <trkpt lat="45.97053" lon="6.29584">
        <ele>929</ele>
        <time>2016-10-02T13:25:35+02:00</time>
      </trkpt>
      <trkpt lat="45.97055" lon="6.29584">
        <ele>929</ele>
        <time>2016-10-02T13:25:36+02:00</time>
      </trkpt>
      <trkpt lat="45.97056" lon="6.29583">
        <ele>930</ele>
        <time>2016-10-02T13:25:37+02:00</time>
      </trkpt>
      <trkpt lat="45.97057" lon="6.29582">
        <ele>930</ele>
        <time>2016-10-02T13:25:38+02:00</time>
      </trkpt>
      <trkpt lat="45.97058" lon="6.29582">
        <ele>930</ele>
        <time>2016-10-02T13:25:39+02:00</time>
      </trkpt>
      <trkpt lat="45.97059" lon="6.29581">
        <ele>931</ele>
        <time>2016-10-02T13:25:40+02:00</time>
      </trkpt>
      <trkpt lat="45.9706" lon="6.2958">
        <ele>931</ele>
        <time>2016-10-02T13:25:42+02:00</time>
      </trkpt>
      <trkpt lat="45.97062" lon="6.29579">
        <ele>932</ele>
        <time>2016-10-02T13:25:43+02:00</time>
      </trkpt>
      <trkpt lat="45.97063" lon="6.29578">
        <ele>932</ele>
        <time>2016-10-02T13:25:44+02:00</time>
      </trkpt>
      <trkpt lat="45.97064" lon="6.29577">
        <ele>932</ele>
        <time>2016-10-02T13:25:45+02:00</time>
      </trkpt>
      <trkpt lat="45.97065" lon="6.29576">
        <ele>932</ele>
        <time>2016-10-02T13:25:46+02:00</time>
      </trkpt>
      <trkpt lat="45.97066" lon="6.29575">
        <ele>932</ele>
        <time>2016-10-02T13:25:47+02:00</time>
      </trkpt>
      <trkpt lat="45.97067" lon="6.29573">
        <ele>933</ele>
        <time>2016-10-02T13:25:48+02:00</time>
      </trkpt>
      <trkpt lat="45.97068" lon="6.29572">
        <ele>932</ele>
        <time>2016-10-02T13:25:49+02:00</time>
      </trkpt>
      <trkpt lat="45.97069" lon="6.2957">
        <ele>933</ele>
        <time>2016-10-02T13:25:51+02:00</time>
      </trkpt>
      <trkpt lat="45.9707" lon="6.29568">
        <ele>932</ele>
        <time>2016-10-02T13:25:52+02:00</time>
      </trkpt>
      <trkpt lat="45.97071" lon="6.29566">
        <ele>932</ele>
        <time>2016-10-02T13:25:54+02:00</time>
      </trkpt>
      <trkpt lat="45.97072" lon="6.29564">
        <ele>932</ele>
        <time>2016-10-02T13:25:55+02:00</time>
      </trkpt>
      <trkpt lat="45.97074" lon="6.29562">
        <ele>932</ele>
        <time>2016-10-02T13:25:57+02:00</time>
      </trkpt>
      <trkpt lat="45.97075" lon="6.29561">
        <ele>932</ele>
        <time>2016-10-02T13:25:58+02:00</time>
      </trkpt>
      <trkpt lat="45.97076" lon="6.29559">
        <ele>932</ele>
        <time>2016-10-02T13:25:59+02:00</time>
      </trkpt>
      <trkpt lat="45.97077" lon="6.29557">
        <ele>932</ele>
        <time>2016-10-02T13:26:01+02:00</time>
      </trkpt>
      <trkpt lat="45.97078" lon="6.29557">
        <ele>932</ele>
        <time>2016-10-02T13:26:02+02:00</time>
      </trkpt>
      <trkpt lat="45.9708" lon="6.29556">
        <ele>933</ele>
        <time>2016-10-02T13:26:03+02:00</time>
      </trkpt>
      <trkpt lat="45.97081" lon="6.29555">
        <ele>933</ele>
        <time>2016-10-02T13:26:04+02:00</time>
      </trkpt>
      <trkpt lat="45.97083" lon="6.29554">
        <ele>934</ele>
        <time>2016-10-02T13:26:06+02:00</time>
      </trkpt>
      <trkpt lat="45.97084" lon="6.29553">
        <ele>934</ele>
        <time>2016-10-02T13:26:07+02:00</time>
      </trkpt>
      <trkpt lat="45.97085" lon="6.29551">
        <ele>934</ele>
        <time>2016-10-02T13:26:08+02:00</time>
      </trkpt>
      <trkpt lat="45.97086" lon="6.29551">
        <ele>934</ele>
        <time>2016-10-02T13:26:10+02:00</time>
      </trkpt>
      <trkpt lat="45.97088" lon="6.2955">
        <ele>935</ele>
        <time>2016-10-02T13:26:11+02:00</time>
      </trkpt>
      <trkpt lat="45.97089" lon="6.29549">
        <ele>935</ele>
        <time>2016-10-02T13:26:12+02:00</time>
      </trkpt>
      <trkpt lat="45.9709" lon="6.29548">
        <ele>936</ele>
        <time>2016-10-02T13:26:13+02:00</time>
      </trkpt>
      <trkpt lat="45.97091" lon="6.29548">
        <ele>936</ele>
        <time>2016-10-02T13:26:14+02:00</time>
      </trkpt>
      <trkpt lat="45.97092" lon="6.29547">
        <ele>936</ele>
        <time>2016-10-02T13:26:15+02:00</time>
      </trkpt>
      <trkpt lat="45.97094" lon="6.29546">
        <ele>937</ele>
        <time>2016-10-02T13:26:17+02:00</time>
      </trkpt>
      <trkpt lat="45.97096" lon="6.29546">
        <ele>938</ele>
        <time>2016-10-02T13:26:18+02:00</time>
      </trkpt>
      <trkpt lat="45.97097" lon="6.29547">
        <ele>939</ele>
        <time>2016-10-02T13:26:19+02:00</time>
      </trkpt>
      <trkpt lat="45.97098" lon="6.29548">
        <ele>940</ele>
        <time>2016-10-02T13:26:21+02:00</time>
      </trkpt>
      <trkpt lat="45.97099" lon="6.29551">
        <ele>942</ele>
        <time>2016-10-02T13:26:23+02:00</time>
      </trkpt>
      <trkpt lat="45.97098" lon="6.29553">
        <ele>942</ele>
        <time>2016-10-02T13:26:24+02:00</time>
      </trkpt>
      <trkpt lat="45.97097" lon="6.29555">
        <ele>943</ele>
        <time>2016-10-02T13:26:26+02:00</time>
      </trkpt>
      <trkpt lat="45.97096" lon="6.29557">
        <ele>943</ele>
        <time>2016-10-02T13:26:27+02:00</time>
      </trkpt>
      <trkpt lat="45.97094" lon="6.29559">
        <ele>943</ele>
        <time>2016-10-02T13:26:29+02:00</time>
      </trkpt>
      <trkpt lat="45.97094" lon="6.29561">
        <ele>944</ele>
        <time>2016-10-02T13:26:29+02:00</time>
      </trkpt>
      <trkpt lat="45.97093" lon="6.29562">
        <ele>944</ele>
        <time>2016-10-02T13:26:30+02:00</time>
      </trkpt>
      <trkpt lat="45.97093" lon="6.29564">
        <ele>945</ele>
        <time>2016-10-02T13:26:32+02:00</time>
      </trkpt>
      <trkpt lat="45.97092" lon="6.29566">
        <ele>945</ele>
        <time>2016-10-02T13:26:33+02:00</time>
      </trkpt>
      <trkpt lat="45.97092" lon="6.29568">
        <ele>946</ele>
        <time>2016-10-02T13:26:34+02:00</time>
      </trkpt>
      <trkpt lat="45.97092" lon="6.2957">
        <ele>947</ele>
        <time>2016-10-02T13:26:35+02:00</time>
      </trkpt>
      <trkpt lat="45.97091" lon="6.29572">
        <ele>947</ele>
        <time>2016-10-02T13:26:37+02:00</time>
      </trkpt>
      <trkpt lat="45.97091" lon="6.29575">
        <ele>948</ele>
        <time>2016-10-02T13:26:38+02:00</time>
      </trkpt>
      <trkpt lat="45.97091" lon="6.29577">
        <ele>950</ele>
        <time>2016-10-02T13:26:40+02:00</time>
      </trkpt>
      <trkpt lat="45.9709" lon="6.2958">
        <ele>951</ele>
        <time>2016-10-02T13:26:42+02:00</time>
      </trkpt>
      <trkpt lat="45.9709" lon="6.29582">
        <ele>951</ele>
        <time>2016-10-02T13:26:43+02:00</time>
      </trkpt>
      <trkpt lat="45.97089" lon="6.29584">
        <ele>952</ele>
        <time>2016-10-02T13:26:44+02:00</time>
      </trkpt>
      <trkpt lat="45.97088" lon="6.29587">
        <ele>953</ele>
        <time>2016-10-02T13:26:46+02:00</time>
      </trkpt>
      <trkpt lat="45.97087" lon="6.29589">
        <ele>953</ele>
        <time>2016-10-02T13:26:47+02:00</time>
      </trkpt>
      <trkpt lat="45.97086" lon="6.29591">
        <ele>954</ele>
        <time>2016-10-02T13:26:49+02:00</time>
      </trkpt>
      <trkpt lat="45.97085" lon="6.29593">
        <ele>954</ele>
        <time>2016-10-02T13:26:50+02:00</time>
      </trkpt>
      <trkpt lat="45.97084" lon="6.29594">
        <ele>955</ele>
        <time>2016-10-02T13:26:52+02:00</time>
      </trkpt>
      <trkpt lat="45.97083" lon="6.29596">
        <ele>955</ele>
        <time>2016-10-02T13:26:53+02:00</time>
      </trkpt>
      <trkpt lat="45.97082" lon="6.29598">
        <ele>955</ele>
        <time>2016-10-02T13:26:54+02:00</time>
      </trkpt>
      <trkpt lat="45.97081" lon="6.29599">
        <ele>956</ele>
        <time>2016-10-02T13:26:55+02:00</time>
      </trkpt>
      <trkpt lat="45.97081" lon="6.29601">
        <ele>956</ele>
        <time>2016-10-02T13:26:56+02:00</time>
      </trkpt>
      <trkpt lat="45.9708" lon="6.29602">
        <ele>956</ele>
        <time>2016-10-02T13:26:57+02:00</time>
      </trkpt>
      <trkpt lat="45.97079" lon="6.29604">
        <ele>956</ele>
        <time>2016-10-02T13:26:58+02:00</time>
      </trkpt>
      <trkpt lat="45.97078" lon="6.29606">
        <ele>957</ele>
        <time>2016-10-02T13:26:59+02:00</time>
      </trkpt>
      <trkpt lat="45.97077" lon="6.29608">
        <ele>957</ele>
        <time>2016-10-02T13:27:01+02:00</time>
      </trkpt>
      <trkpt lat="45.97077" lon="6.2961">
        <ele>958</ele>
        <time>2016-10-02T13:27:02+02:00</time>
      </trkpt>
      <trkpt lat="45.97076" lon="6.29611">
        <ele>958</ele>
        <time>2016-10-02T13:27:03+02:00</time>
      </trkpt>
      <trkpt lat="45.97075" lon="6.29612">
        <ele>958</ele>
        <time>2016-10-02T13:27:04+02:00</time>
      </trkpt>
      <trkpt lat="45.97073" lon="6.29613">
        <ele>958</ele>
        <time>2016-10-02T13:27:05+02:00</time>
      </trkpt>
      <trkpt lat="45.97072" lon="6.29614">
        <ele>957</ele>
        <time>2016-10-02T13:27:07+02:00</time>
      </trkpt>
      <trkpt lat="45.9707" lon="6.29616">
        <ele>957</ele>
        <time>2016-10-02T13:27:08+02:00</time>
      </trkpt>
      <trkpt lat="45.97069" lon="6.29617">
        <ele>957</ele>
        <time>2016-10-02T13:27:10+02:00</time>
      </trkpt>
      <trkpt lat="45.97069" lon="6.29619">
        <ele>957</ele>
        <time>2016-10-02T13:27:11+02:00</time>
      </trkpt>
      <trkpt lat="45.97068" lon="6.29621">
        <ele>958</ele>
        <time>2016-10-02T13:27:12+02:00</time>
      </trkpt>
      <trkpt lat="45.97068" lon="6.29623">
        <ele>959</ele>
        <time>2016-10-02T13:27:14+02:00</time>
      </trkpt>
      <trkpt lat="45.97067" lon="6.29625">
        <ele>959</ele>
        <time>2016-10-02T13:27:15+02:00</time>
      </trkpt>
      <trkpt lat="45.97067" lon="6.29627">
        <ele>960</ele>
        <time>2016-10-02T13:27:16+02:00</time>
      </trkpt>
      <trkpt lat="45.97067" lon="6.29628">
        <ele>961</ele>
        <time>2016-10-02T13:27:17+02:00</time>
      </trkpt>
      <trkpt lat="45.97067" lon="6.2963">
        <ele>962</ele>
        <time>2016-10-02T13:27:18+02:00</time>
      </trkpt>
      <trkpt lat="45.97067" lon="6.29632">
        <ele>963</ele>
        <time>2016-10-02T13:27:19+02:00</time>
      </trkpt>
      <trkpt lat="45.97067" lon="6.29633">
        <ele>964</ele>
        <time>2016-10-02T13:27:20+02:00</time>
      </trkpt>
      <trkpt lat="45.97066" lon="6.29635">
        <ele>964</ele>
        <time>2016-10-02T13:27:21+02:00</time>
      </trkpt>
      <trkpt lat="45.97066" lon="6.29637">
        <ele>965</ele>
        <time>2016-10-02T13:27:22+02:00</time>
      </trkpt>
      <trkpt lat="45.97065" lon="6.29639">
        <ele>965</ele>
        <time>2016-10-02T13:27:23+02:00</time>
      </trkpt>
      <trkpt lat="45.97065" lon="6.29641">
        <ele>966</ele>
        <time>2016-10-02T13:27:24+02:00</time>
      </trkpt>
      <trkpt lat="45.97064" lon="6.29643">
        <ele>967</ele>
        <time>2016-10-02T13:27:26+02:00</time>
      </trkpt>
      <trkpt lat="45.97064" lon="6.29645">
        <ele>968</ele>
        <time>2016-10-02T13:27:27+02:00</time>
      </trkpt>
      <trkpt lat="45.97063" lon="6.29648">
        <ele>969</ele>
        <time>2016-10-02T13:27:29+02:00</time>
      </trkpt>
      <trkpt lat="45.97062" lon="6.2965">
        <ele>969</ele>
        <time>2016-10-02T13:27:30+02:00</time>
      </trkpt>
      <trkpt lat="45.97062" lon="6.29653">
        <ele>971</ele>
        <time>2016-10-02T13:27:32+02:00</time>
      </trkpt>
      <trkpt lat="45.97062" lon="6.29655">
        <ele>972</ele>
        <time>2016-10-02T13:27:33+02:00</time>
      </trkpt>
      <trkpt lat="45.97062" lon="6.29658">
        <ele>973</ele>
        <time>2016-10-02T13:27:34+02:00</time>
      </trkpt>
      <trkpt lat="45.97062" lon="6.2966">
        <ele>974</ele>
        <time>2016-10-02T13:27:36+02:00</time>
      </trkpt>
      <trkpt lat="45.97063" lon="6.29662">
        <ele>976</ele>
        <time>2016-10-02T13:27:37+02:00</time>
      </trkpt>
      <trkpt lat="45.97064" lon="6.29664">
        <ele>978</ele>
        <time>2016-10-02T13:27:39+02:00</time>
      </trkpt>
      <trkpt lat="45.97064" lon="6.29667">
        <ele>980</ele>
        <time>2016-10-02T13:27:41+02:00</time>
      </trkpt>
      <trkpt lat="45.97064" lon="6.2967">
        <ele>982</ele>
        <time>2016-10-02T13:27:42+02:00</time>
      </trkpt>
      <trkpt lat="45.97064" lon="6.29673">
        <ele>983</ele>
        <time>2016-10-02T13:27:44+02:00</time>
      </trkpt>
      <trkpt lat="45.97063" lon="6.29675">
        <ele>984</ele>
        <time>2016-10-02T13:27:46+02:00</time>
      </trkpt>
      <trkpt lat="45.97064" lon="6.29677">
        <ele>986</ele>
        <time>2016-10-02T13:27:47+02:00</time>
      </trkpt>
      <trkpt lat="45.97065" lon="6.29679">
        <ele>988</ele>
        <time>2016-10-02T13:27:49+02:00</time>
      </trkpt>
      <trkpt lat="45.97066" lon="6.29681">
        <ele>990</ele>
        <time>2016-10-02T13:27:50+02:00</time>
      </trkpt>
      <trkpt lat="45.97066" lon="6.29683">
        <ele>991</ele>
        <time>2016-10-02T13:27:51+02:00</time>
      </trkpt>
      <trkpt lat="45.97065" lon="6.29685">
        <ele>992</ele>
        <time>2016-10-02T13:27:53+02:00</time>
      </trkpt>
      <trkpt lat="45.97065" lon="6.29687">
        <ele>993</ele>
        <time>2016-10-02T13:27:54+02:00</time>
      </trkpt>
      <trkpt lat="45.97064" lon="6.29689">
        <ele>994</ele>
        <time>2016-10-02T13:27:55+02:00</time>
      </trkpt>
      <trkpt lat="45.97063" lon="6.29691">
        <ele>994</ele>
        <time>2016-10-02T13:27:57+02:00</time>
      </trkpt>
      <trkpt lat="45.97062" lon="6.29693">
        <ele>995</ele>
        <time>2016-10-02T13:27:58+02:00</time>
      </trkpt>
      <trkpt lat="45.97061" lon="6.29695">
        <ele>995</ele>
        <time>2016-10-02T13:27:59+02:00</time>
      </trkpt>
      <trkpt lat="45.97061" lon="6.29697">
        <ele>996</ele>
        <time>2016-10-02T13:28:01+02:00</time>
      </trkpt>
      <trkpt lat="45.9706" lon="6.29699">
        <ele>997</ele>
        <time>2016-10-02T13:28:02+02:00</time>
      </trkpt>
      <trkpt lat="45.9706" lon="6.29701">
        <ele>998</ele>
        <time>2016-10-02T13:28:03+02:00</time>
      </trkpt>
      <trkpt lat="45.97059" lon="6.29703">
        <ele>999</ele>
        <time>2016-10-02T13:28:04+02:00</time>
      </trkpt>
      <trkpt lat="45.97059" lon="6.29705">
        <ele>1000</ele>
        <time>2016-10-02T13:28:05+02:00</time>
      </trkpt>
      <trkpt lat="45.97059" lon="6.29707">
        <ele>1000</ele>
        <time>2016-10-02T13:28:06+02:00</time>
      </trkpt>
      <trkpt lat="45.97058" lon="6.29708">
        <ele>1000</ele>
        <time>2016-10-02T13:28:08+02:00</time>
      </trkpt>
      <trkpt lat="45.97057" lon="6.2971">
        <ele>1001</ele>
        <time>2016-10-02T13:28:09+02:00</time>
      </trkpt>
      <trkpt lat="45.97056" lon="6.29712">
        <ele>1001</ele>
        <time>2016-10-02T13:28:10+02:00</time>
      </trkpt>
      <trkpt lat="45.97055" lon="6.29713">
        <ele>1002</ele>
        <time>2016-10-02T13:28:11+02:00</time>
      </trkpt>
      <trkpt lat="45.97054" lon="6.29715">
        <ele>1002</ele>
        <time>2016-10-02T13:28:12+02:00</time>
      </trkpt>
      <trkpt lat="45.97054" lon="6.29718">
        <ele>1003</ele>
        <time>2016-10-02T13:28:14+02:00</time>
      </trkpt>
      <trkpt lat="45.97053" lon="6.2972">
        <ele>1003</ele>
        <time>2016-10-02T13:28:15+02:00</time>
      </trkpt>
      <trkpt lat="45.97052" lon="6.29723">
        <ele>1005</ele>
        <time>2016-10-02T13:28:17+02:00</time>
      </trkpt>
      <trkpt lat="45.97052" lon="6.29725">
        <ele>1006</ele>
        <time>2016-10-02T13:28:18+02:00</time>
      </trkpt>
      <trkpt lat="45.97051" lon="6.29727">
        <ele>1007</ele>
        <time>2016-10-02T13:28:20+02:00</time>
      </trkpt>
      <trkpt lat="45.97051" lon="6.2973">
        <ele>1007</ele>
        <time>2016-10-02T13:28:21+02:00</time>
      </trkpt>
      <trkpt lat="45.9705" lon="6.29732">
        <ele>1008</ele>
        <time>2016-10-02T13:28:22+02:00</time>
      </trkpt>
      <trkpt lat="45.97049" lon="6.29734">
        <ele>1009</ele>
        <time>2016-10-02T13:28:24+02:00</time>
      </trkpt>
      <trkpt lat="45.97049" lon="6.29736">
        <ele>1009</ele>
        <time>2016-10-02T13:28:25+02:00</time>
      </trkpt>
      <trkpt lat="45.97048" lon="6.29737">
        <ele>1009</ele>
        <time>2016-10-02T13:28:26+02:00</time>
      </trkpt>
      <trkpt lat="45.97047" lon="6.29739">
        <ele>1009</ele>
        <time>2016-10-02T13:28:27+02:00</time>
      </trkpt>
      <trkpt lat="45.97046" lon="6.2974">
        <ele>1010</ele>
        <time>2016-10-02T13:28:28+02:00</time>
      </trkpt>
      <trkpt lat="45.97046" lon="6.29742">
        <ele>1010</ele>
        <time>2016-10-02T13:28:29+02:00</time>
      </trkpt>
      <trkpt lat="45.97046" lon="6.29744">
        <ele>1011</ele>
        <time>2016-10-02T13:28:30+02:00</time>
      </trkpt>
      <trkpt lat="45.97046" lon="6.29746">
        <ele>1012</ele>
        <time>2016-10-02T13:28:31+02:00</time>
      </trkpt>
      <trkpt lat="45.97045" lon="6.29748">
        <ele>1013</ele>
        <time>2016-10-02T13:28:33+02:00</time>
      </trkpt>
      <trkpt lat="45.97044" lon="6.29751">
        <ele>1013</ele>
        <time>2016-10-02T13:28:34+02:00</time>
      </trkpt>
      <trkpt lat="45.97043" lon="6.29753">
        <ele>1014</ele>
        <time>2016-10-02T13:28:36+02:00</time>
      </trkpt>
      <trkpt lat="45.97043" lon="6.29755">
        <ele>1015</ele>
        <time>2016-10-02T13:28:37+02:00</time>
      </trkpt>
      <trkpt lat="45.97045" lon="6.29756">
        <ele>1017</ele>
        <time>2016-10-02T13:28:38+02:00</time>
      </trkpt>
      <trkpt lat="45.97046" lon="6.29756">
        <ele>1018</ele>
        <time>2016-10-02T13:28:40+02:00</time>
      </trkpt>
      <trkpt lat="45.97047" lon="6.29754">
        <ele>1018</ele>
        <time>2016-10-02T13:28:41+02:00</time>
      </trkpt>
      <trkpt lat="45.97048" lon="6.29753">
        <ele>1018</ele>
        <time>2016-10-02T13:28:42+02:00</time>
      </trkpt>
      <trkpt lat="45.97048" lon="6.29751">
        <ele>1018</ele>
        <time>2016-10-02T13:28:43+02:00</time>
      </trkpt>
      <trkpt lat="45.97049" lon="6.29749">
        <ele>1017</ele>
        <time>2016-10-02T13:28:44+02:00</time>
      </trkpt>
      <trkpt lat="45.9705" lon="6.29748">
        <ele>1017</ele>
        <time>2016-10-02T13:28:45+02:00</time>
      </trkpt>
      <trkpt lat="45.97051" lon="6.29746">
        <ele>1017</ele>
        <time>2016-10-02T13:28:47+02:00</time>
      </trkpt>
      <trkpt lat="45.97052" lon="6.29745">
        <ele>1018</ele>
        <time>2016-10-02T13:28:48+02:00</time>
      </trkpt>
      <trkpt lat="45.97053" lon="6.29743">
        <ele>1017</ele>
        <time>2016-10-02T13:28:49+02:00</time>
      </trkpt>
      <trkpt lat="45.97054" lon="6.29742">
        <ele>1017</ele>
        <time>2016-10-02T13:28:50+02:00</time>
      </trkpt>
      <trkpt lat="45.97055" lon="6.2974">
        <ele>1017</ele>
        <time>2016-10-02T13:28:52+02:00</time>
      </trkpt>
      <trkpt lat="45.97056" lon="6.29738">
        <ele>1017</ele>
        <time>2016-10-02T13:28:53+02:00</time>
      </trkpt>
      <trkpt lat="45.97056" lon="6.29736">
        <ele>1017</ele>
        <time>2016-10-02T13:28:54+02:00</time>
      </trkpt>
      <trkpt lat="45.97057" lon="6.29735">
        <ele>1016</ele>
        <time>2016-10-02T13:28:55+02:00</time>
      </trkpt>
      <trkpt lat="45.97058" lon="6.29733">
        <ele>1016</ele>
        <time>2016-10-02T13:28:56+02:00</time>
      </trkpt>
      <trkpt lat="45.97059" lon="6.29731">
        <ele>1016</ele>
        <time>2016-10-02T13:28:57+02:00</time>
      </trkpt>
      <trkpt lat="45.97059" lon="6.2973">
        <ele>1015</ele>
        <time>2016-10-02T13:28:59+02:00</time>
      </trkpt>
      <trkpt lat="45.9706" lon="6.29728">
        <ele>1015</ele>
        <time>2016-10-02T13:29:00+02:00</time>
      </trkpt>
      <trkpt lat="45.97061" lon="6.29726">
        <ele>1014</ele>
        <time>2016-10-02T13:29:01+02:00</time>
      </trkpt>
      <trkpt lat="45.97062" lon="6.29725">
        <ele>1014</ele>
        <time>2016-10-02T13:29:02+02:00</time>
      </trkpt>
      <trkpt lat="45.97063" lon="6.29723">
        <ele>1014</ele>
        <time>2016-10-02T13:29:03+02:00</time>
      </trkpt>
      <trkpt lat="45.97064" lon="6.29722">
        <ele>1014</ele>
        <time>2016-10-02T13:29:04+02:00</time>
      </trkpt>
      <trkpt lat="45.97065" lon="6.29721">
        <ele>1014</ele>
        <time>2016-10-02T13:29:06+02:00</time>
      </trkpt>
      <trkpt lat="45.97066" lon="6.29719">
        <ele>1014</ele>
        <time>2016-10-02T13:29:07+02:00</time>
      </trkpt>
      <trkpt lat="45.97067" lon="6.29718">
        <ele>1014</ele>
        <time>2016-10-02T13:29:08+02:00</time>
      </trkpt>
      <trkpt lat="45.97068" lon="6.29716">
        <ele>1014</ele>
        <time>2016-10-02T13:29:09+02:00</time>
      </trkpt>
      <trkpt lat="45.97069" lon="6.29715">
        <ele>1014</ele>
        <time>2016-10-02T13:29:11+02:00</time>
      </trkpt>
      <trkpt lat="45.9707" lon="6.29713">
        <ele>1014</ele>
        <time>2016-10-02T13:29:12+02:00</time>
      </trkpt>
      <trkpt lat="45.97071" lon="6.29712">
        <ele>1015</ele>
        <time>2016-10-02T13:29:13+02:00</time>
      </trkpt>
      <trkpt lat="45.97072" lon="6.29711">
        <ele>1015</ele>
        <time>2016-10-02T13:29:15+02:00</time>
      </trkpt>
      <trkpt lat="45.97073" lon="6.29709">
        <ele>1014</ele>
        <time>2016-10-02T13:29:16+02:00</time>
      </trkpt>
      <trkpt lat="45.97074" lon="6.29708">
        <ele>1014</ele>
        <time>2016-10-02T13:29:17+02:00</time>
      </trkpt>
      <trkpt lat="45.97075" lon="6.29706">
        <ele>1014</ele>
        <time>2016-10-02T13:29:18+02:00</time>
      </trkpt>
      <trkpt lat="45.97077" lon="6.29705">
        <ele>1015</ele>
        <time>2016-10-02T13:29:20+02:00</time>
      </trkpt>
      <trkpt lat="45.97078" lon="6.29704">
        <ele>1015</ele>
        <time>2016-10-02T13:29:21+02:00</time>
      </trkpt>
      <trkpt lat="45.97079" lon="6.29702">
        <ele>1015</ele>
        <time>2016-10-02T13:29:23+02:00</time>
      </trkpt>
      <trkpt lat="45.97081" lon="6.297">
        <ele>1015</ele>
        <time>2016-10-02T13:29:24+02:00</time>
      </trkpt>
      <trkpt lat="45.97082" lon="6.29698">
        <ele>1014</ele>
        <time>2016-10-02T13:29:26+02:00</time>
      </trkpt>
      <trkpt lat="45.97082" lon="6.29696">
        <ele>1013</ele>
        <time>2016-10-02T13:29:27+02:00</time>
      </trkpt>
      <trkpt lat="45.97083" lon="6.29695">
        <ele>1013</ele>
        <time>2016-10-02T13:29:28+02:00</time>
      </trkpt>
      <trkpt lat="45.97084" lon="6.29694">
        <ele>1013</ele>
        <time>2016-10-02T13:29:29+02:00</time>
      </trkpt>
      <trkpt lat="45.97085" lon="6.29693">
        <ele>1014</ele>
        <time>2016-10-02T13:29:30+02:00</time>
      </trkpt>
      <trkpt lat="45.97087" lon="6.29694">
        <ele>1015</ele>
        <time>2016-10-02T13:29:32+02:00</time>
      </trkpt>
      <trkpt lat="45.97088" lon="6.29696">
        <ele>1017</ele>
        <time>2016-10-02T13:29:33+02:00</time>
      </trkpt>
      <trkpt lat="45.97089" lon="6.29698">
        <ele>1020</ele>
        <time>2016-10-02T13:29:35+02:00</time>
      </trkpt>
      <trkpt lat="45.9709" lon="6.29699">
        <ele>1021</ele>
        <time>2016-10-02T13:29:36+02:00</time>
      </trkpt>
      <trkpt lat="45.97091" lon="6.297">
        <ele>1023</ele>
        <time>2016-10-02T13:29:37+02:00</time>
      </trkpt>
      <trkpt lat="45.97091" lon="6.29703">
        <ele>1025</ele>
        <time>2016-10-02T13:29:39+02:00</time>
      </trkpt>
      <trkpt lat="45.97092" lon="6.29705">
        <ele>1027</ele>
        <time>2016-10-02T13:29:41+02:00</time>
      </trkpt>
      <trkpt lat="45.97092" lon="6.29707">
        <ele>1028</ele>
        <time>2016-10-02T13:29:42+02:00</time>
      </trkpt>
      <trkpt lat="45.97091" lon="6.2971">
        <ele>1030</ele>
        <time>2016-10-02T13:29:43+02:00</time>
      </trkpt>
      <trkpt lat="45.97091" lon="6.29711">
        <ele>1030</ele>
        <time>2016-10-02T13:29:44+02:00</time>
      </trkpt>
      <trkpt lat="45.9709" lon="6.29713">
        <ele>1031</ele>
        <time>2016-10-02T13:29:46+02:00</time>
      </trkpt>
      <trkpt lat="45.9709" lon="6.29715">
        <ele>1032</ele>
        <time>2016-10-02T13:29:47+02:00</time>
      </trkpt>
      <trkpt lat="45.97089" lon="6.29717">
        <ele>1033</ele>
        <time>2016-10-02T13:29:48+02:00</time>
      </trkpt>
      <trkpt lat="45.97089" lon="6.29718">
        <ele>1034</ele>
        <time>2016-10-02T13:29:49+02:00</time>
      </trkpt>
      <trkpt lat="45.97089" lon="6.2972">
        <ele>1035</ele>
        <time>2016-10-02T13:29:50+02:00</time>
      </trkpt>
      <trkpt lat="45.97088" lon="6.29722">
        <ele>1036</ele>
        <time>2016-10-02T13:29:51+02:00</time>
      </trkpt>
      <trkpt lat="45.97088" lon="6.29725">
        <ele>1037</ele>
        <time>2016-10-02T13:29:53+02:00</time>
      </trkpt>
      <trkpt lat="45.97087" lon="6.29727">
        <ele>1038</ele>
        <time>2016-10-02T13:29:54+02:00</time>
      </trkpt>
      <trkpt lat="45.97086" lon="6.29729">
        <ele>1039</ele>
        <time>2016-10-02T13:29:55+02:00</time>
      </trkpt>
      <trkpt lat="45.97086" lon="6.29731">
        <ele>1040</ele>
        <time>2016-10-02T13:29:56+02:00</time>
      </trkpt>
      <trkpt lat="45.97085" lon="6.29732">
        <ele>1040</ele>
        <time>2016-10-02T13:29:57+02:00</time>
      </trkpt>
      <trkpt lat="45.97085" lon="6.29734">
        <ele>1041</ele>
        <time>2016-10-02T13:29:58+02:00</time>
      </trkpt>
      <trkpt lat="45.97084" lon="6.29736">
        <ele>1042</ele>
        <time>2016-10-02T13:30:00+02:00</time>
      </trkpt>
      <trkpt lat="45.97083" lon="6.29738">
        <ele>1042</ele>
        <time>2016-10-02T13:30:01+02:00</time>
      </trkpt>
      <trkpt lat="45.97083" lon="6.29739">
        <ele>1043</ele>
        <time>2016-10-02T13:30:02+02:00</time>
      </trkpt>
      <trkpt lat="45.97083" lon="6.2974">
        <ele>1044</ele>
        <time>2016-10-02T13:30:02+02:00</time>
      </trkpt>
      <trkpt lat="45.97082" lon="6.29742">
        <ele>1044</ele>
        <time>2016-10-02T13:30:03+02:00</time>
      </trkpt>
      <trkpt lat="45.97081" lon="6.29744">
        <ele>1045</ele>
        <time>2016-10-02T13:30:04+02:00</time>
      </trkpt>
      <trkpt lat="45.97081" lon="6.29746">
        <ele>1046</ele>
        <time>2016-10-02T13:30:06+02:00</time>
      </trkpt>
      <trkpt lat="45.97081" lon="6.29748">
        <ele>1047</ele>
        <time>2016-10-02T13:30:07+02:00</time>
      </trkpt>
      <trkpt lat="45.9708" lon="6.2975">
        <ele>1048</ele>
        <time>2016-10-02T13:30:08+02:00</time>
      </trkpt>
      <trkpt lat="45.9708" lon="6.29752">
        <ele>1049</ele>
        <time>2016-10-02T13:30:09+02:00</time>
      </trkpt>
      <trkpt lat="45.9708" lon="6.29754">
        <ele>1050</ele>
        <time>2016-10-02T13:30:11+02:00</time>
      </trkpt>
      <trkpt lat="45.9708" lon="6.29757">
        <ele>1052</ele>
        <time>2016-10-02T13:30:12+02:00</time>
      </trkpt>
      <trkpt lat="45.97081" lon="6.29759">
        <ele>1053</ele>
        <time>2016-10-02T13:30:14+02:00</time>
      </trkpt>
      <trkpt lat="45.9708" lon="6.29762">
        <ele>1055</ele>
        <time>2016-10-02T13:30:16+02:00</time>
      </trkpt>
      <trkpt lat="45.9708" lon="6.29765">
        <ele>1056</ele>
        <time>2016-10-02T13:30:17+02:00</time>
      </trkpt>
      <trkpt lat="45.9708" lon="6.29767">
        <ele>1057</ele>
        <time>2016-10-02T13:30:18+02:00</time>
      </trkpt>
      <trkpt lat="45.9708" lon="6.2977">
        <ele>1058</ele>
        <time>2016-10-02T13:30:20+02:00</time>
      </trkpt>
      <trkpt lat="45.97079" lon="6.29772">
        <ele>1059</ele>
        <time>2016-10-02T13:30:21+02:00</time>
      </trkpt>
      <trkpt lat="45.9708" lon="6.2977">
        <ele>1059</ele>
        <time>2016-10-02T13:30:23+02:00</time>
      </trkpt>
      <trkpt lat="45.97081" lon="6.29769">
        <ele>1059</ele>
        <time>2016-10-02T13:30:24+02:00</time>
      </trkpt>
      <trkpt lat="45.97082" lon="6.29767">
        <ele>1059</ele>
        <time>2016-10-02T13:30:25+02:00</time>
      </trkpt>
      <trkpt lat="45.97083" lon="6.29766">
        <ele>1059</ele>
        <time>2016-10-02T13:30:26+02:00</time>
      </trkpt>
      <trkpt lat="45.97083" lon="6.29764">
        <ele>1059</ele>
        <time>2016-10-02T13:30:27+02:00</time>
      </trkpt>
      <trkpt lat="45.97084" lon="6.29763">
        <ele>1058</ele>
        <time>2016-10-02T13:30:28+02:00</time>
      </trkpt>
      <trkpt lat="45.97085" lon="6.29761">
        <ele>1058</ele>
        <time>2016-10-02T13:30:30+02:00</time>
      </trkpt>
      <trkpt lat="45.97086" lon="6.2976">
        <ele>1058</ele>
        <time>2016-10-02T13:30:31+02:00</time>
      </trkpt>
      <trkpt lat="45.97087" lon="6.29758">
        <ele>1058</ele>
        <time>2016-10-02T13:30:32+02:00</time>
      </trkpt>
      <trkpt lat="45.97087" lon="6.29757">
        <ele>1058</ele>
        <time>2016-10-02T13:30:33+02:00</time>
      </trkpt>
      <trkpt lat="45.97088" lon="6.29756">
        <ele>1058</ele>
        <time>2016-10-02T13:30:33+02:00</time>
      </trkpt>
      <trkpt lat="45.97088" lon="6.29755">
        <ele>1057</ele>
        <time>2016-10-02T13:30:35+02:00</time>
      </trkpt>
      <trkpt lat="45.97089" lon="6.29753">
        <ele>1057</ele>
        <time>2016-10-02T13:30:36+02:00</time>
      </trkpt>
      <trkpt lat="45.9709" lon="6.29751">
        <ele>1057</ele>
        <time>2016-10-02T13:30:37+02:00</time>
      </trkpt>
      <trkpt lat="45.9709" lon="6.29749">
        <ele>1056</ele>
        <time>2016-10-02T13:30:38+02:00</time>
      </trkpt>
      <trkpt lat="45.97091" lon="6.29748">
        <ele>1056</ele>
        <time>2016-10-02T13:30:39+02:00</time>
      </trkpt>
      <trkpt lat="45.97092" lon="6.29747">
        <ele>1055</ele>
        <time>2016-10-02T13:30:40+02:00</time>
      </trkpt>
      <trkpt lat="45.97093" lon="6.29745">
        <ele>1055</ele>
        <time>2016-10-02T13:30:41+02:00</time>
      </trkpt>
      <trkpt lat="45.97094" lon="6.29744">
        <ele>1055</ele>
        <time>2016-10-02T13:30:42+02:00</time>
      </trkpt>
      <trkpt lat="45.97094" lon="6.29743">
        <ele>1055</ele>
        <time>2016-10-02T13:30:43+02:00</time>
      </trkpt>
      <trkpt lat="45.97096" lon="6.29744">
        <ele>1057</ele>
        <time>2016-10-02T13:30:45+02:00</time>
      </trkpt>
      <trkpt lat="45.97097" lon="6.29745">
        <ele>1059</ele>
        <time>2016-10-02T13:30:46+02:00</time>
      </trkpt>
      <trkpt lat="45.97098" lon="6.29746">
        <ele>1060</ele>
        <time>2016-10-02T13:30:47+02:00</time>
      </trkpt>
      <trkpt lat="45.97098" lon="6.29748">
        <ele>1061</ele>
        <time>2016-10-02T13:30:48+02:00</time>
      </trkpt>
      <trkpt lat="45.97098" lon="6.2975">
        <ele>1062</ele>
        <time>2016-10-02T13:30:49+02:00</time>
      </trkpt>
      <trkpt lat="45.97098" lon="6.29751">
        <ele>1063</ele>
        <time>2016-10-02T13:30:50+02:00</time>
      </trkpt>
      <trkpt lat="45.97098" lon="6.29754">
        <ele>1065</ele>
        <time>2016-10-02T13:30:52+02:00</time>
      </trkpt>
      <trkpt lat="45.97097" lon="6.29756">
        <ele>1065</ele>
        <time>2016-10-02T13:30:53+02:00</time>
      </trkpt>
      <trkpt lat="45.97097" lon="6.29758">
        <ele>1066</ele>
        <time>2016-10-02T13:30:54+02:00</time>
      </trkpt>
      <trkpt lat="45.97097" lon="6.29761">
        <ele>1068</ele>
        <time>2016-10-02T13:30:56+02:00</time>
      </trkpt>
      <trkpt lat="45.97097" lon="6.29764">
        <ele>1070</ele>
        <time>2016-10-02T13:30:57+02:00</time>
      </trkpt>
      <trkpt lat="45.97098" lon="6.29766">
        <ele>1072</ele>
        <time>2016-10-02T13:30:59+02:00</time>
      </trkpt>
      <trkpt lat="45.97098" lon="6.29769">
        <ele>1073</ele>
        <time>2016-10-02T13:31:00+02:00</time>
      </trkpt>
      <trkpt lat="45.97098" lon="6.29772">
        <ele>1074</ele>
        <time>2016-10-02T13:31:02+02:00</time>
      </trkpt>
      <trkpt lat="45.97097" lon="6.29776">
        <ele>1076</ele>
        <time>2016-10-02T13:31:04+02:00</time>
      </trkpt>
      <trkpt lat="45.97096" lon="6.29779">
        <ele>1077</ele>
        <time>2016-10-02T13:31:06+02:00</time>
      </trkpt>
      <trkpt lat="45.97096" lon="6.29782">
        <ele>1078</ele>
        <time>2016-10-02T13:31:08+02:00</time>
      </trkpt>
      <trkpt lat="45.97096" lon="6.29784">
        <ele>1080</ele>
        <time>2016-10-02T13:31:09+02:00</time>
      </trkpt>
      <trkpt lat="45.97097" lon="6.29786">
        <ele>1081</ele>
        <time>2016-10-02T13:31:11+02:00</time>
      </trkpt>
      <trkpt lat="45.97098" lon="6.29788">
        <ele>1083</ele>
        <time>2016-10-02T13:31:12+02:00</time>
      </trkpt>
      <trkpt lat="45.97098" lon="6.2979">
        <ele>1084</ele>
        <time>2016-10-02T13:31:13+02:00</time>
      </trkpt>
      <trkpt lat="45.97098" lon="6.29792">
        <ele>1085</ele>
        <time>2016-10-02T13:31:14+02:00</time>
      </trkpt>
      <trkpt lat="45.971" lon="6.29793">
        <ele>1088</ele>
        <time>2016-10-02T13:31:16+02:00</time>
      </trkpt>
      <trkpt lat="45.97101" lon="6.29792">
        <ele>1088</ele>
        <time>2016-10-02T13:31:18+02:00</time>
      </trkpt>
      <trkpt lat="45.97102" lon="6.29791">
        <ele>1088</ele>
        <time>2016-10-02T13:31:19+02:00</time>
      </trkpt>
      <trkpt lat="45.97102" lon="6.29789">
        <ele>1087</ele>
        <time>2016-10-02T13:31:20+02:00</time>
      </trkpt>
      <trkpt lat="45.97102" lon="6.29786">
        <ele>1086</ele>
        <time>2016-10-02T13:31:22+02:00</time>
      </trkpt>
      <trkpt lat="45.97103" lon="6.29784">
        <ele>1085</ele>
        <time>2016-10-02T13:31:23+02:00</time>
      </trkpt>
      <trkpt lat="45.97103" lon="6.29783">
        <ele>1084</ele>
        <time>2016-10-02T13:31:24+02:00</time>
      </trkpt>
      <trkpt lat="45.97103" lon="6.29781">
        <ele>1083</ele>
        <time>2016-10-02T13:31:25+02:00</time>
      </trkpt>
      <trkpt lat="45.97104" lon="6.29779">
        <ele>1083</ele>
        <time>2016-10-02T13:31:26+02:00</time>
      </trkpt>
      <trkpt lat="45.97104" lon="6.29777">
        <ele>1082</ele>
        <time>2016-10-02T13:31:28+02:00</time>
      </trkpt>
      <trkpt lat="45.97104" lon="6.29775">
        <ele>1081</ele>
        <time>2016-10-02T13:31:29+02:00</time>
      </trkpt>
      <trkpt lat="45.97105" lon="6.29773">
        <ele>1080</ele>
        <time>2016-10-02T13:31:30+02:00</time>
      </trkpt>
      <trkpt lat="45.97105" lon="6.29771">
        <ele>1079</ele>
        <time>2016-10-02T13:31:32+02:00</time>
      </trkpt>
      <trkpt lat="45.97105" lon="6.29769">
        <ele>1078</ele>
        <time>2016-10-02T13:31:33+02:00</time>
      </trkpt>
      <trkpt lat="45.97106" lon="6.29766">
        <ele>1077</ele>
        <time>2016-10-02T13:31:34+02:00</time>
      </trkpt>
      <trkpt lat="45.97106" lon="6.29764">
        <ele>1076</ele>
        <time>2016-10-02T13:31:36+02:00</time>
      </trkpt>
      <trkpt lat="45.97107" lon="6.29761">
        <ele>1075</ele>
        <time>2016-10-02T13:31:37+02:00</time>
      </trkpt>
      <trkpt lat="45.97107" lon="6.29759">
        <ele>1074</ele>
        <time>2016-10-02T13:31:39+02:00</time>
      </trkpt>
      <trkpt lat="45.97108" lon="6.29756">
        <ele>1074</ele>
        <time>2016-10-02T13:31:40+02:00</time>
      </trkpt>
      <trkpt lat="45.97108" lon="6.29754">
        <ele>1073</ele>
        <time>2016-10-02T13:31:42+02:00</time>
      </trkpt>
      <trkpt lat="45.97109" lon="6.29752">
        <ele>1072</ele>
        <time>2016-10-02T13:31:43+02:00</time>
      </trkpt>
      <trkpt lat="45.97109" lon="6.2975">
        <ele>1071</ele>
        <time>2016-10-02T13:31:44+02:00</time>
      </trkpt>
      <trkpt lat="45.9711" lon="6.29748">
        <ele>1071</ele>
        <time>2016-10-02T13:31:45+02:00</time>
      </trkpt>
      <trkpt lat="45.97111" lon="6.29746">
        <ele>1070</ele>
        <time>2016-10-02T13:31:47+02:00</time>
      </trkpt>
      <trkpt lat="45.97112" lon="6.29744">
        <ele>1070</ele>
        <time>2016-10-02T13:31:48+02:00</time>
      </trkpt>
      <trkpt lat="45.97113" lon="6.29743">
        <ele>1069</ele>
        <time>2016-10-02T13:31:49+02:00</time>
      </trkpt>
      <trkpt lat="45.97114" lon="6.29741">
        <ele>1069</ele>
        <time>2016-10-02T13:31:51+02:00</time>
      </trkpt>
      <trkpt lat="45.97115" lon="6.29739">
        <ele>1068</ele>
        <time>2016-10-02T13:31:52+02:00</time>
      </trkpt>
      <trkpt lat="45.97115" lon="6.29737">
        <ele>1067</ele>
        <time>2016-10-02T13:31:53+02:00</time>
      </trkpt>
      <trkpt lat="45.97116" lon="6.29735">
        <ele>1066</ele>
        <time>2016-10-02T13:31:55+02:00</time>
      </trkpt>
      <trkpt lat="45.97117" lon="6.29733">
        <ele>1066</ele>
        <time>2016-10-02T13:31:56+02:00</time>
      </trkpt>
      <trkpt lat="45.97118" lon="6.29732">
        <ele>1065</ele>
        <time>2016-10-02T13:31:57+02:00</time>
      </trkpt>
      <trkpt lat="45.97119" lon="6.2973">
        <ele>1065</ele>
        <time>2016-10-02T13:31:58+02:00</time>
      </trkpt>
      <trkpt lat="45.9712" lon="6.29729">
        <ele>1066</ele>
        <time>2016-10-02T13:32:00+02:00</time>
      </trkpt>
      <trkpt lat="45.97121" lon="6.29728">
        <ele>1065</ele>
        <time>2016-10-02T13:32:01+02:00</time>
      </trkpt>
      <trkpt lat="45.97122" lon="6.29726">
        <ele>1065</ele>
        <time>2016-10-02T13:32:02+02:00</time>
      </trkpt>
      <trkpt lat="45.97123" lon="6.29723">
        <ele>1064</ele>
        <time>2016-10-02T13:32:04+02:00</time>
      </trkpt>
      <trkpt lat="45.97124" lon="6.29721">
        <ele>1063</ele>
        <time>2016-10-02T13:32:05+02:00</time>
      </trkpt>
      <trkpt lat="45.97124" lon="6.29718">
        <ele>1061</ele>
        <time>2016-10-02T13:32:07+02:00</time>
      </trkpt>
      <trkpt lat="45.97124" lon="6.29716">
        <ele>1060</ele>
        <time>2016-10-02T13:32:08+02:00</time>
      </trkpt>
      <trkpt lat="45.97124" lon="6.29714">
        <ele>1059</ele>
        <time>2016-10-02T13:32:09+02:00</time>
      </trkpt>
      <trkpt lat="45.97125" lon="6.29713">
        <ele>1058</ele>
        <time>2016-10-02T13:32:10+02:00</time>
      </trkpt>
      <trkpt lat="45.97125" lon="6.29712">
        <ele>1057</ele>
        <time>2016-10-02T13:32:11+02:00</time>
      </trkpt>
      <trkpt lat="45.97126" lon="6.2971">
        <ele>1057</ele>
        <time>2016-10-02T13:32:12+02:00</time>
      </trkpt>
      <trkpt lat="45.97127" lon="6.29708">
        <ele>1056</ele>
        <time>2016-10-02T13:32:14+02:00</time>
      </trkpt>
      <trkpt lat="45.97128" lon="6.29706">
        <ele>1055</ele>
        <time>2016-10-02T13:32:15+02:00</time>
      </trkpt>
      <trkpt lat="45.97129" lon="6.29704">
        <ele>1055</ele>
        <time>2016-10-02T13:32:17+02:00</time>
      </trkpt>
      <trkpt lat="45.97129" lon="6.29702">
        <ele>1054</ele>
        <time>2016-10-02T13:32:18+02:00</time>
      </trkpt>
      <trkpt lat="45.9713" lon="6.297">
        <ele>1053</ele>
        <time>2016-10-02T13:32:19+02:00</time>
      </trkpt>
      <trkpt lat="45.9713" lon="6.29698">
        <ele>1052</ele>
        <time>2016-10-02T13:32:20+02:00</time>
      </trkpt>
      <trkpt lat="45.9713" lon="6.29696">
        <ele>1050</ele>
        <time>2016-10-02T13:32:21+02:00</time>
      </trkpt>
      <trkpt lat="45.97131" lon="6.29694">
        <ele>1049</ele>
        <time>2016-10-02T13:32:22+02:00</time>
      </trkpt>
      <trkpt lat="45.97131" lon="6.29693">
        <ele>1049</ele>
        <time>2016-10-02T13:32:23+02:00</time>
      </trkpt>
      <trkpt lat="45.97131" lon="6.29691">
        <ele>1048</ele>
        <time>2016-10-02T13:32:24+02:00</time>
      </trkpt>
      <trkpt lat="45.97132" lon="6.29689">
        <ele>1047</ele>
        <time>2016-10-02T13:32:25+02:00</time>
      </trkpt>
      <trkpt lat="45.97132" lon="6.29687">
        <ele>1045</ele>
        <time>2016-10-02T13:32:27+02:00</time>
      </trkpt>
      <trkpt lat="45.97132" lon="6.29685">
        <ele>1044</ele>
        <time>2016-10-02T13:32:28+02:00</time>
      </trkpt>
      <trkpt lat="45.97132" lon="6.29683">
        <ele>1043</ele>
        <time>2016-10-02T13:32:29+02:00</time>
      </trkpt>
      <trkpt lat="45.97134" lon="6.2968">
        <ele>1042</ele>
        <time>2016-10-02T13:32:31+02:00</time>
      </trkpt>
      <trkpt lat="45.97135" lon="6.29679">
        <ele>1042</ele>
        <time>2016-10-02T13:32:32+02:00</time>
      </trkpt>
      <trkpt lat="45.97136" lon="6.29677">
        <ele>1042</ele>
        <time>2016-10-02T13:32:34+02:00</time>
      </trkpt>
      <trkpt lat="45.97137" lon="6.29676">
        <ele>1042</ele>
        <time>2016-10-02T13:32:35+02:00</time>
      </trkpt>
      <trkpt lat="45.97138" lon="6.29674">
        <ele>1041</ele>
        <time>2016-10-02T13:32:36+02:00</time>
      </trkpt>
      <trkpt lat="45.97139" lon="6.29672">
        <ele>1040</ele>
        <time>2016-10-02T13:32:38+02:00</time>
      </trkpt>
      <trkpt lat="45.97141" lon="6.29669">
        <ele>1040</ele>
        <time>2016-10-02T13:32:40+02:00</time>
      </trkpt>
      <trkpt lat="45.97142" lon="6.29666">
        <ele>1039</ele>
        <time>2016-10-02T13:32:41+02:00</time>
      </trkpt>
      <trkpt lat="45.97144" lon="6.29665">
        <ele>1039</ele>
        <time>2016-10-02T13:32:43+02:00</time>
      </trkpt>
      <trkpt lat="45.97145" lon="6.29663">
        <ele>1039</ele>
        <time>2016-10-02T13:32:44+02:00</time>
      </trkpt>
      <trkpt lat="45.97146" lon="6.29662">
        <ele>1039</ele>
        <time>2016-10-02T13:32:46+02:00</time>
      </trkpt>
      <trkpt lat="45.97147" lon="6.29661">
        <ele>1039</ele>
        <time>2016-10-02T13:32:47+02:00</time>
      </trkpt>
      <trkpt lat="45.97149" lon="6.29659">
        <ele>1039</ele>
        <time>2016-10-02T13:32:49+02:00</time>
      </trkpt>
      <trkpt lat="45.9715" lon="6.29657">
        <ele>1039</ele>
        <time>2016-10-02T13:32:50+02:00</time>
      </trkpt>
      <trkpt lat="45.97151" lon="6.29655">
        <ele>1038</ele>
        <time>2016-10-02T13:32:52+02:00</time>
      </trkpt>
      <trkpt lat="45.97152" lon="6.29653">
        <ele>1038</ele>
        <time>2016-10-02T13:32:53+02:00</time>
      </trkpt>
      <trkpt lat="45.97153" lon="6.29652">
        <ele>1037</ele>
        <time>2016-10-02T13:32:54+02:00</time>
      </trkpt>
      <trkpt lat="45.97154" lon="6.2965">
        <ele>1037</ele>
        <time>2016-10-02T13:32:56+02:00</time>
      </trkpt>
      <trkpt lat="45.97155" lon="6.29648">
        <ele>1036</ele>
        <time>2016-10-02T13:32:57+02:00</time>
      </trkpt>
      <trkpt lat="45.97156" lon="6.29647">
        <ele>1036</ele>
        <time>2016-10-02T13:32:58+02:00</time>
      </trkpt>
      <trkpt lat="45.97157" lon="6.29646">
        <ele>1036</ele>
        <time>2016-10-02T13:32:59+02:00</time>
      </trkpt>
      <trkpt lat="45.97158" lon="6.29644">
        <ele>1035</ele>
        <time>2016-10-02T13:33:00+02:00</time>
      </trkpt>
      <trkpt lat="45.97158" lon="6.29643">
        <ele>1035</ele>
        <time>2016-10-02T13:33:01+02:00</time>
      </trkpt>
      <trkpt lat="45.97159" lon="6.29642">
        <ele>1034</ele>
        <time>2016-10-02T13:33:02+02:00</time>
      </trkpt>
      <trkpt lat="45.9716" lon="6.2964">
        <ele>1034</ele>
        <time>2016-10-02T13:33:03+02:00</time>
      </trkpt>
      <trkpt lat="45.9716" lon="6.29642">
        <ele>1035</ele>
        <time>2016-10-02T13:33:04+02:00</time>
      </trkpt>
      <trkpt lat="45.97159" lon="6.29644">
        <ele>1036</ele>
        <time>2016-10-02T13:33:05+02:00</time>
      </trkpt>
      <trkpt lat="45.97158" lon="6.29645">
        <ele>1036</ele>
        <time>2016-10-02T13:33:06+02:00</time>
      </trkpt>
      <trkpt lat="45.97158" lon="6.29647">
        <ele>1037</ele>
        <time>2016-10-02T13:33:07+02:00</time>
      </trkpt>
      <trkpt lat="45.97157" lon="6.29649">
        <ele>1038</ele>
        <time>2016-10-02T13:33:09+02:00</time>
      </trkpt>
      <trkpt lat="45.97156" lon="6.29651">
        <ele>1039</ele>
        <time>2016-10-02T13:33:10+02:00</time>
      </trkpt>
      <trkpt lat="45.97155" lon="6.29652">
        <ele>1039</ele>
        <time>2016-10-02T13:33:11+02:00</time>
      </trkpt>
      <trkpt lat="45.97155" lon="6.29653">
        <ele>1040</ele>
        <time>2016-10-02T13:33:12+02:00</time>
      </trkpt>
      <trkpt lat="45.97155" lon="6.29655">
        <ele>1041</ele>
        <time>2016-10-02T13:33:13+02:00</time>
      </trkpt>
      <trkpt lat="45.97154" lon="6.29658">
        <ele>1042</ele>
        <time>2016-10-02T13:33:15+02:00</time>
      </trkpt>
      <trkpt lat="45.97155" lon="6.2966">
        <ele>1044</ele>
        <time>2016-10-02T13:33:16+02:00</time>
      </trkpt>
      <trkpt lat="45.97155" lon="6.29661">
        <ele>1045</ele>
        <time>2016-10-02T13:33:17+02:00</time>
      </trkpt>
      <trkpt lat="45.97154" lon="6.29664">
        <ele>1046</ele>
        <time>2016-10-02T13:33:18+02:00</time>
      </trkpt>
      <trkpt lat="45.97153" lon="6.29666">
        <ele>1048</ele>
        <time>2016-10-02T13:33:20+02:00</time>
      </trkpt>
      <trkpt lat="45.97153" lon="6.29668">
        <ele>1048</ele>
        <time>2016-10-02T13:33:21+02:00</time>
      </trkpt>
      <trkpt lat="45.97153" lon="6.29669">
        <ele>1049</ele>
        <time>2016-10-02T13:33:22+02:00</time>
      </trkpt>
      <trkpt lat="45.97152" lon="6.29671">
        <ele>1050</ele>
        <time>2016-10-02T13:33:23+02:00</time>
      </trkpt>
      <trkpt lat="45.97152" lon="6.29673">
        <ele>1051</ele>
        <time>2016-10-02T13:33:24+02:00</time>
      </trkpt>
      <trkpt lat="45.97152" lon="6.29675">
        <ele>1052</ele>
        <time>2016-10-02T13:33:25+02:00</time>
      </trkpt>
      <trkpt lat="45.97152" lon="6.29676">
        <ele>1053</ele>
        <time>2016-10-02T13:33:26+02:00</time>
      </trkpt>
      <trkpt lat="45.97151" lon="6.29679">
        <ele>1055</ele>
        <time>2016-10-02T13:33:28+02:00</time>
      </trkpt>
      <trkpt lat="45.97152" lon="6.29681">
        <ele>1056</ele>
        <time>2016-10-02T13:33:29+02:00</time>
      </trkpt>
      <trkpt lat="45.97152" lon="6.29682">
        <ele>1057</ele>
        <time>2016-10-02T13:33:30+02:00</time>
      </trkpt>
      <trkpt lat="45.97152" lon="6.29684">
        <ele>1059</ele>
        <time>2016-10-02T13:33:31+02:00</time>
      </trkpt>
      <trkpt lat="45.97152" lon="6.29686">
        <ele>1060</ele>
        <time>2016-10-02T13:33:32+02:00</time>
      </trkpt>
      <trkpt lat="45.97153" lon="6.29688">
        <ele>1062</ele>
        <time>2016-10-02T13:33:34+02:00</time>
      </trkpt>
      <trkpt lat="45.97153" lon="6.2969">
        <ele>1064</ele>
        <time>2016-10-02T13:33:35+02:00</time>
      </trkpt>
      <trkpt lat="45.97154" lon="6.29692">
        <ele>1066</ele>
        <time>2016-10-02T13:33:36+02:00</time>
      </trkpt>
      <trkpt lat="45.97154" lon="6.29693">
        <ele>1067</ele>
        <time>2016-10-02T13:33:38+02:00</time>
      </trkpt>
      <trkpt lat="45.97155" lon="6.29696">
        <ele>1069</ele>
        <time>2016-10-02T13:33:39+02:00</time>
      </trkpt>
      <trkpt lat="45.97155" lon="6.29698">
        <ele>1070</ele>
        <time>2016-10-02T13:33:40+02:00</time>
      </trkpt>
      <trkpt lat="45.97154" lon="6.297">
        <ele>1072</ele>
        <time>2016-10-02T13:33:42+02:00</time>
      </trkpt>
      <trkpt lat="45.97154" lon="6.29702">
        <ele>1073</ele>
        <time>2016-10-02T13:33:43+02:00</time>
      </trkpt>
      <trkpt lat="45.97154" lon="6.29705">
        <ele>1075</ele>
        <time>2016-10-02T13:33:44+02:00</time>
      </trkpt>
      <trkpt lat="45.97154" lon="6.29707">
        <ele>1077</ele>
        <time>2016-10-02T13:33:46+02:00</time>
      </trkpt>
      <trkpt lat="45.97154" lon="6.2971">
        <ele>1079</ele>
        <time>2016-10-02T13:33:48+02:00</time>
      </trkpt>
      <trkpt lat="45.97154" lon="6.29713">
        <ele>1081</ele>
        <time>2016-10-02T13:33:49+02:00</time>
      </trkpt>
      <trkpt lat="45.97154" lon="6.29715">
        <ele>1083</ele>
        <time>2016-10-02T13:33:50+02:00</time>
      </trkpt>
      <trkpt lat="45.97155" lon="6.29717">
        <ele>1084</ele>
        <time>2016-10-02T13:33:52+02:00</time>
      </trkpt>
      <trkpt lat="45.97156" lon="6.29719">
        <ele>1087</ele>
        <time>2016-10-02T13:33:53+02:00</time>
      </trkpt>
      <trkpt lat="45.97156" lon="6.29722">
        <ele>1088</ele>
        <time>2016-10-02T13:33:55+02:00</time>
      </trkpt>
      <trkpt lat="45.97156" lon="6.29724">
        <ele>1090</ele>
        <time>2016-10-02T13:33:56+02:00</time>
      </trkpt>
      <trkpt lat="45.97156" lon="6.29726">
        <ele>1092</ele>
        <time>2016-10-02T13:33:57+02:00</time>
      </trkpt>
      <trkpt lat="45.97156" lon="6.29728">
        <ele>1093</ele>
        <time>2016-10-02T13:33:59+02:00</time>
      </trkpt>
      <trkpt lat="45.97156" lon="6.2973">
        <ele>1094</ele>
        <time>2016-10-02T13:34:00+02:00</time>
      </trkpt>
      <trkpt lat="45.97156" lon="6.29732">
        <ele>1095</ele>
        <time>2016-10-02T13:34:01+02:00</time>
      </trkpt>
      <trkpt lat="45.97156" lon="6.29734">
        <ele>1097</ele>
        <time>2016-10-02T13:34:02+02:00</time>
      </trkpt>
      <trkpt lat="45.97155" lon="6.29736">
        <ele>1098</ele>
        <time>2016-10-02T13:34:03+02:00</time>
      </trkpt>
      <trkpt lat="45.97155" lon="6.29739">
        <ele>1100</ele>
        <time>2016-10-02T13:34:05+02:00</time>
      </trkpt>
      <trkpt lat="45.97154" lon="6.29741">
        <ele>1101</ele>
        <time>2016-10-02T13:34:06+02:00</time>
      </trkpt>
      <trkpt lat="45.97154" lon="6.29743">
        <ele>1103</ele>
        <time>2016-10-02T13:34:08+02:00</time>
      </trkpt>
      <trkpt lat="45.97154" lon="6.29745">
        <ele>1104</ele>
        <time>2016-10-02T13:34:09+02:00</time>
      </trkpt>
      <trkpt lat="45.97154" lon="6.29747">
        <ele>1105</ele>
        <time>2016-10-02T13:34:10+02:00</time>
      </trkpt>
      <trkpt lat="45.97154" lon="6.29749">
        <ele>1106</ele>
        <time>2016-10-02T13:34:11+02:00</time>
      </trkpt>
      <trkpt lat="45.97154" lon="6.29751">
        <ele>1107</ele>
        <time>2016-10-02T13:34:12+02:00</time>
      </trkpt>
      <trkpt lat="45.97154" lon="6.29753">
        <ele>1108</ele>
        <time>2016-10-02T13:34:13+02:00</time>
      </trkpt>
      <trkpt lat="45.97154" lon="6.29754">
        <ele>1109</ele>
        <time>2016-10-02T13:34:14+02:00</time>
      </trkpt>
      <trkpt lat="45.97154" lon="6.29756">
        <ele>1110</ele>
        <time>2016-10-02T13:34:15+02:00</time>
      </trkpt>
      <trkpt lat="45.97154" lon="6.29758">
        <ele>1111</ele>
        <time>2016-10-02T13:34:16+02:00</time>
      </trkpt>
      <trkpt lat="45.97154" lon="6.29761">
        <ele>1113</ele>
        <time>2016-10-02T13:34:18+02:00</time>
      </trkpt>
      <trkpt lat="45.97154" lon="6.29763">
        <ele>1114</ele>
        <time>2016-10-02T13:34:19+02:00</time>
      </trkpt>
      <trkpt lat="45.97153" lon="6.29765">
        <ele>1114</ele>
        <time>2016-10-02T13:34:21+02:00</time>
      </trkpt>
      <trkpt lat="45.97153" lon="6.29767">
        <ele>1115</ele>
        <time>2016-10-02T13:34:22+02:00</time>
      </trkpt>
      <trkpt lat="45.97153" lon="6.29769">
        <ele>1116</ele>
        <time>2016-10-02T13:34:23+02:00</time>
      </trkpt>
      <trkpt lat="45.97153" lon="6.29772">
        <ele>1117</ele>
        <time>2016-10-02T13:34:25+02:00</time>
      </trkpt>
      <trkpt lat="45.97153" lon="6.29774">
        <ele>1119</ele>
        <time>2016-10-02T13:34:26+02:00</time>
      </trkpt>
      <trkpt lat="45.97154" lon="6.29776">
        <ele>1120</ele>
        <time>2016-10-02T13:34:28+02:00</time>
      </trkpt>
      <trkpt lat="45.97155" lon="6.29778">
        <ele>1122</ele>
        <time>2016-10-02T13:34:29+02:00</time>
      </trkpt>
      <trkpt lat="45.97155" lon="6.29779">
        <ele>1123</ele>
        <time>2016-10-02T13:34:30+02:00</time>
      </trkpt>
      <trkpt lat="45.97156" lon="6.29781">
        <ele>1124</ele>
        <time>2016-10-02T13:34:31+02:00</time>
      </trkpt>
      <trkpt lat="45.97157" lon="6.29782">
        <ele>1125</ele>
        <time>2016-10-02T13:34:32+02:00</time>
      </trkpt>
      <trkpt lat="45.97157" lon="6.29784">
        <ele>1127</ele>
        <time>2016-10-02T13:34:34+02:00</time>
      </trkpt>
      <trkpt lat="45.97158" lon="6.29786">
        <ele>1128</ele>
        <time>2016-10-02T13:34:35+02:00</time>
      </trkpt>
      <trkpt lat="45.97158" lon="6.29788">
        <ele>1129</ele>
        <time>2016-10-02T13:34:36+02:00</time>
      </trkpt>
      <trkpt lat="45.97158" lon="6.2979">
        <ele>1130</ele>
        <time>2016-10-02T13:34:37+02:00</time>
      </trkpt>
      <trkpt lat="45.97158" lon="6.29791">
        <ele>1131</ele>
        <time>2016-10-02T13:34:38+02:00</time>
      </trkpt>
      <trkpt lat="45.97158" lon="6.29793">
        <ele>1132</ele>
        <time>2016-10-02T13:34:39+02:00</time>
      </trkpt>
      <trkpt lat="45.97159" lon="6.29795">
        <ele>1134</ele>
        <time>2016-10-02T13:34:41+02:00</time>
      </trkpt>
      <trkpt lat="45.97159" lon="6.29797">
        <ele>1135</ele>
        <time>2016-10-02T13:34:42+02:00</time>
      </trkpt>
      <trkpt lat="45.9716" lon="6.29799">
        <ele>1136</ele>
        <time>2016-10-02T13:34:43+02:00</time>
      </trkpt>
      <trkpt lat="45.9716" lon="6.29801">
        <ele>1137</ele>
        <time>2016-10-02T13:34:44+02:00</time>
      </trkpt>
      <trkpt lat="45.9716" lon="6.29803">
        <ele>1139</ele>
        <time>2016-10-02T13:34:46+02:00</time>
      </trkpt>
      <trkpt lat="45.97161" lon="6.29805">
        <ele>1140</ele>
        <time>2016-10-02T13:34:47+02:00</time>
      </trkpt>
      <trkpt lat="45.97161" lon="6.29807">
        <ele>1142</ele>
        <time>2016-10-02T13:34:48+02:00</time>
      </trkpt>
      <trkpt lat="45.97162" lon="6.29809">
        <ele>1143</ele>
        <time>2016-10-02T13:34:50+02:00</time>
      </trkpt>
      <trkpt lat="45.97161" lon="6.29811">
        <ele>1144</ele>
        <time>2016-10-02T13:34:51+02:00</time>
      </trkpt>
      <trkpt lat="45.97161" lon="6.29813">
        <ele>1144</ele>
        <time>2016-10-02T13:34:52+02:00</time>
      </trkpt>
      <trkpt lat="45.97161" lon="6.29814">
        <ele>1145</ele>
        <time>2016-10-02T13:34:53+02:00</time>
      </trkpt>
      <trkpt lat="45.9716" lon="6.29816">
        <ele>1146</ele>
        <time>2016-10-02T13:34:54+02:00</time>
      </trkpt>
      <trkpt lat="45.9716" lon="6.29818">
        <ele>1146</ele>
        <time>2016-10-02T13:34:55+02:00</time>
      </trkpt>
      <trkpt lat="45.97161" lon="6.2982">
        <ele>1148</ele>
        <time>2016-10-02T13:34:56+02:00</time>
      </trkpt>
      <trkpt lat="45.97161" lon="6.29821">
        <ele>1149</ele>
        <time>2016-10-02T13:34:57+02:00</time>
      </trkpt>
      <trkpt lat="45.97162" lon="6.29822">
        <ele>1150</ele>
        <time>2016-10-02T13:34:58+02:00</time>
      </trkpt>
      <trkpt lat="45.97163" lon="6.29825">
        <ele>1152</ele>
        <time>2016-10-02T13:35:00+02:00</time>
      </trkpt>
      <trkpt lat="45.97163" lon="6.29826">
        <ele>1153</ele>
        <time>2016-10-02T13:35:01+02:00</time>
      </trkpt>
      <trkpt lat="45.97165" lon="6.29828">
        <ele>1155</ele>
        <time>2016-10-02T13:35:02+02:00</time>
      </trkpt>
      <trkpt lat="45.97166" lon="6.2983">
        <ele>1156</ele>
        <time>2016-10-02T13:35:04+02:00</time>
      </trkpt>
      <trkpt lat="45.97167" lon="6.29831">
        <ele>1157</ele>
        <time>2016-10-02T13:35:05+02:00</time>
      </trkpt>
      <trkpt lat="45.97167" lon="6.29832">
        <ele>1159</ele>
        <time>2016-10-02T13:35:06+02:00</time>
      </trkpt>
      <trkpt lat="45.97167" lon="6.29834">
        <ele>1159</ele>
        <time>2016-10-02T13:35:07+02:00</time>
      </trkpt>
      <trkpt lat="45.97167" lon="6.29835">
        <ele>1160</ele>
        <time>2016-10-02T13:35:08+02:00</time>
      </trkpt>
      <trkpt lat="45.97168" lon="6.29837">
        <ele>1161</ele>
        <time>2016-10-02T13:35:09+02:00</time>
      </trkpt>
      <trkpt lat="45.97168" lon="6.29838">
        <ele>1161</ele>
        <time>2016-10-02T13:35:10+02:00</time>
      </trkpt>
      <trkpt lat="45.97168" lon="6.2984">
        <ele>1162</ele>
        <time>2016-10-02T13:35:11+02:00</time>
      </trkpt>
      <trkpt lat="45.97168" lon="6.29842">
        <ele>1162</ele>
        <time>2016-10-02T13:35:12+02:00</time>
      </trkpt>
      <trkpt lat="45.97168" lon="6.29845">
        <ele>1163</ele>
        <time>2016-10-02T13:35:14+02:00</time>
      </trkpt>
      <trkpt lat="45.97168" lon="6.29847">
        <ele>1163</ele>
        <time>2016-10-02T13:35:15+02:00</time>
      </trkpt>
      <trkpt lat="45.97168" lon="6.29849">
        <ele>1164</ele>
        <time>2016-10-02T13:35:16+02:00</time>
      </trkpt>
      <trkpt lat="45.97167" lon="6.29851">
        <ele>1165</ele>
        <time>2016-10-02T13:35:18+02:00</time>
      </trkpt>
      <trkpt lat="45.97167" lon="6.29854">
        <ele>1166</ele>
        <time>2016-10-02T13:35:20+02:00</time>
      </trkpt>
      <trkpt lat="45.97167" lon="6.29858">
        <ele>1166</ele>
        <time>2016-10-02T13:35:22+02:00</time>
      </trkpt>
      <trkpt lat="45.97167" lon="6.29861">
        <ele>1167</ele>
        <time>2016-10-02T13:35:23+02:00</time>
      </trkpt>
      <trkpt lat="45.97167" lon="6.29863">
        <ele>1168</ele>
        <time>2016-10-02T13:35:25+02:00</time>
      </trkpt>
      <trkpt lat="45.97167" lon="6.29865">
        <ele>1169</ele>
        <time>2016-10-02T13:35:26+02:00</time>
      </trkpt>
      <trkpt lat="45.97167" lon="6.29867">
        <ele>1169</ele>
        <time>2016-10-02T13:35:26+02:00</time>
      </trkpt>
      <trkpt lat="45.97168" lon="6.29869">
        <ele>1170</ele>
        <time>2016-10-02T13:35:28+02:00</time>
      </trkpt>
      <trkpt lat="45.97169" lon="6.29869">
        <ele>1171</ele>
        <time>2016-10-02T13:35:29+02:00</time>
      </trkpt>
      <trkpt lat="45.97168" lon="6.29867">
        <ele>1170</ele>
        <time>2016-10-02T13:35:30+02:00</time>
      </trkpt>
      <trkpt lat="45.97169" lon="6.29865">
        <ele>1169</ele>
        <time>2016-10-02T13:35:31+02:00</time>
      </trkpt>
      <trkpt lat="45.9717" lon="6.29862">
        <ele>1169</ele>
        <time>2016-10-02T13:35:33+02:00</time>
      </trkpt>
      <trkpt lat="45.9717" lon="6.2986">
        <ele>1169</ele>
        <time>2016-10-02T13:35:34+02:00</time>
      </trkpt>
      <trkpt lat="45.97172" lon="6.29857">
        <ele>1169</ele>
        <time>2016-10-02T13:35:36+02:00</time>
      </trkpt>
      <trkpt lat="45.97172" lon="6.29856">
        <ele>1168</ele>
        <time>2016-10-02T13:35:37+02:00</time>
      </trkpt>
      <trkpt lat="45.97173" lon="6.29854">
        <ele>1168</ele>
        <time>2016-10-02T13:35:38+02:00</time>
      </trkpt>
      <trkpt lat="45.97173" lon="6.29853">
        <ele>1168</ele>
        <time>2016-10-02T13:35:39+02:00</time>
      </trkpt>
      <trkpt lat="45.97174" lon="6.2985">
        <ele>1167</ele>
        <time>2016-10-02T13:35:41+02:00</time>
      </trkpt>
      <trkpt lat="45.97174" lon="6.29848">
        <ele>1167</ele>
        <time>2016-10-02T13:35:42+02:00</time>
      </trkpt>
      <trkpt lat="45.97175" lon="6.29846">
        <ele>1167</ele>
        <time>2016-10-02T13:35:43+02:00</time>
      </trkpt>
      <trkpt lat="45.97175" lon="6.29845">
        <ele>1167</ele>
        <time>2016-10-02T13:35:44+02:00</time>
      </trkpt>
      <trkpt lat="45.97176" lon="6.29843">
        <ele>1166</ele>
        <time>2016-10-02T13:35:46+02:00</time>
      </trkpt>
      <trkpt lat="45.97176" lon="6.29841">
        <ele>1166</ele>
        <time>2016-10-02T13:35:47+02:00</time>
      </trkpt>
      <trkpt lat="45.97177" lon="6.29839">
        <ele>1165</ele>
        <time>2016-10-02T13:35:48+02:00</time>
      </trkpt>
      <trkpt lat="45.97177" lon="6.29837">
        <ele>1165</ele>
        <time>2016-10-02T13:35:49+02:00</time>
      </trkpt>
      <trkpt lat="45.97177" lon="6.29835">
        <ele>1165</ele>
        <time>2016-10-02T13:35:50+02:00</time>
      </trkpt>
      <trkpt lat="45.97178" lon="6.29833">
        <ele>1164</ele>
        <time>2016-10-02T13:35:52+02:00</time>
      </trkpt>
      <trkpt lat="45.97179" lon="6.29831">
        <ele>1163</ele>
        <time>2016-10-02T13:35:53+02:00</time>
      </trkpt>
      <trkpt lat="45.97179" lon="6.29829">
        <ele>1163</ele>
        <time>2016-10-02T13:35:54+02:00</time>
      </trkpt>
      <trkpt lat="45.9718" lon="6.29828">
        <ele>1162</ele>
        <time>2016-10-02T13:35:55+02:00</time>
      </trkpt>
      <trkpt lat="45.97181" lon="6.29826">
        <ele>1162</ele>
        <time>2016-10-02T13:35:57+02:00</time>
      </trkpt>
      <trkpt lat="45.97181" lon="6.29824">
        <ele>1161</ele>
        <time>2016-10-02T13:35:58+02:00</time>
      </trkpt>
      <trkpt lat="45.97181" lon="6.29823">
        <ele>1161</ele>
        <time>2016-10-02T13:35:59+02:00</time>
      </trkpt>
      <trkpt lat="45.97182" lon="6.29821">
        <ele>1160</ele>
        <time>2016-10-02T13:36:00+02:00</time>
      </trkpt>
      <trkpt lat="45.97182" lon="6.29818">
        <ele>1159</ele>
        <time>2016-10-02T13:36:01+02:00</time>
      </trkpt>
      <trkpt lat="45.97183" lon="6.29816">
        <ele>1158</ele>
        <time>2016-10-02T13:36:03+02:00</time>
      </trkpt>
      <trkpt lat="45.97183" lon="6.29813">
        <ele>1156</ele>
        <time>2016-10-02T13:36:05+02:00</time>
      </trkpt>
      <trkpt lat="45.97183" lon="6.29811">
        <ele>1156</ele>
        <time>2016-10-02T13:36:06+02:00</time>
      </trkpt>
      <trkpt lat="45.97183" lon="6.2981">
        <ele>1155</ele>
        <time>2016-10-02T13:36:07+02:00</time>
      </trkpt>
      <trkpt lat="45.97182" lon="6.29808">
        <ele>1154</ele>
        <time>2016-10-02T13:36:07+02:00</time>
      </trkpt>
      <trkpt lat="45.97183" lon="6.29807">
        <ele>1153</ele>
        <time>2016-10-02T13:36:08+02:00</time>
      </trkpt>
      <trkpt lat="45.97183" lon="6.29805">
        <ele>1152</ele>
        <time>2016-10-02T13:36:10+02:00</time>
      </trkpt>
      <trkpt lat="45.97183" lon="6.29803">
        <ele>1151</ele>
        <time>2016-10-02T13:36:11+02:00</time>
      </trkpt>
      <trkpt lat="45.97181" lon="6.29801">
        <ele>1150</ele>
        <time>2016-10-02T13:36:13+02:00</time>
      </trkpt>
      <trkpt lat="45.9718" lon="6.29799">
        <ele>1148</ele>
        <time>2016-10-02T13:36:15+02:00</time>
      </trkpt>
      <trkpt lat="45.97179" lon="6.29797">
        <ele>1147</ele>
        <time>2016-10-02T13:36:16+02:00</time>
      </trkpt>
      <trkpt lat="45.97179" lon="6.29795">
        <ele>1146</ele>
        <time>2016-10-02T13:36:17+02:00</time>
      </trkpt>
      <trkpt lat="45.97179" lon="6.29793">
        <ele>1145</ele>
        <time>2016-10-02T13:36:18+02:00</time>
      </trkpt>
      <trkpt lat="45.97179" lon="6.29791">
        <ele>1144</ele>
        <time>2016-10-02T13:36:19+02:00</time>
      </trkpt>
      <trkpt lat="45.9718" lon="6.29789">
        <ele>1143</ele>
        <time>2016-10-02T13:36:20+02:00</time>
      </trkpt>
      <trkpt lat="45.9718" lon="6.29787">
        <ele>1142</ele>
        <time>2016-10-02T13:36:22+02:00</time>
      </trkpt>
      <trkpt lat="45.9718" lon="6.29785">
        <ele>1141</ele>
        <time>2016-10-02T13:36:23+02:00</time>
      </trkpt>
      <trkpt lat="45.9718" lon="6.29783">
        <ele>1140</ele>
        <time>2016-10-02T13:36:24+02:00</time>
      </trkpt>
      <trkpt lat="45.97181" lon="6.29781">
        <ele>1140</ele>
        <time>2016-10-02T13:36:26+02:00</time>
      </trkpt>
      <trkpt lat="45.97182" lon="6.29779">
        <ele>1139</ele>
        <time>2016-10-02T13:36:27+02:00</time>
      </trkpt>
      <trkpt lat="45.97182" lon="6.29778">
        <ele>1138</ele>
        <time>2016-10-02T13:36:28+02:00</time>
      </trkpt>
      <trkpt lat="45.97182" lon="6.29776">
        <ele>1137</ele>
        <time>2016-10-02T13:36:29+02:00</time>
      </trkpt>
      <trkpt lat="45.97181" lon="6.29774">
        <ele>1136</ele>
        <time>2016-10-02T13:36:30+02:00</time>
      </trkpt>
      <trkpt lat="45.97182" lon="6.29773">
        <ele>1136</ele>
        <time>2016-10-02T13:36:31+02:00</time>
      </trkpt>
      <trkpt lat="45.97182" lon="6.29771">
        <ele>1135</ele>
        <time>2016-10-02T13:36:32+02:00</time>
      </trkpt>
      <trkpt lat="45.97183" lon="6.29769">
        <ele>1134</ele>
        <time>2016-10-02T13:36:33+02:00</time>
      </trkpt>
      <trkpt lat="45.97184" lon="6.29768">
        <ele>1134</ele>
        <time>2016-10-02T13:36:34+02:00</time>
      </trkpt>
      <trkpt lat="45.97184" lon="6.29766">
        <ele>1133</ele>
        <time>2016-10-02T13:36:35+02:00</time>
      </trkpt>
      <trkpt lat="45.97184" lon="6.29765">
        <ele>1133</ele>
        <time>2016-10-02T13:36:36+02:00</time>
      </trkpt>
      <trkpt lat="45.97184" lon="6.29763">
        <ele>1132</ele>
        <time>2016-10-02T13:36:37+02:00</time>
      </trkpt>
      <trkpt lat="45.97185" lon="6.29762">
        <ele>1131</ele>
        <time>2016-10-02T13:36:38+02:00</time>
      </trkpt>
      <trkpt lat="45.97184" lon="6.29759">
        <ele>1130</ele>
        <time>2016-10-02T13:36:40+02:00</time>
      </trkpt>
      <trkpt lat="45.97184" lon="6.29757">
        <ele>1129</ele>
        <time>2016-10-02T13:36:41+02:00</time>
      </trkpt>
      <trkpt lat="45.97184" lon="6.29755">
        <ele>1128</ele>
        <time>2016-10-02T13:36:42+02:00</time>
      </trkpt>
      <trkpt lat="45.97184" lon="6.29753">
        <ele>1127</ele>
        <time>2016-10-02T13:36:43+02:00</time>
      </trkpt>
      <trkpt lat="45.97185" lon="6.29752">
        <ele>1127</ele>
        <time>2016-10-02T13:36:44+02:00</time>
      </trkpt>
      <trkpt lat="45.97185" lon="6.2975">
        <ele>1126</ele>
        <time>2016-10-02T13:36:45+02:00</time>
      </trkpt>
      <trkpt lat="45.97186" lon="6.29747">
        <ele>1124</ele>
        <time>2016-10-02T13:36:47+02:00</time>
      </trkpt>
      <trkpt lat="45.97186" lon="6.29743">
        <ele>1122</ele>
        <time>2016-10-02T13:36:49+02:00</time>
      </trkpt>
      <trkpt lat="45.97186" lon="6.2974">
        <ele>1120</ele>
        <time>2016-10-02T13:36:50+02:00</time>
      </trkpt>
      <trkpt lat="45.97188" lon="6.29738">
        <ele>1119</ele>
        <time>2016-10-02T13:36:52+02:00</time>
      </trkpt>
      <trkpt lat="45.97189" lon="6.29736">
        <ele>1118</ele>
        <time>2016-10-02T13:36:54+02:00</time>
      </trkpt>
      <trkpt lat="45.97191" lon="6.29733">
        <ele>1117</ele>
        <time>2016-10-02T13:36:56+02:00</time>
      </trkpt>
      <trkpt lat="45.97192" lon="6.29731">
        <ele>1116</ele>
        <time>2016-10-02T13:36:58+02:00</time>
      </trkpt>
      <trkpt lat="45.97193" lon="6.29728">
        <ele>1114</ele>
        <time>2016-10-02T13:37:00+02:00</time>
      </trkpt>
      <trkpt lat="45.97194" lon="6.29725">
        <ele>1113</ele>
        <time>2016-10-02T13:37:01+02:00</time>
      </trkpt>
      <trkpt lat="45.97195" lon="6.29723">
        <ele>1112</ele>
        <time>2016-10-02T13:37:03+02:00</time>
      </trkpt>
      <trkpt lat="45.97196" lon="6.29721">
        <ele>1111</ele>
        <time>2016-10-02T13:37:04+02:00</time>
      </trkpt>
      <trkpt lat="45.97197" lon="6.2972">
        <ele>1110</ele>
        <time>2016-10-02T13:37:05+02:00</time>
      </trkpt>
      <trkpt lat="45.97198" lon="6.29718">
        <ele>1110</ele>
        <time>2016-10-02T13:37:06+02:00</time>
      </trkpt>
      <trkpt lat="45.97199" lon="6.29717">
        <ele>1110</ele>
        <time>2016-10-02T13:37:07+02:00</time>
      </trkpt>
      <trkpt lat="45.972" lon="6.29716">
        <ele>1109</ele>
        <time>2016-10-02T13:37:09+02:00</time>
      </trkpt>
      <trkpt lat="45.97201" lon="6.29715">
        <ele>1109</ele>
        <time>2016-10-02T13:37:10+02:00</time>
      </trkpt>
      <trkpt lat="45.97202" lon="6.29714">
        <ele>1109</ele>
        <time>2016-10-02T13:37:11+02:00</time>
      </trkpt>
      <trkpt lat="45.97204" lon="6.29712">
        <ele>1109</ele>
        <time>2016-10-02T13:37:13+02:00</time>
      </trkpt>
      <trkpt lat="45.97206" lon="6.29711">
        <ele>1109</ele>
        <time>2016-10-02T13:37:15+02:00</time>
      </trkpt>
      <trkpt lat="45.97208" lon="6.2971">
        <ele>1109</ele>
        <time>2016-10-02T13:37:17+02:00</time>
      </trkpt>
      <trkpt lat="45.97209" lon="6.29708">
        <ele>1109</ele>
        <time>2016-10-02T13:37:19+02:00</time>
      </trkpt>
      <trkpt lat="45.97211" lon="6.29707">
        <ele>1109</ele>
        <time>2016-10-02T13:37:20+02:00</time>
      </trkpt>
      <trkpt lat="45.97212" lon="6.29705">
        <ele>1108</ele>
        <time>2016-10-02T13:37:22+02:00</time>
      </trkpt>
      <trkpt lat="45.97214" lon="6.29704">
        <ele>1108</ele>
        <time>2016-10-02T13:37:23+02:00</time>
      </trkpt>
      <trkpt lat="45.97215" lon="6.29702">
        <ele>1107</ele>
        <time>2016-10-02T13:37:24+02:00</time>
      </trkpt>
      <trkpt lat="45.97216" lon="6.29701">
        <ele>1107</ele>
        <time>2016-10-02T13:37:26+02:00</time>
      </trkpt>
      <trkpt lat="45.97217" lon="6.297">
        <ele>1107</ele>
        <time>2016-10-02T13:37:27+02:00</time>
      </trkpt>
      <trkpt lat="45.97219" lon="6.29699">
        <ele>1107</ele>
        <time>2016-10-02T13:37:29+02:00</time>
      </trkpt>
      <trkpt lat="45.9722" lon="6.29698">
        <ele>1107</ele>
        <time>2016-10-02T13:37:30+02:00</time>
      </trkpt>
      <trkpt lat="45.97222" lon="6.29696">
        <ele>1107</ele>
        <time>2016-10-02T13:37:32+02:00</time>
      </trkpt>
      <trkpt lat="45.97223" lon="6.29694">
        <ele>1106</ele>
        <time>2016-10-02T13:37:33+02:00</time>
      </trkpt>
      <trkpt lat="45.97224" lon="6.29693">
        <ele>1106</ele>
        <time>2016-10-02T13:37:35+02:00</time>
      </trkpt>
      <trkpt lat="45.97226" lon="6.29691">
        <ele>1106</ele>
        <time>2016-10-02T13:37:36+02:00</time>
      </trkpt>
      <trkpt lat="45.97227" lon="6.2969">
        <ele>1106</ele>
        <time>2016-10-02T13:37:37+02:00</time>
      </trkpt>
      <trkpt lat="45.97228" lon="6.29689">
        <ele>1106</ele>
        <time>2016-10-02T13:37:38+02:00</time>
      </trkpt>
      <trkpt lat="45.9723" lon="6.29688">
        <ele>1106</ele>
        <time>2016-10-02T13:37:40+02:00</time>
      </trkpt>
      <trkpt lat="45.97231" lon="6.29688">
        <ele>1106</ele>
        <time>2016-10-02T13:37:41+02:00</time>
      </trkpt>
      <trkpt lat="45.97232" lon="6.29687">
        <ele>1106</ele>
        <time>2016-10-02T13:37:42+02:00</time>
      </trkpt>
      <trkpt lat="45.97233" lon="6.29686">
        <ele>1106</ele>
        <time>2016-10-02T13:37:43+02:00</time>
      </trkpt>
      <trkpt lat="45.97234" lon="6.29685">
        <ele>1106</ele>
        <time>2016-10-02T13:37:44+02:00</time>
      </trkpt>
      <trkpt lat="45.97235" lon="6.29684">
        <ele>1106</ele>
        <time>2016-10-02T13:37:45+02:00</time>
      </trkpt>
      <trkpt lat="45.97236" lon="6.29683">
        <ele>1106</ele>
        <time>2016-10-02T13:37:46+02:00</time>
      </trkpt>
      <trkpt lat="45.97238" lon="6.29683">
        <ele>1106</ele>
        <time>2016-10-02T13:37:48+02:00</time>
      </trkpt>
      <trkpt lat="45.97239" lon="6.29682">
        <ele>1106</ele>
        <time>2016-10-02T13:37:49+02:00</time>
      </trkpt>
      <trkpt lat="45.9724" lon="6.29681">
        <ele>1106</ele>
        <time>2016-10-02T13:37:50+02:00</time>
      </trkpt>
      <trkpt lat="45.97241" lon="6.2968">
        <ele>1106</ele>
        <time>2016-10-02T13:37:51+02:00</time>
      </trkpt>
      <trkpt lat="45.97242" lon="6.29678">
        <ele>1105</ele>
        <time>2016-10-02T13:37:53+02:00</time>
      </trkpt>
      <trkpt lat="45.97243" lon="6.29676">
        <ele>1105</ele>
        <time>2016-10-02T13:37:54+02:00</time>
      </trkpt>
      <trkpt lat="45.97245" lon="6.29674">
        <ele>1104</ele>
        <time>2016-10-02T13:37:56+02:00</time>
      </trkpt>
      <trkpt lat="45.97246" lon="6.29673">
        <ele>1104</ele>
        <time>2016-10-02T13:37:58+02:00</time>
      </trkpt>
      <trkpt lat="45.97248" lon="6.29671">
        <ele>1104</ele>
        <time>2016-10-02T13:37:59+02:00</time>
      </trkpt>
      <trkpt lat="45.9725" lon="6.29669">
        <ele>1103</ele>
        <time>2016-10-02T13:38:01+02:00</time>
      </trkpt>
      <trkpt lat="45.97251" lon="6.29668">
        <ele>1103</ele>
        <time>2016-10-02T13:38:03+02:00</time>
      </trkpt>
      <trkpt lat="45.97253" lon="6.29666">
        <ele>1102</ele>
        <time>2016-10-02T13:38:04+02:00</time>
      </trkpt>
      <trkpt lat="45.97254" lon="6.29664">
        <ele>1102</ele>
        <time>2016-10-02T13:38:05+02:00</time>
      </trkpt>
      <trkpt lat="45.97256" lon="6.29663">
        <ele>1101</ele>
        <time>2016-10-02T13:38:07+02:00</time>
      </trkpt>
      <trkpt lat="45.97257" lon="6.29661">
        <ele>1100</ele>
        <time>2016-10-02T13:38:09+02:00</time>
      </trkpt>
      <trkpt lat="45.97258" lon="6.29659">
        <ele>1100</ele>
        <time>2016-10-02T13:38:10+02:00</time>
      </trkpt>
      <trkpt lat="45.9726" lon="6.29659">
        <ele>1099</ele>
        <time>2016-10-02T13:38:11+02:00</time>
      </trkpt>
      <trkpt lat="45.97261" lon="6.29658">
        <ele>1099</ele>
        <time>2016-10-02T13:38:12+02:00</time>
      </trkpt>
      <trkpt lat="45.97262" lon="6.29656">
        <ele>1099</ele>
        <time>2016-10-02T13:38:14+02:00</time>
      </trkpt>
      <trkpt lat="45.97263" lon="6.29655">
        <ele>1099</ele>
        <time>2016-10-02T13:38:15+02:00</time>
      </trkpt>
      <trkpt lat="45.97265" lon="6.29655">
        <ele>1098</ele>
        <time>2016-10-02T13:38:16+02:00</time>
      </trkpt>
      <trkpt lat="45.97266" lon="6.29654">
        <ele>1098</ele>
        <time>2016-10-02T13:38:17+02:00</time>
      </trkpt>
      <trkpt lat="45.97267" lon="6.29653">
        <ele>1098</ele>
        <time>2016-10-02T13:38:18+02:00</time>
      </trkpt>
      <trkpt lat="45.97269" lon="6.29652">
        <ele>1098</ele>
        <time>2016-10-02T13:38:20+02:00</time>
      </trkpt>
      <trkpt lat="45.9727" lon="6.29651">
        <ele>1098</ele>
        <time>2016-10-02T13:38:21+02:00</time>
      </trkpt>
      <trkpt lat="45.97271" lon="6.29651">
        <ele>1098</ele>
        <time>2016-10-02T13:38:22+02:00</time>
      </trkpt>
      <trkpt lat="45.97273" lon="6.29651">
        <ele>1099</ele>
        <time>2016-10-02T13:38:24+02:00</time>
      </trkpt>
      <trkpt lat="45.97275" lon="6.2965">
        <ele>1099</ele>
        <time>2016-10-02T13:38:25+02:00</time>
      </trkpt>
      <trkpt lat="45.97276" lon="6.2965">
        <ele>1099</ele>
        <time>2016-10-02T13:38:27+02:00</time>
      </trkpt>
      <trkpt lat="45.97278" lon="6.29649">
        <ele>1099</ele>
        <time>2016-10-02T13:38:28+02:00</time>
      </trkpt>
      <trkpt lat="45.97279" lon="6.29649">
        <ele>1099</ele>
        <time>2016-10-02T13:38:29+02:00</time>
      </trkpt>
      <trkpt lat="45.9728" lon="6.29648">
        <ele>1099</ele>
        <time>2016-10-02T13:38:30+02:00</time>
      </trkpt>
      <trkpt lat="45.97282" lon="6.29647">
        <ele>1100</ele>
        <time>2016-10-02T13:38:31+02:00</time>
      </trkpt>
      <trkpt lat="45.97283" lon="6.29646">
        <ele>1100</ele>
        <time>2016-10-02T13:38:32+02:00</time>
      </trkpt>
      <trkpt lat="45.97284" lon="6.29646">
        <ele>1099</ele>
        <time>2016-10-02T13:38:33+02:00</time>
      </trkpt>
      <trkpt lat="45.97285" lon="6.29645">
        <ele>1099</ele>
        <time>2016-10-02T13:38:34+02:00</time>
      </trkpt>
      <trkpt lat="45.97286" lon="6.29644">
        <ele>1099</ele>
        <time>2016-10-02T13:38:35+02:00</time>
      </trkpt>
      <trkpt lat="45.97288" lon="6.29644">
        <ele>1100</ele>
        <time>2016-10-02T13:38:37+02:00</time>
      </trkpt>
      <trkpt lat="45.9729" lon="6.29643">
        <ele>1100</ele>
        <time>2016-10-02T13:38:38+02:00</time>
      </trkpt>
      <trkpt lat="45.97291" lon="6.29643">
        <ele>1100</ele>
        <time>2016-10-02T13:38:39+02:00</time>
      </trkpt>
      <trkpt lat="45.97292" lon="6.29642">
        <ele>1100</ele>
        <time>2016-10-02T13:38:40+02:00</time>
      </trkpt>
      <trkpt lat="45.97293" lon="6.29644">
        <ele>1101</ele>
        <time>2016-10-02T13:38:41+02:00</time>
      </trkpt>
      <trkpt lat="45.97293" lon="6.29646">
        <ele>1103</ele>
        <time>2016-10-02T13:38:43+02:00</time>
      </trkpt>
      <trkpt lat="45.97292" lon="6.29648">
        <ele>1104</ele>
        <time>2016-10-02T13:38:44+02:00</time>
      </trkpt>
      <trkpt lat="45.97292" lon="6.29649">
        <ele>1105</ele>
        <time>2016-10-02T13:38:46+02:00</time>
      </trkpt>
      <trkpt lat="45.97291" lon="6.29651">
        <ele>1106</ele>
        <time>2016-10-02T13:38:47+02:00</time>
      </trkpt>
      <trkpt lat="45.9729" lon="6.29653">
        <ele>1106</ele>
        <time>2016-10-02T13:38:48+02:00</time>
      </trkpt>
      <trkpt lat="45.97289" lon="6.29655">
        <ele>1108</ele>
        <time>2016-10-02T13:38:50+02:00</time>
      </trkpt>
      <trkpt lat="45.97288" lon="6.29656">
        <ele>1108</ele>
        <time>2016-10-02T13:38:51+02:00</time>
      </trkpt>
      <trkpt lat="45.97287" lon="6.29657">
        <ele>1109</ele>
        <time>2016-10-02T13:38:51+02:00</time>
      </trkpt>
      <trkpt lat="45.97287" lon="6.29658">
        <ele>1109</ele>
        <time>2016-10-02T13:38:52+02:00</time>
      </trkpt>
      <trkpt lat="45.97286" lon="6.2966">
        <ele>1109</ele>
        <time>2016-10-02T13:38:54+02:00</time>
      </trkpt>
      <trkpt lat="45.97285" lon="6.29661">
        <ele>1110</ele>
        <time>2016-10-02T13:38:55+02:00</time>
      </trkpt>
      <trkpt lat="45.97283" lon="6.29662">
        <ele>1111</ele>
        <time>2016-10-02T13:38:56+02:00</time>
      </trkpt>
      <trkpt lat="45.97282" lon="6.29664">
        <ele>1111</ele>
        <time>2016-10-02T13:38:57+02:00</time>
      </trkpt>
      <trkpt lat="45.97282" lon="6.29665">
        <ele>1112</ele>
        <time>2016-10-02T13:38:58+02:00</time>
      </trkpt>
      <trkpt lat="45.97281" lon="6.29668">
        <ele>1114</ele>
        <time>2016-10-02T13:39:00+02:00</time>
      </trkpt>
      <trkpt lat="45.97281" lon="6.29671">
        <ele>1115</ele>
        <time>2016-10-02T13:39:02+02:00</time>
      </trkpt>
      <trkpt lat="45.97281" lon="6.29672">
        <ele>1116</ele>
        <time>2016-10-02T13:39:03+02:00</time>
      </trkpt>
      <trkpt lat="45.9728" lon="6.29674">
        <ele>1117</ele>
        <time>2016-10-02T13:39:04+02:00</time>
      </trkpt>
      <trkpt lat="45.9728" lon="6.29676">
        <ele>1118</ele>
        <time>2016-10-02T13:39:05+02:00</time>
      </trkpt>
      <trkpt lat="45.9728" lon="6.29678">
        <ele>1119</ele>
        <time>2016-10-02T13:39:07+02:00</time>
      </trkpt>
      <trkpt lat="45.9728" lon="6.29679">
        <ele>1121</ele>
        <time>2016-10-02T13:39:08+02:00</time>
      </trkpt>
      <trkpt lat="45.97279" lon="6.29681">
        <ele>1122</ele>
        <time>2016-10-02T13:39:09+02:00</time>
      </trkpt>
      <trkpt lat="45.97278" lon="6.29683">
        <ele>1122</ele>
        <time>2016-10-02T13:39:10+02:00</time>
      </trkpt>
      <trkpt lat="45.97277" lon="6.29684">
        <ele>1123</ele>
        <time>2016-10-02T13:39:11+02:00</time>
      </trkpt>
      <trkpt lat="45.97277" lon="6.29686">
        <ele>1124</ele>
        <time>2016-10-02T13:39:12+02:00</time>
      </trkpt>
      <trkpt lat="45.97277" lon="6.29687">
        <ele>1125</ele>
        <time>2016-10-02T13:39:13+02:00</time>
      </trkpt>
      <trkpt lat="45.97276" lon="6.2969">
        <ele>1126</ele>
        <time>2016-10-02T13:39:15+02:00</time>
      </trkpt>
      <trkpt lat="45.97275" lon="6.29692">
        <ele>1127</ele>
        <time>2016-10-02T13:39:17+02:00</time>
      </trkpt>
      <trkpt lat="45.97274" lon="6.29694">
        <ele>1128</ele>
        <time>2016-10-02T13:39:18+02:00</time>
      </trkpt>
      <trkpt lat="45.97273" lon="6.29696">
        <ele>1129</ele>
        <time>2016-10-02T13:39:19+02:00</time>
      </trkpt>
      <trkpt lat="45.97272" lon="6.29697">
        <ele>1130</ele>
        <time>2016-10-02T13:39:20+02:00</time>
      </trkpt>
      <trkpt lat="45.97272" lon="6.29699">
        <ele>1130</ele>
        <time>2016-10-02T13:39:21+02:00</time>
      </trkpt>
      <trkpt lat="45.97271" lon="6.297">
        <ele>1131</ele>
        <time>2016-10-02T13:39:23+02:00</time>
      </trkpt>
      <trkpt lat="45.9727" lon="6.29702">
        <ele>1132</ele>
        <time>2016-10-02T13:39:24+02:00</time>
      </trkpt>
      <trkpt lat="45.9727" lon="6.29703">
        <ele>1133</ele>
        <time>2016-10-02T13:39:25+02:00</time>
      </trkpt>
      <trkpt lat="45.97269" lon="6.29705">
        <ele>1133</ele>
        <time>2016-10-02T13:39:26+02:00</time>
      </trkpt>
      <trkpt lat="45.97269" lon="6.29703">
        <ele>1133</ele>
        <time>2016-10-02T13:39:26+02:00</time>
      </trkpt>
      <trkpt lat="45.9727" lon="6.29702">
        <ele>1132</ele>
        <time>2016-10-02T13:39:27+02:00</time>
      </trkpt>
      <trkpt lat="45.97271" lon="6.29701">
        <ele>1132</ele>
        <time>2016-10-02T13:39:29+02:00</time>
      </trkpt>
      <trkpt lat="45.97272" lon="6.297">
        <ele>1131</ele>
        <time>2016-10-02T13:39:30+02:00</time>
      </trkpt>
      <trkpt lat="45.97274" lon="6.29698">
        <ele>1131</ele>
        <time>2016-10-02T13:39:31+02:00</time>
      </trkpt>
      <trkpt lat="45.97275" lon="6.29697">
        <ele>1130</ele>
        <time>2016-10-02T13:39:33+02:00</time>
      </trkpt>
      <trkpt lat="45.97276" lon="6.29696">
        <ele>1130</ele>
        <time>2016-10-02T13:39:34+02:00</time>
      </trkpt>
      <trkpt lat="45.97278" lon="6.29695">
        <ele>1130</ele>
        <time>2016-10-02T13:39:36+02:00</time>
      </trkpt>
      <trkpt lat="45.97279" lon="6.29694">
        <ele>1130</ele>
        <time>2016-10-02T13:39:37+02:00</time>
      </trkpt>
      <trkpt lat="45.9728" lon="6.29693">
        <ele>1130</ele>
        <time>2016-10-02T13:39:38+02:00</time>
      </trkpt>
      <trkpt lat="45.97282" lon="6.29692">
        <ele>1130</ele>
        <time>2016-10-02T13:39:39+02:00</time>
      </trkpt>
      <trkpt lat="45.97283" lon="6.29691">
        <ele>1130</ele>
        <time>2016-10-02T13:39:40+02:00</time>
      </trkpt>
      <trkpt lat="45.97285" lon="6.29691">
        <ele>1130</ele>
        <time>2016-10-02T13:39:42+02:00</time>
      </trkpt>
      <trkpt lat="45.97287" lon="6.2969">
        <ele>1130</ele>
        <time>2016-10-02T13:39:43+02:00</time>
      </trkpt>
      <trkpt lat="45.97288" lon="6.29689">
        <ele>1130</ele>
        <time>2016-10-02T13:39:45+02:00</time>
      </trkpt>
      <trkpt lat="45.97289" lon="6.29688">
        <ele>1130</ele>
        <time>2016-10-02T13:39:46+02:00</time>
      </trkpt>
      <trkpt lat="45.97291" lon="6.29688">
        <ele>1130</ele>
        <time>2016-10-02T13:39:47+02:00</time>
      </trkpt>
      <trkpt lat="45.97292" lon="6.29688">
        <ele>1131</ele>
        <time>2016-10-02T13:39:48+02:00</time>
      </trkpt>
      <trkpt lat="45.97291" lon="6.2969">
        <ele>1131</ele>
        <time>2016-10-02T13:39:50+02:00</time>
      </trkpt>
      <trkpt lat="45.9729" lon="6.29691">
        <ele>1132</ele>
        <time>2016-10-02T13:39:51+02:00</time>
      </trkpt>
      <trkpt lat="45.97289" lon="6.29692">
        <ele>1132</ele>
        <time>2016-10-02T13:39:52+02:00</time>
      </trkpt>
      <trkpt lat="45.97289" lon="6.29693">
        <ele>1133</ele>
        <time>2016-10-02T13:39:53+02:00</time>
      </trkpt>
      <trkpt lat="45.97288" lon="6.29695">
        <ele>1133</ele>
        <time>2016-10-02T13:39:53+02:00</time>
      </trkpt>
      <trkpt lat="45.97287" lon="6.29696">
        <ele>1134</ele>
        <time>2016-10-02T13:39:54+02:00</time>
      </trkpt>
      <trkpt lat="45.97286" lon="6.29697">
        <ele>1135</ele>
        <time>2016-10-02T13:39:55+02:00</time>
      </trkpt>
      <trkpt lat="45.97285" lon="6.29699">
        <ele>1135</ele>
        <time>2016-10-02T13:39:56+02:00</time>
      </trkpt>
      <trkpt lat="45.97285" lon="6.297">
        <ele>1136</ele>
        <time>2016-10-02T13:39:58+02:00</time>
      </trkpt>
      <trkpt lat="45.97284" lon="6.29703">
        <ele>1137</ele>
        <time>2016-10-02T13:39:59+02:00</time>
      </trkpt>
      <trkpt lat="45.97283" lon="6.29704">
        <ele>1138</ele>
        <time>2016-10-02T13:40:00+02:00</time>
      </trkpt>
      <trkpt lat="45.97282" lon="6.29705">
        <ele>1138</ele>
        <time>2016-10-02T13:40:01+02:00</time>
      </trkpt>
      <trkpt lat="45.97281" lon="6.29707">
        <ele>1139</ele>
        <time>2016-10-02T13:40:02+02:00</time>
      </trkpt>
      <trkpt lat="45.97281" lon="6.29708">
        <ele>1139</ele>
        <time>2016-10-02T13:40:03+02:00</time>
      </trkpt>
      <trkpt lat="45.9728" lon="6.29709">
        <ele>1140</ele>
        <time>2016-10-02T13:40:04+02:00</time>
      </trkpt>
      <trkpt lat="45.97278" lon="6.29711">
        <ele>1141</ele>
        <time>2016-10-02T13:40:06+02:00</time>
      </trkpt>
      <trkpt lat="45.97278" lon="6.29713">
        <ele>1142</ele>
        <time>2016-10-02T13:40:07+02:00</time>
      </trkpt>
      <trkpt lat="45.97277" lon="6.29715">
        <ele>1143</ele>
        <time>2016-10-02T13:40:08+02:00</time>
      </trkpt>
      <trkpt lat="45.97277" lon="6.29717">
        <ele>1144</ele>
        <time>2016-10-02T13:40:09+02:00</time>
      </trkpt>
      <trkpt lat="45.97277" lon="6.29719">
        <ele>1145</ele>
        <time>2016-10-02T13:40:11+02:00</time>
      </trkpt>
      <trkpt lat="45.97276" lon="6.2972">
        <ele>1146</ele>
        <time>2016-10-02T13:40:12+02:00</time>
      </trkpt>
      <trkpt lat="45.97275" lon="6.29722">
        <ele>1147</ele>
        <time>2016-10-02T13:40:13+02:00</time>
      </trkpt>
      <trkpt lat="45.97274" lon="6.29724">
        <ele>1148</ele>
        <time>2016-10-02T13:40:15+02:00</time>
      </trkpt>
      <trkpt lat="45.97273" lon="6.29726">
        <ele>1149</ele>
        <time>2016-10-02T13:40:16+02:00</time>
      </trkpt>
      <trkpt lat="45.97273" lon="6.29728">
        <ele>1150</ele>
        <time>2016-10-02T13:40:17+02:00</time>
      </trkpt>
      <trkpt lat="45.97272" lon="6.29729">
        <ele>1151</ele>
        <time>2016-10-02T13:40:18+02:00</time>
      </trkpt>
      <trkpt lat="45.97271" lon="6.29731">
        <ele>1152</ele>
        <time>2016-10-02T13:40:19+02:00</time>
      </trkpt>
      <trkpt lat="45.97271" lon="6.29733">
        <ele>1152</ele>
        <time>2016-10-02T13:40:20+02:00</time>
      </trkpt>
      <trkpt lat="45.9727" lon="6.29734">
        <ele>1153</ele>
        <time>2016-10-02T13:40:21+02:00</time>
      </trkpt>
      <trkpt lat="45.9727" lon="6.29736">
        <ele>1154</ele>
        <time>2016-10-02T13:40:22+02:00</time>
      </trkpt>
      <trkpt lat="45.9727" lon="6.29738">
        <ele>1155</ele>
        <time>2016-10-02T13:40:23+02:00</time>
      </trkpt>
      <trkpt lat="45.97269" lon="6.2974">
        <ele>1157</ele>
        <time>2016-10-02T13:40:25+02:00</time>
      </trkpt>
      <trkpt lat="45.9727" lon="6.29742">
        <ele>1158</ele>
        <time>2016-10-02T13:40:26+02:00</time>
      </trkpt>
      <trkpt lat="45.9727" lon="6.29744">
        <ele>1160</ele>
        <time>2016-10-02T13:40:28+02:00</time>
      </trkpt>
      <trkpt lat="45.9727" lon="6.29746">
        <ele>1161</ele>
        <time>2016-10-02T13:40:29+02:00</time>
      </trkpt>
      <trkpt lat="45.9727" lon="6.29748">
        <ele>1162</ele>
        <time>2016-10-02T13:40:30+02:00</time>
      </trkpt>
      <trkpt lat="45.9727" lon="6.2975">
        <ele>1163</ele>
        <time>2016-10-02T13:40:31+02:00</time>
      </trkpt>
      <trkpt lat="45.9727" lon="6.29752">
        <ele>1164</ele>
        <time>2016-10-02T13:40:33+02:00</time>
      </trkpt>
      <trkpt lat="45.9727" lon="6.29754">
        <ele>1166</ele>
        <time>2016-10-02T13:40:34+02:00</time>
      </trkpt>
      <trkpt lat="45.9727" lon="6.29757">
        <ele>1167</ele>
        <time>2016-10-02T13:40:36+02:00</time>
      </trkpt>
      <trkpt lat="45.9727" lon="6.29759">
        <ele>1168</ele>
        <time>2016-10-02T13:40:37+02:00</time>
      </trkpt>
      <trkpt lat="45.9727" lon="6.2976">
        <ele>1169</ele>
        <time>2016-10-02T13:40:38+02:00</time>
      </trkpt>
      <trkpt lat="45.9727" lon="6.29762">
        <ele>1170</ele>
        <time>2016-10-02T13:40:39+02:00</time>
      </trkpt>
      <trkpt lat="45.9727" lon="6.29764">
        <ele>1171</ele>
        <time>2016-10-02T13:40:40+02:00</time>
      </trkpt>
      <trkpt lat="45.97269" lon="6.29767">
        <ele>1172</ele>
        <time>2016-10-02T13:40:42+02:00</time>
      </trkpt>
      <trkpt lat="45.97269" lon="6.29768">
        <ele>1173</ele>
        <time>2016-10-02T13:40:42+02:00</time>
      </trkpt>
      <trkpt lat="45.97268" lon="6.2977">
        <ele>1173</ele>
        <time>2016-10-02T13:40:43+02:00</time>
      </trkpt>
      <trkpt lat="45.97268" lon="6.29772">
        <ele>1174</ele>
        <time>2016-10-02T13:40:45+02:00</time>
      </trkpt>
      <trkpt lat="45.97268" lon="6.29774">
        <ele>1175</ele>
        <time>2016-10-02T13:40:46+02:00</time>
      </trkpt>
      <trkpt lat="45.97267" lon="6.29775">
        <ele>1176</ele>
        <time>2016-10-02T13:40:47+02:00</time>
      </trkpt>
      <trkpt lat="45.97267" lon="6.29777">
        <ele>1176</ele>
        <time>2016-10-02T13:40:48+02:00</time>
      </trkpt>
      <trkpt lat="45.97266" lon="6.29778">
        <ele>1177</ele>
        <time>2016-10-02T13:40:49+02:00</time>
      </trkpt>
      <trkpt lat="45.97266" lon="6.2978">
        <ele>1178</ele>
        <time>2016-10-02T13:40:50+02:00</time>
      </trkpt>
      <trkpt lat="45.97266" lon="6.29781">
        <ele>1178</ele>
        <time>2016-10-02T13:40:51+02:00</time>
      </trkpt>
      <trkpt lat="45.97266" lon="6.29782">
        <ele>1178</ele>
        <time>2016-10-02T13:40:51+02:00</time>
      </trkpt>
      <trkpt lat="45.97266" lon="6.2978">
        <ele>1178</ele>
        <time>2016-10-02T13:40:52+02:00</time>
      </trkpt>
      <trkpt lat="45.97266" lon="6.29778">
        <ele>1177</ele>
        <time>2016-10-02T13:40:53+02:00</time>
      </trkpt>
      <trkpt lat="45.97267" lon="6.29776">
        <ele>1176</ele>
        <time>2016-10-02T13:40:54+02:00</time>
      </trkpt>
      <trkpt lat="45.97268" lon="6.29775">
        <ele>1176</ele>
        <time>2016-10-02T13:40:56+02:00</time>
      </trkpt>
      <trkpt lat="45.97268" lon="6.29774">
        <ele>1175</ele>
        <time>2016-10-02T13:40:56+02:00</time>
      </trkpt>
      <trkpt lat="45.97269" lon="6.29772">
        <ele>1174</ele>
        <time>2016-10-02T13:40:58+02:00</time>
      </trkpt>
      <trkpt lat="45.97269" lon="6.2977">
        <ele>1174</ele>
        <time>2016-10-02T13:40:59+02:00</time>
      </trkpt>
      <trkpt lat="45.9727" lon="6.29769">
        <ele>1173</ele>
        <time>2016-10-02T13:41:00+02:00</time>
      </trkpt>
      <trkpt lat="45.97272" lon="6.29767">
        <ele>1173</ele>
        <time>2016-10-02T13:41:02+02:00</time>
      </trkpt>
      <trkpt lat="45.97273" lon="6.29766">
        <ele>1173</ele>
        <time>2016-10-02T13:41:03+02:00</time>
      </trkpt>
      <trkpt lat="45.97274" lon="6.29765">
        <ele>1173</ele>
        <time>2016-10-02T13:41:05+02:00</time>
      </trkpt>
      <trkpt lat="45.97275" lon="6.29764">
        <ele>1173</ele>
        <time>2016-10-02T13:41:06+02:00</time>
      </trkpt>
      <trkpt lat="45.97276" lon="6.29766">
        <ele>1174</ele>
        <time>2016-10-02T13:41:07+02:00</time>
      </trkpt>
      <trkpt lat="45.97276" lon="6.29768">
        <ele>1175</ele>
        <time>2016-10-02T13:41:08+02:00</time>
      </trkpt>
      <trkpt lat="45.97276" lon="6.2977">
        <ele>1176</ele>
        <time>2016-10-02T13:41:10+02:00</time>
      </trkpt>
      <trkpt lat="45.97276" lon="6.29772">
        <ele>1177</ele>
        <time>2016-10-02T13:41:11+02:00</time>
      </trkpt>
      <trkpt lat="45.97276" lon="6.29775">
        <ele>1178</ele>
        <time>2016-10-02T13:41:12+02:00</time>
      </trkpt>
      <trkpt lat="45.97276" lon="6.29776">
        <ele>1179</ele>
        <time>2016-10-02T13:41:13+02:00</time>
      </trkpt>
      <trkpt lat="45.97276" lon="6.29778">
        <ele>1180</ele>
        <time>2016-10-02T13:41:14+02:00</time>
      </trkpt>
      <trkpt lat="45.97275" lon="6.29779">
        <ele>1181</ele>
        <time>2016-10-02T13:41:15+02:00</time>
      </trkpt>
      <trkpt lat="45.97275" lon="6.29782">
        <ele>1182</ele>
        <time>2016-10-02T13:41:16+02:00</time>
      </trkpt>
      <trkpt lat="45.97275" lon="6.29785">
        <ele>1184</ele>
        <time>2016-10-02T13:41:18+02:00</time>
      </trkpt>
      <trkpt lat="45.97275" lon="6.29786">
        <ele>1184</ele>
        <time>2016-10-02T13:41:19+02:00</time>
      </trkpt>
      <trkpt lat="45.97275" lon="6.29788">
        <ele>1185</ele>
        <time>2016-10-02T13:41:20+02:00</time>
      </trkpt>
      <trkpt lat="45.97275" lon="6.2979">
        <ele>1187</ele>
        <time>2016-10-02T13:41:21+02:00</time>
      </trkpt>
      <trkpt lat="45.97275" lon="6.29792">
        <ele>1187</ele>
        <time>2016-10-02T13:41:22+02:00</time>
      </trkpt>
      <trkpt lat="45.97275" lon="6.29794">
        <ele>1188</ele>
        <time>2016-10-02T13:41:24+02:00</time>
      </trkpt>
      <trkpt lat="45.97275" lon="6.29796">
        <ele>1190</ele>
        <time>2016-10-02T13:41:25+02:00</time>
      </trkpt>
      <trkpt lat="45.97275" lon="6.29799">
        <ele>1191</ele>
        <time>2016-10-02T13:41:26+02:00</time>
      </trkpt>
      <trkpt lat="45.97275" lon="6.29801">
        <ele>1192</ele>
        <time>2016-10-02T13:41:28+02:00</time>
      </trkpt>
      <trkpt lat="45.97275" lon="6.29803">
        <ele>1193</ele>
        <time>2016-10-02T13:41:29+02:00</time>
      </trkpt>
      <trkpt lat="45.97275" lon="6.29806">
        <ele>1195</ele>
        <time>2016-10-02T13:41:31+02:00</time>
      </trkpt>
      <trkpt lat="45.97275" lon="6.29808">
        <ele>1196</ele>
        <time>2016-10-02T13:41:32+02:00</time>
      </trkpt>
      <trkpt lat="45.97277" lon="6.2981">
        <ele>1198</ele>
        <time>2016-10-02T13:41:34+02:00</time>
      </trkpt>
      <trkpt lat="45.97279" lon="6.29812">
        <ele>1199</ele>
        <time>2016-10-02T13:41:36+02:00</time>
      </trkpt>
      <trkpt lat="45.9728" lon="6.29813">
        <ele>1201</ele>
        <time>2016-10-02T13:41:38+02:00</time>
      </trkpt>
      <trkpt lat="45.97282" lon="6.29815">
        <ele>1202</ele>
        <time>2016-10-02T13:41:40+02:00</time>
      </trkpt>
      <trkpt lat="45.97283" lon="6.29816">
        <ele>1204</ele>
        <time>2016-10-02T13:41:41+02:00</time>
      </trkpt>
      <trkpt lat="45.97284" lon="6.29818">
        <ele>1205</ele>
        <time>2016-10-02T13:41:42+02:00</time>
      </trkpt>
      <trkpt lat="45.97285" lon="6.29819">
        <ele>1206</ele>
        <time>2016-10-02T13:41:44+02:00</time>
      </trkpt>
      <trkpt lat="45.97285" lon="6.29821">
        <ele>1207</ele>
        <time>2016-10-02T13:41:45+02:00</time>
      </trkpt>
      <trkpt lat="45.97286" lon="6.29822">
        <ele>1208</ele>
        <time>2016-10-02T13:41:46+02:00</time>
      </trkpt>
      <trkpt lat="45.97286" lon="6.29824">
        <ele>1209</ele>
        <time>2016-10-02T13:41:47+02:00</time>
      </trkpt>
      <trkpt lat="45.97286" lon="6.29826">
        <ele>1210</ele>
        <time>2016-10-02T13:41:49+02:00</time>
      </trkpt>
      <trkpt lat="45.97287" lon="6.29828">
        <ele>1212</ele>
        <time>2016-10-02T13:41:50+02:00</time>
      </trkpt>
      <trkpt lat="45.97287" lon="6.2983">
        <ele>1213</ele>
        <time>2016-10-02T13:41:52+02:00</time>
      </trkpt>
      <trkpt lat="45.97287" lon="6.29833">
        <ele>1215</ele>
        <time>2016-10-02T13:41:53+02:00</time>
      </trkpt>
      <trkpt lat="45.97287" lon="6.29835">
        <ele>1216</ele>
        <time>2016-10-02T13:41:54+02:00</time>
      </trkpt>
      <trkpt lat="45.97287" lon="6.29837">
        <ele>1217</ele>
        <time>2016-10-02T13:41:55+02:00</time>
      </trkpt>
      <trkpt lat="45.97288" lon="6.29839">
        <ele>1218</ele>
        <time>2016-10-02T13:41:57+02:00</time>
      </trkpt>
      <trkpt lat="45.97288" lon="6.29841">
        <ele>1219</ele>
        <time>2016-10-02T13:41:58+02:00</time>
      </trkpt>
      <trkpt lat="45.97288" lon="6.29843">
        <ele>1221</ele>
        <time>2016-10-02T13:41:59+02:00</time>
      </trkpt>
      <trkpt lat="45.97288" lon="6.29846">
        <ele>1222</ele>
        <time>2016-10-02T13:42:01+02:00</time>
      </trkpt>
      <trkpt lat="45.97289" lon="6.29847">
        <ele>1223</ele>
        <time>2016-10-02T13:42:03+02:00</time>
      </trkpt>
      <trkpt lat="45.9729" lon="6.29849">
        <ele>1225</ele>
        <time>2016-10-02T13:42:05+02:00</time>
      </trkpt>
      <trkpt lat="45.97292" lon="6.2985">
        <ele>1226</ele>
        <time>2016-10-02T13:42:06+02:00</time>
      </trkpt>
      <trkpt lat="45.97292" lon="6.29852">
        <ele>1228</ele>
        <time>2016-10-02T13:42:08+02:00</time>
      </trkpt>
      <trkpt lat="45.97293" lon="6.29854">
        <ele>1229</ele>
        <time>2016-10-02T13:42:10+02:00</time>
      </trkpt>
      <trkpt lat="45.97294" lon="6.29855">
        <ele>1230</ele>
        <time>2016-10-02T13:42:11+02:00</time>
      </trkpt>
      <trkpt lat="45.97294" lon="6.29857">
        <ele>1231</ele>
        <time>2016-10-02T13:42:12+02:00</time>
      </trkpt>
      <trkpt lat="45.97294" lon="6.29858">
        <ele>1232</ele>
        <time>2016-10-02T13:42:13+02:00</time>
      </trkpt>
      <trkpt lat="45.97294" lon="6.2986">
        <ele>1233</ele>
        <time>2016-10-02T13:42:14+02:00</time>
      </trkpt>
      <trkpt lat="45.97295" lon="6.29861">
        <ele>1234</ele>
        <time>2016-10-02T13:42:16+02:00</time>
      </trkpt>
      <trkpt lat="45.97293" lon="6.29862">
        <ele>1233</ele>
        <time>2016-10-02T13:42:19+02:00</time>
      </trkpt>
      <trkpt lat="45.97291" lon="6.29862">
        <ele>1233</ele>
        <time>2016-10-02T13:42:21+02:00</time>
      </trkpt>
      <trkpt lat="45.97291" lon="6.29864">
        <ele>1234</ele>
        <time>2016-10-02T13:42:22+02:00</time>
      </trkpt>
      <trkpt lat="45.97292" lon="6.29867">
        <ele>1235</ele>
        <time>2016-10-02T13:42:24+02:00</time>
      </trkpt>
      <trkpt lat="45.97292" lon="6.29869">
        <ele>1237</ele>
        <time>2016-10-02T13:42:25+02:00</time>
      </trkpt>
      <trkpt lat="45.97292" lon="6.2987">
        <ele>1238</ele>
        <time>2016-10-02T13:42:26+02:00</time>
      </trkpt>
      <trkpt lat="45.97292" lon="6.29873">
        <ele>1239</ele>
        <time>2016-10-02T13:42:28+02:00</time>
      </trkpt>
      <trkpt lat="45.97292" lon="6.29875">
        <ele>1240</ele>
        <time>2016-10-02T13:42:29+02:00</time>
      </trkpt>
      <trkpt lat="45.97292" lon="6.29876">
        <ele>1241</ele>
        <time>2016-10-02T13:42:30+02:00</time>
      </trkpt>
      <trkpt lat="45.97292" lon="6.29879">
        <ele>1242</ele>
        <time>2016-10-02T13:42:32+02:00</time>
      </trkpt>
      <trkpt lat="45.97293" lon="6.29881">
        <ele>1244</ele>
        <time>2016-10-02T13:42:34+02:00</time>
      </trkpt>
      <trkpt lat="45.97293" lon="6.29883">
        <ele>1245</ele>
        <time>2016-10-02T13:42:35+02:00</time>
      </trkpt>
      <trkpt lat="45.97293" lon="6.29884">
        <ele>1246</ele>
        <time>2016-10-02T13:42:36+02:00</time>
      </trkpt>
      <trkpt lat="45.97294" lon="6.29886">
        <ele>1247</ele>
        <time>2016-10-02T13:42:38+02:00</time>
      </trkpt>
      <trkpt lat="45.97295" lon="6.29887">
        <ele>1248</ele>
        <time>2016-10-02T13:42:39+02:00</time>
      </trkpt>
      <trkpt lat="45.97295" lon="6.29889">
        <ele>1250</ele>
        <time>2016-10-02T13:42:41+02:00</time>
      </trkpt>
      <trkpt lat="45.97296" lon="6.2989">
        <ele>1251</ele>
        <time>2016-10-02T13:42:44+02:00</time>
      </trkpt>
      <trkpt lat="45.97296" lon="6.29892">
        <ele>1252</ele>
        <time>2016-10-02T13:42:45+02:00</time>
      </trkpt>
      <trkpt lat="45.97297" lon="6.29894">
        <ele>1254</ele>
        <time>2016-10-02T13:42:48+02:00</time>
      </trkpt>
      <trkpt lat="45.97297" lon="6.29897">
        <ele>1256</ele>
        <time>2016-10-02T13:42:50+02:00</time>
      </trkpt>
      <trkpt lat="45.97296" lon="6.29899">
        <ele>1256</ele>
        <time>2016-10-02T13:42:52+02:00</time>
      </trkpt>
      <trkpt lat="45.97297" lon="6.29901">
        <ele>1257</ele>
        <time>2016-10-02T13:42:53+02:00</time>
      </trkpt>
      <trkpt lat="45.97297" lon="6.29903">
        <ele>1259</ele>
        <time>2016-10-02T13:42:55+02:00</time>
      </trkpt>
      <trkpt lat="45.97297" lon="6.29905">
        <ele>1260</ele>
        <time>2016-10-02T13:42:57+02:00</time>
      </trkpt>
      <trkpt lat="45.97298" lon="6.29907">
        <ele>1262</ele>
        <time>2016-10-02T13:42:59+02:00</time>
      </trkpt>
      <trkpt lat="45.97298" lon="6.29909">
        <ele>1263</ele>
        <time>2016-10-02T13:43:01+02:00</time>
      </trkpt>
      <trkpt lat="45.97298" lon="6.29911">
        <ele>1264</ele>
        <time>2016-10-02T13:43:02+02:00</time>
      </trkpt>
      <trkpt lat="45.97298" lon="6.29913">
        <ele>1265</ele>
        <time>2016-10-02T13:43:04+02:00</time>
      </trkpt>
      <trkpt lat="45.97298" lon="6.29915">
        <ele>1267</ele>
        <time>2016-10-02T13:43:06+02:00</time>
      </trkpt>
      <trkpt lat="45.97298" lon="6.29917">
        <ele>1268</ele>
        <time>2016-10-02T13:43:07+02:00</time>
      </trkpt>
      <trkpt lat="45.97298" lon="6.29919">
        <ele>1268</ele>
        <time>2016-10-02T13:43:09+02:00</time>
      </trkpt>
      <trkpt lat="45.97297" lon="6.29921">
        <ele>1268</ele>
        <time>2016-10-02T13:43:10+02:00</time>
      </trkpt>
      <trkpt lat="45.97297" lon="6.29923">
        <ele>1268</ele>
        <time>2016-10-02T13:43:11+02:00</time>
      </trkpt>
      <trkpt lat="45.97296" lon="6.29923">
        <ele>1268</ele>
        <time>2016-10-02T13:43:13+02:00</time>
      </trkpt>
      <trkpt lat="45.97295" lon="6.29923">
        <ele>1267</ele>
        <time>2016-10-02T13:43:16+02:00</time>
      </trkpt>
      <trkpt lat="45.97293" lon="6.29923">
        <ele>1266</ele>
        <time>2016-10-02T13:43:18+02:00</time>
      </trkpt>
      <trkpt lat="45.97292" lon="6.29922">
        <ele>1265</ele>
        <time>2016-10-02T13:43:20+02:00</time>
      </trkpt>
      <trkpt lat="45.97291" lon="6.29922">
        <ele>1264</ele>
        <time>2016-10-02T13:43:23+02:00</time>
      </trkpt>
      <trkpt lat="45.9729" lon="6.29922">
        <ele>1263</ele>
        <time>2016-10-02T13:43:24+02:00</time>
      </trkpt>
      <trkpt lat="45.97289" lon="6.29923">
        <ele>1262</ele>
        <time>2016-10-02T13:43:28+02:00</time>
      </trkpt>
      <trkpt lat="45.97287" lon="6.29922">
        <ele>1261</ele>
        <time>2016-10-02T13:43:32+02:00</time>
      </trkpt>
      <trkpt lat="45.97286" lon="6.29922">
        <ele>1260</ele>
        <time>2016-10-02T13:43:34+02:00</time>
      </trkpt>
      <trkpt lat="45.97285" lon="6.29923">
        <ele>1260</ele>
        <time>2016-10-02T13:43:35+02:00</time>
      </trkpt>
      <trkpt lat="45.97285" lon="6.29925">
        <ele>1260</ele>
        <time>2016-10-02T13:43:36+02:00</time>
      </trkpt>
      <trkpt lat="45.97284" lon="6.29927">
        <ele>1260</ele>
        <time>2016-10-02T13:43:37+02:00</time>
      </trkpt>
      <trkpt lat="45.97285" lon="6.29929">
        <ele>1261</ele>
        <time>2016-10-02T13:43:39+02:00</time>
      </trkpt>
      <trkpt lat="45.97284" lon="6.29932">
        <ele>1262</ele>
        <time>2016-10-02T13:43:41+02:00</time>
      </trkpt>
      <trkpt lat="45.97284" lon="6.29934">
        <ele>1262</ele>
        <time>2016-10-02T13:43:42+02:00</time>
      </trkpt>
      <trkpt lat="45.97282" lon="6.29935">
        <ele>1261</ele>
        <time>2016-10-02T13:43:45+02:00</time>
      </trkpt>
      <trkpt lat="45.97283" lon="6.29938">
        <ele>1262</ele>
        <time>2016-10-02T13:43:47+02:00</time>
      </trkpt>
      <trkpt lat="45.97283" lon="6.2994">
        <ele>1263</ele>
        <time>2016-10-02T13:43:49+02:00</time>
      </trkpt>
      <trkpt lat="45.97283" lon="6.29942">
        <ele>1264</ele>
        <time>2016-10-02T13:43:50+02:00</time>
      </trkpt>
      <trkpt lat="45.97282" lon="6.29943">
        <ele>1263</ele>
        <time>2016-10-02T13:43:52+02:00</time>
      </trkpt>
      <trkpt lat="45.97281" lon="6.29944">
        <ele>1262</ele>
        <time>2016-10-02T13:43:55+02:00</time>
      </trkpt>
      <trkpt lat="45.9728" lon="6.29945">
        <ele>1262</ele>
        <time>2016-10-02T13:43:58+02:00</time>
      </trkpt>
      <trkpt lat="45.97279" lon="6.29947">
        <ele>1262</ele>
        <time>2016-10-02T13:43:59+02:00</time>
      </trkpt>
      <trkpt lat="45.9728" lon="6.29948">
        <ele>1263</ele>
        <time>2016-10-02T13:44:01+02:00</time>
      </trkpt>
      <trkpt lat="45.97281" lon="6.2995">
        <ele>1264</ele>
        <time>2016-10-02T13:44:03+02:00</time>
      </trkpt>
      <trkpt lat="45.9728" lon="6.29951">
        <ele>1263</ele>
        <time>2016-10-02T13:44:06+02:00</time>
      </trkpt>
      <trkpt lat="45.97279" lon="6.2995">
        <ele>1263</ele>
        <time>2016-10-02T13:44:06+02:00</time>
      </trkpt>
      <trkpt lat="45.97279" lon="6.29951">
        <ele>1264</ele>
        <time>2016-10-02T13:44:07+02:00</time>
      </trkpt>
      <trkpt lat="45.97279" lon="6.29952">
        <ele>1264</ele>
        <time>2016-10-02T13:44:08+02:00</time>
      </trkpt>
      <trkpt lat="45.9728" lon="6.29954">
        <ele>1265</ele>
        <time>2016-10-02T13:44:12+02:00</time>
      </trkpt>
      <trkpt lat="45.97281" lon="6.29956">
        <ele>1266</ele>
        <time>2016-10-02T13:44:14+02:00</time>
      </trkpt>
      <trkpt lat="45.97281" lon="6.29959">
        <ele>1267</ele>
        <time>2016-10-02T13:44:18+02:00</time>
      </trkpt>
      <trkpt lat="45.97282" lon="6.2996">
        <ele>1268</ele>
        <time>2016-10-02T13:44:20+02:00</time>
      </trkpt>
      <trkpt lat="45.97281" lon="6.29961">
        <ele>1267</ele>
        <time>2016-10-02T13:44:23+02:00</time>
      </trkpt>
      <trkpt lat="45.97279" lon="6.29962">
        <ele>1266</ele>
        <time>2016-10-02T13:44:25+02:00</time>
      </trkpt>
      <trkpt lat="45.97279" lon="6.29964">
        <ele>1267</ele>
        <time>2016-10-02T13:44:27+02:00</time>
      </trkpt>
      <trkpt lat="45.97279" lon="6.29966">
        <ele>1267</ele>
        <time>2016-10-02T13:44:29+02:00</time>
      </trkpt>
      <trkpt lat="45.97279" lon="6.29968">
        <ele>1268</ele>
        <time>2016-10-02T13:44:31+02:00</time>
      </trkpt>
      <trkpt lat="45.97279" lon="6.29969">
        <ele>1268</ele>
        <time>2016-10-02T13:44:32+02:00</time>
      </trkpt>
      <trkpt lat="45.97278" lon="6.2997">
        <ele>1267</ele>
        <time>2016-10-02T13:44:34+02:00</time>
      </trkpt>
      <trkpt lat="45.97277" lon="6.29972">
        <ele>1268</ele>
        <time>2016-10-02T13:44:35+02:00</time>
      </trkpt>
      <trkpt lat="45.97277" lon="6.29974">
        <ele>1268</ele>
        <time>2016-10-02T13:44:37+02:00</time>
      </trkpt>
      <trkpt lat="45.97277" lon="6.29977">
        <ele>1269</ele>
        <time>2016-10-02T13:44:39+02:00</time>
      </trkpt>
      <trkpt lat="45.97276" lon="6.29979">
        <ele>1269</ele>
        <time>2016-10-02T13:44:40+02:00</time>
      </trkpt>
      <trkpt lat="45.97275" lon="6.2998">
        <ele>1268</ele>
        <time>2016-10-02T13:44:42+02:00</time>
      </trkpt>
      <trkpt lat="45.97276" lon="6.29983">
        <ele>1269</ele>
        <time>2016-10-02T13:44:44+02:00</time>
      </trkpt>
      <trkpt lat="45.97276" lon="6.29985">
        <ele>1270</ele>
        <time>2016-10-02T13:44:46+02:00</time>
      </trkpt>
      <trkpt lat="45.97276" lon="6.29986">
        <ele>1271</ele>
        <time>2016-10-02T13:44:48+02:00</time>
      </trkpt>
      <trkpt lat="45.97275" lon="6.29987">
        <ele>1270</ele>
        <time>2016-10-02T13:44:49+02:00</time>
      </trkpt>
      <trkpt lat="45.97276" lon="6.29988">
        <ele>1271</ele>
        <time>2016-10-02T13:44:52+02:00</time>
      </trkpt>
      <trkpt lat="45.97276" lon="6.29989">
        <ele>1272</ele>
        <time>2016-10-02T13:44:53+02:00</time>
      </trkpt>
      <trkpt lat="45.97277" lon="6.2999">
        <ele>1272</ele>
        <time>2016-10-02T13:44:55+02:00</time>
      </trkpt>
      <trkpt lat="45.97278" lon="6.29991">
        <ele>1273</ele>
        <time>2016-10-02T13:44:57+02:00</time>
      </trkpt>
      <trkpt lat="45.97278" lon="6.29992">
        <ele>1274</ele>
        <time>2016-10-02T13:44:59+02:00</time>
      </trkpt>
      <trkpt lat="45.97278" lon="6.29993">
        <ele>1274</ele>
        <time>2016-10-02T13:45:00+02:00</time>
      </trkpt>
      <trkpt lat="45.97276" lon="6.29994">
        <ele>1273</ele>
        <time>2016-10-02T13:45:02+02:00</time>
      </trkpt>
      <trkpt lat="45.97276" lon="6.29996">
        <ele>1273</ele>
        <time>2016-10-02T13:45:02+02:00</time>
      </trkpt>
      <trkpt lat="45.97275" lon="6.29998">
        <ele>1273</ele>
        <time>2016-10-02T13:45:04+02:00</time>
      </trkpt>
      <trkpt lat="45.9725" lon="6.30024">
        <ele>1257</ele>
        <time>2016-10-02T13:45:49+02:00</time>
      </trkpt>
      <trkpt lat="45.97251" lon="6.30025">
        <ele>1257</ele>
        <time>2016-10-02T13:45:52+02:00</time>
      </trkpt>
      <trkpt lat="45.97252" lon="6.30025">
        <ele>1258</ele>
        <time>2016-10-02T13:45:54+02:00</time>
      </trkpt>
      <trkpt lat="45.97253" lon="6.30026">
        <ele>1259</ele>
        <time>2016-10-02T13:45:57+02:00</time>
      </trkpt>
      <trkpt lat="45.97254" lon="6.30027">
        <ele>1260</ele>
        <time>2016-10-02T13:46:00+02:00</time>
      </trkpt>
      <trkpt lat="45.97255" lon="6.30028">
        <ele>1261</ele>
        <time>2016-10-02T13:46:03+02:00</time>
      </trkpt>
      <trkpt lat="45.97256" lon="6.30029">
        <ele>1261</ele>
        <time>2016-10-02T13:46:04+02:00</time>
      </trkpt>
      <trkpt lat="45.97258" lon="6.3003">
        <ele>1262</ele>
        <time>2016-10-02T13:46:08+02:00</time>
      </trkpt>
      <trkpt lat="45.97259" lon="6.30032">
        <ele>1263</ele>
        <time>2016-10-02T13:46:11+02:00</time>
      </trkpt>
      <trkpt lat="45.97261" lon="6.30035">
        <ele>1265</ele>
        <time>2016-10-02T13:46:16+02:00</time>
      </trkpt>
      <trkpt lat="45.97262" lon="6.30039">
        <ele>1266</ele>
        <time>2016-10-02T13:46:22+02:00</time>
      </trkpt>
      <trkpt lat="45.97264" lon="6.30041">
        <ele>1267</ele>
        <time>2016-10-02T13:46:27+02:00</time>
      </trkpt>
      <trkpt lat="45.97265" lon="6.30042">
        <ele>1268</ele>
        <time>2016-10-02T13:46:29+02:00</time>
      </trkpt>
      <trkpt lat="45.97266" lon="6.30043">
        <ele>1269</ele>
        <time>2016-10-02T13:46:31+02:00</time>
      </trkpt>
      <trkpt lat="45.97267" lon="6.30045">
        <ele>1269</ele>
        <time>2016-10-02T13:46:34+02:00</time>
      </trkpt>
      <trkpt lat="45.97268" lon="6.30046">
        <ele>1270</ele>
        <time>2016-10-02T13:46:36+02:00</time>
      </trkpt>
      <trkpt lat="45.97269" lon="6.30048">
        <ele>1270</ele>
        <time>2016-10-02T13:46:39+02:00</time>
      </trkpt>
      <trkpt lat="45.9727" lon="6.30048">
        <ele>1271</ele>
        <time>2016-10-02T13:46:41+02:00</time>
      </trkpt>
      <trkpt lat="45.97271" lon="6.3006">
        <ele>1272</ele>
        <time>2016-10-02T13:46:50+02:00</time>
      </trkpt>
      <trkpt lat="45.97271" lon="6.30071">
        <ele>1272</ele>
        <time>2016-10-02T13:46:57+02:00</time>
      </trkpt>
      <trkpt lat="45.97271" lon="6.30083">
        <ele>1273</ele>
        <time>2016-10-02T13:47:04+02:00</time>
      </trkpt>
      <trkpt lat="45.9727" lon="6.30085">
        <ele>1272</ele>
        <time>2016-10-02T13:47:06+02:00</time>
      </trkpt>
      <trkpt lat="45.9727" lon="6.30088">
        <ele>1273</ele>
        <time>2016-10-02T13:47:08+02:00</time>
      </trkpt>
      <trkpt lat="45.9727" lon="6.3009">
        <ele>1273</ele>
        <time>2016-10-02T13:47:10+02:00</time>
      </trkpt>
      <trkpt lat="45.9727" lon="6.30092">
        <ele>1272</ele>
        <time>2016-10-02T13:47:11+02:00</time>
      </trkpt>
      <trkpt lat="45.97269" lon="6.30093">
        <ele>1272</ele>
        <time>2016-10-02T13:47:13+02:00</time>
      </trkpt>
      <trkpt lat="45.97268" lon="6.30093">
        <ele>1271</ele>
        <time>2016-10-02T13:47:14+02:00</time>
      </trkpt>
      <trkpt lat="45.97266" lon="6.30094">
        <ele>1270</ele>
        <time>2016-10-02T13:47:17+02:00</time>
      </trkpt>
      <trkpt lat="45.97266" lon="6.30097">
        <ele>1270</ele>
        <time>2016-10-02T13:47:18+02:00</time>
      </trkpt>
      <trkpt lat="45.97267" lon="6.30099">
        <ele>1271</ele>
        <time>2016-10-02T13:47:20+02:00</time>
      </trkpt>
      <trkpt lat="45.97266" lon="6.301">
        <ele>1271</ele>
        <time>2016-10-02T13:47:21+02:00</time>
      </trkpt>
      <trkpt lat="45.97265" lon="6.30101">
        <ele>1270</ele>
        <time>2016-10-02T13:47:23+02:00</time>
      </trkpt>
      <trkpt lat="45.97264" lon="6.30104">
        <ele>1270</ele>
        <time>2016-10-02T13:47:24+02:00</time>
      </trkpt>
      <trkpt lat="45.97264" lon="6.30105">
        <ele>1270</ele>
        <time>2016-10-02T13:47:25+02:00</time>
      </trkpt>
      <trkpt lat="45.97264" lon="6.30107">
        <ele>1270</ele>
        <time>2016-10-02T13:47:26+02:00</time>
      </trkpt>
      <trkpt lat="45.97264" lon="6.30108">
        <ele>1270</ele>
        <time>2016-10-02T13:47:27+02:00</time>
      </trkpt>
      <trkpt lat="45.97264" lon="6.3011">
        <ele>1270</ele>
        <time>2016-10-02T13:47:28+02:00</time>
      </trkpt>
      <trkpt lat="45.97265" lon="6.30112">
        <ele>1270</ele>
        <time>2016-10-02T13:47:30+02:00</time>
      </trkpt>
      <trkpt lat="45.97265" lon="6.30114">
        <ele>1271</ele>
        <time>2016-10-02T13:47:32+02:00</time>
      </trkpt>
      <trkpt lat="45.97266" lon="6.30115">
        <ele>1271</ele>
        <time>2016-10-02T13:47:33+02:00</time>
      </trkpt>
      <trkpt lat="45.97265" lon="6.30117">
        <ele>1271</ele>
        <time>2016-10-02T13:47:34+02:00</time>
      </trkpt>
      <trkpt lat="45.97265" lon="6.3012">
        <ele>1271</ele>
        <time>2016-10-02T13:47:37+02:00</time>
      </trkpt>
      <trkpt lat="45.97266" lon="6.30122">
        <ele>1271</ele>
        <time>2016-10-02T13:47:38+02:00</time>
      </trkpt>
      <trkpt lat="45.97266" lon="6.30124">
        <ele>1271</ele>
        <time>2016-10-02T13:47:39+02:00</time>
      </trkpt>
      <trkpt lat="45.97265" lon="6.30125">
        <ele>1271</ele>
        <time>2016-10-02T13:47:41+02:00</time>
      </trkpt>
      <trkpt lat="45.97264" lon="6.30126">
        <ele>1270</ele>
        <time>2016-10-02T13:47:42+02:00</time>
      </trkpt>
      <trkpt lat="45.97263" lon="6.30127">
        <ele>1270</ele>
        <time>2016-10-02T13:47:43+02:00</time>
      </trkpt>
      <trkpt lat="45.97263" lon="6.3013">
        <ele>1270</ele>
        <time>2016-10-02T13:47:45+02:00</time>
      </trkpt>
      <trkpt lat="45.97252" lon="6.30136">
        <ele>1266</ele>
        <time>2016-10-02T13:47:58+02:00</time>
      </trkpt>
      <trkpt lat="45.97253" lon="6.30137">
        <ele>1266</ele>
        <time>2016-10-02T13:47:59+02:00</time>
      </trkpt>
      <trkpt lat="45.97253" lon="6.30138">
        <ele>1266</ele>
        <time>2016-10-02T13:48:00+02:00</time>
      </trkpt>
      <trkpt lat="45.97252" lon="6.3014">
        <ele>1266</ele>
        <time>2016-10-02T13:48:02+02:00</time>
      </trkpt>
      <trkpt lat="45.97252" lon="6.30142">
        <ele>1266</ele>
        <time>2016-10-02T13:48:03+02:00</time>
      </trkpt>
      <trkpt lat="45.97251" lon="6.30143">
        <ele>1266</ele>
        <time>2016-10-02T13:48:04+02:00</time>
      </trkpt>
      <trkpt lat="45.97251" lon="6.30144">
        <ele>1266</ele>
        <time>2016-10-02T13:48:05+02:00</time>
      </trkpt>
      <trkpt lat="45.97251" lon="6.30147">
        <ele>1266</ele>
        <time>2016-10-02T13:48:07+02:00</time>
      </trkpt>
      <trkpt lat="45.97251" lon="6.3015">
        <ele>1266</ele>
        <time>2016-10-02T13:48:09+02:00</time>
      </trkpt>
      <trkpt lat="45.97252" lon="6.30151">
        <ele>1267</ele>
        <time>2016-10-02T13:48:11+02:00</time>
      </trkpt>
      <trkpt lat="45.97251" lon="6.30153">
        <ele>1266</ele>
        <time>2016-10-02T13:48:11+02:00</time>
      </trkpt>
      <trkpt lat="45.9725" lon="6.30154">
        <ele>1266</ele>
        <time>2016-10-02T13:48:13+02:00</time>
      </trkpt>
      <trkpt lat="45.9725" lon="6.30157">
        <ele>1266</ele>
        <time>2016-10-02T13:48:14+02:00</time>
      </trkpt>
      <trkpt lat="45.9725" lon="6.30159">
        <ele>1266</ele>
        <time>2016-10-02T13:48:16+02:00</time>
      </trkpt>
      <trkpt lat="45.9725" lon="6.30161">
        <ele>1266</ele>
        <time>2016-10-02T13:48:17+02:00</time>
      </trkpt>
      <trkpt lat="45.9725" lon="6.30162">
        <ele>1267</ele>
        <time>2016-10-02T13:48:19+02:00</time>
      </trkpt>
      <trkpt lat="45.9725" lon="6.30165">
        <ele>1267</ele>
        <time>2016-10-02T13:48:21+02:00</time>
      </trkpt>
      <trkpt lat="45.9725" lon="6.30167">
        <ele>1267</ele>
        <time>2016-10-02T13:48:22+02:00</time>
      </trkpt>
      <trkpt lat="45.97249" lon="6.30169">
        <ele>1267</ele>
        <time>2016-10-02T13:48:24+02:00</time>
      </trkpt>
      <trkpt lat="45.97248" lon="6.30171">
        <ele>1268</ele>
        <time>2016-10-02T13:48:25+02:00</time>
      </trkpt>
      <trkpt lat="45.97247" lon="6.30173">
        <ele>1269</ele>
        <time>2016-10-02T13:48:27+02:00</time>
      </trkpt>
      <trkpt lat="45.97247" lon="6.30175">
        <ele>1269</ele>
        <time>2016-10-02T13:48:28+02:00</time>
      </trkpt>
      <trkpt lat="45.97248" lon="6.30177">
        <ele>1270</ele>
        <time>2016-10-02T13:48:30+02:00</time>
      </trkpt>
      <trkpt lat="45.97248" lon="6.30179">
        <ele>1270</ele>
        <time>2016-10-02T13:48:31+02:00</time>
      </trkpt>
      <trkpt lat="45.97249" lon="6.3018">
        <ele>1271</ele>
        <time>2016-10-02T13:48:33+02:00</time>
      </trkpt>
      <trkpt lat="45.9725" lon="6.3018">
        <ele>1271</ele>
        <time>2016-10-02T13:48:35+02:00</time>
      </trkpt>
      <trkpt lat="45.97252" lon="6.30181">
        <ele>1272</ele>
        <time>2016-10-02T13:48:37+02:00</time>
      </trkpt>
      <trkpt lat="45.97254" lon="6.30181">
        <ele>1273</ele>
        <time>2016-10-02T13:48:38+02:00</time>
      </trkpt>
      <trkpt lat="45.97255" lon="6.3018">
        <ele>1273</ele>
        <time>2016-10-02T13:48:40+02:00</time>
      </trkpt>
      <trkpt lat="45.97256" lon="6.30177">
        <ele>1272</ele>
        <time>2016-10-02T13:48:41+02:00</time>
      </trkpt>
      <trkpt lat="45.97258" lon="6.30175">
        <ele>1272</ele>
        <time>2016-10-02T13:48:43+02:00</time>
      </trkpt>
      <trkpt lat="45.97259" lon="6.30173">
        <ele>1272</ele>
        <time>2016-10-02T13:48:45+02:00</time>
      </trkpt>
      <trkpt lat="45.97261" lon="6.30172">
        <ele>1272</ele>
        <time>2016-10-02T13:48:46+02:00</time>
      </trkpt>
      <trkpt lat="45.97262" lon="6.3017">
        <ele>1273</ele>
        <time>2016-10-02T13:48:48+02:00</time>
      </trkpt>
      <trkpt lat="45.97263" lon="6.30169">
        <ele>1273</ele>
        <time>2016-10-02T13:48:49+02:00</time>
      </trkpt>
      <trkpt lat="45.97264" lon="6.30168">
        <ele>1273</ele>
        <time>2016-10-02T13:48:50+02:00</time>
      </trkpt>
      <trkpt lat="45.97265" lon="6.30167">
        <ele>1273</ele>
        <time>2016-10-02T13:48:51+02:00</time>
      </trkpt>
      <trkpt lat="45.97267" lon="6.30167">
        <ele>1273</ele>
        <time>2016-10-02T13:48:53+02:00</time>
      </trkpt>
      <trkpt lat="45.97268" lon="6.30166">
        <ele>1274</ele>
        <time>2016-10-02T13:48:55+02:00</time>
      </trkpt>
      <trkpt lat="45.97269" lon="6.30164">
        <ele>1274</ele>
        <time>2016-10-02T13:48:56+02:00</time>
      </trkpt>
      <trkpt lat="45.9727" lon="6.30163">
        <ele>1274</ele>
        <time>2016-10-02T13:48:56+02:00</time>
      </trkpt>
      <trkpt lat="45.9727" lon="6.30162">
        <ele>1274</ele>
        <time>2016-10-02T13:48:57+02:00</time>
      </trkpt>
      <trkpt lat="45.97271" lon="6.3016">
        <ele>1275</ele>
        <time>2016-10-02T13:48:58+02:00</time>
      </trkpt>
      <trkpt lat="45.97272" lon="6.30159">
        <ele>1275</ele>
        <time>2016-10-02T13:48:59+02:00</time>
      </trkpt>
      <trkpt lat="45.97273" lon="6.30158">
        <ele>1275</ele>
        <time>2016-10-02T13:49:00+02:00</time>
      </trkpt>
      <trkpt lat="45.97273" lon="6.30157">
        <ele>1275</ele>
        <time>2016-10-02T13:49:01+02:00</time>
      </trkpt>
      <trkpt lat="45.97274" lon="6.30156">
        <ele>1276</ele>
        <time>2016-10-02T13:49:02+02:00</time>
      </trkpt>
      <trkpt lat="45.97273" lon="6.30155">
        <ele>1275</ele>
        <time>2016-10-02T13:49:03+02:00</time>
      </trkpt>
      <trkpt lat="45.97273" lon="6.30154">
        <ele>1275</ele>
        <time>2016-10-02T13:49:03+02:00</time>
      </trkpt>
      <trkpt lat="45.97273" lon="6.30153">
        <ele>1275</ele>
        <time>2016-10-02T13:49:04+02:00</time>
      </trkpt>
      <trkpt lat="45.97274" lon="6.3015">
        <ele>1276</ele>
        <time>2016-10-02T13:49:06+02:00</time>
      </trkpt>
      <trkpt lat="45.97274" lon="6.30148">
        <ele>1276</ele>
        <time>2016-10-02T13:49:07+02:00</time>
      </trkpt>
      <trkpt lat="45.97274" lon="6.30146">
        <ele>1276</ele>
        <time>2016-10-02T13:49:09+02:00</time>
      </trkpt>
      <trkpt lat="45.97274" lon="6.30145">
        <ele>1276</ele>
        <time>2016-10-02T13:49:10+02:00</time>
      </trkpt>
      <trkpt lat="45.97273" lon="6.30142">
        <ele>1275</ele>
        <time>2016-10-02T13:49:12+02:00</time>
      </trkpt>
      <trkpt lat="45.97273" lon="6.30141">
        <ele>1275</ele>
        <time>2016-10-02T13:49:13+02:00</time>
      </trkpt>
      <trkpt lat="45.97272" lon="6.30138">
        <ele>1275</ele>
        <time>2016-10-02T13:49:15+02:00</time>
      </trkpt>
      <trkpt lat="45.97271" lon="6.30135">
        <ele>1274</ele>
        <time>2016-10-02T13:49:17+02:00</time>
      </trkpt>
      <trkpt lat="45.9727" lon="6.3013">
        <ele>1274</ele>
        <time>2016-10-02T13:49:20+02:00</time>
      </trkpt>
      <trkpt lat="45.97269" lon="6.30127">
        <ele>1273</ele>
        <time>2016-10-02T13:49:23+02:00</time>
      </trkpt>
      <trkpt lat="45.97268" lon="6.30125">
        <ele>1272</ele>
        <time>2016-10-02T13:49:25+02:00</time>
      </trkpt>
      <trkpt lat="45.97267" lon="6.30123">
        <ele>1272</ele>
        <time>2016-10-02T13:49:27+02:00</time>
      </trkpt>
      <trkpt lat="45.97267" lon="6.30121">
        <ele>1272</ele>
        <time>2016-10-02T13:49:28+02:00</time>
      </trkpt>
      <trkpt lat="45.97274" lon="6.30114">
        <ele>1275</ele>
        <time>2016-10-02T13:49:39+02:00</time>
      </trkpt>
      <trkpt lat="45.97275" lon="6.30115">
        <ele>1276</ele>
        <time>2016-10-02T13:49:40+02:00</time>
      </trkpt>
      <trkpt lat="45.97276" lon="6.30117">
        <ele>1276</ele>
        <time>2016-10-02T13:49:41+02:00</time>
      </trkpt>
      <trkpt lat="45.97277" lon="6.30118">
        <ele>1276</ele>
        <time>2016-10-02T13:49:42+02:00</time>
      </trkpt>
      <trkpt lat="45.97277" lon="6.30119">
        <ele>1277</ele>
        <time>2016-10-02T13:49:43+02:00</time>
      </trkpt>
      <trkpt lat="45.97279" lon="6.3012">
        <ele>1277</ele>
        <time>2016-10-02T13:49:44+02:00</time>
      </trkpt>
      <trkpt lat="45.9728" lon="6.3012">
        <ele>1278</ele>
        <time>2016-10-02T13:49:46+02:00</time>
      </trkpt>
      <trkpt lat="45.97281" lon="6.30121">
        <ele>1279</ele>
        <time>2016-10-02T13:49:47+02:00</time>
      </trkpt>
      <trkpt lat="45.97283" lon="6.30121">
        <ele>1279</ele>
        <time>2016-10-02T13:49:48+02:00</time>
      </trkpt>
      <trkpt lat="45.97284" lon="6.30122">
        <ele>1280</ele>
        <time>2016-10-02T13:49:49+02:00</time>
      </trkpt>
      <trkpt lat="45.97285" lon="6.30123">
        <ele>1281</ele>
        <time>2016-10-02T13:49:51+02:00</time>
      </trkpt>
      <trkpt lat="45.97286" lon="6.30123">
        <ele>1281</ele>
        <time>2016-10-02T13:49:51+02:00</time>
      </trkpt>
      <trkpt lat="45.97288" lon="6.30123">
        <ele>1282</ele>
        <time>2016-10-02T13:49:53+02:00</time>
      </trkpt>
      <trkpt lat="45.97289" lon="6.30123">
        <ele>1282</ele>
        <time>2016-10-02T13:49:54+02:00</time>
      </trkpt>
      <trkpt lat="45.9729" lon="6.30122">
        <ele>1283</ele>
        <time>2016-10-02T13:49:55+02:00</time>
      </trkpt>
      <trkpt lat="45.97292" lon="6.30122">
        <ele>1284</ele>
        <time>2016-10-02T13:49:57+02:00</time>
      </trkpt>
      <trkpt lat="45.97294" lon="6.30123">
        <ele>1285</ele>
        <time>2016-10-02T13:49:59+02:00</time>
      </trkpt>
      <trkpt lat="45.97295" lon="6.30123">
        <ele>1285</ele>
        <time>2016-10-02T13:49:59+02:00</time>
      </trkpt>
      <trkpt lat="45.97296" lon="6.30123">
        <ele>1286</ele>
        <time>2016-10-02T13:50:01+02:00</time>
      </trkpt>
      <trkpt lat="45.97298" lon="6.30123">
        <ele>1286</ele>
        <time>2016-10-02T13:50:02+02:00</time>
      </trkpt>
      <trkpt lat="45.97299" lon="6.30124">
        <ele>1287</ele>
        <time>2016-10-02T13:50:03+02:00</time>
      </trkpt>
      <trkpt lat="45.97298" lon="6.30121">
        <ele>1287</ele>
        <time>2016-10-02T13:50:04+02:00</time>
      </trkpt>
      <trkpt lat="45.97298" lon="6.3012">
        <ele>1287</ele>
        <time>2016-10-02T13:50:05+02:00</time>
      </trkpt>
      <trkpt lat="45.97298" lon="6.30118">
        <ele>1287</ele>
        <time>2016-10-02T13:50:06+02:00</time>
      </trkpt>
      <trkpt lat="45.97298" lon="6.30115">
        <ele>1287</ele>
        <time>2016-10-02T13:50:08+02:00</time>
      </trkpt>
      <trkpt lat="45.973" lon="6.30112">
        <ele>1288</ele>
        <time>2016-10-02T13:50:10+02:00</time>
      </trkpt>
      <trkpt lat="45.97301" lon="6.30109">
        <ele>1289</ele>
        <time>2016-10-02T13:50:12+02:00</time>
      </trkpt>
      <trkpt lat="45.97302" lon="6.30107">
        <ele>1289</ele>
        <time>2016-10-02T13:50:14+02:00</time>
      </trkpt>
      <trkpt lat="45.97302" lon="6.30105">
        <ele>1289</ele>
        <time>2016-10-02T13:50:15+02:00</time>
      </trkpt>
      <trkpt lat="45.973" lon="6.30104">
        <ele>1289</ele>
        <time>2016-10-02T13:50:16+02:00</time>
      </trkpt>
      <trkpt lat="45.973" lon="6.30101">
        <ele>1288</ele>
        <time>2016-10-02T13:50:17+02:00</time>
      </trkpt>
      <trkpt lat="45.973" lon="6.301">
        <ele>1289</ele>
        <time>2016-10-02T13:50:18+02:00</time>
      </trkpt>
      <trkpt lat="45.97301" lon="6.30098">
        <ele>1289</ele>
        <time>2016-10-02T13:50:20+02:00</time>
      </trkpt>
      <trkpt lat="45.97302" lon="6.30099">
        <ele>1290</ele>
        <time>2016-10-02T13:50:21+02:00</time>
      </trkpt>
      <trkpt lat="45.97303" lon="6.30101">
        <ele>1290</ele>
        <time>2016-10-02T13:50:22+02:00</time>
      </trkpt>
      <trkpt lat="45.97304" lon="6.30103">
        <ele>1291</ele>
        <time>2016-10-02T13:50:24+02:00</time>
      </trkpt>
      <trkpt lat="45.97306" lon="6.30104">
        <ele>1291</ele>
        <time>2016-10-02T13:50:25+02:00</time>
      </trkpt>
      <trkpt lat="45.97307" lon="6.30105">
        <ele>1292</ele>
        <time>2016-10-02T13:50:27+02:00</time>
      </trkpt>
      <trkpt lat="45.97308" lon="6.30107">
        <ele>1292</ele>
        <time>2016-10-02T13:50:28+02:00</time>
      </trkpt>
      <trkpt lat="45.97309" lon="6.30108">
        <ele>1293</ele>
        <time>2016-10-02T13:50:29+02:00</time>
      </trkpt>
      <trkpt lat="45.9731" lon="6.3011">
        <ele>1293</ele>
        <time>2016-10-02T13:50:30+02:00</time>
      </trkpt>
      <trkpt lat="45.97311" lon="6.30111">
        <ele>1294</ele>
        <time>2016-10-02T13:50:32+02:00</time>
      </trkpt>
      <trkpt lat="45.97313" lon="6.30112">
        <ele>1294</ele>
        <time>2016-10-02T13:50:33+02:00</time>
      </trkpt>
      <trkpt lat="45.97315" lon="6.30113">
        <ele>1295</ele>
        <time>2016-10-02T13:50:35+02:00</time>
      </trkpt>
      <trkpt lat="45.97316" lon="6.30114">
        <ele>1296</ele>
        <time>2016-10-02T13:50:36+02:00</time>
      </trkpt>
      <trkpt lat="45.97318" lon="6.30116">
        <ele>1297</ele>
        <time>2016-10-02T13:50:39+02:00</time>
      </trkpt>
      <trkpt lat="45.9732" lon="6.30116">
        <ele>1298</ele>
        <time>2016-10-02T13:50:40+02:00</time>
      </trkpt>
      <trkpt lat="45.97322" lon="6.30116">
        <ele>1299</ele>
        <time>2016-10-02T13:50:42+02:00</time>
      </trkpt>
      <trkpt lat="45.97323" lon="6.30116">
        <ele>1299</ele>
        <time>2016-10-02T13:50:43+02:00</time>
      </trkpt>
      <trkpt lat="45.97324" lon="6.30116">
        <ele>1300</ele>
        <time>2016-10-02T13:50:44+02:00</time>
      </trkpt>
      <trkpt lat="45.97326" lon="6.30117">
        <ele>1300</ele>
        <time>2016-10-02T13:50:46+02:00</time>
      </trkpt>
      <trkpt lat="45.97328" lon="6.30118">
        <ele>1301</ele>
        <time>2016-10-02T13:50:47+02:00</time>
      </trkpt>
      <trkpt lat="45.97329" lon="6.30118">
        <ele>1302</ele>
        <time>2016-10-02T13:50:49+02:00</time>
      </trkpt>
      <trkpt lat="45.97331" lon="6.30119">
        <ele>1302</ele>
        <time>2016-10-02T13:50:50+02:00</time>
      </trkpt>
      <trkpt lat="45.97332" lon="6.3012">
        <ele>1303</ele>
        <time>2016-10-02T13:50:52+02:00</time>
      </trkpt>
      <trkpt lat="45.97334" lon="6.3012">
        <ele>1304</ele>
        <time>2016-10-02T13:50:53+02:00</time>
      </trkpt>
      <trkpt lat="45.97335" lon="6.30121">
        <ele>1305</ele>
        <time>2016-10-02T13:50:54+02:00</time>
      </trkpt>
      <trkpt lat="45.97336" lon="6.30122">
        <ele>1305</ele>
        <time>2016-10-02T13:50:55+02:00</time>
      </trkpt>
      <trkpt lat="45.97337" lon="6.30123">
        <ele>1306</ele>
        <time>2016-10-02T13:50:57+02:00</time>
      </trkpt>
      <trkpt lat="45.97339" lon="6.30124">
        <ele>1307</ele>
        <time>2016-10-02T13:50:58+02:00</time>
      </trkpt>
      <trkpt lat="45.9734" lon="6.30125">
        <ele>1308</ele>
        <time>2016-10-02T13:50:59+02:00</time>
      </trkpt>
      <trkpt lat="45.97341" lon="6.30126">
        <ele>1309</ele>
        <time>2016-10-02T13:51:00+02:00</time>
      </trkpt>
      <trkpt lat="45.97342" lon="6.30127">
        <ele>1310</ele>
        <time>2016-10-02T13:51:02+02:00</time>
      </trkpt>
      <trkpt lat="45.97343" lon="6.30128">
        <ele>1310</ele>
        <time>2016-10-02T13:51:03+02:00</time>
      </trkpt>
      <trkpt lat="45.97344" lon="6.30129">
        <ele>1311</ele>
        <time>2016-10-02T13:51:04+02:00</time>
      </trkpt>
      <trkpt lat="45.97345" lon="6.3013">
        <ele>1311</ele>
        <time>2016-10-02T13:51:05+02:00</time>
      </trkpt>
      <trkpt lat="45.97346" lon="6.30132">
        <ele>1312</ele>
        <time>2016-10-02T13:51:06+02:00</time>
      </trkpt>
      <trkpt lat="45.97347" lon="6.30133">
        <ele>1313</ele>
        <time>2016-10-02T13:51:07+02:00</time>
      </trkpt>
      <trkpt lat="45.97348" lon="6.30134">
        <ele>1313</ele>
        <time>2016-10-02T13:51:08+02:00</time>
      </trkpt>
      <trkpt lat="45.97349" lon="6.30136">
        <ele>1313</ele>
        <time>2016-10-02T13:51:10+02:00</time>
      </trkpt>
      <trkpt lat="45.97349" lon="6.30137">
        <ele>1313</ele>
        <time>2016-10-02T13:51:10+02:00</time>
      </trkpt>
      <trkpt lat="45.97349" lon="6.30139">
        <ele>1313</ele>
        <time>2016-10-02T13:51:11+02:00</time>
      </trkpt>
      <trkpt lat="45.9735" lon="6.3014">
        <ele>1314</ele>
        <time>2016-10-02T13:51:12+02:00</time>
      </trkpt>
      <trkpt lat="45.9735" lon="6.30142">
        <ele>1314</ele>
        <time>2016-10-02T13:51:13+02:00</time>
      </trkpt>
      <trkpt lat="45.9735" lon="6.30143">
        <ele>1314</ele>
        <time>2016-10-02T13:51:14+02:00</time>
      </trkpt>
      <trkpt lat="45.97351" lon="6.30145">
        <ele>1314</ele>
        <time>2016-10-02T13:51:15+02:00</time>
      </trkpt>
      <trkpt lat="45.97352" lon="6.30145">
        <ele>1315</ele>
        <time>2016-10-02T13:51:17+02:00</time>
      </trkpt>
      <trkpt lat="45.97353" lon="6.30145">
        <ele>1316</ele>
        <time>2016-10-02T13:51:18+02:00</time>
      </trkpt>
      <trkpt lat="45.97354" lon="6.30146">
        <ele>1316</ele>
        <time>2016-10-02T13:51:19+02:00</time>
      </trkpt>
      <trkpt lat="45.97355" lon="6.30146">
        <ele>1317</ele>
        <time>2016-10-02T13:51:20+02:00</time>
      </trkpt>
      <trkpt lat="45.97356" lon="6.30148">
        <ele>1317</ele>
        <time>2016-10-02T13:51:21+02:00</time>
      </trkpt>
      <trkpt lat="45.97356" lon="6.3015">
        <ele>1318</ele>
        <time>2016-10-02T13:51:22+02:00</time>
      </trkpt>
      <trkpt lat="45.97358" lon="6.30151">
        <ele>1318</ele>
        <time>2016-10-02T13:51:23+02:00</time>
      </trkpt>
      <trkpt lat="45.97359" lon="6.30152">
        <ele>1319</ele>
        <time>2016-10-02T13:51:24+02:00</time>
      </trkpt>
      <trkpt lat="45.9736" lon="6.30153">
        <ele>1320</ele>
        <time>2016-10-02T13:51:26+02:00</time>
      </trkpt>
      <trkpt lat="45.97362" lon="6.30154">
        <ele>1321</ele>
        <time>2016-10-02T13:51:27+02:00</time>
      </trkpt>
      <trkpt lat="45.97363" lon="6.30154">
        <ele>1322</ele>
        <time>2016-10-02T13:51:28+02:00</time>
      </trkpt>
      <trkpt lat="45.97364" lon="6.30153">
        <ele>1323</ele>
        <time>2016-10-02T13:51:29+02:00</time>
      </trkpt>
      <trkpt lat="45.97364" lon="6.30153">
        <ele>1323</ele>
        <time>2016-10-02T13:51:29+02:00</time>
      </trkpt>
      <trkpt lat="45.97365" lon="6.30153">
        <ele>1324</ele>
        <time>2016-10-02T13:51:30+02:00</time>
      </trkpt>
      <trkpt lat="45.97366" lon="6.30153">
        <ele>1325</ele>
        <time>2016-10-02T13:51:32+02:00</time>
      </trkpt>
      <trkpt lat="45.97367" lon="6.30153">
        <ele>1325</ele>
        <time>2016-10-02T13:51:32+02:00</time>
      </trkpt>
      <trkpt lat="45.97368" lon="6.30153">
        <ele>1326</ele>
        <time>2016-10-02T13:51:33+02:00</time>
      </trkpt>
      <trkpt lat="45.97368" lon="6.30155">
        <ele>1326</ele>
        <time>2016-10-02T13:51:34+02:00</time>
      </trkpt>
      <trkpt lat="45.97367" lon="6.30157">
        <ele>1325</ele>
        <time>2016-10-02T13:51:35+02:00</time>
      </trkpt>
      <trkpt lat="45.97367" lon="6.30159">
        <ele>1324</ele>
        <time>2016-10-02T13:51:37+02:00</time>
      </trkpt>
      <trkpt lat="45.97366" lon="6.30161">
        <ele>1323</ele>
        <time>2016-10-02T13:51:38+02:00</time>
      </trkpt>
      <trkpt lat="45.97366" lon="6.30163">
        <ele>1323</ele>
        <time>2016-10-02T13:51:39+02:00</time>
      </trkpt>
      <trkpt lat="45.97365" lon="6.30165">
        <ele>1322</ele>
        <time>2016-10-02T13:51:40+02:00</time>
      </trkpt>
      <trkpt lat="45.97365" lon="6.30167">
        <ele>1322</ele>
        <time>2016-10-02T13:51:41+02:00</time>
      </trkpt>
      <trkpt lat="45.97365" lon="6.30169">
        <ele>1322</ele>
        <time>2016-10-02T13:51:42+02:00</time>
      </trkpt>
      <trkpt lat="45.97365" lon="6.3017">
        <ele>1322</ele>
        <time>2016-10-02T13:51:43+02:00</time>
      </trkpt>
      <trkpt lat="45.97366" lon="6.30174">
        <ele>1322</ele>
        <time>2016-10-02T13:51:45+02:00</time>
      </trkpt>
      <trkpt lat="45.97366" lon="6.30177">
        <ele>1322</ele>
        <time>2016-10-02T13:51:47+02:00</time>
      </trkpt>
      <trkpt lat="45.97366" lon="6.3018">
        <ele>1322</ele>
        <time>2016-10-02T13:51:49+02:00</time>
      </trkpt>
      <trkpt lat="45.97367" lon="6.30181">
        <ele>1322</ele>
        <time>2016-10-02T13:51:50+02:00</time>
      </trkpt>
      <trkpt lat="45.97368" lon="6.30183">
        <ele>1323</ele>
        <time>2016-10-02T13:51:51+02:00</time>
      </trkpt>
      <trkpt lat="45.97368" lon="6.30185">
        <ele>1323</ele>
        <time>2016-10-02T13:51:52+02:00</time>
      </trkpt>
      <trkpt lat="45.97369" lon="6.30186">
        <ele>1323</ele>
        <time>2016-10-02T13:51:53+02:00</time>
      </trkpt>
      <trkpt lat="45.97369" lon="6.30188">
        <ele>1323</ele>
        <time>2016-10-02T13:51:54+02:00</time>
      </trkpt>
      <trkpt lat="45.9737" lon="6.30189">
        <ele>1324</ele>
        <time>2016-10-02T13:51:55+02:00</time>
      </trkpt>
      <trkpt lat="45.97371" lon="6.30191">
        <ele>1324</ele>
        <time>2016-10-02T13:51:57+02:00</time>
      </trkpt>
      <trkpt lat="45.97373" lon="6.30192">
        <ele>1326</ele>
        <time>2016-10-02T13:51:59+02:00</time>
      </trkpt>
      <trkpt lat="45.97375" lon="6.30192">
        <ele>1327</ele>
        <time>2016-10-02T13:52:00+02:00</time>
      </trkpt>
      <trkpt lat="45.97378" lon="6.30192">
        <ele>1329</ele>
        <time>2016-10-02T13:52:03+02:00</time>
      </trkpt>
      <trkpt lat="45.97381" lon="6.30192">
        <ele>1331</ele>
        <time>2016-10-02T13:52:05+02:00</time>
      </trkpt>
      <trkpt lat="45.97384" lon="6.30192">
        <ele>1333</ele>
        <time>2016-10-02T13:52:07+02:00</time>
      </trkpt>
      <trkpt lat="45.97386" lon="6.30192">
        <ele>1334</ele>
        <time>2016-10-02T13:52:09+02:00</time>
      </trkpt>
      <trkpt lat="45.97388" lon="6.30193">
        <ele>1336</ele>
        <time>2016-10-02T13:52:11+02:00</time>
      </trkpt>
      <trkpt lat="45.97389" lon="6.30194">
        <ele>1336</ele>
        <time>2016-10-02T13:52:12+02:00</time>
      </trkpt>
      <trkpt lat="45.97389" lon="6.30197">
        <ele>1336</ele>
        <time>2016-10-02T13:52:13+02:00</time>
      </trkpt>
      <trkpt lat="45.97389" lon="6.30198">
        <ele>1336</ele>
        <time>2016-10-02T13:52:14+02:00</time>
      </trkpt>
      <trkpt lat="45.97391" lon="6.302">
        <ele>1336</ele>
        <time>2016-10-02T13:52:15+02:00</time>
      </trkpt>
      <trkpt lat="45.97391" lon="6.30202">
        <ele>1337</ele>
        <time>2016-10-02T13:52:16+02:00</time>
      </trkpt>
      <trkpt lat="45.97391" lon="6.30203">
        <ele>1337</ele>
        <time>2016-10-02T13:52:17+02:00</time>
      </trkpt>
      <trkpt lat="45.97392" lon="6.30204">
        <ele>1337</ele>
        <time>2016-10-02T13:52:18+02:00</time>
      </trkpt>
      <trkpt lat="45.97393" lon="6.30205">
        <ele>1338</ele>
        <time>2016-10-02T13:52:19+02:00</time>
      </trkpt>
      <trkpt lat="45.97394" lon="6.30207">
        <ele>1338</ele>
        <time>2016-10-02T13:52:21+02:00</time>
      </trkpt>
      <trkpt lat="45.97395" lon="6.30208">
        <ele>1338</ele>
        <time>2016-10-02T13:52:22+02:00</time>
      </trkpt>
      <trkpt lat="45.97398" lon="6.3021">
        <ele>1340</ele>
        <time>2016-10-02T13:52:24+02:00</time>
      </trkpt>
      <trkpt lat="45.974" lon="6.30211">
        <ele>1341</ele>
        <time>2016-10-02T13:52:26+02:00</time>
      </trkpt>
      <trkpt lat="45.97403" lon="6.30211">
        <ele>1342</ele>
        <time>2016-10-02T13:52:28+02:00</time>
      </trkpt>
      <trkpt lat="45.97404" lon="6.30212">
        <ele>1343</ele>
        <time>2016-10-02T13:52:29+02:00</time>
      </trkpt>
      <trkpt lat="45.97405" lon="6.30213">
        <ele>1344</ele>
        <time>2016-10-02T13:52:30+02:00</time>
      </trkpt>
      <trkpt lat="45.97406" lon="6.30214">
        <ele>1344</ele>
        <time>2016-10-02T13:52:31+02:00</time>
      </trkpt>
      <trkpt lat="45.97407" lon="6.30215">
        <ele>1344</ele>
        <time>2016-10-02T13:52:32+02:00</time>
      </trkpt>
      <trkpt lat="45.97408" lon="6.30217">
        <ele>1345</ele>
        <time>2016-10-02T13:52:34+02:00</time>
      </trkpt>
      <trkpt lat="45.9741" lon="6.3022">
        <ele>1346</ele>
        <time>2016-10-02T13:52:36+02:00</time>
      </trkpt>
      <trkpt lat="45.97412" lon="6.30222">
        <ele>1346</ele>
        <time>2016-10-02T13:52:39+02:00</time>
      </trkpt>
      <trkpt lat="45.97415" lon="6.30224">
        <ele>1347</ele>
        <time>2016-10-02T13:52:41+02:00</time>
      </trkpt>
      <trkpt lat="45.97417" lon="6.30226">
        <ele>1348</ele>
        <time>2016-10-02T13:52:43+02:00</time>
      </trkpt>
      <trkpt lat="45.97418" lon="6.30228">
        <ele>1348</ele>
        <time>2016-10-02T13:52:45+02:00</time>
      </trkpt>
      <trkpt lat="45.97419" lon="6.3023">
        <ele>1348</ele>
        <time>2016-10-02T13:52:46+02:00</time>
      </trkpt>
      <trkpt lat="45.97419" lon="6.30233">
        <ele>1348</ele>
        <time>2016-10-02T13:52:48+02:00</time>
      </trkpt>
      <trkpt lat="45.9742" lon="6.30235">
        <ele>1349</ele>
        <time>2016-10-02T13:52:49+02:00</time>
      </trkpt>
      <trkpt lat="45.97422" lon="6.30236">
        <ele>1349</ele>
        <time>2016-10-02T13:52:51+02:00</time>
      </trkpt>
      <trkpt lat="45.97423" lon="6.30238">
        <ele>1349</ele>
        <time>2016-10-02T13:52:52+02:00</time>
      </trkpt>
      <trkpt lat="45.97423" lon="6.3024">
        <ele>1349</ele>
        <time>2016-10-02T13:52:54+02:00</time>
      </trkpt>
      <trkpt lat="45.97423" lon="6.30242">
        <ele>1348</ele>
        <time>2016-10-02T13:52:55+02:00</time>
      </trkpt>
      <trkpt lat="45.97422" lon="6.30244">
        <ele>1347</ele>
        <time>2016-10-02T13:52:56+02:00</time>
      </trkpt>
      <trkpt lat="45.97422" lon="6.30246">
        <ele>1347</ele>
        <time>2016-10-02T13:52:57+02:00</time>
      </trkpt>
      <trkpt lat="45.97422" lon="6.30249">
        <ele>1346</ele>
        <time>2016-10-02T13:52:59+02:00</time>
      </trkpt>
      <trkpt lat="45.97422" lon="6.30252">
        <ele>1346</ele>
        <time>2016-10-02T13:53:00+02:00</time>
      </trkpt>
      <trkpt lat="45.97423" lon="6.30254">
        <ele>1346</ele>
        <time>2016-10-02T13:53:02+02:00</time>
      </trkpt>
      <trkpt lat="45.97423" lon="6.30257">
        <ele>1346</ele>
        <time>2016-10-02T13:53:03+02:00</time>
      </trkpt>
      <trkpt lat="45.97424" lon="6.30259">
        <ele>1346</ele>
        <time>2016-10-02T13:53:05+02:00</time>
      </trkpt>
      <trkpt lat="45.97425" lon="6.30262">
        <ele>1346</ele>
        <time>2016-10-02T13:53:07+02:00</time>
      </trkpt>
      <trkpt lat="45.97426" lon="6.30265">
        <ele>1346</ele>
        <time>2016-10-02T13:53:09+02:00</time>
      </trkpt>
      <trkpt lat="45.97427" lon="6.30268">
        <ele>1347</ele>
        <time>2016-10-02T13:53:10+02:00</time>
      </trkpt>
      <trkpt lat="45.97428" lon="6.30271">
        <ele>1347</ele>
        <time>2016-10-02T13:53:12+02:00</time>
      </trkpt>
      <trkpt lat="45.9743" lon="6.30274">
        <ele>1347</ele>
        <time>2016-10-02T13:53:15+02:00</time>
      </trkpt>
      <trkpt lat="45.97431" lon="6.30278">
        <ele>1347</ele>
        <time>2016-10-02T13:53:17+02:00</time>
      </trkpt>
      <trkpt lat="45.97431" lon="6.30282">
        <ele>1347</ele>
        <time>2016-10-02T13:53:19+02:00</time>
      </trkpt>
      <trkpt lat="45.97432" lon="6.30285">
        <ele>1347</ele>
        <time>2016-10-02T13:53:21+02:00</time>
      </trkpt>
      <trkpt lat="45.97433" lon="6.30289">
        <ele>1347</ele>
        <time>2016-10-02T13:53:23+02:00</time>
      </trkpt>
      <trkpt lat="45.97434" lon="6.30291">
        <ele>1347</ele>
        <time>2016-10-02T13:53:25+02:00</time>
      </trkpt>
      <trkpt lat="45.97436" lon="6.30294">
        <ele>1348</ele>
        <time>2016-10-02T13:53:27+02:00</time>
      </trkpt>
      <trkpt lat="45.97437" lon="6.30297">
        <ele>1348</ele>
        <time>2016-10-02T13:53:29+02:00</time>
      </trkpt>
      <trkpt lat="45.97438" lon="6.303">
        <ele>1348</ele>
        <time>2016-10-02T13:53:31+02:00</time>
      </trkpt>
      <trkpt lat="45.97439" lon="6.30303">
        <ele>1348</ele>
        <time>2016-10-02T13:53:32+02:00</time>
      </trkpt>
      <trkpt lat="45.97439" lon="6.30306">
        <ele>1348</ele>
        <time>2016-10-02T13:53:34+02:00</time>
      </trkpt>
      <trkpt lat="45.9744" lon="6.30308">
        <ele>1348</ele>
        <time>2016-10-02T13:53:36+02:00</time>
      </trkpt>
      <trkpt lat="45.97442" lon="6.3031">
        <ele>1348</ele>
        <time>2016-10-02T13:53:38+02:00</time>
      </trkpt>
      <trkpt lat="45.97442" lon="6.30313">
        <ele>1348</ele>
        <time>2016-10-02T13:53:39+02:00</time>
      </trkpt>
      <trkpt lat="45.97442" lon="6.30316">
        <ele>1347</ele>
        <time>2016-10-02T13:53:40+02:00</time>
      </trkpt>
      <trkpt lat="45.97441" lon="6.30318">
        <ele>1347</ele>
        <time>2016-10-02T13:53:42+02:00</time>
      </trkpt>
      <trkpt lat="45.97442" lon="6.3032">
        <ele>1347</ele>
        <time>2016-10-02T13:53:43+02:00</time>
      </trkpt>
      <trkpt lat="45.97443" lon="6.30323">
        <ele>1347</ele>
        <time>2016-10-02T13:53:45+02:00</time>
      </trkpt>
      <trkpt lat="45.97445" lon="6.30325">
        <ele>1347</ele>
        <time>2016-10-02T13:53:47+02:00</time>
      </trkpt>
      <trkpt lat="45.97446" lon="6.30328">
        <ele>1348</ele>
        <time>2016-10-02T13:53:49+02:00</time>
      </trkpt>
      <trkpt lat="45.97447" lon="6.3033">
        <ele>1348</ele>
        <time>2016-10-02T13:53:50+02:00</time>
      </trkpt>
      <trkpt lat="45.97448" lon="6.30332">
        <ele>1348</ele>
        <time>2016-10-02T13:53:52+02:00</time>
      </trkpt>
      <trkpt lat="45.97449" lon="6.30335">
        <ele>1348</ele>
        <time>2016-10-02T13:53:53+02:00</time>
      </trkpt>
      <trkpt lat="45.97451" lon="6.30337">
        <ele>1349</ele>
        <time>2016-10-02T13:53:55+02:00</time>
      </trkpt>
      <trkpt lat="45.97452" lon="6.30339">
        <ele>1350</ele>
        <time>2016-10-02T13:53:57+02:00</time>
      </trkpt>
      <trkpt lat="45.97454" lon="6.30341">
        <ele>1350</ele>
        <time>2016-10-02T13:53:59+02:00</time>
      </trkpt>
      <trkpt lat="45.97456" lon="6.30343">
        <ele>1351</ele>
        <time>2016-10-02T13:54:00+02:00</time>
      </trkpt>
      <trkpt lat="45.97457" lon="6.30345">
        <ele>1351</ele>
        <time>2016-10-02T13:54:02+02:00</time>
      </trkpt>
      <trkpt lat="45.97458" lon="6.30346">
        <ele>1352</ele>
        <time>2016-10-02T13:54:03+02:00</time>
      </trkpt>
      <trkpt lat="45.9746" lon="6.30348">
        <ele>1352</ele>
        <time>2016-10-02T13:54:05+02:00</time>
      </trkpt>
      <trkpt lat="45.97461" lon="6.3035">
        <ele>1353</ele>
        <time>2016-10-02T13:54:07+02:00</time>
      </trkpt>
      <trkpt lat="45.97463" lon="6.30352">
        <ele>1353</ele>
        <time>2016-10-02T13:54:08+02:00</time>
      </trkpt>
      <trkpt lat="45.97464" lon="6.30354">
        <ele>1354</ele>
        <time>2016-10-02T13:54:10+02:00</time>
      </trkpt>
      <trkpt lat="45.97465" lon="6.30357">
        <ele>1354</ele>
        <time>2016-10-02T13:54:11+02:00</time>
      </trkpt>
      <trkpt lat="45.97466" lon="6.30359">
        <ele>1354</ele>
        <time>2016-10-02T13:54:13+02:00</time>
      </trkpt>
      <trkpt lat="45.97467" lon="6.30361">
        <ele>1354</ele>
        <time>2016-10-02T13:54:14+02:00</time>
      </trkpt>
      <trkpt lat="45.97469" lon="6.30363">
        <ele>1355</ele>
        <time>2016-10-02T13:54:16+02:00</time>
      </trkpt>
      <trkpt lat="45.9747" lon="6.30365">
        <ele>1355</ele>
        <time>2016-10-02T13:54:18+02:00</time>
      </trkpt>
      <trkpt lat="45.97471" lon="6.30367">
        <ele>1355</ele>
        <time>2016-10-02T13:54:19+02:00</time>
      </trkpt>
      <trkpt lat="45.97473" lon="6.30368">
        <ele>1356</ele>
        <time>2016-10-02T13:54:20+02:00</time>
      </trkpt>
      <trkpt lat="45.97475" lon="6.3037">
        <ele>1356</ele>
        <time>2016-10-02T13:54:22+02:00</time>
      </trkpt>
      <trkpt lat="45.97477" lon="6.30371">
        <ele>1357</ele>
        <time>2016-10-02T13:54:24+02:00</time>
      </trkpt>
      <trkpt lat="45.97478" lon="6.30373">
        <ele>1357</ele>
        <time>2016-10-02T13:54:26+02:00</time>
      </trkpt>
      <trkpt lat="45.97479" lon="6.30375">
        <ele>1357</ele>
        <time>2016-10-02T13:54:27+02:00</time>
      </trkpt>
      <trkpt lat="45.97481" lon="6.30377">
        <ele>1357</ele>
        <time>2016-10-02T13:54:29+02:00</time>
      </trkpt>
      <trkpt lat="45.97482" lon="6.30379">
        <ele>1357</ele>
        <time>2016-10-02T13:54:30+02:00</time>
      </trkpt>
      <trkpt lat="45.97483" lon="6.3038">
        <ele>1358</ele>
        <time>2016-10-02T13:54:31+02:00</time>
      </trkpt>
      <trkpt lat="45.97485" lon="6.30381">
        <ele>1358</ele>
        <time>2016-10-02T13:54:33+02:00</time>
      </trkpt>
      <trkpt lat="45.97486" lon="6.30382">
        <ele>1358</ele>
        <time>2016-10-02T13:54:34+02:00</time>
      </trkpt>
      <trkpt lat="45.97487" lon="6.30384">
        <ele>1358</ele>
        <time>2016-10-02T13:54:36+02:00</time>
      </trkpt>
      <trkpt lat="45.97488" lon="6.30386">
        <ele>1358</ele>
        <time>2016-10-02T13:54:37+02:00</time>
      </trkpt>
      <trkpt lat="45.97489" lon="6.30388">
        <ele>1358</ele>
        <time>2016-10-02T13:54:39+02:00</time>
      </trkpt>
      <trkpt lat="45.97491" lon="6.3039">
        <ele>1358</ele>
        <time>2016-10-02T13:54:40+02:00</time>
      </trkpt>
      <trkpt lat="45.97492" lon="6.30391">
        <ele>1358</ele>
        <time>2016-10-02T13:54:41+02:00</time>
      </trkpt>
      <trkpt lat="45.97494" lon="6.30392">
        <ele>1359</ele>
        <time>2016-10-02T13:54:43+02:00</time>
      </trkpt>
      <trkpt lat="45.97496" lon="6.30394">
        <ele>1359</ele>
        <time>2016-10-02T13:54:45+02:00</time>
      </trkpt>
      <trkpt lat="45.97498" lon="6.30395">
        <ele>1359</ele>
        <time>2016-10-02T13:54:46+02:00</time>
      </trkpt>
      <trkpt lat="45.97499" lon="6.30397">
        <ele>1359</ele>
        <time>2016-10-02T13:54:48+02:00</time>
      </trkpt>
      <trkpt lat="45.975" lon="6.30399">
        <ele>1359</ele>
        <time>2016-10-02T13:54:49+02:00</time>
      </trkpt>
      <trkpt lat="45.97501" lon="6.304">
        <ele>1359</ele>
        <time>2016-10-02T13:54:51+02:00</time>
      </trkpt>
      <trkpt lat="45.97504" lon="6.30401">
        <ele>1360</ele>
        <time>2016-10-02T13:54:53+02:00</time>
      </trkpt>
      <trkpt lat="45.97506" lon="6.30402">
        <ele>1360</ele>
        <time>2016-10-02T13:54:55+02:00</time>
      </trkpt>
      <trkpt lat="45.97508" lon="6.30404">
        <ele>1361</ele>
        <time>2016-10-02T13:54:57+02:00</time>
      </trkpt>
      <trkpt lat="45.97509" lon="6.30406">
        <ele>1361</ele>
        <time>2016-10-02T13:54:58+02:00</time>
      </trkpt>
      <trkpt lat="45.97509" lon="6.30408">
        <ele>1360</ele>
        <time>2016-10-02T13:54:59+02:00</time>
      </trkpt>
      <trkpt lat="45.9751" lon="6.3041">
        <ele>1360</ele>
        <time>2016-10-02T13:55:00+02:00</time>
      </trkpt>
      <trkpt lat="45.97511" lon="6.30412">
        <ele>1360</ele>
        <time>2016-10-02T13:55:02+02:00</time>
      </trkpt>
      <trkpt lat="45.97513" lon="6.30413">
        <ele>1361</ele>
        <time>2016-10-02T13:55:04+02:00</time>
      </trkpt>
      <trkpt lat="45.97515" lon="6.30415">
        <ele>1361</ele>
        <time>2016-10-02T13:55:05+02:00</time>
      </trkpt>
      <trkpt lat="45.97517" lon="6.30416">
        <ele>1361</ele>
        <time>2016-10-02T13:55:07+02:00</time>
      </trkpt>
      <trkpt lat="45.97519" lon="6.30417">
        <ele>1362</ele>
        <time>2016-10-02T13:55:09+02:00</time>
      </trkpt>
      <trkpt lat="45.97521" lon="6.3042">
        <ele>1362</ele>
        <time>2016-10-02T13:55:11+02:00</time>
      </trkpt>
      <trkpt lat="45.97522" lon="6.30423">
        <ele>1362</ele>
        <time>2016-10-02T13:55:13+02:00</time>
      </trkpt>
      <trkpt lat="45.97523" lon="6.30426">
        <ele>1362</ele>
        <time>2016-10-02T13:55:15+02:00</time>
      </trkpt>
      <trkpt lat="45.97524" lon="6.30429">
        <ele>1362</ele>
        <time>2016-10-02T13:55:16+02:00</time>
      </trkpt>
      <trkpt lat="45.97525" lon="6.30431">
        <ele>1362</ele>
        <time>2016-10-02T13:55:18+02:00</time>
      </trkpt>
      <trkpt lat="45.97527" lon="6.30433">
        <ele>1362</ele>
        <time>2016-10-02T13:55:20+02:00</time>
      </trkpt>
      <trkpt lat="45.9753" lon="6.30434">
        <ele>1363</ele>
        <time>2016-10-02T13:55:22+02:00</time>
      </trkpt>
      <trkpt lat="45.97532" lon="6.30435">
        <ele>1364</ele>
        <time>2016-10-02T13:55:24+02:00</time>
      </trkpt>
      <trkpt lat="45.97535" lon="6.30436">
        <ele>1364</ele>
        <time>2016-10-02T13:55:27+02:00</time>
      </trkpt>
      <trkpt lat="45.97537" lon="6.30438">
        <ele>1365</ele>
        <time>2016-10-02T13:55:28+02:00</time>
      </trkpt>
      <trkpt lat="45.97538" lon="6.3044">
        <ele>1365</ele>
        <time>2016-10-02T13:55:30+02:00</time>
      </trkpt>
      <trkpt lat="45.97539" lon="6.30442">
        <ele>1365</ele>
        <time>2016-10-02T13:55:32+02:00</time>
      </trkpt>
      <trkpt lat="45.9754" lon="6.30445">
        <ele>1365</ele>
        <time>2016-10-02T13:55:33+02:00</time>
      </trkpt>
      <trkpt lat="45.97541" lon="6.30447">
        <ele>1364</ele>
        <time>2016-10-02T13:55:35+02:00</time>
      </trkpt>
      <trkpt lat="45.97542" lon="6.30449">
        <ele>1364</ele>
        <time>2016-10-02T13:55:36+02:00</time>
      </trkpt>
      <trkpt lat="45.97543" lon="6.30451">
        <ele>1364</ele>
        <time>2016-10-02T13:55:38+02:00</time>
      </trkpt>
      <trkpt lat="45.97544" lon="6.30454">
        <ele>1364</ele>
        <time>2016-10-02T13:55:39+02:00</time>
      </trkpt>
      <trkpt lat="45.97545" lon="6.30456">
        <ele>1364</ele>
        <time>2016-10-02T13:55:41+02:00</time>
      </trkpt>
      <trkpt lat="45.97546" lon="6.30459">
        <ele>1364</ele>
        <time>2016-10-02T13:55:43+02:00</time>
      </trkpt>
      <trkpt lat="45.97547" lon="6.30462">
        <ele>1364</ele>
        <time>2016-10-02T13:55:45+02:00</time>
      </trkpt>
      <trkpt lat="45.97547" lon="6.30465">
        <ele>1363</ele>
        <time>2016-10-02T13:55:46+02:00</time>
      </trkpt>
      <trkpt lat="45.97547" lon="6.30468">
        <ele>1363</ele>
        <time>2016-10-02T13:55:48+02:00</time>
      </trkpt>
      <trkpt lat="45.97547" lon="6.3047">
        <ele>1362</ele>
        <time>2016-10-02T13:55:49+02:00</time>
      </trkpt>
      <trkpt lat="45.97547" lon="6.30471">
        <ele>1362</ele>
        <time>2016-10-02T13:55:50+02:00</time>
      </trkpt>
      <trkpt lat="45.97548" lon="6.30473">
        <ele>1362</ele>
        <time>2016-10-02T13:55:51+02:00</time>
      </trkpt>
      <trkpt lat="45.97549" lon="6.30475">
        <ele>1362</ele>
        <time>2016-10-02T13:55:52+02:00</time>
      </trkpt>
      <trkpt lat="45.9755" lon="6.30476">
        <ele>1362</ele>
        <time>2016-10-02T13:55:54+02:00</time>
      </trkpt>
      <trkpt lat="45.97551" lon="6.30479">
        <ele>1362</ele>
        <time>2016-10-02T13:55:55+02:00</time>
      </trkpt>
      <trkpt lat="45.97552" lon="6.30481">
        <ele>1362</ele>
        <time>2016-10-02T13:55:57+02:00</time>
      </trkpt>
      <trkpt lat="45.97553" lon="6.30484">
        <ele>1362</ele>
        <time>2016-10-02T13:55:59+02:00</time>
      </trkpt>
      <trkpt lat="45.97554" lon="6.30487">
        <ele>1361</ele>
        <time>2016-10-02T13:56:00+02:00</time>
      </trkpt>
      <trkpt lat="45.97555" lon="6.3049">
        <ele>1361</ele>
        <time>2016-10-02T13:56:02+02:00</time>
      </trkpt>
      <trkpt lat="45.97556" lon="6.30492">
        <ele>1361</ele>
        <time>2016-10-02T13:56:04+02:00</time>
      </trkpt>
      <trkpt lat="45.97557" lon="6.30495">
        <ele>1361</ele>
        <time>2016-10-02T13:56:06+02:00</time>
      </trkpt>
      <trkpt lat="45.97558" lon="6.30498">
        <ele>1360</ele>
        <time>2016-10-02T13:56:07+02:00</time>
      </trkpt>
      <trkpt lat="45.97559" lon="6.30501">
        <ele>1360</ele>
        <time>2016-10-02T13:56:09+02:00</time>
      </trkpt>
      <trkpt lat="45.97561" lon="6.30504">
        <ele>1360</ele>
        <time>2016-10-02T13:56:11+02:00</time>
      </trkpt>
      <trkpt lat="45.97562" lon="6.30507">
        <ele>1360</ele>
        <time>2016-10-02T13:56:13+02:00</time>
      </trkpt>
      <trkpt lat="45.97562" lon="6.3051">
        <ele>1360</ele>
        <time>2016-10-02T13:56:16+02:00</time>
      </trkpt>
      <trkpt lat="45.97562" lon="6.30514">
        <ele>1359</ele>
        <time>2016-10-02T13:56:18+02:00</time>
      </trkpt>
      <trkpt lat="45.97562" lon="6.30517">
        <ele>1359</ele>
        <time>2016-10-02T13:56:19+02:00</time>
      </trkpt>
      <trkpt lat="45.97563" lon="6.3052">
        <ele>1358</ele>
        <time>2016-10-02T13:56:21+02:00</time>
      </trkpt>
      <trkpt lat="45.97564" lon="6.30522">
        <ele>1358</ele>
        <time>2016-10-02T13:56:22+02:00</time>
      </trkpt>
      <trkpt lat="45.97564" lon="6.30525">
        <ele>1358</ele>
        <time>2016-10-02T13:56:24+02:00</time>
      </trkpt>
      <trkpt lat="45.97565" lon="6.30527">
        <ele>1358</ele>
        <time>2016-10-02T13:56:25+02:00</time>
      </trkpt>
      <trkpt lat="45.97566" lon="6.30529">
        <ele>1358</ele>
        <time>2016-10-02T13:56:27+02:00</time>
      </trkpt>
      <trkpt lat="45.97567" lon="6.30531">
        <ele>1358</ele>
        <time>2016-10-02T13:56:28+02:00</time>
      </trkpt>
      <trkpt lat="45.97568" lon="6.30533">
        <ele>1358</ele>
        <time>2016-10-02T13:56:30+02:00</time>
      </trkpt>
      <trkpt lat="45.9757" lon="6.30536">
        <ele>1358</ele>
        <time>2016-10-02T13:56:31+02:00</time>
      </trkpt>
      <trkpt lat="45.97571" lon="6.30538">
        <ele>1358</ele>
        <time>2016-10-02T13:56:33+02:00</time>
      </trkpt>
      <trkpt lat="45.97573" lon="6.3054">
        <ele>1358</ele>
        <time>2016-10-02T13:56:35+02:00</time>
      </trkpt>
      <trkpt lat="45.97574" lon="6.30542">
        <ele>1358</ele>
        <time>2016-10-02T13:56:37+02:00</time>
      </trkpt>
      <trkpt lat="45.97575" lon="6.30544">
        <ele>1357</ele>
        <time>2016-10-02T13:56:38+02:00</time>
      </trkpt>
      <trkpt lat="45.97576" lon="6.30545">
        <ele>1357</ele>
        <time>2016-10-02T13:56:39+02:00</time>
      </trkpt>
      <trkpt lat="45.97577" lon="6.30547">
        <ele>1357</ele>
        <time>2016-10-02T13:56:41+02:00</time>
      </trkpt>
      <trkpt lat="45.97579" lon="6.30549">
        <ele>1357</ele>
        <time>2016-10-02T13:56:42+02:00</time>
      </trkpt>
      <trkpt lat="45.9758" lon="6.30551">
        <ele>1357</ele>
        <time>2016-10-02T13:56:44+02:00</time>
      </trkpt>
      <trkpt lat="45.97581" lon="6.30552">
        <ele>1357</ele>
        <time>2016-10-02T13:56:45+02:00</time>
      </trkpt>
      <trkpt lat="45.97582" lon="6.30554">
        <ele>1357</ele>
        <time>2016-10-02T13:56:46+02:00</time>
      </trkpt>
      <trkpt lat="45.97584" lon="6.30555">
        <ele>1357</ele>
        <time>2016-10-02T13:56:48+02:00</time>
      </trkpt>
      <trkpt lat="45.97585" lon="6.30557">
        <ele>1357</ele>
        <time>2016-10-02T13:56:49+02:00</time>
      </trkpt>
      <trkpt lat="45.97586" lon="6.30558">
        <ele>1357</ele>
        <time>2016-10-02T13:56:50+02:00</time>
      </trkpt>
      <trkpt lat="45.97587" lon="6.3056">
        <ele>1357</ele>
        <time>2016-10-02T13:56:52+02:00</time>
      </trkpt>
      <trkpt lat="45.97589" lon="6.30561">
        <ele>1357</ele>
        <time>2016-10-02T13:56:53+02:00</time>
      </trkpt>
      <trkpt lat="45.97591" lon="6.30562">
        <ele>1358</ele>
        <time>2016-10-02T13:56:55+02:00</time>
      </trkpt>
      <trkpt lat="45.97592" lon="6.30563">
        <ele>1358</ele>
        <time>2016-10-02T13:56:56+02:00</time>
      </trkpt>
      <trkpt lat="45.97593" lon="6.30565">
        <ele>1358</ele>
        <time>2016-10-02T13:56:57+02:00</time>
      </trkpt>
      <trkpt lat="45.97594" lon="6.30566">
        <ele>1358</ele>
        <time>2016-10-02T13:56:59+02:00</time>
      </trkpt>
      <trkpt lat="45.97596" lon="6.30567">
        <ele>1358</ele>
        <time>2016-10-02T13:57:00+02:00</time>
      </trkpt>
      <trkpt lat="45.97598" lon="6.30568">
        <ele>1358</ele>
        <time>2016-10-02T13:57:02+02:00</time>
      </trkpt>
      <trkpt lat="45.97598" lon="6.3057">
        <ele>1358</ele>
        <time>2016-10-02T13:57:03+02:00</time>
      </trkpt>
      <trkpt lat="45.97598" lon="6.30572">
        <ele>1358</ele>
        <time>2016-10-02T13:57:04+02:00</time>
      </trkpt>
      <trkpt lat="45.97598" lon="6.30574">
        <ele>1357</ele>
        <time>2016-10-02T13:57:05+02:00</time>
      </trkpt>
      <trkpt lat="45.97598" lon="6.30576">
        <ele>1357</ele>
        <time>2016-10-02T13:57:06+02:00</time>
      </trkpt>
      <trkpt lat="45.97598" lon="6.30578">
        <ele>1356</ele>
        <time>2016-10-02T13:57:08+02:00</time>
      </trkpt>
      <trkpt lat="45.97599" lon="6.3058">
        <ele>1356</ele>
        <time>2016-10-02T13:57:09+02:00</time>
      </trkpt>
      <trkpt lat="45.97599" lon="6.30583">
        <ele>1356</ele>
        <time>2016-10-02T13:57:10+02:00</time>
      </trkpt>
      <trkpt lat="45.97599" lon="6.30585">
        <ele>1355</ele>
        <time>2016-10-02T13:57:12+02:00</time>
      </trkpt>
      <trkpt lat="45.976" lon="6.30587">
        <ele>1355</ele>
        <time>2016-10-02T13:57:13+02:00</time>
      </trkpt>
      <trkpt lat="45.976" lon="6.3059">
        <ele>1355</ele>
        <time>2016-10-02T13:57:15+02:00</time>
      </trkpt>
      <trkpt lat="45.97601" lon="6.30593">
        <ele>1355</ele>
        <time>2016-10-02T13:57:16+02:00</time>
      </trkpt>
      <trkpt lat="45.97601" lon="6.30595">
        <ele>1355</ele>
        <time>2016-10-02T13:57:18+02:00</time>
      </trkpt>
      <trkpt lat="45.97603" lon="6.30597">
        <ele>1355</ele>
        <time>2016-10-02T13:57:19+02:00</time>
      </trkpt>
      <trkpt lat="45.97604" lon="6.30598">
        <ele>1355</ele>
        <time>2016-10-02T13:57:21+02:00</time>
      </trkpt>
      <trkpt lat="45.97606" lon="6.30599">
        <ele>1355</ele>
        <time>2016-10-02T13:57:22+02:00</time>
      </trkpt>
      <trkpt lat="45.97608" lon="6.306">
        <ele>1356</ele>
        <time>2016-10-02T13:57:23+02:00</time>
      </trkpt>
      <trkpt lat="45.97609" lon="6.30601">
        <ele>1356</ele>
        <time>2016-10-02T13:57:25+02:00</time>
      </trkpt>
      <trkpt lat="45.97612" lon="6.30602">
        <ele>1356</ele>
        <time>2016-10-02T13:57:27+02:00</time>
      </trkpt>
      <trkpt lat="45.97613" lon="6.30603">
        <ele>1356</ele>
        <time>2016-10-02T13:57:29+02:00</time>
      </trkpt>
      <trkpt lat="45.97615" lon="6.30603">
        <ele>1357</ele>
        <time>2016-10-02T13:57:30+02:00</time>
      </trkpt>
      <trkpt lat="45.97616" lon="6.30604">
        <ele>1357</ele>
        <time>2016-10-02T13:57:31+02:00</time>
      </trkpt>
      <trkpt lat="45.97617" lon="6.30605">
        <ele>1357</ele>
        <time>2016-10-02T13:57:32+02:00</time>
      </trkpt>
      <trkpt lat="45.97618" lon="6.30606">
        <ele>1357</ele>
        <time>2016-10-02T13:57:33+02:00</time>
      </trkpt>
      <trkpt lat="45.97619" lon="6.30607">
        <ele>1357</ele>
        <time>2016-10-02T13:57:34+02:00</time>
      </trkpt>
      <trkpt lat="45.97619" lon="6.30609">
        <ele>1357</ele>
        <time>2016-10-02T13:57:35+02:00</time>
      </trkpt>
      <trkpt lat="45.9762" lon="6.30612">
        <ele>1357</ele>
        <time>2016-10-02T13:57:37+02:00</time>
      </trkpt>
      <trkpt lat="45.9762" lon="6.30614">
        <ele>1356</ele>
        <time>2016-10-02T13:57:38+02:00</time>
      </trkpt>
      <trkpt lat="45.97621" lon="6.30617">
        <ele>1356</ele>
        <time>2016-10-02T13:57:40+02:00</time>
      </trkpt>
      <trkpt lat="45.97622" lon="6.30618">
        <ele>1356</ele>
        <time>2016-10-02T13:57:41+02:00</time>
      </trkpt>
      <trkpt lat="45.97623" lon="6.30619">
        <ele>1356</ele>
        <time>2016-10-02T13:57:42+02:00</time>
      </trkpt>
      <trkpt lat="45.97624" lon="6.3062">
        <ele>1356</ele>
        <time>2016-10-02T13:57:43+02:00</time>
      </trkpt>
      <trkpt lat="45.97625" lon="6.30621">
        <ele>1357</ele>
        <time>2016-10-02T13:57:44+02:00</time>
      </trkpt>
      <trkpt lat="45.97626" lon="6.30622">
        <ele>1357</ele>
        <time>2016-10-02T13:57:45+02:00</time>
      </trkpt>
      <trkpt lat="45.97627" lon="6.30624">
        <ele>1357</ele>
        <time>2016-10-02T13:57:47+02:00</time>
      </trkpt>
      <trkpt lat="45.97628" lon="6.30625">
        <ele>1357</ele>
        <time>2016-10-02T13:57:48+02:00</time>
      </trkpt>
      <trkpt lat="45.97629" lon="6.30626">
        <ele>1357</ele>
        <time>2016-10-02T13:57:49+02:00</time>
      </trkpt>
      <trkpt lat="45.9763" lon="6.30629">
        <ele>1356</ele>
        <time>2016-10-02T13:57:50+02:00</time>
      </trkpt>
      <trkpt lat="45.97629" lon="6.30632">
        <ele>1356</ele>
        <time>2016-10-02T13:57:52+02:00</time>
      </trkpt>
      <trkpt lat="45.97628" lon="6.30635">
        <ele>1355</ele>
        <time>2016-10-02T13:57:54+02:00</time>
      </trkpt>
      <trkpt lat="45.97627" lon="6.30637">
        <ele>1355</ele>
        <time>2016-10-02T13:57:56+02:00</time>
      </trkpt>
      <trkpt lat="45.97628" lon="6.30639">
        <ele>1355</ele>
        <time>2016-10-02T13:57:57+02:00</time>
      </trkpt>
      <trkpt lat="45.97629" lon="6.3064">
        <ele>1355</ele>
        <time>2016-10-02T13:57:58+02:00</time>
      </trkpt>
      <trkpt lat="45.9763" lon="6.30641">
        <ele>1355</ele>
        <time>2016-10-02T13:57:59+02:00</time>
      </trkpt>
      <trkpt lat="45.97631" lon="6.30643">
        <ele>1355</ele>
        <time>2016-10-02T13:58:00+02:00</time>
      </trkpt>
      <trkpt lat="45.97631" lon="6.30644">
        <ele>1355</ele>
        <time>2016-10-02T13:58:01+02:00</time>
      </trkpt>
      <trkpt lat="45.97632" lon="6.30646">
        <ele>1355</ele>
        <time>2016-10-02T13:58:02+02:00</time>
      </trkpt>
      <trkpt lat="45.97632" lon="6.30648">
        <ele>1354</ele>
        <time>2016-10-02T13:58:03+02:00</time>
      </trkpt>
      <trkpt lat="45.97633" lon="6.3065">
        <ele>1354</ele>
        <time>2016-10-02T13:58:04+02:00</time>
      </trkpt>
      <trkpt lat="45.97634" lon="6.30652">
        <ele>1354</ele>
        <time>2016-10-02T13:58:06+02:00</time>
      </trkpt>
      <trkpt lat="45.97636" lon="6.30653">
        <ele>1354</ele>
        <time>2016-10-02T13:58:07+02:00</time>
      </trkpt>
      <trkpt lat="45.97637" lon="6.30654">
        <ele>1354</ele>
        <time>2016-10-02T13:58:09+02:00</time>
      </trkpt>
      <trkpt lat="45.97639" lon="6.30655">
        <ele>1355</ele>
        <time>2016-10-02T13:58:10+02:00</time>
      </trkpt>
      <trkpt lat="45.9764" lon="6.30656">
        <ele>1355</ele>
        <time>2016-10-02T13:58:11+02:00</time>
      </trkpt>
      <trkpt lat="45.97641" lon="6.30657">
        <ele>1355</ele>
        <time>2016-10-02T13:58:13+02:00</time>
      </trkpt>
      <trkpt lat="45.97643" lon="6.30658">
        <ele>1355</ele>
        <time>2016-10-02T13:58:14+02:00</time>
      </trkpt>
      <trkpt lat="45.97646" lon="6.30659">
        <ele>1355</ele>
        <time>2016-10-02T13:58:16+02:00</time>
      </trkpt>
      <trkpt lat="45.97648" lon="6.3066">
        <ele>1356</ele>
        <time>2016-10-02T13:58:18+02:00</time>
      </trkpt>
      <trkpt lat="45.9765" lon="6.30661">
        <ele>1356</ele>
        <time>2016-10-02T13:58:20+02:00</time>
      </trkpt>
      <trkpt lat="45.97651" lon="6.30662">
        <ele>1356</ele>
        <time>2016-10-02T13:58:21+02:00</time>
      </trkpt>
      <trkpt lat="45.97652" lon="6.30663">
        <ele>1356</ele>
        <time>2016-10-02T13:58:23+02:00</time>
      </trkpt>
      <trkpt lat="45.97653" lon="6.30665">
        <ele>1356</ele>
        <time>2016-10-02T13:58:24+02:00</time>
      </trkpt>
      <trkpt lat="45.97655" lon="6.30666">
        <ele>1356</ele>
        <time>2016-10-02T13:58:25+02:00</time>
      </trkpt>
      <trkpt lat="45.97656" lon="6.30668">
        <ele>1356</ele>
        <time>2016-10-02T13:58:26+02:00</time>
      </trkpt>
      <trkpt lat="45.97658" lon="6.30669">
        <ele>1356</ele>
        <time>2016-10-02T13:58:28+02:00</time>
      </trkpt>
      <trkpt lat="45.97659" lon="6.30669">
        <ele>1356</ele>
        <time>2016-10-02T13:58:29+02:00</time>
      </trkpt>
      <trkpt lat="45.97661" lon="6.3067">
        <ele>1357</ele>
        <time>2016-10-02T13:58:31+02:00</time>
      </trkpt>
      <trkpt lat="45.97663" lon="6.30671">
        <ele>1357</ele>
        <time>2016-10-02T13:58:33+02:00</time>
      </trkpt>
      <trkpt lat="45.97666" lon="6.30672">
        <ele>1357</ele>
        <time>2016-10-02T13:58:35+02:00</time>
      </trkpt>
      <trkpt lat="45.97667" lon="6.30673">
        <ele>1357</ele>
        <time>2016-10-02T13:58:36+02:00</time>
      </trkpt>
      <trkpt lat="45.97669" lon="6.30674">
        <ele>1358</ele>
        <time>2016-10-02T13:58:38+02:00</time>
      </trkpt>
      <trkpt lat="45.97671" lon="6.30675">
        <ele>1358</ele>
        <time>2016-10-02T13:58:40+02:00</time>
      </trkpt>
      <trkpt lat="45.97674" lon="6.30676">
        <ele>1358</ele>
        <time>2016-10-02T13:58:42+02:00</time>
      </trkpt>
      <trkpt lat="45.97676" lon="6.30677">
        <ele>1359</ele>
        <time>2016-10-02T13:58:43+02:00</time>
      </trkpt>
      <trkpt lat="45.97678" lon="6.30678">
        <ele>1359</ele>
        <time>2016-10-02T13:58:45+02:00</time>
      </trkpt>
      <trkpt lat="45.97679" lon="6.30679">
        <ele>1359</ele>
        <time>2016-10-02T13:58:46+02:00</time>
      </trkpt>
      <trkpt lat="45.97681" lon="6.3068">
        <ele>1360</ele>
        <time>2016-10-02T13:58:48+02:00</time>
      </trkpt>
      <trkpt lat="45.97683" lon="6.3068">
        <ele>1360</ele>
        <time>2016-10-02T13:58:49+02:00</time>
      </trkpt>
      <trkpt lat="45.97684" lon="6.30681">
        <ele>1360</ele>
        <time>2016-10-02T13:58:50+02:00</time>
      </trkpt>
      <trkpt lat="45.97685" lon="6.30682">
        <ele>1360</ele>
        <time>2016-10-02T13:58:52+02:00</time>
      </trkpt>
      <trkpt lat="45.97687" lon="6.30683">
        <ele>1361</ele>
        <time>2016-10-02T13:58:53+02:00</time>
      </trkpt>
      <trkpt lat="45.97688" lon="6.30684">
        <ele>1361</ele>
        <time>2016-10-02T13:58:54+02:00</time>
      </trkpt>
      <trkpt lat="45.97689" lon="6.30685">
        <ele>1361</ele>
        <time>2016-10-02T13:58:55+02:00</time>
      </trkpt>
      <trkpt lat="45.9769" lon="6.30687">
        <ele>1361</ele>
        <time>2016-10-02T13:58:57+02:00</time>
      </trkpt>
      <trkpt lat="45.97691" lon="6.30688">
        <ele>1361</ele>
        <time>2016-10-02T13:58:58+02:00</time>
      </trkpt>
      <trkpt lat="45.97693" lon="6.30689">
        <ele>1361</ele>
        <time>2016-10-02T13:58:59+02:00</time>
      </trkpt>
      <trkpt lat="45.97694" lon="6.30691">
        <ele>1361</ele>
        <time>2016-10-02T13:59:01+02:00</time>
      </trkpt>
      <trkpt lat="45.97695" lon="6.30692">
        <ele>1361</ele>
        <time>2016-10-02T13:59:02+02:00</time>
      </trkpt>
      <trkpt lat="45.97697" lon="6.30694">
        <ele>1361</ele>
        <time>2016-10-02T13:59:04+02:00</time>
      </trkpt>
      <trkpt lat="45.97699" lon="6.30696">
        <ele>1362</ele>
        <time>2016-10-02T13:59:06+02:00</time>
      </trkpt>
      <trkpt lat="45.97701" lon="6.30698">
        <ele>1362</ele>
        <time>2016-10-02T13:59:08+02:00</time>
      </trkpt>
      <trkpt lat="45.97703" lon="6.307">
        <ele>1362</ele>
        <time>2016-10-02T13:59:10+02:00</time>
      </trkpt>
      <trkpt lat="45.97704" lon="6.30702">
        <ele>1362</ele>
        <time>2016-10-02T13:59:11+02:00</time>
      </trkpt>
      <trkpt lat="45.97706" lon="6.30703">
        <ele>1362</ele>
        <time>2016-10-02T13:59:13+02:00</time>
      </trkpt>
      <trkpt lat="45.97708" lon="6.30705">
        <ele>1362</ele>
        <time>2016-10-02T13:59:14+02:00</time>
      </trkpt>
      <trkpt lat="45.97709" lon="6.30707">
        <ele>1362</ele>
        <time>2016-10-02T13:59:16+02:00</time>
      </trkpt>
      <trkpt lat="45.97711" lon="6.30708">
        <ele>1363</ele>
        <time>2016-10-02T13:59:18+02:00</time>
      </trkpt>
      <trkpt lat="45.97714" lon="6.3071">
        <ele>1363</ele>
        <time>2016-10-02T13:59:20+02:00</time>
      </trkpt>
      <trkpt lat="45.97716" lon="6.30711">
        <ele>1363</ele>
        <time>2016-10-02T13:59:22+02:00</time>
      </trkpt>
      <trkpt lat="45.97719" lon="6.30712">
        <ele>1364</ele>
        <time>2016-10-02T13:59:25+02:00</time>
      </trkpt>
      <trkpt lat="45.97722" lon="6.30712">
        <ele>1364</ele>
        <time>2016-10-02T13:59:27+02:00</time>
      </trkpt>
      <trkpt lat="45.97724" lon="6.30712">
        <ele>1365</ele>
        <time>2016-10-02T13:59:29+02:00</time>
      </trkpt>
      <trkpt lat="45.97727" lon="6.30713">
        <ele>1365</ele>
        <time>2016-10-02T13:59:31+02:00</time>
      </trkpt>
      <trkpt lat="45.97728" lon="6.30713">
        <ele>1366</ele>
        <time>2016-10-02T13:59:32+02:00</time>
      </trkpt>
      <trkpt lat="45.9773" lon="6.30713">
        <ele>1366</ele>
        <time>2016-10-02T13:59:34+02:00</time>
      </trkpt>
      <trkpt lat="45.97732" lon="6.30713">
        <ele>1366</ele>
        <time>2016-10-02T13:59:35+02:00</time>
      </trkpt>
      <trkpt lat="45.97734" lon="6.30712">
        <ele>1367</ele>
        <time>2016-10-02T13:59:36+02:00</time>
      </trkpt>
      <trkpt lat="45.97736" lon="6.30712">
        <ele>1367</ele>
        <time>2016-10-02T13:59:38+02:00</time>
      </trkpt>
      <trkpt lat="45.97737" lon="6.30712">
        <ele>1367</ele>
        <time>2016-10-02T13:59:40+02:00</time>
      </trkpt>
      <trkpt lat="45.97739" lon="6.30712">
        <ele>1368</ele>
        <time>2016-10-02T13:59:41+02:00</time>
      </trkpt>
      <trkpt lat="45.9774" lon="6.30712">
        <ele>1368</ele>
        <time>2016-10-02T13:59:42+02:00</time>
      </trkpt>
      <trkpt lat="45.97742" lon="6.30713">
        <ele>1368</ele>
        <time>2016-10-02T13:59:44+02:00</time>
      </trkpt>
      <trkpt lat="45.97744" lon="6.30713">
        <ele>1369</ele>
        <time>2016-10-02T13:59:45+02:00</time>
      </trkpt>
      <trkpt lat="45.97746" lon="6.30713">
        <ele>1369</ele>
        <time>2016-10-02T13:59:47+02:00</time>
      </trkpt>
      <trkpt lat="45.97748" lon="6.30715">
        <ele>1369</ele>
        <time>2016-10-02T13:59:49+02:00</time>
      </trkpt>
      <trkpt lat="45.9775" lon="6.30718">
        <ele>1369</ele>
        <time>2016-10-02T13:59:51+02:00</time>
      </trkpt>
      <trkpt lat="45.97752" lon="6.3072">
        <ele>1369</ele>
        <time>2016-10-02T13:59:53+02:00</time>
      </trkpt>
      <trkpt lat="45.97755" lon="6.30723">
        <ele>1370</ele>
        <time>2016-10-02T13:59:56+02:00</time>
      </trkpt>
      <trkpt lat="45.97756" lon="6.30725">
        <ele>1370</ele>
        <time>2016-10-02T13:59:57+02:00</time>
      </trkpt>
      <trkpt lat="45.97758" lon="6.30727">
        <ele>1370</ele>
        <time>2016-10-02T13:59:59+02:00</time>
      </trkpt>
      <trkpt lat="45.9776" lon="6.30728">
        <ele>1370</ele>
        <time>2016-10-02T14:00:01+02:00</time>
      </trkpt>
      <trkpt lat="45.97761" lon="6.30729">
        <ele>1370</ele>
        <time>2016-10-02T14:00:02+02:00</time>
      </trkpt>
      <trkpt lat="45.97763" lon="6.3073">
        <ele>1370</ele>
        <time>2016-10-02T14:00:04+02:00</time>
      </trkpt>
      <trkpt lat="45.97764" lon="6.30732">
        <ele>1370</ele>
        <time>2016-10-02T14:00:05+02:00</time>
      </trkpt>
      <trkpt lat="45.97764" lon="6.30733">
        <ele>1370</ele>
        <time>2016-10-02T14:00:06+02:00</time>
      </trkpt>
      <trkpt lat="45.97765" lon="6.30734">
        <ele>1370</ele>
        <time>2016-10-02T14:00:07+02:00</time>
      </trkpt>
      <trkpt lat="45.97766" lon="6.30736">
        <ele>1370</ele>
        <time>2016-10-02T14:00:08+02:00</time>
      </trkpt>
      <trkpt lat="45.97767" lon="6.30737">
        <ele>1371</ele>
        <time>2016-10-02T14:00:09+02:00</time>
      </trkpt>
      <trkpt lat="45.97769" lon="6.30738">
        <ele>1371</ele>
        <time>2016-10-02T14:00:10+02:00</time>
      </trkpt>
      <trkpt lat="45.9777" lon="6.30738">
        <ele>1371</ele>
        <time>2016-10-02T14:00:11+02:00</time>
      </trkpt>
      <trkpt lat="45.97772" lon="6.30738">
        <ele>1371</ele>
        <time>2016-10-02T14:00:13+02:00</time>
      </trkpt>
      <trkpt lat="45.97774" lon="6.30739">
        <ele>1372</ele>
        <time>2016-10-02T14:00:14+02:00</time>
      </trkpt>
      <trkpt lat="45.97775" lon="6.30739">
        <ele>1372</ele>
        <time>2016-10-02T14:00:15+02:00</time>
      </trkpt>
      <trkpt lat="45.97776" lon="6.30741">
        <ele>1372</ele>
        <time>2016-10-02T14:00:17+02:00</time>
      </trkpt>
      <trkpt lat="45.97778" lon="6.30743">
        <ele>1372</ele>
        <time>2016-10-02T14:00:18+02:00</time>
      </trkpt>
      <trkpt lat="45.97779" lon="6.30744">
        <ele>1372</ele>
        <time>2016-10-02T14:00:19+02:00</time>
      </trkpt>
      <trkpt lat="45.9778" lon="6.30745">
        <ele>1372</ele>
        <time>2016-10-02T14:00:20+02:00</time>
      </trkpt>
      <trkpt lat="45.9778" lon="6.30746">
        <ele>1372</ele>
        <time>2016-10-02T14:00:21+02:00</time>
      </trkpt>
      <trkpt lat="45.97781" lon="6.30748">
        <ele>1372</ele>
        <time>2016-10-02T14:00:22+02:00</time>
      </trkpt>
      <trkpt lat="45.97782" lon="6.30749">
        <ele>1372</ele>
        <time>2016-10-02T14:00:23+02:00</time>
      </trkpt>
      <trkpt lat="45.97783" lon="6.3075">
        <ele>1372</ele>
        <time>2016-10-02T14:00:24+02:00</time>
      </trkpt>
      <trkpt lat="45.97784" lon="6.30752">
        <ele>1372</ele>
        <time>2016-10-02T14:00:26+02:00</time>
      </trkpt>
      <trkpt lat="45.97785" lon="6.30753">
        <ele>1372</ele>
        <time>2016-10-02T14:00:27+02:00</time>
      </trkpt>
      <trkpt lat="45.97786" lon="6.30754">
        <ele>1372</ele>
        <time>2016-10-02T14:00:28+02:00</time>
      </trkpt>
      <trkpt lat="45.97788" lon="6.30756">
        <ele>1372</ele>
        <time>2016-10-02T14:00:30+02:00</time>
      </trkpt>
      <trkpt lat="45.97789" lon="6.30758">
        <ele>1373</ele>
        <time>2016-10-02T14:00:31+02:00</time>
      </trkpt>
      <trkpt lat="45.97791" lon="6.3076">
        <ele>1373</ele>
        <time>2016-10-02T14:00:33+02:00</time>
      </trkpt>
      <trkpt lat="45.97791" lon="6.30762">
        <ele>1372</ele>
        <time>2016-10-02T14:00:34+02:00</time>
      </trkpt>
      <trkpt lat="45.97789" lon="6.30767">
        <ele>1372</ele>
        <time>2016-10-02T14:00:37+02:00</time>
      </trkpt>
      <trkpt lat="45.97788" lon="6.30773">
        <ele>1371</ele>
        <time>2016-10-02T14:00:41+02:00</time>
      </trkpt>
      <trkpt lat="45.97787" lon="6.30778">
        <ele>1370</ele>
        <time>2016-10-02T14:00:44+02:00</time>
      </trkpt>
      <trkpt lat="45.97787" lon="6.30781">
        <ele>1369</ele>
        <time>2016-10-02T14:00:46+02:00</time>
      </trkpt>
      <trkpt lat="45.97787" lon="6.30784">
        <ele>1369</ele>
        <time>2016-10-02T14:00:47+02:00</time>
      </trkpt>
      <trkpt lat="45.97787" lon="6.30786">
        <ele>1369</ele>
        <time>2016-10-02T14:00:48+02:00</time>
      </trkpt>
      <trkpt lat="45.97788" lon="6.30788">
        <ele>1369</ele>
        <time>2016-10-02T14:00:50+02:00</time>
      </trkpt>
      <trkpt lat="45.97789" lon="6.3079">
        <ele>1369</ele>
        <time>2016-10-02T14:00:51+02:00</time>
      </trkpt>
      <trkpt lat="45.9779" lon="6.30791">
        <ele>1369</ele>
        <time>2016-10-02T14:00:52+02:00</time>
      </trkpt>
      <trkpt lat="45.97791" lon="6.30792">
        <ele>1369</ele>
        <time>2016-10-02T14:00:53+02:00</time>
      </trkpt>
      <trkpt lat="45.97793" lon="6.30793">
        <ele>1369</ele>
        <time>2016-10-02T14:00:55+02:00</time>
      </trkpt>
      <trkpt lat="45.97794" lon="6.30794">
        <ele>1369</ele>
        <time>2016-10-02T14:00:56+02:00</time>
      </trkpt>
      <trkpt lat="45.97796" lon="6.30795">
        <ele>1370</ele>
        <time>2016-10-02T14:00:58+02:00</time>
      </trkpt>
      <trkpt lat="45.97797" lon="6.30796">
        <ele>1370</ele>
        <time>2016-10-02T14:00:59+02:00</time>
      </trkpt>
      <trkpt lat="45.97799" lon="6.30798">
        <ele>1370</ele>
        <time>2016-10-02T14:01:00+02:00</time>
      </trkpt>
      <trkpt lat="45.978" lon="6.30799">
        <ele>1370</ele>
        <time>2016-10-02T14:01:02+02:00</time>
      </trkpt>
      <trkpt lat="45.97802" lon="6.308">
        <ele>1370</ele>
        <time>2016-10-02T14:01:04+02:00</time>
      </trkpt>
      <trkpt lat="45.97804" lon="6.30801">
        <ele>1371</ele>
        <time>2016-10-02T14:01:05+02:00</time>
      </trkpt>
      <trkpt lat="45.97806" lon="6.30802">
        <ele>1371</ele>
        <time>2016-10-02T14:01:07+02:00</time>
      </trkpt>
      <trkpt lat="45.97807" lon="6.30803">
        <ele>1371</ele>
        <time>2016-10-02T14:01:08+02:00</time>
      </trkpt>
      <trkpt lat="45.97808" lon="6.30804">
        <ele>1371</ele>
        <time>2016-10-02T14:01:09+02:00</time>
      </trkpt>
      <trkpt lat="45.9781" lon="6.30805">
        <ele>1371</ele>
        <time>2016-10-02T14:01:11+02:00</time>
      </trkpt>
      <trkpt lat="45.97811" lon="6.30807">
        <ele>1371</ele>
        <time>2016-10-02T14:01:12+02:00</time>
      </trkpt>
      <trkpt lat="45.97811" lon="6.30809">
        <ele>1371</ele>
        <time>2016-10-02T14:01:13+02:00</time>
      </trkpt>
      <trkpt lat="45.97812" lon="6.3081">
        <ele>1371</ele>
        <time>2016-10-02T14:01:14+02:00</time>
      </trkpt>
      <trkpt lat="45.97813" lon="6.30812">
        <ele>1371</ele>
        <time>2016-10-02T14:01:15+02:00</time>
      </trkpt>
      <trkpt lat="45.97813" lon="6.30813">
        <ele>1371</ele>
        <time>2016-10-02T14:01:16+02:00</time>
      </trkpt>
      <trkpt lat="45.97814" lon="6.30815">
        <ele>1371</ele>
        <time>2016-10-02T14:01:18+02:00</time>
      </trkpt>
      <trkpt lat="45.97815" lon="6.30817">
        <ele>1371</ele>
        <time>2016-10-02T14:01:19+02:00</time>
      </trkpt>
      <trkpt lat="45.97816" lon="6.3082">
        <ele>1370</ele>
        <time>2016-10-02T14:01:21+02:00</time>
      </trkpt>
      <trkpt lat="45.97816" lon="6.30823">
        <ele>1370</ele>
        <time>2016-10-02T14:01:22+02:00</time>
      </trkpt>
      <trkpt lat="45.97817" lon="6.30825">
        <ele>1370</ele>
        <time>2016-10-02T14:01:24+02:00</time>
      </trkpt>
      <trkpt lat="45.97818" lon="6.30827">
        <ele>1370</ele>
        <time>2016-10-02T14:01:25+02:00</time>
      </trkpt>
      <trkpt lat="45.97819" lon="6.30828">
        <ele>1370</ele>
        <time>2016-10-02T14:01:26+02:00</time>
      </trkpt>
      <trkpt lat="45.97819" lon="6.3083">
        <ele>1370</ele>
        <time>2016-10-02T14:01:27+02:00</time>
      </trkpt>
      <trkpt lat="45.97821" lon="6.30831">
        <ele>1370</ele>
        <time>2016-10-02T14:01:28+02:00</time>
      </trkpt>
      <trkpt lat="45.97822" lon="6.30833">
        <ele>1370</ele>
        <time>2016-10-02T14:01:30+02:00</time>
      </trkpt>
      <trkpt lat="45.97823" lon="6.30834">
        <ele>1370</ele>
        <time>2016-10-02T14:01:31+02:00</time>
      </trkpt>
      <trkpt lat="45.97824" lon="6.30836">
        <ele>1370</ele>
        <time>2016-10-02T14:01:32+02:00</time>
      </trkpt>
      <trkpt lat="45.97824" lon="6.30838">
        <ele>1370</ele>
        <time>2016-10-02T14:01:33+02:00</time>
      </trkpt>
      <trkpt lat="45.97825" lon="6.30841">
        <ele>1370</ele>
        <time>2016-10-02T14:01:35+02:00</time>
      </trkpt>
      <trkpt lat="45.97826" lon="6.30843">
        <ele>1370</ele>
        <time>2016-10-02T14:01:36+02:00</time>
      </trkpt>
      <trkpt lat="45.97826" lon="6.30845">
        <ele>1369</ele>
        <time>2016-10-02T14:01:37+02:00</time>
      </trkpt>
      <trkpt lat="45.97827" lon="6.30846">
        <ele>1369</ele>
        <time>2016-10-02T14:01:39+02:00</time>
      </trkpt>
      <trkpt lat="45.97828" lon="6.30848">
        <ele>1369</ele>
        <time>2016-10-02T14:01:40+02:00</time>
      </trkpt>
      <trkpt lat="45.97829" lon="6.3085">
        <ele>1369</ele>
        <time>2016-10-02T14:01:41+02:00</time>
      </trkpt>
      <trkpt lat="45.97831" lon="6.30852">
        <ele>1369</ele>
        <time>2016-10-02T14:01:43+02:00</time>
      </trkpt>
      <trkpt lat="45.97831" lon="6.30854">
        <ele>1369</ele>
        <time>2016-10-02T14:01:44+02:00</time>
      </trkpt>
      <trkpt lat="45.97832" lon="6.30856">
        <ele>1369</ele>
        <time>2016-10-02T14:01:45+02:00</time>
      </trkpt>
      <trkpt lat="45.97832" lon="6.30858">
        <ele>1369</ele>
        <time>2016-10-02T14:01:46+02:00</time>
      </trkpt>
      <trkpt lat="45.97834" lon="6.30859">
        <ele>1369</ele>
        <time>2016-10-02T14:01:48+02:00</time>
      </trkpt>
      <trkpt lat="45.97835" lon="6.3086">
        <ele>1369</ele>
        <time>2016-10-02T14:01:49+02:00</time>
      </trkpt>
      <trkpt lat="45.97836" lon="6.30862">
        <ele>1369</ele>
        <time>2016-10-02T14:01:50+02:00</time>
      </trkpt>
      <trkpt lat="45.97837" lon="6.30864">
        <ele>1369</ele>
        <time>2016-10-02T14:01:51+02:00</time>
      </trkpt>
      <trkpt lat="45.97838" lon="6.30865">
        <ele>1369</ele>
        <time>2016-10-02T14:01:53+02:00</time>
      </trkpt>
      <trkpt lat="45.97839" lon="6.30867">
        <ele>1369</ele>
        <time>2016-10-02T14:01:54+02:00</time>
      </trkpt>
      <trkpt lat="45.9784" lon="6.30868">
        <ele>1369</ele>
        <time>2016-10-02T14:01:55+02:00</time>
      </trkpt>
      <trkpt lat="45.9784" lon="6.3087">
        <ele>1369</ele>
        <time>2016-10-02T14:01:56+02:00</time>
      </trkpt>
      <trkpt lat="45.97841" lon="6.30872">
        <ele>1369</ele>
        <time>2016-10-02T14:01:57+02:00</time>
      </trkpt>
      <trkpt lat="45.97843" lon="6.30873">
        <ele>1369</ele>
        <time>2016-10-02T14:01:58+02:00</time>
      </trkpt>
      <trkpt lat="45.97844" lon="6.30875">
        <ele>1369</ele>
        <time>2016-10-02T14:02:00+02:00</time>
      </trkpt>
      <trkpt lat="45.97845" lon="6.30876">
        <ele>1369</ele>
        <time>2016-10-02T14:02:01+02:00</time>
      </trkpt>
      <trkpt lat="45.97846" lon="6.30877">
        <ele>1369</ele>
        <time>2016-10-02T14:02:02+02:00</time>
      </trkpt>
      <trkpt lat="45.97847" lon="6.30879">
        <ele>1370</ele>
        <time>2016-10-02T14:02:03+02:00</time>
      </trkpt>
      <trkpt lat="45.97848" lon="6.3088">
        <ele>1370</ele>
        <time>2016-10-02T14:02:04+02:00</time>
      </trkpt>
      <trkpt lat="45.97849" lon="6.30882">
        <ele>1369</ele>
        <time>2016-10-02T14:02:05+02:00</time>
      </trkpt>
      <trkpt lat="45.97849" lon="6.30884">
        <ele>1369</ele>
        <time>2016-10-02T14:02:07+02:00</time>
      </trkpt>
      <trkpt lat="45.9785" lon="6.30886">
        <ele>1369</ele>
        <time>2016-10-02T14:02:08+02:00</time>
      </trkpt>
      <trkpt lat="45.97851" lon="6.30887">
        <ele>1369</ele>
        <time>2016-10-02T14:02:09+02:00</time>
      </trkpt>
      <trkpt lat="45.97851" lon="6.30888">
        <ele>1369</ele>
        <time>2016-10-02T14:02:10+02:00</time>
      </trkpt>
      <trkpt lat="45.97852" lon="6.30889">
        <ele>1369</ele>
        <time>2016-10-02T14:02:11+02:00</time>
      </trkpt>
      <trkpt lat="45.97853" lon="6.3089">
        <ele>1369</ele>
        <time>2016-10-02T14:02:12+02:00</time>
      </trkpt>
      <trkpt lat="45.97854" lon="6.30892">
        <ele>1369</ele>
        <time>2016-10-02T14:02:13+02:00</time>
      </trkpt>
      <trkpt lat="45.97855" lon="6.30893">
        <ele>1369</ele>
        <time>2016-10-02T14:02:14+02:00</time>
      </trkpt>
      <trkpt lat="45.97856" lon="6.30895">
        <ele>1369</ele>
        <time>2016-10-02T14:02:15+02:00</time>
      </trkpt>
      <trkpt lat="45.97857" lon="6.30896">
        <ele>1369</ele>
        <time>2016-10-02T14:02:16+02:00</time>
      </trkpt>
      <trkpt lat="45.97858" lon="6.30898">
        <ele>1369</ele>
        <time>2016-10-02T14:02:17+02:00</time>
      </trkpt>
      <trkpt lat="45.97858" lon="6.30899">
        <ele>1369</ele>
        <time>2016-10-02T14:02:18+02:00</time>
      </trkpt>
      <trkpt lat="45.97859" lon="6.30901">
        <ele>1369</ele>
        <time>2016-10-02T14:02:19+02:00</time>
      </trkpt>
      <trkpt lat="45.97859" lon="6.30902">
        <ele>1369</ele>
        <time>2016-10-02T14:02:20+02:00</time>
      </trkpt>
      <trkpt lat="45.9786" lon="6.30904">
        <ele>1369</ele>
        <time>2016-10-02T14:02:22+02:00</time>
      </trkpt>
      <trkpt lat="45.97861" lon="6.30905">
        <ele>1369</ele>
        <time>2016-10-02T14:02:23+02:00</time>
      </trkpt>
      <trkpt lat="45.97862" lon="6.30907">
        <ele>1369</ele>
        <time>2016-10-02T14:02:24+02:00</time>
      </trkpt>
      <trkpt lat="45.97863" lon="6.30909">
        <ele>1369</ele>
        <time>2016-10-02T14:02:25+02:00</time>
      </trkpt>
      <trkpt lat="45.97864" lon="6.3091">
        <ele>1369</ele>
        <time>2016-10-02T14:02:26+02:00</time>
      </trkpt>
      <trkpt lat="45.97864" lon="6.30912">
        <ele>1369</ele>
        <time>2016-10-02T14:02:27+02:00</time>
      </trkpt>
      <trkpt lat="45.97865" lon="6.30913">
        <ele>1369</ele>
        <time>2016-10-02T14:02:28+02:00</time>
      </trkpt>
      <trkpt lat="45.97866" lon="6.30915">
        <ele>1368</ele>
        <time>2016-10-02T14:02:29+02:00</time>
      </trkpt>
      <trkpt lat="45.97867" lon="6.30915">
        <ele>1369</ele>
        <time>2016-10-02T14:02:30+02:00</time>
      </trkpt>
      <trkpt lat="45.97868" lon="6.30916">
        <ele>1369</ele>
        <time>2016-10-02T14:02:31+02:00</time>
      </trkpt>
      <trkpt lat="45.97869" lon="6.30916">
        <ele>1369</ele>
        <time>2016-10-02T14:02:32+02:00</time>
      </trkpt>
      <trkpt lat="45.9787" lon="6.30916">
        <ele>1369</ele>
        <time>2016-10-02T14:02:33+02:00</time>
      </trkpt>
      <trkpt lat="45.97871" lon="6.30916">
        <ele>1369</ele>
        <time>2016-10-02T14:02:34+02:00</time>
      </trkpt>
      <trkpt lat="45.97872" lon="6.30915">
        <ele>1370</ele>
        <time>2016-10-02T14:02:34+02:00</time>
      </trkpt>
      <trkpt lat="45.97873" lon="6.30916">
        <ele>1370</ele>
        <time>2016-10-02T14:02:35+02:00</time>
      </trkpt>
      <trkpt lat="45.97875" lon="6.30917">
        <ele>1370</ele>
        <time>2016-10-02T14:02:37+02:00</time>
      </trkpt>
      <trkpt lat="45.97876" lon="6.30918">
        <ele>1370</ele>
        <time>2016-10-02T14:02:38+02:00</time>
      </trkpt>
      <trkpt lat="45.97877" lon="6.30918">
        <ele>1370</ele>
        <time>2016-10-02T14:02:39+02:00</time>
      </trkpt>
      <trkpt lat="45.97877" lon="6.30921">
        <ele>1370</ele>
        <time>2016-10-02T14:02:40+02:00</time>
      </trkpt>
      <trkpt lat="45.97878" lon="6.30922">
        <ele>1370</ele>
        <time>2016-10-02T14:02:41+02:00</time>
      </trkpt>
      <trkpt lat="45.97879" lon="6.30924">
        <ele>1370</ele>
        <time>2016-10-02T14:02:42+02:00</time>
      </trkpt>
      <trkpt lat="45.9788" lon="6.30925">
        <ele>1370</ele>
        <time>2016-10-02T14:02:43+02:00</time>
      </trkpt>
      <trkpt lat="45.97881" lon="6.30926">
        <ele>1370</ele>
        <time>2016-10-02T14:02:44+02:00</time>
      </trkpt>
      <trkpt lat="45.97882" lon="6.30928">
        <ele>1370</ele>
        <time>2016-10-02T14:02:46+02:00</time>
      </trkpt>
      <trkpt lat="45.97883" lon="6.30929">
        <ele>1370</ele>
        <time>2016-10-02T14:02:47+02:00</time>
      </trkpt>
      <trkpt lat="45.97883" lon="6.3093">
        <ele>1370</ele>
        <time>2016-10-02T14:02:47+02:00</time>
      </trkpt>
      <trkpt lat="45.97884" lon="6.30931">
        <ele>1370</ele>
        <time>2016-10-02T14:02:48+02:00</time>
      </trkpt>
      <trkpt lat="45.97885" lon="6.30933">
        <ele>1370</ele>
        <time>2016-10-02T14:02:49+02:00</time>
      </trkpt>
      <trkpt lat="45.97885" lon="6.30934">
        <ele>1370</ele>
        <time>2016-10-02T14:02:50+02:00</time>
      </trkpt>
      <trkpt lat="45.97886" lon="6.30935">
        <ele>1370</ele>
        <time>2016-10-02T14:02:51+02:00</time>
      </trkpt>
      <trkpt lat="45.97887" lon="6.30937">
        <ele>1370</ele>
        <time>2016-10-02T14:02:52+02:00</time>
      </trkpt>
      <trkpt lat="45.97888" lon="6.30938">
        <ele>1370</ele>
        <time>2016-10-02T14:02:54+02:00</time>
      </trkpt>
      <trkpt lat="45.97889" lon="6.30939">
        <ele>1370</ele>
        <time>2016-10-02T14:02:55+02:00</time>
      </trkpt>
      <trkpt lat="45.97891" lon="6.30941">
        <ele>1370</ele>
        <time>2016-10-02T14:02:56+02:00</time>
      </trkpt>
      <trkpt lat="45.97891" lon="6.30942">
        <ele>1370</ele>
        <time>2016-10-02T14:02:57+02:00</time>
      </trkpt>
      <trkpt lat="45.97892" lon="6.30943">
        <ele>1370</ele>
        <time>2016-10-02T14:02:58+02:00</time>
      </trkpt>
      <trkpt lat="45.97894" lon="6.30945">
        <ele>1370</ele>
        <time>2016-10-02T14:03:00+02:00</time>
      </trkpt>
      <trkpt lat="45.97894" lon="6.30946">
        <ele>1370</ele>
        <time>2016-10-02T14:03:00+02:00</time>
      </trkpt>
      <trkpt lat="45.97895" lon="6.30947">
        <ele>1370</ele>
        <time>2016-10-02T14:03:01+02:00</time>
      </trkpt>
      <trkpt lat="45.97896" lon="6.30949">
        <ele>1370</ele>
        <time>2016-10-02T14:03:02+02:00</time>
      </trkpt>
      <trkpt lat="45.97896" lon="6.3095">
        <ele>1370</ele>
        <time>2016-10-02T14:03:03+02:00</time>
      </trkpt>
      <trkpt lat="45.97897" lon="6.30952">
        <ele>1370</ele>
        <time>2016-10-02T14:03:04+02:00</time>
      </trkpt>
      <trkpt lat="45.97898" lon="6.30953">
        <ele>1370</ele>
        <time>2016-10-02T14:03:05+02:00</time>
      </trkpt>
      <trkpt lat="45.97899" lon="6.30954">
        <ele>1370</ele>
        <time>2016-10-02T14:03:06+02:00</time>
      </trkpt>
      <trkpt lat="45.97901" lon="6.30955">
        <ele>1370</ele>
        <time>2016-10-02T14:03:07+02:00</time>
      </trkpt>
      <trkpt lat="45.97901" lon="6.30956">
        <ele>1370</ele>
        <time>2016-10-02T14:03:08+02:00</time>
      </trkpt>
      <trkpt lat="45.97902" lon="6.30957">
        <ele>1370</ele>
        <time>2016-10-02T14:03:09+02:00</time>
      </trkpt>
      <trkpt lat="45.97903" lon="6.30958">
        <ele>1370</ele>
        <time>2016-10-02T14:03:10+02:00</time>
      </trkpt>
      <trkpt lat="45.97904" lon="6.30959">
        <ele>1370</ele>
        <time>2016-10-02T14:03:11+02:00</time>
      </trkpt>
      <trkpt lat="45.97905" lon="6.3096">
        <ele>1370</ele>
        <time>2016-10-02T14:03:12+02:00</time>
      </trkpt>
      <trkpt lat="45.97906" lon="6.30961">
        <ele>1371</ele>
        <time>2016-10-02T14:03:13+02:00</time>
      </trkpt>
      <trkpt lat="45.97907" lon="6.30962">
        <ele>1371</ele>
        <time>2016-10-02T14:03:14+02:00</time>
      </trkpt>
      <trkpt lat="45.97908" lon="6.30963">
        <ele>1371</ele>
        <time>2016-10-02T14:03:15+02:00</time>
      </trkpt>
      <trkpt lat="45.97909" lon="6.30964">
        <ele>1370</ele>
        <time>2016-10-02T14:03:16+02:00</time>
      </trkpt>
      <trkpt lat="45.9791" lon="6.30966">
        <ele>1370</ele>
        <time>2016-10-02T14:03:17+02:00</time>
      </trkpt>
      <trkpt lat="45.97911" lon="6.30967">
        <ele>1370</ele>
        <time>2016-10-02T14:03:18+02:00</time>
      </trkpt>
      <trkpt lat="45.97912" lon="6.30969">
        <ele>1370</ele>
        <time>2016-10-02T14:03:20+02:00</time>
      </trkpt>
      <trkpt lat="45.97913" lon="6.3097">
        <ele>1370</ele>
        <time>2016-10-02T14:03:21+02:00</time>
      </trkpt>
      <trkpt lat="45.97914" lon="6.30971">
        <ele>1370</ele>
        <time>2016-10-02T14:03:22+02:00</time>
      </trkpt>
      <trkpt lat="45.97915" lon="6.30972">
        <ele>1370</ele>
        <time>2016-10-02T14:03:23+02:00</time>
      </trkpt>
      <trkpt lat="45.97915" lon="6.30973">
        <ele>1370</ele>
        <time>2016-10-02T14:03:24+02:00</time>
      </trkpt>
      <trkpt lat="45.97917" lon="6.30975">
        <ele>1370</ele>
        <time>2016-10-02T14:03:25+02:00</time>
      </trkpt>
      <trkpt lat="45.97917" lon="6.30977">
        <ele>1370</ele>
        <time>2016-10-02T14:03:26+02:00</time>
      </trkpt>
      <trkpt lat="45.97919" lon="6.30978">
        <ele>1370</ele>
        <time>2016-10-02T14:03:27+02:00</time>
      </trkpt>
      <trkpt lat="45.9792" lon="6.30979">
        <ele>1370</ele>
        <time>2016-10-02T14:03:29+02:00</time>
      </trkpt>
      <trkpt lat="45.97921" lon="6.30981">
        <ele>1371</ele>
        <time>2016-10-02T14:03:30+02:00</time>
      </trkpt>
      <trkpt lat="45.97922" lon="6.30982">
        <ele>1371</ele>
        <time>2016-10-02T14:03:31+02:00</time>
      </trkpt>
      <trkpt lat="45.97923" lon="6.30984">
        <ele>1371</ele>
        <time>2016-10-02T14:03:32+02:00</time>
      </trkpt>
      <trkpt lat="45.97924" lon="6.30985">
        <ele>1370</ele>
        <time>2016-10-02T14:03:33+02:00</time>
      </trkpt>
      <trkpt lat="45.97924" lon="6.30987">
        <ele>1370</ele>
        <time>2016-10-02T14:03:34+02:00</time>
      </trkpt>
      <trkpt lat="45.97925" lon="6.30989">
        <ele>1370</ele>
        <time>2016-10-02T14:03:35+02:00</time>
      </trkpt>
      <trkpt lat="45.97925" lon="6.30991">
        <ele>1370</ele>
        <time>2016-10-02T14:03:36+02:00</time>
      </trkpt>
      <trkpt lat="45.97926" lon="6.30992">
        <ele>1370</ele>
        <time>2016-10-02T14:03:37+02:00</time>
      </trkpt>
      <trkpt lat="45.97926" lon="6.30994">
        <ele>1370</ele>
        <time>2016-10-02T14:03:39+02:00</time>
      </trkpt>
      <trkpt lat="45.97927" lon="6.30995">
        <ele>1370</ele>
        <time>2016-10-02T14:03:40+02:00</time>
      </trkpt>
      <trkpt lat="45.97928" lon="6.30997">
        <ele>1370</ele>
        <time>2016-10-02T14:03:41+02:00</time>
      </trkpt>
      <trkpt lat="45.97929" lon="6.30997">
        <ele>1370</ele>
        <time>2016-10-02T14:03:42+02:00</time>
      </trkpt>
      <trkpt lat="45.9793" lon="6.30997">
        <ele>1370</ele>
        <time>2016-10-02T14:03:43+02:00</time>
      </trkpt>
      <trkpt lat="45.97931" lon="6.30997">
        <ele>1370</ele>
        <time>2016-10-02T14:03:44+02:00</time>
      </trkpt>
      <trkpt lat="45.97932" lon="6.30996">
        <ele>1371</ele>
        <time>2016-10-02T14:03:45+02:00</time>
      </trkpt>
      <trkpt lat="45.97934" lon="6.30996">
        <ele>1371</ele>
        <time>2016-10-02T14:03:46+02:00</time>
      </trkpt>
      <trkpt lat="45.97935" lon="6.30997">
        <ele>1371</ele>
        <time>2016-10-02T14:03:47+02:00</time>
      </trkpt>
      <trkpt lat="45.97936" lon="6.30998">
        <ele>1371</ele>
        <time>2016-10-02T14:03:48+02:00</time>
      </trkpt>
      <trkpt lat="45.97937" lon="6.30999">
        <ele>1371</ele>
        <time>2016-10-02T14:03:49+02:00</time>
      </trkpt>
      <trkpt lat="45.97938" lon="6.31">
        <ele>1371</ele>
        <time>2016-10-02T14:03:50+02:00</time>
      </trkpt>
      <trkpt lat="45.97939" lon="6.31001">
        <ele>1371</ele>
        <time>2016-10-02T14:03:51+02:00</time>
      </trkpt>
      <trkpt lat="45.9794" lon="6.31002">
        <ele>1371</ele>
        <time>2016-10-02T14:03:52+02:00</time>
      </trkpt>
      <trkpt lat="45.97941" lon="6.31004">
        <ele>1372</ele>
        <time>2016-10-02T14:03:53+02:00</time>
      </trkpt>
      <trkpt lat="45.97942" lon="6.31006">
        <ele>1371</ele>
        <time>2016-10-02T14:03:55+02:00</time>
      </trkpt>
      <trkpt lat="45.97944" lon="6.31008">
        <ele>1371</ele>
        <time>2016-10-02T14:03:57+02:00</time>
      </trkpt>
      <trkpt lat="45.97945" lon="6.31011">
        <ele>1371</ele>
        <time>2016-10-02T14:03:58+02:00</time>
      </trkpt>
      <trkpt lat="45.97946" lon="6.31013">
        <ele>1371</ele>
        <time>2016-10-02T14:04:00+02:00</time>
      </trkpt>
      <trkpt lat="45.97947" lon="6.31015">
        <ele>1371</ele>
        <time>2016-10-02T14:04:02+02:00</time>
      </trkpt>
      <trkpt lat="45.97949" lon="6.31018">
        <ele>1371</ele>
        <time>2016-10-02T14:04:04+02:00</time>
      </trkpt>
      <trkpt lat="45.97951" lon="6.3102">
        <ele>1371</ele>
        <time>2016-10-02T14:04:05+02:00</time>
      </trkpt>
      <trkpt lat="45.97952" lon="6.31022">
        <ele>1371</ele>
        <time>2016-10-02T14:04:08+02:00</time>
      </trkpt>
      <trkpt lat="45.97954" lon="6.31025">
        <ele>1371</ele>
        <time>2016-10-02T14:04:09+02:00</time>
      </trkpt>
      <trkpt lat="45.97955" lon="6.31028">
        <ele>1371</ele>
        <time>2016-10-02T14:04:11+02:00</time>
      </trkpt>
      <trkpt lat="45.97957" lon="6.3103">
        <ele>1371</ele>
        <time>2016-10-02T14:04:13+02:00</time>
      </trkpt>
      <trkpt lat="45.97959" lon="6.31032">
        <ele>1371</ele>
        <time>2016-10-02T14:04:15+02:00</time>
      </trkpt>
      <trkpt lat="45.9796" lon="6.31034">
        <ele>1371</ele>
        <time>2016-10-02T14:04:16+02:00</time>
      </trkpt>
      <trkpt lat="45.97962" lon="6.31035">
        <ele>1371</ele>
        <time>2016-10-02T14:04:18+02:00</time>
      </trkpt>
      <trkpt lat="45.97963" lon="6.31036">
        <ele>1371</ele>
        <time>2016-10-02T14:04:19+02:00</time>
      </trkpt>
      <trkpt lat="45.97964" lon="6.31037">
        <ele>1371</ele>
        <time>2016-10-02T14:04:20+02:00</time>
      </trkpt>
      <trkpt lat="45.97965" lon="6.31039">
        <ele>1371</ele>
        <time>2016-10-02T14:04:21+02:00</time>
      </trkpt>
      <trkpt lat="45.97965" lon="6.31041">
        <ele>1371</ele>
        <time>2016-10-02T14:04:22+02:00</time>
      </trkpt>
      <trkpt lat="45.97966" lon="6.31043">
        <ele>1371</ele>
        <time>2016-10-02T14:04:23+02:00</time>
      </trkpt>
      <trkpt lat="45.97967" lon="6.31044">
        <ele>1371</ele>
        <time>2016-10-02T14:04:25+02:00</time>
      </trkpt>
      <trkpt lat="45.97968" lon="6.31045">
        <ele>1371</ele>
        <time>2016-10-02T14:04:26+02:00</time>
      </trkpt>
      <trkpt lat="45.97969" lon="6.31047">
        <ele>1371</ele>
        <time>2016-10-02T14:04:27+02:00</time>
      </trkpt>
      <trkpt lat="45.9797" lon="6.31048">
        <ele>1371</ele>
        <time>2016-10-02T14:04:28+02:00</time>
      </trkpt>
      <trkpt lat="45.97971" lon="6.31049">
        <ele>1371</ele>
        <time>2016-10-02T14:04:29+02:00</time>
      </trkpt>
      <trkpt lat="45.97972" lon="6.31051">
        <ele>1371</ele>
        <time>2016-10-02T14:04:30+02:00</time>
      </trkpt>
      <trkpt lat="45.97973" lon="6.31053">
        <ele>1371</ele>
        <time>2016-10-02T14:04:31+02:00</time>
      </trkpt>
      <trkpt lat="45.97973" lon="6.31054">
        <ele>1371</ele>
        <time>2016-10-02T14:04:32+02:00</time>
      </trkpt>
      <trkpt lat="45.97974" lon="6.31055">
        <ele>1370</ele>
        <time>2016-10-02T14:04:33+02:00</time>
      </trkpt>
      <trkpt lat="45.97975" lon="6.31057">
        <ele>1370</ele>
        <time>2016-10-02T14:04:34+02:00</time>
      </trkpt>
      <trkpt lat="45.97976" lon="6.31058">
        <ele>1370</ele>
        <time>2016-10-02T14:04:35+02:00</time>
      </trkpt>
      <trkpt lat="45.97977" lon="6.31059">
        <ele>1370</ele>
        <time>2016-10-02T14:04:37+02:00</time>
      </trkpt>
      <trkpt lat="45.97978" lon="6.31061">
        <ele>1370</ele>
        <time>2016-10-02T14:04:38+02:00</time>
      </trkpt>
      <trkpt lat="45.97979" lon="6.31063">
        <ele>1370</ele>
        <time>2016-10-02T14:04:39+02:00</time>
      </trkpt>
      <trkpt lat="45.9798" lon="6.31064">
        <ele>1370</ele>
        <time>2016-10-02T14:04:40+02:00</time>
      </trkpt>
      <trkpt lat="45.97982" lon="6.31065">
        <ele>1370</ele>
        <time>2016-10-02T14:04:41+02:00</time>
      </trkpt>
      <trkpt lat="45.97983" lon="6.31065">
        <ele>1370</ele>
        <time>2016-10-02T14:04:42+02:00</time>
      </trkpt>
      <trkpt lat="45.97984" lon="6.31066">
        <ele>1370</ele>
        <time>2016-10-02T14:04:43+02:00</time>
      </trkpt>
      <trkpt lat="45.97985" lon="6.31067">
        <ele>1370</ele>
        <time>2016-10-02T14:04:44+02:00</time>
      </trkpt>
      <trkpt lat="45.97986" lon="6.31069">
        <ele>1370</ele>
        <time>2016-10-02T14:04:46+02:00</time>
      </trkpt>
      <trkpt lat="45.97987" lon="6.3107">
        <ele>1370</ele>
        <time>2016-10-02T14:04:46+02:00</time>
      </trkpt>
      <trkpt lat="45.97988" lon="6.31071">
        <ele>1370</ele>
        <time>2016-10-02T14:04:48+02:00</time>
      </trkpt>
      <trkpt lat="45.97989" lon="6.31072">
        <ele>1370</ele>
        <time>2016-10-02T14:04:49+02:00</time>
      </trkpt>
      <trkpt lat="45.9799" lon="6.31073">
        <ele>1370</ele>
        <time>2016-10-02T14:04:50+02:00</time>
      </trkpt>
      <trkpt lat="45.97991" lon="6.31074">
        <ele>1370</ele>
        <time>2016-10-02T14:04:51+02:00</time>
      </trkpt>
      <trkpt lat="45.97992" lon="6.31075">
        <ele>1370</ele>
        <time>2016-10-02T14:04:52+02:00</time>
      </trkpt>
      <trkpt lat="45.97993" lon="6.31076">
        <ele>1370</ele>
        <time>2016-10-02T14:04:53+02:00</time>
      </trkpt>
      <trkpt lat="45.97994" lon="6.31076">
        <ele>1370</ele>
        <time>2016-10-02T14:04:54+02:00</time>
      </trkpt>
      <trkpt lat="45.97996" lon="6.31077">
        <ele>1370</ele>
        <time>2016-10-02T14:04:55+02:00</time>
      </trkpt>
      <trkpt lat="45.97997" lon="6.31078">
        <ele>1370</ele>
        <time>2016-10-02T14:04:56+02:00</time>
      </trkpt>
      <trkpt lat="45.97998" lon="6.31079">
        <ele>1370</ele>
        <time>2016-10-02T14:04:57+02:00</time>
      </trkpt>
      <trkpt lat="45.97999" lon="6.3108">
        <ele>1370</ele>
        <time>2016-10-02T14:04:58+02:00</time>
      </trkpt>
      <trkpt lat="45.98" lon="6.31081">
        <ele>1370</ele>
        <time>2016-10-02T14:04:59+02:00</time>
      </trkpt>
      <trkpt lat="45.98001" lon="6.31083">
        <ele>1370</ele>
        <time>2016-10-02T14:05:00+02:00</time>
      </trkpt>
      <trkpt lat="45.98002" lon="6.31084">
        <ele>1370</ele>
        <time>2016-10-02T14:05:01+02:00</time>
      </trkpt>
      <trkpt lat="45.98004" lon="6.31085">
        <ele>1371</ele>
        <time>2016-10-02T14:05:03+02:00</time>
      </trkpt>
      <trkpt lat="45.98006" lon="6.31086">
        <ele>1371</ele>
        <time>2016-10-02T14:05:05+02:00</time>
      </trkpt>
      <trkpt lat="45.98007" lon="6.31086">
        <ele>1371</ele>
        <time>2016-10-02T14:05:06+02:00</time>
      </trkpt>
      <trkpt lat="45.98009" lon="6.31087">
        <ele>1372</ele>
        <time>2016-10-02T14:05:07+02:00</time>
      </trkpt>
      <trkpt lat="45.9801" lon="6.31087">
        <ele>1372</ele>
        <time>2016-10-02T14:05:08+02:00</time>
      </trkpt>
      <trkpt lat="45.98011" lon="6.31087">
        <ele>1372</ele>
        <time>2016-10-02T14:05:09+02:00</time>
      </trkpt>
      <trkpt lat="45.98013" lon="6.31087">
        <ele>1372</ele>
        <time>2016-10-02T14:05:11+02:00</time>
      </trkpt>
      <trkpt lat="45.98014" lon="6.31086">
        <ele>1373</ele>
        <time>2016-10-02T14:05:12+02:00</time>
      </trkpt>
      <trkpt lat="45.98016" lon="6.31085">
        <ele>1373</ele>
        <time>2016-10-02T14:05:13+02:00</time>
      </trkpt>
      <trkpt lat="45.98017" lon="6.31085">
        <ele>1374</ele>
        <time>2016-10-02T14:05:14+02:00</time>
      </trkpt>
      <trkpt lat="45.98018" lon="6.31084">
        <ele>1374</ele>
        <time>2016-10-02T14:05:15+02:00</time>
      </trkpt>
      <trkpt lat="45.98019" lon="6.31083">
        <ele>1374</ele>
        <time>2016-10-02T14:05:16+02:00</time>
      </trkpt>
      <trkpt lat="45.9802" lon="6.31082">
        <ele>1375</ele>
        <time>2016-10-02T14:05:17+02:00</time>
      </trkpt>
      <trkpt lat="45.98022" lon="6.31081">
        <ele>1375</ele>
        <time>2016-10-02T14:05:19+02:00</time>
      </trkpt>
      <trkpt lat="45.98024" lon="6.3108">
        <ele>1376</ele>
        <time>2016-10-02T14:05:20+02:00</time>
      </trkpt>
      <trkpt lat="45.98024" lon="6.31079">
        <ele>1376</ele>
        <time>2016-10-02T14:05:21+02:00</time>
      </trkpt>
      <trkpt lat="45.98025" lon="6.31077">
        <ele>1377</ele>
        <time>2016-10-02T14:05:23+02:00</time>
      </trkpt>
      <trkpt lat="45.98026" lon="6.31075">
        <ele>1377</ele>
        <time>2016-10-02T14:05:24+02:00</time>
      </trkpt>
      <trkpt lat="45.98027" lon="6.31074">
        <ele>1378</ele>
        <time>2016-10-02T14:05:25+02:00</time>
      </trkpt>
      <trkpt lat="45.98027" lon="6.31073">
        <ele>1378</ele>
        <time>2016-10-02T14:05:26+02:00</time>
      </trkpt>
      <trkpt lat="45.98028" lon="6.31074">
        <ele>1378</ele>
        <time>2016-10-02T14:05:26+02:00</time>
      </trkpt>
      <trkpt lat="45.9803" lon="6.31074">
        <ele>1378</ele>
        <time>2016-10-02T14:05:27+02:00</time>
      </trkpt>
      <trkpt lat="45.98031" lon="6.31074">
        <ele>1379</ele>
        <time>2016-10-02T14:05:28+02:00</time>
      </trkpt>
      <trkpt lat="45.98032" lon="6.31073">
        <ele>1379</ele>
        <time>2016-10-02T14:05:29+02:00</time>
      </trkpt>
      <trkpt lat="45.98032" lon="6.31072">
        <ele>1379</ele>
        <time>2016-10-02T14:05:30+02:00</time>
      </trkpt>
      <trkpt lat="45.98033" lon="6.31071">
        <ele>1380</ele>
        <time>2016-10-02T14:05:31+02:00</time>
      </trkpt>
      <trkpt lat="45.98034" lon="6.3107">
        <ele>1380</ele>
        <time>2016-10-02T14:05:32+02:00</time>
      </trkpt>
      <trkpt lat="45.98035" lon="6.31069">
        <ele>1381</ele>
        <time>2016-10-02T14:05:33+02:00</time>
      </trkpt>
      <trkpt lat="45.98036" lon="6.31068">
        <ele>1381</ele>
        <time>2016-10-02T14:05:34+02:00</time>
      </trkpt>
      <trkpt lat="45.98037" lon="6.31067">
        <ele>1381</ele>
        <time>2016-10-02T14:05:35+02:00</time>
      </trkpt>
      <trkpt lat="45.98037" lon="6.31065">
        <ele>1382</ele>
        <time>2016-10-02T14:05:36+02:00</time>
      </trkpt>
      <trkpt lat="45.98038" lon="6.31064">
        <ele>1382</ele>
        <time>2016-10-02T14:05:37+02:00</time>
      </trkpt>
      <trkpt lat="45.98039" lon="6.31063">
        <ele>1383</ele>
        <time>2016-10-02T14:05:38+02:00</time>
      </trkpt>
      <trkpt lat="45.98039" lon="6.31062">
        <ele>1383</ele>
        <time>2016-10-02T14:05:39+02:00</time>
      </trkpt>
      <trkpt lat="45.9804" lon="6.31061">
        <ele>1384</ele>
        <time>2016-10-02T14:05:40+02:00</time>
      </trkpt>
      <trkpt lat="45.98041" lon="6.31059">
        <ele>1384</ele>
        <time>2016-10-02T14:05:40+02:00</time>
      </trkpt>
      <trkpt lat="45.98042" lon="6.31058">
        <ele>1384</ele>
        <time>2016-10-02T14:05:42+02:00</time>
      </trkpt>
      <trkpt lat="45.98042" lon="6.31057">
        <ele>1385</ele>
        <time>2016-10-02T14:05:42+02:00</time>
      </trkpt>
      <trkpt lat="45.98043" lon="6.31056">
        <ele>1385</ele>
        <time>2016-10-02T14:05:43+02:00</time>
      </trkpt>
      <trkpt lat="45.98044" lon="6.31055">
        <ele>1386</ele>
        <time>2016-10-02T14:05:44+02:00</time>
      </trkpt>
      <trkpt lat="45.98045" lon="6.31054">
        <ele>1386</ele>
        <time>2016-10-02T14:05:45+02:00</time>
      </trkpt>
      <trkpt lat="45.98046" lon="6.31053">
        <ele>1387</ele>
        <time>2016-10-02T14:05:47+02:00</time>
      </trkpt>
      <trkpt lat="45.98047" lon="6.31054">
        <ele>1387</ele>
        <time>2016-10-02T14:05:48+02:00</time>
      </trkpt>
      <trkpt lat="45.98049" lon="6.31054">
        <ele>1387</ele>
        <time>2016-10-02T14:05:49+02:00</time>
      </trkpt>
      <trkpt lat="45.9805" lon="6.31054">
        <ele>1387</ele>
        <time>2016-10-02T14:05:50+02:00</time>
      </trkpt>
      <trkpt lat="45.98051" lon="6.31054">
        <ele>1388</ele>
        <time>2016-10-02T14:05:51+02:00</time>
      </trkpt>
      <trkpt lat="45.98052" lon="6.31054">
        <ele>1388</ele>
        <time>2016-10-02T14:05:52+02:00</time>
      </trkpt>
      <trkpt lat="45.98053" lon="6.31054">
        <ele>1388</ele>
        <time>2016-10-02T14:05:53+02:00</time>
      </trkpt>
      <trkpt lat="45.98054" lon="6.31054">
        <ele>1389</ele>
        <time>2016-10-02T14:05:53+02:00</time>
      </trkpt>
      <trkpt lat="45.98055" lon="6.31054">
        <ele>1389</ele>
        <time>2016-10-02T14:05:54+02:00</time>
      </trkpt>
      <trkpt lat="45.98057" lon="6.31055">
        <ele>1389</ele>
        <time>2016-10-02T14:05:56+02:00</time>
      </trkpt>
      <trkpt lat="45.98058" lon="6.31055">
        <ele>1389</ele>
        <time>2016-10-02T14:05:57+02:00</time>
      </trkpt>
      <trkpt lat="45.98059" lon="6.31056">
        <ele>1389</ele>
        <time>2016-10-02T14:05:58+02:00</time>
      </trkpt>
      <trkpt lat="45.9806" lon="6.31057">
        <ele>1389</ele>
        <time>2016-10-02T14:05:59+02:00</time>
      </trkpt>
      <trkpt lat="45.98061" lon="6.31057">
        <ele>1389</ele>
        <time>2016-10-02T14:06:00+02:00</time>
      </trkpt>
      <trkpt lat="45.98062" lon="6.31058">
        <ele>1389</ele>
        <time>2016-10-02T14:06:00+02:00</time>
      </trkpt>
      <trkpt lat="45.98063" lon="6.3106">
        <ele>1389</ele>
        <time>2016-10-02T14:06:02+02:00</time>
      </trkpt>
      <trkpt lat="45.98064" lon="6.31061">
        <ele>1389</ele>
        <time>2016-10-02T14:06:03+02:00</time>
      </trkpt>
      <trkpt lat="45.98066" lon="6.31062">
        <ele>1389</ele>
        <time>2016-10-02T14:06:04+02:00</time>
      </trkpt>
      <trkpt lat="45.98067" lon="6.31063">
        <ele>1389</ele>
        <time>2016-10-02T14:06:05+02:00</time>
      </trkpt>
      <trkpt lat="45.98068" lon="6.31064">
        <ele>1390</ele>
        <time>2016-10-02T14:06:06+02:00</time>
      </trkpt>
      <trkpt lat="45.9807" lon="6.31065">
        <ele>1390</ele>
        <time>2016-10-02T14:06:08+02:00</time>
      </trkpt>
      <trkpt lat="45.98071" lon="6.31066">
        <ele>1390</ele>
        <time>2016-10-02T14:06:09+02:00</time>
      </trkpt>
      <trkpt lat="45.98072" lon="6.31068">
        <ele>1389</ele>
        <time>2016-10-02T14:06:10+02:00</time>
      </trkpt>
      <trkpt lat="45.98073" lon="6.31069">
        <ele>1389</ele>
        <time>2016-10-02T14:06:11+02:00</time>
      </trkpt>
      <trkpt lat="45.98074" lon="6.3107">
        <ele>1389</ele>
        <time>2016-10-02T14:06:12+02:00</time>
      </trkpt>
      <trkpt lat="45.98075" lon="6.31072">
        <ele>1389</ele>
        <time>2016-10-02T14:06:13+02:00</time>
      </trkpt>
      <trkpt lat="45.98076" lon="6.31073">
        <ele>1389</ele>
        <time>2016-10-02T14:06:14+02:00</time>
      </trkpt>
      <trkpt lat="45.98077" lon="6.31075">
        <ele>1389</ele>
        <time>2016-10-02T14:06:16+02:00</time>
      </trkpt>
      <trkpt lat="45.98078" lon="6.31076">
        <ele>1389</ele>
        <time>2016-10-02T14:06:17+02:00</time>
      </trkpt>
      <trkpt lat="45.98079" lon="6.31077">
        <ele>1389</ele>
        <time>2016-10-02T14:06:18+02:00</time>
      </trkpt>
      <trkpt lat="45.98079" lon="6.31079">
        <ele>1388</ele>
        <time>2016-10-02T14:06:19+02:00</time>
      </trkpt>
      <trkpt lat="45.9808" lon="6.3108">
        <ele>1388</ele>
        <time>2016-10-02T14:06:19+02:00</time>
      </trkpt>
      <trkpt lat="45.98081" lon="6.31081">
        <ele>1388</ele>
        <time>2016-10-02T14:06:20+02:00</time>
      </trkpt>
      <trkpt lat="45.98082" lon="6.31082">
        <ele>1388</ele>
        <time>2016-10-02T14:06:21+02:00</time>
      </trkpt>
      <trkpt lat="45.98083" lon="6.31082">
        <ele>1388</ele>
        <time>2016-10-02T14:06:22+02:00</time>
      </trkpt>
      <trkpt lat="45.98085" lon="6.31084">
        <ele>1388</ele>
        <time>2016-10-02T14:06:24+02:00</time>
      </trkpt>
      <trkpt lat="45.98086" lon="6.31085">
        <ele>1389</ele>
        <time>2016-10-02T14:06:25+02:00</time>
      </trkpt>
      <trkpt lat="45.98087" lon="6.31086">
        <ele>1389</ele>
        <time>2016-10-02T14:06:26+02:00</time>
      </trkpt>
      <trkpt lat="45.98089" lon="6.31086">
        <ele>1389</ele>
        <time>2016-10-02T14:06:27+02:00</time>
      </trkpt>
      <trkpt lat="45.9809" lon="6.31086">
        <ele>1390</ele>
        <time>2016-10-02T14:06:28+02:00</time>
      </trkpt>
      <trkpt lat="45.98091" lon="6.31087">
        <ele>1390</ele>
        <time>2016-10-02T14:06:29+02:00</time>
      </trkpt>
      <trkpt lat="45.98092" lon="6.31087">
        <ele>1390</ele>
        <time>2016-10-02T14:06:30+02:00</time>
      </trkpt>
      <trkpt lat="45.98094" lon="6.31087">
        <ele>1391</ele>
        <time>2016-10-02T14:06:31+02:00</time>
      </trkpt>
      <trkpt lat="45.98094" lon="6.31089">
        <ele>1391</ele>
        <time>2016-10-02T14:06:32+02:00</time>
      </trkpt>
      <trkpt lat="45.98095" lon="6.31091">
        <ele>1390</ele>
        <time>2016-10-02T14:06:34+02:00</time>
      </trkpt>
      <trkpt lat="45.98096" lon="6.31092">
        <ele>1390</ele>
        <time>2016-10-02T14:06:35+02:00</time>
      </trkpt>
      <trkpt lat="45.98097" lon="6.31094">
        <ele>1390</ele>
        <time>2016-10-02T14:06:36+02:00</time>
      </trkpt>
      <trkpt lat="45.98098" lon="6.31096">
        <ele>1390</ele>
        <time>2016-10-02T14:06:37+02:00</time>
      </trkpt>
      <trkpt lat="45.98099" lon="6.31097">
        <ele>1390</ele>
        <time>2016-10-02T14:06:38+02:00</time>
      </trkpt>
      <trkpt lat="45.981" lon="6.31098">
        <ele>1391</ele>
        <time>2016-10-02T14:06:39+02:00</time>
      </trkpt>
      <trkpt lat="45.98101" lon="6.31099">
        <ele>1391</ele>
        <time>2016-10-02T14:06:40+02:00</time>
      </trkpt>
      <trkpt lat="45.98102" lon="6.31099">
        <ele>1391</ele>
        <time>2016-10-02T14:06:41+02:00</time>
      </trkpt>
      <trkpt lat="45.98104" lon="6.311">
        <ele>1391</ele>
        <time>2016-10-02T14:06:42+02:00</time>
      </trkpt>
      <trkpt lat="45.98105" lon="6.31101">
        <ele>1391</ele>
        <time>2016-10-02T14:06:44+02:00</time>
      </trkpt>
      <trkpt lat="45.98106" lon="6.31101">
        <ele>1392</ele>
        <time>2016-10-02T14:06:45+02:00</time>
      </trkpt>
      <trkpt lat="45.98108" lon="6.31102">
        <ele>1392</ele>
        <time>2016-10-02T14:06:46+02:00</time>
      </trkpt>
      <trkpt lat="45.98109" lon="6.31102">
        <ele>1392</ele>
        <time>2016-10-02T14:06:47+02:00</time>
      </trkpt>
      <trkpt lat="45.9811" lon="6.31102">
        <ele>1392</ele>
        <time>2016-10-02T14:06:48+02:00</time>
      </trkpt>
      <trkpt lat="45.98111" lon="6.31103">
        <ele>1393</ele>
        <time>2016-10-02T14:06:48+02:00</time>
      </trkpt>
      <trkpt lat="45.98112" lon="6.31104">
        <ele>1393</ele>
        <time>2016-10-02T14:06:49+02:00</time>
      </trkpt>
      <trkpt lat="45.98112" lon="6.31105">
        <ele>1393</ele>
        <time>2016-10-02T14:06:51+02:00</time>
      </trkpt>
      <trkpt lat="45.98114" lon="6.31107">
        <ele>1393</ele>
        <time>2016-10-02T14:06:52+02:00</time>
      </trkpt>
      <trkpt lat="45.98115" lon="6.31108">
        <ele>1393</ele>
        <time>2016-10-02T14:06:53+02:00</time>
      </trkpt>
      <trkpt lat="45.98116" lon="6.31109">
        <ele>1393</ele>
        <time>2016-10-02T14:06:54+02:00</time>
      </trkpt>
      <trkpt lat="45.98117" lon="6.3111">
        <ele>1393</ele>
        <time>2016-10-02T14:06:55+02:00</time>
      </trkpt>
      <trkpt lat="45.98118" lon="6.31111">
        <ele>1393</ele>
        <time>2016-10-02T14:06:56+02:00</time>
      </trkpt>
      <trkpt lat="45.98119" lon="6.31112">
        <ele>1393</ele>
        <time>2016-10-02T14:06:57+02:00</time>
      </trkpt>
      <trkpt lat="45.98121" lon="6.31113">
        <ele>1393</ele>
        <time>2016-10-02T14:06:59+02:00</time>
      </trkpt>
      <trkpt lat="45.98122" lon="6.31115">
        <ele>1393</ele>
        <time>2016-10-02T14:07:00+02:00</time>
      </trkpt>
      <trkpt lat="45.98124" lon="6.31118">
        <ele>1393</ele>
        <time>2016-10-02T14:07:02+02:00</time>
      </trkpt>
      <trkpt lat="45.98125" lon="6.3112">
        <ele>1393</ele>
        <time>2016-10-02T14:07:04+02:00</time>
      </trkpt>
      <trkpt lat="45.98127" lon="6.31122">
        <ele>1393</ele>
        <time>2016-10-02T14:07:06+02:00</time>
      </trkpt>
      <trkpt lat="45.98129" lon="6.31124">
        <ele>1393</ele>
        <time>2016-10-02T14:07:07+02:00</time>
      </trkpt>
      <trkpt lat="45.98131" lon="6.31126">
        <ele>1393</ele>
        <time>2016-10-02T14:07:09+02:00</time>
      </trkpt>
      <trkpt lat="45.98133" lon="6.31128">
        <ele>1393</ele>
        <time>2016-10-02T14:07:11+02:00</time>
      </trkpt>
      <trkpt lat="45.98135" lon="6.31129">
        <ele>1393</ele>
        <time>2016-10-02T14:07:13+02:00</time>
      </trkpt>
      <trkpt lat="45.98136" lon="6.3113">
        <ele>1393</ele>
        <time>2016-10-02T14:07:14+02:00</time>
      </trkpt>
      <trkpt lat="45.98138" lon="6.31132">
        <ele>1393</ele>
        <time>2016-10-02T14:07:16+02:00</time>
      </trkpt>
      <trkpt lat="45.98139" lon="6.31134">
        <ele>1392</ele>
        <time>2016-10-02T14:07:18+02:00</time>
      </trkpt>
      <trkpt lat="45.9814" lon="6.31137">
        <ele>1392</ele>
        <time>2016-10-02T14:07:19+02:00</time>
      </trkpt>
      <trkpt lat="45.98142" lon="6.31139">
        <ele>1392</ele>
        <time>2016-10-02T14:07:21+02:00</time>
      </trkpt>
      <trkpt lat="45.98143" lon="6.31141">
        <ele>1391</ele>
        <time>2016-10-02T14:07:22+02:00</time>
      </trkpt>
      <trkpt lat="45.98144" lon="6.31144">
        <ele>1391</ele>
        <time>2016-10-02T14:07:24+02:00</time>
      </trkpt>
      <trkpt lat="45.98145" lon="6.31146">
        <ele>1390</ele>
        <time>2016-10-02T14:07:26+02:00</time>
      </trkpt>
      <trkpt lat="45.98147" lon="6.31149">
        <ele>1390</ele>
        <time>2016-10-02T14:07:28+02:00</time>
      </trkpt>
      <trkpt lat="45.98149" lon="6.31151">
        <ele>1390</ele>
        <time>2016-10-02T14:07:30+02:00</time>
      </trkpt>
      <trkpt lat="45.9815" lon="6.31153">
        <ele>1390</ele>
        <time>2016-10-02T14:07:31+02:00</time>
      </trkpt>
      <trkpt lat="45.98152" lon="6.31154">
        <ele>1389</ele>
        <time>2016-10-02T14:07:33+02:00</time>
      </trkpt>
      <trkpt lat="45.98153" lon="6.31156">
        <ele>1389</ele>
        <time>2016-10-02T14:07:34+02:00</time>
      </trkpt>
      <trkpt lat="45.98155" lon="6.31157">
        <ele>1389</ele>
        <time>2016-10-02T14:07:36+02:00</time>
      </trkpt>
      <trkpt lat="45.98156" lon="6.31158">
        <ele>1389</ele>
        <time>2016-10-02T14:07:37+02:00</time>
      </trkpt>
      <trkpt lat="45.98158" lon="6.31159">
        <ele>1389</ele>
        <time>2016-10-02T14:07:39+02:00</time>
      </trkpt>
      <trkpt lat="45.9816" lon="6.31161">
        <ele>1389</ele>
        <time>2016-10-02T14:07:40+02:00</time>
      </trkpt>
      <trkpt lat="45.98162" lon="6.31162">
        <ele>1389</ele>
        <time>2016-10-02T14:07:42+02:00</time>
      </trkpt>
      <trkpt lat="45.98164" lon="6.31162">
        <ele>1389</ele>
        <time>2016-10-02T14:07:43+02:00</time>
      </trkpt>
      <trkpt lat="45.98166" lon="6.31162">
        <ele>1389</ele>
        <time>2016-10-02T14:07:45+02:00</time>
      </trkpt>
      <trkpt lat="45.98168" lon="6.31163">
        <ele>1389</ele>
        <time>2016-10-02T14:07:47+02:00</time>
      </trkpt>
      <trkpt lat="45.9817" lon="6.31165">
        <ele>1389</ele>
        <time>2016-10-02T14:07:49+02:00</time>
      </trkpt>
      <trkpt lat="45.98171" lon="6.31167">
        <ele>1389</ele>
        <time>2016-10-02T14:07:50+02:00</time>
      </trkpt>
      <trkpt lat="45.98172" lon="6.31169">
        <ele>1389</ele>
        <time>2016-10-02T14:07:52+02:00</time>
      </trkpt>
      <trkpt lat="45.98173" lon="6.31172">
        <ele>1389</ele>
        <time>2016-10-02T14:07:54+02:00</time>
      </trkpt>
      <trkpt lat="45.98174" lon="6.31175">
        <ele>1389</ele>
        <time>2016-10-02T14:07:55+02:00</time>
      </trkpt>
      <trkpt lat="45.98175" lon="6.31177">
        <ele>1389</ele>
        <time>2016-10-02T14:07:57+02:00</time>
      </trkpt>
      <trkpt lat="45.98177" lon="6.3118">
        <ele>1389</ele>
        <time>2016-10-02T14:07:59+02:00</time>
      </trkpt>
      <trkpt lat="45.98178" lon="6.31182">
        <ele>1389</ele>
        <time>2016-10-02T14:08:00+02:00</time>
      </trkpt>
      <trkpt lat="45.9818" lon="6.31183">
        <ele>1390</ele>
        <time>2016-10-02T14:08:02+02:00</time>
      </trkpt>
      <trkpt lat="45.98182" lon="6.31185">
        <ele>1390</ele>
        <time>2016-10-02T14:08:04+02:00</time>
      </trkpt>
      <trkpt lat="45.98184" lon="6.31187">
        <ele>1390</ele>
        <time>2016-10-02T14:08:06+02:00</time>
      </trkpt>
      <trkpt lat="45.98185" lon="6.31188">
        <ele>1390</ele>
        <time>2016-10-02T14:08:07+02:00</time>
      </trkpt>
      <trkpt lat="45.98186" lon="6.3119">
        <ele>1390</ele>
        <time>2016-10-02T14:08:08+02:00</time>
      </trkpt>
      <trkpt lat="45.98187" lon="6.31192">
        <ele>1390</ele>
        <time>2016-10-02T14:08:10+02:00</time>
      </trkpt>
      <trkpt lat="45.98188" lon="6.31195">
        <ele>1390</ele>
        <time>2016-10-02T14:08:11+02:00</time>
      </trkpt>
      <trkpt lat="45.98189" lon="6.31197">
        <ele>1390</ele>
        <time>2016-10-02T14:08:13+02:00</time>
      </trkpt>
      <trkpt lat="45.9819" lon="6.312">
        <ele>1390</ele>
        <time>2016-10-02T14:08:15+02:00</time>
      </trkpt>
      <trkpt lat="45.98191" lon="6.31203">
        <ele>1389</ele>
        <time>2016-10-02T14:08:16+02:00</time>
      </trkpt>
      <trkpt lat="45.98192" lon="6.31205">
        <ele>1389</ele>
        <time>2016-10-02T14:08:18+02:00</time>
      </trkpt>
      <trkpt lat="45.98193" lon="6.31208">
        <ele>1389</ele>
        <time>2016-10-02T14:08:20+02:00</time>
      </trkpt>
      <trkpt lat="45.98194" lon="6.3121">
        <ele>1389</ele>
        <time>2016-10-02T14:08:21+02:00</time>
      </trkpt>
      <trkpt lat="45.98194" lon="6.31212">
        <ele>1389</ele>
        <time>2016-10-02T14:08:22+02:00</time>
      </trkpt>
      <trkpt lat="45.98195" lon="6.31214">
        <ele>1389</ele>
        <time>2016-10-02T14:08:23+02:00</time>
      </trkpt>
      <trkpt lat="45.98196" lon="6.31216">
        <ele>1388</ele>
        <time>2016-10-02T14:08:25+02:00</time>
      </trkpt>
      <trkpt lat="45.98197" lon="6.31218">
        <ele>1388</ele>
        <time>2016-10-02T14:08:27+02:00</time>
      </trkpt>
      <trkpt lat="45.98198" lon="6.31221">
        <ele>1388</ele>
        <time>2016-10-02T14:08:28+02:00</time>
      </trkpt>
      <trkpt lat="45.98199" lon="6.31223">
        <ele>1388</ele>
        <time>2016-10-02T14:08:30+02:00</time>
      </trkpt>
      <trkpt lat="45.982" lon="6.31225">
        <ele>1388</ele>
        <time>2016-10-02T14:08:31+02:00</time>
      </trkpt>
      <trkpt lat="45.98201" lon="6.31226">
        <ele>1388</ele>
        <time>2016-10-02T14:08:32+02:00</time>
      </trkpt>
      <trkpt lat="45.98201" lon="6.31227">
        <ele>1388</ele>
        <time>2016-10-02T14:08:33+02:00</time>
      </trkpt>
      <trkpt lat="45.98202" lon="6.31229">
        <ele>1387</ele>
        <time>2016-10-02T14:08:34+02:00</time>
      </trkpt>
      <trkpt lat="45.98203" lon="6.31231">
        <ele>1387</ele>
        <time>2016-10-02T14:08:35+02:00</time>
      </trkpt>
      <trkpt lat="45.98204" lon="6.31233">
        <ele>1387</ele>
        <time>2016-10-02T14:08:37+02:00</time>
      </trkpt>
      <trkpt lat="45.98205" lon="6.31236">
        <ele>1387</ele>
        <time>2016-10-02T14:08:38+02:00</time>
      </trkpt>
      <trkpt lat="45.98207" lon="6.31239">
        <ele>1386</ele>
        <time>2016-10-02T14:08:40+02:00</time>
      </trkpt>
      <trkpt lat="45.98208" lon="6.31242">
        <ele>1386</ele>
        <time>2016-10-02T14:08:43+02:00</time>
      </trkpt>
      <trkpt lat="45.98209" lon="6.31246">
        <ele>1385</ele>
        <time>2016-10-02T14:08:45+02:00</time>
      </trkpt>
      <trkpt lat="45.9821" lon="6.3125">
        <ele>1385</ele>
        <time>2016-10-02T14:08:47+02:00</time>
      </trkpt>
      <trkpt lat="45.98211" lon="6.31253">
        <ele>1385</ele>
        <time>2016-10-02T14:08:49+02:00</time>
      </trkpt>
      <trkpt lat="45.98212" lon="6.31256">
        <ele>1385</ele>
        <time>2016-10-02T14:08:51+02:00</time>
      </trkpt>
      <trkpt lat="45.98214" lon="6.31258">
        <ele>1384</ele>
        <time>2016-10-02T14:08:53+02:00</time>
      </trkpt>
      <trkpt lat="45.98215" lon="6.31261">
        <ele>1384</ele>
        <time>2016-10-02T14:08:55+02:00</time>
      </trkpt>
      <trkpt lat="45.98216" lon="6.31264">
        <ele>1384</ele>
        <time>2016-10-02T14:08:56+02:00</time>
      </trkpt>
      <trkpt lat="45.98217" lon="6.31266">
        <ele>1384</ele>
        <time>2016-10-02T14:08:58+02:00</time>
      </trkpt>
      <trkpt lat="45.98218" lon="6.31269">
        <ele>1384</ele>
        <time>2016-10-02T14:09:00+02:00</time>
      </trkpt>
      <trkpt lat="45.9822" lon="6.31271">
        <ele>1384</ele>
        <time>2016-10-02T14:09:02+02:00</time>
      </trkpt>
      <trkpt lat="45.98221" lon="6.31274">
        <ele>1384</ele>
        <time>2016-10-02T14:09:04+02:00</time>
      </trkpt>
      <trkpt lat="45.98223" lon="6.31277">
        <ele>1384</ele>
        <time>2016-10-02T14:09:06+02:00</time>
      </trkpt>
      <trkpt lat="45.98225" lon="6.31279">
        <ele>1384</ele>
        <time>2016-10-02T14:09:08+02:00</time>
      </trkpt>
      <trkpt lat="45.98227" lon="6.31281">
        <ele>1384</ele>
        <time>2016-10-02T14:09:10+02:00</time>
      </trkpt>
      <trkpt lat="45.98229" lon="6.31284">
        <ele>1384</ele>
        <time>2016-10-02T14:09:12+02:00</time>
      </trkpt>
      <trkpt lat="45.98231" lon="6.31285">
        <ele>1384</ele>
        <time>2016-10-02T14:09:14+02:00</time>
      </trkpt>
      <trkpt lat="45.98233" lon="6.31287">
        <ele>1384</ele>
        <time>2016-10-02T14:09:15+02:00</time>
      </trkpt>
      <trkpt lat="45.98234" lon="6.31289">
        <ele>1384</ele>
        <time>2016-10-02T14:09:17+02:00</time>
      </trkpt>
      <trkpt lat="45.98237" lon="6.3129">
        <ele>1384</ele>
        <time>2016-10-02T14:09:19+02:00</time>
      </trkpt>
      <trkpt lat="45.98239" lon="6.31292">
        <ele>1384</ele>
        <time>2016-10-02T14:09:21+02:00</time>
      </trkpt>
      <trkpt lat="45.98241" lon="6.31293">
        <ele>1384</ele>
        <time>2016-10-02T14:09:23+02:00</time>
      </trkpt>
      <trkpt lat="45.98243" lon="6.31295">
        <ele>1384</ele>
        <time>2016-10-02T14:09:25+02:00</time>
      </trkpt>
      <trkpt lat="45.98244" lon="6.31297">
        <ele>1384</ele>
        <time>2016-10-02T14:09:27+02:00</time>
      </trkpt>
      <trkpt lat="45.98246" lon="6.31298">
        <ele>1384</ele>
        <time>2016-10-02T14:09:28+02:00</time>
      </trkpt>
      <trkpt lat="45.98248" lon="6.31298">
        <ele>1384</ele>
        <time>2016-10-02T14:09:30+02:00</time>
      </trkpt>
      <trkpt lat="45.9825" lon="6.31299">
        <ele>1384</ele>
        <time>2016-10-02T14:09:31+02:00</time>
      </trkpt>
      <trkpt lat="45.98252" lon="6.31301">
        <ele>1384</ele>
        <time>2016-10-02T14:09:33+02:00</time>
      </trkpt>
      <trkpt lat="45.98253" lon="6.31304">
        <ele>1384</ele>
        <time>2016-10-02T14:09:35+02:00</time>
      </trkpt>
      <trkpt lat="45.98254" lon="6.31307">
        <ele>1384</ele>
        <time>2016-10-02T14:09:37+02:00</time>
      </trkpt>
      <trkpt lat="45.98255" lon="6.3131">
        <ele>1383</ele>
        <time>2016-10-02T14:09:39+02:00</time>
      </trkpt>
      <trkpt lat="45.98256" lon="6.31312">
        <ele>1383</ele>
        <time>2016-10-02T14:09:40+02:00</time>
      </trkpt>
      <trkpt lat="45.98257" lon="6.31315">
        <ele>1383</ele>
        <time>2016-10-02T14:09:42+02:00</time>
      </trkpt>
      <trkpt lat="45.98258" lon="6.31317">
        <ele>1383</ele>
        <time>2016-10-02T14:09:43+02:00</time>
      </trkpt>
      <trkpt lat="45.98259" lon="6.31318">
        <ele>1383</ele>
        <time>2016-10-02T14:09:45+02:00</time>
      </trkpt>
      <trkpt lat="45.98261" lon="6.3132">
        <ele>1383</ele>
        <time>2016-10-02T14:09:47+02:00</time>
      </trkpt>
      <trkpt lat="45.98263" lon="6.31322">
        <ele>1383</ele>
        <time>2016-10-02T14:09:48+02:00</time>
      </trkpt>
      <trkpt lat="45.98264" lon="6.31323">
        <ele>1383</ele>
        <time>2016-10-02T14:09:50+02:00</time>
      </trkpt>
      <trkpt lat="45.98266" lon="6.31324">
        <ele>1383</ele>
        <time>2016-10-02T14:09:51+02:00</time>
      </trkpt>
      <trkpt lat="45.98267" lon="6.31325">
        <ele>1383</ele>
        <time>2016-10-02T14:09:52+02:00</time>
      </trkpt>
      <trkpt lat="45.98268" lon="6.31326">
        <ele>1383</ele>
        <time>2016-10-02T14:09:53+02:00</time>
      </trkpt>
      <trkpt lat="45.98269" lon="6.31327">
        <ele>1383</ele>
        <time>2016-10-02T14:09:54+02:00</time>
      </trkpt>
      <trkpt lat="45.98271" lon="6.31327">
        <ele>1383</ele>
        <time>2016-10-02T14:09:55+02:00</time>
      </trkpt>
      <trkpt lat="45.98272" lon="6.31328">
        <ele>1384</ele>
        <time>2016-10-02T14:09:57+02:00</time>
      </trkpt>
      <trkpt lat="45.98274" lon="6.31328">
        <ele>1384</ele>
        <time>2016-10-02T14:09:58+02:00</time>
      </trkpt>
      <trkpt lat="45.98275" lon="6.31329">
        <ele>1384</ele>
        <time>2016-10-02T14:09:59+02:00</time>
      </trkpt>
      <trkpt lat="45.98277" lon="6.31329">
        <ele>1384</ele>
        <time>2016-10-02T14:10:01+02:00</time>
      </trkpt>
      <trkpt lat="45.98278" lon="6.3133">
        <ele>1384</ele>
        <time>2016-10-02T14:10:02+02:00</time>
      </trkpt>
      <trkpt lat="45.98279" lon="6.31331">
        <ele>1384</ele>
        <time>2016-10-02T14:10:03+02:00</time>
      </trkpt>
      <trkpt lat="45.9828" lon="6.31332">
        <ele>1384</ele>
        <time>2016-10-02T14:10:04+02:00</time>
      </trkpt>
      <trkpt lat="45.98282" lon="6.31333">
        <ele>1384</ele>
        <time>2016-10-02T14:10:05+02:00</time>
      </trkpt>
      <trkpt lat="45.98283" lon="6.31334">
        <ele>1384</ele>
        <time>2016-10-02T14:10:06+02:00</time>
      </trkpt>
      <trkpt lat="45.98284" lon="6.31335">
        <ele>1384</ele>
        <time>2016-10-02T14:10:07+02:00</time>
      </trkpt>
      <trkpt lat="45.98284" lon="6.31336">
        <ele>1385</ele>
        <time>2016-10-02T14:10:08+02:00</time>
      </trkpt>
      <trkpt lat="45.98285" lon="6.31337">
        <ele>1385</ele>
        <time>2016-10-02T14:10:09+02:00</time>
      </trkpt>
      <trkpt lat="45.98286" lon="6.31339">
        <ele>1385</ele>
        <time>2016-10-02T14:10:10+02:00</time>
      </trkpt>
      <trkpt lat="45.98287" lon="6.3134">
        <ele>1385</ele>
        <time>2016-10-02T14:10:11+02:00</time>
      </trkpt>
      <trkpt lat="45.98288" lon="6.3134">
        <ele>1385</ele>
        <time>2016-10-02T14:10:12+02:00</time>
      </trkpt>
      <trkpt lat="45.98289" lon="6.31341">
        <ele>1385</ele>
        <time>2016-10-02T14:10:13+02:00</time>
      </trkpt>
      <trkpt lat="45.9829" lon="6.31342">
        <ele>1385</ele>
        <time>2016-10-02T14:10:14+02:00</time>
      </trkpt>
      <trkpt lat="45.98292" lon="6.31342">
        <ele>1385</ele>
        <time>2016-10-02T14:10:15+02:00</time>
      </trkpt>
      <trkpt lat="45.98293" lon="6.31343">
        <ele>1385</ele>
        <time>2016-10-02T14:10:16+02:00</time>
      </trkpt>
      <trkpt lat="45.98294" lon="6.31345">
        <ele>1385</ele>
        <time>2016-10-02T14:10:17+02:00</time>
      </trkpt>
      <trkpt lat="45.98296" lon="6.31346">
        <ele>1386</ele>
        <time>2016-10-02T14:10:19+02:00</time>
      </trkpt>
      <trkpt lat="45.98297" lon="6.31347">
        <ele>1386</ele>
        <time>2016-10-02T14:10:20+02:00</time>
      </trkpt>
      <trkpt lat="45.98299" lon="6.31348">
        <ele>1386</ele>
        <time>2016-10-02T14:10:21+02:00</time>
      </trkpt>
      <trkpt lat="45.983" lon="6.31349">
        <ele>1386</ele>
        <time>2016-10-02T14:10:23+02:00</time>
      </trkpt>
      <trkpt lat="45.98301" lon="6.3135">
        <ele>1386</ele>
        <time>2016-10-02T14:10:24+02:00</time>
      </trkpt>
      <trkpt lat="45.98302" lon="6.31351">
        <ele>1386</ele>
        <time>2016-10-02T14:10:24+02:00</time>
      </trkpt>
      <trkpt lat="45.98303" lon="6.31352">
        <ele>1386</ele>
        <time>2016-10-02T14:10:25+02:00</time>
      </trkpt>
      <trkpt lat="45.98304" lon="6.31352">
        <ele>1386</ele>
        <time>2016-10-02T14:10:26+02:00</time>
      </trkpt>
      <trkpt lat="45.98305" lon="6.31353">
        <ele>1386</ele>
        <time>2016-10-02T14:10:27+02:00</time>
      </trkpt>
      <trkpt lat="45.98306" lon="6.31354">
        <ele>1386</ele>
        <time>2016-10-02T14:10:28+02:00</time>
      </trkpt>
      <trkpt lat="45.98307" lon="6.31355">
        <ele>1386</ele>
        <time>2016-10-02T14:10:29+02:00</time>
      </trkpt>
      <trkpt lat="45.98309" lon="6.31355">
        <ele>1386</ele>
        <time>2016-10-02T14:10:30+02:00</time>
      </trkpt>
      <trkpt lat="45.9831" lon="6.31356">
        <ele>1387</ele>
        <time>2016-10-02T14:10:31+02:00</time>
      </trkpt>
      <trkpt lat="45.98311" lon="6.31357">
        <ele>1387</ele>
        <time>2016-10-02T14:10:33+02:00</time>
      </trkpt>
      <trkpt lat="45.98313" lon="6.31357">
        <ele>1387</ele>
        <time>2016-10-02T14:10:34+02:00</time>
      </trkpt>
      <trkpt lat="45.98314" lon="6.31358">
        <ele>1387</ele>
        <time>2016-10-02T14:10:35+02:00</time>
      </trkpt>
      <trkpt lat="45.98315" lon="6.31359">
        <ele>1387</ele>
        <time>2016-10-02T14:10:36+02:00</time>
      </trkpt>
      <trkpt lat="45.98316" lon="6.31359">
        <ele>1387</ele>
        <time>2016-10-02T14:10:37+02:00</time>
      </trkpt>
      <trkpt lat="45.98318" lon="6.31359">
        <ele>1387</ele>
        <time>2016-10-02T14:10:38+02:00</time>
      </trkpt>
      <trkpt lat="45.98319" lon="6.31359">
        <ele>1388</ele>
        <time>2016-10-02T14:10:39+02:00</time>
      </trkpt>
      <trkpt lat="45.9832" lon="6.31359">
        <ele>1388</ele>
        <time>2016-10-02T14:10:40+02:00</time>
      </trkpt>
      <trkpt lat="45.98322" lon="6.3136">
        <ele>1388</ele>
        <time>2016-10-02T14:10:42+02:00</time>
      </trkpt>
      <trkpt lat="45.98324" lon="6.31361">
        <ele>1388</ele>
        <time>2016-10-02T14:10:43+02:00</time>
      </trkpt>
      <trkpt lat="45.98325" lon="6.31362">
        <ele>1388</ele>
        <time>2016-10-02T14:10:45+02:00</time>
      </trkpt>
      <trkpt lat="45.98326" lon="6.31362">
        <ele>1388</ele>
        <time>2016-10-02T14:10:46+02:00</time>
      </trkpt>
      <trkpt lat="45.98328" lon="6.31363">
        <ele>1388</ele>
        <time>2016-10-02T14:10:47+02:00</time>
      </trkpt>
      <trkpt lat="45.98329" lon="6.31364">
        <ele>1388</ele>
        <time>2016-10-02T14:10:47+02:00</time>
      </trkpt>
      <trkpt lat="45.9833" lon="6.31364">
        <ele>1388</ele>
        <time>2016-10-02T14:10:48+02:00</time>
      </trkpt>
      <trkpt lat="45.98331" lon="6.31365">
        <ele>1389</ele>
        <time>2016-10-02T14:10:49+02:00</time>
      </trkpt>
      <trkpt lat="45.98332" lon="6.31365">
        <ele>1389</ele>
        <time>2016-10-02T14:10:51+02:00</time>
      </trkpt>
      <trkpt lat="45.98334" lon="6.31366">
        <ele>1389</ele>
        <time>2016-10-02T14:10:52+02:00</time>
      </trkpt>
      <trkpt lat="45.98335" lon="6.31367">
        <ele>1389</ele>
        <time>2016-10-02T14:10:53+02:00</time>
      </trkpt>
      <trkpt lat="45.98336" lon="6.31367">
        <ele>1389</ele>
        <time>2016-10-02T14:10:54+02:00</time>
      </trkpt>
      <trkpt lat="45.98337" lon="6.31368">
        <ele>1389</ele>
        <time>2016-10-02T14:10:55+02:00</time>
      </trkpt>
      <trkpt lat="45.98338" lon="6.31369">
        <ele>1389</ele>
        <time>2016-10-02T14:10:56+02:00</time>
      </trkpt>
      <trkpt lat="45.98339" lon="6.3137">
        <ele>1390</ele>
        <time>2016-10-02T14:10:57+02:00</time>
      </trkpt>
      <trkpt lat="45.98341" lon="6.3137">
        <ele>1390</ele>
        <time>2016-10-02T14:10:58+02:00</time>
      </trkpt>
      <trkpt lat="45.98342" lon="6.31371">
        <ele>1390</ele>
        <time>2016-10-02T14:10:59+02:00</time>
      </trkpt>
      <trkpt lat="45.98344" lon="6.31371">
        <ele>1390</ele>
        <time>2016-10-02T14:11:00+02:00</time>
      </trkpt>
      <trkpt lat="45.98345" lon="6.31372">
        <ele>1391</ele>
        <time>2016-10-02T14:11:01+02:00</time>
      </trkpt>
      <trkpt lat="45.98346" lon="6.31372">
        <ele>1391</ele>
        <time>2016-10-02T14:11:02+02:00</time>
      </trkpt>
      <trkpt lat="45.98347" lon="6.31373">
        <ele>1391</ele>
        <time>2016-10-02T14:11:03+02:00</time>
      </trkpt>
      <trkpt lat="45.98348" lon="6.31373">
        <ele>1391</ele>
        <time>2016-10-02T14:11:04+02:00</time>
      </trkpt>
      <trkpt lat="45.98349" lon="6.31373">
        <ele>1392</ele>
        <time>2016-10-02T14:11:05+02:00</time>
      </trkpt>
      <trkpt lat="45.98351" lon="6.31374">
        <ele>1392</ele>
        <time>2016-10-02T14:11:06+02:00</time>
      </trkpt>
      <trkpt lat="45.98352" lon="6.31374">
        <ele>1392</ele>
        <time>2016-10-02T14:11:07+02:00</time>
      </trkpt>
      <trkpt lat="45.98353" lon="6.31375">
        <ele>1392</ele>
        <time>2016-10-02T14:11:08+02:00</time>
      </trkpt>
      <trkpt lat="45.98354" lon="6.31375">
        <ele>1393</ele>
        <time>2016-10-02T14:11:09+02:00</time>
      </trkpt>
      <trkpt lat="45.98356" lon="6.31375">
        <ele>1393</ele>
        <time>2016-10-02T14:11:10+02:00</time>
      </trkpt>
      <trkpt lat="45.98357" lon="6.31375">
        <ele>1393</ele>
        <time>2016-10-02T14:11:11+02:00</time>
      </trkpt>
      <trkpt lat="45.98358" lon="6.31375">
        <ele>1393</ele>
        <time>2016-10-02T14:11:12+02:00</time>
      </trkpt>
      <trkpt lat="45.98359" lon="6.31376">
        <ele>1394</ele>
        <time>2016-10-02T14:11:13+02:00</time>
      </trkpt>
      <trkpt lat="45.98361" lon="6.31376">
        <ele>1394</ele>
        <time>2016-10-02T14:11:15+02:00</time>
      </trkpt>
      <trkpt lat="45.98362" lon="6.31377">
        <ele>1394</ele>
        <time>2016-10-02T14:11:16+02:00</time>
      </trkpt>
      <trkpt lat="45.98364" lon="6.31377">
        <ele>1394</ele>
        <time>2016-10-02T14:11:17+02:00</time>
      </trkpt>
      <trkpt lat="45.98365" lon="6.31378">
        <ele>1395</ele>
        <time>2016-10-02T14:11:18+02:00</time>
      </trkpt>
      <trkpt lat="45.98366" lon="6.31378">
        <ele>1395</ele>
        <time>2016-10-02T14:11:19+02:00</time>
      </trkpt>
      <trkpt lat="45.98368" lon="6.31378">
        <ele>1395</ele>
        <time>2016-10-02T14:11:21+02:00</time>
      </trkpt>
      <trkpt lat="45.98369" lon="6.31378">
        <ele>1396</ele>
        <time>2016-10-02T14:11:22+02:00</time>
      </trkpt>
      <trkpt lat="45.98371" lon="6.31378">
        <ele>1396</ele>
        <time>2016-10-02T14:11:23+02:00</time>
      </trkpt>
      <trkpt lat="45.98372" lon="6.31379">
        <ele>1396</ele>
        <time>2016-10-02T14:11:24+02:00</time>
      </trkpt>
      <trkpt lat="45.98374" lon="6.3138">
        <ele>1396</ele>
        <time>2016-10-02T14:11:26+02:00</time>
      </trkpt>
      <trkpt lat="45.98376" lon="6.31381">
        <ele>1397</ele>
        <time>2016-10-02T14:11:27+02:00</time>
      </trkpt>
      <trkpt lat="45.98377" lon="6.31381">
        <ele>1397</ele>
        <time>2016-10-02T14:11:29+02:00</time>
      </trkpt>
      <trkpt lat="45.98379" lon="6.31382">
        <ele>1397</ele>
        <time>2016-10-02T14:11:30+02:00</time>
      </trkpt>
      <trkpt lat="45.9838" lon="6.31383">
        <ele>1398</ele>
        <time>2016-10-02T14:11:31+02:00</time>
      </trkpt>
      <trkpt lat="45.98382" lon="6.31384">
        <ele>1398</ele>
        <time>2016-10-02T14:11:33+02:00</time>
      </trkpt>
      <trkpt lat="45.98384" lon="6.31385">
        <ele>1398</ele>
        <time>2016-10-02T14:11:34+02:00</time>
      </trkpt>
      <trkpt lat="45.98385" lon="6.31385">
        <ele>1398</ele>
        <time>2016-10-02T14:11:35+02:00</time>
      </trkpt>
      <trkpt lat="45.98386" lon="6.31386">
        <ele>1399</ele>
        <time>2016-10-02T14:11:36+02:00</time>
      </trkpt>
      <trkpt lat="45.98387" lon="6.31386">
        <ele>1399</ele>
        <time>2016-10-02T14:11:37+02:00</time>
      </trkpt>
      <trkpt lat="45.98388" lon="6.31388">
        <ele>1399</ele>
        <time>2016-10-02T14:11:38+02:00</time>
      </trkpt>
      <trkpt lat="45.98389" lon="6.31389">
        <ele>1399</ele>
        <time>2016-10-02T14:11:39+02:00</time>
      </trkpt>
      <trkpt lat="45.9839" lon="6.3139">
        <ele>1399</ele>
        <time>2016-10-02T14:11:40+02:00</time>
      </trkpt>
      <trkpt lat="45.98391" lon="6.31391">
        <ele>1399</ele>
        <time>2016-10-02T14:11:41+02:00</time>
      </trkpt>
      <trkpt lat="45.98392" lon="6.31392">
        <ele>1399</ele>
        <time>2016-10-02T14:11:42+02:00</time>
      </trkpt>
      <trkpt lat="45.98393" lon="6.31394">
        <ele>1399</ele>
        <time>2016-10-02T14:11:43+02:00</time>
      </trkpt>
      <trkpt lat="45.98394" lon="6.31395">
        <ele>1399</ele>
        <time>2016-10-02T14:11:45+02:00</time>
      </trkpt>
      <trkpt lat="45.98395" lon="6.31397">
        <ele>1399</ele>
        <time>2016-10-02T14:11:46+02:00</time>
      </trkpt>
      <trkpt lat="45.98396" lon="6.31398">
        <ele>1399</ele>
        <time>2016-10-02T14:11:47+02:00</time>
      </trkpt>
      <trkpt lat="45.98397" lon="6.31399">
        <ele>1399</ele>
        <time>2016-10-02T14:11:48+02:00</time>
      </trkpt>
      <trkpt lat="45.98399" lon="6.314">
        <ele>1399</ele>
        <time>2016-10-02T14:11:50+02:00</time>
      </trkpt>
      <trkpt lat="45.984" lon="6.31402">
        <ele>1399</ele>
        <time>2016-10-02T14:11:51+02:00</time>
      </trkpt>
      <trkpt lat="45.98401" lon="6.31403">
        <ele>1400</ele>
        <time>2016-10-02T14:11:52+02:00</time>
      </trkpt>
      <trkpt lat="45.98402" lon="6.31404">
        <ele>1400</ele>
        <time>2016-10-02T14:11:53+02:00</time>
      </trkpt>
      <trkpt lat="45.98403" lon="6.31405">
        <ele>1400</ele>
        <time>2016-10-02T14:11:54+02:00</time>
      </trkpt>
      <trkpt lat="45.98404" lon="6.31406">
        <ele>1400</ele>
        <time>2016-10-02T14:11:56+02:00</time>
      </trkpt>
      <trkpt lat="45.98405" lon="6.31407">
        <ele>1400</ele>
        <time>2016-10-02T14:11:57+02:00</time>
      </trkpt>
      <trkpt lat="45.98406" lon="6.31408">
        <ele>1400</ele>
        <time>2016-10-02T14:11:58+02:00</time>
      </trkpt>
      <trkpt lat="45.98408" lon="6.3141">
        <ele>1400</ele>
        <time>2016-10-02T14:11:59+02:00</time>
      </trkpt>
      <trkpt lat="45.98409" lon="6.31412">
        <ele>1400</ele>
        <time>2016-10-02T14:12:01+02:00</time>
      </trkpt>
      <trkpt lat="45.9841" lon="6.31413">
        <ele>1400</ele>
        <time>2016-10-02T14:12:02+02:00</time>
      </trkpt>
      <trkpt lat="45.98411" lon="6.31414">
        <ele>1400</ele>
        <time>2016-10-02T14:12:03+02:00</time>
      </trkpt>
      <trkpt lat="45.98411" lon="6.31416">
        <ele>1400</ele>
        <time>2016-10-02T14:12:04+02:00</time>
      </trkpt>
      <trkpt lat="45.98412" lon="6.31417">
        <ele>1400</ele>
        <time>2016-10-02T14:12:04+02:00</time>
      </trkpt>
      <trkpt lat="45.98412" lon="6.31419">
        <ele>1400</ele>
        <time>2016-10-02T14:12:05+02:00</time>
      </trkpt>
      <trkpt lat="45.98413" lon="6.3142">
        <ele>1400</ele>
        <time>2016-10-02T14:12:07+02:00</time>
      </trkpt>
      <trkpt lat="45.98413" lon="6.31422">
        <ele>1400</ele>
        <time>2016-10-02T14:12:08+02:00</time>
      </trkpt>
      <trkpt lat="45.98414" lon="6.31424">
        <ele>1400</ele>
        <time>2016-10-02T14:12:09+02:00</time>
      </trkpt>
      <trkpt lat="45.98415" lon="6.31426">
        <ele>1400</ele>
        <time>2016-10-02T14:12:10+02:00</time>
      </trkpt>
      <trkpt lat="45.98415" lon="6.31427">
        <ele>1400</ele>
        <time>2016-10-02T14:12:11+02:00</time>
      </trkpt>
      <trkpt lat="45.98416" lon="6.31429">
        <ele>1400</ele>
        <time>2016-10-02T14:12:12+02:00</time>
      </trkpt>
      <trkpt lat="45.98417" lon="6.31431">
        <ele>1400</ele>
        <time>2016-10-02T14:12:14+02:00</time>
      </trkpt>
      <trkpt lat="45.98418" lon="6.31433">
        <ele>1400</ele>
        <time>2016-10-02T14:12:15+02:00</time>
      </trkpt>
      <trkpt lat="45.98419" lon="6.31434">
        <ele>1401</ele>
        <time>2016-10-02T14:12:16+02:00</time>
      </trkpt>
      <trkpt lat="45.98419" lon="6.31436">
        <ele>1400</ele>
        <time>2016-10-02T14:12:17+02:00</time>
      </trkpt>
      <trkpt lat="45.98419" lon="6.31438">
        <ele>1400</ele>
        <time>2016-10-02T14:12:18+02:00</time>
      </trkpt>
      <trkpt lat="45.98419" lon="6.3144">
        <ele>1400</ele>
        <time>2016-10-02T14:12:19+02:00</time>
      </trkpt>
      <trkpt lat="45.9842" lon="6.31442">
        <ele>1400</ele>
        <time>2016-10-02T14:12:20+02:00</time>
      </trkpt>
      <trkpt lat="45.9842" lon="6.31443">
        <ele>1400</ele>
        <time>2016-10-02T14:12:21+02:00</time>
      </trkpt>
      <trkpt lat="45.9842" lon="6.31445">
        <ele>1400</ele>
        <time>2016-10-02T14:12:22+02:00</time>
      </trkpt>
      <trkpt lat="45.98421" lon="6.31447">
        <ele>1400</ele>
        <time>2016-10-02T14:12:24+02:00</time>
      </trkpt>
      <trkpt lat="45.98421" lon="6.31449">
        <ele>1400</ele>
        <time>2016-10-02T14:12:25+02:00</time>
      </trkpt>
      <trkpt lat="45.98421" lon="6.31451">
        <ele>1400</ele>
        <time>2016-10-02T14:12:26+02:00</time>
      </trkpt>
      <trkpt lat="45.98422" lon="6.31453">
        <ele>1400</ele>
        <time>2016-10-02T14:12:27+02:00</time>
      </trkpt>
      <trkpt lat="45.98422" lon="6.31455">
        <ele>1400</ele>
        <time>2016-10-02T14:12:28+02:00</time>
      </trkpt>
      <trkpt lat="45.98423" lon="6.31457">
        <ele>1400</ele>
        <time>2016-10-02T14:12:29+02:00</time>
      </trkpt>
      <trkpt lat="45.98423" lon="6.31459">
        <ele>1400</ele>
        <time>2016-10-02T14:12:30+02:00</time>
      </trkpt>
      <trkpt lat="45.98424" lon="6.31461">
        <ele>1400</ele>
        <time>2016-10-02T14:12:32+02:00</time>
      </trkpt>
      <trkpt lat="45.98424" lon="6.31463">
        <ele>1400</ele>
        <time>2016-10-02T14:12:33+02:00</time>
      </trkpt>
      <trkpt lat="45.98425" lon="6.31465">
        <ele>1400</ele>
        <time>2016-10-02T14:12:34+02:00</time>
      </trkpt>
      <trkpt lat="45.98426" lon="6.31467">
        <ele>1401</ele>
        <time>2016-10-02T14:12:35+02:00</time>
      </trkpt>
      <trkpt lat="45.98426" lon="6.31469">
        <ele>1401</ele>
        <time>2016-10-02T14:12:36+02:00</time>
      </trkpt>
      <trkpt lat="45.98427" lon="6.31471">
        <ele>1401</ele>
        <time>2016-10-02T14:12:38+02:00</time>
      </trkpt>
      <trkpt lat="45.98427" lon="6.31473">
        <ele>1401</ele>
        <time>2016-10-02T14:12:39+02:00</time>
      </trkpt>
      <trkpt lat="45.98428" lon="6.31474">
        <ele>1401</ele>
        <time>2016-10-02T14:12:40+02:00</time>
      </trkpt>
      <trkpt lat="45.98428" lon="6.31476">
        <ele>1401</ele>
        <time>2016-10-02T14:12:41+02:00</time>
      </trkpt>
      <trkpt lat="45.98428" lon="6.31478">
        <ele>1400</ele>
        <time>2016-10-02T14:12:42+02:00</time>
      </trkpt>
      <trkpt lat="45.98428" lon="6.3148">
        <ele>1400</ele>
        <time>2016-10-02T14:12:43+02:00</time>
      </trkpt>
      <trkpt lat="45.98428" lon="6.31481">
        <ele>1400</ele>
        <time>2016-10-02T14:12:44+02:00</time>
      </trkpt>
      <trkpt lat="45.98428" lon="6.31483">
        <ele>1400</ele>
        <time>2016-10-02T14:12:45+02:00</time>
      </trkpt>
      <trkpt lat="45.98429" lon="6.31483">
        <ele>1401</ele>
        <time>2016-10-02T14:12:46+02:00</time>
      </trkpt>
      <trkpt lat="45.98428" lon="6.31482">
        <ele>1400</ele>
        <time>2016-10-02T14:12:46+02:00</time>
      </trkpt>
      <trkpt lat="45.98428" lon="6.31483">
        <ele>1400</ele>
        <time>2016-10-02T14:12:47+02:00</time>
      </trkpt>
      <trkpt lat="45.98426" lon="6.31484">
        <ele>1400</ele>
        <time>2016-10-02T14:12:48+02:00</time>
      </trkpt>
      <trkpt lat="45.98426" lon="6.31484">
        <ele>1399</ele>
        <time>2016-10-02T14:12:49+02:00</time>
      </trkpt>
      <trkpt lat="45.98425" lon="6.31486">
        <ele>1399</ele>
        <time>2016-10-02T14:12:50+02:00</time>
      </trkpt>
      <trkpt lat="45.98424" lon="6.31486">
        <ele>1399</ele>
        <time>2016-10-02T14:12:50+02:00</time>
      </trkpt>
      <trkpt lat="45.98423" lon="6.31488">
        <ele>1399</ele>
        <time>2016-10-02T14:12:51+02:00</time>
      </trkpt>
      <trkpt lat="45.98422" lon="6.31489">
        <ele>1398</ele>
        <time>2016-10-02T14:12:53+02:00</time>
      </trkpt>
      <trkpt lat="45.98422" lon="6.31489">
        <ele>1398</ele>
        <time>2016-10-02T14:12:53+02:00</time>
      </trkpt>
      <trkpt lat="45.98421" lon="6.31489">
        <ele>1398</ele>
        <time>2016-10-02T14:12:54+02:00</time>
      </trkpt>
      <trkpt lat="45.9842" lon="6.31491">
        <ele>1398</ele>
        <time>2016-10-02T14:12:55+02:00</time>
      </trkpt>
      <trkpt lat="45.98421" lon="6.31493">
        <ele>1398</ele>
        <time>2016-10-02T14:12:56+02:00</time>
      </trkpt>
      <trkpt lat="45.98421" lon="6.31494">
        <ele>1398</ele>
        <time>2016-10-02T14:12:57+02:00</time>
      </trkpt>
      <trkpt lat="45.98421" lon="6.31497">
        <ele>1397</ele>
        <time>2016-10-02T14:12:58+02:00</time>
      </trkpt>
      <trkpt lat="45.98421" lon="6.31499">
        <ele>1397</ele>
        <time>2016-10-02T14:13:00+02:00</time>
      </trkpt>
      <trkpt lat="45.9842" lon="6.31501">
        <ele>1397</ele>
        <time>2016-10-02T14:13:01+02:00</time>
      </trkpt>
      <trkpt lat="45.9842" lon="6.31502">
        <ele>1397</ele>
        <time>2016-10-02T14:13:02+02:00</time>
      </trkpt>
      <trkpt lat="45.98419" lon="6.31503">
        <ele>1397</ele>
        <time>2016-10-02T14:13:03+02:00</time>
      </trkpt>
      <trkpt lat="45.98418" lon="6.31503">
        <ele>1396</ele>
        <time>2016-10-02T14:13:04+02:00</time>
      </trkpt>
      <trkpt lat="45.98417" lon="6.31503">
        <ele>1396</ele>
        <time>2016-10-02T14:13:04+02:00</time>
      </trkpt>
      <trkpt lat="45.98415" lon="6.31502">
        <ele>1396</ele>
        <time>2016-10-02T14:13:06+02:00</time>
      </trkpt>
      <trkpt lat="45.98413" lon="6.31503">
        <ele>1396</ele>
        <time>2016-10-02T14:13:07+02:00</time>
      </trkpt>
      <trkpt lat="45.98412" lon="6.31504">
        <ele>1395</ele>
        <time>2016-10-02T14:13:08+02:00</time>
      </trkpt>
      <trkpt lat="45.98411" lon="6.31504">
        <ele>1395</ele>
        <time>2016-10-02T14:13:09+02:00</time>
      </trkpt>
      <trkpt lat="45.9841" lon="6.31505">
        <ele>1395</ele>
        <time>2016-10-02T14:13:10+02:00</time>
      </trkpt>
      <trkpt lat="45.98409" lon="6.31506">
        <ele>1395</ele>
        <time>2016-10-02T14:13:11+02:00</time>
      </trkpt>
      <trkpt lat="45.98409" lon="6.31508">
        <ele>1395</ele>
        <time>2016-10-02T14:13:12+02:00</time>
      </trkpt>
      <trkpt lat="45.98409" lon="6.3151">
        <ele>1395</ele>
        <time>2016-10-02T14:13:14+02:00</time>
      </trkpt>
      <trkpt lat="45.9841" lon="6.31513">
        <ele>1396</ele>
        <time>2016-10-02T14:13:15+02:00</time>
      </trkpt>
      <trkpt lat="45.9841" lon="6.31514">
        <ele>1396</ele>
        <time>2016-10-02T14:13:16+02:00</time>
      </trkpt>
      <trkpt lat="45.98411" lon="6.31517">
        <ele>1396</ele>
        <time>2016-10-02T14:13:18+02:00</time>
      </trkpt>
      <trkpt lat="45.98412" lon="6.31518">
        <ele>1396</ele>
        <time>2016-10-02T14:13:18+02:00</time>
      </trkpt>
      <trkpt lat="45.98412" lon="6.3152">
        <ele>1396</ele>
        <time>2016-10-02T14:13:19+02:00</time>
      </trkpt>
      <trkpt lat="45.98412" lon="6.31521">
        <ele>1396</ele>
        <time>2016-10-02T14:13:20+02:00</time>
      </trkpt>
      <trkpt lat="45.98413" lon="6.31523">
        <ele>1396</ele>
        <time>2016-10-02T14:13:21+02:00</time>
      </trkpt>
      <trkpt lat="45.98413" lon="6.31524">
        <ele>1397</ele>
        <time>2016-10-02T14:13:22+02:00</time>
      </trkpt>
      <trkpt lat="45.98414" lon="6.31525">
        <ele>1397</ele>
        <time>2016-10-02T14:13:23+02:00</time>
      </trkpt>
      <trkpt lat="45.98414" lon="6.31527">
        <ele>1397</ele>
        <time>2016-10-02T14:13:24+02:00</time>
      </trkpt>
      <trkpt lat="45.98414" lon="6.31528">
        <ele>1397</ele>
        <time>2016-10-02T14:13:25+02:00</time>
      </trkpt>
      <trkpt lat="45.98414" lon="6.3153">
        <ele>1397</ele>
        <time>2016-10-02T14:13:25+02:00</time>
      </trkpt>
      <trkpt lat="45.98415" lon="6.31532">
        <ele>1397</ele>
        <time>2016-10-02T14:13:26+02:00</time>
      </trkpt>
      <trkpt lat="45.98415" lon="6.31533">
        <ele>1397</ele>
        <time>2016-10-02T14:13:27+02:00</time>
      </trkpt>
      <trkpt lat="45.98416" lon="6.31535">
        <ele>1397</ele>
        <time>2016-10-02T14:13:28+02:00</time>
      </trkpt>
      <trkpt lat="45.98416" lon="6.31536">
        <ele>1398</ele>
        <time>2016-10-02T14:13:29+02:00</time>
      </trkpt>
      <trkpt lat="45.98416" lon="6.31537">
        <ele>1398</ele>
        <time>2016-10-02T14:13:30+02:00</time>
      </trkpt>
      <trkpt lat="45.98417" lon="6.31539">
        <ele>1398</ele>
        <time>2016-10-02T14:13:31+02:00</time>
      </trkpt>
      <trkpt lat="45.98417" lon="6.31541">
        <ele>1398</ele>
        <time>2016-10-02T14:13:32+02:00</time>
      </trkpt>
      <trkpt lat="45.98418" lon="6.31543">
        <ele>1398</ele>
        <time>2016-10-02T14:13:34+02:00</time>
      </trkpt>
      <trkpt lat="45.98418" lon="6.31545">
        <ele>1399</ele>
        <time>2016-10-02T14:13:35+02:00</time>
      </trkpt>
      <trkpt lat="45.98419" lon="6.31546">
        <ele>1399</ele>
        <time>2016-10-02T14:13:36+02:00</time>
      </trkpt>
      <trkpt lat="45.9842" lon="6.31547">
        <ele>1399</ele>
        <time>2016-10-02T14:13:36+02:00</time>
      </trkpt>
      <trkpt lat="45.9842" lon="6.31549">
        <ele>1399</ele>
        <time>2016-10-02T14:13:37+02:00</time>
      </trkpt>
      <trkpt lat="45.98421" lon="6.3155">
        <ele>1399</ele>
        <time>2016-10-02T14:13:38+02:00</time>
      </trkpt>
      <trkpt lat="45.98422" lon="6.31552">
        <ele>1400</ele>
        <time>2016-10-02T14:13:40+02:00</time>
      </trkpt>
      <trkpt lat="45.98423" lon="6.31554">
        <ele>1400</ele>
        <time>2016-10-02T14:13:41+02:00</time>
      </trkpt>
      <trkpt lat="45.98423" lon="6.31556">
        <ele>1400</ele>
        <time>2016-10-02T14:13:42+02:00</time>
      </trkpt>
      <trkpt lat="45.98424" lon="6.31557">
        <ele>1400</ele>
        <time>2016-10-02T14:13:43+02:00</time>
      </trkpt>
      <trkpt lat="45.98424" lon="6.31559">
        <ele>1401</ele>
        <time>2016-10-02T14:13:44+02:00</time>
      </trkpt>
      <trkpt lat="45.98425" lon="6.31561">
        <ele>1401</ele>
        <time>2016-10-02T14:13:45+02:00</time>
      </trkpt>
      <trkpt lat="45.98425" lon="6.31562">
        <ele>1401</ele>
        <time>2016-10-02T14:13:46+02:00</time>
      </trkpt>
      <trkpt lat="45.98426" lon="6.31564">
        <ele>1401</ele>
        <time>2016-10-02T14:13:47+02:00</time>
      </trkpt>
      <trkpt lat="45.98427" lon="6.31565">
        <ele>1401</ele>
        <time>2016-10-02T14:13:48+02:00</time>
      </trkpt>
      <trkpt lat="45.98427" lon="6.31567">
        <ele>1401</ele>
        <time>2016-10-02T14:13:49+02:00</time>
      </trkpt>
      <trkpt lat="45.98427" lon="6.31569">
        <ele>1402</ele>
        <time>2016-10-02T14:13:50+02:00</time>
      </trkpt>
      <trkpt lat="45.98428" lon="6.3157">
        <ele>1402</ele>
        <time>2016-10-02T14:13:51+02:00</time>
      </trkpt>
      <trkpt lat="45.98429" lon="6.31572">
        <ele>1402</ele>
        <time>2016-10-02T14:13:52+02:00</time>
      </trkpt>
      <trkpt lat="45.98429" lon="6.31573">
        <ele>1402</ele>
        <time>2016-10-02T14:13:53+02:00</time>
      </trkpt>
      <trkpt lat="45.9843" lon="6.31575">
        <ele>1402</ele>
        <time>2016-10-02T14:13:54+02:00</time>
      </trkpt>
      <trkpt lat="45.9843" lon="6.31576">
        <ele>1402</ele>
        <time>2016-10-02T14:13:55+02:00</time>
      </trkpt>
      <trkpt lat="45.9843" lon="6.31578">
        <ele>1403</ele>
        <time>2016-10-02T14:13:56+02:00</time>
      </trkpt>
      <trkpt lat="45.9843" lon="6.31579">
        <ele>1403</ele>
        <time>2016-10-02T14:13:57+02:00</time>
      </trkpt>
      <trkpt lat="45.9843" lon="6.31581">
        <ele>1403</ele>
        <time>2016-10-02T14:13:58+02:00</time>
      </trkpt>
      <trkpt lat="45.98431" lon="6.31583">
        <ele>1403</ele>
        <time>2016-10-02T14:13:59+02:00</time>
      </trkpt>
      <trkpt lat="45.98431" lon="6.31585">
        <ele>1403</ele>
        <time>2016-10-02T14:14:00+02:00</time>
      </trkpt>
      <trkpt lat="45.98431" lon="6.31586">
        <ele>1403</ele>
        <time>2016-10-02T14:14:01+02:00</time>
      </trkpt>
      <trkpt lat="45.98432" lon="6.31587">
        <ele>1403</ele>
        <time>2016-10-02T14:14:02+02:00</time>
      </trkpt>
      <trkpt lat="45.98433" lon="6.31588">
        <ele>1403</ele>
        <time>2016-10-02T14:14:03+02:00</time>
      </trkpt>
      <trkpt lat="45.98434" lon="6.31589">
        <ele>1404</ele>
        <time>2016-10-02T14:14:04+02:00</time>
      </trkpt>
      <trkpt lat="45.98435" lon="6.31591">
        <ele>1404</ele>
        <time>2016-10-02T14:14:05+02:00</time>
      </trkpt>
      <trkpt lat="45.98435" lon="6.31592">
        <ele>1404</ele>
        <time>2016-10-02T14:14:06+02:00</time>
      </trkpt>
      <trkpt lat="45.98435" lon="6.31593">
        <ele>1404</ele>
        <time>2016-10-02T14:14:07+02:00</time>
      </trkpt>
      <trkpt lat="45.98437" lon="6.31596">
        <ele>1404</ele>
        <time>2016-10-02T14:14:08+02:00</time>
      </trkpt>
      <trkpt lat="45.98437" lon="6.31597">
        <ele>1405</ele>
        <time>2016-10-02T14:14:09+02:00</time>
      </trkpt>
      <trkpt lat="45.98438" lon="6.31599">
        <ele>1405</ele>
        <time>2016-10-02T14:14:10+02:00</time>
      </trkpt>
      <trkpt lat="45.98438" lon="6.31601">
        <ele>1405</ele>
        <time>2016-10-02T14:14:11+02:00</time>
      </trkpt>
      <trkpt lat="45.98438" lon="6.31602">
        <ele>1405</ele>
        <time>2016-10-02T14:14:12+02:00</time>
      </trkpt>
      <trkpt lat="45.98439" lon="6.31601">
        <ele>1405</ele>
        <time>2016-10-02T14:14:13+02:00</time>
      </trkpt>
      <trkpt lat="45.9844" lon="6.31603">
        <ele>1405</ele>
        <time>2016-10-02T14:14:14+02:00</time>
      </trkpt>
      <trkpt lat="45.9844" lon="6.31604">
        <ele>1405</ele>
        <time>2016-10-02T14:14:14+02:00</time>
      </trkpt>
      <trkpt lat="45.98441" lon="6.31605">
        <ele>1405</ele>
        <time>2016-10-02T14:14:15+02:00</time>
      </trkpt>
      <trkpt lat="45.98441" lon="6.31607">
        <ele>1406</ele>
        <time>2016-10-02T14:14:16+02:00</time>
      </trkpt>
      <trkpt lat="45.98442" lon="6.31608">
        <ele>1406</ele>
        <time>2016-10-02T14:14:17+02:00</time>
      </trkpt>
      <trkpt lat="45.98443" lon="6.3161">
        <ele>1406</ele>
        <time>2016-10-02T14:14:18+02:00</time>
      </trkpt>
      <trkpt lat="45.98443" lon="6.31612">
        <ele>1406</ele>
        <time>2016-10-02T14:14:20+02:00</time>
      </trkpt>
      <trkpt lat="45.98444" lon="6.31614">
        <ele>1406</ele>
        <time>2016-10-02T14:14:21+02:00</time>
      </trkpt>
      <trkpt lat="45.98445" lon="6.31616">
        <ele>1407</ele>
        <time>2016-10-02T14:14:23+02:00</time>
      </trkpt>
      <trkpt lat="45.98445" lon="6.31619">
        <ele>1407</ele>
        <time>2016-10-02T14:14:24+02:00</time>
      </trkpt>
      <trkpt lat="45.98446" lon="6.31623">
        <ele>1407</ele>
        <time>2016-10-02T14:14:26+02:00</time>
      </trkpt>
      <trkpt lat="45.98446" lon="6.31625">
        <ele>1407</ele>
        <time>2016-10-02T14:14:28+02:00</time>
      </trkpt>
      <trkpt lat="45.98445" lon="6.31628">
        <ele>1407</ele>
        <time>2016-10-02T14:14:29+02:00</time>
      </trkpt>
      <trkpt lat="45.98445" lon="6.31631">
        <ele>1407</ele>
        <time>2016-10-02T14:14:31+02:00</time>
      </trkpt>
      <trkpt lat="45.98445" lon="6.31634">
        <ele>1407</ele>
        <time>2016-10-02T14:14:33+02:00</time>
      </trkpt>
      <trkpt lat="45.98445" lon="6.31637">
        <ele>1407</ele>
        <time>2016-10-02T14:14:34+02:00</time>
      </trkpt>
      <trkpt lat="45.98446" lon="6.31639">
        <ele>1407</ele>
        <time>2016-10-02T14:14:36+02:00</time>
      </trkpt>
      <trkpt lat="45.98446" lon="6.31642">
        <ele>1408</ele>
        <time>2016-10-02T14:14:37+02:00</time>
      </trkpt>
      <trkpt lat="45.98447" lon="6.31643">
        <ele>1408</ele>
        <time>2016-10-02T14:14:39+02:00</time>
      </trkpt>
      <trkpt lat="45.98448" lon="6.31645">
        <ele>1408</ele>
        <time>2016-10-02T14:14:40+02:00</time>
      </trkpt>
      <trkpt lat="45.9845" lon="6.31646">
        <ele>1409</ele>
        <time>2016-10-02T14:14:41+02:00</time>
      </trkpt>
      <trkpt lat="45.98451" lon="6.31647">
        <ele>1409</ele>
        <time>2016-10-02T14:14:42+02:00</time>
      </trkpt>
      <trkpt lat="45.98452" lon="6.31649">
        <ele>1409</ele>
        <time>2016-10-02T14:14:44+02:00</time>
      </trkpt>
      <trkpt lat="45.98454" lon="6.3165">
        <ele>1409</ele>
        <time>2016-10-02T14:14:45+02:00</time>
      </trkpt>
      <trkpt lat="45.98455" lon="6.31651">
        <ele>1410</ele>
        <time>2016-10-02T14:14:47+02:00</time>
      </trkpt>
      <trkpt lat="45.98457" lon="6.31652">
        <ele>1410</ele>
        <time>2016-10-02T14:14:48+02:00</time>
      </trkpt>
      <trkpt lat="45.98458" lon="6.31653">
        <ele>1411</ele>
        <time>2016-10-02T14:14:49+02:00</time>
      </trkpt>
      <trkpt lat="45.9846" lon="6.31653">
        <ele>1411</ele>
        <time>2016-10-02T14:14:51+02:00</time>
      </trkpt>
      <trkpt lat="45.98462" lon="6.31653">
        <ele>1411</ele>
        <time>2016-10-02T14:14:52+02:00</time>
      </trkpt>
      <trkpt lat="45.98463" lon="6.31654">
        <ele>1412</ele>
        <time>2016-10-02T14:14:53+02:00</time>
      </trkpt>
      <trkpt lat="45.98465" lon="6.31655">
        <ele>1412</ele>
        <time>2016-10-02T14:14:54+02:00</time>
      </trkpt>
      <trkpt lat="45.98466" lon="6.31655">
        <ele>1412</ele>
        <time>2016-10-02T14:14:56+02:00</time>
      </trkpt>
      <trkpt lat="45.98467" lon="6.31656">
        <ele>1413</ele>
        <time>2016-10-02T14:14:57+02:00</time>
      </trkpt>
      <trkpt lat="45.98469" lon="6.31656">
        <ele>1413</ele>
        <time>2016-10-02T14:14:58+02:00</time>
      </trkpt>
      <trkpt lat="45.9847" lon="6.31657">
        <ele>1413</ele>
        <time>2016-10-02T14:14:59+02:00</time>
      </trkpt>
      <trkpt lat="45.98472" lon="6.31657">
        <ele>1414</ele>
        <time>2016-10-02T14:15:01+02:00</time>
      </trkpt>
      <trkpt lat="45.98474" lon="6.31658">
        <ele>1414</ele>
        <time>2016-10-02T14:15:02+02:00</time>
      </trkpt>
      <trkpt lat="45.98475" lon="6.31659">
        <ele>1414</ele>
        <time>2016-10-02T14:15:04+02:00</time>
      </trkpt>
      <trkpt lat="45.98477" lon="6.31659">
        <ele>1415</ele>
        <time>2016-10-02T14:15:05+02:00</time>
      </trkpt>
      <trkpt lat="45.98478" lon="6.3166">
        <ele>1415</ele>
        <time>2016-10-02T14:15:06+02:00</time>
      </trkpt>
      <trkpt lat="45.98479" lon="6.31661">
        <ele>1415</ele>
        <time>2016-10-02T14:15:07+02:00</time>
      </trkpt>
      <trkpt lat="45.98481" lon="6.31662">
        <ele>1416</ele>
        <time>2016-10-02T14:15:08+02:00</time>
      </trkpt>
      <trkpt lat="45.98482" lon="6.31662">
        <ele>1416</ele>
        <time>2016-10-02T14:15:09+02:00</time>
      </trkpt>
      <trkpt lat="45.98483" lon="6.31663">
        <ele>1416</ele>
        <time>2016-10-02T14:15:10+02:00</time>
      </trkpt>
      <trkpt lat="45.98484" lon="6.31664">
        <ele>1416</ele>
        <time>2016-10-02T14:15:12+02:00</time>
      </trkpt>
      <trkpt lat="45.98486" lon="6.31665">
        <ele>1417</ele>
        <time>2016-10-02T14:15:13+02:00</time>
      </trkpt>
      <trkpt lat="45.98487" lon="6.31666">
        <ele>1417</ele>
        <time>2016-10-02T14:15:14+02:00</time>
      </trkpt>
      <trkpt lat="45.98488" lon="6.31667">
        <ele>1417</ele>
        <time>2016-10-02T14:15:16+02:00</time>
      </trkpt>
      <trkpt lat="45.9849" lon="6.31668">
        <ele>1418</ele>
        <time>2016-10-02T14:15:17+02:00</time>
      </trkpt>
      <trkpt lat="45.98491" lon="6.3167">
        <ele>1418</ele>
        <time>2016-10-02T14:15:18+02:00</time>
      </trkpt>
      <trkpt lat="45.98492" lon="6.31671">
        <ele>1418</ele>
        <time>2016-10-02T14:15:19+02:00</time>
      </trkpt>
      <trkpt lat="45.98493" lon="6.31671">
        <ele>1418</ele>
        <time>2016-10-02T14:15:20+02:00</time>
      </trkpt>
      <trkpt lat="45.98495" lon="6.31672">
        <ele>1419</ele>
        <time>2016-10-02T14:15:22+02:00</time>
      </trkpt>
      <trkpt lat="45.98496" lon="6.31673">
        <ele>1419</ele>
        <time>2016-10-02T14:15:23+02:00</time>
      </trkpt>
      <trkpt lat="45.98497" lon="6.31674">
        <ele>1419</ele>
        <time>2016-10-02T14:15:24+02:00</time>
      </trkpt>
      <trkpt lat="45.98499" lon="6.31675">
        <ele>1419</ele>
        <time>2016-10-02T14:15:25+02:00</time>
      </trkpt>
      <trkpt lat="45.985" lon="6.31676">
        <ele>1420</ele>
        <time>2016-10-02T14:15:27+02:00</time>
      </trkpt>
      <trkpt lat="45.98501" lon="6.31677">
        <ele>1420</ele>
        <time>2016-10-02T14:15:28+02:00</time>
      </trkpt>
      <trkpt lat="45.98502" lon="6.31678">
        <ele>1420</ele>
        <time>2016-10-02T14:15:29+02:00</time>
      </trkpt>
      <trkpt lat="45.98504" lon="6.31679">
        <ele>1420</ele>
        <time>2016-10-02T14:15:30+02:00</time>
      </trkpt>
      <trkpt lat="45.98505" lon="6.3168">
        <ele>1420</ele>
        <time>2016-10-02T14:15:31+02:00</time>
      </trkpt>
      <trkpt lat="45.98506" lon="6.31681">
        <ele>1421</ele>
        <time>2016-10-02T14:15:32+02:00</time>
      </trkpt>
      <trkpt lat="45.98507" lon="6.31682">
        <ele>1421</ele>
        <time>2016-10-02T14:15:34+02:00</time>
      </trkpt>
      <trkpt lat="45.98509" lon="6.31683">
        <ele>1421</ele>
        <time>2016-10-02T14:15:35+02:00</time>
      </trkpt>
      <trkpt lat="45.9851" lon="6.31684">
        <ele>1421</ele>
        <time>2016-10-02T14:15:36+02:00</time>
      </trkpt>
      <trkpt lat="45.9851" lon="6.31684">
        <ele>1421</ele>
        <time>2016-10-02T14:15:37+02:00</time>
      </trkpt>
      <trkpt lat="45.98511" lon="6.31685">
        <ele>1421</ele>
        <time>2016-10-02T14:15:38+02:00</time>
      </trkpt>
      <trkpt lat="45.98513" lon="6.31686">
        <ele>1422</ele>
        <time>2016-10-02T14:15:39+02:00</time>
      </trkpt>
      <trkpt lat="45.98514" lon="6.31687">
        <ele>1422</ele>
        <time>2016-10-02T14:15:40+02:00</time>
      </trkpt>
      <trkpt lat="45.98515" lon="6.31687">
        <ele>1422</ele>
        <time>2016-10-02T14:15:41+02:00</time>
      </trkpt>
      <trkpt lat="45.98516" lon="6.31688">
        <ele>1422</ele>
        <time>2016-10-02T14:15:42+02:00</time>
      </trkpt>
      <trkpt lat="45.98517" lon="6.31688">
        <ele>1422</ele>
        <time>2016-10-02T14:15:43+02:00</time>
      </trkpt>
      <trkpt lat="45.98519" lon="6.31688">
        <ele>1423</ele>
        <time>2016-10-02T14:15:44+02:00</time>
      </trkpt>
      <trkpt lat="45.9852" lon="6.31689">
        <ele>1423</ele>
        <time>2016-10-02T14:15:45+02:00</time>
      </trkpt>
      <trkpt lat="45.98521" lon="6.31689">
        <ele>1423</ele>
        <time>2016-10-02T14:15:46+02:00</time>
      </trkpt>
      <trkpt lat="45.98522" lon="6.3169">
        <ele>1423</ele>
        <time>2016-10-02T14:15:47+02:00</time>
      </trkpt>
      <trkpt lat="45.98524" lon="6.31691">
        <ele>1424</ele>
        <time>2016-10-02T14:15:49+02:00</time>
      </trkpt>
      <trkpt lat="45.98525" lon="6.31691">
        <ele>1424</ele>
        <time>2016-10-02T14:15:50+02:00</time>
      </trkpt>
      <trkpt lat="45.98526" lon="6.31692">
        <ele>1424</ele>
        <time>2016-10-02T14:15:51+02:00</time>
      </trkpt>
      <trkpt lat="45.98527" lon="6.31693">
        <ele>1424</ele>
        <time>2016-10-02T14:15:52+02:00</time>
      </trkpt>
      <trkpt lat="45.98528" lon="6.31693">
        <ele>1424</ele>
        <time>2016-10-02T14:15:53+02:00</time>
      </trkpt>
      <trkpt lat="45.98529" lon="6.31694">
        <ele>1425</ele>
        <time>2016-10-02T14:15:54+02:00</time>
      </trkpt>
      <trkpt lat="45.98531" lon="6.31695">
        <ele>1425</ele>
        <time>2016-10-02T14:15:55+02:00</time>
      </trkpt>
      <trkpt lat="45.98532" lon="6.31695">
        <ele>1425</ele>
        <time>2016-10-02T14:15:56+02:00</time>
      </trkpt>
      <trkpt lat="45.98533" lon="6.31696">
        <ele>1425</ele>
        <time>2016-10-02T14:15:57+02:00</time>
      </trkpt>
      <trkpt lat="45.98534" lon="6.31697">
        <ele>1425</ele>
        <time>2016-10-02T14:15:58+02:00</time>
      </trkpt>
      <trkpt lat="45.98535" lon="6.31697">
        <ele>1426</ele>
        <time>2016-10-02T14:15:59+02:00</time>
      </trkpt>
      <trkpt lat="45.98536" lon="6.31698">
        <ele>1426</ele>
        <time>2016-10-02T14:16:00+02:00</time>
      </trkpt>
      <trkpt lat="45.98538" lon="6.31699">
        <ele>1426</ele>
        <time>2016-10-02T14:16:01+02:00</time>
      </trkpt>
      <trkpt lat="45.98539" lon="6.31699">
        <ele>1426</ele>
        <time>2016-10-02T14:16:02+02:00</time>
      </trkpt>
      <trkpt lat="45.9854" lon="6.317">
        <ele>1426</ele>
        <time>2016-10-02T14:16:03+02:00</time>
      </trkpt>
      <trkpt lat="45.98541" lon="6.317">
        <ele>1427</ele>
        <time>2016-10-02T14:16:04+02:00</time>
      </trkpt>
      <trkpt lat="45.98542" lon="6.31701">
        <ele>1427</ele>
        <time>2016-10-02T14:16:05+02:00</time>
      </trkpt>
      <trkpt lat="45.98543" lon="6.31702">
        <ele>1427</ele>
        <time>2016-10-02T14:16:06+02:00</time>
      </trkpt>
      <trkpt lat="45.98544" lon="6.31703">
        <ele>1427</ele>
        <time>2016-10-02T14:16:08+02:00</time>
      </trkpt>
      <trkpt lat="45.98545" lon="6.31704">
        <ele>1427</ele>
        <time>2016-10-02T14:16:09+02:00</time>
      </trkpt>
      <trkpt lat="45.98546" lon="6.31705">
        <ele>1427</ele>
        <time>2016-10-02T14:16:10+02:00</time>
      </trkpt>
      <trkpt lat="45.98548" lon="6.31706">
        <ele>1428</ele>
        <time>2016-10-02T14:16:11+02:00</time>
      </trkpt>
      <trkpt lat="45.98549" lon="6.31707">
        <ele>1428</ele>
        <time>2016-10-02T14:16:12+02:00</time>
      </trkpt>
      <trkpt lat="45.9855" lon="6.31708">
        <ele>1428</ele>
        <time>2016-10-02T14:16:13+02:00</time>
      </trkpt>
      <trkpt lat="45.98551" lon="6.31709">
        <ele>1428</ele>
        <time>2016-10-02T14:16:14+02:00</time>
      </trkpt>
      <trkpt lat="45.98552" lon="6.3171">
        <ele>1428</ele>
        <time>2016-10-02T14:16:15+02:00</time>
      </trkpt>
      <trkpt lat="45.98553" lon="6.31711">
        <ele>1428</ele>
        <time>2016-10-02T14:16:16+02:00</time>
      </trkpt>
      <trkpt lat="45.98554" lon="6.31712">
        <ele>1428</ele>
        <time>2016-10-02T14:16:17+02:00</time>
      </trkpt>
      <trkpt lat="45.98555" lon="6.31714">
        <ele>1429</ele>
        <time>2016-10-02T14:16:18+02:00</time>
      </trkpt>
      <trkpt lat="45.98556" lon="6.31715">
        <ele>1429</ele>
        <time>2016-10-02T14:16:19+02:00</time>
      </trkpt>
      <trkpt lat="45.98556" lon="6.31716">
        <ele>1429</ele>
        <time>2016-10-02T14:16:21+02:00</time>
      </trkpt>
      <trkpt lat="45.98557" lon="6.31718">
        <ele>1429</ele>
        <time>2016-10-02T14:16:21+02:00</time>
      </trkpt>
      <trkpt lat="45.98558" lon="6.31719">
        <ele>1429</ele>
        <time>2016-10-02T14:16:23+02:00</time>
      </trkpt>
      <trkpt lat="45.98559" lon="6.3172">
        <ele>1429</ele>
        <time>2016-10-02T14:16:24+02:00</time>
      </trkpt>
      <trkpt lat="45.98559" lon="6.31722">
        <ele>1429</ele>
        <time>2016-10-02T14:16:25+02:00</time>
      </trkpt>
      <trkpt lat="45.9856" lon="6.31723">
        <ele>1429</ele>
        <time>2016-10-02T14:16:26+02:00</time>
      </trkpt>
      <trkpt lat="45.98561" lon="6.31725">
        <ele>1429</ele>
        <time>2016-10-02T14:16:27+02:00</time>
      </trkpt>
      <trkpt lat="45.98562" lon="6.31726">
        <ele>1429</ele>
        <time>2016-10-02T14:16:28+02:00</time>
      </trkpt>
      <trkpt lat="45.98562" lon="6.31728">
        <ele>1429</ele>
        <time>2016-10-02T14:16:29+02:00</time>
      </trkpt>
      <trkpt lat="45.98563" lon="6.3173">
        <ele>1429</ele>
        <time>2016-10-02T14:16:30+02:00</time>
      </trkpt>
      <trkpt lat="45.98563" lon="6.31731">
        <ele>1429</ele>
        <time>2016-10-02T14:16:31+02:00</time>
      </trkpt>
      <trkpt lat="45.98564" lon="6.31733">
        <ele>1429</ele>
        <time>2016-10-02T14:16:32+02:00</time>
      </trkpt>
      <trkpt lat="45.98565" lon="6.31734">
        <ele>1429</ele>
        <time>2016-10-02T14:16:33+02:00</time>
      </trkpt>
      <trkpt lat="45.98566" lon="6.31735">
        <ele>1429</ele>
        <time>2016-10-02T14:16:34+02:00</time>
      </trkpt>
      <trkpt lat="45.98566" lon="6.31736">
        <ele>1430</ele>
        <time>2016-10-02T14:16:35+02:00</time>
      </trkpt>
      <trkpt lat="45.98567" lon="6.31737">
        <ele>1430</ele>
        <time>2016-10-02T14:16:35+02:00</time>
      </trkpt>
      <trkpt lat="45.98568" lon="6.31738">
        <ele>1430</ele>
        <time>2016-10-02T14:16:36+02:00</time>
      </trkpt>
      <trkpt lat="45.98569" lon="6.31739">
        <ele>1430</ele>
        <time>2016-10-02T14:16:37+02:00</time>
      </trkpt>
      <trkpt lat="45.98569" lon="6.31741">
        <ele>1430</ele>
        <time>2016-10-02T14:16:38+02:00</time>
      </trkpt>
      <trkpt lat="45.9857" lon="6.31742">
        <ele>1430</ele>
        <time>2016-10-02T14:16:39+02:00</time>
      </trkpt>
      <trkpt lat="45.98571" lon="6.31743">
        <ele>1430</ele>
        <time>2016-10-02T14:16:40+02:00</time>
      </trkpt>
      <trkpt lat="45.98573" lon="6.31745">
        <ele>1430</ele>
        <time>2016-10-02T14:16:42+02:00</time>
      </trkpt>
      <trkpt lat="45.98574" lon="6.31746">
        <ele>1430</ele>
        <time>2016-10-02T14:16:43+02:00</time>
      </trkpt>
      <trkpt lat="45.98575" lon="6.31747">
        <ele>1431</ele>
        <time>2016-10-02T14:16:44+02:00</time>
      </trkpt>
      <trkpt lat="45.98576" lon="6.31748">
        <ele>1431</ele>
        <time>2016-10-02T14:16:45+02:00</time>
      </trkpt>
      <trkpt lat="45.98577" lon="6.31749">
        <ele>1431</ele>
        <time>2016-10-02T14:16:46+02:00</time>
      </trkpt>
      <trkpt lat="45.98578" lon="6.3175">
        <ele>1431</ele>
        <time>2016-10-02T14:16:47+02:00</time>
      </trkpt>
      <trkpt lat="45.98579" lon="6.31751">
        <ele>1431</ele>
        <time>2016-10-02T14:16:48+02:00</time>
      </trkpt>
      <trkpt lat="45.9858" lon="6.31752">
        <ele>1431</ele>
        <time>2016-10-02T14:16:49+02:00</time>
      </trkpt>
      <trkpt lat="45.98582" lon="6.31752">
        <ele>1432</ele>
        <time>2016-10-02T14:16:50+02:00</time>
      </trkpt>
      <trkpt lat="45.98583" lon="6.31753">
        <ele>1432</ele>
        <time>2016-10-02T14:16:51+02:00</time>
      </trkpt>
      <trkpt lat="45.98584" lon="6.31754">
        <ele>1432</ele>
        <time>2016-10-02T14:16:52+02:00</time>
      </trkpt>
      <trkpt lat="45.98585" lon="6.31755">
        <ele>1432</ele>
        <time>2016-10-02T14:16:53+02:00</time>
      </trkpt>
      <trkpt lat="45.98586" lon="6.31756">
        <ele>1432</ele>
        <time>2016-10-02T14:16:55+02:00</time>
      </trkpt>
      <trkpt lat="45.98587" lon="6.31757">
        <ele>1433</ele>
        <time>2016-10-02T14:16:56+02:00</time>
      </trkpt>
      <trkpt lat="45.98589" lon="6.31758">
        <ele>1433</ele>
        <time>2016-10-02T14:16:57+02:00</time>
      </trkpt>
      <trkpt lat="45.9859" lon="6.31758">
        <ele>1433</ele>
        <time>2016-10-02T14:16:58+02:00</time>
      </trkpt>
      <trkpt lat="45.98591" lon="6.31759">
        <ele>1433</ele>
        <time>2016-10-02T14:16:59+02:00</time>
      </trkpt>
      <trkpt lat="45.98592" lon="6.3176">
        <ele>1434</ele>
        <time>2016-10-02T14:17:00+02:00</time>
      </trkpt>
      <trkpt lat="45.98593" lon="6.3176">
        <ele>1434</ele>
        <time>2016-10-02T14:17:01+02:00</time>
      </trkpt>
      <trkpt lat="45.98594" lon="6.3176">
        <ele>1434</ele>
        <time>2016-10-02T14:17:02+02:00</time>
      </trkpt>
      <trkpt lat="45.98596" lon="6.3176">
        <ele>1435</ele>
        <time>2016-10-02T14:17:03+02:00</time>
      </trkpt>
      <trkpt lat="45.98597" lon="6.31761">
        <ele>1435</ele>
        <time>2016-10-02T14:17:04+02:00</time>
      </trkpt>
      <trkpt lat="45.98598" lon="6.3176">
        <ele>1435</ele>
        <time>2016-10-02T14:17:05+02:00</time>
      </trkpt>
      <trkpt lat="45.986" lon="6.3176">
        <ele>1436</ele>
        <time>2016-10-02T14:17:06+02:00</time>
      </trkpt>
      <trkpt lat="45.98601" lon="6.3176">
        <ele>1436</ele>
        <time>2016-10-02T14:17:07+02:00</time>
      </trkpt>
      <trkpt lat="45.98602" lon="6.3176">
        <ele>1436</ele>
        <time>2016-10-02T14:17:08+02:00</time>
      </trkpt>
      <trkpt lat="45.98603" lon="6.3176">
        <ele>1437</ele>
        <time>2016-10-02T14:17:09+02:00</time>
      </trkpt>
      <trkpt lat="45.98605" lon="6.3176">
        <ele>1437</ele>
        <time>2016-10-02T14:17:10+02:00</time>
      </trkpt>
      <trkpt lat="45.98606" lon="6.3176">
        <ele>1437</ele>
        <time>2016-10-02T14:17:12+02:00</time>
      </trkpt>
      <trkpt lat="45.98607" lon="6.31759">
        <ele>1438</ele>
        <time>2016-10-02T14:17:13+02:00</time>
      </trkpt>
      <trkpt lat="45.98609" lon="6.31759">
        <ele>1438</ele>
        <time>2016-10-02T14:17:14+02:00</time>
      </trkpt>
      <trkpt lat="45.9861" lon="6.31759">
        <ele>1439</ele>
        <time>2016-10-02T14:17:15+02:00</time>
      </trkpt>
      <trkpt lat="45.98612" lon="6.31758">
        <ele>1439</ele>
        <time>2016-10-02T14:17:16+02:00</time>
      </trkpt>
      <trkpt lat="45.98613" lon="6.31758">
        <ele>1439</ele>
        <time>2016-10-02T14:17:17+02:00</time>
      </trkpt>
      <trkpt lat="45.98614" lon="6.31758">
        <ele>1440</ele>
        <time>2016-10-02T14:17:18+02:00</time>
      </trkpt>
      <trkpt lat="45.98615" lon="6.31757">
        <ele>1440</ele>
        <time>2016-10-02T14:17:20+02:00</time>
      </trkpt>
      <trkpt lat="45.98617" lon="6.31757">
        <ele>1440</ele>
        <time>2016-10-02T14:17:21+02:00</time>
      </trkpt>
      <trkpt lat="45.98618" lon="6.31757">
        <ele>1441</ele>
        <time>2016-10-02T14:17:22+02:00</time>
      </trkpt>
      <trkpt lat="45.98619" lon="6.31757">
        <ele>1441</ele>
        <time>2016-10-02T14:17:23+02:00</time>
      </trkpt>
      <trkpt lat="45.9862" lon="6.31756">
        <ele>1441</ele>
        <time>2016-10-02T14:17:24+02:00</time>
      </trkpt>
      <trkpt lat="45.98621" lon="6.31756">
        <ele>1441</ele>
        <time>2016-10-02T14:17:25+02:00</time>
      </trkpt>
      <trkpt lat="45.98622" lon="6.31756">
        <ele>1442</ele>
        <time>2016-10-02T14:17:26+02:00</time>
      </trkpt>
      <trkpt lat="45.98624" lon="6.31755">
        <ele>1442</ele>
        <time>2016-10-02T14:17:27+02:00</time>
      </trkpt>
      <trkpt lat="45.98625" lon="6.31755">
        <ele>1443</ele>
        <time>2016-10-02T14:17:28+02:00</time>
      </trkpt>
      <trkpt lat="45.98626" lon="6.31755">
        <ele>1443</ele>
        <time>2016-10-02T14:17:29+02:00</time>
      </trkpt>
      <trkpt lat="45.98627" lon="6.31754">
        <ele>1443</ele>
        <time>2016-10-02T14:17:30+02:00</time>
      </trkpt>
      <trkpt lat="45.98628" lon="6.31753">
        <ele>1444</ele>
        <time>2016-10-02T14:17:31+02:00</time>
      </trkpt>
      <trkpt lat="45.9863" lon="6.31753">
        <ele>1444</ele>
        <time>2016-10-02T14:17:33+02:00</time>
      </trkpt>
      <trkpt lat="45.98631" lon="6.31752">
        <ele>1444</ele>
        <time>2016-10-02T14:17:34+02:00</time>
      </trkpt>
      <trkpt lat="45.98632" lon="6.31751">
        <ele>1445</ele>
        <time>2016-10-02T14:17:35+02:00</time>
      </trkpt>
      <trkpt lat="45.98634" lon="6.3175">
        <ele>1445</ele>
        <time>2016-10-02T14:17:36+02:00</time>
      </trkpt>
      <trkpt lat="45.98635" lon="6.31749">
        <ele>1446</ele>
        <time>2016-10-02T14:17:38+02:00</time>
      </trkpt>
      <trkpt lat="45.98636" lon="6.31748">
        <ele>1446</ele>
        <time>2016-10-02T14:17:39+02:00</time>
      </trkpt>
      <trkpt lat="45.98637" lon="6.31747">
        <ele>1447</ele>
        <time>2016-10-02T14:17:40+02:00</time>
      </trkpt>
      <trkpt lat="45.98639" lon="6.31745">
        <ele>1447</ele>
        <time>2016-10-02T14:17:41+02:00</time>
      </trkpt>
      <trkpt lat="45.9864" lon="6.31744">
        <ele>1447</ele>
        <time>2016-10-02T14:17:43+02:00</time>
      </trkpt>
      <trkpt lat="45.98641" lon="6.31743">
        <ele>1448</ele>
        <time>2016-10-02T14:17:44+02:00</time>
      </trkpt>
      <trkpt lat="45.98642" lon="6.31742">
        <ele>1448</ele>
        <time>2016-10-02T14:17:45+02:00</time>
      </trkpt>
      <trkpt lat="45.98643" lon="6.31741">
        <ele>1449</ele>
        <time>2016-10-02T14:17:46+02:00</time>
      </trkpt>
      <trkpt lat="45.98645" lon="6.3174">
        <ele>1449</ele>
        <time>2016-10-02T14:17:48+02:00</time>
      </trkpt>
      <trkpt lat="45.98646" lon="6.3174">
        <ele>1450</ele>
        <time>2016-10-02T14:17:49+02:00</time>
      </trkpt>
      <trkpt lat="45.98647" lon="6.31739">
        <ele>1450</ele>
        <time>2016-10-02T14:17:50+02:00</time>
      </trkpt>
      <trkpt lat="45.98648" lon="6.31739">
        <ele>1450</ele>
        <time>2016-10-02T14:17:51+02:00</time>
      </trkpt>
      <trkpt lat="45.98649" lon="6.31738">
        <ele>1451</ele>
        <time>2016-10-02T14:17:52+02:00</time>
      </trkpt>
      <trkpt lat="45.9865" lon="6.31738">
        <ele>1451</ele>
        <time>2016-10-02T14:17:53+02:00</time>
      </trkpt>
      <trkpt lat="45.98652" lon="6.31738">
        <ele>1452</ele>
        <time>2016-10-02T14:17:54+02:00</time>
      </trkpt>
      <trkpt lat="45.98653" lon="6.31738">
        <ele>1452</ele>
        <time>2016-10-02T14:17:55+02:00</time>
      </trkpt>
      <trkpt lat="45.98654" lon="6.31738">
        <ele>1452</ele>
        <time>2016-10-02T14:17:56+02:00</time>
      </trkpt>
      <trkpt lat="45.98656" lon="6.31738">
        <ele>1453</ele>
        <time>2016-10-02T14:17:57+02:00</time>
      </trkpt>
      <trkpt lat="45.98657" lon="6.31739">
        <ele>1453</ele>
        <time>2016-10-02T14:17:58+02:00</time>
      </trkpt>
      <trkpt lat="45.98658" lon="6.31739">
        <ele>1453</ele>
        <time>2016-10-02T14:18:00+02:00</time>
      </trkpt>
      <trkpt lat="45.98659" lon="6.31739">
        <ele>1453</ele>
        <time>2016-10-02T14:18:01+02:00</time>
      </trkpt>
      <trkpt lat="45.9866" lon="6.3174">
        <ele>1454</ele>
        <time>2016-10-02T14:18:02+02:00</time>
      </trkpt>
      <trkpt lat="45.98662" lon="6.31741">
        <ele>1454</ele>
        <time>2016-10-02T14:18:03+02:00</time>
      </trkpt>
      <trkpt lat="45.98663" lon="6.31742">
        <ele>1454</ele>
        <time>2016-10-02T14:18:04+02:00</time>
      </trkpt>
      <trkpt lat="45.98664" lon="6.31743">
        <ele>1454</ele>
        <time>2016-10-02T14:18:05+02:00</time>
      </trkpt>
      <trkpt lat="45.98665" lon="6.31744">
        <ele>1454</ele>
        <time>2016-10-02T14:18:06+02:00</time>
      </trkpt>
      <trkpt lat="45.98666" lon="6.31745">
        <ele>1454</ele>
        <time>2016-10-02T14:18:07+02:00</time>
      </trkpt>
      <trkpt lat="45.98667" lon="6.31746">
        <ele>1455</ele>
        <time>2016-10-02T14:18:08+02:00</time>
      </trkpt>
      <trkpt lat="45.98668" lon="6.31747">
        <ele>1455</ele>
        <time>2016-10-02T14:18:09+02:00</time>
      </trkpt>
      <trkpt lat="45.98669" lon="6.31749">
        <ele>1455</ele>
        <time>2016-10-02T14:18:10+02:00</time>
      </trkpt>
      <trkpt lat="45.9867" lon="6.3175">
        <ele>1455</ele>
        <time>2016-10-02T14:18:11+02:00</time>
      </trkpt>
      <trkpt lat="45.9867" lon="6.31751">
        <ele>1455</ele>
        <time>2016-10-02T14:18:12+02:00</time>
      </trkpt>
      <trkpt lat="45.98671" lon="6.31753">
        <ele>1455</ele>
        <time>2016-10-02T14:18:13+02:00</time>
      </trkpt>
      <trkpt lat="45.98672" lon="6.31754">
        <ele>1455</ele>
        <time>2016-10-02T14:18:14+02:00</time>
      </trkpt>
      <trkpt lat="45.98673" lon="6.31756">
        <ele>1455</ele>
        <time>2016-10-02T14:18:16+02:00</time>
      </trkpt>
      <trkpt lat="45.98674" lon="6.31757">
        <ele>1456</ele>
        <time>2016-10-02T14:18:17+02:00</time>
      </trkpt>
      <trkpt lat="45.98675" lon="6.31758">
        <ele>1456</ele>
        <time>2016-10-02T14:18:18+02:00</time>
      </trkpt>
      <trkpt lat="45.98676" lon="6.31759">
        <ele>1456</ele>
        <time>2016-10-02T14:18:19+02:00</time>
      </trkpt>
      <trkpt lat="45.98677" lon="6.3176">
        <ele>1456</ele>
        <time>2016-10-02T14:18:19+02:00</time>
      </trkpt>
      <trkpt lat="45.98678" lon="6.31761">
        <ele>1456</ele>
        <time>2016-10-02T14:18:20+02:00</time>
      </trkpt>
      <trkpt lat="45.98679" lon="6.31762">
        <ele>1456</ele>
        <time>2016-10-02T14:18:21+02:00</time>
      </trkpt>
      <trkpt lat="45.9868" lon="6.31763">
        <ele>1457</ele>
        <time>2016-10-02T14:18:22+02:00</time>
      </trkpt>
      <trkpt lat="45.98681" lon="6.31764">
        <ele>1457</ele>
        <time>2016-10-02T14:18:23+02:00</time>
      </trkpt>
      <trkpt lat="45.98682" lon="6.31765">
        <ele>1457</ele>
        <time>2016-10-02T14:18:24+02:00</time>
      </trkpt>
      <trkpt lat="45.98683" lon="6.31766">
        <ele>1457</ele>
        <time>2016-10-02T14:18:25+02:00</time>
      </trkpt>
      <trkpt lat="45.98684" lon="6.31767">
        <ele>1457</ele>
        <time>2016-10-02T14:18:27+02:00</time>
      </trkpt>
      <trkpt lat="45.98685" lon="6.31768">
        <ele>1458</ele>
        <time>2016-10-02T14:18:28+02:00</time>
      </trkpt>
      <trkpt lat="45.98686" lon="6.31769">
        <ele>1458</ele>
        <time>2016-10-02T14:18:29+02:00</time>
      </trkpt>
      <trkpt lat="45.98687" lon="6.3177">
        <ele>1458</ele>
        <time>2016-10-02T14:18:30+02:00</time>
      </trkpt>
      <trkpt lat="45.98689" lon="6.3177">
        <ele>1458</ele>
        <time>2016-10-02T14:18:31+02:00</time>
      </trkpt>
      <trkpt lat="45.9869" lon="6.31771">
        <ele>1459</ele>
        <time>2016-10-02T14:18:32+02:00</time>
      </trkpt>
      <trkpt lat="45.98691" lon="6.31772">
        <ele>1459</ele>
        <time>2016-10-02T14:18:33+02:00</time>
      </trkpt>
      <trkpt lat="45.98692" lon="6.31772">
        <ele>1459</ele>
        <time>2016-10-02T14:18:34+02:00</time>
      </trkpt>
      <trkpt lat="45.98693" lon="6.31773">
        <ele>1459</ele>
        <time>2016-10-02T14:18:35+02:00</time>
      </trkpt>
      <trkpt lat="45.98694" lon="6.31774">
        <ele>1460</ele>
        <time>2016-10-02T14:18:36+02:00</time>
      </trkpt>
      <trkpt lat="45.98695" lon="6.31774">
        <ele>1460</ele>
        <time>2016-10-02T14:18:37+02:00</time>
      </trkpt>
      <trkpt lat="45.98697" lon="6.31775">
        <ele>1460</ele>
        <time>2016-10-02T14:18:38+02:00</time>
      </trkpt>
      <trkpt lat="45.98698" lon="6.31775">
        <ele>1461</ele>
        <time>2016-10-02T14:18:39+02:00</time>
      </trkpt>
      <trkpt lat="45.98699" lon="6.31776">
        <ele>1461</ele>
        <time>2016-10-02T14:18:40+02:00</time>
      </trkpt>
      <trkpt lat="45.987" lon="6.31777">
        <ele>1461</ele>
        <time>2016-10-02T14:18:41+02:00</time>
      </trkpt>
      <trkpt lat="45.98701" lon="6.31777">
        <ele>1461</ele>
        <time>2016-10-02T14:18:42+02:00</time>
      </trkpt>
      <trkpt lat="45.98702" lon="6.31778">
        <ele>1462</ele>
        <time>2016-10-02T14:18:43+02:00</time>
      </trkpt>
      <trkpt lat="45.98703" lon="6.31778">
        <ele>1462</ele>
        <time>2016-10-02T14:18:44+02:00</time>
      </trkpt>
      <trkpt lat="45.98704" lon="6.31779">
        <ele>1462</ele>
        <time>2016-10-02T14:18:45+02:00</time>
      </trkpt>
      <trkpt lat="45.98705" lon="6.31779">
        <ele>1462</ele>
        <time>2016-10-02T14:18:45+02:00</time>
      </trkpt>
      <trkpt lat="45.98706" lon="6.3178">
        <ele>1462</ele>
        <time>2016-10-02T14:18:46+02:00</time>
      </trkpt>
      <trkpt lat="45.98707" lon="6.3178">
        <ele>1463</ele>
        <time>2016-10-02T14:18:47+02:00</time>
      </trkpt>
      <trkpt lat="45.98708" lon="6.31782">
        <ele>1463</ele>
        <time>2016-10-02T14:18:49+02:00</time>
      </trkpt>
      <trkpt lat="45.98709" lon="6.31782">
        <ele>1463</ele>
        <time>2016-10-02T14:18:50+02:00</time>
      </trkpt>
      <trkpt lat="45.9871" lon="6.31783">
        <ele>1463</ele>
        <time>2016-10-02T14:18:51+02:00</time>
      </trkpt>
      <trkpt lat="45.98711" lon="6.31783">
        <ele>1464</ele>
        <time>2016-10-02T14:18:52+02:00</time>
      </trkpt>
      <trkpt lat="45.98712" lon="6.31784">
        <ele>1464</ele>
        <time>2016-10-02T14:18:52+02:00</time>
      </trkpt>
      <trkpt lat="45.98713" lon="6.31785">
        <ele>1464</ele>
        <time>2016-10-02T14:18:53+02:00</time>
      </trkpt>
      <trkpt lat="45.98714" lon="6.31786">
        <ele>1464</ele>
        <time>2016-10-02T14:18:54+02:00</time>
      </trkpt>
      <trkpt lat="45.98715" lon="6.31786">
        <ele>1464</ele>
        <time>2016-10-02T14:18:56+02:00</time>
      </trkpt>
      <trkpt lat="45.98716" lon="6.31787">
        <ele>1465</ele>
        <time>2016-10-02T14:18:57+02:00</time>
      </trkpt>
      <trkpt lat="45.98717" lon="6.31788">
        <ele>1465</ele>
        <time>2016-10-02T14:18:57+02:00</time>
      </trkpt>
      <trkpt lat="45.98718" lon="6.31789">
        <ele>1465</ele>
        <time>2016-10-02T14:18:58+02:00</time>
      </trkpt>
      <trkpt lat="45.98719" lon="6.31789">
        <ele>1465</ele>
        <time>2016-10-02T14:18:59+02:00</time>
      </trkpt>
      <trkpt lat="45.98721" lon="6.3179">
        <ele>1465</ele>
        <time>2016-10-02T14:19:00+02:00</time>
      </trkpt>
      <trkpt lat="45.98722" lon="6.31791">
        <ele>1466</ele>
        <time>2016-10-02T14:19:01+02:00</time>
      </trkpt>
      <trkpt lat="45.98723" lon="6.31791">
        <ele>1466</ele>
        <time>2016-10-02T14:19:02+02:00</time>
      </trkpt>
      <trkpt lat="45.98723" lon="6.31792">
        <ele>1466</ele>
        <time>2016-10-02T14:19:03+02:00</time>
      </trkpt>
      <trkpt lat="45.98724" lon="6.31792">
        <ele>1466</ele>
        <time>2016-10-02T14:19:04+02:00</time>
      </trkpt>
      <trkpt lat="45.98725" lon="6.31793">
        <ele>1466</ele>
        <time>2016-10-02T14:19:05+02:00</time>
      </trkpt>
      <trkpt lat="45.98726" lon="6.31794">
        <ele>1466</ele>
        <time>2016-10-02T14:19:05+02:00</time>
      </trkpt>
      <trkpt lat="45.98727" lon="6.31795">
        <ele>1467</ele>
        <time>2016-10-02T14:19:07+02:00</time>
      </trkpt>
      <trkpt lat="45.98728" lon="6.31795">
        <ele>1467</ele>
        <time>2016-10-02T14:19:07+02:00</time>
      </trkpt>
      <trkpt lat="45.98729" lon="6.31796">
        <ele>1467</ele>
        <time>2016-10-02T14:19:08+02:00</time>
      </trkpt>
      <trkpt lat="45.9873" lon="6.31796">
        <ele>1467</ele>
        <time>2016-10-02T14:19:09+02:00</time>
      </trkpt>
      <trkpt lat="45.98731" lon="6.31797">
        <ele>1467</ele>
        <time>2016-10-02T14:19:10+02:00</time>
      </trkpt>
      <trkpt lat="45.98732" lon="6.31798">
        <ele>1468</ele>
        <time>2016-10-02T14:19:11+02:00</time>
      </trkpt>
      <trkpt lat="45.98734" lon="6.31799">
        <ele>1468</ele>
        <time>2016-10-02T14:19:13+02:00</time>
      </trkpt>
      <trkpt lat="45.98735" lon="6.31799">
        <ele>1468</ele>
        <time>2016-10-02T14:19:14+02:00</time>
      </trkpt>
      <trkpt lat="45.98736" lon="6.318">
        <ele>1469</ele>
        <time>2016-10-02T14:19:15+02:00</time>
      </trkpt>
      <trkpt lat="45.98737" lon="6.318">
        <ele>1469</ele>
        <time>2016-10-02T14:19:16+02:00</time>
      </trkpt>
      <trkpt lat="45.98738" lon="6.31801">
        <ele>1469</ele>
        <time>2016-10-02T14:19:17+02:00</time>
      </trkpt>
      <trkpt lat="45.98739" lon="6.31801">
        <ele>1469</ele>
        <time>2016-10-02T14:19:17+02:00</time>
      </trkpt>
      <trkpt lat="45.9874" lon="6.31802">
        <ele>1469</ele>
        <time>2016-10-02T14:19:18+02:00</time>
      </trkpt>
      <trkpt lat="45.98741" lon="6.31802">
        <ele>1470</ele>
        <time>2016-10-02T14:19:19+02:00</time>
      </trkpt>
      <trkpt lat="45.98742" lon="6.31802">
        <ele>1470</ele>
        <time>2016-10-02T14:19:20+02:00</time>
      </trkpt>
      <trkpt lat="45.98743" lon="6.31801">
        <ele>1470</ele>
        <time>2016-10-02T14:19:21+02:00</time>
      </trkpt>
      <trkpt lat="45.98744" lon="6.31801">
        <ele>1471</ele>
        <time>2016-10-02T14:19:22+02:00</time>
      </trkpt>
      <trkpt lat="45.98745" lon="6.318">
        <ele>1471</ele>
        <time>2016-10-02T14:19:23+02:00</time>
      </trkpt>
      <trkpt lat="45.98746" lon="6.31798">
        <ele>1471</ele>
        <time>2016-10-02T14:19:24+02:00</time>
      </trkpt>
      <trkpt lat="45.98746" lon="6.31797">
        <ele>1472</ele>
        <time>2016-10-02T14:19:25+02:00</time>
      </trkpt>
      <trkpt lat="45.98747" lon="6.31796">
        <ele>1472</ele>
        <time>2016-10-02T14:19:26+02:00</time>
      </trkpt>
      <trkpt lat="45.98747" lon="6.31794">
        <ele>1472</ele>
        <time>2016-10-02T14:19:27+02:00</time>
      </trkpt>
      <trkpt lat="45.98746" lon="6.31793">
        <ele>1472</ele>
        <time>2016-10-02T14:19:28+02:00</time>
      </trkpt>
      <trkpt lat="45.98746" lon="6.31791">
        <ele>1472</ele>
        <time>2016-10-02T14:19:29+02:00</time>
      </trkpt>
      <trkpt lat="45.98745" lon="6.31789">
        <ele>1472</ele>
        <time>2016-10-02T14:19:30+02:00</time>
      </trkpt>
      <trkpt lat="45.98745" lon="6.31787">
        <ele>1473</ele>
        <time>2016-10-02T14:19:32+02:00</time>
      </trkpt>
      <trkpt lat="45.98744" lon="6.31786">
        <ele>1473</ele>
        <time>2016-10-02T14:19:33+02:00</time>
      </trkpt>
      <trkpt lat="45.98743" lon="6.31784">
        <ele>1473</ele>
        <time>2016-10-02T14:19:34+02:00</time>
      </trkpt>
      <trkpt lat="45.98742" lon="6.31782">
        <ele>1472</ele>
        <time>2016-10-02T14:19:35+02:00</time>
      </trkpt>
      <trkpt lat="45.98742" lon="6.31781">
        <ele>1472</ele>
        <time>2016-10-02T14:19:36+02:00</time>
      </trkpt>
      <trkpt lat="45.98741" lon="6.31779">
        <ele>1473</ele>
        <time>2016-10-02T14:19:37+02:00</time>
      </trkpt>
      <trkpt lat="45.9874" lon="6.31778">
        <ele>1473</ele>
        <time>2016-10-02T14:19:38+02:00</time>
      </trkpt>
      <trkpt lat="45.9874" lon="6.31776">
        <ele>1473</ele>
        <time>2016-10-02T14:19:39+02:00</time>
      </trkpt>
      <trkpt lat="45.98739" lon="6.31774">
        <ele>1473</ele>
        <time>2016-10-02T14:19:40+02:00</time>
      </trkpt>
      <trkpt lat="45.98738" lon="6.31773">
        <ele>1473</ele>
        <time>2016-10-02T14:19:41+02:00</time>
      </trkpt>
      <trkpt lat="45.98738" lon="6.31771">
        <ele>1473</ele>
        <time>2016-10-02T14:19:42+02:00</time>
      </trkpt>
      <trkpt lat="45.98737" lon="6.3177">
        <ele>1473</ele>
        <time>2016-10-02T14:19:43+02:00</time>
      </trkpt>
      <trkpt lat="45.98736" lon="6.31768">
        <ele>1473</ele>
        <time>2016-10-02T14:19:44+02:00</time>
      </trkpt>
      <trkpt lat="45.98736" lon="6.31766">
        <ele>1473</ele>
        <time>2016-10-02T14:19:45+02:00</time>
      </trkpt>
      <trkpt lat="45.98735" lon="6.31765">
        <ele>1473</ele>
        <time>2016-10-02T14:19:47+02:00</time>
      </trkpt>
      <trkpt lat="45.98735" lon="6.31763">
        <ele>1473</ele>
        <time>2016-10-02T14:19:48+02:00</time>
      </trkpt>
      <trkpt lat="45.98734" lon="6.31761">
        <ele>1473</ele>
        <time>2016-10-02T14:19:49+02:00</time>
      </trkpt>
      <trkpt lat="45.98733" lon="6.3176">
        <ele>1473</ele>
        <time>2016-10-02T14:19:50+02:00</time>
      </trkpt>
      <trkpt lat="45.98733" lon="6.31758">
        <ele>1473</ele>
        <time>2016-10-02T14:19:51+02:00</time>
      </trkpt>
      <trkpt lat="45.98732" lon="6.31756">
        <ele>1473</ele>
        <time>2016-10-02T14:19:52+02:00</time>
      </trkpt>
      <trkpt lat="45.98731" lon="6.31755">
        <ele>1473</ele>
        <time>2016-10-02T14:19:53+02:00</time>
      </trkpt>
      <trkpt lat="45.98731" lon="6.31753">
        <ele>1473</ele>
        <time>2016-10-02T14:19:54+02:00</time>
      </trkpt>
      <trkpt lat="45.9873" lon="6.31751">
        <ele>1473</ele>
        <time>2016-10-02T14:19:55+02:00</time>
      </trkpt>
      <trkpt lat="45.98729" lon="6.3175">
        <ele>1473</ele>
        <time>2016-10-02T14:19:56+02:00</time>
      </trkpt>
      <trkpt lat="45.98728" lon="6.31748">
        <ele>1473</ele>
        <time>2016-10-02T14:19:58+02:00</time>
      </trkpt>
      <trkpt lat="45.98728" lon="6.31746">
        <ele>1473</ele>
        <time>2016-10-02T14:19:59+02:00</time>
      </trkpt>
      <trkpt lat="45.98727" lon="6.31744">
        <ele>1473</ele>
        <time>2016-10-02T14:20:00+02:00</time>
      </trkpt>
      <trkpt lat="45.98726" lon="6.31742">
        <ele>1473</ele>
        <time>2016-10-02T14:20:01+02:00</time>
      </trkpt>
      <trkpt lat="45.98726" lon="6.3174">
        <ele>1473</ele>
        <time>2016-10-02T14:20:03+02:00</time>
      </trkpt>
      <trkpt lat="45.98725" lon="6.31739">
        <ele>1473</ele>
        <time>2016-10-02T14:20:04+02:00</time>
      </trkpt>
      <trkpt lat="45.98724" lon="6.31737">
        <ele>1473</ele>
        <time>2016-10-02T14:20:05+02:00</time>
      </trkpt>
      <trkpt lat="45.98723" lon="6.31735">
        <ele>1473</ele>
        <time>2016-10-02T14:20:06+02:00</time>
      </trkpt>
      <trkpt lat="45.98723" lon="6.31734">
        <ele>1474</ele>
        <time>2016-10-02T14:20:07+02:00</time>
      </trkpt>
      <trkpt lat="45.98722" lon="6.31732">
        <ele>1474</ele>
        <time>2016-10-02T14:20:08+02:00</time>
      </trkpt>
      <trkpt lat="45.98722" lon="6.3173">
        <ele>1474</ele>
        <time>2016-10-02T14:20:09+02:00</time>
      </trkpt>
      <trkpt lat="45.98721" lon="6.31729">
        <ele>1474</ele>
        <time>2016-10-02T14:20:10+02:00</time>
      </trkpt>
      <trkpt lat="45.9872" lon="6.31727">
        <ele>1474</ele>
        <time>2016-10-02T14:20:11+02:00</time>
      </trkpt>
      <trkpt lat="45.9872" lon="6.31726">
        <ele>1474</ele>
        <time>2016-10-02T14:20:12+02:00</time>
      </trkpt>
      <trkpt lat="45.98719" lon="6.31724">
        <ele>1474</ele>
        <time>2016-10-02T14:20:13+02:00</time>
      </trkpt>
      <trkpt lat="45.98718" lon="6.31722">
        <ele>1474</ele>
        <time>2016-10-02T14:20:14+02:00</time>
      </trkpt>
      <trkpt lat="45.98717" lon="6.31721">
        <ele>1474</ele>
        <time>2016-10-02T14:20:15+02:00</time>
      </trkpt>
      <trkpt lat="45.98717" lon="6.31719">
        <ele>1474</ele>
        <time>2016-10-02T14:20:16+02:00</time>
      </trkpt>
      <trkpt lat="45.98716" lon="6.31717">
        <ele>1474</ele>
        <time>2016-10-02T14:20:17+02:00</time>
      </trkpt>
      <trkpt lat="45.98715" lon="6.31716">
        <ele>1474</ele>
        <time>2016-10-02T14:20:19+02:00</time>
      </trkpt>
      <trkpt lat="45.98715" lon="6.31714">
        <ele>1474</ele>
        <time>2016-10-02T14:20:20+02:00</time>
      </trkpt>
      <trkpt lat="45.98714" lon="6.31712">
        <ele>1474</ele>
        <time>2016-10-02T14:20:21+02:00</time>
      </trkpt>
      <trkpt lat="45.98713" lon="6.3171">
        <ele>1474</ele>
        <time>2016-10-02T14:20:22+02:00</time>
      </trkpt>
      <trkpt lat="45.98712" lon="6.31708">
        <ele>1474</ele>
        <time>2016-10-02T14:20:24+02:00</time>
      </trkpt>
      <trkpt lat="45.98712" lon="6.31706">
        <ele>1474</ele>
        <time>2016-10-02T14:20:25+02:00</time>
      </trkpt>
      <trkpt lat="45.98711" lon="6.31704">
        <ele>1474</ele>
        <time>2016-10-02T14:20:26+02:00</time>
      </trkpt>
      <trkpt lat="45.9871" lon="6.31703">
        <ele>1474</ele>
        <time>2016-10-02T14:20:27+02:00</time>
      </trkpt>
      <trkpt lat="45.98709" lon="6.31701">
        <ele>1475</ele>
        <time>2016-10-02T14:20:28+02:00</time>
      </trkpt>
      <trkpt lat="45.98709" lon="6.31699">
        <ele>1475</ele>
        <time>2016-10-02T14:20:30+02:00</time>
      </trkpt>
      <trkpt lat="45.98708" lon="6.31697">
        <ele>1475</ele>
        <time>2016-10-02T14:20:31+02:00</time>
      </trkpt>
      <trkpt lat="45.98708" lon="6.31695">
        <ele>1475</ele>
        <time>2016-10-02T14:20:32+02:00</time>
      </trkpt>
      <trkpt lat="45.98707" lon="6.31693">
        <ele>1475</ele>
        <time>2016-10-02T14:20:33+02:00</time>
      </trkpt>
      <trkpt lat="45.98706" lon="6.31691">
        <ele>1475</ele>
        <time>2016-10-02T14:20:34+02:00</time>
      </trkpt>
      <trkpt lat="45.98706" lon="6.31689">
        <ele>1475</ele>
        <time>2016-10-02T14:20:35+02:00</time>
      </trkpt>
      <trkpt lat="45.98705" lon="6.31687">
        <ele>1475</ele>
        <time>2016-10-02T14:20:37+02:00</time>
      </trkpt>
      <trkpt lat="45.98704" lon="6.31685">
        <ele>1475</ele>
        <time>2016-10-02T14:20:38+02:00</time>
      </trkpt>
      <trkpt lat="45.98704" lon="6.31682">
        <ele>1475</ele>
        <time>2016-10-02T14:20:40+02:00</time>
      </trkpt>
      <trkpt lat="45.98703" lon="6.3168">
        <ele>1476</ele>
        <time>2016-10-02T14:20:41+02:00</time>
      </trkpt>
      <trkpt lat="45.98702" lon="6.31678">
        <ele>1476</ele>
        <time>2016-10-02T14:20:42+02:00</time>
      </trkpt>
      <trkpt lat="45.98702" lon="6.31677">
        <ele>1476</ele>
        <time>2016-10-02T14:20:43+02:00</time>
      </trkpt>
      <trkpt lat="45.98702" lon="6.31675">
        <ele>1476</ele>
        <time>2016-10-02T14:20:44+02:00</time>
      </trkpt>
      <trkpt lat="45.98701" lon="6.31673">
        <ele>1476</ele>
        <time>2016-10-02T14:20:46+02:00</time>
      </trkpt>
      <trkpt lat="45.98701" lon="6.31671">
        <ele>1476</ele>
        <time>2016-10-02T14:20:47+02:00</time>
      </trkpt>
      <trkpt lat="45.987" lon="6.31669">
        <ele>1476</ele>
        <time>2016-10-02T14:20:48+02:00</time>
      </trkpt>
      <trkpt lat="45.987" lon="6.31667">
        <ele>1477</ele>
        <time>2016-10-02T14:20:49+02:00</time>
      </trkpt>
      <trkpt lat="45.987" lon="6.31664">
        <ele>1477</ele>
        <time>2016-10-02T14:20:51+02:00</time>
      </trkpt>
      <trkpt lat="45.987" lon="6.31662">
        <ele>1477</ele>
        <time>2016-10-02T14:20:52+02:00</time>
      </trkpt>
      <trkpt lat="45.987" lon="6.3166">
        <ele>1477</ele>
        <time>2016-10-02T14:20:54+02:00</time>
      </trkpt>
      <trkpt lat="45.987" lon="6.31658">
        <ele>1478</ele>
        <time>2016-10-02T14:20:55+02:00</time>
      </trkpt>
      <trkpt lat="45.987" lon="6.31656">
        <ele>1478</ele>
        <time>2016-10-02T14:20:56+02:00</time>
      </trkpt>
      <trkpt lat="45.987" lon="6.31654">
        <ele>1478</ele>
        <time>2016-10-02T14:20:57+02:00</time>
      </trkpt>
      <trkpt lat="45.987" lon="6.31652">
        <ele>1479</ele>
        <time>2016-10-02T14:20:58+02:00</time>
      </trkpt>
      <trkpt lat="45.987" lon="6.31649">
        <ele>1479</ele>
        <time>2016-10-02T14:21:00+02:00</time>
      </trkpt>
      <trkpt lat="45.987" lon="6.31646">
        <ele>1479</ele>
        <time>2016-10-02T14:21:01+02:00</time>
      </trkpt>
      <trkpt lat="45.98699" lon="6.31643">
        <ele>1480</ele>
        <time>2016-10-02T14:21:03+02:00</time>
      </trkpt>
      <trkpt lat="45.98699" lon="6.3164">
        <ele>1480</ele>
        <time>2016-10-02T14:21:05+02:00</time>
      </trkpt>
      <trkpt lat="45.98698" lon="6.31636">
        <ele>1480</ele>
        <time>2016-10-02T14:21:07+02:00</time>
      </trkpt>
      <trkpt lat="45.98697" lon="6.31633">
        <ele>1480</ele>
        <time>2016-10-02T14:21:09+02:00</time>
      </trkpt>
      <trkpt lat="45.98696" lon="6.3163">
        <ele>1480</ele>
        <time>2016-10-02T14:21:11+02:00</time>
      </trkpt>
      <trkpt lat="45.98696" lon="6.31626">
        <ele>1480</ele>
        <time>2016-10-02T14:21:13+02:00</time>
      </trkpt>
      <trkpt lat="45.98695" lon="6.31623">
        <ele>1481</ele>
        <time>2016-10-02T14:21:15+02:00</time>
      </trkpt>
      <trkpt lat="45.98695" lon="6.3162">
        <ele>1481</ele>
        <time>2016-10-02T14:21:17+02:00</time>
      </trkpt>
      <trkpt lat="45.98695" lon="6.31617">
        <ele>1481</ele>
        <time>2016-10-02T14:21:19+02:00</time>
      </trkpt>
      <trkpt lat="45.98695" lon="6.31614">
        <ele>1482</ele>
        <time>2016-10-02T14:21:21+02:00</time>
      </trkpt>
      <trkpt lat="45.98696" lon="6.3161">
        <ele>1482</ele>
        <time>2016-10-02T14:21:23+02:00</time>
      </trkpt>
      <trkpt lat="45.98696" lon="6.31607">
        <ele>1483</ele>
        <time>2016-10-02T14:21:24+02:00</time>
      </trkpt>
      <trkpt lat="45.98697" lon="6.31604">
        <ele>1484</ele>
        <time>2016-10-02T14:21:26+02:00</time>
      </trkpt>
      <trkpt lat="45.98697" lon="6.31601">
        <ele>1484</ele>
        <time>2016-10-02T14:21:28+02:00</time>
      </trkpt>
      <trkpt lat="45.98698" lon="6.31597">
        <ele>1485</ele>
        <time>2016-10-02T14:21:30+02:00</time>
      </trkpt>
      <trkpt lat="45.98699" lon="6.31594">
        <ele>1486</ele>
        <time>2016-10-02T14:21:32+02:00</time>
      </trkpt>
      <trkpt lat="45.987" lon="6.31591">
        <ele>1486</ele>
        <time>2016-10-02T14:21:34+02:00</time>
      </trkpt>
      <trkpt lat="45.987" lon="6.31589">
        <ele>1487</ele>
        <time>2016-10-02T14:21:36+02:00</time>
      </trkpt>
      <trkpt lat="45.98701" lon="6.31586">
        <ele>1488</ele>
        <time>2016-10-02T14:21:37+02:00</time>
      </trkpt>
      <trkpt lat="45.98702" lon="6.31584">
        <ele>1488</ele>
        <time>2016-10-02T14:21:39+02:00</time>
      </trkpt>
      <trkpt lat="45.98703" lon="6.31581">
        <ele>1489</ele>
        <time>2016-10-02T14:21:41+02:00</time>
      </trkpt>
      <trkpt lat="45.98703" lon="6.31579">
        <ele>1489</ele>
        <time>2016-10-02T14:21:42+02:00</time>
      </trkpt>
      <trkpt lat="45.98704" lon="6.31576">
        <ele>1490</ele>
        <time>2016-10-02T14:21:44+02:00</time>
      </trkpt>
      <trkpt lat="45.98705" lon="6.31574">
        <ele>1490</ele>
        <time>2016-10-02T14:21:45+02:00</time>
      </trkpt>
      <trkpt lat="45.98706" lon="6.31572">
        <ele>1491</ele>
        <time>2016-10-02T14:21:47+02:00</time>
      </trkpt>
      <trkpt lat="45.98707" lon="6.31569">
        <ele>1492</ele>
        <time>2016-10-02T14:21:48+02:00</time>
      </trkpt>
      <trkpt lat="45.98707" lon="6.31567">
        <ele>1492</ele>
        <time>2016-10-02T14:21:50+02:00</time>
      </trkpt>
      <trkpt lat="45.98709" lon="6.31564">
        <ele>1493</ele>
        <time>2016-10-02T14:21:52+02:00</time>
      </trkpt>
      <trkpt lat="45.9871" lon="6.31562">
        <ele>1494</ele>
        <time>2016-10-02T14:21:54+02:00</time>
      </trkpt>
      <trkpt lat="45.98711" lon="6.31559">
        <ele>1495</ele>
        <time>2016-10-02T14:21:55+02:00</time>
      </trkpt>
      <trkpt lat="45.98713" lon="6.31557">
        <ele>1495</ele>
        <time>2016-10-02T14:21:57+02:00</time>
      </trkpt>
      <trkpt lat="45.98714" lon="6.31554">
        <ele>1496</ele>
        <time>2016-10-02T14:21:59+02:00</time>
      </trkpt>
      <trkpt lat="45.98716" lon="6.31552">
        <ele>1497</ele>
        <time>2016-10-02T14:22:01+02:00</time>
      </trkpt>
      <trkpt lat="45.98717" lon="6.31551">
        <ele>1498</ele>
        <time>2016-10-02T14:22:02+02:00</time>
      </trkpt>
      <trkpt lat="45.98718" lon="6.31549">
        <ele>1498</ele>
        <time>2016-10-02T14:22:04+02:00</time>
      </trkpt>
      <trkpt lat="45.98718" lon="6.31547">
        <ele>1499</ele>
        <time>2016-10-02T14:22:05+02:00</time>
      </trkpt>
      <trkpt lat="45.98719" lon="6.31545">
        <ele>1499</ele>
        <time>2016-10-02T14:22:06+02:00</time>
      </trkpt>
      <trkpt lat="45.9872" lon="6.31544">
        <ele>1500</ele>
        <time>2016-10-02T14:22:07+02:00</time>
      </trkpt>
      <trkpt lat="45.98721" lon="6.31542">
        <ele>1500</ele>
        <time>2016-10-02T14:22:09+02:00</time>
      </trkpt>
      <trkpt lat="45.98723" lon="6.3154">
        <ele>1501</ele>
        <time>2016-10-02T14:22:10+02:00</time>
      </trkpt>
      <trkpt lat="45.98725" lon="6.31538">
        <ele>1502</ele>
        <time>2016-10-02T14:22:12+02:00</time>
      </trkpt>
      <trkpt lat="45.98726" lon="6.31536">
        <ele>1503</ele>
        <time>2016-10-02T14:22:14+02:00</time>
      </trkpt>
      <trkpt lat="45.98728" lon="6.31534">
        <ele>1504</ele>
        <time>2016-10-02T14:22:16+02:00</time>
      </trkpt>
      <trkpt lat="45.98729" lon="6.31532">
        <ele>1504</ele>
        <time>2016-10-02T14:22:17+02:00</time>
      </trkpt>
      <trkpt lat="45.9873" lon="6.3153">
        <ele>1505</ele>
        <time>2016-10-02T14:22:19+02:00</time>
      </trkpt>
      <trkpt lat="45.9873" lon="6.31528">
        <ele>1505</ele>
        <time>2016-10-02T14:22:20+02:00</time>
      </trkpt>
      <trkpt lat="45.98731" lon="6.31526">
        <ele>1506</ele>
        <time>2016-10-02T14:22:21+02:00</time>
      </trkpt>
      <trkpt lat="45.98732" lon="6.31525">
        <ele>1506</ele>
        <time>2016-10-02T14:22:22+02:00</time>
      </trkpt>
      <trkpt lat="45.98732" lon="6.31523">
        <ele>1507</ele>
        <time>2016-10-02T14:22:23+02:00</time>
      </trkpt>
      <trkpt lat="45.98733" lon="6.31521">
        <ele>1507</ele>
        <time>2016-10-02T14:22:24+02:00</time>
      </trkpt>
      <trkpt lat="45.98733" lon="6.3152">
        <ele>1507</ele>
        <time>2016-10-02T14:22:25+02:00</time>
      </trkpt>
      <trkpt lat="45.98734" lon="6.31518">
        <ele>1508</ele>
        <time>2016-10-02T14:22:26+02:00</time>
      </trkpt>
      <trkpt lat="45.98735" lon="6.31517">
        <ele>1508</ele>
        <time>2016-10-02T14:22:27+02:00</time>
      </trkpt>
      <trkpt lat="45.98736" lon="6.31515">
        <ele>1509</ele>
        <time>2016-10-02T14:22:29+02:00</time>
      </trkpt>
      <trkpt lat="45.98737" lon="6.31513">
        <ele>1509</ele>
        <time>2016-10-02T14:22:30+02:00</time>
      </trkpt>
      <trkpt lat="45.98738" lon="6.31511">
        <ele>1510</ele>
        <time>2016-10-02T14:22:31+02:00</time>
      </trkpt>
      <trkpt lat="45.98738" lon="6.31508">
        <ele>1511</ele>
        <time>2016-10-02T14:22:33+02:00</time>
      </trkpt>
      <trkpt lat="45.98739" lon="6.31506">
        <ele>1511</ele>
        <time>2016-10-02T14:22:34+02:00</time>
      </trkpt>
      <trkpt lat="45.98739" lon="6.31505">
        <ele>1511</ele>
        <time>2016-10-02T14:22:35+02:00</time>
      </trkpt>
      <trkpt lat="45.98739" lon="6.31503">
        <ele>1511</ele>
        <time>2016-10-02T14:22:36+02:00</time>
      </trkpt>
      <trkpt lat="45.98739" lon="6.31501">
        <ele>1512</ele>
        <time>2016-10-02T14:22:37+02:00</time>
      </trkpt>
      <trkpt lat="45.9874" lon="6.31499">
        <ele>1512</ele>
        <time>2016-10-02T14:22:38+02:00</time>
      </trkpt>
      <trkpt lat="45.9874" lon="6.31497">
        <ele>1512</ele>
        <time>2016-10-02T14:22:39+02:00</time>
      </trkpt>
      <trkpt lat="45.9874" lon="6.31495">
        <ele>1512</ele>
        <time>2016-10-02T14:22:41+02:00</time>
      </trkpt>
      <trkpt lat="45.9874" lon="6.31493">
        <ele>1513</ele>
        <time>2016-10-02T14:22:42+02:00</time>
      </trkpt>
      <trkpt lat="45.9874" lon="6.3149">
        <ele>1513</ele>
        <time>2016-10-02T14:22:43+02:00</time>
      </trkpt>
      <trkpt lat="45.9874" lon="6.31488">
        <ele>1513</ele>
        <time>2016-10-02T14:22:45+02:00</time>
      </trkpt>
      <trkpt lat="45.9874" lon="6.31486">
        <ele>1513</ele>
        <time>2016-10-02T14:22:46+02:00</time>
      </trkpt>
      <trkpt lat="45.98739" lon="6.31484">
        <ele>1513</ele>
        <time>2016-10-02T14:22:47+02:00</time>
      </trkpt>
      <trkpt lat="45.98739" lon="6.31482">
        <ele>1513</ele>
        <time>2016-10-02T14:22:48+02:00</time>
      </trkpt>
      <trkpt lat="45.98739" lon="6.3148">
        <ele>1513</ele>
        <time>2016-10-02T14:22:49+02:00</time>
      </trkpt>
      <trkpt lat="45.98739" lon="6.31477">
        <ele>1513</ele>
        <time>2016-10-02T14:22:51+02:00</time>
      </trkpt>
      <trkpt lat="45.98739" lon="6.31475">
        <ele>1513</ele>
        <time>2016-10-02T14:22:52+02:00</time>
      </trkpt>
      <trkpt lat="45.98738" lon="6.31473">
        <ele>1513</ele>
        <time>2016-10-02T14:22:53+02:00</time>
      </trkpt>
      <trkpt lat="45.98738" lon="6.31471">
        <ele>1513</ele>
        <time>2016-10-02T14:22:54+02:00</time>
      </trkpt>
      <trkpt lat="45.98737" lon="6.31469">
        <ele>1513</ele>
        <time>2016-10-02T14:22:55+02:00</time>
      </trkpt>
      <trkpt lat="45.98737" lon="6.31467">
        <ele>1512</ele>
        <time>2016-10-02T14:22:57+02:00</time>
      </trkpt>
      <trkpt lat="45.98736" lon="6.31465">
        <ele>1512</ele>
        <time>2016-10-02T14:22:58+02:00</time>
      </trkpt>
      <trkpt lat="45.98736" lon="6.31463">
        <ele>1512</ele>
        <time>2016-10-02T14:22:59+02:00</time>
      </trkpt>
      <trkpt lat="45.98736" lon="6.3146">
        <ele>1512</ele>
        <time>2016-10-02T14:23:00+02:00</time>
      </trkpt>
      <trkpt lat="45.98736" lon="6.31458">
        <ele>1512</ele>
        <time>2016-10-02T14:23:02+02:00</time>
      </trkpt>
      <trkpt lat="45.98735" lon="6.31456">
        <ele>1512</ele>
        <time>2016-10-02T14:23:03+02:00</time>
      </trkpt>
      <trkpt lat="45.98735" lon="6.31453">
        <ele>1513</ele>
        <time>2016-10-02T14:23:04+02:00</time>
      </trkpt>
      <trkpt lat="45.98735" lon="6.31451">
        <ele>1513</ele>
        <time>2016-10-02T14:23:06+02:00</time>
      </trkpt>
      <trkpt lat="45.98735" lon="6.31449">
        <ele>1513</ele>
        <time>2016-10-02T14:23:07+02:00</time>
      </trkpt>
      <trkpt lat="45.98734" lon="6.31447">
        <ele>1513</ele>
        <time>2016-10-02T14:23:08+02:00</time>
      </trkpt>
      <trkpt lat="45.98734" lon="6.31446">
        <ele>1512</ele>
        <time>2016-10-02T14:23:09+02:00</time>
      </trkpt>
      <trkpt lat="45.98733" lon="6.31444">
        <ele>1512</ele>
        <time>2016-10-02T14:23:10+02:00</time>
      </trkpt>
      <trkpt lat="45.98733" lon="6.31441">
        <ele>1512</ele>
        <time>2016-10-02T14:23:11+02:00</time>
      </trkpt>
      <trkpt lat="45.98733" lon="6.31439">
        <ele>1512</ele>
        <time>2016-10-02T14:23:13+02:00</time>
      </trkpt>
      <trkpt lat="45.98733" lon="6.31437">
        <ele>1512</ele>
        <time>2016-10-02T14:23:14+02:00</time>
      </trkpt>
      <trkpt lat="45.98732" lon="6.31435">
        <ele>1512</ele>
        <time>2016-10-02T14:23:15+02:00</time>
      </trkpt>
      <trkpt lat="45.98732" lon="6.31433">
        <ele>1512</ele>
        <time>2016-10-02T14:23:16+02:00</time>
      </trkpt>
      <trkpt lat="45.98731" lon="6.31431">
        <ele>1512</ele>
        <time>2016-10-02T14:23:17+02:00</time>
      </trkpt>
      <trkpt lat="45.98731" lon="6.31429">
        <ele>1512</ele>
        <time>2016-10-02T14:23:18+02:00</time>
      </trkpt>
      <trkpt lat="45.98731" lon="6.31427">
        <ele>1512</ele>
        <time>2016-10-02T14:23:19+02:00</time>
      </trkpt>
      <trkpt lat="45.98731" lon="6.31425">
        <ele>1512</ele>
        <time>2016-10-02T14:23:20+02:00</time>
      </trkpt>
      <trkpt lat="45.98731" lon="6.31424">
        <ele>1512</ele>
        <time>2016-10-02T14:23:21+02:00</time>
      </trkpt>
      <trkpt lat="45.98731" lon="6.31421">
        <ele>1513</ele>
        <time>2016-10-02T14:23:23+02:00</time>
      </trkpt>
      <trkpt lat="45.9873" lon="6.31419">
        <ele>1513</ele>
        <time>2016-10-02T14:23:24+02:00</time>
      </trkpt>
      <trkpt lat="45.9873" lon="6.31417">
        <ele>1512</ele>
        <time>2016-10-02T14:23:25+02:00</time>
      </trkpt>
      <trkpt lat="45.98729" lon="6.31415">
        <ele>1512</ele>
        <time>2016-10-02T14:23:26+02:00</time>
      </trkpt>
      <trkpt lat="45.98729" lon="6.31413">
        <ele>1512</ele>
        <time>2016-10-02T14:23:28+02:00</time>
      </trkpt>
      <trkpt lat="45.98728" lon="6.31411">
        <ele>1512</ele>
        <time>2016-10-02T14:23:29+02:00</time>
      </trkpt>
      <trkpt lat="45.98728" lon="6.31409">
        <ele>1512</ele>
        <time>2016-10-02T14:23:30+02:00</time>
      </trkpt>
      <trkpt lat="45.98727" lon="6.31407">
        <ele>1512</ele>
        <time>2016-10-02T14:23:31+02:00</time>
      </trkpt>
      <trkpt lat="45.98727" lon="6.31405">
        <ele>1512</ele>
        <time>2016-10-02T14:23:32+02:00</time>
      </trkpt>
      <trkpt lat="45.98726" lon="6.31403">
        <ele>1512</ele>
        <time>2016-10-02T14:23:33+02:00</time>
      </trkpt>
      <trkpt lat="45.98726" lon="6.31401">
        <ele>1512</ele>
        <time>2016-10-02T14:23:34+02:00</time>
      </trkpt>
      <trkpt lat="45.98726" lon="6.31399">
        <ele>1512</ele>
        <time>2016-10-02T14:23:35+02:00</time>
      </trkpt>
      <trkpt lat="45.98726" lon="6.31398">
        <ele>1512</ele>
        <time>2016-10-02T14:23:36+02:00</time>
      </trkpt>
      <trkpt lat="45.98725" lon="6.31396">
        <ele>1512</ele>
        <time>2016-10-02T14:23:37+02:00</time>
      </trkpt>
      <trkpt lat="45.98726" lon="6.31394">
        <ele>1512</ele>
        <time>2016-10-02T14:23:39+02:00</time>
      </trkpt>
      <trkpt lat="45.98726" lon="6.31392">
        <ele>1512</ele>
        <time>2016-10-02T14:23:40+02:00</time>
      </trkpt>
      <trkpt lat="45.98726" lon="6.3139">
        <ele>1512</ele>
        <time>2016-10-02T14:23:41+02:00</time>
      </trkpt>
      <trkpt lat="45.98726" lon="6.31388">
        <ele>1513</ele>
        <time>2016-10-02T14:23:42+02:00</time>
      </trkpt>
      <trkpt lat="45.98727" lon="6.31386">
        <ele>1513</ele>
        <time>2016-10-02T14:23:43+02:00</time>
      </trkpt>
      <trkpt lat="45.98727" lon="6.31384">
        <ele>1513</ele>
        <time>2016-10-02T14:23:45+02:00</time>
      </trkpt>
      <trkpt lat="45.98727" lon="6.31382">
        <ele>1513</ele>
        <time>2016-10-02T14:23:46+02:00</time>
      </trkpt>
      <trkpt lat="45.98727" lon="6.31379">
        <ele>1513</ele>
        <time>2016-10-02T14:23:47+02:00</time>
      </trkpt>
      <trkpt lat="45.98728" lon="6.31377">
        <ele>1513</ele>
        <time>2016-10-02T14:23:49+02:00</time>
      </trkpt>
      <trkpt lat="45.98728" lon="6.31375">
        <ele>1514</ele>
        <time>2016-10-02T14:23:50+02:00</time>
      </trkpt>
      <trkpt lat="45.98729" lon="6.31373">
        <ele>1514</ele>
        <time>2016-10-02T14:23:51+02:00</time>
      </trkpt>
      <trkpt lat="45.98729" lon="6.31371">
        <ele>1514</ele>
        <time>2016-10-02T14:23:53+02:00</time>
      </trkpt>
      <trkpt lat="45.98729" lon="6.31368">
        <ele>1514</ele>
        <time>2016-10-02T14:23:54+02:00</time>
      </trkpt>
      <trkpt lat="45.9873" lon="6.31366">
        <ele>1515</ele>
        <time>2016-10-02T14:23:55+02:00</time>
      </trkpt>
      <trkpt lat="45.9873" lon="6.31364">
        <ele>1515</ele>
        <time>2016-10-02T14:23:57+02:00</time>
      </trkpt>
      <trkpt lat="45.98731" lon="6.31362">
        <ele>1515</ele>
        <time>2016-10-02T14:23:58+02:00</time>
      </trkpt>
      <trkpt lat="45.98731" lon="6.31359">
        <ele>1516</ele>
        <time>2016-10-02T14:24:00+02:00</time>
      </trkpt>
      <trkpt lat="45.98732" lon="6.31357">
        <ele>1516</ele>
        <time>2016-10-02T14:24:01+02:00</time>
      </trkpt>
      <trkpt lat="45.98732" lon="6.31354">
        <ele>1516</ele>
        <time>2016-10-02T14:24:03+02:00</time>
      </trkpt>
      <trkpt lat="45.98732" lon="6.31351">
        <ele>1516</ele>
        <time>2016-10-02T14:24:04+02:00</time>
      </trkpt>
      <trkpt lat="45.98733" lon="6.31348">
        <ele>1517</ele>
        <time>2016-10-02T14:24:06+02:00</time>
      </trkpt>
      <trkpt lat="45.98733" lon="6.31345">
        <ele>1517</ele>
        <time>2016-10-02T14:24:08+02:00</time>
      </trkpt>
      <trkpt lat="45.98732" lon="6.31342">
        <ele>1517</ele>
        <time>2016-10-02T14:24:09+02:00</time>
      </trkpt>
      <trkpt lat="45.98732" lon="6.31339">
        <ele>1517</ele>
        <time>2016-10-02T14:24:11+02:00</time>
      </trkpt>
      <trkpt lat="45.98731" lon="6.31336">
        <ele>1517</ele>
        <time>2016-10-02T14:24:13+02:00</time>
      </trkpt>
      <trkpt lat="45.98731" lon="6.31333">
        <ele>1517</ele>
        <time>2016-10-02T14:24:15+02:00</time>
      </trkpt>
      <trkpt lat="45.9873" lon="6.31331">
        <ele>1516</ele>
        <time>2016-10-02T14:24:16+02:00</time>
      </trkpt>
      <trkpt lat="45.9873" lon="6.31328">
        <ele>1516</ele>
        <time>2016-10-02T14:24:18+02:00</time>
      </trkpt>
      <trkpt lat="45.98729" lon="6.31326">
        <ele>1516</ele>
        <time>2016-10-02T14:24:19+02:00</time>
      </trkpt>
      <trkpt lat="45.98728" lon="6.31323">
        <ele>1515</ele>
        <time>2016-10-02T14:24:21+02:00</time>
      </trkpt>
      <trkpt lat="45.98727" lon="6.3132">
        <ele>1515</ele>
        <time>2016-10-02T14:24:23+02:00</time>
      </trkpt>
      <trkpt lat="45.98727" lon="6.31317">
        <ele>1515</ele>
        <time>2016-10-02T14:24:24+02:00</time>
      </trkpt>
      <trkpt lat="45.98726" lon="6.31314">
        <ele>1515</ele>
        <time>2016-10-02T14:24:26+02:00</time>
      </trkpt>
      <trkpt lat="45.98726" lon="6.31311">
        <ele>1515</ele>
        <time>2016-10-02T14:24:28+02:00</time>
      </trkpt>
      <trkpt lat="45.98726" lon="6.31308">
        <ele>1514</ele>
        <time>2016-10-02T14:24:29+02:00</time>
      </trkpt>
      <trkpt lat="45.98726" lon="6.31305">
        <ele>1514</ele>
        <time>2016-10-02T14:24:31+02:00</time>
      </trkpt>
      <trkpt lat="45.98726" lon="6.31301">
        <ele>1514</ele>
        <time>2016-10-02T14:24:33+02:00</time>
      </trkpt>
      <trkpt lat="45.98727" lon="6.31298">
        <ele>1514</ele>
        <time>2016-10-02T14:24:35+02:00</time>
      </trkpt>
      <trkpt lat="45.98727" lon="6.31294">
        <ele>1514</ele>
        <time>2016-10-02T14:24:37+02:00</time>
      </trkpt>
      <trkpt lat="45.98727" lon="6.31291">
        <ele>1514</ele>
        <time>2016-10-02T14:24:39+02:00</time>
      </trkpt>
      <trkpt lat="45.98727" lon="6.31288">
        <ele>1514</ele>
        <time>2016-10-02T14:24:41+02:00</time>
      </trkpt>
      <trkpt lat="45.98727" lon="6.31285">
        <ele>1515</ele>
        <time>2016-10-02T14:24:43+02:00</time>
      </trkpt>
      <trkpt lat="45.98727" lon="6.31282">
        <ele>1515</ele>
        <time>2016-10-02T14:24:45+02:00</time>
      </trkpt>
      <trkpt lat="45.98728" lon="6.31278">
        <ele>1515</ele>
        <time>2016-10-02T14:24:46+02:00</time>
      </trkpt>
      <trkpt lat="45.98728" lon="6.31275">
        <ele>1515</ele>
        <time>2016-10-02T14:24:48+02:00</time>
      </trkpt>
      <trkpt lat="45.98728" lon="6.31272">
        <ele>1515</ele>
        <time>2016-10-02T14:24:50+02:00</time>
      </trkpt>
      <trkpt lat="45.98728" lon="6.31269">
        <ele>1515</ele>
        <time>2016-10-02T14:24:52+02:00</time>
      </trkpt>
      <trkpt lat="45.98728" lon="6.31265">
        <ele>1515</ele>
        <time>2016-10-02T14:24:54+02:00</time>
      </trkpt>
      <trkpt lat="45.98729" lon="6.31262">
        <ele>1515</ele>
        <time>2016-10-02T14:24:55+02:00</time>
      </trkpt>
      <trkpt lat="45.98729" lon="6.31259">
        <ele>1515</ele>
        <time>2016-10-02T14:24:57+02:00</time>
      </trkpt>
      <trkpt lat="45.98729" lon="6.31256">
        <ele>1515</ele>
        <time>2016-10-02T14:24:59+02:00</time>
      </trkpt>
      <trkpt lat="45.98729" lon="6.31253">
        <ele>1515</ele>
        <time>2016-10-02T14:25:00+02:00</time>
      </trkpt>
      <trkpt lat="45.9873" lon="6.3125">
        <ele>1515</ele>
        <time>2016-10-02T14:25:02+02:00</time>
      </trkpt>
      <trkpt lat="45.9873" lon="6.31247">
        <ele>1515</ele>
        <time>2016-10-02T14:25:04+02:00</time>
      </trkpt>
      <trkpt lat="45.9873" lon="6.31245">
        <ele>1515</ele>
        <time>2016-10-02T14:25:05+02:00</time>
      </trkpt>
      <trkpt lat="45.9873" lon="6.31242">
        <ele>1515</ele>
        <time>2016-10-02T14:25:07+02:00</time>
      </trkpt>
      <trkpt lat="45.98731" lon="6.31239">
        <ele>1515</ele>
        <time>2016-10-02T14:25:08+02:00</time>
      </trkpt>
      <trkpt lat="45.98732" lon="6.31237">
        <ele>1515</ele>
        <time>2016-10-02T14:25:10+02:00</time>
      </trkpt>
      <trkpt lat="45.98732" lon="6.31234">
        <ele>1515</ele>
        <time>2016-10-02T14:25:12+02:00</time>
      </trkpt>
      <trkpt lat="45.98733" lon="6.31231">
        <ele>1515</ele>
        <time>2016-10-02T14:25:13+02:00</time>
      </trkpt>
      <trkpt lat="45.98734" lon="6.31229">
        <ele>1515</ele>
        <time>2016-10-02T14:25:15+02:00</time>
      </trkpt>
      <trkpt lat="45.98735" lon="6.31226">
        <ele>1515</ele>
        <time>2016-10-02T14:25:17+02:00</time>
      </trkpt>
      <trkpt lat="45.98736" lon="6.31224">
        <ele>1515</ele>
        <time>2016-10-02T14:25:18+02:00</time>
      </trkpt>
      <trkpt lat="45.98737" lon="6.31221">
        <ele>1515</ele>
        <time>2016-10-02T14:25:20+02:00</time>
      </trkpt>
      <trkpt lat="45.98738" lon="6.31219">
        <ele>1515</ele>
        <time>2016-10-02T14:25:22+02:00</time>
      </trkpt>
      <trkpt lat="45.98739" lon="6.31216">
        <ele>1515</ele>
        <time>2016-10-02T14:25:23+02:00</time>
      </trkpt>
      <trkpt lat="45.98741" lon="6.31214">
        <ele>1516</ele>
        <time>2016-10-02T14:25:25+02:00</time>
      </trkpt>
      <trkpt lat="45.98742" lon="6.31212">
        <ele>1516</ele>
        <time>2016-10-02T14:25:26+02:00</time>
      </trkpt>
      <trkpt lat="45.98743" lon="6.3121">
        <ele>1516</ele>
        <time>2016-10-02T14:25:28+02:00</time>
      </trkpt>
      <trkpt lat="45.98745" lon="6.31208">
        <ele>1516</ele>
        <time>2016-10-02T14:25:30+02:00</time>
      </trkpt>
      <trkpt lat="45.98746" lon="6.31206">
        <ele>1517</ele>
        <time>2016-10-02T14:25:31+02:00</time>
      </trkpt>
      <trkpt lat="45.98747" lon="6.31204">
        <ele>1517</ele>
        <time>2016-10-02T14:25:33+02:00</time>
      </trkpt>
      <trkpt lat="45.98748" lon="6.31202">
        <ele>1517</ele>
        <time>2016-10-02T14:25:34+02:00</time>
      </trkpt>
      <trkpt lat="45.98749" lon="6.31201">
        <ele>1517</ele>
        <time>2016-10-02T14:25:35+02:00</time>
      </trkpt>
      <trkpt lat="45.9875" lon="6.312">
        <ele>1517</ele>
        <time>2016-10-02T14:25:36+02:00</time>
      </trkpt>
      <trkpt lat="45.98751" lon="6.31199">
        <ele>1518</ele>
        <time>2016-10-02T14:25:37+02:00</time>
      </trkpt>
      <trkpt lat="45.98752" lon="6.31198">
        <ele>1518</ele>
        <time>2016-10-02T14:25:38+02:00</time>
      </trkpt>
      <trkpt lat="45.98754" lon="6.31197">
        <ele>1518</ele>
        <time>2016-10-02T14:25:39+02:00</time>
      </trkpt>
      <trkpt lat="45.98755" lon="6.31196">
        <ele>1519</ele>
        <time>2016-10-02T14:25:40+02:00</time>
      </trkpt>
      <trkpt lat="45.98756" lon="6.31196">
        <ele>1519</ele>
        <time>2016-10-02T14:25:41+02:00</time>
      </trkpt>
      <trkpt lat="45.98757" lon="6.31195">
        <ele>1519</ele>
        <time>2016-10-02T14:25:42+02:00</time>
      </trkpt>
      <trkpt lat="45.98758" lon="6.31195">
        <ele>1520</ele>
        <time>2016-10-02T14:25:43+02:00</time>
      </trkpt>
      <trkpt lat="45.98759" lon="6.31194">
        <ele>1520</ele>
        <time>2016-10-02T14:25:44+02:00</time>
      </trkpt>
      <trkpt lat="45.9876" lon="6.31193">
        <ele>1520</ele>
        <time>2016-10-02T14:25:45+02:00</time>
      </trkpt>
      <trkpt lat="45.98761" lon="6.31193">
        <ele>1521</ele>
        <time>2016-10-02T14:25:46+02:00</time>
      </trkpt>
      <trkpt lat="45.98762" lon="6.31193">
        <ele>1521</ele>
        <time>2016-10-02T14:25:47+02:00</time>
      </trkpt>
      <trkpt lat="45.98763" lon="6.31192">
        <ele>1522</ele>
        <time>2016-10-02T14:25:48+02:00</time>
      </trkpt>
      <trkpt lat="45.98764" lon="6.31192">
        <ele>1522</ele>
        <time>2016-10-02T14:25:49+02:00</time>
      </trkpt>
      <trkpt lat="45.98766" lon="6.31191">
        <ele>1523</ele>
        <time>2016-10-02T14:25:50+02:00</time>
      </trkpt>
      <trkpt lat="45.98767" lon="6.31191">
        <ele>1523</ele>
        <time>2016-10-02T14:25:51+02:00</time>
      </trkpt>
      <trkpt lat="45.98768" lon="6.31191">
        <ele>1523</ele>
        <time>2016-10-02T14:25:52+02:00</time>
      </trkpt>
      <trkpt lat="45.98769" lon="6.31191">
        <ele>1524</ele>
        <time>2016-10-02T14:25:53+02:00</time>
      </trkpt>
      <trkpt lat="45.9877" lon="6.31191">
        <ele>1524</ele>
        <time>2016-10-02T14:25:54+02:00</time>
      </trkpt>
      <trkpt lat="45.98772" lon="6.31191">
        <ele>1525</ele>
        <time>2016-10-02T14:25:56+02:00</time>
      </trkpt>
      <trkpt lat="45.98773" lon="6.3119">
        <ele>1525</ele>
        <time>2016-10-02T14:25:57+02:00</time>
      </trkpt>
      <trkpt lat="45.98774" lon="6.3119">
        <ele>1526</ele>
        <time>2016-10-02T14:25:58+02:00</time>
      </trkpt>
      <trkpt lat="45.98775" lon="6.31189">
        <ele>1526</ele>
        <time>2016-10-02T14:25:59+02:00</time>
      </trkpt>
      <trkpt lat="45.98777" lon="6.31189">
        <ele>1527</ele>
        <time>2016-10-02T14:26:00+02:00</time>
      </trkpt>
      <trkpt lat="45.98778" lon="6.31188">
        <ele>1527</ele>
        <time>2016-10-02T14:26:01+02:00</time>
      </trkpt>
      <trkpt lat="45.98779" lon="6.31187">
        <ele>1528</ele>
        <time>2016-10-02T14:26:02+02:00</time>
      </trkpt>
      <trkpt lat="45.98781" lon="6.31186">
        <ele>1528</ele>
        <time>2016-10-02T14:26:04+02:00</time>
      </trkpt>
      <trkpt lat="45.98782" lon="6.31185">
        <ele>1529</ele>
        <time>2016-10-02T14:26:05+02:00</time>
      </trkpt>
      <trkpt lat="45.98784" lon="6.31184">
        <ele>1529</ele>
        <time>2016-10-02T14:26:06+02:00</time>
      </trkpt>
      <trkpt lat="45.98785" lon="6.31183">
        <ele>1529</ele>
        <time>2016-10-02T14:26:07+02:00</time>
      </trkpt>
      <trkpt lat="45.98786" lon="6.31182">
        <ele>1530</ele>
        <time>2016-10-02T14:26:09+02:00</time>
      </trkpt>
      <trkpt lat="45.98787" lon="6.31181">
        <ele>1530</ele>
        <time>2016-10-02T14:26:10+02:00</time>
      </trkpt>
      <trkpt lat="45.98788" lon="6.3118">
        <ele>1531</ele>
        <time>2016-10-02T14:26:11+02:00</time>
      </trkpt>
      <trkpt lat="45.98789" lon="6.3118">
        <ele>1531</ele>
        <time>2016-10-02T14:26:12+02:00</time>
      </trkpt>
      <trkpt lat="45.9879" lon="6.31179">
        <ele>1531</ele>
        <time>2016-10-02T14:26:13+02:00</time>
      </trkpt>
      <trkpt lat="45.98791" lon="6.31178">
        <ele>1532</ele>
        <time>2016-10-02T14:26:14+02:00</time>
      </trkpt>
      <trkpt lat="45.98793" lon="6.31178">
        <ele>1532</ele>
        <time>2016-10-02T14:26:15+02:00</time>
      </trkpt>
      <trkpt lat="45.98794" lon="6.31177">
        <ele>1533</ele>
        <time>2016-10-02T14:26:16+02:00</time>
      </trkpt>
      <trkpt lat="45.98795" lon="6.31176">
        <ele>1533</ele>
        <time>2016-10-02T14:26:17+02:00</time>
      </trkpt>
      <trkpt lat="45.98796" lon="6.31176">
        <ele>1533</ele>
        <time>2016-10-02T14:26:18+02:00</time>
      </trkpt>
      <trkpt lat="45.98797" lon="6.31175">
        <ele>1534</ele>
        <time>2016-10-02T14:26:19+02:00</time>
      </trkpt>
      <trkpt lat="45.98798" lon="6.31174">
        <ele>1534</ele>
        <time>2016-10-02T14:26:20+02:00</time>
      </trkpt>
      <trkpt lat="45.98799" lon="6.31173">
        <ele>1534</ele>
        <time>2016-10-02T14:26:21+02:00</time>
      </trkpt>
      <trkpt lat="45.98799" lon="6.31171">
        <ele>1534</ele>
        <time>2016-10-02T14:26:22+02:00</time>
      </trkpt>
      <trkpt lat="45.988" lon="6.31169">
        <ele>1535</ele>
        <time>2016-10-02T14:26:23+02:00</time>
      </trkpt>
      <trkpt lat="45.98801" lon="6.31168">
        <ele>1535</ele>
        <time>2016-10-02T14:26:24+02:00</time>
      </trkpt>
      <trkpt lat="45.98801" lon="6.31167">
        <ele>1535</ele>
        <time>2016-10-02T14:26:25+02:00</time>
      </trkpt>
      <trkpt lat="45.98802" lon="6.31165">
        <ele>1535</ele>
        <time>2016-10-02T14:26:26+02:00</time>
      </trkpt>
      <trkpt lat="45.98803" lon="6.31164">
        <ele>1535</ele>
        <time>2016-10-02T14:26:27+02:00</time>
      </trkpt>
      <trkpt lat="45.98804" lon="6.31162">
        <ele>1536</ele>
        <time>2016-10-02T14:26:28+02:00</time>
      </trkpt>
      <trkpt lat="45.98805" lon="6.3116">
        <ele>1536</ele>
        <time>2016-10-02T14:26:29+02:00</time>
      </trkpt>
      <trkpt lat="45.98806" lon="6.31159">
        <ele>1536</ele>
        <time>2016-10-02T14:26:30+02:00</time>
      </trkpt>
      <trkpt lat="45.98807" lon="6.31158">
        <ele>1537</ele>
        <time>2016-10-02T14:26:31+02:00</time>
      </trkpt>
      <trkpt lat="45.98807" lon="6.31156">
        <ele>1537</ele>
        <time>2016-10-02T14:26:32+02:00</time>
      </trkpt>
      <trkpt lat="45.98808" lon="6.31155">
        <ele>1537</ele>
        <time>2016-10-02T14:26:33+02:00</time>
      </trkpt>
      <trkpt lat="45.98809" lon="6.31154">
        <ele>1537</ele>
        <time>2016-10-02T14:26:34+02:00</time>
      </trkpt>
      <trkpt lat="45.9881" lon="6.31152">
        <ele>1538</ele>
        <time>2016-10-02T14:26:35+02:00</time>
      </trkpt>
      <trkpt lat="45.98811" lon="6.31151">
        <ele>1538</ele>
        <time>2016-10-02T14:26:36+02:00</time>
      </trkpt>
      <trkpt lat="45.98812" lon="6.3115">
        <ele>1538</ele>
        <time>2016-10-02T14:26:38+02:00</time>
      </trkpt>
      <trkpt lat="45.98812" lon="6.31148">
        <ele>1539</ele>
        <time>2016-10-02T14:26:39+02:00</time>
      </trkpt>
      <trkpt lat="45.98813" lon="6.31147">
        <ele>1539</ele>
        <time>2016-10-02T14:26:40+02:00</time>
      </trkpt>
      <trkpt lat="45.98814" lon="6.31146">
        <ele>1539</ele>
        <time>2016-10-02T14:26:41+02:00</time>
      </trkpt>
      <trkpt lat="45.98815" lon="6.31144">
        <ele>1540</ele>
        <time>2016-10-02T14:26:42+02:00</time>
      </trkpt>
      <trkpt lat="45.98816" lon="6.31143">
        <ele>1540</ele>
        <time>2016-10-02T14:26:43+02:00</time>
      </trkpt>
      <trkpt lat="45.98817" lon="6.31142">
        <ele>1540</ele>
        <time>2016-10-02T14:26:44+02:00</time>
      </trkpt>
      <trkpt lat="45.98817" lon="6.3114">
        <ele>1540</ele>
        <time>2016-10-02T14:26:45+02:00</time>
      </trkpt>
      <trkpt lat="45.98818" lon="6.31139">
        <ele>1541</ele>
        <time>2016-10-02T14:26:46+02:00</time>
      </trkpt>
      <trkpt lat="45.98819" lon="6.31138">
        <ele>1541</ele>
        <time>2016-10-02T14:26:47+02:00</time>
      </trkpt>
      <trkpt lat="45.9882" lon="6.31137">
        <ele>1541</ele>
        <time>2016-10-02T14:26:48+02:00</time>
      </trkpt>
      <trkpt lat="45.98821" lon="6.31136">
        <ele>1542</ele>
        <time>2016-10-02T14:26:49+02:00</time>
      </trkpt>
      <trkpt lat="45.98822" lon="6.31135">
        <ele>1542</ele>
        <time>2016-10-02T14:26:50+02:00</time>
      </trkpt>
      <trkpt lat="45.98823" lon="6.31134">
        <ele>1542</ele>
        <time>2016-10-02T14:26:51+02:00</time>
      </trkpt>
      <trkpt lat="45.98824" lon="6.31132">
        <ele>1543</ele>
        <time>2016-10-02T14:26:52+02:00</time>
      </trkpt>
      <trkpt lat="45.98825" lon="6.31131">
        <ele>1543</ele>
        <time>2016-10-02T14:26:53+02:00</time>
      </trkpt>
      <trkpt lat="45.98825" lon="6.3113">
        <ele>1543</ele>
        <time>2016-10-02T14:26:54+02:00</time>
      </trkpt>
      <trkpt lat="45.98826" lon="6.31129">
        <ele>1544</ele>
        <time>2016-10-02T14:26:55+02:00</time>
      </trkpt>
      <trkpt lat="45.98827" lon="6.31128">
        <ele>1544</ele>
        <time>2016-10-02T14:26:56+02:00</time>
      </trkpt>
      <trkpt lat="45.98828" lon="6.31126">
        <ele>1544</ele>
        <time>2016-10-02T14:26:57+02:00</time>
      </trkpt>
      <trkpt lat="45.98829" lon="6.31125">
        <ele>1545</ele>
        <time>2016-10-02T14:26:58+02:00</time>
      </trkpt>
      <trkpt lat="45.98829" lon="6.31124">
        <ele>1545</ele>
        <time>2016-10-02T14:26:59+02:00</time>
      </trkpt>
      <trkpt lat="45.9883" lon="6.31122">
        <ele>1545</ele>
        <time>2016-10-02T14:27:00+02:00</time>
      </trkpt>
      <trkpt lat="45.98831" lon="6.31121">
        <ele>1545</ele>
        <time>2016-10-02T14:27:01+02:00</time>
      </trkpt>
      <trkpt lat="45.98832" lon="6.3112">
        <ele>1546</ele>
        <time>2016-10-02T14:27:02+02:00</time>
      </trkpt>
      <trkpt lat="45.98833" lon="6.31118">
        <ele>1546</ele>
        <time>2016-10-02T14:27:03+02:00</time>
      </trkpt>
      <trkpt lat="45.98834" lon="6.31117">
        <ele>1546</ele>
        <time>2016-10-02T14:27:05+02:00</time>
      </trkpt>
      <trkpt lat="45.98835" lon="6.31115">
        <ele>1547</ele>
        <time>2016-10-02T14:27:06+02:00</time>
      </trkpt>
      <trkpt lat="45.98835" lon="6.31114">
        <ele>1547</ele>
        <time>2016-10-02T14:27:07+02:00</time>
      </trkpt>
      <trkpt lat="45.98836" lon="6.31112">
        <ele>1547</ele>
        <time>2016-10-02T14:27:08+02:00</time>
      </trkpt>
      <trkpt lat="45.98837" lon="6.31111">
        <ele>1547</ele>
        <time>2016-10-02T14:27:09+02:00</time>
      </trkpt>
      <trkpt lat="45.98837" lon="6.31109">
        <ele>1548</ele>
        <time>2016-10-02T14:27:10+02:00</time>
      </trkpt>
      <trkpt lat="45.98838" lon="6.31108">
        <ele>1548</ele>
        <time>2016-10-02T14:27:11+02:00</time>
      </trkpt>
      <trkpt lat="45.98838" lon="6.31106">
        <ele>1548</ele>
        <time>2016-10-02T14:27:12+02:00</time>
      </trkpt>
      <trkpt lat="45.98838" lon="6.31105">
        <ele>1548</ele>
        <time>2016-10-02T14:27:12+02:00</time>
      </trkpt>
      <trkpt lat="45.98839" lon="6.31103">
        <ele>1548</ele>
        <time>2016-10-02T14:27:13+02:00</time>
      </trkpt>
      <trkpt lat="45.98839" lon="6.31102">
        <ele>1548</ele>
        <time>2016-10-02T14:27:14+02:00</time>
      </trkpt>
      <trkpt lat="45.98839" lon="6.311">
        <ele>1548</ele>
        <time>2016-10-02T14:27:15+02:00</time>
      </trkpt>
      <trkpt lat="45.98839" lon="6.31098">
        <ele>1548</ele>
        <time>2016-10-02T14:27:16+02:00</time>
      </trkpt>
      <trkpt lat="45.98839" lon="6.31096">
        <ele>1548</ele>
        <time>2016-10-02T14:27:17+02:00</time>
      </trkpt>
      <trkpt lat="45.98839" lon="6.31095">
        <ele>1548</ele>
        <time>2016-10-02T14:27:18+02:00</time>
      </trkpt>
      <trkpt lat="45.98839" lon="6.31093">
        <ele>1548</ele>
        <time>2016-10-02T14:27:19+02:00</time>
      </trkpt>
      <trkpt lat="45.98839" lon="6.31091">
        <ele>1548</ele>
        <time>2016-10-02T14:27:20+02:00</time>
      </trkpt>
      <trkpt lat="45.98839" lon="6.31089">
        <ele>1547</ele>
        <time>2016-10-02T14:27:21+02:00</time>
      </trkpt>
      <trkpt lat="45.98838" lon="6.31087">
        <ele>1547</ele>
        <time>2016-10-02T14:27:22+02:00</time>
      </trkpt>
      <trkpt lat="45.98838" lon="6.31085">
        <ele>1547</ele>
        <time>2016-10-02T14:27:23+02:00</time>
      </trkpt>
      <trkpt lat="45.98838" lon="6.31084">
        <ele>1547</ele>
        <time>2016-10-02T14:27:24+02:00</time>
      </trkpt>
      <trkpt lat="45.98838" lon="6.31082">
        <ele>1547</ele>
        <time>2016-10-02T14:27:26+02:00</time>
      </trkpt>
      <trkpt lat="45.98838" lon="6.3108">
        <ele>1547</ele>
        <time>2016-10-02T14:27:26+02:00</time>
      </trkpt>
      <trkpt lat="45.98838" lon="6.31079">
        <ele>1547</ele>
        <time>2016-10-02T14:27:27+02:00</time>
      </trkpt>
      <trkpt lat="45.98838" lon="6.31077">
        <ele>1547</ele>
        <time>2016-10-02T14:27:28+02:00</time>
      </trkpt>
      <trkpt lat="45.98838" lon="6.31075">
        <ele>1547</ele>
        <time>2016-10-02T14:27:29+02:00</time>
      </trkpt>
      <trkpt lat="45.98838" lon="6.31074">
        <ele>1547</ele>
        <time>2016-10-02T14:27:30+02:00</time>
      </trkpt>
      <trkpt lat="45.98838" lon="6.31072">
        <ele>1547</ele>
        <time>2016-10-02T14:27:31+02:00</time>
      </trkpt>
      <trkpt lat="45.98838" lon="6.3107">
        <ele>1547</ele>
        <time>2016-10-02T14:27:32+02:00</time>
      </trkpt>
      <trkpt lat="45.98838" lon="6.31068">
        <ele>1547</ele>
        <time>2016-10-02T14:27:33+02:00</time>
      </trkpt>
      <trkpt lat="45.98837" lon="6.31066">
        <ele>1547</ele>
        <time>2016-10-02T14:27:35+02:00</time>
      </trkpt>
      <trkpt lat="45.98837" lon="6.31065">
        <ele>1546</ele>
        <time>2016-10-02T14:27:36+02:00</time>
      </trkpt>
      <trkpt lat="45.98837" lon="6.31063">
        <ele>1546</ele>
        <time>2016-10-02T14:27:37+02:00</time>
      </trkpt>
      <trkpt lat="45.98837" lon="6.31061">
        <ele>1546</ele>
        <time>2016-10-02T14:27:38+02:00</time>
      </trkpt>
      <trkpt lat="45.98837" lon="6.31059">
        <ele>1546</ele>
        <time>2016-10-02T14:27:39+02:00</time>
      </trkpt>
      <trkpt lat="45.98836" lon="6.31057">
        <ele>1546</ele>
        <time>2016-10-02T14:27:40+02:00</time>
      </trkpt>
      <trkpt lat="45.98836" lon="6.31055">
        <ele>1546</ele>
        <time>2016-10-02T14:27:41+02:00</time>
      </trkpt>
      <trkpt lat="45.98836" lon="6.31053">
        <ele>1546</ele>
        <time>2016-10-02T14:27:42+02:00</time>
      </trkpt>
      <trkpt lat="45.98836" lon="6.31051">
        <ele>1546</ele>
        <time>2016-10-02T14:27:43+02:00</time>
      </trkpt>
      <trkpt lat="45.98836" lon="6.31049">
        <ele>1546</ele>
        <time>2016-10-02T14:27:44+02:00</time>
      </trkpt>
      <trkpt lat="45.98835" lon="6.31047">
        <ele>1545</ele>
        <time>2016-10-02T14:27:45+02:00</time>
      </trkpt>
      <trkpt lat="45.98835" lon="6.31045">
        <ele>1545</ele>
        <time>2016-10-02T14:27:47+02:00</time>
      </trkpt>
      <trkpt lat="45.98835" lon="6.31043">
        <ele>1545</ele>
        <time>2016-10-02T14:27:48+02:00</time>
      </trkpt>
      <trkpt lat="45.98835" lon="6.31041">
        <ele>1545</ele>
        <time>2016-10-02T14:27:49+02:00</time>
      </trkpt>
      <trkpt lat="45.98835" lon="6.3104">
        <ele>1545</ele>
        <time>2016-10-02T14:27:50+02:00</time>
      </trkpt>
      <trkpt lat="45.98835" lon="6.31038">
        <ele>1545</ele>
        <time>2016-10-02T14:27:51+02:00</time>
      </trkpt>
      <trkpt lat="45.98834" lon="6.31035">
        <ele>1545</ele>
        <time>2016-10-02T14:27:52+02:00</time>
      </trkpt>
      <trkpt lat="45.98834" lon="6.31033">
        <ele>1545</ele>
        <time>2016-10-02T14:27:54+02:00</time>
      </trkpt>
      <trkpt lat="45.98834" lon="6.31031">
        <ele>1545</ele>
        <time>2016-10-02T14:27:55+02:00</time>
      </trkpt>
      <trkpt lat="45.98834" lon="6.31029">
        <ele>1545</ele>
        <time>2016-10-02T14:27:56+02:00</time>
      </trkpt>
      <trkpt lat="45.98834" lon="6.31027">
        <ele>1545</ele>
        <time>2016-10-02T14:27:57+02:00</time>
      </trkpt>
      <trkpt lat="45.98834" lon="6.31025">
        <ele>1545</ele>
        <time>2016-10-02T14:27:58+02:00</time>
      </trkpt>
      <trkpt lat="45.98834" lon="6.31023">
        <ele>1545</ele>
        <time>2016-10-02T14:27:59+02:00</time>
      </trkpt>
      <trkpt lat="45.98834" lon="6.31021">
        <ele>1545</ele>
        <time>2016-10-02T14:28:00+02:00</time>
      </trkpt>
      <trkpt lat="45.98834" lon="6.31019">
        <ele>1545</ele>
        <time>2016-10-02T14:28:02+02:00</time>
      </trkpt>
      <trkpt lat="45.98834" lon="6.31018">
        <ele>1545</ele>
        <time>2016-10-02T14:28:03+02:00</time>
      </trkpt>
      <trkpt lat="45.98834" lon="6.31016">
        <ele>1545</ele>
        <time>2016-10-02T14:28:03+02:00</time>
      </trkpt>
      <trkpt lat="45.98834" lon="6.31014">
        <ele>1545</ele>
        <time>2016-10-02T14:28:05+02:00</time>
      </trkpt>
      <trkpt lat="45.98834" lon="6.31012">
        <ele>1544</ele>
        <time>2016-10-02T14:28:06+02:00</time>
      </trkpt>
      <trkpt lat="45.98834" lon="6.3101">
        <ele>1544</ele>
        <time>2016-10-02T14:28:07+02:00</time>
      </trkpt>
      <trkpt lat="45.98834" lon="6.31008">
        <ele>1544</ele>
        <time>2016-10-02T14:28:08+02:00</time>
      </trkpt>
      <trkpt lat="45.98834" lon="6.31007">
        <ele>1544</ele>
        <time>2016-10-02T14:28:09+02:00</time>
      </trkpt>
      <trkpt lat="45.98834" lon="6.31005">
        <ele>1544</ele>
        <time>2016-10-02T14:28:10+02:00</time>
      </trkpt>
      <trkpt lat="45.98834" lon="6.31003">
        <ele>1544</ele>
        <time>2016-10-02T14:28:11+02:00</time>
      </trkpt>
      <trkpt lat="45.98834" lon="6.31001">
        <ele>1544</ele>
        <time>2016-10-02T14:28:12+02:00</time>
      </trkpt>
      <trkpt lat="45.98834" lon="6.30999">
        <ele>1545</ele>
        <time>2016-10-02T14:28:13+02:00</time>
      </trkpt>
      <trkpt lat="45.98834" lon="6.30997">
        <ele>1545</ele>
        <time>2016-10-02T14:28:14+02:00</time>
      </trkpt>
      <trkpt lat="45.98834" lon="6.30996">
        <ele>1545</ele>
        <time>2016-10-02T14:28:15+02:00</time>
      </trkpt>
      <trkpt lat="45.98835" lon="6.30994">
        <ele>1545</ele>
        <time>2016-10-02T14:28:16+02:00</time>
      </trkpt>
      <trkpt lat="45.98835" lon="6.30992">
        <ele>1545</ele>
        <time>2016-10-02T14:28:17+02:00</time>
      </trkpt>
      <trkpt lat="45.98836" lon="6.3099">
        <ele>1546</ele>
        <time>2016-10-02T14:28:18+02:00</time>
      </trkpt>
      <trkpt lat="45.98836" lon="6.30988">
        <ele>1546</ele>
        <time>2016-10-02T14:28:19+02:00</time>
      </trkpt>
      <trkpt lat="45.98836" lon="6.30987">
        <ele>1546</ele>
        <time>2016-10-02T14:28:20+02:00</time>
      </trkpt>
      <trkpt lat="45.98837" lon="6.30985">
        <ele>1546</ele>
        <time>2016-10-02T14:28:21+02:00</time>
      </trkpt>
      <trkpt lat="45.98837" lon="6.30984">
        <ele>1546</ele>
        <time>2016-10-02T14:28:22+02:00</time>
      </trkpt>
      <trkpt lat="45.98837" lon="6.30982">
        <ele>1546</ele>
        <time>2016-10-02T14:28:23+02:00</time>
      </trkpt>
      <trkpt lat="45.98837" lon="6.3098">
        <ele>1547</ele>
        <time>2016-10-02T14:28:24+02:00</time>
      </trkpt>
      <trkpt lat="45.98837" lon="6.30978">
        <ele>1547</ele>
        <time>2016-10-02T14:28:25+02:00</time>
      </trkpt>
      <trkpt lat="45.98838" lon="6.30976">
        <ele>1547</ele>
        <time>2016-10-02T14:28:27+02:00</time>
      </trkpt>
      <trkpt lat="45.98838" lon="6.30975">
        <ele>1547</ele>
        <time>2016-10-02T14:28:28+02:00</time>
      </trkpt>
      <trkpt lat="45.98839" lon="6.30973">
        <ele>1548</ele>
        <time>2016-10-02T14:28:29+02:00</time>
      </trkpt>
      <trkpt lat="45.98839" lon="6.30971">
        <ele>1548</ele>
        <time>2016-10-02T14:28:30+02:00</time>
      </trkpt>
      <trkpt lat="45.9884" lon="6.3097">
        <ele>1548</ele>
        <time>2016-10-02T14:28:31+02:00</time>
      </trkpt>
      <trkpt lat="45.9884" lon="6.30968">
        <ele>1549</ele>
        <time>2016-10-02T14:28:32+02:00</time>
      </trkpt>
      <trkpt lat="45.98841" lon="6.30966">
        <ele>1549</ele>
        <time>2016-10-02T14:28:33+02:00</time>
      </trkpt>
      <trkpt lat="45.98842" lon="6.30965">
        <ele>1550</ele>
        <time>2016-10-02T14:28:34+02:00</time>
      </trkpt>
      <trkpt lat="45.98843" lon="6.30963">
        <ele>1550</ele>
        <time>2016-10-02T14:28:35+02:00</time>
      </trkpt>
      <trkpt lat="45.98844" lon="6.30962">
        <ele>1550</ele>
        <time>2016-10-02T14:28:37+02:00</time>
      </trkpt>
      <trkpt lat="45.98844" lon="6.3096">
        <ele>1551</ele>
        <time>2016-10-02T14:28:38+02:00</time>
      </trkpt>
      <trkpt lat="45.98845" lon="6.30958">
        <ele>1551</ele>
        <time>2016-10-02T14:28:39+02:00</time>
      </trkpt>
      <trkpt lat="45.98846" lon="6.30957">
        <ele>1552</ele>
        <time>2016-10-02T14:28:40+02:00</time>
      </trkpt>
      <trkpt lat="45.98847" lon="6.30955">
        <ele>1552</ele>
        <time>2016-10-02T14:28:42+02:00</time>
      </trkpt>
      <trkpt lat="45.98848" lon="6.30954">
        <ele>1553</ele>
        <time>2016-10-02T14:28:42+02:00</time>
      </trkpt>
      <trkpt lat="45.98848" lon="6.30953">
        <ele>1553</ele>
        <time>2016-10-02T14:28:43+02:00</time>
      </trkpt>
      <trkpt lat="45.98849" lon="6.3095">
        <ele>1553</ele>
        <time>2016-10-02T14:28:45+02:00</time>
      </trkpt>
      <trkpt lat="45.98849" lon="6.30948">
        <ele>1554</ele>
        <time>2016-10-02T14:28:46+02:00</time>
      </trkpt>
      <trkpt lat="45.9885" lon="6.30946">
        <ele>1554</ele>
        <time>2016-10-02T14:28:47+02:00</time>
      </trkpt>
      <trkpt lat="45.9885" lon="6.30944">
        <ele>1554</ele>
        <time>2016-10-02T14:28:49+02:00</time>
      </trkpt>
      <trkpt lat="45.9885" lon="6.30942">
        <ele>1554</ele>
        <time>2016-10-02T14:28:50+02:00</time>
      </trkpt>
      <trkpt lat="45.98851" lon="6.30941">
        <ele>1555</ele>
        <time>2016-10-02T14:28:51+02:00</time>
      </trkpt>
      <trkpt lat="45.98851" lon="6.30939">
        <ele>1555</ele>
        <time>2016-10-02T14:28:51+02:00</time>
      </trkpt>
      <trkpt lat="45.98851" lon="6.30937">
        <ele>1555</ele>
        <time>2016-10-02T14:28:53+02:00</time>
      </trkpt>
      <trkpt lat="45.98851" lon="6.30935">
        <ele>1555</ele>
        <time>2016-10-02T14:28:54+02:00</time>
      </trkpt>
      <trkpt lat="45.98851" lon="6.30933">
        <ele>1555</ele>
        <time>2016-10-02T14:28:55+02:00</time>
      </trkpt>
      <trkpt lat="45.98851" lon="6.30931">
        <ele>1555</ele>
        <time>2016-10-02T14:28:56+02:00</time>
      </trkpt>
      <trkpt lat="45.98851" lon="6.30929">
        <ele>1555</ele>
        <time>2016-10-02T14:28:57+02:00</time>
      </trkpt>
      <trkpt lat="45.98851" lon="6.30928">
        <ele>1555</ele>
        <time>2016-10-02T14:28:58+02:00</time>
      </trkpt>
      <trkpt lat="45.98851" lon="6.30926">
        <ele>1555</ele>
        <time>2016-10-02T14:28:59+02:00</time>
      </trkpt>
      <trkpt lat="45.98851" lon="6.30924">
        <ele>1555</ele>
        <time>2016-10-02T14:29:01+02:00</time>
      </trkpt>
      <trkpt lat="45.98851" lon="6.30922">
        <ele>1555</ele>
        <time>2016-10-02T14:29:02+02:00</time>
      </trkpt>
      <trkpt lat="45.98851" lon="6.3092">
        <ele>1555</ele>
        <time>2016-10-02T14:29:03+02:00</time>
      </trkpt>
      <trkpt lat="45.98851" lon="6.30919">
        <ele>1556</ele>
        <time>2016-10-02T14:29:03+02:00</time>
      </trkpt>
      <trkpt lat="45.98851" lon="6.30917">
        <ele>1556</ele>
        <time>2016-10-02T14:29:04+02:00</time>
      </trkpt>
      <trkpt lat="45.98851" lon="6.30915">
        <ele>1556</ele>
        <time>2016-10-02T14:29:06+02:00</time>
      </trkpt>
      <trkpt lat="45.98852" lon="6.30913">
        <ele>1556</ele>
        <time>2016-10-02T14:29:07+02:00</time>
      </trkpt>
      <trkpt lat="45.98852" lon="6.30911">
        <ele>1556</ele>
        <time>2016-10-02T14:29:08+02:00</time>
      </trkpt>
      <trkpt lat="45.98853" lon="6.30908">
        <ele>1556</ele>
        <time>2016-10-02T14:29:09+02:00</time>
      </trkpt>
      <trkpt lat="45.98853" lon="6.30907">
        <ele>1557</ele>
        <time>2016-10-02T14:29:11+02:00</time>
      </trkpt>
      <trkpt lat="45.98853" lon="6.30905">
        <ele>1557</ele>
        <time>2016-10-02T14:29:12+02:00</time>
      </trkpt>
      <trkpt lat="45.98854" lon="6.30903">
        <ele>1557</ele>
        <time>2016-10-02T14:29:13+02:00</time>
      </trkpt>
      <trkpt lat="45.98855" lon="6.30901">
        <ele>1558</ele>
        <time>2016-10-02T14:29:14+02:00</time>
      </trkpt>
      <trkpt lat="45.98855" lon="6.30899">
        <ele>1558</ele>
        <time>2016-10-02T14:29:15+02:00</time>
      </trkpt>
      <trkpt lat="45.98856" lon="6.30897">
        <ele>1558</ele>
        <time>2016-10-02T14:29:16+02:00</time>
      </trkpt>
      <trkpt lat="45.98856" lon="6.30896">
        <ele>1558</ele>
        <time>2016-10-02T14:29:17+02:00</time>
      </trkpt>
      <trkpt lat="45.98856" lon="6.30894">
        <ele>1559</ele>
        <time>2016-10-02T14:29:18+02:00</time>
      </trkpt>
      <trkpt lat="45.98857" lon="6.30892">
        <ele>1559</ele>
        <time>2016-10-02T14:29:20+02:00</time>
      </trkpt>
      <trkpt lat="45.98857" lon="6.3089">
        <ele>1559</ele>
        <time>2016-10-02T14:29:21+02:00</time>
      </trkpt>
      <trkpt lat="45.98858" lon="6.30888">
        <ele>1559</ele>
        <time>2016-10-02T14:29:22+02:00</time>
      </trkpt>
      <trkpt lat="45.98859" lon="6.30887">
        <ele>1560</ele>
        <time>2016-10-02T14:29:23+02:00</time>
      </trkpt>
      <trkpt lat="45.98859" lon="6.30885">
        <ele>1560</ele>
        <time>2016-10-02T14:29:24+02:00</time>
      </trkpt>
      <trkpt lat="45.9886" lon="6.30884">
        <ele>1560</ele>
        <time>2016-10-02T14:29:25+02:00</time>
      </trkpt>
      <trkpt lat="45.9886" lon="6.30883">
        <ele>1560</ele>
        <time>2016-10-02T14:29:26+02:00</time>
      </trkpt>
      <trkpt lat="45.9886" lon="6.30881">
        <ele>1560</ele>
        <time>2016-10-02T14:29:27+02:00</time>
      </trkpt>
      <trkpt lat="45.98861" lon="6.30879">
        <ele>1561</ele>
        <time>2016-10-02T14:29:28+02:00</time>
      </trkpt>
      <trkpt lat="45.98861" lon="6.30877">
        <ele>1561</ele>
        <time>2016-10-02T14:29:29+02:00</time>
      </trkpt>
      <trkpt lat="45.98862" lon="6.30876">
        <ele>1561</ele>
        <time>2016-10-02T14:29:30+02:00</time>
      </trkpt>
      <trkpt lat="45.98862" lon="6.30874">
        <ele>1561</ele>
        <time>2016-10-02T14:29:31+02:00</time>
      </trkpt>
      <trkpt lat="45.98862" lon="6.30872">
        <ele>1561</ele>
        <time>2016-10-02T14:29:32+02:00</time>
      </trkpt>
      <trkpt lat="45.98863" lon="6.30871">
        <ele>1562</ele>
        <time>2016-10-02T14:29:33+02:00</time>
      </trkpt>
      <trkpt lat="45.98863" lon="6.30869">
        <ele>1562</ele>
        <time>2016-10-02T14:29:34+02:00</time>
      </trkpt>
      <trkpt lat="45.98863" lon="6.30868">
        <ele>1562</ele>
        <time>2016-10-02T14:29:35+02:00</time>
      </trkpt>
      <trkpt lat="45.98864" lon="6.30866">
        <ele>1562</ele>
        <time>2016-10-02T14:29:36+02:00</time>
      </trkpt>
      <trkpt lat="45.98864" lon="6.30864">
        <ele>1562</ele>
        <time>2016-10-02T14:29:37+02:00</time>
      </trkpt>
      <trkpt lat="45.98864" lon="6.30862">
        <ele>1562</ele>
        <time>2016-10-02T14:29:38+02:00</time>
      </trkpt>
      <trkpt lat="45.98865" lon="6.3086">
        <ele>1562</ele>
        <time>2016-10-02T14:29:40+02:00</time>
      </trkpt>
      <trkpt lat="45.98865" lon="6.30859">
        <ele>1563</ele>
        <time>2016-10-02T14:29:41+02:00</time>
      </trkpt>
      <trkpt lat="45.98866" lon="6.30857">
        <ele>1563</ele>
        <time>2016-10-02T14:29:41+02:00</time>
      </trkpt>
      <trkpt lat="45.98866" lon="6.30856">
        <ele>1563</ele>
        <time>2016-10-02T14:29:42+02:00</time>
      </trkpt>
      <trkpt lat="45.98867" lon="6.30854">
        <ele>1563</ele>
        <time>2016-10-02T14:29:44+02:00</time>
      </trkpt>
      <trkpt lat="45.98867" lon="6.30852">
        <ele>1563</ele>
        <time>2016-10-02T14:29:45+02:00</time>
      </trkpt>
      <trkpt lat="45.98868" lon="6.30851">
        <ele>1564</ele>
        <time>2016-10-02T14:29:46+02:00</time>
      </trkpt>
      <trkpt lat="45.98868" lon="6.30849">
        <ele>1564</ele>
        <time>2016-10-02T14:29:47+02:00</time>
      </trkpt>
      <trkpt lat="45.98869" lon="6.30848">
        <ele>1564</ele>
        <time>2016-10-02T14:29:48+02:00</time>
      </trkpt>
      <trkpt lat="45.98869" lon="6.30846">
        <ele>1564</ele>
        <time>2016-10-02T14:29:49+02:00</time>
      </trkpt>
      <trkpt lat="45.9887" lon="6.30844">
        <ele>1564</ele>
        <time>2016-10-02T14:29:50+02:00</time>
      </trkpt>
      <trkpt lat="45.9887" lon="6.30843">
        <ele>1565</ele>
        <time>2016-10-02T14:29:51+02:00</time>
      </trkpt>
      <trkpt lat="45.98871" lon="6.3084">
        <ele>1565</ele>
        <time>2016-10-02T14:29:52+02:00</time>
      </trkpt>
      <trkpt lat="45.98871" lon="6.30838">
        <ele>1565</ele>
        <time>2016-10-02T14:29:54+02:00</time>
      </trkpt>
      <trkpt lat="45.98872" lon="6.30837">
        <ele>1565</ele>
        <time>2016-10-02T14:29:55+02:00</time>
      </trkpt>
      <trkpt lat="45.98873" lon="6.30835">
        <ele>1566</ele>
        <time>2016-10-02T14:29:56+02:00</time>
      </trkpt>
      <trkpt lat="45.98873" lon="6.30833">
        <ele>1566</ele>
        <time>2016-10-02T14:29:57+02:00</time>
      </trkpt>
      <trkpt lat="45.98874" lon="6.30832">
        <ele>1566</ele>
        <time>2016-10-02T14:29:58+02:00</time>
      </trkpt>
      <trkpt lat="45.98874" lon="6.3083">
        <ele>1566</ele>
        <time>2016-10-02T14:29:59+02:00</time>
      </trkpt>
      <trkpt lat="45.98874" lon="6.30828">
        <ele>1566</ele>
        <time>2016-10-02T14:30:00+02:00</time>
      </trkpt>
      <trkpt lat="45.98875" lon="6.30827">
        <ele>1567</ele>
        <time>2016-10-02T14:30:01+02:00</time>
      </trkpt>
      <trkpt lat="45.98876" lon="6.30825">
        <ele>1567</ele>
        <time>2016-10-02T14:30:02+02:00</time>
      </trkpt>
      <trkpt lat="45.98876" lon="6.30824">
        <ele>1567</ele>
        <time>2016-10-02T14:30:03+02:00</time>
      </trkpt>
      <trkpt lat="45.98877" lon="6.30823">
        <ele>1567</ele>
        <time>2016-10-02T14:30:04+02:00</time>
      </trkpt>
      <trkpt lat="45.98878" lon="6.30821">
        <ele>1567</ele>
        <time>2016-10-02T14:30:05+02:00</time>
      </trkpt>
      <trkpt lat="45.98878" lon="6.3082">
        <ele>1568</ele>
        <time>2016-10-02T14:30:06+02:00</time>
      </trkpt>
      <trkpt lat="45.98879" lon="6.30818">
        <ele>1568</ele>
        <time>2016-10-02T14:30:08+02:00</time>
      </trkpt>
      <trkpt lat="45.98879" lon="6.30816">
        <ele>1568</ele>
        <time>2016-10-02T14:30:08+02:00</time>
      </trkpt>
      <trkpt lat="45.98879" lon="6.30815">
        <ele>1568</ele>
        <time>2016-10-02T14:30:09+02:00</time>
      </trkpt>
      <trkpt lat="45.9888" lon="6.30813">
        <ele>1568</ele>
        <time>2016-10-02T14:30:10+02:00</time>
      </trkpt>
      <trkpt lat="45.9888" lon="6.30811">
        <ele>1568</ele>
        <time>2016-10-02T14:30:12+02:00</time>
      </trkpt>
      <trkpt lat="45.98881" lon="6.3081">
        <ele>1569</ele>
        <time>2016-10-02T14:30:13+02:00</time>
      </trkpt>
      <trkpt lat="45.98881" lon="6.30808">
        <ele>1569</ele>
        <time>2016-10-02T14:30:14+02:00</time>
      </trkpt>
      <trkpt lat="45.98882" lon="6.30807">
        <ele>1569</ele>
        <time>2016-10-02T14:30:15+02:00</time>
      </trkpt>
      <trkpt lat="45.98882" lon="6.30805">
        <ele>1569</ele>
        <time>2016-10-02T14:30:16+02:00</time>
      </trkpt>
      <trkpt lat="45.98883" lon="6.30804">
        <ele>1569</ele>
        <time>2016-10-02T14:30:17+02:00</time>
      </trkpt>
      <trkpt lat="45.98884" lon="6.30802">
        <ele>1569</ele>
        <time>2016-10-02T14:30:18+02:00</time>
      </trkpt>
      <trkpt lat="45.98884" lon="6.30801">
        <ele>1570</ele>
        <time>2016-10-02T14:30:19+02:00</time>
      </trkpt>
      <trkpt lat="45.98885" lon="6.30799">
        <ele>1570</ele>
        <time>2016-10-02T14:30:20+02:00</time>
      </trkpt>
      <trkpt lat="45.98885" lon="6.30797">
        <ele>1570</ele>
        <time>2016-10-02T14:30:21+02:00</time>
      </trkpt>
      <trkpt lat="45.98886" lon="6.30795">
        <ele>1570</ele>
        <time>2016-10-02T14:30:22+02:00</time>
      </trkpt>
      <trkpt lat="45.98886" lon="6.30794">
        <ele>1570</ele>
        <time>2016-10-02T14:30:23+02:00</time>
      </trkpt>
      <trkpt lat="45.98887" lon="6.30792">
        <ele>1570</ele>
        <time>2016-10-02T14:30:24+02:00</time>
      </trkpt>
      <trkpt lat="45.98887" lon="6.30791">
        <ele>1570</ele>
        <time>2016-10-02T14:30:25+02:00</time>
      </trkpt>
      <trkpt lat="45.98888" lon="6.3079">
        <ele>1571</ele>
        <time>2016-10-02T14:30:26+02:00</time>
      </trkpt>
      <trkpt lat="45.98888" lon="6.30788">
        <ele>1571</ele>
        <time>2016-10-02T14:30:27+02:00</time>
      </trkpt>
      <trkpt lat="45.98889" lon="6.30787">
        <ele>1571</ele>
        <time>2016-10-02T14:30:28+02:00</time>
      </trkpt>
      <trkpt lat="45.98889" lon="6.30785">
        <ele>1571</ele>
        <time>2016-10-02T14:30:29+02:00</time>
      </trkpt>
      <trkpt lat="45.9889" lon="6.30784">
        <ele>1571</ele>
        <time>2016-10-02T14:30:30+02:00</time>
      </trkpt>
      <trkpt lat="45.9889" lon="6.30782">
        <ele>1571</ele>
        <time>2016-10-02T14:30:31+02:00</time>
      </trkpt>
      <trkpt lat="45.98891" lon="6.3078">
        <ele>1571</ele>
        <time>2016-10-02T14:30:32+02:00</time>
      </trkpt>
      <trkpt lat="45.98891" lon="6.30778">
        <ele>1571</ele>
        <time>2016-10-02T14:30:33+02:00</time>
      </trkpt>
      <trkpt lat="45.98891" lon="6.30777">
        <ele>1571</ele>
        <time>2016-10-02T14:30:34+02:00</time>
      </trkpt>
      <trkpt lat="45.98891" lon="6.30775">
        <ele>1571</ele>
        <time>2016-10-02T14:30:35+02:00</time>
      </trkpt>
      <trkpt lat="45.98891" lon="6.30774">
        <ele>1571</ele>
        <time>2016-10-02T14:30:36+02:00</time>
      </trkpt>
      <trkpt lat="45.98891" lon="6.30772">
        <ele>1571</ele>
        <time>2016-10-02T14:30:37+02:00</time>
      </trkpt>
      <trkpt lat="45.98891" lon="6.30771">
        <ele>1571</ele>
        <time>2016-10-02T14:30:37+02:00</time>
      </trkpt>
      <trkpt lat="45.98891" lon="6.30769">
        <ele>1571</ele>
        <time>2016-10-02T14:30:39+02:00</time>
      </trkpt>
      <trkpt lat="45.98892" lon="6.30768">
        <ele>1572</ele>
        <time>2016-10-02T14:30:39+02:00</time>
      </trkpt>
      <trkpt lat="45.98892" lon="6.30766">
        <ele>1572</ele>
        <time>2016-10-02T14:30:40+02:00</time>
      </trkpt>
      <trkpt lat="45.98893" lon="6.30765">
        <ele>1572</ele>
        <time>2016-10-02T14:30:41+02:00</time>
      </trkpt>
      <trkpt lat="45.98893" lon="6.30763">
        <ele>1572</ele>
        <time>2016-10-02T14:30:42+02:00</time>
      </trkpt>
      <trkpt lat="45.98893" lon="6.30762">
        <ele>1572</ele>
        <time>2016-10-02T14:30:43+02:00</time>
      </trkpt>
      <trkpt lat="45.98893" lon="6.3076">
        <ele>1572</ele>
        <time>2016-10-02T14:30:44+02:00</time>
      </trkpt>
      <trkpt lat="45.98894" lon="6.30758">
        <ele>1572</ele>
        <time>2016-10-02T14:30:45+02:00</time>
      </trkpt>
      <trkpt lat="45.98894" lon="6.30757">
        <ele>1572</ele>
        <time>2016-10-02T14:30:46+02:00</time>
      </trkpt>
      <trkpt lat="45.98894" lon="6.30755">
        <ele>1572</ele>
        <time>2016-10-02T14:30:47+02:00</time>
      </trkpt>
      <trkpt lat="45.98895" lon="6.30754">
        <ele>1572</ele>
        <time>2016-10-02T14:30:48+02:00</time>
      </trkpt>
      <trkpt lat="45.98895" lon="6.30752">
        <ele>1572</ele>
        <time>2016-10-02T14:30:49+02:00</time>
      </trkpt>
      <trkpt lat="45.98895" lon="6.3075">
        <ele>1572</ele>
        <time>2016-10-02T14:30:50+02:00</time>
      </trkpt>
      <trkpt lat="45.98895" lon="6.30749">
        <ele>1572</ele>
        <time>2016-10-02T14:30:51+02:00</time>
      </trkpt>
      <trkpt lat="45.98896" lon="6.30747">
        <ele>1572</ele>
        <time>2016-10-02T14:30:52+02:00</time>
      </trkpt>
      <trkpt lat="45.98896" lon="6.30745">
        <ele>1573</ele>
        <time>2016-10-02T14:30:53+02:00</time>
      </trkpt>
      <trkpt lat="45.98896" lon="6.30743">
        <ele>1573</ele>
        <time>2016-10-02T14:30:54+02:00</time>
      </trkpt>
      <trkpt lat="45.98896" lon="6.30742">
        <ele>1573</ele>
        <time>2016-10-02T14:30:55+02:00</time>
      </trkpt>
      <trkpt lat="45.98896" lon="6.3074">
        <ele>1573</ele>
        <time>2016-10-02T14:30:56+02:00</time>
      </trkpt>
      <trkpt lat="45.98896" lon="6.30739">
        <ele>1573</ele>
        <time>2016-10-02T14:30:56+02:00</time>
      </trkpt>
      <trkpt lat="45.98897" lon="6.30737">
        <ele>1573</ele>
        <time>2016-10-02T14:30:57+02:00</time>
      </trkpt>
      <trkpt lat="45.98897" lon="6.30735">
        <ele>1573</ele>
        <time>2016-10-02T14:30:58+02:00</time>
      </trkpt>
      <trkpt lat="45.98897" lon="6.30734">
        <ele>1573</ele>
        <time>2016-10-02T14:30:59+02:00</time>
      </trkpt>
      <trkpt lat="45.98897" lon="6.30732">
        <ele>1573</ele>
        <time>2016-10-02T14:31:00+02:00</time>
      </trkpt>
      <trkpt lat="45.98897" lon="6.3073">
        <ele>1573</ele>
        <time>2016-10-02T14:31:01+02:00</time>
      </trkpt>
      <trkpt lat="45.98897" lon="6.30728">
        <ele>1573</ele>
        <time>2016-10-02T14:31:02+02:00</time>
      </trkpt>
      <trkpt lat="45.98898" lon="6.30727">
        <ele>1573</ele>
        <time>2016-10-02T14:31:03+02:00</time>
      </trkpt>
      <trkpt lat="45.98898" lon="6.30725">
        <ele>1573</ele>
        <time>2016-10-02T14:31:04+02:00</time>
      </trkpt>
      <trkpt lat="45.98899" lon="6.30724">
        <ele>1573</ele>
        <time>2016-10-02T14:31:05+02:00</time>
      </trkpt>
      <trkpt lat="45.98899" lon="6.30722">
        <ele>1574</ele>
        <time>2016-10-02T14:31:06+02:00</time>
      </trkpt>
      <trkpt lat="45.98899" lon="6.3072">
        <ele>1574</ele>
        <time>2016-10-02T14:31:07+02:00</time>
      </trkpt>
      <trkpt lat="45.98899" lon="6.30718">
        <ele>1574</ele>
        <time>2016-10-02T14:31:08+02:00</time>
      </trkpt>
      <trkpt lat="45.989" lon="6.30717">
        <ele>1574</ele>
        <time>2016-10-02T14:31:09+02:00</time>
      </trkpt>
      <trkpt lat="45.989" lon="6.30715">
        <ele>1574</ele>
        <time>2016-10-02T14:31:10+02:00</time>
      </trkpt>
      <trkpt lat="45.989" lon="6.30713">
        <ele>1574</ele>
        <time>2016-10-02T14:31:11+02:00</time>
      </trkpt>
      <trkpt lat="45.98901" lon="6.30711">
        <ele>1574</ele>
        <time>2016-10-02T14:31:13+02:00</time>
      </trkpt>
      <trkpt lat="45.98901" lon="6.30708">
        <ele>1574</ele>
        <time>2016-10-02T14:31:14+02:00</time>
      </trkpt>
      <trkpt lat="45.98902" lon="6.30706">
        <ele>1574</ele>
        <time>2016-10-02T14:31:15+02:00</time>
      </trkpt>
      <trkpt lat="45.98902" lon="6.30705">
        <ele>1574</ele>
        <time>2016-10-02T14:31:17+02:00</time>
      </trkpt>
      <trkpt lat="45.98902" lon="6.30702">
        <ele>1574</ele>
        <time>2016-10-02T14:31:18+02:00</time>
      </trkpt>
      <trkpt lat="45.98902" lon="6.30701">
        <ele>1574</ele>
        <time>2016-10-02T14:31:19+02:00</time>
      </trkpt>
      <trkpt lat="45.98902" lon="6.30699">
        <ele>1574</ele>
        <time>2016-10-02T14:31:20+02:00</time>
      </trkpt>
      <trkpt lat="45.98902" lon="6.30697">
        <ele>1574</ele>
        <time>2016-10-02T14:31:21+02:00</time>
      </trkpt>
      <trkpt lat="45.98902" lon="6.30695">
        <ele>1574</ele>
        <time>2016-10-02T14:31:22+02:00</time>
      </trkpt>
      <trkpt lat="45.98902" lon="6.30692">
        <ele>1574</ele>
        <time>2016-10-02T14:31:23+02:00</time>
      </trkpt>
      <trkpt lat="45.98902" lon="6.3069">
        <ele>1574</ele>
        <time>2016-10-02T14:31:25+02:00</time>
      </trkpt>
      <trkpt lat="45.98902" lon="6.30688">
        <ele>1574</ele>
        <time>2016-10-02T14:31:26+02:00</time>
      </trkpt>
      <trkpt lat="45.98902" lon="6.30687">
        <ele>1574</ele>
        <time>2016-10-02T14:31:27+02:00</time>
      </trkpt>
      <trkpt lat="45.98902" lon="6.30685">
        <ele>1574</ele>
        <time>2016-10-02T14:31:28+02:00</time>
      </trkpt>
      <trkpt lat="45.98902" lon="6.30683">
        <ele>1574</ele>
        <time>2016-10-02T14:31:29+02:00</time>
      </trkpt>
      <trkpt lat="45.98902" lon="6.30682">
        <ele>1574</ele>
        <time>2016-10-02T14:31:30+02:00</time>
      </trkpt>
      <trkpt lat="45.98901" lon="6.3068">
        <ele>1574</ele>
        <time>2016-10-02T14:31:31+02:00</time>
      </trkpt>
      <trkpt lat="45.98901" lon="6.30678">
        <ele>1574</ele>
        <time>2016-10-02T14:31:32+02:00</time>
      </trkpt>
      <trkpt lat="45.989" lon="6.30677">
        <ele>1574</ele>
        <time>2016-10-02T14:31:33+02:00</time>
      </trkpt>
      <trkpt lat="45.989" lon="6.30675">
        <ele>1574</ele>
        <time>2016-10-02T14:31:34+02:00</time>
      </trkpt>
      <trkpt lat="45.989" lon="6.30673">
        <ele>1574</ele>
        <time>2016-10-02T14:31:35+02:00</time>
      </trkpt>
      <trkpt lat="45.989" lon="6.30671">
        <ele>1574</ele>
        <time>2016-10-02T14:31:36+02:00</time>
      </trkpt>
      <trkpt lat="45.989" lon="6.30669">
        <ele>1574</ele>
        <time>2016-10-02T14:31:37+02:00</time>
      </trkpt>
      <trkpt lat="45.989" lon="6.30667">
        <ele>1574</ele>
        <time>2016-10-02T14:31:38+02:00</time>
      </trkpt>
      <trkpt lat="45.989" lon="6.30666">
        <ele>1574</ele>
        <time>2016-10-02T14:31:39+02:00</time>
      </trkpt>
      <trkpt lat="45.989" lon="6.30664">
        <ele>1574</ele>
        <time>2016-10-02T14:31:40+02:00</time>
      </trkpt>
      <trkpt lat="45.989" lon="6.30662">
        <ele>1574</ele>
        <time>2016-10-02T14:31:41+02:00</time>
      </trkpt>
      <trkpt lat="45.989" lon="6.3066">
        <ele>1575</ele>
        <time>2016-10-02T14:31:42+02:00</time>
      </trkpt>
      <trkpt lat="45.989" lon="6.30658">
        <ele>1575</ele>
        <time>2016-10-02T14:31:43+02:00</time>
      </trkpt>
      <trkpt lat="45.98901" lon="6.30656">
        <ele>1575</ele>
        <time>2016-10-02T14:31:44+02:00</time>
      </trkpt>
      <trkpt lat="45.98901" lon="6.30654">
        <ele>1575</ele>
        <time>2016-10-02T14:31:45+02:00</time>
      </trkpt>
      <trkpt lat="45.98902" lon="6.30652">
        <ele>1575</ele>
        <time>2016-10-02T14:31:46+02:00</time>
      </trkpt>
      <trkpt lat="45.98902" lon="6.30651">
        <ele>1575</ele>
        <time>2016-10-02T14:31:47+02:00</time>
      </trkpt>
      <trkpt lat="45.98902" lon="6.30649">
        <ele>1576</ele>
        <time>2016-10-02T14:31:49+02:00</time>
      </trkpt>
      <trkpt lat="45.98903" lon="6.30647">
        <ele>1576</ele>
        <time>2016-10-02T14:31:50+02:00</time>
      </trkpt>
      <trkpt lat="45.98904" lon="6.30646">
        <ele>1576</ele>
        <time>2016-10-02T14:31:51+02:00</time>
      </trkpt>
      <trkpt lat="45.98905" lon="6.30644">
        <ele>1576</ele>
        <time>2016-10-02T14:31:52+02:00</time>
      </trkpt>
      <trkpt lat="45.98905" lon="6.30643">
        <ele>1576</ele>
        <time>2016-10-02T14:31:53+02:00</time>
      </trkpt>
      <trkpt lat="45.98906" lon="6.30641">
        <ele>1577</ele>
        <time>2016-10-02T14:31:54+02:00</time>
      </trkpt>
      <trkpt lat="45.98907" lon="6.3064">
        <ele>1577</ele>
        <time>2016-10-02T14:31:55+02:00</time>
      </trkpt>
      <trkpt lat="45.98908" lon="6.30639">
        <ele>1577</ele>
        <time>2016-10-02T14:31:56+02:00</time>
      </trkpt>
      <trkpt lat="45.98909" lon="6.30637">
        <ele>1577</ele>
        <time>2016-10-02T14:31:57+02:00</time>
      </trkpt>
      <trkpt lat="45.98909" lon="6.30636">
        <ele>1577</ele>
        <time>2016-10-02T14:31:58+02:00</time>
      </trkpt>
      <trkpt lat="45.9891" lon="6.30635">
        <ele>1577</ele>
        <time>2016-10-02T14:31:59+02:00</time>
      </trkpt>
      <trkpt lat="45.98911" lon="6.30634">
        <ele>1578</ele>
        <time>2016-10-02T14:32:00+02:00</time>
      </trkpt>
      <trkpt lat="45.98912" lon="6.30632">
        <ele>1578</ele>
        <time>2016-10-02T14:32:01+02:00</time>
      </trkpt>
      <trkpt lat="45.98913" lon="6.30631">
        <ele>1578</ele>
        <time>2016-10-02T14:32:03+02:00</time>
      </trkpt>
      <trkpt lat="45.98915" lon="6.3063">
        <ele>1578</ele>
        <time>2016-10-02T14:32:04+02:00</time>
      </trkpt>
      <trkpt lat="45.98916" lon="6.30628">
        <ele>1578</ele>
        <time>2016-10-02T14:32:05+02:00</time>
      </trkpt>
      <trkpt lat="45.98917" lon="6.30627">
        <ele>1578</ele>
        <time>2016-10-02T14:32:06+02:00</time>
      </trkpt>
      <trkpt lat="45.98918" lon="6.30625">
        <ele>1579</ele>
        <time>2016-10-02T14:32:07+02:00</time>
      </trkpt>
      <trkpt lat="45.98918" lon="6.30624">
        <ele>1579</ele>
        <time>2016-10-02T14:32:08+02:00</time>
      </trkpt>
      <trkpt lat="45.98919" lon="6.30623">
        <ele>1579</ele>
        <time>2016-10-02T14:32:09+02:00</time>
      </trkpt>
      <trkpt lat="45.9892" lon="6.30622">
        <ele>1580</ele>
        <time>2016-10-02T14:32:10+02:00</time>
      </trkpt>
      <trkpt lat="45.98921" lon="6.30621">
        <ele>1580</ele>
        <time>2016-10-02T14:32:11+02:00</time>
      </trkpt>
      <trkpt lat="45.98922" lon="6.3062">
        <ele>1580</ele>
        <time>2016-10-02T14:32:12+02:00</time>
      </trkpt>
      <trkpt lat="45.98923" lon="6.30618">
        <ele>1580</ele>
        <time>2016-10-02T14:32:14+02:00</time>
      </trkpt>
      <trkpt lat="45.98924" lon="6.30616">
        <ele>1581</ele>
        <time>2016-10-02T14:32:15+02:00</time>
      </trkpt>
      <trkpt lat="45.98925" lon="6.30615">
        <ele>1581</ele>
        <time>2016-10-02T14:32:16+02:00</time>
      </trkpt>
      <trkpt lat="45.98926" lon="6.30614">
        <ele>1581</ele>
        <time>2016-10-02T14:32:16+02:00</time>
      </trkpt>
      <trkpt lat="45.98926" lon="6.30613">
        <ele>1581</ele>
        <time>2016-10-02T14:32:17+02:00</time>
      </trkpt>
      <trkpt lat="45.98927" lon="6.30612">
        <ele>1581</ele>
        <time>2016-10-02T14:32:18+02:00</time>
      </trkpt>
      <trkpt lat="45.98928" lon="6.30611">
        <ele>1582</ele>
        <time>2016-10-02T14:32:19+02:00</time>
      </trkpt>
      <trkpt lat="45.98929" lon="6.3061">
        <ele>1582</ele>
        <time>2016-10-02T14:32:20+02:00</time>
      </trkpt>
      <trkpt lat="45.9893" lon="6.3061">
        <ele>1582</ele>
        <time>2016-10-02T14:32:21+02:00</time>
      </trkpt>
      <trkpt lat="45.98931" lon="6.30609">
        <ele>1582</ele>
        <time>2016-10-02T14:32:22+02:00</time>
      </trkpt>
      <trkpt lat="45.98932" lon="6.30608">
        <ele>1583</ele>
        <time>2016-10-02T14:32:23+02:00</time>
      </trkpt>
      <trkpt lat="45.98933" lon="6.30608">
        <ele>1583</ele>
        <time>2016-10-02T14:32:24+02:00</time>
      </trkpt>
      <trkpt lat="45.98934" lon="6.30607">
        <ele>1583</ele>
        <time>2016-10-02T14:32:25+02:00</time>
      </trkpt>
      <trkpt lat="45.98935" lon="6.30607">
        <ele>1583</ele>
        <time>2016-10-02T14:32:26+02:00</time>
      </trkpt>
      <trkpt lat="45.98936" lon="6.30606">
        <ele>1583</ele>
        <time>2016-10-02T14:32:27+02:00</time>
      </trkpt>
      <trkpt lat="45.98937" lon="6.30606">
        <ele>1584</ele>
        <time>2016-10-02T14:32:27+02:00</time>
      </trkpt>
      <trkpt lat="45.98938" lon="6.30606">
        <ele>1584</ele>
        <time>2016-10-02T14:32:28+02:00</time>
      </trkpt>
      <trkpt lat="45.9894" lon="6.30605">
        <ele>1584</ele>
        <time>2016-10-02T14:32:30+02:00</time>
      </trkpt>
      <trkpt lat="45.98941" lon="6.30605">
        <ele>1584</ele>
        <time>2016-10-02T14:32:30+02:00</time>
      </trkpt>
      <trkpt lat="45.98942" lon="6.30604">
        <ele>1585</ele>
        <time>2016-10-02T14:32:31+02:00</time>
      </trkpt>
      <trkpt lat="45.98943" lon="6.30604">
        <ele>1585</ele>
        <time>2016-10-02T14:32:32+02:00</time>
      </trkpt>
      <trkpt lat="45.98944" lon="6.30603">
        <ele>1585</ele>
        <time>2016-10-02T14:32:33+02:00</time>
      </trkpt>
      <trkpt lat="45.98945" lon="6.30603">
        <ele>1585</ele>
        <time>2016-10-02T14:32:34+02:00</time>
      </trkpt>
      <trkpt lat="45.98948" lon="6.30603">
        <ele>1586</ele>
        <time>2016-10-02T14:32:36+02:00</time>
      </trkpt>
      <trkpt lat="45.98947" lon="6.30601">
        <ele>1586</ele>
        <time>2016-10-02T14:32:37+02:00</time>
      </trkpt>
      <trkpt lat="45.98946" lon="6.306">
        <ele>1586</ele>
        <time>2016-10-02T14:32:39+02:00</time>
      </trkpt>
      <trkpt lat="45.98946" lon="6.30599">
        <ele>1585</ele>
        <time>2016-10-02T14:32:39+02:00</time>
      </trkpt>
      <trkpt lat="45.98946" lon="6.30597">
        <ele>1585</ele>
        <time>2016-10-02T14:32:40+02:00</time>
      </trkpt>
      <trkpt lat="45.98946" lon="6.30595">
        <ele>1585</ele>
        <time>2016-10-02T14:32:41+02:00</time>
      </trkpt>
      <trkpt lat="45.98946" lon="6.30593">
        <ele>1585</ele>
        <time>2016-10-02T14:32:42+02:00</time>
      </trkpt>
      <trkpt lat="45.98946" lon="6.30591">
        <ele>1585</ele>
        <time>2016-10-02T14:32:43+02:00</time>
      </trkpt>
      <trkpt lat="45.98946" lon="6.3059">
        <ele>1585</ele>
        <time>2016-10-02T14:32:44+02:00</time>
      </trkpt>
      <trkpt lat="45.98946" lon="6.30589">
        <ele>1585</ele>
        <time>2016-10-02T14:32:45+02:00</time>
      </trkpt>
      <trkpt lat="45.98946" lon="6.30587">
        <ele>1585</ele>
        <time>2016-10-02T14:32:46+02:00</time>
      </trkpt>
      <trkpt lat="45.98947" lon="6.30586">
        <ele>1585</ele>
        <time>2016-10-02T14:32:47+02:00</time>
      </trkpt>
      <trkpt lat="45.98947" lon="6.30584">
        <ele>1585</ele>
        <time>2016-10-02T14:32:47+02:00</time>
      </trkpt>
      <trkpt lat="45.98947" lon="6.30583">
        <ele>1585</ele>
        <time>2016-10-02T14:32:48+02:00</time>
      </trkpt>
      <trkpt lat="45.98948" lon="6.30581">
        <ele>1585</ele>
        <time>2016-10-02T14:32:49+02:00</time>
      </trkpt>
      <trkpt lat="45.98948" lon="6.3058">
        <ele>1585</ele>
        <time>2016-10-02T14:32:50+02:00</time>
      </trkpt>
      <trkpt lat="45.98948" lon="6.30578">
        <ele>1585</ele>
        <time>2016-10-02T14:32:51+02:00</time>
      </trkpt>
      <trkpt lat="45.98948" lon="6.30576">
        <ele>1585</ele>
        <time>2016-10-02T14:32:52+02:00</time>
      </trkpt>
      <trkpt lat="45.98949" lon="6.30575">
        <ele>1585</ele>
        <time>2016-10-02T14:32:53+02:00</time>
      </trkpt>
      <trkpt lat="45.98949" lon="6.30573">
        <ele>1585</ele>
        <time>2016-10-02T14:32:54+02:00</time>
      </trkpt>
      <trkpt lat="45.98949" lon="6.30571">
        <ele>1585</ele>
        <time>2016-10-02T14:32:55+02:00</time>
      </trkpt>
      <trkpt lat="45.98949" lon="6.3057">
        <ele>1585</ele>
        <time>2016-10-02T14:32:56+02:00</time>
      </trkpt>
      <trkpt lat="45.9895" lon="6.30568">
        <ele>1585</ele>
        <time>2016-10-02T14:32:57+02:00</time>
      </trkpt>
      <trkpt lat="45.9895" lon="6.30567">
        <ele>1585</ele>
        <time>2016-10-02T14:32:58+02:00</time>
      </trkpt>
      <trkpt lat="45.9895" lon="6.30565">
        <ele>1585</ele>
        <time>2016-10-02T14:32:58+02:00</time>
      </trkpt>
      <trkpt lat="45.9895" lon="6.30564">
        <ele>1585</ele>
        <time>2016-10-02T14:32:59+02:00</time>
      </trkpt>
      <trkpt lat="45.9895" lon="6.30562">
        <ele>1585</ele>
        <time>2016-10-02T14:33:00+02:00</time>
      </trkpt>
      <trkpt lat="45.9895" lon="6.3056">
        <ele>1585</ele>
        <time>2016-10-02T14:33:01+02:00</time>
      </trkpt>
      <trkpt lat="45.98951" lon="6.30559">
        <ele>1585</ele>
        <time>2016-10-02T14:33:02+02:00</time>
      </trkpt>
      <trkpt lat="45.98951" lon="6.30557">
        <ele>1585</ele>
        <time>2016-10-02T14:33:03+02:00</time>
      </trkpt>
      <trkpt lat="45.98951" lon="6.30555">
        <ele>1585</ele>
        <time>2016-10-02T14:33:04+02:00</time>
      </trkpt>
      <trkpt lat="45.98952" lon="6.30553">
        <ele>1585</ele>
        <time>2016-10-02T14:33:05+02:00</time>
      </trkpt>
      <trkpt lat="45.98952" lon="6.30551">
        <ele>1585</ele>
        <time>2016-10-02T14:33:06+02:00</time>
      </trkpt>
      <trkpt lat="45.98952" lon="6.3055">
        <ele>1585</ele>
        <time>2016-10-02T14:33:07+02:00</time>
      </trkpt>
      <trkpt lat="45.98952" lon="6.30548">
        <ele>1585</ele>
        <time>2016-10-02T14:33:08+02:00</time>
      </trkpt>
      <trkpt lat="45.98952" lon="6.30547">
        <ele>1585</ele>
        <time>2016-10-02T14:33:09+02:00</time>
      </trkpt>
      <trkpt lat="45.98952" lon="6.30545">
        <ele>1585</ele>
        <time>2016-10-02T14:33:10+02:00</time>
      </trkpt>
      <trkpt lat="45.98952" lon="6.30543">
        <ele>1585</ele>
        <time>2016-10-02T14:33:11+02:00</time>
      </trkpt>
      <trkpt lat="45.98952" lon="6.30542">
        <ele>1585</ele>
        <time>2016-10-02T14:33:12+02:00</time>
      </trkpt>
      <trkpt lat="45.98952" lon="6.3054">
        <ele>1585</ele>
        <time>2016-10-02T14:33:13+02:00</time>
      </trkpt>
      <trkpt lat="45.98953" lon="6.30538">
        <ele>1585</ele>
        <time>2016-10-02T14:33:15+02:00</time>
      </trkpt>
      <trkpt lat="45.98953" lon="6.30536">
        <ele>1585</ele>
        <time>2016-10-02T14:33:16+02:00</time>
      </trkpt>
      <trkpt lat="45.98953" lon="6.30534">
        <ele>1585</ele>
        <time>2016-10-02T14:33:17+02:00</time>
      </trkpt>
      <trkpt lat="45.98953" lon="6.30533">
        <ele>1585</ele>
        <time>2016-10-02T14:33:17+02:00</time>
      </trkpt>
      <trkpt lat="45.98953" lon="6.30531">
        <ele>1585</ele>
        <time>2016-10-02T14:33:18+02:00</time>
      </trkpt>
      <trkpt lat="45.98953" lon="6.3053">
        <ele>1585</ele>
        <time>2016-10-02T14:33:19+02:00</time>
      </trkpt>
      <trkpt lat="45.98953" lon="6.30528">
        <ele>1585</ele>
        <time>2016-10-02T14:33:20+02:00</time>
      </trkpt>
      <trkpt lat="45.98953" lon="6.30526">
        <ele>1584</ele>
        <time>2016-10-02T14:33:21+02:00</time>
      </trkpt>
      <trkpt lat="45.98953" lon="6.30525">
        <ele>1584</ele>
        <time>2016-10-02T14:33:22+02:00</time>
      </trkpt>
      <trkpt lat="45.98953" lon="6.30523">
        <ele>1584</ele>
        <time>2016-10-02T14:33:23+02:00</time>
      </trkpt>
      <trkpt lat="45.98953" lon="6.30522">
        <ele>1584</ele>
        <time>2016-10-02T14:33:24+02:00</time>
      </trkpt>
      <trkpt lat="45.98953" lon="6.3052">
        <ele>1584</ele>
        <time>2016-10-02T14:33:25+02:00</time>
      </trkpt>
      <trkpt lat="45.98953" lon="6.30518">
        <ele>1584</ele>
        <time>2016-10-02T14:33:26+02:00</time>
      </trkpt>
      <trkpt lat="45.98954" lon="6.30516">
        <ele>1584</ele>
        <time>2016-10-02T14:33:27+02:00</time>
      </trkpt>
      <trkpt lat="45.98954" lon="6.30515">
        <ele>1584</ele>
        <time>2016-10-02T14:33:28+02:00</time>
      </trkpt>
      <trkpt lat="45.98954" lon="6.30513">
        <ele>1584</ele>
        <time>2016-10-02T14:33:29+02:00</time>
      </trkpt>
      <trkpt lat="45.98954" lon="6.30511">
        <ele>1584</ele>
        <time>2016-10-02T14:33:30+02:00</time>
      </trkpt>
      <trkpt lat="45.98954" lon="6.30509">
        <ele>1584</ele>
        <time>2016-10-02T14:33:31+02:00</time>
      </trkpt>
      <trkpt lat="45.98954" lon="6.30507">
        <ele>1584</ele>
        <time>2016-10-02T14:33:32+02:00</time>
      </trkpt>
      <trkpt lat="45.98953" lon="6.30505">
        <ele>1584</ele>
        <time>2016-10-02T14:33:33+02:00</time>
      </trkpt>
      <trkpt lat="45.98953" lon="6.30504">
        <ele>1584</ele>
        <time>2016-10-02T14:33:34+02:00</time>
      </trkpt>
      <trkpt lat="45.98953" lon="6.30502">
        <ele>1584</ele>
        <time>2016-10-02T14:33:35+02:00</time>
      </trkpt>
      <trkpt lat="45.98953" lon="6.305">
        <ele>1583</ele>
        <time>2016-10-02T14:33:36+02:00</time>
      </trkpt>
      <trkpt lat="45.98953" lon="6.30498">
        <ele>1583</ele>
        <time>2016-10-02T14:33:37+02:00</time>
      </trkpt>
      <trkpt lat="45.98953" lon="6.30496">
        <ele>1583</ele>
        <time>2016-10-02T14:33:38+02:00</time>
      </trkpt>
      <trkpt lat="45.98953" lon="6.30495">
        <ele>1583</ele>
        <time>2016-10-02T14:33:39+02:00</time>
      </trkpt>
      <trkpt lat="45.98954" lon="6.30493">
        <ele>1583</ele>
        <time>2016-10-02T14:33:40+02:00</time>
      </trkpt>
      <trkpt lat="45.98954" lon="6.30491">
        <ele>1583</ele>
        <time>2016-10-02T14:33:41+02:00</time>
      </trkpt>
      <trkpt lat="45.98954" lon="6.3049">
        <ele>1582</ele>
        <time>2016-10-02T14:33:42+02:00</time>
      </trkpt>
      <trkpt lat="45.98954" lon="6.30488">
        <ele>1582</ele>
        <time>2016-10-02T14:33:43+02:00</time>
      </trkpt>
      <trkpt lat="45.98954" lon="6.30486">
        <ele>1582</ele>
        <time>2016-10-02T14:33:44+02:00</time>
      </trkpt>
      <trkpt lat="45.98955" lon="6.30484">
        <ele>1582</ele>
        <time>2016-10-02T14:33:46+02:00</time>
      </trkpt>
      <trkpt lat="45.98955" lon="6.30482">
        <ele>1582</ele>
        <time>2016-10-02T14:33:47+02:00</time>
      </trkpt>
      <trkpt lat="45.98956" lon="6.3048">
        <ele>1582</ele>
        <time>2016-10-02T14:33:48+02:00</time>
      </trkpt>
      <trkpt lat="45.98956" lon="6.30478">
        <ele>1581</ele>
        <time>2016-10-02T14:33:49+02:00</time>
      </trkpt>
      <trkpt lat="45.98956" lon="6.30477">
        <ele>1581</ele>
        <time>2016-10-02T14:33:50+02:00</time>
      </trkpt>
      <trkpt lat="45.98957" lon="6.30475">
        <ele>1581</ele>
        <time>2016-10-02T14:33:51+02:00</time>
      </trkpt>
      <trkpt lat="45.98957" lon="6.30473">
        <ele>1581</ele>
        <time>2016-10-02T14:33:52+02:00</time>
      </trkpt>
      <trkpt lat="45.98957" lon="6.30472">
        <ele>1581</ele>
        <time>2016-10-02T14:33:53+02:00</time>
      </trkpt>
      <trkpt lat="45.98958" lon="6.3047">
        <ele>1581</ele>
        <time>2016-10-02T14:33:54+02:00</time>
      </trkpt>
      <trkpt lat="45.98958" lon="6.30468">
        <ele>1581</ele>
        <time>2016-10-02T14:33:55+02:00</time>
      </trkpt>
      <trkpt lat="45.98959" lon="6.30467">
        <ele>1580</ele>
        <time>2016-10-02T14:33:56+02:00</time>
      </trkpt>
      <trkpt lat="45.98959" lon="6.30466">
        <ele>1580</ele>
        <time>2016-10-02T14:33:56+02:00</time>
      </trkpt>
      <trkpt lat="45.98959" lon="6.30464">
        <ele>1580</ele>
        <time>2016-10-02T14:33:57+02:00</time>
      </trkpt>
      <trkpt lat="45.9896" lon="6.30463">
        <ele>1580</ele>
        <time>2016-10-02T14:33:58+02:00</time>
      </trkpt>
      <trkpt lat="45.9896" lon="6.30461">
        <ele>1580</ele>
        <time>2016-10-02T14:33:59+02:00</time>
      </trkpt>
      <trkpt lat="45.9896" lon="6.3046">
        <ele>1580</ele>
        <time>2016-10-02T14:34:00+02:00</time>
      </trkpt>
      <trkpt lat="45.9896" lon="6.30458">
        <ele>1580</ele>
        <time>2016-10-02T14:34:01+02:00</time>
      </trkpt>
      <trkpt lat="45.9896" lon="6.30456">
        <ele>1579</ele>
        <time>2016-10-02T14:34:02+02:00</time>
      </trkpt>
      <trkpt lat="45.9896" lon="6.30454">
        <ele>1579</ele>
        <time>2016-10-02T14:34:03+02:00</time>
      </trkpt>
      <trkpt lat="45.98961" lon="6.30452">
        <ele>1579</ele>
        <time>2016-10-02T14:34:04+02:00</time>
      </trkpt>
      <trkpt lat="45.98961" lon="6.30451">
        <ele>1579</ele>
        <time>2016-10-02T14:34:05+02:00</time>
      </trkpt>
      <trkpt lat="45.98961" lon="6.30448">
        <ele>1579</ele>
        <time>2016-10-02T14:34:07+02:00</time>
      </trkpt>
      <trkpt lat="45.98961" lon="6.30447">
        <ele>1579</ele>
        <time>2016-10-02T14:34:08+02:00</time>
      </trkpt>
      <trkpt lat="45.9896" lon="6.30444">
        <ele>1578</ele>
        <time>2016-10-02T14:34:09+02:00</time>
      </trkpt>
      <trkpt lat="45.9896" lon="6.30442">
        <ele>1578</ele>
        <time>2016-10-02T14:34:11+02:00</time>
      </trkpt>
      <trkpt lat="45.9896" lon="6.30438">
        <ele>1577</ele>
        <time>2016-10-02T14:34:13+02:00</time>
      </trkpt>
      <trkpt lat="45.98961" lon="6.30435">
        <ele>1577</ele>
        <time>2016-10-02T14:34:15+02:00</time>
      </trkpt>
      <trkpt lat="45.98962" lon="6.30432">
        <ele>1577</ele>
        <time>2016-10-02T14:34:17+02:00</time>
      </trkpt>
      <trkpt lat="45.98962" lon="6.30429">
        <ele>1577</ele>
        <time>2016-10-02T14:34:18+02:00</time>
      </trkpt>
      <trkpt lat="45.98963" lon="6.30427">
        <ele>1576</ele>
        <time>2016-10-02T14:34:20+02:00</time>
      </trkpt>
      <trkpt lat="45.98963" lon="6.30425">
        <ele>1576</ele>
        <time>2016-10-02T14:34:21+02:00</time>
      </trkpt>
      <trkpt lat="45.98963" lon="6.30423">
        <ele>1576</ele>
        <time>2016-10-02T14:34:22+02:00</time>
      </trkpt>
      <trkpt lat="45.98964" lon="6.30422">
        <ele>1576</ele>
        <time>2016-10-02T14:34:23+02:00</time>
      </trkpt>
      <trkpt lat="45.98964" lon="6.3042">
        <ele>1576</ele>
        <time>2016-10-02T14:34:24+02:00</time>
      </trkpt>
      <trkpt lat="45.98964" lon="6.30418">
        <ele>1576</ele>
        <time>2016-10-02T14:34:25+02:00</time>
      </trkpt>
      <trkpt lat="45.98964" lon="6.30417">
        <ele>1576</ele>
        <time>2016-10-02T14:34:26+02:00</time>
      </trkpt>
      <trkpt lat="45.98964" lon="6.30415">
        <ele>1575</ele>
        <time>2016-10-02T14:34:27+02:00</time>
      </trkpt>
      <trkpt lat="45.98964" lon="6.30413">
        <ele>1575</ele>
        <time>2016-10-02T14:34:28+02:00</time>
      </trkpt>
      <trkpt lat="45.98964" lon="6.30411">
        <ele>1575</ele>
        <time>2016-10-02T14:34:30+02:00</time>
      </trkpt>
      <trkpt lat="45.98965" lon="6.30408">
        <ele>1574</ele>
        <time>2016-10-02T14:34:31+02:00</time>
      </trkpt>
      <trkpt lat="45.98965" lon="6.30406">
        <ele>1574</ele>
        <time>2016-10-02T14:34:32+02:00</time>
      </trkpt>
      <trkpt lat="45.98965" lon="6.30404">
        <ele>1573</ele>
        <time>2016-10-02T14:34:33+02:00</time>
      </trkpt>
      <trkpt lat="45.98965" lon="6.30402">
        <ele>1573</ele>
        <time>2016-10-02T14:34:34+02:00</time>
      </trkpt>
      <trkpt lat="45.98966" lon="6.30401">
        <ele>1573</ele>
        <time>2016-10-02T14:34:36+02:00</time>
      </trkpt>
      <trkpt lat="45.98966" lon="6.30398">
        <ele>1573</ele>
        <time>2016-10-02T14:34:37+02:00</time>
      </trkpt>
      <trkpt lat="45.98966" lon="6.30397">
        <ele>1572</ele>
        <time>2016-10-02T14:34:38+02:00</time>
      </trkpt>
      <trkpt lat="45.98966" lon="6.30395">
        <ele>1572</ele>
        <time>2016-10-02T14:34:39+02:00</time>
      </trkpt>
      <trkpt lat="45.98966" lon="6.30394">
        <ele>1572</ele>
        <time>2016-10-02T14:34:40+02:00</time>
      </trkpt>
      <trkpt lat="45.98966" lon="6.30392">
        <ele>1571</ele>
        <time>2016-10-02T14:34:41+02:00</time>
      </trkpt>
      <trkpt lat="45.98966" lon="6.30391">
        <ele>1571</ele>
        <time>2016-10-02T14:34:42+02:00</time>
      </trkpt>
      <trkpt lat="45.98966" lon="6.30389">
        <ele>1571</ele>
        <time>2016-10-02T14:34:42+02:00</time>
      </trkpt>
      <trkpt lat="45.98966" lon="6.30387">
        <ele>1571</ele>
        <time>2016-10-02T14:34:44+02:00</time>
      </trkpt>
      <trkpt lat="45.98966" lon="6.30385">
        <ele>1570</ele>
        <time>2016-10-02T14:34:45+02:00</time>
      </trkpt>
      <trkpt lat="45.98967" lon="6.30382">
        <ele>1570</ele>
        <time>2016-10-02T14:34:47+02:00</time>
      </trkpt>
      <trkpt lat="45.98967" lon="6.30379">
        <ele>1569</ele>
        <time>2016-10-02T14:34:49+02:00</time>
      </trkpt>
      <trkpt lat="45.98968" lon="6.30376">
        <ele>1569</ele>
        <time>2016-10-02T14:34:51+02:00</time>
      </trkpt>
      <trkpt lat="45.98968" lon="6.30373">
        <ele>1568</ele>
        <time>2016-10-02T14:34:52+02:00</time>
      </trkpt>
      <trkpt lat="45.98969" lon="6.3037">
        <ele>1568</ele>
        <time>2016-10-02T14:34:54+02:00</time>
      </trkpt>
      <trkpt lat="45.9897" lon="6.30367">
        <ele>1567</ele>
        <time>2016-10-02T14:34:56+02:00</time>
      </trkpt>
      <trkpt lat="45.98971" lon="6.30365">
        <ele>1567</ele>
        <time>2016-10-02T14:34:57+02:00</time>
      </trkpt>
      <trkpt lat="45.98972" lon="6.30362">
        <ele>1567</ele>
        <time>2016-10-02T14:34:59+02:00</time>
      </trkpt>
      <trkpt lat="45.98973" lon="6.3036">
        <ele>1566</ele>
        <time>2016-10-02T14:35:01+02:00</time>
      </trkpt>
      <trkpt lat="45.98974" lon="6.30357">
        <ele>1566</ele>
        <time>2016-10-02T14:35:03+02:00</time>
      </trkpt>
      <trkpt lat="45.98975" lon="6.30354">
        <ele>1566</ele>
        <time>2016-10-02T14:35:05+02:00</time>
      </trkpt>
      <trkpt lat="45.98977" lon="6.30352">
        <ele>1565</ele>
        <time>2016-10-02T14:35:06+02:00</time>
      </trkpt>
      <trkpt lat="45.98978" lon="6.30349">
        <ele>1565</ele>
        <time>2016-10-02T14:35:08+02:00</time>
      </trkpt>
      <trkpt lat="45.9898" lon="6.30346">
        <ele>1565</ele>
        <time>2016-10-02T14:35:11+02:00</time>
      </trkpt>
      <trkpt lat="45.98982" lon="6.30343">
        <ele>1564</ele>
        <time>2016-10-02T14:35:13+02:00</time>
      </trkpt>
      <trkpt lat="45.98983" lon="6.3034">
        <ele>1564</ele>
        <time>2016-10-02T14:35:15+02:00</time>
      </trkpt>
      <trkpt lat="45.98985" lon="6.30337">
        <ele>1563</ele>
        <time>2016-10-02T14:35:17+02:00</time>
      </trkpt>
      <trkpt lat="45.98987" lon="6.30334">
        <ele>1563</ele>
        <time>2016-10-02T14:35:19+02:00</time>
      </trkpt>
      <trkpt lat="45.98989" lon="6.30331">
        <ele>1562</ele>
        <time>2016-10-02T14:35:22+02:00</time>
      </trkpt>
      <trkpt lat="45.98991" lon="6.30328">
        <ele>1562</ele>
        <time>2016-10-02T14:35:24+02:00</time>
      </trkpt>
      <trkpt lat="45.98992" lon="6.30325">
        <ele>1561</ele>
        <time>2016-10-02T14:35:26+02:00</time>
      </trkpt>
      <trkpt lat="45.98994" lon="6.30322">
        <ele>1561</ele>
        <time>2016-10-02T14:35:28+02:00</time>
      </trkpt>
      <trkpt lat="45.98995" lon="6.30319">
        <ele>1560</ele>
        <time>2016-10-02T14:35:30+02:00</time>
      </trkpt>
      <trkpt lat="45.98996" lon="6.30316">
        <ele>1560</ele>
        <time>2016-10-02T14:35:32+02:00</time>
      </trkpt>
      <trkpt lat="45.98997" lon="6.30313">
        <ele>1559</ele>
        <time>2016-10-02T14:35:34+02:00</time>
      </trkpt>
      <trkpt lat="45.98998" lon="6.3031">
        <ele>1558</ele>
        <time>2016-10-02T14:35:36+02:00</time>
      </trkpt>
      <trkpt lat="45.98999" lon="6.30306">
        <ele>1557</ele>
        <time>2016-10-02T14:35:38+02:00</time>
      </trkpt>
      <trkpt lat="45.99" lon="6.30302">
        <ele>1556</ele>
        <time>2016-10-02T14:35:40+02:00</time>
      </trkpt>
      <trkpt lat="45.99001" lon="6.30298">
        <ele>1556</ele>
        <time>2016-10-02T14:35:43+02:00</time>
      </trkpt>
      <trkpt lat="45.99002" lon="6.30295">
        <ele>1555</ele>
        <time>2016-10-02T14:35:45+02:00</time>
      </trkpt>
      <trkpt lat="45.99003" lon="6.30291">
        <ele>1555</ele>
        <time>2016-10-02T14:35:47+02:00</time>
      </trkpt>
      <trkpt lat="45.99004" lon="6.30287">
        <ele>1554</ele>
        <time>2016-10-02T14:35:49+02:00</time>
      </trkpt>
      <trkpt lat="45.99005" lon="6.30282">
        <ele>1553</ele>
        <time>2016-10-02T14:35:52+02:00</time>
      </trkpt>
      <trkpt lat="45.99006" lon="6.30277">
        <ele>1553</ele>
        <time>2016-10-02T14:35:55+02:00</time>
      </trkpt>
      <trkpt lat="45.99006" lon="6.30274">
        <ele>1552</ele>
        <time>2016-10-02T14:35:57+02:00</time>
      </trkpt>
      <trkpt lat="45.99007" lon="6.3027">
        <ele>1552</ele>
        <time>2016-10-02T14:35:59+02:00</time>
      </trkpt>
      <trkpt lat="45.99008" lon="6.30267">
        <ele>1551</ele>
        <time>2016-10-02T14:36:01+02:00</time>
      </trkpt>
      <trkpt lat="45.99009" lon="6.30263">
        <ele>1551</ele>
        <time>2016-10-02T14:36:03+02:00</time>
      </trkpt>
      <trkpt lat="45.9901" lon="6.3026">
        <ele>1550</ele>
        <time>2016-10-02T14:36:05+02:00</time>
      </trkpt>
      <trkpt lat="45.99011" lon="6.30257">
        <ele>1550</ele>
        <time>2016-10-02T14:36:07+02:00</time>
      </trkpt>
      <trkpt lat="45.99011" lon="6.30253">
        <ele>1549</ele>
        <time>2016-10-02T14:36:09+02:00</time>
      </trkpt>
      <trkpt lat="45.99011" lon="6.3025">
        <ele>1549</ele>
        <time>2016-10-02T14:36:11+02:00</time>
      </trkpt>
      <trkpt lat="45.99012" lon="6.30247">
        <ele>1548</ele>
        <time>2016-10-02T14:36:13+02:00</time>
      </trkpt>
      <trkpt lat="45.99012" lon="6.30244">
        <ele>1547</ele>
        <time>2016-10-02T14:36:15+02:00</time>
      </trkpt>
      <trkpt lat="45.99013" lon="6.30241">
        <ele>1547</ele>
        <time>2016-10-02T14:36:17+02:00</time>
      </trkpt>
      <trkpt lat="45.99013" lon="6.30238">
        <ele>1546</ele>
        <time>2016-10-02T14:36:18+02:00</time>
      </trkpt>
      <trkpt lat="45.99014" lon="6.30235">
        <ele>1545</ele>
        <time>2016-10-02T14:36:20+02:00</time>
      </trkpt>
      <trkpt lat="45.99015" lon="6.30231">
        <ele>1545</ele>
        <time>2016-10-02T14:36:22+02:00</time>
      </trkpt>
      <trkpt lat="45.99015" lon="6.30228">
        <ele>1544</ele>
        <time>2016-10-02T14:36:24+02:00</time>
      </trkpt>
      <trkpt lat="45.99016" lon="6.30224">
        <ele>1543</ele>
        <time>2016-10-02T14:36:26+02:00</time>
      </trkpt>
      <trkpt lat="45.99017" lon="6.3022">
        <ele>1543</ele>
        <time>2016-10-02T14:36:29+02:00</time>
      </trkpt>
      <trkpt lat="45.99018" lon="6.30216">
        <ele>1542</ele>
        <time>2016-10-02T14:36:31+02:00</time>
      </trkpt>
      <trkpt lat="45.99019" lon="6.30213">
        <ele>1542</ele>
        <time>2016-10-02T14:36:33+02:00</time>
      </trkpt>
      <trkpt lat="45.9902" lon="6.3021">
        <ele>1541</ele>
        <time>2016-10-02T14:36:35+02:00</time>
      </trkpt>
      <trkpt lat="45.99021" lon="6.30206">
        <ele>1541</ele>
        <time>2016-10-02T14:36:38+02:00</time>
      </trkpt>
      <trkpt lat="45.99022" lon="6.30202">
        <ele>1540</ele>
        <time>2016-10-02T14:36:40+02:00</time>
      </trkpt>
      <trkpt lat="45.99023" lon="6.30198">
        <ele>1539</ele>
        <time>2016-10-02T14:36:42+02:00</time>
      </trkpt>
      <trkpt lat="45.99024" lon="6.30195">
        <ele>1539</ele>
        <time>2016-10-02T14:36:44+02:00</time>
      </trkpt>
      <trkpt lat="45.99025" lon="6.30191">
        <ele>1538</ele>
        <time>2016-10-02T14:36:47+02:00</time>
      </trkpt>
      <trkpt lat="45.99026" lon="6.30188">
        <ele>1538</ele>
        <time>2016-10-02T14:36:49+02:00</time>
      </trkpt>
      <trkpt lat="45.99027" lon="6.30185">
        <ele>1537</ele>
        <time>2016-10-02T14:36:51+02:00</time>
      </trkpt>
      <trkpt lat="45.99029" lon="6.30182">
        <ele>1537</ele>
        <time>2016-10-02T14:36:53+02:00</time>
      </trkpt>
      <trkpt lat="45.9903" lon="6.30179">
        <ele>1537</ele>
        <time>2016-10-02T14:36:55+02:00</time>
      </trkpt>
      <trkpt lat="45.99031" lon="6.30176">
        <ele>1537</ele>
        <time>2016-10-02T14:36:57+02:00</time>
      </trkpt>
      <trkpt lat="45.99033" lon="6.30173">
        <ele>1537</ele>
        <time>2016-10-02T14:36:59+02:00</time>
      </trkpt>
      <trkpt lat="45.99034" lon="6.3017">
        <ele>1536</ele>
        <time>2016-10-02T14:37:01+02:00</time>
      </trkpt>
      <trkpt lat="45.99035" lon="6.30167">
        <ele>1536</ele>
        <time>2016-10-02T14:37:03+02:00</time>
      </trkpt>
      <trkpt lat="45.99036" lon="6.30164">
        <ele>1536</ele>
        <time>2016-10-02T14:37:05+02:00</time>
      </trkpt>
      <trkpt lat="45.99037" lon="6.30161">
        <ele>1535</ele>
        <time>2016-10-02T14:37:07+02:00</time>
      </trkpt>
      <trkpt lat="45.99038" lon="6.30158">
        <ele>1534</ele>
        <time>2016-10-02T14:37:08+02:00</time>
      </trkpt>
      <trkpt lat="45.99039" lon="6.30155">
        <ele>1534</ele>
        <time>2016-10-02T14:37:10+02:00</time>
      </trkpt>
      <trkpt lat="45.9904" lon="6.30153">
        <ele>1533</ele>
        <time>2016-10-02T14:37:12+02:00</time>
      </trkpt>
      <trkpt lat="45.99041" lon="6.30152">
        <ele>1534</ele>
        <time>2016-10-02T14:37:13+02:00</time>
      </trkpt>
      <trkpt lat="45.99042" lon="6.30151">
        <ele>1534</ele>
        <time>2016-10-02T14:37:14+02:00</time>
      </trkpt>
      <trkpt lat="45.99043" lon="6.3015">
        <ele>1534</ele>
        <time>2016-10-02T14:37:15+02:00</time>
      </trkpt>
      <trkpt lat="45.99044" lon="6.30148">
        <ele>1534</ele>
        <time>2016-10-02T14:37:17+02:00</time>
      </trkpt>
      <trkpt lat="45.99045" lon="6.30147">
        <ele>1533</ele>
        <time>2016-10-02T14:37:18+02:00</time>
      </trkpt>
      <trkpt lat="45.99045" lon="6.30145">
        <ele>1533</ele>
        <time>2016-10-02T14:37:19+02:00</time>
      </trkpt>
      <trkpt lat="45.99046" lon="6.30143">
        <ele>1533</ele>
        <time>2016-10-02T14:37:20+02:00</time>
      </trkpt>
      <trkpt lat="45.99048" lon="6.30141">
        <ele>1533</ele>
        <time>2016-10-02T14:37:22+02:00</time>
      </trkpt>
      <trkpt lat="45.99049" lon="6.3014">
        <ele>1533</ele>
        <time>2016-10-02T14:37:23+02:00</time>
      </trkpt>
      <trkpt lat="45.9905" lon="6.30138">
        <ele>1532</ele>
        <time>2016-10-02T14:37:25+02:00</time>
      </trkpt>
      <trkpt lat="45.99051" lon="6.30136">
        <ele>1532</ele>
        <time>2016-10-02T14:37:26+02:00</time>
      </trkpt>
      <trkpt lat="45.99052" lon="6.30134">
        <ele>1532</ele>
        <time>2016-10-02T14:37:28+02:00</time>
      </trkpt>
      <trkpt lat="45.99053" lon="6.30131">
        <ele>1531</ele>
        <time>2016-10-02T14:37:29+02:00</time>
      </trkpt>
      <trkpt lat="45.99053" lon="6.30129">
        <ele>1531</ele>
        <time>2016-10-02T14:37:31+02:00</time>
      </trkpt>
      <trkpt lat="45.99054" lon="6.30128">
        <ele>1531</ele>
        <time>2016-10-02T14:37:32+02:00</time>
      </trkpt>
      <trkpt lat="45.99056" lon="6.30126">
        <ele>1531</ele>
        <time>2016-10-02T14:37:33+02:00</time>
      </trkpt>
      <trkpt lat="45.99057" lon="6.30125">
        <ele>1531</ele>
        <time>2016-10-02T14:37:34+02:00</time>
      </trkpt>
      <trkpt lat="45.99059" lon="6.30123">
        <ele>1531</ele>
        <time>2016-10-02T14:37:36+02:00</time>
      </trkpt>
      <trkpt lat="45.9906" lon="6.3012">
        <ele>1530</ele>
        <time>2016-10-02T14:37:38+02:00</time>
      </trkpt>
      <trkpt lat="45.99062" lon="6.30117">
        <ele>1530</ele>
        <time>2016-10-02T14:37:40+02:00</time>
      </trkpt>
      <trkpt lat="45.99064" lon="6.30115">
        <ele>1530</ele>
        <time>2016-10-02T14:37:42+02:00</time>
      </trkpt>
      <trkpt lat="45.99065" lon="6.30114">
        <ele>1530</ele>
        <time>2016-10-02T14:37:43+02:00</time>
      </trkpt>
      <trkpt lat="45.99067" lon="6.30111">
        <ele>1530</ele>
        <time>2016-10-02T14:37:45+02:00</time>
      </trkpt>
      <trkpt lat="45.99068" lon="6.30109">
        <ele>1529</ele>
        <time>2016-10-02T14:37:47+02:00</time>
      </trkpt>
      <trkpt lat="45.99069" lon="6.30108">
        <ele>1529</ele>
        <time>2016-10-02T14:37:48+02:00</time>
      </trkpt>
      <trkpt lat="45.99071" lon="6.30106">
        <ele>1529</ele>
        <time>2016-10-02T14:37:50+02:00</time>
      </trkpt>
      <trkpt lat="45.99073" lon="6.30103">
        <ele>1529</ele>
        <time>2016-10-02T14:37:52+02:00</time>
      </trkpt>
      <trkpt lat="45.99075" lon="6.30101">
        <ele>1529</ele>
        <time>2016-10-02T14:37:54+02:00</time>
      </trkpt>
      <trkpt lat="45.99076" lon="6.30099">
        <ele>1529</ele>
        <time>2016-10-02T14:37:56+02:00</time>
      </trkpt>
      <trkpt lat="45.99078" lon="6.30097">
        <ele>1528</ele>
        <time>2016-10-02T14:37:58+02:00</time>
      </trkpt>
      <trkpt lat="45.99079" lon="6.30095">
        <ele>1528</ele>
        <time>2016-10-02T14:37:59+02:00</time>
      </trkpt>
      <trkpt lat="45.9908" lon="6.30094">
        <ele>1528</ele>
        <time>2016-10-02T14:38:00+02:00</time>
      </trkpt>
      <trkpt lat="45.99081" lon="6.30092">
        <ele>1528</ele>
        <time>2016-10-02T14:38:01+02:00</time>
      </trkpt>
      <trkpt lat="45.99082" lon="6.30091">
        <ele>1528</ele>
        <time>2016-10-02T14:38:03+02:00</time>
      </trkpt>
      <trkpt lat="45.99084" lon="6.30089">
        <ele>1528</ele>
        <time>2016-10-02T14:38:04+02:00</time>
      </trkpt>
      <trkpt lat="45.99086" lon="6.30087">
        <ele>1528</ele>
        <time>2016-10-02T14:38:07+02:00</time>
      </trkpt>
      <trkpt lat="45.99088" lon="6.30084">
        <ele>1528</ele>
        <time>2016-10-02T14:38:09+02:00</time>
      </trkpt>
      <trkpt lat="45.9909" lon="6.30082">
        <ele>1528</ele>
        <time>2016-10-02T14:38:11+02:00</time>
      </trkpt>
      <trkpt lat="45.99092" lon="6.3008">
        <ele>1528</ele>
        <time>2016-10-02T14:38:13+02:00</time>
      </trkpt>
      <trkpt lat="45.99093" lon="6.30077">
        <ele>1527</ele>
        <time>2016-10-02T14:38:15+02:00</time>
      </trkpt>
      <trkpt lat="45.99094" lon="6.30074">
        <ele>1526</ele>
        <time>2016-10-02T14:38:17+02:00</time>
      </trkpt>
      <trkpt lat="45.99097" lon="6.30071">
        <ele>1526</ele>
        <time>2016-10-02T14:38:19+02:00</time>
      </trkpt>
      <trkpt lat="45.99099" lon="6.30069">
        <ele>1526</ele>
        <time>2016-10-02T14:38:22+02:00</time>
      </trkpt>
      <trkpt lat="45.99102" lon="6.30066">
        <ele>1526</ele>
        <time>2016-10-02T14:38:24+02:00</time>
      </trkpt>
      <trkpt lat="45.99104" lon="6.30063">
        <ele>1525</ele>
        <time>2016-10-02T14:38:27+02:00</time>
      </trkpt>
      <trkpt lat="45.99107" lon="6.3006">
        <ele>1525</ele>
        <time>2016-10-02T14:38:30+02:00</time>
      </trkpt>
      <trkpt lat="45.9911" lon="6.30057">
        <ele>1524</ele>
        <time>2016-10-02T14:38:33+02:00</time>
      </trkpt>
      <trkpt lat="45.99112" lon="6.30054">
        <ele>1524</ele>
        <time>2016-10-02T14:38:35+02:00</time>
      </trkpt>
      <trkpt lat="45.99114" lon="6.30052">
        <ele>1523</ele>
        <time>2016-10-02T14:38:37+02:00</time>
      </trkpt>
      <trkpt lat="45.99116" lon="6.3005">
        <ele>1523</ele>
        <time>2016-10-02T14:38:39+02:00</time>
      </trkpt>
      <trkpt lat="45.99117" lon="6.30047">
        <ele>1522</ele>
        <time>2016-10-02T14:38:41+02:00</time>
      </trkpt>
      <trkpt lat="45.99118" lon="6.30044">
        <ele>1521</ele>
        <time>2016-10-02T14:38:43+02:00</time>
      </trkpt>
      <trkpt lat="45.99119" lon="6.30041">
        <ele>1519</ele>
        <time>2016-10-02T14:38:45+02:00</time>
      </trkpt>
      <trkpt lat="45.99121" lon="6.30038">
        <ele>1518</ele>
        <time>2016-10-02T14:38:47+02:00</time>
      </trkpt>
      <trkpt lat="45.99123" lon="6.30035">
        <ele>1517</ele>
        <time>2016-10-02T14:38:50+02:00</time>
      </trkpt>
      <trkpt lat="45.99125" lon="6.30032">
        <ele>1515</ele>
        <time>2016-10-02T14:38:52+02:00</time>
      </trkpt>
      <trkpt lat="45.99127" lon="6.30029">
        <ele>1514</ele>
        <time>2016-10-02T14:38:55+02:00</time>
      </trkpt>
      <trkpt lat="45.99129" lon="6.30027">
        <ele>1514</ele>
        <time>2016-10-02T14:38:57+02:00</time>
      </trkpt>
      <trkpt lat="45.99132" lon="6.30024">
        <ele>1513</ele>
        <time>2016-10-02T14:38:59+02:00</time>
      </trkpt>
      <trkpt lat="45.99133" lon="6.30022">
        <ele>1513</ele>
        <time>2016-10-02T14:39:01+02:00</time>
      </trkpt>
      <trkpt lat="45.99135" lon="6.3002">
        <ele>1512</ele>
        <time>2016-10-02T14:39:03+02:00</time>
      </trkpt>
      <trkpt lat="45.99137" lon="6.30018">
        <ele>1511</ele>
        <time>2016-10-02T14:39:05+02:00</time>
      </trkpt>
      <trkpt lat="45.99139" lon="6.30016">
        <ele>1510</ele>
        <time>2016-10-02T14:39:07+02:00</time>
      </trkpt>
      <trkpt lat="45.99142" lon="6.30014">
        <ele>1510</ele>
        <time>2016-10-02T14:39:09+02:00</time>
      </trkpt>
      <trkpt lat="45.99143" lon="6.30012">
        <ele>1509</ele>
        <time>2016-10-02T14:39:11+02:00</time>
      </trkpt>
      <trkpt lat="45.99145" lon="6.3001">
        <ele>1509</ele>
        <time>2016-10-02T14:39:13+02:00</time>
      </trkpt>
      <trkpt lat="45.99147" lon="6.30008">
        <ele>1507</ele>
        <time>2016-10-02T14:39:15+02:00</time>
      </trkpt>
      <trkpt lat="45.99149" lon="6.30005">
        <ele>1506</ele>
        <time>2016-10-02T14:39:17+02:00</time>
      </trkpt>
      <trkpt lat="45.99151" lon="6.30002">
        <ele>1504</ele>
        <time>2016-10-02T14:39:19+02:00</time>
      </trkpt>
      <trkpt lat="45.99153" lon="6.29999">
        <ele>1503</ele>
        <time>2016-10-02T14:39:22+02:00</time>
      </trkpt>
      <trkpt lat="45.99154" lon="6.29996">
        <ele>1502</ele>
        <time>2016-10-02T14:39:24+02:00</time>
      </trkpt>
      <trkpt lat="45.99156" lon="6.29994">
        <ele>1501</ele>
        <time>2016-10-02T14:39:26+02:00</time>
      </trkpt>
      <trkpt lat="45.99157" lon="6.29992">
        <ele>1501</ele>
        <time>2016-10-02T14:39:27+02:00</time>
      </trkpt>
      <trkpt lat="45.99159" lon="6.2999">
        <ele>1500</ele>
        <time>2016-10-02T14:39:28+02:00</time>
      </trkpt>
      <trkpt lat="45.99159" lon="6.29988">
        <ele>1499</ele>
        <time>2016-10-02T14:39:30+02:00</time>
      </trkpt>
      <trkpt lat="45.9916" lon="6.29985">
        <ele>1498</ele>
        <time>2016-10-02T14:39:32+02:00</time>
      </trkpt>
      <trkpt lat="45.99161" lon="6.29982">
        <ele>1497</ele>
        <time>2016-10-02T14:39:34+02:00</time>
      </trkpt>
      <trkpt lat="45.99162" lon="6.2998">
        <ele>1496</ele>
        <time>2016-10-02T14:39:35+02:00</time>
      </trkpt>
      <trkpt lat="45.99163" lon="6.29979">
        <ele>1495</ele>
        <time>2016-10-02T14:39:37+02:00</time>
      </trkpt>
      <trkpt lat="45.99164" lon="6.29977">
        <ele>1495</ele>
        <time>2016-10-02T14:39:38+02:00</time>
      </trkpt>
      <trkpt lat="45.99165" lon="6.29975">
        <ele>1494</ele>
        <time>2016-10-02T14:39:39+02:00</time>
      </trkpt>
      <trkpt lat="45.99166" lon="6.29972">
        <ele>1493</ele>
        <time>2016-10-02T14:39:41+02:00</time>
      </trkpt>
      <trkpt lat="45.99166" lon="6.29969">
        <ele>1491</ele>
        <time>2016-10-02T14:39:43+02:00</time>
      </trkpt>
      <trkpt lat="45.99167" lon="6.29966">
        <ele>1490</ele>
        <time>2016-10-02T14:39:44+02:00</time>
      </trkpt>
      <trkpt lat="45.99168" lon="6.29963">
        <ele>1489</ele>
        <time>2016-10-02T14:39:46+02:00</time>
      </trkpt>
      <trkpt lat="45.99168" lon="6.2996">
        <ele>1488</ele>
        <time>2016-10-02T14:39:48+02:00</time>
      </trkpt>
      <trkpt lat="45.99169" lon="6.29958">
        <ele>1487</ele>
        <time>2016-10-02T14:39:50+02:00</time>
      </trkpt>
      <trkpt lat="45.9917" lon="6.29955">
        <ele>1486</ele>
        <time>2016-10-02T14:39:52+02:00</time>
      </trkpt>
      <trkpt lat="45.99171" lon="6.29953">
        <ele>1485</ele>
        <time>2016-10-02T14:39:53+02:00</time>
      </trkpt>
      <trkpt lat="45.99172" lon="6.29951">
        <ele>1485</ele>
        <time>2016-10-02T14:39:55+02:00</time>
      </trkpt>
      <trkpt lat="45.99173" lon="6.29948">
        <ele>1484</ele>
        <time>2016-10-02T14:39:56+02:00</time>
      </trkpt>
      <trkpt lat="45.99173" lon="6.29946">
        <ele>1483</ele>
        <time>2016-10-02T14:39:58+02:00</time>
      </trkpt>
      <trkpt lat="45.99174" lon="6.29942">
        <ele>1482</ele>
        <time>2016-10-02T14:40:00+02:00</time>
      </trkpt>
      <trkpt lat="45.99175" lon="6.2994">
        <ele>1481</ele>
        <time>2016-10-02T14:40:02+02:00</time>
      </trkpt>
      <trkpt lat="45.99176" lon="6.29938">
        <ele>1480</ele>
        <time>2016-10-02T14:40:03+02:00</time>
      </trkpt>
      <trkpt lat="45.99177" lon="6.29936">
        <ele>1480</ele>
        <time>2016-10-02T14:40:04+02:00</time>
      </trkpt>
      <trkpt lat="45.99177" lon="6.29933">
        <ele>1479</ele>
        <time>2016-10-02T14:40:06+02:00</time>
      </trkpt>
      <trkpt lat="45.99177" lon="6.2993">
        <ele>1477</ele>
        <time>2016-10-02T14:40:08+02:00</time>
      </trkpt>
      <trkpt lat="45.99177" lon="6.29927">
        <ele>1475</ele>
        <time>2016-10-02T14:40:10+02:00</time>
      </trkpt>
      <trkpt lat="45.99178" lon="6.29924">
        <ele>1474</ele>
        <time>2016-10-02T14:40:13+02:00</time>
      </trkpt>
      <trkpt lat="45.99178" lon="6.2992">
        <ele>1472</ele>
        <time>2016-10-02T14:40:15+02:00</time>
      </trkpt>
      <trkpt lat="45.99179" lon="6.29917">
        <ele>1471</ele>
        <time>2016-10-02T14:40:17+02:00</time>
      </trkpt>
      <trkpt lat="45.99179" lon="6.29914">
        <ele>1469</ele>
        <time>2016-10-02T14:40:19+02:00</time>
      </trkpt>
      <trkpt lat="45.99178" lon="6.29911">
        <ele>1468</ele>
        <time>2016-10-02T14:40:22+02:00</time>
      </trkpt>
      <trkpt lat="45.99177" lon="6.29908">
        <ele>1466</ele>
        <time>2016-10-02T14:40:25+02:00</time>
      </trkpt>
      <trkpt lat="45.99177" lon="6.29904">
        <ele>1464</ele>
        <time>2016-10-02T14:40:27+02:00</time>
      </trkpt>
      <trkpt lat="45.99177" lon="6.29902">
        <ele>1463</ele>
        <time>2016-10-02T14:40:29+02:00</time>
      </trkpt>
      <trkpt lat="45.99178" lon="6.29899">
        <ele>1463</ele>
        <time>2016-10-02T14:40:31+02:00</time>
      </trkpt>
      <trkpt lat="45.99178" lon="6.29898">
        <ele>1462</ele>
        <time>2016-10-02T14:40:32+02:00</time>
      </trkpt>
      <trkpt lat="45.99179" lon="6.29896">
        <ele>1462</ele>
        <time>2016-10-02T14:40:33+02:00</time>
      </trkpt>
      <trkpt lat="45.9918" lon="6.29894">
        <ele>1462</ele>
        <time>2016-10-02T14:40:35+02:00</time>
      </trkpt>
      <trkpt lat="45.99181" lon="6.29891">
        <ele>1461</ele>
        <time>2016-10-02T14:40:37+02:00</time>
      </trkpt>
      <trkpt lat="45.99181" lon="6.29887">
        <ele>1459</ele>
        <time>2016-10-02T14:40:39+02:00</time>
      </trkpt>
      <trkpt lat="45.99181" lon="6.29883">
        <ele>1458</ele>
        <time>2016-10-02T14:40:42+02:00</time>
      </trkpt>
      <trkpt lat="45.99181" lon="6.29879">
        <ele>1456</ele>
        <time>2016-10-02T14:40:44+02:00</time>
      </trkpt>
      <trkpt lat="45.99182" lon="6.29876">
        <ele>1455</ele>
        <time>2016-10-02T14:40:47+02:00</time>
      </trkpt>
      <trkpt lat="45.99183" lon="6.29874">
        <ele>1455</ele>
        <time>2016-10-02T14:40:48+02:00</time>
      </trkpt>
      <trkpt lat="45.99184" lon="6.29872">
        <ele>1454</ele>
        <time>2016-10-02T14:40:50+02:00</time>
      </trkpt>
      <trkpt lat="45.99185" lon="6.2987">
        <ele>1454</ele>
        <time>2016-10-02T14:40:51+02:00</time>
      </trkpt>
      <trkpt lat="45.99186" lon="6.29868">
        <ele>1454</ele>
        <time>2016-10-02T14:40:53+02:00</time>
      </trkpt>
      <trkpt lat="45.99187" lon="6.29865">
        <ele>1454</ele>
        <time>2016-10-02T14:40:55+02:00</time>
      </trkpt>
      <trkpt lat="45.99189" lon="6.29863">
        <ele>1454</ele>
        <time>2016-10-02T14:40:57+02:00</time>
      </trkpt>
      <trkpt lat="45.99191" lon="6.29861">
        <ele>1453</ele>
        <time>2016-10-02T14:40:59+02:00</time>
      </trkpt>
      <trkpt lat="45.99193" lon="6.29857">
        <ele>1453</ele>
        <time>2016-10-02T14:41:02+02:00</time>
      </trkpt>
      <trkpt lat="45.99195" lon="6.29854">
        <ele>1453</ele>
        <time>2016-10-02T14:41:04+02:00</time>
      </trkpt>
      <trkpt lat="45.99197" lon="6.29852">
        <ele>1453</ele>
        <time>2016-10-02T14:41:06+02:00</time>
      </trkpt>
      <trkpt lat="45.992" lon="6.29849">
        <ele>1453</ele>
        <time>2016-10-02T14:41:09+02:00</time>
      </trkpt>
      <trkpt lat="45.99202" lon="6.29848">
        <ele>1453</ele>
        <time>2016-10-02T14:41:11+02:00</time>
      </trkpt>
      <trkpt lat="45.99204" lon="6.29846">
        <ele>1453</ele>
        <time>2016-10-02T14:41:13+02:00</time>
      </trkpt>
      <trkpt lat="45.99206" lon="6.29845">
        <ele>1454</ele>
        <time>2016-10-02T14:41:14+02:00</time>
      </trkpt>
      <trkpt lat="45.99208" lon="6.29845">
        <ele>1454</ele>
        <time>2016-10-02T14:41:16+02:00</time>
      </trkpt>
      <trkpt lat="45.99209" lon="6.29844">
        <ele>1455</ele>
        <time>2016-10-02T14:41:17+02:00</time>
      </trkpt>
      <trkpt lat="45.99211" lon="6.29843">
        <ele>1456</ele>
        <time>2016-10-02T14:41:19+02:00</time>
      </trkpt>
      <trkpt lat="45.99213" lon="6.29842">
        <ele>1456</ele>
        <time>2016-10-02T14:41:20+02:00</time>
      </trkpt>
      <trkpt lat="45.99215" lon="6.29841">
        <ele>1457</ele>
        <time>2016-10-02T14:41:22+02:00</time>
      </trkpt>
      <trkpt lat="45.99218" lon="6.29841">
        <ele>1457</ele>
        <time>2016-10-02T14:41:24+02:00</time>
      </trkpt>
      <trkpt lat="45.9922" lon="6.2984">
        <ele>1458</ele>
        <time>2016-10-02T14:41:26+02:00</time>
      </trkpt>
      <trkpt lat="45.99222" lon="6.29839">
        <ele>1459</ele>
        <time>2016-10-02T14:41:28+02:00</time>
      </trkpt>
      <trkpt lat="45.99224" lon="6.29837">
        <ele>1459</ele>
        <time>2016-10-02T14:41:30+02:00</time>
      </trkpt>
      <trkpt lat="45.99226" lon="6.29835">
        <ele>1459</ele>
        <time>2016-10-02T14:41:32+02:00</time>
      </trkpt>
      <trkpt lat="45.99229" lon="6.29834">
        <ele>1459</ele>
        <time>2016-10-02T14:41:34+02:00</time>
      </trkpt>
      <trkpt lat="45.99231" lon="6.29833">
        <ele>1460</ele>
        <time>2016-10-02T14:41:36+02:00</time>
      </trkpt>
      <trkpt lat="45.99234" lon="6.29832">
        <ele>1461</ele>
        <time>2016-10-02T14:41:38+02:00</time>
      </trkpt>
      <trkpt lat="45.99236" lon="6.29832">
        <ele>1462</ele>
        <time>2016-10-02T14:41:41+02:00</time>
      </trkpt>
      <trkpt lat="45.99239" lon="6.29831">
        <ele>1463</ele>
        <time>2016-10-02T14:41:43+02:00</time>
      </trkpt>
      <trkpt lat="45.99242" lon="6.2983">
        <ele>1464</ele>
        <time>2016-10-02T14:41:45+02:00</time>
      </trkpt>
      <trkpt lat="45.99244" lon="6.29829">
        <ele>1464</ele>
        <time>2016-10-02T14:41:47+02:00</time>
      </trkpt>
      <trkpt lat="45.99246" lon="6.29827">
        <ele>1464</ele>
        <time>2016-10-02T14:41:49+02:00</time>
      </trkpt>
      <trkpt lat="45.99249" lon="6.29827">
        <ele>1465</ele>
        <time>2016-10-02T14:41:51+02:00</time>
      </trkpt>
      <trkpt lat="45.99252" lon="6.29826">
        <ele>1466</ele>
        <time>2016-10-02T14:41:54+02:00</time>
      </trkpt>
      <trkpt lat="45.99255" lon="6.29826">
        <ele>1466</ele>
        <time>2016-10-02T14:41:56+02:00</time>
      </trkpt>
      <trkpt lat="45.99257" lon="6.29825">
        <ele>1465</ele>
        <time>2016-10-02T14:41:58+02:00</time>
      </trkpt>
      <trkpt lat="45.99259" lon="6.29824">
        <ele>1465</ele>
        <time>2016-10-02T14:42:00+02:00</time>
      </trkpt>
      <trkpt lat="45.99261" lon="6.29823">
        <ele>1465</ele>
        <time>2016-10-02T14:42:01+02:00</time>
      </trkpt>
      <trkpt lat="45.99263" lon="6.29823">
        <ele>1465</ele>
        <time>2016-10-02T14:42:03+02:00</time>
      </trkpt>
      <trkpt lat="45.99266" lon="6.29823">
        <ele>1465</ele>
        <time>2016-10-02T14:42:05+02:00</time>
      </trkpt>
      <trkpt lat="45.99268" lon="6.29822">
        <ele>1465</ele>
        <time>2016-10-02T14:42:07+02:00</time>
      </trkpt>
      <trkpt lat="45.9927" lon="6.29821">
        <ele>1465</ele>
        <time>2016-10-02T14:42:09+02:00</time>
      </trkpt>
      <trkpt lat="45.99272" lon="6.2982">
        <ele>1464</ele>
        <time>2016-10-02T14:42:11+02:00</time>
      </trkpt>
      <trkpt lat="45.99274" lon="6.29819">
        <ele>1464</ele>
        <time>2016-10-02T14:42:13+02:00</time>
      </trkpt>
      <trkpt lat="45.99276" lon="6.29818">
        <ele>1464</ele>
        <time>2016-10-02T14:42:15+02:00</time>
      </trkpt>
      <trkpt lat="45.99279" lon="6.29817">
        <ele>1464</ele>
        <time>2016-10-02T14:42:17+02:00</time>
      </trkpt>
      <trkpt lat="45.99281" lon="6.29817">
        <ele>1463</ele>
        <time>2016-10-02T14:42:18+02:00</time>
      </trkpt>
      <trkpt lat="45.99283" lon="6.29816">
        <ele>1463</ele>
        <time>2016-10-02T14:42:20+02:00</time>
      </trkpt>
      <trkpt lat="45.99285" lon="6.29815">
        <ele>1463</ele>
        <time>2016-10-02T14:42:22+02:00</time>
      </trkpt>
      <trkpt lat="45.99287" lon="6.29814">
        <ele>1463</ele>
        <time>2016-10-02T14:42:24+02:00</time>
      </trkpt>
      <trkpt lat="45.9929" lon="6.29813">
        <ele>1463</ele>
        <time>2016-10-02T14:42:26+02:00</time>
      </trkpt>
      <trkpt lat="45.99292" lon="6.29814">
        <ele>1463</ele>
        <time>2016-10-02T14:42:28+02:00</time>
      </trkpt>
      <trkpt lat="45.99294" lon="6.29815">
        <ele>1464</ele>
        <time>2016-10-02T14:42:30+02:00</time>
      </trkpt>
      <trkpt lat="45.99295" lon="6.29816">
        <ele>1464</ele>
        <time>2016-10-02T14:42:31+02:00</time>
      </trkpt>
      <trkpt lat="45.99296" lon="6.29816">
        <ele>1464</ele>
        <time>2016-10-02T14:42:32+02:00</time>
      </trkpt>
      <trkpt lat="45.99298" lon="6.29815">
        <ele>1464</ele>
        <time>2016-10-02T14:42:33+02:00</time>
      </trkpt>
      <trkpt lat="45.99299" lon="6.29814">
        <ele>1464</ele>
        <time>2016-10-02T14:42:34+02:00</time>
      </trkpt>
      <trkpt lat="45.993" lon="6.29813">
        <ele>1463</ele>
        <time>2016-10-02T14:42:35+02:00</time>
      </trkpt>
      <trkpt lat="45.99301" lon="6.29811">
        <ele>1462</ele>
        <time>2016-10-02T14:42:37+02:00</time>
      </trkpt>
      <trkpt lat="45.99302" lon="6.29808">
        <ele>1461</ele>
        <time>2016-10-02T14:42:39+02:00</time>
      </trkpt>
      <trkpt lat="45.99304" lon="6.29805">
        <ele>1460</ele>
        <time>2016-10-02T14:42:41+02:00</time>
      </trkpt>
      <trkpt lat="45.99306" lon="6.29803">
        <ele>1458</ele>
        <time>2016-10-02T14:42:44+02:00</time>
      </trkpt>
      <trkpt lat="45.99308" lon="6.29801">
        <ele>1458</ele>
        <time>2016-10-02T14:42:46+02:00</time>
      </trkpt>
      <trkpt lat="45.99311" lon="6.298">
        <ele>1457</ele>
        <time>2016-10-02T14:42:48+02:00</time>
      </trkpt>
      <trkpt lat="45.99313" lon="6.29798">
        <ele>1457</ele>
        <time>2016-10-02T14:42:50+02:00</time>
      </trkpt>
      <trkpt lat="45.99315" lon="6.29797">
        <ele>1456</ele>
        <time>2016-10-02T14:42:52+02:00</time>
      </trkpt>
      <trkpt lat="45.99317" lon="6.29796">
        <ele>1455</ele>
        <time>2016-10-02T14:42:54+02:00</time>
      </trkpt>
      <trkpt lat="45.99319" lon="6.29795">
        <ele>1455</ele>
        <time>2016-10-02T14:42:56+02:00</time>
      </trkpt>
      <trkpt lat="45.99321" lon="6.29794">
        <ele>1455</ele>
        <time>2016-10-02T14:42:57+02:00</time>
      </trkpt>
      <trkpt lat="45.99323" lon="6.29792">
        <ele>1454</ele>
        <time>2016-10-02T14:42:59+02:00</time>
      </trkpt>
      <trkpt lat="45.99325" lon="6.2979">
        <ele>1453</ele>
        <time>2016-10-02T14:43:01+02:00</time>
      </trkpt>
      <trkpt lat="45.99327" lon="6.29789">
        <ele>1452</ele>
        <time>2016-10-02T14:43:03+02:00</time>
      </trkpt>
      <trkpt lat="45.9933" lon="6.29788">
        <ele>1452</ele>
        <time>2016-10-02T14:43:05+02:00</time>
      </trkpt>
      <trkpt lat="45.99332" lon="6.29787">
        <ele>1452</ele>
        <time>2016-10-02T14:43:08+02:00</time>
      </trkpt>
      <trkpt lat="45.99335" lon="6.29785">
        <ele>1451</ele>
        <time>2016-10-02T14:43:10+02:00</time>
      </trkpt>
      <trkpt lat="45.99337" lon="6.29784">
        <ele>1451</ele>
        <time>2016-10-02T14:43:12+02:00</time>
      </trkpt>
      <trkpt lat="45.99339" lon="6.29783">
        <ele>1451</ele>
        <time>2016-10-02T14:43:14+02:00</time>
      </trkpt>
      <trkpt lat="45.99341" lon="6.29782">
        <ele>1451</ele>
        <time>2016-10-02T14:43:15+02:00</time>
      </trkpt>
      <trkpt lat="45.99343" lon="6.29781">
        <ele>1451</ele>
        <time>2016-10-02T14:43:17+02:00</time>
      </trkpt>
      <trkpt lat="45.99345" lon="6.2978">
        <ele>1451</ele>
        <time>2016-10-02T14:43:19+02:00</time>
      </trkpt>
      <trkpt lat="45.99347" lon="6.29779">
        <ele>1451</ele>
        <time>2016-10-02T14:43:20+02:00</time>
      </trkpt>
      <trkpt lat="45.99349" lon="6.29778">
        <ele>1450</ele>
        <time>2016-10-02T14:43:22+02:00</time>
      </trkpt>
      <trkpt lat="45.99351" lon="6.29776">
        <ele>1450</ele>
        <time>2016-10-02T14:43:25+02:00</time>
      </trkpt>
      <trkpt lat="45.99354" lon="6.29775">
        <ele>1450</ele>
        <time>2016-10-02T14:43:27+02:00</time>
      </trkpt>
      <trkpt lat="45.99356" lon="6.29774">
        <ele>1450</ele>
        <time>2016-10-02T14:43:29+02:00</time>
      </trkpt>
      <trkpt lat="45.99358" lon="6.29772">
        <ele>1449</ele>
        <time>2016-10-02T14:43:31+02:00</time>
      </trkpt>
      <trkpt lat="45.9936" lon="6.29771">
        <ele>1449</ele>
        <time>2016-10-02T14:43:32+02:00</time>
      </trkpt>
      <trkpt lat="45.99362" lon="6.29771">
        <ele>1450</ele>
        <time>2016-10-02T14:43:34+02:00</time>
      </trkpt>
      <trkpt lat="45.99364" lon="6.29771">
        <ele>1450</ele>
        <time>2016-10-02T14:43:36+02:00</time>
      </trkpt>
      <trkpt lat="45.99367" lon="6.29771">
        <ele>1450</ele>
        <time>2016-10-02T14:43:38+02:00</time>
      </trkpt>
      <trkpt lat="45.99369" lon="6.2977">
        <ele>1450</ele>
        <time>2016-10-02T14:43:40+02:00</time>
      </trkpt>
      <trkpt lat="45.99371" lon="6.29768">
        <ele>1450</ele>
        <time>2016-10-02T14:43:42+02:00</time>
      </trkpt>
      <trkpt lat="45.99373" lon="6.29767">
        <ele>1450</ele>
        <time>2016-10-02T14:43:43+02:00</time>
      </trkpt>
      <trkpt lat="45.99374" lon="6.29766">
        <ele>1450</ele>
        <time>2016-10-02T14:43:45+02:00</time>
      </trkpt>
      <trkpt lat="45.99376" lon="6.29766">
        <ele>1450</ele>
        <time>2016-10-02T14:43:47+02:00</time>
      </trkpt>
      <trkpt lat="45.99378" lon="6.29766">
        <ele>1450</ele>
        <time>2016-10-02T14:43:48+02:00</time>
      </trkpt>
      <trkpt lat="45.9938" lon="6.29765">
        <ele>1450</ele>
        <time>2016-10-02T14:43:49+02:00</time>
      </trkpt>
      <trkpt lat="45.99381" lon="6.29764">
        <ele>1450</ele>
        <time>2016-10-02T14:43:51+02:00</time>
      </trkpt>
      <trkpt lat="45.99383" lon="6.29762">
        <ele>1449</ele>
        <time>2016-10-02T14:43:52+02:00</time>
      </trkpt>
      <trkpt lat="45.99384" lon="6.29759">
        <ele>1448</ele>
        <time>2016-10-02T14:43:54+02:00</time>
      </trkpt>
      <trkpt lat="45.99386" lon="6.29756">
        <ele>1447</ele>
        <time>2016-10-02T14:43:57+02:00</time>
      </trkpt>
      <trkpt lat="45.99388" lon="6.29753">
        <ele>1446</ele>
        <time>2016-10-02T14:43:59+02:00</time>
      </trkpt>
      <trkpt lat="45.9939" lon="6.29751">
        <ele>1445</ele>
        <time>2016-10-02T14:44:01+02:00</time>
      </trkpt>
      <trkpt lat="45.99392" lon="6.29749">
        <ele>1444</ele>
        <time>2016-10-02T14:44:03+02:00</time>
      </trkpt>
      <trkpt lat="45.99394" lon="6.29748">
        <ele>1444</ele>
        <time>2016-10-02T14:44:05+02:00</time>
      </trkpt>
      <trkpt lat="45.99396" lon="6.29747">
        <ele>1443</ele>
        <time>2016-10-02T14:44:07+02:00</time>
      </trkpt>
      <trkpt lat="45.99398" lon="6.29745">
        <ele>1443</ele>
        <time>2016-10-02T14:44:08+02:00</time>
      </trkpt>
      <trkpt lat="45.99399" lon="6.29744">
        <ele>1443</ele>
        <time>2016-10-02T14:44:10+02:00</time>
      </trkpt>
      <trkpt lat="45.99401" lon="6.29743">
        <ele>1443</ele>
        <time>2016-10-02T14:44:11+02:00</time>
      </trkpt>
      <trkpt lat="45.99403" lon="6.29742">
        <ele>1443</ele>
        <time>2016-10-02T14:44:13+02:00</time>
      </trkpt>
      <trkpt lat="45.99405" lon="6.29741">
        <ele>1442</ele>
        <time>2016-10-02T14:44:14+02:00</time>
      </trkpt>
      <trkpt lat="45.99406" lon="6.2974">
        <ele>1442</ele>
        <time>2016-10-02T14:44:16+02:00</time>
      </trkpt>
      <trkpt lat="45.99408" lon="6.29739">
        <ele>1442</ele>
        <time>2016-10-02T14:44:18+02:00</time>
      </trkpt>
      <trkpt lat="45.9941" lon="6.29738">
        <ele>1442</ele>
        <time>2016-10-02T14:44:20+02:00</time>
      </trkpt>
      <trkpt lat="45.99412" lon="6.29736">
        <ele>1441</ele>
        <time>2016-10-02T14:44:22+02:00</time>
      </trkpt>
      <trkpt lat="45.99414" lon="6.29734">
        <ele>1440</ele>
        <time>2016-10-02T14:44:24+02:00</time>
      </trkpt>
      <trkpt lat="45.99416" lon="6.29732">
        <ele>1439</ele>
        <time>2016-10-02T14:44:26+02:00</time>
      </trkpt>
      <trkpt lat="45.99418" lon="6.2973">
        <ele>1440</ele>
        <time>2016-10-02T14:44:28+02:00</time>
      </trkpt>
      <trkpt lat="45.9942" lon="6.29728">
        <ele>1440</ele>
        <time>2016-10-02T14:44:29+02:00</time>
      </trkpt>
      <trkpt lat="45.99421" lon="6.29725">
        <ele>1439</ele>
        <time>2016-10-02T14:44:31+02:00</time>
      </trkpt>
      <trkpt lat="45.99423" lon="6.29723">
        <ele>1439</ele>
        <time>2016-10-02T14:44:33+02:00</time>
      </trkpt>
      <trkpt lat="45.99425" lon="6.2972">
        <ele>1439</ele>
        <time>2016-10-02T14:44:35+02:00</time>
      </trkpt>
      <trkpt lat="45.99426" lon="6.29718">
        <ele>1439</ele>
        <time>2016-10-02T14:44:37+02:00</time>
      </trkpt>
      <trkpt lat="45.99428" lon="6.29716">
        <ele>1438</ele>
        <time>2016-10-02T14:44:39+02:00</time>
      </trkpt>
      <trkpt lat="45.99429" lon="6.29714">
        <ele>1438</ele>
        <time>2016-10-02T14:44:41+02:00</time>
      </trkpt>
      <trkpt lat="45.99431" lon="6.29711">
        <ele>1438</ele>
        <time>2016-10-02T14:44:43+02:00</time>
      </trkpt>
      <trkpt lat="45.99433" lon="6.29709">
        <ele>1437</ele>
        <time>2016-10-02T14:44:44+02:00</time>
      </trkpt>
      <trkpt lat="45.99434" lon="6.29707">
        <ele>1437</ele>
        <time>2016-10-02T14:44:46+02:00</time>
      </trkpt>
      <trkpt lat="45.99436" lon="6.29704">
        <ele>1437</ele>
        <time>2016-10-02T14:44:48+02:00</time>
      </trkpt>
      <trkpt lat="45.99437" lon="6.29702">
        <ele>1436</ele>
        <time>2016-10-02T14:44:50+02:00</time>
      </trkpt>
      <trkpt lat="45.99439" lon="6.29699">
        <ele>1435</ele>
        <time>2016-10-02T14:44:52+02:00</time>
      </trkpt>
      <trkpt lat="45.99441" lon="6.29696">
        <ele>1435</ele>
        <time>2016-10-02T14:44:55+02:00</time>
      </trkpt>
      <trkpt lat="45.99443" lon="6.29693">
        <ele>1434</ele>
        <time>2016-10-02T14:44:57+02:00</time>
      </trkpt>
      <trkpt lat="45.99444" lon="6.29691">
        <ele>1433</ele>
        <time>2016-10-02T14:44:59+02:00</time>
      </trkpt>
      <trkpt lat="45.99446" lon="6.29689">
        <ele>1433</ele>
        <time>2016-10-02T14:45:01+02:00</time>
      </trkpt>
      <trkpt lat="45.99448" lon="6.29687">
        <ele>1433</ele>
        <time>2016-10-02T14:45:03+02:00</time>
      </trkpt>
      <trkpt lat="45.9945" lon="6.29685">
        <ele>1433</ele>
        <time>2016-10-02T14:45:05+02:00</time>
      </trkpt>
      <trkpt lat="45.99452" lon="6.29683">
        <ele>1432</ele>
        <time>2016-10-02T14:45:06+02:00</time>
      </trkpt>
      <trkpt lat="45.99453" lon="6.29681">
        <ele>1432</ele>
        <time>2016-10-02T14:45:08+02:00</time>
      </trkpt>
      <trkpt lat="45.99455" lon="6.29678">
        <ele>1431</ele>
        <time>2016-10-02T14:45:10+02:00</time>
      </trkpt>
      <trkpt lat="45.99456" lon="6.29676">
        <ele>1430</ele>
        <time>2016-10-02T14:45:12+02:00</time>
      </trkpt>
      <trkpt lat="45.99457" lon="6.29673">
        <ele>1429</ele>
        <time>2016-10-02T14:45:14+02:00</time>
      </trkpt>
      <trkpt lat="45.99458" lon="6.2967">
        <ele>1427</ele>
        <time>2016-10-02T14:45:16+02:00</time>
      </trkpt>
      <trkpt lat="45.9946" lon="6.29667">
        <ele>1426</ele>
        <time>2016-10-02T14:45:18+02:00</time>
      </trkpt>
      <trkpt lat="45.99461" lon="6.29665">
        <ele>1425</ele>
        <time>2016-10-02T14:45:20+02:00</time>
      </trkpt>
      <trkpt lat="45.99463" lon="6.29662">
        <ele>1424</ele>
        <time>2016-10-02T14:45:22+02:00</time>
      </trkpt>
      <trkpt lat="45.99464" lon="6.29658">
        <ele>1423</ele>
        <time>2016-10-02T14:45:25+02:00</time>
      </trkpt>
      <trkpt lat="45.99465" lon="6.29656">
        <ele>1422</ele>
        <time>2016-10-02T14:45:27+02:00</time>
      </trkpt>
      <trkpt lat="45.99466" lon="6.29653">
        <ele>1421</ele>
        <time>2016-10-02T14:45:28+02:00</time>
      </trkpt>
      <trkpt lat="45.99467" lon="6.29651">
        <ele>1420</ele>
        <time>2016-10-02T14:45:30+02:00</time>
      </trkpt>
      <trkpt lat="45.99469" lon="6.29649">
        <ele>1420</ele>
        <time>2016-10-02T14:45:32+02:00</time>
      </trkpt>
      <trkpt lat="45.9947" lon="6.29648">
        <ele>1420</ele>
        <time>2016-10-02T14:45:33+02:00</time>
      </trkpt>
      <trkpt lat="45.99472" lon="6.29647">
        <ele>1420</ele>
        <time>2016-10-02T14:45:34+02:00</time>
      </trkpt>
      <trkpt lat="45.99473" lon="6.29647">
        <ele>1421</ele>
        <time>2016-10-02T14:45:35+02:00</time>
      </trkpt>
      <trkpt lat="45.99474" lon="6.29646">
        <ele>1420</ele>
        <time>2016-10-02T14:45:37+02:00</time>
      </trkpt>
      <trkpt lat="45.99475" lon="6.29644">
        <ele>1420</ele>
        <time>2016-10-02T14:45:38+02:00</time>
      </trkpt>
      <trkpt lat="45.99476" lon="6.29642">
        <ele>1419</ele>
        <time>2016-10-02T14:45:40+02:00</time>
      </trkpt>
      <trkpt lat="45.99478" lon="6.29639">
        <ele>1418</ele>
        <time>2016-10-02T14:45:41+02:00</time>
      </trkpt>
      <trkpt lat="45.99479" lon="6.29637">
        <ele>1418</ele>
        <time>2016-10-02T14:45:43+02:00</time>
      </trkpt>
      <trkpt lat="45.9948" lon="6.29635">
        <ele>1417</ele>
        <time>2016-10-02T14:45:45+02:00</time>
      </trkpt>
      <trkpt lat="45.99482" lon="6.29633">
        <ele>1417</ele>
        <time>2016-10-02T14:45:47+02:00</time>
      </trkpt>
      <trkpt lat="45.99484" lon="6.29631">
        <ele>1416</ele>
        <time>2016-10-02T14:45:48+02:00</time>
      </trkpt>
      <trkpt lat="45.99485" lon="6.2963">
        <ele>1416</ele>
        <time>2016-10-02T14:45:50+02:00</time>
      </trkpt>
      <trkpt lat="45.99486" lon="6.29628">
        <ele>1415</ele>
        <time>2016-10-02T14:45:51+02:00</time>
      </trkpt>
      <trkpt lat="45.99487" lon="6.29626">
        <ele>1415</ele>
        <time>2016-10-02T14:45:52+02:00</time>
      </trkpt>
      <trkpt lat="45.99488" lon="6.29624">
        <ele>1414</ele>
        <time>2016-10-02T14:45:54+02:00</time>
      </trkpt>
      <trkpt lat="45.9949" lon="6.29622">
        <ele>1413</ele>
        <time>2016-10-02T14:45:56+02:00</time>
      </trkpt>
      <trkpt lat="45.99492" lon="6.2962">
        <ele>1413</ele>
        <time>2016-10-02T14:45:57+02:00</time>
      </trkpt>
      <trkpt lat="45.99493" lon="6.29619">
        <ele>1413</ele>
        <time>2016-10-02T14:45:59+02:00</time>
      </trkpt>
      <trkpt lat="45.99495" lon="6.29617">
        <ele>1413</ele>
        <time>2016-10-02T14:46:01+02:00</time>
      </trkpt>
      <trkpt lat="45.99497" lon="6.29615">
        <ele>1413</ele>
        <time>2016-10-02T14:46:02+02:00</time>
      </trkpt>
      <trkpt lat="45.99499" lon="6.29614">
        <ele>1413</ele>
        <time>2016-10-02T14:46:04+02:00</time>
      </trkpt>
      <trkpt lat="45.99501" lon="6.29613">
        <ele>1413</ele>
        <time>2016-10-02T14:46:06+02:00</time>
      </trkpt>
      <trkpt lat="45.99503" lon="6.29613">
        <ele>1413</ele>
        <time>2016-10-02T14:46:07+02:00</time>
      </trkpt>
      <trkpt lat="45.99505" lon="6.29612">
        <ele>1413</ele>
        <time>2016-10-02T14:46:09+02:00</time>
      </trkpt>
      <trkpt lat="45.99506" lon="6.2961">
        <ele>1413</ele>
        <time>2016-10-02T14:46:10+02:00</time>
      </trkpt>
      <trkpt lat="45.99506" lon="6.29609">
        <ele>1412</ele>
        <time>2016-10-02T14:46:11+02:00</time>
      </trkpt>
      <trkpt lat="45.99507" lon="6.29608">
        <ele>1412</ele>
        <time>2016-10-02T14:46:12+02:00</time>
      </trkpt>
      <trkpt lat="45.99508" lon="6.29607">
        <ele>1411</ele>
        <time>2016-10-02T14:46:13+02:00</time>
      </trkpt>
      <trkpt lat="45.99509" lon="6.29606">
        <ele>1411</ele>
        <time>2016-10-02T14:46:15+02:00</time>
      </trkpt>
      <trkpt lat="45.99511" lon="6.29604">
        <ele>1410</ele>
        <time>2016-10-02T14:46:16+02:00</time>
      </trkpt>
      <trkpt lat="45.99512" lon="6.29604">
        <ele>1411</ele>
        <time>2016-10-02T14:46:17+02:00</time>
      </trkpt>
      <trkpt lat="45.99514" lon="6.29604">
        <ele>1411</ele>
        <time>2016-10-02T14:46:19+02:00</time>
      </trkpt>
      <trkpt lat="45.99516" lon="6.29604">
        <ele>1412</ele>
        <time>2016-10-02T14:46:21+02:00</time>
      </trkpt>
      <trkpt lat="45.99518" lon="6.29604">
        <ele>1413</ele>
        <time>2016-10-02T14:46:22+02:00</time>
      </trkpt>
      <trkpt lat="45.9952" lon="6.29604">
        <ele>1413</ele>
        <time>2016-10-02T14:46:24+02:00</time>
      </trkpt>
      <trkpt lat="45.99522" lon="6.29604">
        <ele>1414</ele>
        <time>2016-10-02T14:46:25+02:00</time>
      </trkpt>
      <trkpt lat="45.99524" lon="6.29603">
        <ele>1414</ele>
        <time>2016-10-02T14:46:27+02:00</time>
      </trkpt>
      <trkpt lat="45.99526" lon="6.29603">
        <ele>1415</ele>
        <time>2016-10-02T14:46:29+02:00</time>
      </trkpt>
      <trkpt lat="45.99528" lon="6.29603">
        <ele>1415</ele>
        <time>2016-10-02T14:46:31+02:00</time>
      </trkpt>
      <trkpt lat="45.9953" lon="6.29602">
        <ele>1416</ele>
        <time>2016-10-02T14:46:33+02:00</time>
      </trkpt>
      <trkpt lat="45.99532" lon="6.29602">
        <ele>1416</ele>
        <time>2016-10-02T14:46:34+02:00</time>
      </trkpt>
      <trkpt lat="45.99534" lon="6.29602">
        <ele>1417</ele>
        <time>2016-10-02T14:46:36+02:00</time>
      </trkpt>
      <trkpt lat="45.99536" lon="6.29602">
        <ele>1418</ele>
        <time>2016-10-02T14:46:38+02:00</time>
      </trkpt>
      <trkpt lat="45.99538" lon="6.29603">
        <ele>1419</ele>
        <time>2016-10-02T14:46:39+02:00</time>
      </trkpt>
      <trkpt lat="45.9954" lon="6.29603">
        <ele>1420</ele>
        <time>2016-10-02T14:46:41+02:00</time>
      </trkpt>
      <trkpt lat="45.99541" lon="6.29604">
        <ele>1421</ele>
        <time>2016-10-02T14:46:42+02:00</time>
      </trkpt>
      <trkpt lat="45.99543" lon="6.29603">
        <ele>1421</ele>
        <time>2016-10-02T14:46:43+02:00</time>
      </trkpt>
      <trkpt lat="45.99544" lon="6.29602">
        <ele>1420</ele>
        <time>2016-10-02T14:46:45+02:00</time>
      </trkpt>
      <trkpt lat="45.99546" lon="6.29601">
        <ele>1420</ele>
        <time>2016-10-02T14:46:46+02:00</time>
      </trkpt>
      <trkpt lat="45.99547" lon="6.296">
        <ele>1420</ele>
        <time>2016-10-02T14:46:47+02:00</time>
      </trkpt>
      <trkpt lat="45.99549" lon="6.296">
        <ele>1421</ele>
        <time>2016-10-02T14:46:49+02:00</time>
      </trkpt>
      <trkpt lat="45.99551" lon="6.296">
        <ele>1421</ele>
        <time>2016-10-02T14:46:50+02:00</time>
      </trkpt>
      <trkpt lat="45.99553" lon="6.296">
        <ele>1422</ele>
        <time>2016-10-02T14:46:52+02:00</time>
      </trkpt>
      <trkpt lat="45.99554" lon="6.296">
        <ele>1423</ele>
        <time>2016-10-02T14:46:53+02:00</time>
      </trkpt>
      <trkpt lat="45.99555" lon="6.296">
        <ele>1423</ele>
        <time>2016-10-02T14:46:54+02:00</time>
      </trkpt>
      <trkpt lat="45.99556" lon="6.29599">
        <ele>1423</ele>
        <time>2016-10-02T14:46:55+02:00</time>
      </trkpt>
      <trkpt lat="45.99557" lon="6.29598">
        <ele>1422</ele>
        <time>2016-10-02T14:46:56+02:00</time>
      </trkpt>
      <trkpt lat="45.99558" lon="6.29597">
        <ele>1421</ele>
        <time>2016-10-02T14:46:57+02:00</time>
      </trkpt>
      <trkpt lat="45.99559" lon="6.29594">
        <ele>1420</ele>
        <time>2016-10-02T14:46:59+02:00</time>
      </trkpt>
      <trkpt lat="45.9956" lon="6.29591">
        <ele>1419</ele>
        <time>2016-10-02T14:47:02+02:00</time>
      </trkpt>
      <trkpt lat="45.99562" lon="6.29588">
        <ele>1417</ele>
        <time>2016-10-02T14:47:04+02:00</time>
      </trkpt>
      <trkpt lat="45.99563" lon="6.29585">
        <ele>1416</ele>
        <time>2016-10-02T14:47:06+02:00</time>
      </trkpt>
      <trkpt lat="45.99565" lon="6.29582">
        <ele>1414</ele>
        <time>2016-10-02T14:47:08+02:00</time>
      </trkpt>
      <trkpt lat="45.99566" lon="6.29579">
        <ele>1414</ele>
        <time>2016-10-02T14:47:10+02:00</time>
      </trkpt>
      <trkpt lat="45.99567" lon="6.29576">
        <ele>1413</ele>
        <time>2016-10-02T14:47:12+02:00</time>
      </trkpt>
      <trkpt lat="45.99568" lon="6.29573">
        <ele>1412</ele>
        <time>2016-10-02T14:47:15+02:00</time>
      </trkpt>
      <trkpt lat="45.99569" lon="6.29569">
        <ele>1411</ele>
        <time>2016-10-02T14:47:17+02:00</time>
      </trkpt>
      <trkpt lat="45.9957" lon="6.29566">
        <ele>1410</ele>
        <time>2016-10-02T14:47:19+02:00</time>
      </trkpt>
      <trkpt lat="45.99571" lon="6.29563">
        <ele>1409</ele>
        <time>2016-10-02T14:47:21+02:00</time>
      </trkpt>
      <trkpt lat="45.99571" lon="6.29559">
        <ele>1408</ele>
        <time>2016-10-02T14:47:24+02:00</time>
      </trkpt>
      <trkpt lat="45.99572" lon="6.29556">
        <ele>1407</ele>
        <time>2016-10-02T14:47:26+02:00</time>
      </trkpt>
      <trkpt lat="45.99573" lon="6.29552">
        <ele>1406</ele>
        <time>2016-10-02T14:47:29+02:00</time>
      </trkpt>
      <trkpt lat="45.99574" lon="6.2955">
        <ele>1405</ele>
        <time>2016-10-02T14:47:30+02:00</time>
      </trkpt>
      <trkpt lat="45.99575" lon="6.29546">
        <ele>1404</ele>
        <time>2016-10-02T14:47:33+02:00</time>
      </trkpt>
      <trkpt lat="45.99576" lon="6.29542">
        <ele>1403</ele>
        <time>2016-10-02T14:47:35+02:00</time>
      </trkpt>
      <trkpt lat="45.99577" lon="6.29537">
        <ele>1402</ele>
        <time>2016-10-02T14:47:38+02:00</time>
      </trkpt>
      <trkpt lat="45.99578" lon="6.29533">
        <ele>1401</ele>
        <time>2016-10-02T14:47:41+02:00</time>
      </trkpt>
      <trkpt lat="45.99579" lon="6.2953">
        <ele>1400</ele>
        <time>2016-10-02T14:47:44+02:00</time>
      </trkpt>
      <trkpt lat="45.9958" lon="6.29527">
        <ele>1399</ele>
        <time>2016-10-02T14:47:46+02:00</time>
      </trkpt>
      <trkpt lat="45.99581" lon="6.29524">
        <ele>1399</ele>
        <time>2016-10-02T14:47:47+02:00</time>
      </trkpt>
      <trkpt lat="45.99583" lon="6.29521">
        <ele>1398</ele>
        <time>2016-10-02T14:47:50+02:00</time>
      </trkpt>
      <trkpt lat="45.99585" lon="6.29517">
        <ele>1398</ele>
        <time>2016-10-02T14:47:53+02:00</time>
      </trkpt>
      <trkpt lat="45.99588" lon="6.29514">
        <ele>1399</ele>
        <time>2016-10-02T14:47:55+02:00</time>
      </trkpt>
      <trkpt lat="45.9959" lon="6.29512">
        <ele>1399</ele>
        <time>2016-10-02T14:47:57+02:00</time>
      </trkpt>
      <trkpt lat="45.99592" lon="6.29511">
        <ele>1399</ele>
        <time>2016-10-02T14:47:59+02:00</time>
      </trkpt>
      <trkpt lat="45.99593" lon="6.2951">
        <ele>1400</ele>
        <time>2016-10-02T14:48:01+02:00</time>
      </trkpt>
      <trkpt lat="45.99595" lon="6.29509">
        <ele>1401</ele>
        <time>2016-10-02T14:48:02+02:00</time>
      </trkpt>
      <trkpt lat="45.99597" lon="6.29509">
        <ele>1402</ele>
        <time>2016-10-02T14:48:04+02:00</time>
      </trkpt>
      <trkpt lat="45.99599" lon="6.29508">
        <ele>1403</ele>
        <time>2016-10-02T14:48:06+02:00</time>
      </trkpt>
      <trkpt lat="45.99601" lon="6.29506">
        <ele>1403</ele>
        <time>2016-10-02T14:48:08+02:00</time>
      </trkpt>
      <trkpt lat="45.99603" lon="6.29504">
        <ele>1403</ele>
        <time>2016-10-02T14:48:09+02:00</time>
      </trkpt>
      <trkpt lat="45.99605" lon="6.29503">
        <ele>1404</ele>
        <time>2016-10-02T14:48:11+02:00</time>
      </trkpt>
      <trkpt lat="45.99606" lon="6.29502">
        <ele>1405</ele>
        <time>2016-10-02T14:48:13+02:00</time>
      </trkpt>
      <trkpt lat="45.99608" lon="6.29502">
        <ele>1405</ele>
        <time>2016-10-02T14:48:14+02:00</time>
      </trkpt>
      <trkpt lat="45.99609" lon="6.29502">
        <ele>1406</ele>
        <time>2016-10-02T14:48:15+02:00</time>
      </trkpt>
      <trkpt lat="45.99611" lon="6.29502">
        <ele>1407</ele>
        <time>2016-10-02T14:48:17+02:00</time>
      </trkpt>
      <trkpt lat="45.99612" lon="6.29501">
        <ele>1408</ele>
        <time>2016-10-02T14:48:18+02:00</time>
      </trkpt>
      <trkpt lat="45.99613" lon="6.295">
        <ele>1408</ele>
        <time>2016-10-02T14:48:19+02:00</time>
      </trkpt>
      <trkpt lat="45.99614" lon="6.29498">
        <ele>1408</ele>
        <time>2016-10-02T14:48:20+02:00</time>
      </trkpt>
      <trkpt lat="45.99613" lon="6.29497">
        <ele>1407</ele>
        <time>2016-10-02T14:48:22+02:00</time>
      </trkpt>
      <trkpt lat="45.99613" lon="6.29495">
        <ele>1407</ele>
        <time>2016-10-02T14:48:23+02:00</time>
      </trkpt>
      <trkpt lat="45.99613" lon="6.29494">
        <ele>1406</ele>
        <time>2016-10-02T14:48:23+02:00</time>
      </trkpt>
      <trkpt lat="45.99613" lon="6.29493">
        <ele>1406</ele>
        <time>2016-10-02T14:48:25+02:00</time>
      </trkpt>
      <trkpt lat="45.99614" lon="6.29491">
        <ele>1406</ele>
        <time>2016-10-02T14:48:26+02:00</time>
      </trkpt>
      <trkpt lat="45.99615" lon="6.29489">
        <ele>1407</ele>
        <time>2016-10-02T14:48:27+02:00</time>
      </trkpt>
      <trkpt lat="45.99616" lon="6.29487">
        <ele>1407</ele>
        <time>2016-10-02T14:48:28+02:00</time>
      </trkpt>
      <trkpt lat="45.99616" lon="6.29485">
        <ele>1407</ele>
        <time>2016-10-02T14:48:30+02:00</time>
      </trkpt>
      <trkpt lat="45.99616" lon="6.29483">
        <ele>1406</ele>
        <time>2016-10-02T14:48:31+02:00</time>
      </trkpt>
      <trkpt lat="45.99617" lon="6.2948">
        <ele>1406</ele>
        <time>2016-10-02T14:48:33+02:00</time>
      </trkpt>
      <trkpt lat="45.99617" lon="6.29477">
        <ele>1406</ele>
        <time>2016-10-02T14:48:35+02:00</time>
      </trkpt>
      <trkpt lat="45.99618" lon="6.29474">
        <ele>1405</ele>
        <time>2016-10-02T14:48:37+02:00</time>
      </trkpt>
      <trkpt lat="45.99618" lon="6.29472">
        <ele>1405</ele>
        <time>2016-10-02T14:48:38+02:00</time>
      </trkpt>
      <trkpt lat="45.99618" lon="6.2947">
        <ele>1405</ele>
        <time>2016-10-02T14:48:40+02:00</time>
      </trkpt>
      <trkpt lat="45.99617" lon="6.29468">
        <ele>1404</ele>
        <time>2016-10-02T14:48:41+02:00</time>
      </trkpt>
      <trkpt lat="45.99617" lon="6.29465">
        <ele>1403</ele>
        <time>2016-10-02T14:48:42+02:00</time>
      </trkpt>
      <trkpt lat="45.99617" lon="6.29463">
        <ele>1403</ele>
        <time>2016-10-02T14:48:44+02:00</time>
      </trkpt>
      <trkpt lat="45.99618" lon="6.29461">
        <ele>1403</ele>
        <time>2016-10-02T14:48:45+02:00</time>
      </trkpt>
      <trkpt lat="45.99618" lon="6.29459">
        <ele>1403</ele>
        <time>2016-10-02T14:48:46+02:00</time>
      </trkpt>
      <trkpt lat="45.99617" lon="6.29456">
        <ele>1402</ele>
        <time>2016-10-02T14:48:48+02:00</time>
      </trkpt>
      <trkpt lat="45.99617" lon="6.29453">
        <ele>1401</ele>
        <time>2016-10-02T14:48:50+02:00</time>
      </trkpt>
      <trkpt lat="45.99618" lon="6.29448">
        <ele>1401</ele>
        <time>2016-10-02T14:48:53+02:00</time>
      </trkpt>
      <trkpt lat="45.99619" lon="6.29444">
        <ele>1401</ele>
        <time>2016-10-02T14:48:55+02:00</time>
      </trkpt>
      <trkpt lat="45.99619" lon="6.2944">
        <ele>1400</ele>
        <time>2016-10-02T14:48:57+02:00</time>
      </trkpt>
      <trkpt lat="45.99619" lon="6.29437">
        <ele>1400</ele>
        <time>2016-10-02T14:48:59+02:00</time>
      </trkpt>
      <trkpt lat="45.99619" lon="6.29434">
        <ele>1399</ele>
        <time>2016-10-02T14:49:01+02:00</time>
      </trkpt>
      <trkpt lat="45.99619" lon="6.29431">
        <ele>1398</ele>
        <time>2016-10-02T14:49:03+02:00</time>
      </trkpt>
      <trkpt lat="45.99618" lon="6.29427">
        <ele>1397</ele>
        <time>2016-10-02T14:49:05+02:00</time>
      </trkpt>
      <trkpt lat="45.99618" lon="6.29423">
        <ele>1396</ele>
        <time>2016-10-02T14:49:07+02:00</time>
      </trkpt>
      <trkpt lat="45.99618" lon="6.29419">
        <ele>1395</ele>
        <time>2016-10-02T14:49:10+02:00</time>
      </trkpt>
      <trkpt lat="45.99617" lon="6.29415">
        <ele>1394</ele>
        <time>2016-10-02T14:49:13+02:00</time>
      </trkpt>
      <trkpt lat="45.99616" lon="6.29411">
        <ele>1394</ele>
        <time>2016-10-02T14:49:15+02:00</time>
      </trkpt>
      <trkpt lat="45.99615" lon="6.29407">
        <ele>1392</ele>
        <time>2016-10-02T14:49:18+02:00</time>
      </trkpt>
      <trkpt lat="45.99615" lon="6.29404">
        <ele>1392</ele>
        <time>2016-10-02T14:49:20+02:00</time>
      </trkpt>
      <trkpt lat="45.99615" lon="6.294">
        <ele>1392</ele>
        <time>2016-10-02T14:49:22+02:00</time>
      </trkpt>
      <trkpt lat="45.99616" lon="6.29396">
        <ele>1393</ele>
        <time>2016-10-02T14:49:24+02:00</time>
      </trkpt>
      <trkpt lat="45.99617" lon="6.29392">
        <ele>1394</ele>
        <time>2016-10-02T14:49:27+02:00</time>
      </trkpt>
      <trkpt lat="45.99618" lon="6.29388">
        <ele>1395</ele>
        <time>2016-10-02T14:49:29+02:00</time>
      </trkpt>
      <trkpt lat="45.99618" lon="6.29384">
        <ele>1395</ele>
        <time>2016-10-02T14:49:31+02:00</time>
      </trkpt>
      <trkpt lat="45.99618" lon="6.29381">
        <ele>1394</ele>
        <time>2016-10-02T14:49:33+02:00</time>
      </trkpt>
      <trkpt lat="45.99617" lon="6.29378">
        <ele>1394</ele>
        <time>2016-10-02T14:49:35+02:00</time>
      </trkpt>
      <trkpt lat="45.99618" lon="6.29376">
        <ele>1394</ele>
        <time>2016-10-02T14:49:36+02:00</time>
      </trkpt>
      <trkpt lat="45.99618" lon="6.29375">
        <ele>1395</ele>
        <time>2016-10-02T14:49:37+02:00</time>
      </trkpt>
      <trkpt lat="45.9962" lon="6.29373">
        <ele>1396</ele>
        <time>2016-10-02T14:49:39+02:00</time>
      </trkpt>
      <trkpt lat="45.9962" lon="6.29372">
        <ele>1397</ele>
        <time>2016-10-02T14:49:40+02:00</time>
      </trkpt>
      <trkpt lat="45.99621" lon="6.29369">
        <ele>1398</ele>
        <time>2016-10-02T14:49:41+02:00</time>
      </trkpt>
      <trkpt lat="45.99622" lon="6.29366">
        <ele>1399</ele>
        <time>2016-10-02T14:49:43+02:00</time>
      </trkpt>
      <trkpt lat="45.99623" lon="6.29363">
        <ele>1400</ele>
        <time>2016-10-02T14:49:45+02:00</time>
      </trkpt>
      <trkpt lat="45.99624" lon="6.2936">
        <ele>1401</ele>
        <time>2016-10-02T14:49:47+02:00</time>
      </trkpt>
      <trkpt lat="45.99625" lon="6.29357">
        <ele>1402</ele>
        <time>2016-10-02T14:49:49+02:00</time>
      </trkpt>
      <trkpt lat="45.99626" lon="6.29353">
        <ele>1404</ele>
        <time>2016-10-02T14:49:52+02:00</time>
      </trkpt>
      <trkpt lat="45.99628" lon="6.29349">
        <ele>1407</ele>
        <time>2016-10-02T14:49:55+02:00</time>
      </trkpt>
      <trkpt lat="45.99631" lon="6.29345">
        <ele>1410</ele>
        <time>2016-10-02T14:49:58+02:00</time>
      </trkpt>
      <trkpt lat="45.99633" lon="6.29341">
        <ele>1413</ele>
        <time>2016-10-02T14:50:01+02:00</time>
      </trkpt>
      <trkpt lat="45.99636" lon="6.29338">
        <ele>1417</ele>
        <time>2016-10-02T14:50:04+02:00</time>
      </trkpt>
      <trkpt lat="45.99639" lon="6.29335">
        <ele>1421</ele>
        <time>2016-10-02T14:50:07+02:00</time>
      </trkpt>
      <trkpt lat="45.99642" lon="6.29332">
        <ele>1424</ele>
        <time>2016-10-02T14:50:10+02:00</time>
      </trkpt>
      <trkpt lat="45.99644" lon="6.29329">
        <ele>1427</ele>
        <time>2016-10-02T14:50:13+02:00</time>
      </trkpt>
      <trkpt lat="45.99646" lon="6.29326">
        <ele>1430</ele>
        <time>2016-10-02T14:50:15+02:00</time>
      </trkpt>
      <trkpt lat="45.99648" lon="6.29323">
        <ele>1433</ele>
        <time>2016-10-02T14:50:18+02:00</time>
      </trkpt>
      <trkpt lat="45.9965" lon="6.29319">
        <ele>1436</ele>
        <time>2016-10-02T14:50:20+02:00</time>
      </trkpt>
      <trkpt lat="45.99652" lon="6.29316">
        <ele>1438</ele>
        <time>2016-10-02T14:50:23+02:00</time>
      </trkpt>
      <trkpt lat="45.99653" lon="6.29315">
        <ele>1439</ele>
        <time>2016-10-02T14:50:24+02:00</time>
      </trkpt>
      <trkpt lat="45.99654" lon="6.29314">
        <ele>1440</ele>
        <time>2016-10-02T14:50:25+02:00</time>
      </trkpt>
      <trkpt lat="45.99656" lon="6.29314">
        <ele>1443</ele>
        <time>2016-10-02T14:50:27+02:00</time>
      </trkpt>
      <trkpt lat="45.99657" lon="6.29312">
        <ele>1445</ele>
        <time>2016-10-02T14:50:28+02:00</time>
      </trkpt>
      <trkpt lat="45.99659" lon="6.29309">
        <ele>1447</ele>
        <time>2016-10-02T14:50:30+02:00</time>
      </trkpt>
      <trkpt lat="45.9966" lon="6.29306">
        <ele>1450</ele>
        <time>2016-10-02T14:50:32+02:00</time>
      </trkpt>
      <trkpt lat="45.99662" lon="6.29303">
        <ele>1452</ele>
        <time>2016-10-02T14:50:34+02:00</time>
      </trkpt>
      <trkpt lat="45.99663" lon="6.293">
        <ele>1454</ele>
        <time>2016-10-02T14:50:37+02:00</time>
      </trkpt>
      <trkpt lat="45.99664" lon="6.29296">
        <ele>1456</ele>
        <time>2016-10-02T14:50:39+02:00</time>
      </trkpt>
      <trkpt lat="45.99666" lon="6.29292">
        <ele>1459</ele>
        <time>2016-10-02T14:50:42+02:00</time>
      </trkpt>
      <trkpt lat="45.99668" lon="6.29288">
        <ele>1461</ele>
        <time>2016-10-02T14:50:44+02:00</time>
      </trkpt>
      <trkpt lat="45.99668" lon="6.29283">
        <ele>1463</ele>
        <time>2016-10-02T14:50:47+02:00</time>
      </trkpt>
      <trkpt lat="45.99669" lon="6.2928">
        <ele>1463</ele>
        <time>2016-10-02T14:50:49+02:00</time>
      </trkpt>
      <trkpt lat="45.99669" lon="6.29277">
        <ele>1464</ele>
        <time>2016-10-02T14:50:51+02:00</time>
      </trkpt>
      <trkpt lat="45.99668" lon="6.29273">
        <ele>1464</ele>
        <time>2016-10-02T14:50:53+02:00</time>
      </trkpt>
      <trkpt lat="45.99668" lon="6.29268">
        <ele>1463</ele>
        <time>2016-10-02T14:50:56+02:00</time>
      </trkpt>
      <trkpt lat="45.99667" lon="6.29264">
        <ele>1463</ele>
        <time>2016-10-02T14:50:58+02:00</time>
      </trkpt>
      <trkpt lat="45.99667" lon="6.29261">
        <ele>1464</ele>
        <time>2016-10-02T14:51:00+02:00</time>
      </trkpt>
      <trkpt lat="45.99668" lon="6.29257">
        <ele>1465</ele>
        <time>2016-10-02T14:51:02+02:00</time>
      </trkpt>
      <trkpt lat="45.99668" lon="6.29253">
        <ele>1465</ele>
        <time>2016-10-02T14:51:04+02:00</time>
      </trkpt>
      <trkpt lat="45.99668" lon="6.29249">
        <ele>1466</ele>
        <time>2016-10-02T14:51:07+02:00</time>
      </trkpt>
      <trkpt lat="45.99668" lon="6.29245">
        <ele>1466</ele>
        <time>2016-10-02T14:51:09+02:00</time>
      </trkpt>
      <trkpt lat="45.99668" lon="6.29242">
        <ele>1466</ele>
        <time>2016-10-02T14:51:11+02:00</time>
      </trkpt>
      <trkpt lat="45.99666" lon="6.29237">
        <ele>1464</ele>
        <time>2016-10-02T14:51:14+02:00</time>
      </trkpt>
      <trkpt lat="45.99664" lon="6.29231">
        <ele>1461</ele>
        <time>2016-10-02T14:51:18+02:00</time>
      </trkpt>
      <trkpt lat="45.9966" lon="6.29223">
        <ele>1456</ele>
        <time>2016-10-02T14:51:25+02:00</time>
      </trkpt>
      <trkpt lat="45.99656" lon="6.29216">
        <ele>1452</ele>
        <time>2016-10-02T14:51:30+02:00</time>
      </trkpt>
      <trkpt lat="45.99653" lon="6.2921">
        <ele>1446</ele>
        <time>2016-10-02T14:51:36+02:00</time>
      </trkpt>
      <trkpt lat="45.9965" lon="6.29205">
        <ele>1443</ele>
        <time>2016-10-02T14:51:39+02:00</time>
      </trkpt>
      <trkpt lat="45.99648" lon="6.292">
        <ele>1441</ele>
        <time>2016-10-02T14:51:43+02:00</time>
      </trkpt>
      <trkpt lat="45.99647" lon="6.29197">
        <ele>1439</ele>
        <time>2016-10-02T14:51:45+02:00</time>
      </trkpt>
      <trkpt lat="45.99646" lon="6.29193">
        <ele>1437</ele>
        <time>2016-10-02T14:51:47+02:00</time>
      </trkpt>
      <trkpt lat="45.99644" lon="6.2919">
        <ele>1435</ele>
        <time>2016-10-02T14:51:49+02:00</time>
      </trkpt>
      <trkpt lat="45.99643" lon="6.29187">
        <ele>1433</ele>
        <time>2016-10-02T14:51:52+02:00</time>
      </trkpt>
      <trkpt lat="45.99642" lon="6.29184">
        <ele>1432</ele>
        <time>2016-10-02T14:51:54+02:00</time>
      </trkpt>
      <trkpt lat="45.99641" lon="6.29181">
        <ele>1431</ele>
        <time>2016-10-02T14:51:56+02:00</time>
      </trkpt>
      <trkpt lat="45.99641" lon="6.29178">
        <ele>1431</ele>
        <time>2016-10-02T14:51:57+02:00</time>
      </trkpt>
      <trkpt lat="45.9964" lon="6.29175">
        <ele>1430</ele>
        <time>2016-10-02T14:51:59+02:00</time>
      </trkpt>
      <trkpt lat="45.99639" lon="6.29172">
        <ele>1429</ele>
        <time>2016-10-02T14:52:01+02:00</time>
      </trkpt>
      <trkpt lat="45.99638" lon="6.29169">
        <ele>1428</ele>
        <time>2016-10-02T14:52:03+02:00</time>
      </trkpt>
      <trkpt lat="45.99637" lon="6.29165">
        <ele>1426</ele>
        <time>2016-10-02T14:52:05+02:00</time>
      </trkpt>
      <trkpt lat="45.99636" lon="6.29162">
        <ele>1424</ele>
        <time>2016-10-02T14:52:07+02:00</time>
      </trkpt>
      <trkpt lat="45.99635" lon="6.29158">
        <ele>1423</ele>
        <time>2016-10-02T14:52:09+02:00</time>
      </trkpt>
      <trkpt lat="45.99635" lon="6.29155">
        <ele>1423</ele>
        <time>2016-10-02T14:52:11+02:00</time>
      </trkpt>
      <trkpt lat="45.99636" lon="6.29151">
        <ele>1424</ele>
        <time>2016-10-02T14:52:14+02:00</time>
      </trkpt>
      <trkpt lat="45.99637" lon="6.29147">
        <ele>1425</ele>
        <time>2016-10-02T14:52:17+02:00</time>
      </trkpt>
      <trkpt lat="45.99637" lon="6.29143">
        <ele>1426</ele>
        <time>2016-10-02T14:52:19+02:00</time>
      </trkpt>
      <trkpt lat="45.99638" lon="6.29138">
        <ele>1426</ele>
        <time>2016-10-02T14:52:22+02:00</time>
      </trkpt>
      <trkpt lat="45.99638" lon="6.29135">
        <ele>1426</ele>
        <time>2016-10-02T14:52:24+02:00</time>
      </trkpt>
      <trkpt lat="45.99638" lon="6.29131">
        <ele>1426</ele>
        <time>2016-10-02T14:52:26+02:00</time>
      </trkpt>
      <trkpt lat="45.99637" lon="6.29128">
        <ele>1425</ele>
        <time>2016-10-02T14:52:28+02:00</time>
      </trkpt>
      <trkpt lat="45.99637" lon="6.29124">
        <ele>1425</ele>
        <time>2016-10-02T14:52:30+02:00</time>
      </trkpt>
      <trkpt lat="45.99636" lon="6.29121">
        <ele>1423</ele>
        <time>2016-10-02T14:52:32+02:00</time>
      </trkpt>
      <trkpt lat="45.99635" lon="6.29117">
        <ele>1421</ele>
        <time>2016-10-02T14:52:35+02:00</time>
      </trkpt>
      <trkpt lat="45.99633" lon="6.29114">
        <ele>1419</ele>
        <time>2016-10-02T14:52:37+02:00</time>
      </trkpt>
      <trkpt lat="45.99632" lon="6.29111">
        <ele>1417</ele>
        <time>2016-10-02T14:52:39+02:00</time>
      </trkpt>
      <trkpt lat="45.99631" lon="6.29107">
        <ele>1415</ele>
        <time>2016-10-02T14:52:41+02:00</time>
      </trkpt>
      <trkpt lat="45.99629" lon="6.29104">
        <ele>1413</ele>
        <time>2016-10-02T14:52:43+02:00</time>
      </trkpt>
      <trkpt lat="45.99628" lon="6.29101">
        <ele>1411</ele>
        <time>2016-10-02T14:52:45+02:00</time>
      </trkpt>
      <trkpt lat="45.99627" lon="6.29098">
        <ele>1410</ele>
        <time>2016-10-02T14:52:47+02:00</time>
      </trkpt>
      <trkpt lat="45.99627" lon="6.29095">
        <ele>1409</ele>
        <time>2016-10-02T14:52:49+02:00</time>
      </trkpt>
      <trkpt lat="45.99626" lon="6.29093">
        <ele>1408</ele>
        <time>2016-10-02T14:52:51+02:00</time>
      </trkpt>
      <trkpt lat="45.99625" lon="6.2909">
        <ele>1407</ele>
        <time>2016-10-02T14:52:52+02:00</time>
      </trkpt>
      <trkpt lat="45.99624" lon="6.29088">
        <ele>1405</ele>
        <time>2016-10-02T14:52:54+02:00</time>
      </trkpt>
      <trkpt lat="45.99623" lon="6.29086">
        <ele>1404</ele>
        <time>2016-10-02T14:52:56+02:00</time>
      </trkpt>
      <trkpt lat="45.99622" lon="6.29083">
        <ele>1402</ele>
        <time>2016-10-02T14:52:57+02:00</time>
      </trkpt>
      <trkpt lat="45.99621" lon="6.2908">
        <ele>1400</ele>
        <time>2016-10-02T14:53:00+02:00</time>
      </trkpt>
      <trkpt lat="45.99619" lon="6.29078">
        <ele>1398</ele>
        <time>2016-10-02T14:53:01+02:00</time>
      </trkpt>
      <trkpt lat="45.99618" lon="6.29076">
        <ele>1397</ele>
        <time>2016-10-02T14:53:03+02:00</time>
      </trkpt>
      <trkpt lat="45.99617" lon="6.29074">
        <ele>1395</ele>
        <time>2016-10-02T14:53:05+02:00</time>
      </trkpt>
      <trkpt lat="45.99616" lon="6.29072">
        <ele>1393</ele>
        <time>2016-10-02T14:53:07+02:00</time>
      </trkpt>
      <trkpt lat="45.99614" lon="6.29067">
        <ele>1391</ele>
        <time>2016-10-02T14:53:10+02:00</time>
      </trkpt>
      <trkpt lat="45.99613" lon="6.29062">
        <ele>1389</ele>
        <time>2016-10-02T14:53:13+02:00</time>
      </trkpt>
      <trkpt lat="45.99612" lon="6.29057">
        <ele>1388</ele>
        <time>2016-10-02T14:53:16+02:00</time>
      </trkpt>
      <trkpt lat="45.99612" lon="6.29052">
        <ele>1387</ele>
        <time>2016-10-02T14:53:19+02:00</time>
      </trkpt>
      <trkpt lat="45.99611" lon="6.29048">
        <ele>1385</ele>
        <time>2016-10-02T14:53:21+02:00</time>
      </trkpt>
      <trkpt lat="45.9961" lon="6.29045">
        <ele>1384</ele>
        <time>2016-10-02T14:53:24+02:00</time>
      </trkpt>
      <trkpt lat="45.99609" lon="6.29041">
        <ele>1383</ele>
        <time>2016-10-02T14:53:26+02:00</time>
      </trkpt>
      <trkpt lat="45.99608" lon="6.29038">
        <ele>1382</ele>
        <time>2016-10-02T14:53:28+02:00</time>
      </trkpt>
      <trkpt lat="45.99608" lon="6.29035">
        <ele>1381</ele>
        <time>2016-10-02T14:53:29+02:00</time>
      </trkpt>
      <trkpt lat="45.99607" lon="6.29033">
        <ele>1380</ele>
        <time>2016-10-02T14:53:31+02:00</time>
      </trkpt>
      <trkpt lat="45.99607" lon="6.2903">
        <ele>1380</ele>
        <time>2016-10-02T14:53:33+02:00</time>
      </trkpt>
      <trkpt lat="45.99607" lon="6.29027">
        <ele>1380</ele>
        <time>2016-10-02T14:53:34+02:00</time>
      </trkpt>
      <trkpt lat="45.99607" lon="6.29025">
        <ele>1380</ele>
        <time>2016-10-02T14:53:35+02:00</time>
      </trkpt>
      <trkpt lat="45.99607" lon="6.29023">
        <ele>1379</ele>
        <time>2016-10-02T14:53:37+02:00</time>
      </trkpt>
      <trkpt lat="45.99606" lon="6.29021">
        <ele>1379</ele>
        <time>2016-10-02T14:53:38+02:00</time>
      </trkpt>
      <trkpt lat="45.99605" lon="6.29019">
        <ele>1378</ele>
        <time>2016-10-02T14:53:39+02:00</time>
      </trkpt>
      <trkpt lat="45.99605" lon="6.29016">
        <ele>1377</ele>
        <time>2016-10-02T14:53:41+02:00</time>
      </trkpt>
      <trkpt lat="45.99604" lon="6.29014">
        <ele>1376</ele>
        <time>2016-10-02T14:53:42+02:00</time>
      </trkpt>
      <trkpt lat="45.99604" lon="6.29012">
        <ele>1375</ele>
        <time>2016-10-02T14:53:43+02:00</time>
      </trkpt>
      <trkpt lat="45.99603" lon="6.2901">
        <ele>1374</ele>
        <time>2016-10-02T14:53:45+02:00</time>
      </trkpt>
      <trkpt lat="45.99602" lon="6.29008">
        <ele>1372</ele>
        <time>2016-10-02T14:53:46+02:00</time>
      </trkpt>
      <trkpt lat="45.99601" lon="6.29005">
        <ele>1371</ele>
        <time>2016-10-02T14:53:48+02:00</time>
      </trkpt>
      <trkpt lat="45.996" lon="6.29002">
        <ele>1369</ele>
        <time>2016-10-02T14:53:50+02:00</time>
      </trkpt>
      <trkpt lat="45.99599" lon="6.29">
        <ele>1368</ele>
        <time>2016-10-02T14:53:52+02:00</time>
      </trkpt>
      <trkpt lat="45.99599" lon="6.28997">
        <ele>1367</ele>
        <time>2016-10-02T14:53:53+02:00</time>
      </trkpt>
      <trkpt lat="45.99598" lon="6.28993">
        <ele>1367</ele>
        <time>2016-10-02T14:53:55+02:00</time>
      </trkpt>
      <trkpt lat="45.99597" lon="6.28989">
        <ele>1365</ele>
        <time>2016-10-02T14:53:58+02:00</time>
      </trkpt>
      <trkpt lat="45.99596" lon="6.28986">
        <ele>1363</ele>
        <time>2016-10-02T14:54:00+02:00</time>
      </trkpt>
      <trkpt lat="45.99594" lon="6.28983">
        <ele>1360</ele>
        <time>2016-10-02T14:54:02+02:00</time>
      </trkpt>
      <trkpt lat="45.99591" lon="6.28979">
        <ele>1357</ele>
        <time>2016-10-02T14:54:05+02:00</time>
      </trkpt>
      <trkpt lat="45.99589" lon="6.28976">
        <ele>1354</ele>
        <time>2016-10-02T14:54:08+02:00</time>
      </trkpt>
      <trkpt lat="45.99587" lon="6.28974">
        <ele>1351</ele>
        <time>2016-10-02T14:54:10+02:00</time>
      </trkpt>
      <trkpt lat="45.99585" lon="6.28971">
        <ele>1348</ele>
        <time>2016-10-02T14:54:13+02:00</time>
      </trkpt>
      <trkpt lat="45.99583" lon="6.28968">
        <ele>1346</ele>
        <time>2016-10-02T14:54:15+02:00</time>
      </trkpt>
      <trkpt lat="45.99582" lon="6.28965">
        <ele>1344</ele>
        <time>2016-10-02T14:54:17+02:00</time>
      </trkpt>
      <trkpt lat="45.99581" lon="6.28962">
        <ele>1343</ele>
        <time>2016-10-02T14:54:19+02:00</time>
      </trkpt>
      <trkpt lat="45.99579" lon="6.2896">
        <ele>1342</ele>
        <time>2016-10-02T14:54:21+02:00</time>
      </trkpt>
      <trkpt lat="45.99578" lon="6.28957">
        <ele>1341</ele>
        <time>2016-10-02T14:54:22+02:00</time>
      </trkpt>
      <trkpt lat="45.99577" lon="6.28955">
        <ele>1340</ele>
        <time>2016-10-02T14:54:24+02:00</time>
      </trkpt>
      <trkpt lat="45.99576" lon="6.28952">
        <ele>1339</ele>
        <time>2016-10-02T14:54:26+02:00</time>
      </trkpt>
      <trkpt lat="45.99575" lon="6.28949">
        <ele>1338</ele>
        <time>2016-10-02T14:54:28+02:00</time>
      </trkpt>
      <trkpt lat="45.99575" lon="6.28947">
        <ele>1338</ele>
        <time>2016-10-02T14:54:29+02:00</time>
      </trkpt>
      <trkpt lat="45.99574" lon="6.28944">
        <ele>1338</ele>
        <time>2016-10-02T14:54:31+02:00</time>
      </trkpt>
      <trkpt lat="45.99574" lon="6.28941">
        <ele>1337</ele>
        <time>2016-10-02T14:54:33+02:00</time>
      </trkpt>
      <trkpt lat="45.99573" lon="6.28937">
        <ele>1336</ele>
        <time>2016-10-02T14:54:35+02:00</time>
      </trkpt>
      <trkpt lat="45.99572" lon="6.28933">
        <ele>1336</ele>
        <time>2016-10-02T14:54:37+02:00</time>
      </trkpt>
      <trkpt lat="45.99572" lon="6.2893">
        <ele>1335</ele>
        <time>2016-10-02T14:54:39+02:00</time>
      </trkpt>
      <trkpt lat="45.99571" lon="6.28927">
        <ele>1335</ele>
        <time>2016-10-02T14:54:41+02:00</time>
      </trkpt>
      <trkpt lat="45.99571" lon="6.28925">
        <ele>1334</ele>
        <time>2016-10-02T14:54:42+02:00</time>
      </trkpt>
      <trkpt lat="45.99571" lon="6.28922">
        <ele>1335</ele>
        <time>2016-10-02T14:54:43+02:00</time>
      </trkpt>
      <trkpt lat="45.99572" lon="6.2892">
        <ele>1335</ele>
        <time>2016-10-02T14:54:45+02:00</time>
      </trkpt>
      <trkpt lat="45.99572" lon="6.28918">
        <ele>1336</ele>
        <time>2016-10-02T14:54:47+02:00</time>
      </trkpt>
      <trkpt lat="45.99573" lon="6.28915">
        <ele>1336</ele>
        <time>2016-10-02T14:54:48+02:00</time>
      </trkpt>
      <trkpt lat="45.99575" lon="6.28914">
        <ele>1338</ele>
        <time>2016-10-02T14:54:50+02:00</time>
      </trkpt>
      <trkpt lat="45.99576" lon="6.28912">
        <ele>1339</ele>
        <time>2016-10-02T14:54:52+02:00</time>
      </trkpt>
      <trkpt lat="45.99577" lon="6.28909">
        <ele>1340</ele>
        <time>2016-10-02T14:54:54+02:00</time>
      </trkpt>
      <trkpt lat="45.99579" lon="6.28907">
        <ele>1342</ele>
        <time>2016-10-02T14:54:56+02:00</time>
      </trkpt>
      <trkpt lat="45.99581" lon="6.28905">
        <ele>1343</ele>
        <time>2016-10-02T14:54:58+02:00</time>
      </trkpt>
      <trkpt lat="45.99583" lon="6.28902">
        <ele>1345</ele>
        <time>2016-10-02T14:55:01+02:00</time>
      </trkpt>
      <trkpt lat="45.99584" lon="6.28901">
        <ele>1347</ele>
        <time>2016-10-02T14:55:02+02:00</time>
      </trkpt>
      <trkpt lat="45.99586" lon="6.28899">
        <ele>1348</ele>
        <time>2016-10-02T14:55:04+02:00</time>
      </trkpt>
      <trkpt lat="45.99587" lon="6.28897">
        <ele>1351</ele>
        <time>2016-10-02T14:55:06+02:00</time>
      </trkpt>
      <trkpt lat="45.99589" lon="6.28895">
        <ele>1353</ele>
        <time>2016-10-02T14:55:08+02:00</time>
      </trkpt>
      <trkpt lat="45.99591" lon="6.28893">
        <ele>1355</ele>
        <time>2016-10-02T14:55:10+02:00</time>
      </trkpt>
      <trkpt lat="45.99592" lon="6.28891">
        <ele>1357</ele>
        <time>2016-10-02T14:55:13+02:00</time>
      </trkpt>
      <trkpt lat="45.99594" lon="6.28889">
        <ele>1358</ele>
        <time>2016-10-02T14:55:14+02:00</time>
      </trkpt>
      <trkpt lat="45.99594" lon="6.28886">
        <ele>1359</ele>
        <time>2016-10-02T14:55:16+02:00</time>
      </trkpt>
      <trkpt lat="45.99595" lon="6.28884">
        <ele>1360</ele>
        <time>2016-10-02T14:55:17+02:00</time>
      </trkpt>
      <trkpt lat="45.99597" lon="6.28882">
        <ele>1362</ele>
        <time>2016-10-02T14:55:19+02:00</time>
      </trkpt>
      <trkpt lat="45.99599" lon="6.28878">
        <ele>1365</ele>
        <time>2016-10-02T14:55:22+02:00</time>
      </trkpt>
      <trkpt lat="45.99602" lon="6.28875">
        <ele>1368</ele>
        <time>2016-10-02T14:55:24+02:00</time>
      </trkpt>
      <trkpt lat="45.99603" lon="6.28873">
        <ele>1370</ele>
        <time>2016-10-02T14:55:26+02:00</time>
      </trkpt>
      <trkpt lat="45.99605" lon="6.28871">
        <ele>1372</ele>
        <time>2016-10-02T14:55:28+02:00</time>
      </trkpt>
      <trkpt lat="45.99606" lon="6.28869">
        <ele>1373</ele>
        <time>2016-10-02T14:55:29+02:00</time>
      </trkpt>
      <trkpt lat="45.99607" lon="6.28867">
        <ele>1374</ele>
        <time>2016-10-02T14:55:31+02:00</time>
      </trkpt>
      <trkpt lat="45.99608" lon="6.28863">
        <ele>1376</ele>
        <time>2016-10-02T14:55:33+02:00</time>
      </trkpt>
      <trkpt lat="45.99609" lon="6.2886">
        <ele>1377</ele>
        <time>2016-10-02T14:55:35+02:00</time>
      </trkpt>
      <trkpt lat="45.99611" lon="6.28857">
        <ele>1378</ele>
        <time>2016-10-02T14:55:37+02:00</time>
      </trkpt>
      <trkpt lat="45.99612" lon="6.28854">
        <ele>1380</ele>
        <time>2016-10-02T14:55:39+02:00</time>
      </trkpt>
      <trkpt lat="45.99613" lon="6.2885">
        <ele>1381</ele>
        <time>2016-10-02T14:55:42+02:00</time>
      </trkpt>
      <trkpt lat="45.99614" lon="6.28847">
        <ele>1382</ele>
        <time>2016-10-02T14:55:44+02:00</time>
      </trkpt>
      <trkpt lat="45.99614" lon="6.28843">
        <ele>1382</ele>
        <time>2016-10-02T14:55:46+02:00</time>
      </trkpt>
      <trkpt lat="45.99614" lon="6.28841">
        <ele>1382</ele>
        <time>2016-10-02T14:55:48+02:00</time>
      </trkpt>
      <trkpt lat="45.99615" lon="6.28838">
        <ele>1383</ele>
        <time>2016-10-02T14:55:49+02:00</time>
      </trkpt>
      <trkpt lat="45.99615" lon="6.28835">
        <ele>1383</ele>
        <time>2016-10-02T14:55:51+02:00</time>
      </trkpt>
      <trkpt lat="45.99616" lon="6.28832">
        <ele>1383</ele>
        <time>2016-10-02T14:55:53+02:00</time>
      </trkpt>
      <trkpt lat="45.99616" lon="6.28829">
        <ele>1384</ele>
        <time>2016-10-02T14:55:54+02:00</time>
      </trkpt>
      <trkpt lat="45.99617" lon="6.28827">
        <ele>1384</ele>
        <time>2016-10-02T14:55:56+02:00</time>
      </trkpt>
      <trkpt lat="45.99617" lon="6.28824">
        <ele>1385</ele>
        <time>2016-10-02T14:55:58+02:00</time>
      </trkpt>
      <trkpt lat="45.99618" lon="6.28821">
        <ele>1385</ele>
        <time>2016-10-02T14:55:59+02:00</time>
      </trkpt>
      <trkpt lat="45.99618" lon="6.28818">
        <ele>1385</ele>
        <time>2016-10-02T14:56:01+02:00</time>
      </trkpt>
      <trkpt lat="45.99619" lon="6.28815">
        <ele>1386</ele>
        <time>2016-10-02T14:56:03+02:00</time>
      </trkpt>
      <trkpt lat="45.99619" lon="6.28812">
        <ele>1386</ele>
        <time>2016-10-02T14:56:05+02:00</time>
      </trkpt>
      <trkpt lat="45.9962" lon="6.28809">
        <ele>1386</ele>
        <time>2016-10-02T14:56:06+02:00</time>
      </trkpt>
      <trkpt lat="45.9962" lon="6.28806">
        <ele>1386</ele>
        <time>2016-10-02T14:56:08+02:00</time>
      </trkpt>
      <trkpt lat="45.9962" lon="6.28805">
        <ele>1386</ele>
        <time>2016-10-02T14:56:09+02:00</time>
      </trkpt>
      <trkpt lat="45.9962" lon="6.28803">
        <ele>1386</ele>
        <time>2016-10-02T14:56:10+02:00</time>
      </trkpt>
      <trkpt lat="45.9962" lon="6.288">
        <ele>1386</ele>
        <time>2016-10-02T14:56:12+02:00</time>
      </trkpt>
      <trkpt lat="45.9962" lon="6.28796">
        <ele>1386</ele>
        <time>2016-10-02T14:56:14+02:00</time>
      </trkpt>
      <trkpt lat="45.9962" lon="6.28792">
        <ele>1386</ele>
        <time>2016-10-02T14:56:16+02:00</time>
      </trkpt>
      <trkpt lat="45.99621" lon="6.28789">
        <ele>1386</ele>
        <time>2016-10-02T14:56:18+02:00</time>
      </trkpt>
      <trkpt lat="45.99621" lon="6.28785">
        <ele>1386</ele>
        <time>2016-10-02T14:56:20+02:00</time>
      </trkpt>
      <trkpt lat="45.99622" lon="6.28781">
        <ele>1386</ele>
        <time>2016-10-02T14:56:23+02:00</time>
      </trkpt>
      <trkpt lat="45.99622" lon="6.28778">
        <ele>1387</ele>
        <time>2016-10-02T14:56:25+02:00</time>
      </trkpt>
      <trkpt lat="45.99623" lon="6.28774">
        <ele>1387</ele>
        <time>2016-10-02T14:56:27+02:00</time>
      </trkpt>
      <trkpt lat="45.99623" lon="6.2877">
        <ele>1387</ele>
        <time>2016-10-02T14:56:29+02:00</time>
      </trkpt>
      <trkpt lat="45.99624" lon="6.28767">
        <ele>1387</ele>
        <time>2016-10-02T14:56:31+02:00</time>
      </trkpt>
      <trkpt lat="45.99624" lon="6.28764">
        <ele>1387</ele>
        <time>2016-10-02T14:56:33+02:00</time>
      </trkpt>
      <trkpt lat="45.99624" lon="6.28761">
        <ele>1387</ele>
        <time>2016-10-02T14:56:34+02:00</time>
      </trkpt>
      <trkpt lat="45.99625" lon="6.28758">
        <ele>1387</ele>
        <time>2016-10-02T14:56:36+02:00</time>
      </trkpt>
      <trkpt lat="45.99625" lon="6.28755">
        <ele>1388</ele>
        <time>2016-10-02T14:56:38+02:00</time>
      </trkpt>
      <trkpt lat="45.99626" lon="6.28753">
        <ele>1388</ele>
        <time>2016-10-02T14:56:39+02:00</time>
      </trkpt>
      <trkpt lat="45.99626" lon="6.2875">
        <ele>1388</ele>
        <time>2016-10-02T14:56:41+02:00</time>
      </trkpt>
      <trkpt lat="45.99627" lon="6.28748">
        <ele>1389</ele>
        <time>2016-10-02T14:56:42+02:00</time>
      </trkpt>
      <trkpt lat="45.99627" lon="6.28746">
        <ele>1389</ele>
        <time>2016-10-02T14:56:44+02:00</time>
      </trkpt>
      <trkpt lat="45.99628" lon="6.28742">
        <ele>1389</ele>
        <time>2016-10-02T14:56:46+02:00</time>
      </trkpt>
      <trkpt lat="45.99628" lon="6.28739">
        <ele>1389</ele>
        <time>2016-10-02T14:56:48+02:00</time>
      </trkpt>
      <trkpt lat="45.99628" lon="6.28735">
        <ele>1389</ele>
        <time>2016-10-02T14:56:50+02:00</time>
      </trkpt>
      <trkpt lat="45.99628" lon="6.28732">
        <ele>1389</ele>
        <time>2016-10-02T14:56:52+02:00</time>
      </trkpt>
      <trkpt lat="45.99629" lon="6.28729">
        <ele>1389</ele>
        <time>2016-10-02T14:56:53+02:00</time>
      </trkpt>
      <trkpt lat="45.9963" lon="6.28727">
        <ele>1389</ele>
        <time>2016-10-02T14:56:55+02:00</time>
      </trkpt>
      <trkpt lat="45.99631" lon="6.28724">
        <ele>1390</ele>
        <time>2016-10-02T14:56:56+02:00</time>
      </trkpt>
      <trkpt lat="45.99632" lon="6.28722">
        <ele>1391</ele>
        <time>2016-10-02T14:56:58+02:00</time>
      </trkpt>
      <trkpt lat="45.99634" lon="6.28719">
        <ele>1392</ele>
        <time>2016-10-02T14:57:01+02:00</time>
      </trkpt>
      <trkpt lat="45.99635" lon="6.28715">
        <ele>1392</ele>
        <time>2016-10-02T14:57:03+02:00</time>
      </trkpt>
      <trkpt lat="45.99637" lon="6.28712">
        <ele>1393</ele>
        <time>2016-10-02T14:57:05+02:00</time>
      </trkpt>
      <trkpt lat="45.99637" lon="6.2871">
        <ele>1393</ele>
        <time>2016-10-02T14:57:07+02:00</time>
      </trkpt>
      <trkpt lat="45.99638" lon="6.28707">
        <ele>1393</ele>
        <time>2016-10-02T14:57:09+02:00</time>
      </trkpt>
      <trkpt lat="45.99638" lon="6.28704">
        <ele>1393</ele>
        <time>2016-10-02T14:57:10+02:00</time>
      </trkpt>
      <trkpt lat="45.99638" lon="6.28701">
        <ele>1393</ele>
        <time>2016-10-02T14:57:12+02:00</time>
      </trkpt>
      <trkpt lat="45.99639" lon="6.28698">
        <ele>1393</ele>
        <time>2016-10-02T14:57:14+02:00</time>
      </trkpt>
      <trkpt lat="45.99639" lon="6.28695">
        <ele>1393</ele>
        <time>2016-10-02T14:57:16+02:00</time>
      </trkpt>
      <trkpt lat="45.99639" lon="6.28693">
        <ele>1393</ele>
        <time>2016-10-02T14:57:17+02:00</time>
      </trkpt>
      <trkpt lat="45.99639" lon="6.2869">
        <ele>1392</ele>
        <time>2016-10-02T14:57:18+02:00</time>
      </trkpt>
      <trkpt lat="45.99638" lon="6.28688">
        <ele>1392</ele>
        <time>2016-10-02T14:57:20+02:00</time>
      </trkpt>
      <trkpt lat="45.99638" lon="6.28686">
        <ele>1391</ele>
        <time>2016-10-02T14:57:21+02:00</time>
      </trkpt>
      <trkpt lat="45.99637" lon="6.28684">
        <ele>1391</ele>
        <time>2016-10-02T14:57:22+02:00</time>
      </trkpt>
      <trkpt lat="45.99637" lon="6.28682">
        <ele>1390</ele>
        <time>2016-10-02T14:57:24+02:00</time>
      </trkpt>
      <trkpt lat="45.99636" lon="6.2868">
        <ele>1390</ele>
        <time>2016-10-02T14:57:25+02:00</time>
      </trkpt>
      <trkpt lat="45.99634" lon="6.28679">
        <ele>1389</ele>
        <time>2016-10-02T14:57:27+02:00</time>
      </trkpt>
      <trkpt lat="45.99633" lon="6.28677">
        <ele>1388</ele>
        <time>2016-10-02T14:57:29+02:00</time>
      </trkpt>
      <trkpt lat="45.99631" lon="6.28674">
        <ele>1387</ele>
        <time>2016-10-02T14:57:31+02:00</time>
      </trkpt>
      <trkpt lat="45.9963" lon="6.28671">
        <ele>1386</ele>
        <time>2016-10-02T14:57:33+02:00</time>
      </trkpt>
      <trkpt lat="45.99629" lon="6.28669">
        <ele>1386</ele>
        <time>2016-10-02T14:57:35+02:00</time>
      </trkpt>
      <trkpt lat="45.99628" lon="6.28668">
        <ele>1386</ele>
        <time>2016-10-02T14:57:36+02:00</time>
      </trkpt>
      <trkpt lat="45.99628" lon="6.28666">
        <ele>1385</ele>
        <time>2016-10-02T14:57:37+02:00</time>
      </trkpt>
      <trkpt lat="45.99627" lon="6.28664">
        <ele>1385</ele>
        <time>2016-10-02T14:57:38+02:00</time>
      </trkpt>
      <trkpt lat="45.99627" lon="6.28662">
        <ele>1385</ele>
        <time>2016-10-02T14:57:39+02:00</time>
      </trkpt>
      <trkpt lat="45.99626" lon="6.2866">
        <ele>1384</ele>
        <time>2016-10-02T14:57:41+02:00</time>
      </trkpt>
      <trkpt lat="45.99625" lon="6.28657">
        <ele>1384</ele>
        <time>2016-10-02T14:57:43+02:00</time>
      </trkpt>
      <trkpt lat="45.99624" lon="6.28654">
        <ele>1383</ele>
        <time>2016-10-02T14:57:46+02:00</time>
      </trkpt>
      <trkpt lat="45.99622" lon="6.28651">
        <ele>1382</ele>
        <time>2016-10-02T14:57:48+02:00</time>
      </trkpt>
      <trkpt lat="45.9962" lon="6.28647">
        <ele>1382</ele>
        <time>2016-10-02T14:57:51+02:00</time>
      </trkpt>
      <trkpt lat="45.99618" lon="6.28642">
        <ele>1381</ele>
        <time>2016-10-02T14:57:54+02:00</time>
      </trkpt>
      <trkpt lat="45.99616" lon="6.28639">
        <ele>1380</ele>
        <time>2016-10-02T14:57:57+02:00</time>
      </trkpt>
      <trkpt lat="45.99615" lon="6.28636">
        <ele>1380</ele>
        <time>2016-10-02T14:57:59+02:00</time>
      </trkpt>
      <trkpt lat="45.99614" lon="6.28633">
        <ele>1379</ele>
        <time>2016-10-02T14:58:01+02:00</time>
      </trkpt>
      <trkpt lat="45.99612" lon="6.2863">
        <ele>1379</ele>
        <time>2016-10-02T14:58:03+02:00</time>
      </trkpt>
      <trkpt lat="45.99611" lon="6.28627">
        <ele>1378</ele>
        <time>2016-10-02T14:58:06+02:00</time>
      </trkpt>
      <trkpt lat="45.99609" lon="6.28624">
        <ele>1378</ele>
        <time>2016-10-02T14:58:08+02:00</time>
      </trkpt>
      <trkpt lat="45.99608" lon="6.28621">
        <ele>1378</ele>
        <time>2016-10-02T14:58:10+02:00</time>
      </trkpt>
      <trkpt lat="45.99606" lon="6.28618">
        <ele>1377</ele>
        <time>2016-10-02T14:58:12+02:00</time>
      </trkpt>
      <trkpt lat="45.99604" lon="6.28615">
        <ele>1377</ele>
        <time>2016-10-02T14:58:14+02:00</time>
      </trkpt>
      <trkpt lat="45.99603" lon="6.28613">
        <ele>1377</ele>
        <time>2016-10-02T14:58:16+02:00</time>
      </trkpt>
      <trkpt lat="45.99603" lon="6.2861">
        <ele>1377</ele>
        <time>2016-10-02T14:58:18+02:00</time>
      </trkpt>
      <trkpt lat="45.99602" lon="6.28608">
        <ele>1377</ele>
        <time>2016-10-02T14:58:19+02:00</time>
      </trkpt>
      <trkpt lat="45.99601" lon="6.28605">
        <ele>1377</ele>
        <time>2016-10-02T14:58:21+02:00</time>
      </trkpt>
      <trkpt lat="45.99601" lon="6.28602">
        <ele>1377</ele>
        <time>2016-10-02T14:58:22+02:00</time>
      </trkpt>
      <trkpt lat="45.996" lon="6.28599">
        <ele>1377</ele>
        <time>2016-10-02T14:58:24+02:00</time>
      </trkpt>
      <trkpt lat="45.996" lon="6.28597">
        <ele>1377</ele>
        <time>2016-10-02T14:58:26+02:00</time>
      </trkpt>
      <trkpt lat="45.99599" lon="6.28595">
        <ele>1377</ele>
        <time>2016-10-02T14:58:27+02:00</time>
      </trkpt>
      <trkpt lat="45.99599" lon="6.28592">
        <ele>1377</ele>
        <time>2016-10-02T14:58:29+02:00</time>
      </trkpt>
      <trkpt lat="45.99598" lon="6.2859">
        <ele>1377</ele>
        <time>2016-10-02T14:58:30+02:00</time>
      </trkpt>
      <trkpt lat="45.99597" lon="6.28587">
        <ele>1377</ele>
        <time>2016-10-02T14:58:32+02:00</time>
      </trkpt>
      <trkpt lat="45.99597" lon="6.28585">
        <ele>1377</ele>
        <time>2016-10-02T14:58:33+02:00</time>
      </trkpt>
      <trkpt lat="45.99596" lon="6.28582">
        <ele>1377</ele>
        <time>2016-10-02T14:58:35+02:00</time>
      </trkpt>
      <trkpt lat="45.99595" lon="6.28581">
        <ele>1377</ele>
        <time>2016-10-02T14:58:36+02:00</time>
      </trkpt>
      <trkpt lat="45.99594" lon="6.28578">
        <ele>1377</ele>
        <time>2016-10-02T14:58:38+02:00</time>
      </trkpt>
      <trkpt lat="45.99594" lon="6.28576">
        <ele>1377</ele>
        <time>2016-10-02T14:58:39+02:00</time>
      </trkpt>
      <trkpt lat="45.99593" lon="6.28574">
        <ele>1377</ele>
        <time>2016-10-02T14:58:40+02:00</time>
      </trkpt>
      <trkpt lat="45.99592" lon="6.28572">
        <ele>1377</ele>
        <time>2016-10-02T14:58:42+02:00</time>
      </trkpt>
      <trkpt lat="45.99591" lon="6.28571">
        <ele>1376</ele>
        <time>2016-10-02T14:58:43+02:00</time>
      </trkpt>
      <trkpt lat="45.99589" lon="6.28568">
        <ele>1376</ele>
        <time>2016-10-02T14:58:45+02:00</time>
      </trkpt>
      <trkpt lat="45.99588" lon="6.28565">
        <ele>1376</ele>
        <time>2016-10-02T14:58:47+02:00</time>
      </trkpt>
      <trkpt lat="45.99588" lon="6.28562">
        <ele>1376</ele>
        <time>2016-10-02T14:58:49+02:00</time>
      </trkpt>
      <trkpt lat="45.99587" lon="6.28559">
        <ele>1376</ele>
        <time>2016-10-02T14:58:51+02:00</time>
      </trkpt>
      <trkpt lat="45.99586" lon="6.28556">
        <ele>1376</ele>
        <time>2016-10-02T14:58:53+02:00</time>
      </trkpt>
      <trkpt lat="45.99584" lon="6.28553">
        <ele>1376</ele>
        <time>2016-10-02T14:58:55+02:00</time>
      </trkpt>
      <trkpt lat="45.99583" lon="6.2855">
        <ele>1376</ele>
        <time>2016-10-02T14:58:57+02:00</time>
      </trkpt>
      <trkpt lat="45.99583" lon="6.28546">
        <ele>1375</ele>
        <time>2016-10-02T14:58:59+02:00</time>
      </trkpt>
      <trkpt lat="45.99582" lon="6.28544">
        <ele>1375</ele>
        <time>2016-10-02T14:59:00+02:00</time>
      </trkpt>
      <trkpt lat="45.99581" lon="6.28541">
        <ele>1375</ele>
        <time>2016-10-02T14:59:02+02:00</time>
      </trkpt>
      <trkpt lat="45.9958" lon="6.28539">
        <ele>1374</ele>
        <time>2016-10-02T14:59:03+02:00</time>
      </trkpt>
      <trkpt lat="45.99579" lon="6.28536">
        <ele>1373</ele>
        <time>2016-10-02T14:59:05+02:00</time>
      </trkpt>
      <trkpt lat="45.99579" lon="6.28533">
        <ele>1373</ele>
        <time>2016-10-02T14:59:07+02:00</time>
      </trkpt>
      <trkpt lat="45.99579" lon="6.28531">
        <ele>1373</ele>
        <time>2016-10-02T14:59:08+02:00</time>
      </trkpt>
      <trkpt lat="45.99579" lon="6.28529">
        <ele>1373</ele>
        <time>2016-10-02T14:59:09+02:00</time>
      </trkpt>
      <trkpt lat="45.99578" lon="6.28526">
        <ele>1372</ele>
        <time>2016-10-02T14:59:11+02:00</time>
      </trkpt>
      <trkpt lat="45.99577" lon="6.28523">
        <ele>1372</ele>
        <time>2016-10-02T14:59:13+02:00</time>
      </trkpt>
      <trkpt lat="45.99575" lon="6.2852">
        <ele>1370</ele>
        <time>2016-10-02T14:59:15+02:00</time>
      </trkpt>
      <trkpt lat="45.99574" lon="6.28517">
        <ele>1370</ele>
        <time>2016-10-02T14:59:17+02:00</time>
      </trkpt>
      <trkpt lat="45.99573" lon="6.28514">
        <ele>1369</ele>
        <time>2016-10-02T14:59:19+02:00</time>
      </trkpt>
      <trkpt lat="45.99573" lon="6.28511">
        <ele>1369</ele>
        <time>2016-10-02T14:59:21+02:00</time>
      </trkpt>
      <trkpt lat="45.99572" lon="6.28508">
        <ele>1368</ele>
        <time>2016-10-02T14:59:22+02:00</time>
      </trkpt>
      <trkpt lat="45.9957" lon="6.28505">
        <ele>1368</ele>
        <time>2016-10-02T14:59:24+02:00</time>
      </trkpt>
      <trkpt lat="45.99569" lon="6.28503">
        <ele>1367</ele>
        <time>2016-10-02T14:59:26+02:00</time>
      </trkpt>
      <trkpt lat="45.99567" lon="6.285">
        <ele>1366</ele>
        <time>2016-10-02T14:59:28+02:00</time>
      </trkpt>
      <trkpt lat="45.99565" lon="6.28497">
        <ele>1364</ele>
        <time>2016-10-02T14:59:31+02:00</time>
      </trkpt>
      <trkpt lat="45.99563" lon="6.28493">
        <ele>1362</ele>
        <time>2016-10-02T14:59:34+02:00</time>
      </trkpt>
      <trkpt lat="45.99561" lon="6.2849">
        <ele>1361</ele>
        <time>2016-10-02T14:59:36+02:00</time>
      </trkpt>
      <trkpt lat="45.9956" lon="6.28486">
        <ele>1360</ele>
        <time>2016-10-02T14:59:38+02:00</time>
      </trkpt>
      <trkpt lat="45.9956" lon="6.28482">
        <ele>1359</ele>
        <time>2016-10-02T14:59:41+02:00</time>
      </trkpt>
      <trkpt lat="45.99559" lon="6.28478">
        <ele>1359</ele>
        <time>2016-10-02T14:59:43+02:00</time>
      </trkpt>
      <trkpt lat="45.99558" lon="6.28474">
        <ele>1358</ele>
        <time>2016-10-02T14:59:45+02:00</time>
      </trkpt>
      <trkpt lat="45.99558" lon="6.2847">
        <ele>1357</ele>
        <time>2016-10-02T14:59:48+02:00</time>
      </trkpt>
      <trkpt lat="45.99557" lon="6.28466">
        <ele>1357</ele>
        <time>2016-10-02T14:59:50+02:00</time>
      </trkpt>
      <trkpt lat="45.99557" lon="6.28463">
        <ele>1356</ele>
        <time>2016-10-02T14:59:52+02:00</time>
      </trkpt>
      <trkpt lat="45.99557" lon="6.28459">
        <ele>1356</ele>
        <time>2016-10-02T14:59:54+02:00</time>
      </trkpt>
      <trkpt lat="45.99556" lon="6.28455">
        <ele>1355</ele>
        <time>2016-10-02T14:59:56+02:00</time>
      </trkpt>
      <trkpt lat="45.99556" lon="6.28452">
        <ele>1355</ele>
        <time>2016-10-02T14:59:58+02:00</time>
      </trkpt>
      <trkpt lat="45.99556" lon="6.28449">
        <ele>1355</ele>
        <time>2016-10-02T15:00:00+02:00</time>
      </trkpt>
      <trkpt lat="45.99555" lon="6.28446">
        <ele>1354</ele>
        <time>2016-10-02T15:00:02+02:00</time>
      </trkpt>
      <trkpt lat="45.99555" lon="6.28443">
        <ele>1354</ele>
        <time>2016-10-02T15:00:04+02:00</time>
      </trkpt>
      <trkpt lat="45.99555" lon="6.2844">
        <ele>1354</ele>
        <time>2016-10-02T15:00:05+02:00</time>
      </trkpt>
      <trkpt lat="45.99554" lon="6.28438">
        <ele>1353</ele>
        <time>2016-10-02T15:00:07+02:00</time>
      </trkpt>
      <trkpt lat="45.99554" lon="6.28435">
        <ele>1353</ele>
        <time>2016-10-02T15:00:08+02:00</time>
      </trkpt>
      <trkpt lat="45.99553" lon="6.28433">
        <ele>1353</ele>
        <time>2016-10-02T15:00:10+02:00</time>
      </trkpt>
      <trkpt lat="45.99552" lon="6.2843">
        <ele>1352</ele>
        <time>2016-10-02T15:00:12+02:00</time>
      </trkpt>
      <trkpt lat="45.99551" lon="6.28428">
        <ele>1352</ele>
        <time>2016-10-02T15:00:13+02:00</time>
      </trkpt>
      <trkpt lat="45.9955" lon="6.28425">
        <ele>1352</ele>
        <time>2016-10-02T15:00:15+02:00</time>
      </trkpt>
      <trkpt lat="45.99549" lon="6.28422">
        <ele>1351</ele>
        <time>2016-10-02T15:00:17+02:00</time>
      </trkpt>
      <trkpt lat="45.99548" lon="6.28419">
        <ele>1351</ele>
        <time>2016-10-02T15:00:19+02:00</time>
      </trkpt>
      <trkpt lat="45.99548" lon="6.28416">
        <ele>1351</ele>
        <time>2016-10-02T15:00:20+02:00</time>
      </trkpt>
      <trkpt lat="45.99547" lon="6.28413">
        <ele>1350</ele>
        <time>2016-10-02T15:00:22+02:00</time>
      </trkpt>
      <trkpt lat="45.99547" lon="6.28409">
        <ele>1350</ele>
        <time>2016-10-02T15:00:24+02:00</time>
      </trkpt>
      <trkpt lat="45.99547" lon="6.28405">
        <ele>1350</ele>
        <time>2016-10-02T15:00:27+02:00</time>
      </trkpt>
      <trkpt lat="45.99547" lon="6.28402">
        <ele>1349</ele>
        <time>2016-10-02T15:00:29+02:00</time>
      </trkpt>
      <trkpt lat="45.99547" lon="6.28399">
        <ele>1349</ele>
        <time>2016-10-02T15:00:30+02:00</time>
      </trkpt>
      <trkpt lat="45.99547" lon="6.28396">
        <ele>1349</ele>
        <time>2016-10-02T15:00:32+02:00</time>
      </trkpt>
      <trkpt lat="45.99547" lon="6.28395">
        <ele>1349</ele>
        <time>2016-10-02T15:00:33+02:00</time>
      </trkpt>
      <trkpt lat="45.99546" lon="6.28393">
        <ele>1348</ele>
        <time>2016-10-02T15:00:34+02:00</time>
      </trkpt>
      <trkpt lat="45.99545" lon="6.28391">
        <ele>1348</ele>
        <time>2016-10-02T15:00:35+02:00</time>
      </trkpt>
      <trkpt lat="45.99544" lon="6.28388">
        <ele>1348</ele>
        <time>2016-10-02T15:00:37+02:00</time>
      </trkpt>
      <trkpt lat="45.99543" lon="6.28385">
        <ele>1347</ele>
        <time>2016-10-02T15:00:39+02:00</time>
      </trkpt>
      <trkpt lat="45.99541" lon="6.28382">
        <ele>1347</ele>
        <time>2016-10-02T15:00:41+02:00</time>
      </trkpt>
      <trkpt lat="45.9954" lon="6.2838">
        <ele>1347</ele>
        <time>2016-10-02T15:00:43+02:00</time>
      </trkpt>
      <trkpt lat="45.99539" lon="6.28378">
        <ele>1347</ele>
        <time>2016-10-02T15:00:44+02:00</time>
      </trkpt>
      <trkpt lat="45.99538" lon="6.28377">
        <ele>1346</ele>
        <time>2016-10-02T15:00:46+02:00</time>
      </trkpt>
      <trkpt lat="45.99536" lon="6.28375">
        <ele>1346</ele>
        <time>2016-10-02T15:00:48+02:00</time>
      </trkpt>
      <trkpt lat="45.99534" lon="6.28373">
        <ele>1346</ele>
        <time>2016-10-02T15:00:50+02:00</time>
      </trkpt>
      <trkpt lat="45.99532" lon="6.28371">
        <ele>1346</ele>
        <time>2016-10-02T15:00:52+02:00</time>
      </trkpt>
      <trkpt lat="45.9953" lon="6.28368">
        <ele>1346</ele>
        <time>2016-10-02T15:00:54+02:00</time>
      </trkpt>
      <trkpt lat="45.99528" lon="6.28366">
        <ele>1345</ele>
        <time>2016-10-02T15:00:57+02:00</time>
      </trkpt>
      <trkpt lat="45.99525" lon="6.28363">
        <ele>1345</ele>
        <time>2016-10-02T15:00:59+02:00</time>
      </trkpt>
      <trkpt lat="45.99523" lon="6.28361">
        <ele>1345</ele>
        <time>2016-10-02T15:01:02+02:00</time>
      </trkpt>
      <trkpt lat="45.99521" lon="6.2836">
        <ele>1345</ele>
        <time>2016-10-02T15:01:04+02:00</time>
      </trkpt>
      <trkpt lat="45.99519" lon="6.28358">
        <ele>1345</ele>
        <time>2016-10-02T15:01:06+02:00</time>
      </trkpt>
      <trkpt lat="45.99517" lon="6.28357">
        <ele>1345</ele>
        <time>2016-10-02T15:01:08+02:00</time>
      </trkpt>
      <trkpt lat="45.99515" lon="6.28356">
        <ele>1345</ele>
        <time>2016-10-02T15:01:10+02:00</time>
      </trkpt>
      <trkpt lat="45.99513" lon="6.28354">
        <ele>1345</ele>
        <time>2016-10-02T15:01:12+02:00</time>
      </trkpt>
      <trkpt lat="45.99512" lon="6.28352">
        <ele>1345</ele>
        <time>2016-10-02T15:01:13+02:00</time>
      </trkpt>
      <trkpt lat="45.99511" lon="6.2835">
        <ele>1346</ele>
        <time>2016-10-02T15:01:15+02:00</time>
      </trkpt>
      <trkpt lat="45.99509" lon="6.28348">
        <ele>1346</ele>
        <time>2016-10-02T15:01:17+02:00</time>
      </trkpt>
      <trkpt lat="45.99507" lon="6.28346">
        <ele>1346</ele>
        <time>2016-10-02T15:01:19+02:00</time>
      </trkpt>
      <trkpt lat="45.99506" lon="6.28344">
        <ele>1346</ele>
        <time>2016-10-02T15:01:21+02:00</time>
      </trkpt>
      <trkpt lat="45.99505" lon="6.28342">
        <ele>1346</ele>
        <time>2016-10-02T15:01:22+02:00</time>
      </trkpt>
      <trkpt lat="45.99503" lon="6.28339">
        <ele>1346</ele>
        <time>2016-10-02T15:01:24+02:00</time>
      </trkpt>
      <trkpt lat="45.99502" lon="6.28337">
        <ele>1347</ele>
        <time>2016-10-02T15:01:26+02:00</time>
      </trkpt>
      <trkpt lat="45.99501" lon="6.28334">
        <ele>1347</ele>
        <time>2016-10-02T15:01:28+02:00</time>
      </trkpt>
      <trkpt lat="45.995" lon="6.28332">
        <ele>1347</ele>
        <time>2016-10-02T15:01:29+02:00</time>
      </trkpt>
      <trkpt lat="45.99499" lon="6.28329">
        <ele>1346</ele>
        <time>2016-10-02T15:01:31+02:00</time>
      </trkpt>
      <trkpt lat="45.99498" lon="6.28327">
        <ele>1345</ele>
        <time>2016-10-02T15:01:33+02:00</time>
      </trkpt>
      <trkpt lat="45.99496" lon="6.28324">
        <ele>1343</ele>
        <time>2016-10-02T15:01:35+02:00</time>
      </trkpt>
      <trkpt lat="45.99494" lon="6.28321">
        <ele>1342</ele>
        <time>2016-10-02T15:01:37+02:00</time>
      </trkpt>
      <trkpt lat="45.99493" lon="6.28319">
        <ele>1341</ele>
        <time>2016-10-02T15:01:38+02:00</time>
      </trkpt>
      <trkpt lat="45.99492" lon="6.28317">
        <ele>1340</ele>
        <time>2016-10-02T15:01:40+02:00</time>
      </trkpt>
      <trkpt lat="45.99491" lon="6.28315">
        <ele>1339</ele>
        <time>2016-10-02T15:01:41+02:00</time>
      </trkpt>
      <trkpt lat="45.99491" lon="6.28313">
        <ele>1339</ele>
        <time>2016-10-02T15:01:42+02:00</time>
      </trkpt>
      <trkpt lat="45.9949" lon="6.2831">
        <ele>1338</ele>
        <time>2016-10-02T15:01:44+02:00</time>
      </trkpt>
      <trkpt lat="45.99489" lon="6.28308">
        <ele>1338</ele>
        <time>2016-10-02T15:01:46+02:00</time>
      </trkpt>
      <trkpt lat="45.99488" lon="6.28306">
        <ele>1337</ele>
        <time>2016-10-02T15:01:47+02:00</time>
      </trkpt>
      <trkpt lat="45.99487" lon="6.28304">
        <ele>1336</ele>
        <time>2016-10-02T15:01:49+02:00</time>
      </trkpt>
      <trkpt lat="45.99486" lon="6.28302">
        <ele>1335</ele>
        <time>2016-10-02T15:01:50+02:00</time>
      </trkpt>
      <trkpt lat="45.99485" lon="6.283">
        <ele>1334</ele>
        <time>2016-10-02T15:01:52+02:00</time>
      </trkpt>
      <trkpt lat="45.99483" lon="6.28298">
        <ele>1333</ele>
        <time>2016-10-02T15:01:53+02:00</time>
      </trkpt>
      <trkpt lat="45.99482" lon="6.28296">
        <ele>1332</ele>
        <time>2016-10-02T15:01:55+02:00</time>
      </trkpt>
      <trkpt lat="45.9948" lon="6.28293">
        <ele>1330</ele>
        <time>2016-10-02T15:01:57+02:00</time>
      </trkpt>
      <trkpt lat="45.99478" lon="6.2829">
        <ele>1329</ele>
        <time>2016-10-02T15:02:00+02:00</time>
      </trkpt>
      <trkpt lat="45.99476" lon="6.28287">
        <ele>1328</ele>
        <time>2016-10-02T15:02:02+02:00</time>
      </trkpt>
      <trkpt lat="45.99475" lon="6.28284">
        <ele>1327</ele>
        <time>2016-10-02T15:02:04+02:00</time>
      </trkpt>
      <trkpt lat="45.99475" lon="6.2828">
        <ele>1327</ele>
        <time>2016-10-02T15:02:06+02:00</time>
      </trkpt>
      <trkpt lat="45.99475" lon="6.28277">
        <ele>1327</ele>
        <time>2016-10-02T15:02:08+02:00</time>
      </trkpt>
      <trkpt lat="45.99475" lon="6.28273">
        <ele>1327</ele>
        <time>2016-10-02T15:02:10+02:00</time>
      </trkpt>
      <trkpt lat="45.99476" lon="6.28269">
        <ele>1328</ele>
        <time>2016-10-02T15:02:13+02:00</time>
      </trkpt>
      <trkpt lat="45.99477" lon="6.28266">
        <ele>1328</ele>
        <time>2016-10-02T15:02:15+02:00</time>
      </trkpt>
      <trkpt lat="45.99477" lon="6.28263">
        <ele>1328</ele>
        <time>2016-10-02T15:02:16+02:00</time>
      </trkpt>
      <trkpt lat="45.99476" lon="6.28261">
        <ele>1328</ele>
        <time>2016-10-02T15:02:18+02:00</time>
      </trkpt>
      <trkpt lat="45.99475" lon="6.28259">
        <ele>1327</ele>
        <time>2016-10-02T15:02:19+02:00</time>
      </trkpt>
      <trkpt lat="45.99474" lon="6.28257">
        <ele>1326</ele>
        <time>2016-10-02T15:02:21+02:00</time>
      </trkpt>
      <trkpt lat="45.99473" lon="6.28255">
        <ele>1325</ele>
        <time>2016-10-02T15:02:22+02:00</time>
      </trkpt>
      <trkpt lat="45.99472" lon="6.28253">
        <ele>1325</ele>
        <time>2016-10-02T15:02:24+02:00</time>
      </trkpt>
      <trkpt lat="45.99471" lon="6.2825">
        <ele>1324</ele>
        <time>2016-10-02T15:02:26+02:00</time>
      </trkpt>
      <trkpt lat="45.99471" lon="6.28247">
        <ele>1324</ele>
        <time>2016-10-02T15:02:27+02:00</time>
      </trkpt>
      <trkpt lat="45.99471" lon="6.28244">
        <ele>1324</ele>
        <time>2016-10-02T15:02:29+02:00</time>
      </trkpt>
      <trkpt lat="45.99471" lon="6.28241">
        <ele>1324</ele>
        <time>2016-10-02T15:02:31+02:00</time>
      </trkpt>
      <trkpt lat="45.99471" lon="6.28239">
        <ele>1323</ele>
        <time>2016-10-02T15:02:32+02:00</time>
      </trkpt>
      <trkpt lat="45.9947" lon="6.28236">
        <ele>1323</ele>
        <time>2016-10-02T15:02:34+02:00</time>
      </trkpt>
      <trkpt lat="45.9947" lon="6.28233">
        <ele>1322</ele>
        <time>2016-10-02T15:02:36+02:00</time>
      </trkpt>
      <trkpt lat="45.9947" lon="6.2823">
        <ele>1322</ele>
        <time>2016-10-02T15:02:37+02:00</time>
      </trkpt>
      <trkpt lat="45.99469" lon="6.28228">
        <ele>1322</ele>
        <time>2016-10-02T15:02:39+02:00</time>
      </trkpt>
      <trkpt lat="45.99469" lon="6.28226">
        <ele>1321</ele>
        <time>2016-10-02T15:02:40+02:00</time>
      </trkpt>
      <trkpt lat="45.99469" lon="6.28223">
        <ele>1321</ele>
        <time>2016-10-02T15:02:41+02:00</time>
      </trkpt>
      <trkpt lat="45.99468" lon="6.28221">
        <ele>1321</ele>
        <time>2016-10-02T15:02:43+02:00</time>
      </trkpt>
      <trkpt lat="45.99468" lon="6.28219">
        <ele>1320</ele>
        <time>2016-10-02T15:02:44+02:00</time>
      </trkpt>
      <trkpt lat="45.99468" lon="6.28216">
        <ele>1320</ele>
        <time>2016-10-02T15:02:46+02:00</time>
      </trkpt>
      <trkpt lat="45.99468" lon="6.28214">
        <ele>1320</ele>
        <time>2016-10-02T15:02:47+02:00</time>
      </trkpt>
      <trkpt lat="45.99468" lon="6.28211">
        <ele>1320</ele>
        <time>2016-10-02T15:02:49+02:00</time>
      </trkpt>
      <trkpt lat="45.99468" lon="6.28209">
        <ele>1320</ele>
        <time>2016-10-02T15:02:50+02:00</time>
      </trkpt>
      <trkpt lat="45.99468" lon="6.28207">
        <ele>1319</ele>
        <time>2016-10-02T15:02:51+02:00</time>
      </trkpt>
      <trkpt lat="45.99468" lon="6.28205">
        <ele>1319</ele>
        <time>2016-10-02T15:02:52+02:00</time>
      </trkpt>
      <trkpt lat="45.99468" lon="6.28204">
        <ele>1319</ele>
        <time>2016-10-02T15:02:53+02:00</time>
      </trkpt>
      <trkpt lat="45.99468" lon="6.28202">
        <ele>1319</ele>
        <time>2016-10-02T15:02:54+02:00</time>
      </trkpt>
      <trkpt lat="45.99468" lon="6.282">
        <ele>1319</ele>
        <time>2016-10-02T15:02:55+02:00</time>
      </trkpt>
      <trkpt lat="45.99468" lon="6.28199">
        <ele>1319</ele>
        <time>2016-10-02T15:02:56+02:00</time>
      </trkpt>
      <trkpt lat="45.99467" lon="6.28198">
        <ele>1319</ele>
        <time>2016-10-02T15:02:57+02:00</time>
      </trkpt>
      <trkpt lat="45.99467" lon="6.28197">
        <ele>1319</ele>
        <time>2016-10-02T15:02:58+02:00</time>
      </trkpt>
      <trkpt lat="45.99467" lon="6.28195">
        <ele>1319</ele>
        <time>2016-10-02T15:02:58+02:00</time>
      </trkpt>
      <trkpt lat="45.99468" lon="6.28194">
        <ele>1319</ele>
        <time>2016-10-02T15:02:59+02:00</time>
      </trkpt>
      <trkpt lat="45.99467" lon="6.28193">
        <ele>1318</ele>
        <time>2016-10-02T15:03:00+02:00</time>
      </trkpt>
      <trkpt lat="45.99467" lon="6.28191">
        <ele>1318</ele>
        <time>2016-10-02T15:03:01+02:00</time>
      </trkpt>
      <trkpt lat="45.99467" lon="6.28189">
        <ele>1318</ele>
        <time>2016-10-02T15:03:02+02:00</time>
      </trkpt>
      <trkpt lat="45.99467" lon="6.28188">
        <ele>1318</ele>
        <time>2016-10-02T15:03:03+02:00</time>
      </trkpt>
      <trkpt lat="45.99466" lon="6.28186">
        <ele>1317</ele>
        <time>2016-10-02T15:03:04+02:00</time>
      </trkpt>
      <trkpt lat="45.99466" lon="6.28184">
        <ele>1317</ele>
        <time>2016-10-02T15:03:06+02:00</time>
      </trkpt>
      <trkpt lat="45.99465" lon="6.28181">
        <ele>1317</ele>
        <time>2016-10-02T15:03:07+02:00</time>
      </trkpt>
      <trkpt lat="45.99465" lon="6.28179">
        <ele>1316</ele>
        <time>2016-10-02T15:03:09+02:00</time>
      </trkpt>
      <trkpt lat="45.99464" lon="6.28176">
        <ele>1316</ele>
        <time>2016-10-02T15:03:10+02:00</time>
      </trkpt>
      <trkpt lat="45.99463" lon="6.28174">
        <ele>1315</ele>
        <time>2016-10-02T15:03:12+02:00</time>
      </trkpt>
      <trkpt lat="45.99463" lon="6.28171">
        <ele>1315</ele>
        <time>2016-10-02T15:03:13+02:00</time>
      </trkpt>
      <trkpt lat="45.99462" lon="6.28169">
        <ele>1314</ele>
        <time>2016-10-02T15:03:15+02:00</time>
      </trkpt>
      <trkpt lat="45.99462" lon="6.28166">
        <ele>1314</ele>
        <time>2016-10-02T15:03:17+02:00</time>
      </trkpt>
      <trkpt lat="45.99461" lon="6.28163">
        <ele>1313</ele>
        <time>2016-10-02T15:03:18+02:00</time>
      </trkpt>
      <trkpt lat="45.9946" lon="6.2816">
        <ele>1313</ele>
        <time>2016-10-02T15:03:20+02:00</time>
      </trkpt>
      <trkpt lat="45.9946" lon="6.28156">
        <ele>1312</ele>
        <time>2016-10-02T15:03:22+02:00</time>
      </trkpt>
      <trkpt lat="45.99459" lon="6.28152">
        <ele>1312</ele>
        <time>2016-10-02T15:03:24+02:00</time>
      </trkpt>
      <trkpt lat="45.99459" lon="6.28148">
        <ele>1312</ele>
        <time>2016-10-02T15:03:27+02:00</time>
      </trkpt>
      <trkpt lat="45.99459" lon="6.28144">
        <ele>1311</ele>
        <time>2016-10-02T15:03:29+02:00</time>
      </trkpt>
      <trkpt lat="45.99458" lon="6.2814">
        <ele>1311</ele>
        <time>2016-10-02T15:03:32+02:00</time>
      </trkpt>
      <trkpt lat="45.99458" lon="6.28136">
        <ele>1311</ele>
        <time>2016-10-02T15:03:34+02:00</time>
      </trkpt>
      <trkpt lat="45.99458" lon="6.28133">
        <ele>1311</ele>
        <time>2016-10-02T15:03:35+02:00</time>
      </trkpt>
      <trkpt lat="45.99459" lon="6.2813">
        <ele>1310</ele>
        <time>2016-10-02T15:03:37+02:00</time>
      </trkpt>
      <trkpt lat="45.99459" lon="6.28128">
        <ele>1311</ele>
        <time>2016-10-02T15:03:39+02:00</time>
      </trkpt>
      <trkpt lat="45.9946" lon="6.28125">
        <ele>1311</ele>
        <time>2016-10-02T15:03:40+02:00</time>
      </trkpt>
      <trkpt lat="45.99461" lon="6.28123">
        <ele>1311</ele>
        <time>2016-10-02T15:03:42+02:00</time>
      </trkpt>
      <trkpt lat="45.99462" lon="6.28121">
        <ele>1311</ele>
        <time>2016-10-02T15:03:43+02:00</time>
      </trkpt>
      <trkpt lat="45.99462" lon="6.28118">
        <ele>1311</ele>
        <time>2016-10-02T15:03:45+02:00</time>
      </trkpt>
      <trkpt lat="45.99462" lon="6.28116">
        <ele>1311</ele>
        <time>2016-10-02T15:03:46+02:00</time>
      </trkpt>
      <trkpt lat="45.99463" lon="6.28113">
        <ele>1311</ele>
        <time>2016-10-02T15:03:48+02:00</time>
      </trkpt>
      <trkpt lat="45.99463" lon="6.28111">
        <ele>1311</ele>
        <time>2016-10-02T15:03:49+02:00</time>
      </trkpt>
      <trkpt lat="45.99463" lon="6.28109">
        <ele>1310</ele>
        <time>2016-10-02T15:03:50+02:00</time>
      </trkpt>
      <trkpt lat="45.99463" lon="6.28106">
        <ele>1310</ele>
        <time>2016-10-02T15:03:52+02:00</time>
      </trkpt>
      <trkpt lat="45.99463" lon="6.28103">
        <ele>1310</ele>
        <time>2016-10-02T15:03:53+02:00</time>
      </trkpt>
      <trkpt lat="45.99463" lon="6.281">
        <ele>1310</ele>
        <time>2016-10-02T15:03:55+02:00</time>
      </trkpt>
      <trkpt lat="45.99462" lon="6.28097">
        <ele>1309</ele>
        <time>2016-10-02T15:03:57+02:00</time>
      </trkpt>
      <trkpt lat="45.99462" lon="6.28093">
        <ele>1309</ele>
        <time>2016-10-02T15:03:59+02:00</time>
      </trkpt>
      <trkpt lat="45.9946" lon="6.28089">
        <ele>1308</ele>
        <time>2016-10-02T15:04:02+02:00</time>
      </trkpt>
      <trkpt lat="45.99459" lon="6.28085">
        <ele>1308</ele>
        <time>2016-10-02T15:04:05+02:00</time>
      </trkpt>
      <trkpt lat="45.99458" lon="6.28082">
        <ele>1307</ele>
        <time>2016-10-02T15:04:07+02:00</time>
      </trkpt>
      <trkpt lat="45.99457" lon="6.28078">
        <ele>1307</ele>
        <time>2016-10-02T15:04:09+02:00</time>
      </trkpt>
      <trkpt lat="45.99457" lon="6.28075">
        <ele>1306</ele>
        <time>2016-10-02T15:04:11+02:00</time>
      </trkpt>
      <trkpt lat="45.99456" lon="6.28073">
        <ele>1306</ele>
        <time>2016-10-02T15:04:13+02:00</time>
      </trkpt>
      <trkpt lat="45.99455" lon="6.2807">
        <ele>1305</ele>
        <time>2016-10-02T15:04:14+02:00</time>
      </trkpt>
      <trkpt lat="45.99454" lon="6.28068">
        <ele>1305</ele>
        <time>2016-10-02T15:04:16+02:00</time>
      </trkpt>
      <trkpt lat="45.99454" lon="6.28066">
        <ele>1304</ele>
        <time>2016-10-02T15:04:18+02:00</time>
      </trkpt>
      <trkpt lat="45.99453" lon="6.28063">
        <ele>1304</ele>
        <time>2016-10-02T15:04:19+02:00</time>
      </trkpt>
      <trkpt lat="45.99452" lon="6.28059">
        <ele>1303</ele>
        <time>2016-10-02T15:04:22+02:00</time>
      </trkpt>
      <trkpt lat="45.99452" lon="6.28056">
        <ele>1303</ele>
        <time>2016-10-02T15:04:23+02:00</time>
      </trkpt>
      <trkpt lat="45.99451" lon="6.28054">
        <ele>1303</ele>
        <time>2016-10-02T15:04:25+02:00</time>
      </trkpt>
      <trkpt lat="45.9945" lon="6.28051">
        <ele>1302</ele>
        <time>2016-10-02T15:04:27+02:00</time>
      </trkpt>
      <trkpt lat="45.99449" lon="6.28049">
        <ele>1302</ele>
        <time>2016-10-02T15:04:28+02:00</time>
      </trkpt>
      <trkpt lat="45.99449" lon="6.28046">
        <ele>1302</ele>
        <time>2016-10-02T15:04:30+02:00</time>
      </trkpt>
      <trkpt lat="45.99448" lon="6.28043">
        <ele>1301</ele>
        <time>2016-10-02T15:04:32+02:00</time>
      </trkpt>
      <trkpt lat="45.99448" lon="6.28041">
        <ele>1301</ele>
        <time>2016-10-02T15:04:33+02:00</time>
      </trkpt>
      <trkpt lat="45.99447" lon="6.28038">
        <ele>1301</ele>
        <time>2016-10-02T15:04:35+02:00</time>
      </trkpt>
      <trkpt lat="45.99448" lon="6.28035">
        <ele>1300</ele>
        <time>2016-10-02T15:04:37+02:00</time>
      </trkpt>
      <trkpt lat="45.99448" lon="6.28032">
        <ele>1300</ele>
        <time>2016-10-02T15:04:38+02:00</time>
      </trkpt>
      <trkpt lat="45.99449" lon="6.2803">
        <ele>1300</ele>
        <time>2016-10-02T15:04:40+02:00</time>
      </trkpt>
      <trkpt lat="45.99449" lon="6.28029">
        <ele>1300</ele>
        <time>2016-10-02T15:04:40+02:00</time>
      </trkpt>
      <trkpt lat="45.99449" lon="6.28028">
        <ele>1300</ele>
        <time>2016-10-02T15:04:41+02:00</time>
      </trkpt>
      <trkpt lat="45.99449" lon="6.28026">
        <ele>1299</ele>
        <time>2016-10-02T15:04:42+02:00</time>
      </trkpt>
      <trkpt lat="45.99449" lon="6.28025">
        <ele>1299</ele>
        <time>2016-10-02T15:04:43+02:00</time>
      </trkpt>
      <trkpt lat="45.99448" lon="6.28022">
        <ele>1299</ele>
        <time>2016-10-02T15:04:45+02:00</time>
      </trkpt>
      <trkpt lat="45.99447" lon="6.28019">
        <ele>1299</ele>
        <time>2016-10-02T15:04:47+02:00</time>
      </trkpt>
      <trkpt lat="45.99446" lon="6.28016">
        <ele>1298</ele>
        <time>2016-10-02T15:04:49+02:00</time>
      </trkpt>
      <trkpt lat="45.99446" lon="6.28012">
        <ele>1298</ele>
        <time>2016-10-02T15:04:51+02:00</time>
      </trkpt>
      <trkpt lat="45.99444" lon="6.28009">
        <ele>1297</ele>
        <time>2016-10-02T15:04:54+02:00</time>
      </trkpt>
      <trkpt lat="45.99443" lon="6.28005">
        <ele>1297</ele>
        <time>2016-10-02T15:04:56+02:00</time>
      </trkpt>
      <trkpt lat="45.99442" lon="6.28002">
        <ele>1297</ele>
        <time>2016-10-02T15:04:58+02:00</time>
      </trkpt>
      <trkpt lat="45.99442" lon="6.28">
        <ele>1297</ele>
        <time>2016-10-02T15:04:59+02:00</time>
      </trkpt>
      <trkpt lat="45.99442" lon="6.27998">
        <ele>1296</ele>
        <time>2016-10-02T15:05:00+02:00</time>
      </trkpt>
      <trkpt lat="45.99441" lon="6.27997">
        <ele>1296</ele>
        <time>2016-10-02T15:05:01+02:00</time>
      </trkpt>
      <trkpt lat="45.99441" lon="6.27995">
        <ele>1296</ele>
        <time>2016-10-02T15:05:02+02:00</time>
      </trkpt>
      <trkpt lat="45.9944" lon="6.27993">
        <ele>1295</ele>
        <time>2016-10-02T15:05:03+02:00</time>
      </trkpt>
      <trkpt lat="45.99439" lon="6.27991">
        <ele>1295</ele>
        <time>2016-10-02T15:05:05+02:00</time>
      </trkpt>
      <trkpt lat="45.99439" lon="6.2799">
        <ele>1294</ele>
        <time>2016-10-02T15:05:06+02:00</time>
      </trkpt>
      <trkpt lat="45.99438" lon="6.27989">
        <ele>1294</ele>
        <time>2016-10-02T15:05:07+02:00</time>
      </trkpt>
      <trkpt lat="45.99437" lon="6.27987">
        <ele>1294</ele>
        <time>2016-10-02T15:05:08+02:00</time>
      </trkpt>
      <trkpt lat="45.99437" lon="6.27985">
        <ele>1294</ele>
        <time>2016-10-02T15:05:09+02:00</time>
      </trkpt>
      <trkpt lat="45.99436" lon="6.27984">
        <ele>1293</ele>
        <time>2016-10-02T15:05:10+02:00</time>
      </trkpt>
      <trkpt lat="45.99436" lon="6.27982">
        <ele>1293</ele>
        <time>2016-10-02T15:05:11+02:00</time>
      </trkpt>
      <trkpt lat="45.99435" lon="6.27981">
        <ele>1293</ele>
        <time>2016-10-02T15:05:12+02:00</time>
      </trkpt>
      <trkpt lat="45.99435" lon="6.27979">
        <ele>1292</ele>
        <time>2016-10-02T15:05:13+02:00</time>
      </trkpt>
      <trkpt lat="45.99435" lon="6.27977">
        <ele>1292</ele>
        <time>2016-10-02T15:05:14+02:00</time>
      </trkpt>
      <trkpt lat="45.99434" lon="6.27976">
        <ele>1292</ele>
        <time>2016-10-02T15:05:15+02:00</time>
      </trkpt>
      <trkpt lat="45.99435" lon="6.27973">
        <ele>1291</ele>
        <time>2016-10-02T15:05:16+02:00</time>
      </trkpt>
      <trkpt lat="45.99435" lon="6.27972">
        <ele>1291</ele>
        <time>2016-10-02T15:05:17+02:00</time>
      </trkpt>
      <trkpt lat="45.99434" lon="6.27971">
        <ele>1290</ele>
        <time>2016-10-02T15:05:18+02:00</time>
      </trkpt>
      <trkpt lat="45.99434" lon="6.27969">
        <ele>1290</ele>
        <time>2016-10-02T15:05:19+02:00</time>
      </trkpt>
      <trkpt lat="45.99434" lon="6.27967">
        <ele>1290</ele>
        <time>2016-10-02T15:05:20+02:00</time>
      </trkpt>
      <trkpt lat="45.99433" lon="6.27965">
        <ele>1289</ele>
        <time>2016-10-02T15:05:21+02:00</time>
      </trkpt>
      <trkpt lat="45.99433" lon="6.27964">
        <ele>1289</ele>
        <time>2016-10-02T15:05:22+02:00</time>
      </trkpt>
      <trkpt lat="45.99433" lon="6.27962">
        <ele>1289</ele>
        <time>2016-10-02T15:05:23+02:00</time>
      </trkpt>
      <trkpt lat="45.99433" lon="6.27961">
        <ele>1288</ele>
        <time>2016-10-02T15:05:23+02:00</time>
      </trkpt>
      <trkpt lat="45.99433" lon="6.27959">
        <ele>1288</ele>
        <time>2016-10-02T15:05:24+02:00</time>
      </trkpt>
      <trkpt lat="45.99433" lon="6.27958">
        <ele>1288</ele>
        <time>2016-10-02T15:05:25+02:00</time>
      </trkpt>
      <trkpt lat="45.99433" lon="6.27956">
        <ele>1287</ele>
        <time>2016-10-02T15:05:26+02:00</time>
      </trkpt>
      <trkpt lat="45.99433" lon="6.27955">
        <ele>1287</ele>
        <time>2016-10-02T15:05:27+02:00</time>
      </trkpt>
      <trkpt lat="45.99433" lon="6.27952">
        <ele>1287</ele>
        <time>2016-10-02T15:05:28+02:00</time>
      </trkpt>
      <trkpt lat="45.99432" lon="6.2795">
        <ele>1286</ele>
        <time>2016-10-02T15:05:30+02:00</time>
      </trkpt>
      <trkpt lat="45.99432" lon="6.27948">
        <ele>1286</ele>
        <time>2016-10-02T15:05:31+02:00</time>
      </trkpt>
      <trkpt lat="45.99433" lon="6.27945">
        <ele>1285</ele>
        <time>2016-10-02T15:05:32+02:00</time>
      </trkpt>
      <trkpt lat="45.99434" lon="6.27943">
        <ele>1285</ele>
        <time>2016-10-02T15:05:34+02:00</time>
      </trkpt>
      <trkpt lat="45.99435" lon="6.27941">
        <ele>1284</ele>
        <time>2016-10-02T15:05:35+02:00</time>
      </trkpt>
      <trkpt lat="45.99435" lon="6.27939">
        <ele>1284</ele>
        <time>2016-10-02T15:05:36+02:00</time>
      </trkpt>
      <trkpt lat="45.99436" lon="6.27937">
        <ele>1283</ele>
        <time>2016-10-02T15:05:38+02:00</time>
      </trkpt>
      <trkpt lat="45.99436" lon="6.27935">
        <ele>1283</ele>
        <time>2016-10-02T15:05:39+02:00</time>
      </trkpt>
      <trkpt lat="45.99436" lon="6.27932">
        <ele>1282</ele>
        <time>2016-10-02T15:05:41+02:00</time>
      </trkpt>
      <trkpt lat="45.99437" lon="6.27929">
        <ele>1281</ele>
        <time>2016-10-02T15:05:42+02:00</time>
      </trkpt>
      <trkpt lat="45.99436" lon="6.27925">
        <ele>1280</ele>
        <time>2016-10-02T15:05:44+02:00</time>
      </trkpt>
      <trkpt lat="45.99436" lon="6.27922">
        <ele>1280</ele>
        <time>2016-10-02T15:05:46+02:00</time>
      </trkpt>
      <trkpt lat="45.99436" lon="6.27919">
        <ele>1279</ele>
        <time>2016-10-02T15:05:48+02:00</time>
      </trkpt>
      <trkpt lat="45.99437" lon="6.27916">
        <ele>1279</ele>
        <time>2016-10-02T15:05:49+02:00</time>
      </trkpt>
      <trkpt lat="45.99437" lon="6.27914">
        <ele>1278</ele>
        <time>2016-10-02T15:05:51+02:00</time>
      </trkpt>
      <trkpt lat="45.99438" lon="6.27912">
        <ele>1278</ele>
        <time>2016-10-02T15:05:52+02:00</time>
      </trkpt>
      <trkpt lat="45.99438" lon="6.2791">
        <ele>1277</ele>
        <time>2016-10-02T15:05:53+02:00</time>
      </trkpt>
      <trkpt lat="45.99438" lon="6.27907">
        <ele>1276</ele>
        <time>2016-10-02T15:05:55+02:00</time>
      </trkpt>
      <trkpt lat="45.99437" lon="6.27904">
        <ele>1276</ele>
        <time>2016-10-02T15:05:56+02:00</time>
      </trkpt>
      <trkpt lat="45.99437" lon="6.27901">
        <ele>1275</ele>
        <time>2016-10-02T15:05:58+02:00</time>
      </trkpt>
      <trkpt lat="45.99437" lon="6.27898">
        <ele>1275</ele>
        <time>2016-10-02T15:06:00+02:00</time>
      </trkpt>
      <trkpt lat="45.99436" lon="6.27896">
        <ele>1274</ele>
        <time>2016-10-02T15:06:01+02:00</time>
      </trkpt>
      <trkpt lat="45.99436" lon="6.27893">
        <ele>1274</ele>
        <time>2016-10-02T15:06:03+02:00</time>
      </trkpt>
      <trkpt lat="45.99437" lon="6.2789">
        <ele>1273</ele>
        <time>2016-10-02T15:06:04+02:00</time>
      </trkpt>
      <trkpt lat="45.99438" lon="6.27887">
        <ele>1272</ele>
        <time>2016-10-02T15:06:06+02:00</time>
      </trkpt>
      <trkpt lat="45.99438" lon="6.27884">
        <ele>1272</ele>
        <time>2016-10-02T15:06:08+02:00</time>
      </trkpt>
      <trkpt lat="45.99439" lon="6.27881">
        <ele>1271</ele>
        <time>2016-10-02T15:06:10+02:00</time>
      </trkpt>
      <trkpt lat="45.99439" lon="6.27878">
        <ele>1270</ele>
        <time>2016-10-02T15:06:11+02:00</time>
      </trkpt>
      <trkpt lat="45.9944" lon="6.27876">
        <ele>1270</ele>
        <time>2016-10-02T15:06:13+02:00</time>
      </trkpt>
      <trkpt lat="45.9944" lon="6.27874">
        <ele>1269</ele>
        <time>2016-10-02T15:06:14+02:00</time>
      </trkpt>
      <trkpt lat="45.99441" lon="6.27871">
        <ele>1269</ele>
        <time>2016-10-02T15:06:16+02:00</time>
      </trkpt>
      <trkpt lat="45.99441" lon="6.27868">
        <ele>1268</ele>
        <time>2016-10-02T15:06:17+02:00</time>
      </trkpt>
      <trkpt lat="45.9944" lon="6.27865">
        <ele>1268</ele>
        <time>2016-10-02T15:06:19+02:00</time>
      </trkpt>
      <trkpt lat="45.99439" lon="6.27862">
        <ele>1267</ele>
        <time>2016-10-02T15:06:21+02:00</time>
      </trkpt>
      <trkpt lat="45.99438" lon="6.27859">
        <ele>1267</ele>
        <time>2016-10-02T15:06:23+02:00</time>
      </trkpt>
      <trkpt lat="45.99437" lon="6.27856">
        <ele>1266</ele>
        <time>2016-10-02T15:06:25+02:00</time>
      </trkpt>
      <trkpt lat="45.99437" lon="6.27853">
        <ele>1265</ele>
        <time>2016-10-02T15:06:26+02:00</time>
      </trkpt>
      <trkpt lat="45.99437" lon="6.2785">
        <ele>1265</ele>
        <time>2016-10-02T15:06:28+02:00</time>
      </trkpt>
      <trkpt lat="45.99436" lon="6.27847">
        <ele>1264</ele>
        <time>2016-10-02T15:06:30+02:00</time>
      </trkpt>
      <trkpt lat="45.99436" lon="6.27844">
        <ele>1264</ele>
        <time>2016-10-02T15:06:32+02:00</time>
      </trkpt>
      <trkpt lat="45.99436" lon="6.2784">
        <ele>1263</ele>
        <time>2016-10-02T15:06:34+02:00</time>
      </trkpt>
      <trkpt lat="45.99437" lon="6.27837">
        <ele>1262</ele>
        <time>2016-10-02T15:06:36+02:00</time>
      </trkpt>
      <trkpt lat="45.99437" lon="6.27834">
        <ele>1261</ele>
        <time>2016-10-02T15:06:37+02:00</time>
      </trkpt>
      <trkpt lat="45.99438" lon="6.27832">
        <ele>1261</ele>
        <time>2016-10-02T15:06:39+02:00</time>
      </trkpt>
      <trkpt lat="45.99439" lon="6.2783">
        <ele>1261</ele>
        <time>2016-10-02T15:06:40+02:00</time>
      </trkpt>
      <trkpt lat="45.99439" lon="6.27828">
        <ele>1260</ele>
        <time>2016-10-02T15:06:41+02:00</time>
      </trkpt>
      <trkpt lat="45.99439" lon="6.27826">
        <ele>1260</ele>
        <time>2016-10-02T15:06:42+02:00</time>
      </trkpt>
      <trkpt lat="45.99438" lon="6.27824">
        <ele>1260</ele>
        <time>2016-10-02T15:06:44+02:00</time>
      </trkpt>
      <trkpt lat="45.99438" lon="6.27821">
        <ele>1259</ele>
        <time>2016-10-02T15:06:45+02:00</time>
      </trkpt>
      <trkpt lat="45.99437" lon="6.27818">
        <ele>1259</ele>
        <time>2016-10-02T15:06:47+02:00</time>
      </trkpt>
      <trkpt lat="45.99436" lon="6.27815">
        <ele>1258</ele>
        <time>2016-10-02T15:06:49+02:00</time>
      </trkpt>
      <trkpt lat="45.99436" lon="6.27812">
        <ele>1258</ele>
        <time>2016-10-02T15:06:51+02:00</time>
      </trkpt>
      <trkpt lat="45.99436" lon="6.27809">
        <ele>1257</ele>
        <time>2016-10-02T15:06:52+02:00</time>
      </trkpt>
      <trkpt lat="45.99435" lon="6.27806">
        <ele>1257</ele>
        <time>2016-10-02T15:06:54+02:00</time>
      </trkpt>
      <trkpt lat="45.99435" lon="6.27803">
        <ele>1257</ele>
        <time>2016-10-02T15:06:56+02:00</time>
      </trkpt>
      <trkpt lat="45.99435" lon="6.278">
        <ele>1256</ele>
        <time>2016-10-02T15:06:58+02:00</time>
      </trkpt>
      <trkpt lat="45.99435" lon="6.27797">
        <ele>1255</ele>
        <time>2016-10-02T15:07:00+02:00</time>
      </trkpt>
      <trkpt lat="45.99435" lon="6.27793">
        <ele>1255</ele>
        <time>2016-10-02T15:07:02+02:00</time>
      </trkpt>
      <trkpt lat="45.99435" lon="6.2779">
        <ele>1254</ele>
        <time>2016-10-02T15:07:03+02:00</time>
      </trkpt>
      <trkpt lat="45.99436" lon="6.27787">
        <ele>1254</ele>
        <time>2016-10-02T15:07:05+02:00</time>
      </trkpt>
      <trkpt lat="45.99435" lon="6.27784">
        <ele>1253</ele>
        <time>2016-10-02T15:07:07+02:00</time>
      </trkpt>
      <trkpt lat="45.99435" lon="6.27781">
        <ele>1253</ele>
        <time>2016-10-02T15:07:08+02:00</time>
      </trkpt>
      <trkpt lat="45.99435" lon="6.27778">
        <ele>1252</ele>
        <time>2016-10-02T15:07:10+02:00</time>
      </trkpt>
      <trkpt lat="45.99435" lon="6.27775">
        <ele>1252</ele>
        <time>2016-10-02T15:07:12+02:00</time>
      </trkpt>
      <trkpt lat="45.99436" lon="6.27771">
        <ele>1251</ele>
        <time>2016-10-02T15:07:14+02:00</time>
      </trkpt>
      <trkpt lat="45.99437" lon="6.27768">
        <ele>1250</ele>
        <time>2016-10-02T15:07:16+02:00</time>
      </trkpt>
      <trkpt lat="45.99438" lon="6.27765">
        <ele>1250</ele>
        <time>2016-10-02T15:07:18+02:00</time>
      </trkpt>
      <trkpt lat="45.9944" lon="6.27763">
        <ele>1249</ele>
        <time>2016-10-02T15:07:20+02:00</time>
      </trkpt>
      <trkpt lat="45.99441" lon="6.27761">
        <ele>1249</ele>
        <time>2016-10-02T15:07:22+02:00</time>
      </trkpt>
      <trkpt lat="45.99442" lon="6.27758">
        <ele>1248</ele>
        <time>2016-10-02T15:07:23+02:00</time>
      </trkpt>
      <trkpt lat="45.99443" lon="6.27755">
        <ele>1247</ele>
        <time>2016-10-02T15:07:25+02:00</time>
      </trkpt>
      <trkpt lat="45.99444" lon="6.27753">
        <ele>1247</ele>
        <time>2016-10-02T15:07:27+02:00</time>
      </trkpt>
      <trkpt lat="45.99445" lon="6.2775">
        <ele>1246</ele>
        <time>2016-10-02T15:07:29+02:00</time>
      </trkpt>
      <trkpt lat="45.99447" lon="6.27748">
        <ele>1246</ele>
        <time>2016-10-02T15:07:30+02:00</time>
      </trkpt>
      <trkpt lat="45.99449" lon="6.27746">
        <ele>1245</ele>
        <time>2016-10-02T15:07:32+02:00</time>
      </trkpt>
      <trkpt lat="45.9945" lon="6.27744">
        <ele>1244</ele>
        <time>2016-10-02T15:07:34+02:00</time>
      </trkpt>
      <trkpt lat="45.99451" lon="6.27741">
        <ele>1244</ele>
        <time>2016-10-02T15:07:35+02:00</time>
      </trkpt>
      <trkpt lat="45.99451" lon="6.27738">
        <ele>1243</ele>
        <time>2016-10-02T15:07:37+02:00</time>
      </trkpt>
      <trkpt lat="45.99452" lon="6.27735">
        <ele>1242</ele>
        <time>2016-10-02T15:07:39+02:00</time>
      </trkpt>
      <trkpt lat="45.99453" lon="6.27732">
        <ele>1242</ele>
        <time>2016-10-02T15:07:41+02:00</time>
      </trkpt>
      <trkpt lat="45.99453" lon="6.27729">
        <ele>1241</ele>
        <time>2016-10-02T15:07:43+02:00</time>
      </trkpt>
      <trkpt lat="45.99453" lon="6.27725">
        <ele>1240</ele>
        <time>2016-10-02T15:07:45+02:00</time>
      </trkpt>
      <trkpt lat="45.99452" lon="6.27721">
        <ele>1240</ele>
        <time>2016-10-02T15:07:47+02:00</time>
      </trkpt>
      <trkpt lat="45.99451" lon="6.27718">
        <ele>1239</ele>
        <time>2016-10-02T15:07:50+02:00</time>
      </trkpt>
      <trkpt lat="45.9945" lon="6.27714">
        <ele>1238</ele>
        <time>2016-10-02T15:07:52+02:00</time>
      </trkpt>
      <trkpt lat="45.99449" lon="6.2771">
        <ele>1238</ele>
        <time>2016-10-02T15:07:54+02:00</time>
      </trkpt>
      <trkpt lat="45.99449" lon="6.27707">
        <ele>1237</ele>
        <time>2016-10-02T15:07:56+02:00</time>
      </trkpt>
      <trkpt lat="45.99449" lon="6.27704">
        <ele>1237</ele>
        <time>2016-10-02T15:07:58+02:00</time>
      </trkpt>
      <trkpt lat="45.99449" lon="6.27702">
        <ele>1236</ele>
        <time>2016-10-02T15:07:59+02:00</time>
      </trkpt>
      <trkpt lat="45.99449" lon="6.27699">
        <ele>1236</ele>
        <time>2016-10-02T15:08:01+02:00</time>
      </trkpt>
      <trkpt lat="45.99448" lon="6.27695">
        <ele>1235</ele>
        <time>2016-10-02T15:08:03+02:00</time>
      </trkpt>
      <trkpt lat="45.99448" lon="6.27692">
        <ele>1234</ele>
        <time>2016-10-02T15:08:05+02:00</time>
      </trkpt>
      <trkpt lat="45.99448" lon="6.27689">
        <ele>1234</ele>
        <time>2016-10-02T15:08:07+02:00</time>
      </trkpt>
      <trkpt lat="45.99448" lon="6.27685">
        <ele>1233</ele>
        <time>2016-10-02T15:08:09+02:00</time>
      </trkpt>
      <trkpt lat="45.99448" lon="6.27682">
        <ele>1232</ele>
        <time>2016-10-02T15:08:10+02:00</time>
      </trkpt>
      <trkpt lat="45.99449" lon="6.27679">
        <ele>1232</ele>
        <time>2016-10-02T15:08:12+02:00</time>
      </trkpt>
      <trkpt lat="45.9945" lon="6.27677">
        <ele>1231</ele>
        <time>2016-10-02T15:08:14+02:00</time>
      </trkpt>
      <trkpt lat="45.99451" lon="6.27675">
        <ele>1230</ele>
        <time>2016-10-02T15:08:16+02:00</time>
      </trkpt>
      <trkpt lat="45.99452" lon="6.27672">
        <ele>1230</ele>
        <time>2016-10-02T15:08:17+02:00</time>
      </trkpt>
      <trkpt lat="45.99454" lon="6.2767">
        <ele>1229</ele>
        <time>2016-10-02T15:08:19+02:00</time>
      </trkpt>
      <trkpt lat="45.99455" lon="6.27669">
        <ele>1229</ele>
        <time>2016-10-02T15:08:21+02:00</time>
      </trkpt>
      <trkpt lat="45.99457" lon="6.27668">
        <ele>1228</ele>
        <time>2016-10-02T15:08:22+02:00</time>
      </trkpt>
      <trkpt lat="45.99458" lon="6.27668">
        <ele>1228</ele>
        <time>2016-10-02T15:08:23+02:00</time>
      </trkpt>
      <trkpt lat="45.99459" lon="6.27667">
        <ele>1227</ele>
        <time>2016-10-02T15:08:24+02:00</time>
      </trkpt>
      <trkpt lat="45.99461" lon="6.27665">
        <ele>1227</ele>
        <time>2016-10-02T15:08:26+02:00</time>
      </trkpt>
      <trkpt lat="45.99461" lon="6.27664">
        <ele>1226</ele>
        <time>2016-10-02T15:08:27+02:00</time>
      </trkpt>
      <trkpt lat="45.99462" lon="6.27662">
        <ele>1226</ele>
        <time>2016-10-02T15:08:28+02:00</time>
      </trkpt>
      <trkpt lat="45.99463" lon="6.27661">
        <ele>1225</ele>
        <time>2016-10-02T15:08:29+02:00</time>
      </trkpt>
      <trkpt lat="45.99464" lon="6.27659">
        <ele>1225</ele>
        <time>2016-10-02T15:08:30+02:00</time>
      </trkpt>
      <trkpt lat="45.99465" lon="6.27658">
        <ele>1224</ele>
        <time>2016-10-02T15:08:31+02:00</time>
      </trkpt>
      <trkpt lat="45.99466" lon="6.27657">
        <ele>1224</ele>
        <time>2016-10-02T15:08:32+02:00</time>
      </trkpt>
      <trkpt lat="45.99466" lon="6.27656">
        <ele>1224</ele>
        <time>2016-10-02T15:08:33+02:00</time>
      </trkpt>
      <trkpt lat="45.99468" lon="6.27656">
        <ele>1223</ele>
        <time>2016-10-02T15:08:34+02:00</time>
      </trkpt>
      <trkpt lat="45.99469" lon="6.27656">
        <ele>1223</ele>
        <time>2016-10-02T15:08:35+02:00</time>
      </trkpt>
      <trkpt lat="45.9947" lon="6.27657">
        <ele>1223</ele>
        <time>2016-10-02T15:08:36+02:00</time>
      </trkpt>
      <trkpt lat="45.99472" lon="6.27657">
        <ele>1223</ele>
        <time>2016-10-02T15:08:37+02:00</time>
      </trkpt>
      <trkpt lat="45.99473" lon="6.27657">
        <ele>1223</ele>
        <time>2016-10-02T15:08:38+02:00</time>
      </trkpt>
      <trkpt lat="45.99474" lon="6.27657">
        <ele>1222</ele>
        <time>2016-10-02T15:08:39+02:00</time>
      </trkpt>
      <trkpt lat="45.99475" lon="6.27656">
        <ele>1222</ele>
        <time>2016-10-02T15:08:40+02:00</time>
      </trkpt>
      <trkpt lat="45.99476" lon="6.27655">
        <ele>1221</ele>
        <time>2016-10-02T15:08:42+02:00</time>
      </trkpt>
      <trkpt lat="45.99477" lon="6.27653">
        <ele>1221</ele>
        <time>2016-10-02T15:08:43+02:00</time>
      </trkpt>
      <trkpt lat="45.99478" lon="6.27652">
        <ele>1220</ele>
        <time>2016-10-02T15:08:44+02:00</time>
      </trkpt>
      <trkpt lat="45.99479" lon="6.27651">
        <ele>1220</ele>
        <time>2016-10-02T15:08:45+02:00</time>
      </trkpt>
      <trkpt lat="45.99482" lon="6.27649">
        <ele>1219</ele>
        <time>2016-10-02T15:08:48+02:00</time>
      </trkpt>
      <trkpt lat="45.99484" lon="6.27649">
        <ele>1218</ele>
        <time>2016-10-02T15:08:50+02:00</time>
      </trkpt>
      <trkpt lat="45.99485" lon="6.27648">
        <ele>1218</ele>
        <time>2016-10-02T15:08:51+02:00</time>
      </trkpt>
      <trkpt lat="45.99487" lon="6.27648">
        <ele>1218</ele>
        <time>2016-10-02T15:08:52+02:00</time>
      </trkpt>
      <trkpt lat="45.99488" lon="6.27648">
        <ele>1217</ele>
        <time>2016-10-02T15:08:54+02:00</time>
      </trkpt>
      <trkpt lat="45.9949" lon="6.27649">
        <ele>1217</ele>
        <time>2016-10-02T15:08:55+02:00</time>
      </trkpt>
      <trkpt lat="45.99491" lon="6.27649">
        <ele>1217</ele>
        <time>2016-10-02T15:08:56+02:00</time>
      </trkpt>
      <trkpt lat="45.99492" lon="6.27649">
        <ele>1217</ele>
        <time>2016-10-02T15:08:57+02:00</time>
      </trkpt>
      <trkpt lat="45.99493" lon="6.27647">
        <ele>1216</ele>
        <time>2016-10-02T15:08:58+02:00</time>
      </trkpt>
      <trkpt lat="45.99492" lon="6.27646">
        <ele>1216</ele>
        <time>2016-10-02T15:08:59+02:00</time>
      </trkpt>
      <trkpt lat="45.99492" lon="6.27644">
        <ele>1216</ele>
        <time>2016-10-02T15:09:00+02:00</time>
      </trkpt>
      <trkpt lat="45.99492" lon="6.27643">
        <ele>1215</ele>
        <time>2016-10-02T15:09:01+02:00</time>
      </trkpt>
      <trkpt lat="45.99491" lon="6.27642">
        <ele>1215</ele>
        <time>2016-10-02T15:09:02+02:00</time>
      </trkpt>
      <trkpt lat="45.99489" lon="6.27641">
        <ele>1216</ele>
        <time>2016-10-02T15:09:03+02:00</time>
      </trkpt>
      <trkpt lat="45.99487" lon="6.27641">
        <ele>1216</ele>
        <time>2016-10-02T15:09:05+02:00</time>
      </trkpt>
      <trkpt lat="45.99485" lon="6.2764">
        <ele>1216</ele>
        <time>2016-10-02T15:09:07+02:00</time>
      </trkpt>
      <trkpt lat="45.99483" lon="6.2764">
        <ele>1216</ele>
        <time>2016-10-02T15:09:08+02:00</time>
      </trkpt>
      <trkpt lat="45.99482" lon="6.27639">
        <ele>1216</ele>
        <time>2016-10-02T15:09:09+02:00</time>
      </trkpt>
      <trkpt lat="45.99481" lon="6.27637">
        <ele>1216</ele>
        <time>2016-10-02T15:09:11+02:00</time>
      </trkpt>
      <trkpt lat="45.9948" lon="6.27635">
        <ele>1216</ele>
        <time>2016-10-02T15:09:12+02:00</time>
      </trkpt>
      <trkpt lat="45.99478" lon="6.27633">
        <ele>1216</ele>
        <time>2016-10-02T15:09:14+02:00</time>
      </trkpt>
      <trkpt lat="45.99477" lon="6.27632">
        <ele>1216</ele>
        <time>2016-10-02T15:09:15+02:00</time>
      </trkpt>
      <trkpt lat="45.99475" lon="6.27632">
        <ele>1216</ele>
        <time>2016-10-02T15:09:16+02:00</time>
      </trkpt>
      <trkpt lat="45.99474" lon="6.27632">
        <ele>1216</ele>
        <time>2016-10-02T15:09:18+02:00</time>
      </trkpt>
      <trkpt lat="45.99472" lon="6.27632">
        <ele>1217</ele>
        <time>2016-10-02T15:09:19+02:00</time>
      </trkpt>
      <trkpt lat="45.99471" lon="6.27631">
        <ele>1217</ele>
        <time>2016-10-02T15:09:20+02:00</time>
      </trkpt>
      <trkpt lat="45.9947" lon="6.27631">
        <ele>1217</ele>
        <time>2016-10-02T15:09:21+02:00</time>
      </trkpt>
      <trkpt lat="45.99468" lon="6.2763">
        <ele>1217</ele>
        <time>2016-10-02T15:09:22+02:00</time>
      </trkpt>
      <trkpt lat="45.99466" lon="6.27629">
        <ele>1217</ele>
        <time>2016-10-02T15:09:23+02:00</time>
      </trkpt>
      <trkpt lat="45.99465" lon="6.27629">
        <ele>1217</ele>
        <time>2016-10-02T15:09:25+02:00</time>
      </trkpt>
      <trkpt lat="45.99463" lon="6.27628">
        <ele>1218</ele>
        <time>2016-10-02T15:09:26+02:00</time>
      </trkpt>
      <trkpt lat="45.99461" lon="6.27627">
        <ele>1218</ele>
        <time>2016-10-02T15:09:28+02:00</time>
      </trkpt>
      <trkpt lat="45.99459" lon="6.27626">
        <ele>1218</ele>
        <time>2016-10-02T15:09:29+02:00</time>
      </trkpt>
      <trkpt lat="45.99458" lon="6.27625">
        <ele>1218</ele>
        <time>2016-10-02T15:09:31+02:00</time>
      </trkpt>
      <trkpt lat="45.99456" lon="6.27623">
        <ele>1218</ele>
        <time>2016-10-02T15:09:33+02:00</time>
      </trkpt>
      <trkpt lat="45.99454" lon="6.27622">
        <ele>1218</ele>
        <time>2016-10-02T15:09:34+02:00</time>
      </trkpt>
      <trkpt lat="45.99452" lon="6.27622">
        <ele>1219</ele>
        <time>2016-10-02T15:09:36+02:00</time>
      </trkpt>
      <trkpt lat="45.9945" lon="6.27622">
        <ele>1219</ele>
        <time>2016-10-02T15:09:37+02:00</time>
      </trkpt>
      <trkpt lat="45.99449" lon="6.27621">
        <ele>1219</ele>
        <time>2016-10-02T15:09:38+02:00</time>
      </trkpt>
      <trkpt lat="45.99447" lon="6.27619">
        <ele>1219</ele>
        <time>2016-10-02T15:09:40+02:00</time>
      </trkpt>
      <trkpt lat="45.99444" lon="6.27617">
        <ele>1219</ele>
        <time>2016-10-02T15:09:43+02:00</time>
      </trkpt>
      <trkpt lat="45.99442" lon="6.27615">
        <ele>1219</ele>
        <time>2016-10-02T15:09:45+02:00</time>
      </trkpt>
      <trkpt lat="45.99439" lon="6.27613">
        <ele>1220</ele>
        <time>2016-10-02T15:09:47+02:00</time>
      </trkpt>
      <trkpt lat="45.99437" lon="6.27611">
        <ele>1220</ele>
        <time>2016-10-02T15:09:50+02:00</time>
      </trkpt>
      <trkpt lat="45.99434" lon="6.27608">
        <ele>1220</ele>
        <time>2016-10-02T15:09:52+02:00</time>
      </trkpt>
      <trkpt lat="45.99432" lon="6.27606">
        <ele>1220</ele>
        <time>2016-10-02T15:09:54+02:00</time>
      </trkpt>
      <trkpt lat="45.99431" lon="6.27604">
        <ele>1220</ele>
        <time>2016-10-02T15:09:56+02:00</time>
      </trkpt>
      <trkpt lat="45.99429" lon="6.27602">
        <ele>1220</ele>
        <time>2016-10-02T15:09:58+02:00</time>
      </trkpt>
      <trkpt lat="45.99429" lon="6.27599">
        <ele>1219</ele>
        <time>2016-10-02T15:10:00+02:00</time>
      </trkpt>
      <trkpt lat="45.99428" lon="6.27597">
        <ele>1219</ele>
        <time>2016-10-02T15:10:01+02:00</time>
      </trkpt>
      <trkpt lat="45.99427" lon="6.27595">
        <ele>1219</ele>
        <time>2016-10-02T15:10:03+02:00</time>
      </trkpt>
      <trkpt lat="45.99426" lon="6.27592">
        <ele>1219</ele>
        <time>2016-10-02T15:10:04+02:00</time>
      </trkpt>
      <trkpt lat="45.99425" lon="6.27589">
        <ele>1218</ele>
        <time>2016-10-02T15:10:06+02:00</time>
      </trkpt>
      <trkpt lat="45.99424" lon="6.27586">
        <ele>1218</ele>
        <time>2016-10-02T15:10:08+02:00</time>
      </trkpt>
      <trkpt lat="45.99424" lon="6.27584">
        <ele>1217</ele>
        <time>2016-10-02T15:10:10+02:00</time>
      </trkpt>
      <trkpt lat="45.99424" lon="6.27582">
        <ele>1217</ele>
        <time>2016-10-02T15:10:11+02:00</time>
      </trkpt>
      <trkpt lat="45.99424" lon="6.2758">
        <ele>1216</ele>
        <time>2016-10-02T15:10:12+02:00</time>
      </trkpt>
      <trkpt lat="45.99425" lon="6.27578">
        <ele>1216</ele>
        <time>2016-10-02T15:10:13+02:00</time>
      </trkpt>
      <trkpt lat="45.99425" lon="6.27576">
        <ele>1215</ele>
        <time>2016-10-02T15:10:15+02:00</time>
      </trkpt>
      <trkpt lat="45.99425" lon="6.27573">
        <ele>1214</ele>
        <time>2016-10-02T15:10:16+02:00</time>
      </trkpt>
      <trkpt lat="45.99425" lon="6.2757">
        <ele>1213</ele>
        <time>2016-10-02T15:10:18+02:00</time>
      </trkpt>
      <trkpt lat="45.99426" lon="6.27568">
        <ele>1213</ele>
        <time>2016-10-02T15:10:19+02:00</time>
      </trkpt>
      <trkpt lat="45.99426" lon="6.27566">
        <ele>1212</ele>
        <time>2016-10-02T15:10:21+02:00</time>
      </trkpt>
      <trkpt lat="45.99426" lon="6.27564">
        <ele>1212</ele>
        <time>2016-10-02T15:10:22+02:00</time>
      </trkpt>
      <trkpt lat="45.99425" lon="6.27561">
        <ele>1211</ele>
        <time>2016-10-02T15:10:24+02:00</time>
      </trkpt>
      <trkpt lat="45.99423" lon="6.27558">
        <ele>1211</ele>
        <time>2016-10-02T15:10:26+02:00</time>
      </trkpt>
      <trkpt lat="45.99421" lon="6.27556">
        <ele>1211</ele>
        <time>2016-10-02T15:10:28+02:00</time>
      </trkpt>
      <trkpt lat="45.9942" lon="6.27555">
        <ele>1211</ele>
        <time>2016-10-02T15:10:29+02:00</time>
      </trkpt>
      <trkpt lat="45.99419" lon="6.27554">
        <ele>1211</ele>
        <time>2016-10-02T15:10:30+02:00</time>
      </trkpt>
      <trkpt lat="45.99418" lon="6.27552">
        <ele>1212</ele>
        <time>2016-10-02T15:10:31+02:00</time>
      </trkpt>
      <trkpt lat="45.99417" lon="6.27551">
        <ele>1211</ele>
        <time>2016-10-02T15:10:33+02:00</time>
      </trkpt>
      <trkpt lat="45.99416" lon="6.27548">
        <ele>1211</ele>
        <time>2016-10-02T15:10:35+02:00</time>
      </trkpt>
      <trkpt lat="45.99414" lon="6.27545">
        <ele>1210</ele>
        <time>2016-10-02T15:10:37+02:00</time>
      </trkpt>
      <trkpt lat="45.99413" lon="6.27542">
        <ele>1209</ele>
        <time>2016-10-02T15:10:39+02:00</time>
      </trkpt>
      <trkpt lat="45.99411" lon="6.27539">
        <ele>1208</ele>
        <time>2016-10-02T15:10:41+02:00</time>
      </trkpt>
      <trkpt lat="45.9941" lon="6.27535">
        <ele>1208</ele>
        <time>2016-10-02T15:10:43+02:00</time>
      </trkpt>
      <trkpt lat="45.99408" lon="6.27533">
        <ele>1207</ele>
        <time>2016-10-02T15:10:45+02:00</time>
      </trkpt>
      <trkpt lat="45.99407" lon="6.2753">
        <ele>1206</ele>
        <time>2016-10-02T15:10:47+02:00</time>
      </trkpt>
      <trkpt lat="45.99406" lon="6.27527">
        <ele>1206</ele>
        <time>2016-10-02T15:10:49+02:00</time>
      </trkpt>
      <trkpt lat="45.99405" lon="6.27524">
        <ele>1205</ele>
        <time>2016-10-02T15:10:51+02:00</time>
      </trkpt>
      <trkpt lat="45.99406" lon="6.2752">
        <ele>1204</ele>
        <time>2016-10-02T15:10:53+02:00</time>
      </trkpt>
      <trkpt lat="45.99406" lon="6.27516">
        <ele>1203</ele>
        <time>2016-10-02T15:10:56+02:00</time>
      </trkpt>
      <trkpt lat="45.99407" lon="6.27512">
        <ele>1203</ele>
        <time>2016-10-02T15:10:58+02:00</time>
      </trkpt>
      <trkpt lat="45.99408" lon="6.27509">
        <ele>1202</ele>
        <time>2016-10-02T15:11:00+02:00</time>
      </trkpt>
      <trkpt lat="45.99409" lon="6.27506">
        <ele>1201</ele>
        <time>2016-10-02T15:11:02+02:00</time>
      </trkpt>
      <trkpt lat="45.99411" lon="6.27504">
        <ele>1201</ele>
        <time>2016-10-02T15:11:04+02:00</time>
      </trkpt>
      <trkpt lat="45.99412" lon="6.27502">
        <ele>1200</ele>
        <time>2016-10-02T15:11:06+02:00</time>
      </trkpt>
      <trkpt lat="45.99413" lon="6.275">
        <ele>1200</ele>
        <time>2016-10-02T15:11:07+02:00</time>
      </trkpt>
      <trkpt lat="45.99414" lon="6.27498">
        <ele>1199</ele>
        <time>2016-10-02T15:11:08+02:00</time>
      </trkpt>
      <trkpt lat="45.99414" lon="6.27496">
        <ele>1199</ele>
        <time>2016-10-02T15:11:09+02:00</time>
      </trkpt>
      <trkpt lat="45.99414" lon="6.27494">
        <ele>1198</ele>
        <time>2016-10-02T15:11:11+02:00</time>
      </trkpt>
      <trkpt lat="45.99414" lon="6.27492">
        <ele>1197</ele>
        <time>2016-10-02T15:11:12+02:00</time>
      </trkpt>
      <trkpt lat="45.99413" lon="6.2749">
        <ele>1196</ele>
        <time>2016-10-02T15:11:14+02:00</time>
      </trkpt>
      <trkpt lat="45.99411" lon="6.27488">
        <ele>1196</ele>
        <time>2016-10-02T15:11:15+02:00</time>
      </trkpt>
      <trkpt lat="45.9941" lon="6.27487">
        <ele>1195</ele>
        <time>2016-10-02T15:11:17+02:00</time>
      </trkpt>
      <trkpt lat="45.99409" lon="6.27485">
        <ele>1195</ele>
        <time>2016-10-02T15:11:18+02:00</time>
      </trkpt>
      <trkpt lat="45.99409" lon="6.27483">
        <ele>1194</ele>
        <time>2016-10-02T15:11:19+02:00</time>
      </trkpt>
      <trkpt lat="45.99408" lon="6.27482">
        <ele>1194</ele>
        <time>2016-10-02T15:11:20+02:00</time>
      </trkpt>
      <trkpt lat="45.99408" lon="6.2748">
        <ele>1193</ele>
        <time>2016-10-02T15:11:21+02:00</time>
      </trkpt>
      <trkpt lat="45.99407" lon="6.27479">
        <ele>1193</ele>
        <time>2016-10-02T15:11:21+02:00</time>
      </trkpt>
      <trkpt lat="45.99407" lon="6.27479">
        <ele>1193</ele>
        <time>2016-10-02T15:11:22+02:00</time>
      </trkpt>
      <trkpt lat="45.99407" lon="6.27477">
        <ele>1192</ele>
        <time>2016-10-02T15:11:23+02:00</time>
      </trkpt>
      <trkpt lat="45.99407" lon="6.27477">
        <ele>1192</ele>
        <time>2016-10-02T15:11:23+02:00</time>
      </trkpt>
      <trkpt lat="45.99407" lon="6.27476">
        <ele>1192</ele>
        <time>2016-10-02T15:11:24+02:00</time>
      </trkpt>
      <trkpt lat="45.99407" lon="6.27474">
        <ele>1191</ele>
        <time>2016-10-02T15:11:25+02:00</time>
      </trkpt>
      <trkpt lat="45.99407" lon="6.27473">
        <ele>1191</ele>
        <time>2016-10-02T15:11:26+02:00</time>
      </trkpt>
      <trkpt lat="45.99406" lon="6.27471">
        <ele>1190</ele>
        <time>2016-10-02T15:11:27+02:00</time>
      </trkpt>
      <trkpt lat="45.99406" lon="6.2747">
        <ele>1190</ele>
        <time>2016-10-02T15:11:28+02:00</time>
      </trkpt>
      <trkpt lat="45.99405" lon="6.2747">
        <ele>1190</ele>
        <time>2016-10-02T15:11:28+02:00</time>
      </trkpt>
      <trkpt lat="45.99404" lon="6.27469">
        <ele>1190</ele>
        <time>2016-10-02T15:11:29+02:00</time>
      </trkpt>
      <trkpt lat="45.99403" lon="6.27469">
        <ele>1190</ele>
        <time>2016-10-02T15:11:30+02:00</time>
      </trkpt>
      <trkpt lat="45.99403" lon="6.27468">
        <ele>1190</ele>
        <time>2016-10-02T15:11:30+02:00</time>
      </trkpt>
      <trkpt lat="45.99402" lon="6.27468">
        <ele>1189</ele>
        <time>2016-10-02T15:11:31+02:00</time>
      </trkpt>
      <trkpt lat="45.99401" lon="6.27467">
        <ele>1189</ele>
        <time>2016-10-02T15:11:32+02:00</time>
      </trkpt>
      <trkpt lat="45.99401" lon="6.27466">
        <ele>1189</ele>
        <time>2016-10-02T15:11:32+02:00</time>
      </trkpt>
      <trkpt lat="45.994" lon="6.27464">
        <ele>1189</ele>
        <time>2016-10-02T15:11:33+02:00</time>
      </trkpt>
      <trkpt lat="45.994" lon="6.27463">
        <ele>1188</ele>
        <time>2016-10-02T15:11:34+02:00</time>
      </trkpt>
      <trkpt lat="45.99401" lon="6.2746">
        <ele>1187</ele>
        <time>2016-10-02T15:11:36+02:00</time>
      </trkpt>
      <trkpt lat="45.99401" lon="6.27458">
        <ele>1186</ele>
        <time>2016-10-02T15:11:37+02:00</time>
      </trkpt>
      <trkpt lat="45.99401" lon="6.27457">
        <ele>1186</ele>
        <time>2016-10-02T15:11:38+02:00</time>
      </trkpt>
      <trkpt lat="45.99401" lon="6.27456">
        <ele>1186</ele>
        <time>2016-10-02T15:11:38+02:00</time>
      </trkpt>
      <trkpt lat="45.99401" lon="6.27455">
        <ele>1185</ele>
        <time>2016-10-02T15:11:39+02:00</time>
      </trkpt>
      <trkpt lat="45.99401" lon="6.27453">
        <ele>1185</ele>
        <time>2016-10-02T15:11:40+02:00</time>
      </trkpt>
      <trkpt lat="45.99401" lon="6.27451">
        <ele>1184</ele>
        <time>2016-10-02T15:11:42+02:00</time>
      </trkpt>
      <trkpt lat="45.994" lon="6.27448">
        <ele>1183</ele>
        <time>2016-10-02T15:11:43+02:00</time>
      </trkpt>
      <trkpt lat="45.994" lon="6.27446">
        <ele>1183</ele>
        <time>2016-10-02T15:11:45+02:00</time>
      </trkpt>
      <trkpt lat="45.99399" lon="6.27444">
        <ele>1182</ele>
        <time>2016-10-02T15:11:46+02:00</time>
      </trkpt>
      <trkpt lat="45.99399" lon="6.27442">
        <ele>1181</ele>
        <time>2016-10-02T15:11:47+02:00</time>
      </trkpt>
      <trkpt lat="45.99398" lon="6.2744">
        <ele>1181</ele>
        <time>2016-10-02T15:11:49+02:00</time>
      </trkpt>
      <trkpt lat="45.99397" lon="6.27439">
        <ele>1181</ele>
        <time>2016-10-02T15:11:50+02:00</time>
      </trkpt>
      <trkpt lat="45.99396" lon="6.27437">
        <ele>1181</ele>
        <time>2016-10-02T15:11:51+02:00</time>
      </trkpt>
      <trkpt lat="45.99395" lon="6.27436">
        <ele>1180</ele>
        <time>2016-10-02T15:11:52+02:00</time>
      </trkpt>
      <trkpt lat="45.99394" lon="6.27434">
        <ele>1180</ele>
        <time>2016-10-02T15:11:53+02:00</time>
      </trkpt>
      <trkpt lat="45.99393" lon="6.27432">
        <ele>1180</ele>
        <time>2016-10-02T15:11:55+02:00</time>
      </trkpt>
      <trkpt lat="45.99392" lon="6.2743">
        <ele>1180</ele>
        <time>2016-10-02T15:11:56+02:00</time>
      </trkpt>
      <trkpt lat="45.9939" lon="6.27428">
        <ele>1179</ele>
        <time>2016-10-02T15:11:58+02:00</time>
      </trkpt>
      <trkpt lat="45.99389" lon="6.27425">
        <ele>1179</ele>
        <time>2016-10-02T15:12:00+02:00</time>
      </trkpt>
      <trkpt lat="45.99388" lon="6.27422">
        <ele>1178</ele>
        <time>2016-10-02T15:12:02+02:00</time>
      </trkpt>
      <trkpt lat="45.99387" lon="6.27419">
        <ele>1178</ele>
        <time>2016-10-02T15:12:04+02:00</time>
      </trkpt>
      <trkpt lat="45.99386" lon="6.27416">
        <ele>1177</ele>
        <time>2016-10-02T15:12:06+02:00</time>
      </trkpt>
      <trkpt lat="45.99385" lon="6.27413">
        <ele>1176</ele>
        <time>2016-10-02T15:12:08+02:00</time>
      </trkpt>
      <trkpt lat="45.99385" lon="6.2741">
        <ele>1175</ele>
        <time>2016-10-02T15:12:10+02:00</time>
      </trkpt>
      <trkpt lat="45.99385" lon="6.27408">
        <ele>1174</ele>
        <time>2016-10-02T15:12:11+02:00</time>
      </trkpt>
      <trkpt lat="45.99385" lon="6.27405">
        <ele>1173</ele>
        <time>2016-10-02T15:12:12+02:00</time>
      </trkpt>
      <trkpt lat="45.99385" lon="6.27403">
        <ele>1172</ele>
        <time>2016-10-02T15:12:14+02:00</time>
      </trkpt>
      <trkpt lat="45.99385" lon="6.274">
        <ele>1171</ele>
        <time>2016-10-02T15:12:15+02:00</time>
      </trkpt>
      <trkpt lat="45.99385" lon="6.27398">
        <ele>1170</ele>
        <time>2016-10-02T15:12:17+02:00</time>
      </trkpt>
      <trkpt lat="45.99385" lon="6.27396">
        <ele>1169</ele>
        <time>2016-10-02T15:12:18+02:00</time>
      </trkpt>
      <trkpt lat="45.99385" lon="6.27394">
        <ele>1169</ele>
        <time>2016-10-02T15:12:19+02:00</time>
      </trkpt>
      <trkpt lat="45.99385" lon="6.27393">
        <ele>1168</ele>
        <time>2016-10-02T15:12:20+02:00</time>
      </trkpt>
      <trkpt lat="45.99384" lon="6.27392">
        <ele>1168</ele>
        <time>2016-10-02T15:12:21+02:00</time>
      </trkpt>
      <trkpt lat="45.99383" lon="6.2739">
        <ele>1168</ele>
        <time>2016-10-02T15:12:22+02:00</time>
      </trkpt>
      <trkpt lat="45.99381" lon="6.2739">
        <ele>1168</ele>
        <time>2016-10-02T15:12:23+02:00</time>
      </trkpt>
      <trkpt lat="45.9938" lon="6.27389">
        <ele>1169</ele>
        <time>2016-10-02T15:12:24+02:00</time>
      </trkpt>
      <trkpt lat="45.99378" lon="6.27388">
        <ele>1169</ele>
        <time>2016-10-02T15:12:26+02:00</time>
      </trkpt>
      <trkpt lat="45.99377" lon="6.27387">
        <ele>1169</ele>
        <time>2016-10-02T15:12:27+02:00</time>
      </trkpt>
      <trkpt lat="45.99376" lon="6.27387">
        <ele>1169</ele>
        <time>2016-10-02T15:12:28+02:00</time>
      </trkpt>
      <trkpt lat="45.99374" lon="6.27386">
        <ele>1169</ele>
        <time>2016-10-02T15:12:29+02:00</time>
      </trkpt>
      <trkpt lat="45.99373" lon="6.27386">
        <ele>1170</ele>
        <time>2016-10-02T15:12:30+02:00</time>
      </trkpt>
      <trkpt lat="45.99371" lon="6.27385">
        <ele>1170</ele>
        <time>2016-10-02T15:12:32+02:00</time>
      </trkpt>
      <trkpt lat="45.99369" lon="6.27384">
        <ele>1170</ele>
        <time>2016-10-02T15:12:34+02:00</time>
      </trkpt>
      <trkpt lat="45.99367" lon="6.27382">
        <ele>1171</ele>
        <time>2016-10-02T15:12:36+02:00</time>
      </trkpt>
      <trkpt lat="45.99364" lon="6.27381">
        <ele>1171</ele>
        <time>2016-10-02T15:12:38+02:00</time>
      </trkpt>
      <trkpt lat="45.99362" lon="6.2738">
        <ele>1172</ele>
        <time>2016-10-02T15:12:40+02:00</time>
      </trkpt>
      <trkpt lat="45.9936" lon="6.2738">
        <ele>1172</ele>
        <time>2016-10-02T15:12:42+02:00</time>
      </trkpt>
      <trkpt lat="45.99357" lon="6.2738">
        <ele>1173</ele>
        <time>2016-10-02T15:12:44+02:00</time>
      </trkpt>
      <trkpt lat="45.99356" lon="6.27381">
        <ele>1174</ele>
        <time>2016-10-02T15:12:45+02:00</time>
      </trkpt>
      <trkpt lat="45.99354" lon="6.27382">
        <ele>1175</ele>
        <time>2016-10-02T15:12:47+02:00</time>
      </trkpt>
      <trkpt lat="45.99352" lon="6.27383">
        <ele>1176</ele>
        <time>2016-10-02T15:12:48+02:00</time>
      </trkpt>
      <trkpt lat="45.99351" lon="6.27384">
        <ele>1177</ele>
        <time>2016-10-02T15:12:50+02:00</time>
      </trkpt>
      <trkpt lat="45.9935" lon="6.27386">
        <ele>1178</ele>
        <time>2016-10-02T15:12:51+02:00</time>
      </trkpt>
      <trkpt lat="45.99349" lon="6.27388">
        <ele>1179</ele>
        <time>2016-10-02T15:12:52+02:00</time>
      </trkpt>
      <trkpt lat="45.99347" lon="6.27389">
        <ele>1180</ele>
        <time>2016-10-02T15:12:54+02:00</time>
      </trkpt>
      <trkpt lat="45.99346" lon="6.2739">
        <ele>1180</ele>
        <time>2016-10-02T15:12:55+02:00</time>
      </trkpt>
      <trkpt lat="45.99344" lon="6.27391">
        <ele>1181</ele>
        <time>2016-10-02T15:12:57+02:00</time>
      </trkpt>
      <trkpt lat="45.99343" lon="6.27393">
        <ele>1182</ele>
        <time>2016-10-02T15:12:58+02:00</time>
      </trkpt>
      <trkpt lat="45.99342" lon="6.27394">
        <ele>1183</ele>
        <time>2016-10-02T15:13:00+02:00</time>
      </trkpt>
      <trkpt lat="45.9934" lon="6.27395">
        <ele>1184</ele>
        <time>2016-10-02T15:13:01+02:00</time>
      </trkpt>
      <trkpt lat="45.99338" lon="6.27397">
        <ele>1185</ele>
        <time>2016-10-02T15:13:03+02:00</time>
      </trkpt>
      <trkpt lat="45.99336" lon="6.27399">
        <ele>1187</ele>
        <time>2016-10-02T15:13:05+02:00</time>
      </trkpt>
      <trkpt lat="45.99334" lon="6.27401">
        <ele>1188</ele>
        <time>2016-10-02T15:13:07+02:00</time>
      </trkpt>
      <trkpt lat="45.99333" lon="6.27403">
        <ele>1189</ele>
        <time>2016-10-02T15:13:09+02:00</time>
      </trkpt>
      <trkpt lat="45.99332" lon="6.27405">
        <ele>1189</ele>
        <time>2016-10-02T15:13:10+02:00</time>
      </trkpt>
      <trkpt lat="45.9933" lon="6.27407">
        <ele>1188</ele>
        <time>2016-10-02T15:13:12+02:00</time>
      </trkpt>
      <trkpt lat="45.99326" lon="6.27407">
        <ele>1187</ele>
        <time>2016-10-02T15:13:15+02:00</time>
      </trkpt>
      <trkpt lat="45.99323" lon="6.27407">
        <ele>1185</ele>
        <time>2016-10-02T15:13:19+02:00</time>
      </trkpt>
      <trkpt lat="45.9932" lon="6.27407">
        <ele>1183</ele>
        <time>2016-10-02T15:13:21+02:00</time>
      </trkpt>
      <trkpt lat="45.99319" lon="6.27407">
        <ele>1183</ele>
        <time>2016-10-02T15:13:22+02:00</time>
      </trkpt>
      <trkpt lat="45.99317" lon="6.27407">
        <ele>1182</ele>
        <time>2016-10-02T15:13:24+02:00</time>
      </trkpt>
      <trkpt lat="45.99315" lon="6.27408">
        <ele>1181</ele>
        <time>2016-10-02T15:13:25+02:00</time>
      </trkpt>
      <trkpt lat="45.99314" lon="6.27409">
        <ele>1181</ele>
        <time>2016-10-02T15:13:27+02:00</time>
      </trkpt>
      <trkpt lat="45.99312" lon="6.27411">
        <ele>1180</ele>
        <time>2016-10-02T15:13:28+02:00</time>
      </trkpt>
      <trkpt lat="45.9931" lon="6.27413">
        <ele>1180</ele>
        <time>2016-10-02T15:13:30+02:00</time>
      </trkpt>
      <trkpt lat="45.99309" lon="6.27416">
        <ele>1179</ele>
        <time>2016-10-02T15:13:32+02:00</time>
      </trkpt>
      <trkpt lat="45.99308" lon="6.27417">
        <ele>1179</ele>
        <time>2016-10-02T15:13:34+02:00</time>
      </trkpt>
      <trkpt lat="45.99307" lon="6.27419">
        <ele>1179</ele>
        <time>2016-10-02T15:13:35+02:00</time>
      </trkpt>
      <trkpt lat="45.99307" lon="6.27421">
        <ele>1178</ele>
        <time>2016-10-02T15:13:36+02:00</time>
      </trkpt>
      <trkpt lat="45.99307" lon="6.27422">
        <ele>1178</ele>
        <time>2016-10-02T15:13:37+02:00</time>
      </trkpt>
      <trkpt lat="45.99306" lon="6.27424">
        <ele>1178</ele>
        <time>2016-10-02T15:13:38+02:00</time>
      </trkpt>
      <trkpt lat="45.99305" lon="6.27426">
        <ele>1177</ele>
        <time>2016-10-02T15:13:40+02:00</time>
      </trkpt>
      <trkpt lat="45.99304" lon="6.27428">
        <ele>1177</ele>
        <time>2016-10-02T15:13:41+02:00</time>
      </trkpt>
      <trkpt lat="45.99304" lon="6.2743">
        <ele>1176</ele>
        <time>2016-10-02T15:13:43+02:00</time>
      </trkpt>
      <trkpt lat="45.99303" lon="6.27431">
        <ele>1176</ele>
        <time>2016-10-02T15:13:44+02:00</time>
      </trkpt>
      <trkpt lat="45.99303" lon="6.27433">
        <ele>1176</ele>
        <time>2016-10-02T15:13:45+02:00</time>
      </trkpt>
      <trkpt lat="45.99303" lon="6.27435">
        <ele>1176</ele>
        <time>2016-10-02T15:13:46+02:00</time>
      </trkpt>
      <trkpt lat="45.99303" lon="6.27437">
        <ele>1176</ele>
        <time>2016-10-02T15:13:47+02:00</time>
      </trkpt>
      <trkpt lat="45.99302" lon="6.27439">
        <ele>1175</ele>
        <time>2016-10-02T15:13:49+02:00</time>
      </trkpt>
      <trkpt lat="45.99302" lon="6.27441">
        <ele>1175</ele>
        <time>2016-10-02T15:13:50+02:00</time>
      </trkpt>
      <trkpt lat="45.99302" lon="6.27444">
        <ele>1175</ele>
        <time>2016-10-02T15:13:52+02:00</time>
      </trkpt>
      <trkpt lat="45.99302" lon="6.27445">
        <ele>1175</ele>
        <time>2016-10-02T15:13:53+02:00</time>
      </trkpt>
      <trkpt lat="45.99303" lon="6.27447">
        <ele>1175</ele>
        <time>2016-10-02T15:13:53+02:00</time>
      </trkpt>
      <trkpt lat="45.99302" lon="6.27447">
        <ele>1175</ele>
        <time>2016-10-02T15:13:54+02:00</time>
      </trkpt>
      <trkpt lat="45.99302" lon="6.27445">
        <ele>1175</ele>
        <time>2016-10-02T15:13:55+02:00</time>
      </trkpt>
      <trkpt lat="45.99301" lon="6.27444">
        <ele>1174</ele>
        <time>2016-10-02T15:13:56+02:00</time>
      </trkpt>
      <trkpt lat="45.993" lon="6.27442">
        <ele>1174</ele>
        <time>2016-10-02T15:13:57+02:00</time>
      </trkpt>
      <trkpt lat="45.993" lon="6.27441">
        <ele>1174</ele>
        <time>2016-10-02T15:13:58+02:00</time>
      </trkpt>
      <trkpt lat="45.99299" lon="6.27439">
        <ele>1173</ele>
        <time>2016-10-02T15:13:59+02:00</time>
      </trkpt>
      <trkpt lat="45.99299" lon="6.27438">
        <ele>1173</ele>
        <time>2016-10-02T15:14:00+02:00</time>
      </trkpt>
      <trkpt lat="45.99298" lon="6.27437">
        <ele>1173</ele>
        <time>2016-10-02T15:14:00+02:00</time>
      </trkpt>
      <trkpt lat="45.99298" lon="6.27436">
        <ele>1173</ele>
        <time>2016-10-02T15:14:01+02:00</time>
      </trkpt>
      <trkpt lat="45.99298" lon="6.27435">
        <ele>1172</ele>
        <time>2016-10-02T15:14:02+02:00</time>
      </trkpt>
      <trkpt lat="45.99297" lon="6.27434">
        <ele>1172</ele>
        <time>2016-10-02T15:14:02+02:00</time>
      </trkpt>
      <trkpt lat="45.99297" lon="6.27433">
        <ele>1172</ele>
        <time>2016-10-02T15:14:03+02:00</time>
      </trkpt>
      <trkpt lat="45.99296" lon="6.27432">
        <ele>1172</ele>
        <time>2016-10-02T15:14:04+02:00</time>
      </trkpt>
      <trkpt lat="45.99296" lon="6.27432">
        <ele>1171</ele>
        <time>2016-10-02T15:14:05+02:00</time>
      </trkpt>
      <trkpt lat="45.99295" lon="6.27431">
        <ele>1171</ele>
        <time>2016-10-02T15:14:06+02:00</time>
      </trkpt>
      <trkpt lat="45.99294" lon="6.27432">
        <ele>1170</ele>
        <time>2016-10-02T15:14:07+02:00</time>
      </trkpt>
      <trkpt lat="45.99293" lon="6.27432">
        <ele>1170</ele>
        <time>2016-10-02T15:14:08+02:00</time>
      </trkpt>
      <trkpt lat="45.99292" lon="6.27433">
        <ele>1169</ele>
        <time>2016-10-02T15:14:09+02:00</time>
      </trkpt>
      <trkpt lat="45.99292" lon="6.27435">
        <ele>1169</ele>
        <time>2016-10-02T15:14:10+02:00</time>
      </trkpt>
      <trkpt lat="45.99291" lon="6.27437">
        <ele>1168</ele>
        <time>2016-10-02T15:14:11+02:00</time>
      </trkpt>
      <trkpt lat="45.99291" lon="6.27439">
        <ele>1168</ele>
        <time>2016-10-02T15:14:13+02:00</time>
      </trkpt>
      <trkpt lat="45.99291" lon="6.27441">
        <ele>1168</ele>
        <time>2016-10-02T15:14:14+02:00</time>
      </trkpt>
      <trkpt lat="45.99291" lon="6.27442">
        <ele>1168</ele>
        <time>2016-10-02T15:14:14+02:00</time>
      </trkpt>
      <trkpt lat="45.99291" lon="6.27443">
        <ele>1168</ele>
        <time>2016-10-02T15:14:15+02:00</time>
      </trkpt>
      <trkpt lat="45.99291" lon="6.27444">
        <ele>1168</ele>
        <time>2016-10-02T15:14:16+02:00</time>
      </trkpt>
      <trkpt lat="45.99292" lon="6.27446">
        <ele>1168</ele>
        <time>2016-10-02T15:14:17+02:00</time>
      </trkpt>
      <trkpt lat="45.99292" lon="6.27447">
        <ele>1168</ele>
        <time>2016-10-02T15:14:18+02:00</time>
      </trkpt>
      <trkpt lat="45.99293" lon="6.27449">
        <ele>1169</ele>
        <time>2016-10-02T15:14:19+02:00</time>
      </trkpt>
      <trkpt lat="45.99293" lon="6.27451">
        <ele>1169</ele>
        <time>2016-10-02T15:14:20+02:00</time>
      </trkpt>
      <trkpt lat="45.99294" lon="6.27452">
        <ele>1169</ele>
        <time>2016-10-02T15:14:21+02:00</time>
      </trkpt>
      <trkpt lat="45.99294" lon="6.27454">
        <ele>1169</ele>
        <time>2016-10-02T15:14:22+02:00</time>
      </trkpt>
      <trkpt lat="45.99295" lon="6.27456">
        <ele>1169</ele>
        <time>2016-10-02T15:14:23+02:00</time>
      </trkpt>
      <trkpt lat="45.99295" lon="6.27458">
        <ele>1170</ele>
        <time>2016-10-02T15:14:25+02:00</time>
      </trkpt>
      <trkpt lat="45.99296" lon="6.2746">
        <ele>1170</ele>
        <time>2016-10-02T15:14:26+02:00</time>
      </trkpt>
      <trkpt lat="45.99297" lon="6.27462">
        <ele>1171</ele>
        <time>2016-10-02T15:14:27+02:00</time>
      </trkpt>
      <trkpt lat="45.99298" lon="6.27463">
        <ele>1171</ele>
        <time>2016-10-02T15:14:28+02:00</time>
      </trkpt>
      <trkpt lat="45.99298" lon="6.27465">
        <ele>1172</ele>
        <time>2016-10-02T15:14:30+02:00</time>
      </trkpt>
      <trkpt lat="45.99298" lon="6.27467">
        <ele>1172</ele>
        <time>2016-10-02T15:14:31+02:00</time>
      </trkpt>
      <trkpt lat="45.99299" lon="6.27469">
        <ele>1172</ele>
        <time>2016-10-02T15:14:32+02:00</time>
      </trkpt>
      <trkpt lat="45.99299" lon="6.27471">
        <ele>1172</ele>
        <time>2016-10-02T15:14:33+02:00</time>
      </trkpt>
      <trkpt lat="45.99299" lon="6.27474">
        <ele>1172</ele>
        <time>2016-10-02T15:14:34+02:00</time>
      </trkpt>
      <trkpt lat="45.993" lon="6.27476">
        <ele>1172</ele>
        <time>2016-10-02T15:14:36+02:00</time>
      </trkpt>
      <trkpt lat="45.993" lon="6.27478">
        <ele>1173</ele>
        <time>2016-10-02T15:14:37+02:00</time>
      </trkpt>
      <trkpt lat="45.993" lon="6.2748">
        <ele>1173</ele>
        <time>2016-10-02T15:14:38+02:00</time>
      </trkpt>
      <trkpt lat="45.99301" lon="6.27483">
        <ele>1173</ele>
        <time>2016-10-02T15:14:39+02:00</time>
      </trkpt>
      <trkpt lat="45.99301" lon="6.27485">
        <ele>1173</ele>
        <time>2016-10-02T15:14:41+02:00</time>
      </trkpt>
      <trkpt lat="45.99301" lon="6.27487">
        <ele>1173</ele>
        <time>2016-10-02T15:14:42+02:00</time>
      </trkpt>
      <trkpt lat="45.99301" lon="6.27489">
        <ele>1173</ele>
        <time>2016-10-02T15:14:43+02:00</time>
      </trkpt>
      <trkpt lat="45.99301" lon="6.27491">
        <ele>1173</ele>
        <time>2016-10-02T15:14:44+02:00</time>
      </trkpt>
      <trkpt lat="45.99302" lon="6.27493">
        <ele>1173</ele>
        <time>2016-10-02T15:14:46+02:00</time>
      </trkpt>
      <trkpt lat="45.99302" lon="6.27495">
        <ele>1173</ele>
        <time>2016-10-02T15:14:47+02:00</time>
      </trkpt>
      <trkpt lat="45.99302" lon="6.27497">
        <ele>1174</ele>
        <time>2016-10-02T15:14:48+02:00</time>
      </trkpt>
      <trkpt lat="45.99302" lon="6.27499">
        <ele>1174</ele>
        <time>2016-10-02T15:14:49+02:00</time>
      </trkpt>
      <trkpt lat="45.99302" lon="6.27502">
        <ele>1173</ele>
        <time>2016-10-02T15:14:51+02:00</time>
      </trkpt>
      <trkpt lat="45.99301" lon="6.27504">
        <ele>1173</ele>
        <time>2016-10-02T15:14:52+02:00</time>
      </trkpt>
      <trkpt lat="45.99302" lon="6.27506">
        <ele>1173</ele>
        <time>2016-10-02T15:14:53+02:00</time>
      </trkpt>
      <trkpt lat="45.99302" lon="6.27508">
        <ele>1174</ele>
        <time>2016-10-02T15:14:54+02:00</time>
      </trkpt>
      <trkpt lat="45.99302" lon="6.2751">
        <ele>1174</ele>
        <time>2016-10-02T15:14:56+02:00</time>
      </trkpt>
      <trkpt lat="45.99302" lon="6.27512">
        <ele>1174</ele>
        <time>2016-10-02T15:14:57+02:00</time>
      </trkpt>
      <trkpt lat="45.99302" lon="6.27513">
        <ele>1174</ele>
        <time>2016-10-02T15:14:58+02:00</time>
      </trkpt>
      <trkpt lat="45.99303" lon="6.27516">
        <ele>1175</ele>
        <time>2016-10-02T15:14:59+02:00</time>
      </trkpt>
      <trkpt lat="45.99304" lon="6.27519">
        <ele>1176</ele>
        <time>2016-10-02T15:15:01+02:00</time>
      </trkpt>
      <trkpt lat="45.99306" lon="6.27521">
        <ele>1178</ele>
        <time>2016-10-02T15:15:03+02:00</time>
      </trkpt>
      <trkpt lat="45.99307" lon="6.27523">
        <ele>1179</ele>
        <time>2016-10-02T15:15:05+02:00</time>
      </trkpt>
      <trkpt lat="45.99308" lon="6.27525">
        <ele>1180</ele>
        <time>2016-10-02T15:15:06+02:00</time>
      </trkpt>
      <trkpt lat="45.99308" lon="6.27528">
        <ele>1180</ele>
        <time>2016-10-02T15:15:08+02:00</time>
      </trkpt>
      <trkpt lat="45.99308" lon="6.2753">
        <ele>1180</ele>
        <time>2016-10-02T15:15:09+02:00</time>
      </trkpt>
      <trkpt lat="45.99308" lon="6.27533">
        <ele>1180</ele>
        <time>2016-10-02T15:15:11+02:00</time>
      </trkpt>
      <trkpt lat="45.99308" lon="6.27535">
        <ele>1180</ele>
        <time>2016-10-02T15:15:12+02:00</time>
      </trkpt>
      <trkpt lat="45.99308" lon="6.27538">
        <ele>1180</ele>
        <time>2016-10-02T15:15:14+02:00</time>
      </trkpt>
      <trkpt lat="45.99307" lon="6.2754">
        <ele>1180</ele>
        <time>2016-10-02T15:15:16+02:00</time>
      </trkpt>
      <trkpt lat="45.99307" lon="6.27543">
        <ele>1180</ele>
        <time>2016-10-02T15:15:17+02:00</time>
      </trkpt>
      <trkpt lat="45.99307" lon="6.27546">
        <ele>1180</ele>
        <time>2016-10-02T15:15:19+02:00</time>
      </trkpt>
      <trkpt lat="45.99307" lon="6.27549">
        <ele>1180</ele>
        <time>2016-10-02T15:15:21+02:00</time>
      </trkpt>
      <trkpt lat="45.99307" lon="6.27552">
        <ele>1180</ele>
        <time>2016-10-02T15:15:23+02:00</time>
      </trkpt>
      <trkpt lat="45.99306" lon="6.27555">
        <ele>1179</ele>
        <time>2016-10-02T15:15:24+02:00</time>
      </trkpt>
      <trkpt lat="45.99306" lon="6.27557">
        <ele>1180</ele>
        <time>2016-10-02T15:15:26+02:00</time>
      </trkpt>
      <trkpt lat="45.99306" lon="6.27559">
        <ele>1179</ele>
        <time>2016-10-02T15:15:27+02:00</time>
      </trkpt>
      <trkpt lat="45.99305" lon="6.27562">
        <ele>1179</ele>
        <time>2016-10-02T15:15:28+02:00</time>
      </trkpt>
      <trkpt lat="45.99305" lon="6.27564">
        <ele>1179</ele>
        <time>2016-10-02T15:15:30+02:00</time>
      </trkpt>
      <trkpt lat="45.99305" lon="6.27567">
        <ele>1179</ele>
        <time>2016-10-02T15:15:32+02:00</time>
      </trkpt>
      <trkpt lat="45.99305" lon="6.27569">
        <ele>1179</ele>
        <time>2016-10-02T15:15:33+02:00</time>
      </trkpt>
      <trkpt lat="45.99305" lon="6.27572">
        <ele>1179</ele>
        <time>2016-10-02T15:15:35+02:00</time>
      </trkpt>
      <trkpt lat="45.99305" lon="6.27575">
        <ele>1179</ele>
        <time>2016-10-02T15:15:36+02:00</time>
      </trkpt>
      <trkpt lat="45.99305" lon="6.27577">
        <ele>1179</ele>
        <time>2016-10-02T15:15:38+02:00</time>
      </trkpt>
      <trkpt lat="45.99304" lon="6.2758">
        <ele>1179</ele>
        <time>2016-10-02T15:15:40+02:00</time>
      </trkpt>
      <trkpt lat="45.99304" lon="6.27583">
        <ele>1179</ele>
        <time>2016-10-02T15:15:42+02:00</time>
      </trkpt>
      <trkpt lat="45.99304" lon="6.27585">
        <ele>1178</ele>
        <time>2016-10-02T15:15:43+02:00</time>
      </trkpt>
      <trkpt lat="45.99304" lon="6.27588">
        <ele>1178</ele>
        <time>2016-10-02T15:15:44+02:00</time>
      </trkpt>
      <trkpt lat="45.99304" lon="6.2759">
        <ele>1179</ele>
        <time>2016-10-02T15:15:46+02:00</time>
      </trkpt>
      <trkpt lat="45.99304" lon="6.27593">
        <ele>1179</ele>
        <time>2016-10-02T15:15:47+02:00</time>
      </trkpt>
      <trkpt lat="45.99304" lon="6.27595">
        <ele>1178</ele>
        <time>2016-10-02T15:15:49+02:00</time>
      </trkpt>
      <trkpt lat="45.99304" lon="6.27597">
        <ele>1178</ele>
        <time>2016-10-02T15:15:50+02:00</time>
      </trkpt>
      <trkpt lat="45.99303" lon="6.27598">
        <ele>1178</ele>
        <time>2016-10-02T15:15:50+02:00</time>
      </trkpt>
      <trkpt lat="45.99303" lon="6.27599">
        <ele>1178</ele>
        <time>2016-10-02T15:15:51+02:00</time>
      </trkpt>
      <trkpt lat="45.99303" lon="6.27601">
        <ele>1177</ele>
        <time>2016-10-02T15:15:53+02:00</time>
      </trkpt>
      <trkpt lat="45.99303" lon="6.27604">
        <ele>1177</ele>
        <time>2016-10-02T15:15:54+02:00</time>
      </trkpt>
      <trkpt lat="45.99303" lon="6.27605">
        <ele>1177</ele>
        <time>2016-10-02T15:15:55+02:00</time>
      </trkpt>
      <trkpt lat="45.99303" lon="6.27607">
        <ele>1177</ele>
        <time>2016-10-02T15:15:56+02:00</time>
      </trkpt>
      <trkpt lat="45.99303" lon="6.27608">
        <ele>1177</ele>
        <time>2016-10-02T15:15:57+02:00</time>
      </trkpt>
      <trkpt lat="45.99303" lon="6.27609">
        <ele>1177</ele>
        <time>2016-10-02T15:15:57+02:00</time>
      </trkpt>
      <trkpt lat="45.99303" lon="6.27611">
        <ele>1177</ele>
        <time>2016-10-02T15:15:58+02:00</time>
      </trkpt>
      <trkpt lat="45.99303" lon="6.27612">
        <ele>1177</ele>
        <time>2016-10-02T15:15:59+02:00</time>
      </trkpt>
      <trkpt lat="45.99303" lon="6.27613">
        <ele>1177</ele>
        <time>2016-10-02T15:16:00+02:00</time>
      </trkpt>
      <trkpt lat="45.99303" lon="6.27615">
        <ele>1177</ele>
        <time>2016-10-02T15:16:01+02:00</time>
      </trkpt>
      <trkpt lat="45.99303" lon="6.27617">
        <ele>1176</ele>
        <time>2016-10-02T15:16:02+02:00</time>
      </trkpt>
      <trkpt lat="45.99303" lon="6.27619">
        <ele>1176</ele>
        <time>2016-10-02T15:16:03+02:00</time>
      </trkpt>
      <trkpt lat="45.99303" lon="6.27621">
        <ele>1176</ele>
        <time>2016-10-02T15:16:05+02:00</time>
      </trkpt>
      <trkpt lat="45.99303" lon="6.27624">
        <ele>1176</ele>
        <time>2016-10-02T15:16:06+02:00</time>
      </trkpt>
      <trkpt lat="45.99303" lon="6.27626">
        <ele>1176</ele>
        <time>2016-10-02T15:16:08+02:00</time>
      </trkpt>
      <trkpt lat="45.99303" lon="6.27629">
        <ele>1176</ele>
        <time>2016-10-02T15:16:09+02:00</time>
      </trkpt>
      <trkpt lat="45.99303" lon="6.27631">
        <ele>1175</ele>
        <time>2016-10-02T15:16:11+02:00</time>
      </trkpt>
      <trkpt lat="45.99302" lon="6.27634">
        <ele>1175</ele>
        <time>2016-10-02T15:16:12+02:00</time>
      </trkpt>
      <trkpt lat="45.99302" lon="6.27637">
        <ele>1175</ele>
        <time>2016-10-02T15:16:14+02:00</time>
      </trkpt>
      <trkpt lat="45.99302" lon="6.2764">
        <ele>1174</ele>
        <time>2016-10-02T15:16:15+02:00</time>
      </trkpt>
      <trkpt lat="45.99302" lon="6.27642">
        <ele>1174</ele>
        <time>2016-10-02T15:16:17+02:00</time>
      </trkpt>
      <trkpt lat="45.99301" lon="6.27645">
        <ele>1174</ele>
        <time>2016-10-02T15:16:18+02:00</time>
      </trkpt>
      <trkpt lat="45.99301" lon="6.27647">
        <ele>1174</ele>
        <time>2016-10-02T15:16:20+02:00</time>
      </trkpt>
      <trkpt lat="45.99301" lon="6.27649">
        <ele>1173</ele>
        <time>2016-10-02T15:16:21+02:00</time>
      </trkpt>
      <trkpt lat="45.99301" lon="6.27651">
        <ele>1174</ele>
        <time>2016-10-02T15:16:22+02:00</time>
      </trkpt>
      <trkpt lat="45.99301" lon="6.27654">
        <ele>1173</ele>
        <time>2016-10-02T15:16:24+02:00</time>
      </trkpt>
      <trkpt lat="45.99301" lon="6.27656">
        <ele>1173</ele>
        <time>2016-10-02T15:16:25+02:00</time>
      </trkpt>
      <trkpt lat="45.99301" lon="6.27659">
        <ele>1173</ele>
        <time>2016-10-02T15:16:27+02:00</time>
      </trkpt>
      <trkpt lat="45.993" lon="6.27662">
        <ele>1172</ele>
        <time>2016-10-02T15:16:28+02:00</time>
      </trkpt>
      <trkpt lat="45.993" lon="6.27665">
        <ele>1172</ele>
        <time>2016-10-02T15:16:30+02:00</time>
      </trkpt>
      <trkpt lat="45.993" lon="6.27667">
        <ele>1172</ele>
        <time>2016-10-02T15:16:31+02:00</time>
      </trkpt>
      <trkpt lat="45.993" lon="6.2767">
        <ele>1172</ele>
        <time>2016-10-02T15:16:33+02:00</time>
      </trkpt>
      <trkpt lat="45.99299" lon="6.27673">
        <ele>1172</ele>
        <time>2016-10-02T15:16:35+02:00</time>
      </trkpt>
      <trkpt lat="45.99299" lon="6.27676">
        <ele>1172</ele>
        <time>2016-10-02T15:16:37+02:00</time>
      </trkpt>
      <trkpt lat="45.99298" lon="6.27679">
        <ele>1171</ele>
        <time>2016-10-02T15:16:39+02:00</time>
      </trkpt>
      <trkpt lat="45.99297" lon="6.27682">
        <ele>1171</ele>
        <time>2016-10-02T15:16:40+02:00</time>
      </trkpt>
      <trkpt lat="45.99295" lon="6.27684">
        <ele>1170</ele>
        <time>2016-10-02T15:16:42+02:00</time>
      </trkpt>
      <trkpt lat="45.99294" lon="6.27686">
        <ele>1169</ele>
        <time>2016-10-02T15:16:44+02:00</time>
      </trkpt>
      <trkpt lat="45.99292" lon="6.27688">
        <ele>1168</ele>
        <time>2016-10-02T15:16:46+02:00</time>
      </trkpt>
      <trkpt lat="45.99291" lon="6.2769">
        <ele>1167</ele>
        <time>2016-10-02T15:16:47+02:00</time>
      </trkpt>
      <trkpt lat="45.99289" lon="6.27691">
        <ele>1166</ele>
        <time>2016-10-02T15:16:49+02:00</time>
      </trkpt>
      <trkpt lat="45.99288" lon="6.27693">
        <ele>1166</ele>
        <time>2016-10-02T15:16:50+02:00</time>
      </trkpt>
      <trkpt lat="45.99287" lon="6.27695">
        <ele>1165</ele>
        <time>2016-10-02T15:16:52+02:00</time>
      </trkpt>
      <trkpt lat="45.99285" lon="6.27696">
        <ele>1164</ele>
        <time>2016-10-02T15:16:53+02:00</time>
      </trkpt>
      <trkpt lat="45.99283" lon="6.27698">
        <ele>1163</ele>
        <time>2016-10-02T15:16:55+02:00</time>
      </trkpt>
      <trkpt lat="45.99281" lon="6.277">
        <ele>1162</ele>
        <time>2016-10-02T15:16:57+02:00</time>
      </trkpt>
      <trkpt lat="45.99279" lon="6.27702">
        <ele>1160</ele>
        <time>2016-10-02T15:16:59+02:00</time>
      </trkpt>
      <trkpt lat="45.99278" lon="6.27704">
        <ele>1160</ele>
        <time>2016-10-02T15:17:01+02:00</time>
      </trkpt>
      <trkpt lat="45.99276" lon="6.27705">
        <ele>1158</ele>
        <time>2016-10-02T15:17:03+02:00</time>
      </trkpt>
      <trkpt lat="45.99275" lon="6.27706">
        <ele>1157</ele>
        <time>2016-10-02T15:17:04+02:00</time>
      </trkpt>
      <trkpt lat="45.99273" lon="6.27708">
        <ele>1156</ele>
        <time>2016-10-02T15:17:06+02:00</time>
      </trkpt>
      <trkpt lat="45.99271" lon="6.27709">
        <ele>1155</ele>
        <time>2016-10-02T15:17:08+02:00</time>
      </trkpt>
      <trkpt lat="45.99269" lon="6.27711">
        <ele>1154</ele>
        <time>2016-10-02T15:17:09+02:00</time>
      </trkpt>
      <trkpt lat="45.99267" lon="6.27713">
        <ele>1153</ele>
        <time>2016-10-02T15:17:11+02:00</time>
      </trkpt>
      <trkpt lat="45.99266" lon="6.27715">
        <ele>1152</ele>
        <time>2016-10-02T15:17:13+02:00</time>
      </trkpt>
      <trkpt lat="45.99264" lon="6.27716">
        <ele>1152</ele>
        <time>2016-10-02T15:17:15+02:00</time>
      </trkpt>
      <trkpt lat="45.99261" lon="6.27717">
        <ele>1150</ele>
        <time>2016-10-02T15:17:17+02:00</time>
      </trkpt>
      <trkpt lat="45.99259" lon="6.27718">
        <ele>1148</ele>
        <time>2016-10-02T15:17:19+02:00</time>
      </trkpt>
      <trkpt lat="45.99256" lon="6.27718">
        <ele>1146</ele>
        <time>2016-10-02T15:17:22+02:00</time>
      </trkpt>
      <trkpt lat="45.99254" lon="6.27719">
        <ele>1145</ele>
        <time>2016-10-02T15:17:23+02:00</time>
      </trkpt>
      <trkpt lat="45.99253" lon="6.2772">
        <ele>1144</ele>
        <time>2016-10-02T15:17:25+02:00</time>
      </trkpt>
      <trkpt lat="45.99251" lon="6.27721">
        <ele>1144</ele>
        <time>2016-10-02T15:17:26+02:00</time>
      </trkpt>
      <trkpt lat="45.99249" lon="6.27722">
        <ele>1142</ele>
        <time>2016-10-02T15:17:28+02:00</time>
      </trkpt>
      <trkpt lat="45.99247" lon="6.27723">
        <ele>1141</ele>
        <time>2016-10-02T15:17:30+02:00</time>
      </trkpt>
      <trkpt lat="45.99245" lon="6.27725">
        <ele>1141</ele>
        <time>2016-10-02T15:17:32+02:00</time>
      </trkpt>
      <trkpt lat="45.99244" lon="6.27727">
        <ele>1140</ele>
        <time>2016-10-02T15:17:33+02:00</time>
      </trkpt>
      <trkpt lat="45.99243" lon="6.27729">
        <ele>1140</ele>
        <time>2016-10-02T15:17:35+02:00</time>
      </trkpt>
      <trkpt lat="45.99242" lon="6.27731">
        <ele>1140</ele>
        <time>2016-10-02T15:17:37+02:00</time>
      </trkpt>
      <trkpt lat="45.99241" lon="6.27734">
        <ele>1140</ele>
        <time>2016-10-02T15:17:38+02:00</time>
      </trkpt>
      <trkpt lat="45.99241" lon="6.27737">
        <ele>1141</ele>
        <time>2016-10-02T15:17:40+02:00</time>
      </trkpt>
      <trkpt lat="45.99241" lon="6.2774">
        <ele>1142</ele>
        <time>2016-10-02T15:17:42+02:00</time>
      </trkpt>
      <trkpt lat="45.9924" lon="6.27744">
        <ele>1142</ele>
        <time>2016-10-02T15:17:44+02:00</time>
      </trkpt>
      <trkpt lat="45.99239" lon="6.27747">
        <ele>1142</ele>
        <time>2016-10-02T15:17:46+02:00</time>
      </trkpt>
      <trkpt lat="45.99239" lon="6.27751">
        <ele>1143</ele>
        <time>2016-10-02T15:17:48+02:00</time>
      </trkpt>
      <trkpt lat="45.99238" lon="6.27754">
        <ele>1143</ele>
        <time>2016-10-02T15:17:50+02:00</time>
      </trkpt>
      <trkpt lat="45.99237" lon="6.27757">
        <ele>1143</ele>
        <time>2016-10-02T15:17:52+02:00</time>
      </trkpt>
      <trkpt lat="45.99236" lon="6.27761">
        <ele>1143</ele>
        <time>2016-10-02T15:17:54+02:00</time>
      </trkpt>
      <trkpt lat="45.99235" lon="6.27763">
        <ele>1144</ele>
        <time>2016-10-02T15:17:56+02:00</time>
      </trkpt>
      <trkpt lat="45.99235" lon="6.27765">
        <ele>1144</ele>
        <time>2016-10-02T15:17:57+02:00</time>
      </trkpt>
      <trkpt lat="45.99234" lon="6.27768">
        <ele>1144</ele>
        <time>2016-10-02T15:17:59+02:00</time>
      </trkpt>
      <trkpt lat="45.99233" lon="6.2777">
        <ele>1144</ele>
        <time>2016-10-02T15:18:00+02:00</time>
      </trkpt>
      <trkpt lat="45.99233" lon="6.27773">
        <ele>1144</ele>
        <time>2016-10-02T15:18:02+02:00</time>
      </trkpt>
      <trkpt lat="45.99232" lon="6.27776">
        <ele>1144</ele>
        <time>2016-10-02T15:18:04+02:00</time>
      </trkpt>
      <trkpt lat="45.99231" lon="6.27779">
        <ele>1144</ele>
        <time>2016-10-02T15:18:06+02:00</time>
      </trkpt>
      <trkpt lat="45.99229" lon="6.27782">
        <ele>1144</ele>
        <time>2016-10-02T15:18:08+02:00</time>
      </trkpt>
      <trkpt lat="45.99228" lon="6.27785">
        <ele>1144</ele>
        <time>2016-10-02T15:18:10+02:00</time>
      </trkpt>
      <trkpt lat="45.99227" lon="6.27787">
        <ele>1144</ele>
        <time>2016-10-02T15:18:11+02:00</time>
      </trkpt>
      <trkpt lat="45.99226" lon="6.2779">
        <ele>1144</ele>
        <time>2016-10-02T15:18:13+02:00</time>
      </trkpt>
      <trkpt lat="45.99225" lon="6.27792">
        <ele>1144</ele>
        <time>2016-10-02T15:18:15+02:00</time>
      </trkpt>
      <trkpt lat="45.99224" lon="6.27795">
        <ele>1144</ele>
        <time>2016-10-02T15:18:16+02:00</time>
      </trkpt>
      <trkpt lat="45.99223" lon="6.27799">
        <ele>1144</ele>
        <time>2016-10-02T15:18:18+02:00</time>
      </trkpt>
      <trkpt lat="45.99222" lon="6.27802">
        <ele>1144</ele>
        <time>2016-10-02T15:18:21+02:00</time>
      </trkpt>
      <trkpt lat="45.99221" lon="6.27805">
        <ele>1144</ele>
        <time>2016-10-02T15:18:23+02:00</time>
      </trkpt>
      <trkpt lat="45.99219" lon="6.27809">
        <ele>1144</ele>
        <time>2016-10-02T15:18:25+02:00</time>
      </trkpt>
      <trkpt lat="45.99218" lon="6.27812">
        <ele>1144</ele>
        <time>2016-10-02T15:18:27+02:00</time>
      </trkpt>
      <trkpt lat="45.99217" lon="6.27814">
        <ele>1144</ele>
        <time>2016-10-02T15:18:29+02:00</time>
      </trkpt>
      <trkpt lat="45.99216" lon="6.27816">
        <ele>1144</ele>
        <time>2016-10-02T15:18:30+02:00</time>
      </trkpt>
      <trkpt lat="45.99216" lon="6.27819">
        <ele>1144</ele>
        <time>2016-10-02T15:18:32+02:00</time>
      </trkpt>
      <trkpt lat="45.99215" lon="6.27822">
        <ele>1144</ele>
        <time>2016-10-02T15:18:33+02:00</time>
      </trkpt>
      <trkpt lat="45.99215" lon="6.27825">
        <ele>1144</ele>
        <time>2016-10-02T15:18:35+02:00</time>
      </trkpt>
      <trkpt lat="45.99214" lon="6.27827">
        <ele>1144</ele>
        <time>2016-10-02T15:18:37+02:00</time>
      </trkpt>
      <trkpt lat="45.99213" lon="6.2783">
        <ele>1144</ele>
        <time>2016-10-02T15:18:38+02:00</time>
      </trkpt>
      <trkpt lat="45.99212" lon="6.27833">
        <ele>1144</ele>
        <time>2016-10-02T15:18:40+02:00</time>
      </trkpt>
      <trkpt lat="45.99211" lon="6.27835">
        <ele>1144</ele>
        <time>2016-10-02T15:18:42+02:00</time>
      </trkpt>
      <trkpt lat="45.9921" lon="6.27838">
        <ele>1143</ele>
        <time>2016-10-02T15:18:43+02:00</time>
      </trkpt>
      <trkpt lat="45.99209" lon="6.27841">
        <ele>1142</ele>
        <time>2016-10-02T15:18:46+02:00</time>
      </trkpt>
      <trkpt lat="45.99207" lon="6.27843">
        <ele>1141</ele>
        <time>2016-10-02T15:18:48+02:00</time>
      </trkpt>
      <trkpt lat="45.99205" lon="6.27846">
        <ele>1140</ele>
        <time>2016-10-02T15:18:50+02:00</time>
      </trkpt>
      <trkpt lat="45.99203" lon="6.27848">
        <ele>1139</ele>
        <time>2016-10-02T15:18:52+02:00</time>
      </trkpt>
      <trkpt lat="45.99201" lon="6.27849">
        <ele>1138</ele>
        <time>2016-10-02T15:18:54+02:00</time>
      </trkpt>
      <trkpt lat="45.992" lon="6.2785">
        <ele>1137</ele>
        <time>2016-10-02T15:18:55+02:00</time>
      </trkpt>
      <trkpt lat="45.99199" lon="6.27852">
        <ele>1136</ele>
        <time>2016-10-02T15:18:57+02:00</time>
      </trkpt>
      <trkpt lat="45.99198" lon="6.27853">
        <ele>1135</ele>
        <time>2016-10-02T15:18:58+02:00</time>
      </trkpt>
      <trkpt lat="45.99196" lon="6.27855">
        <ele>1134</ele>
        <time>2016-10-02T15:19:00+02:00</time>
      </trkpt>
      <trkpt lat="45.99194" lon="6.27857">
        <ele>1133</ele>
        <time>2016-10-02T15:19:02+02:00</time>
      </trkpt>
      <trkpt lat="45.99193" lon="6.27859">
        <ele>1132</ele>
        <time>2016-10-02T15:19:04+02:00</time>
      </trkpt>
      <trkpt lat="45.99191" lon="6.27861">
        <ele>1131</ele>
        <time>2016-10-02T15:19:06+02:00</time>
      </trkpt>
      <trkpt lat="45.99189" lon="6.27862">
        <ele>1129</ele>
        <time>2016-10-02T15:19:08+02:00</time>
      </trkpt>
      <trkpt lat="45.99186" lon="6.27864">
        <ele>1128</ele>
        <time>2016-10-02T15:19:10+02:00</time>
      </trkpt>
      <trkpt lat="45.99185" lon="6.27865">
        <ele>1126</ele>
        <time>2016-10-02T15:19:11+02:00</time>
      </trkpt>
      <trkpt lat="45.99183" lon="6.27867">
        <ele>1125</ele>
        <time>2016-10-02T15:19:13+02:00</time>
      </trkpt>
      <trkpt lat="45.99182" lon="6.27869">
        <ele>1124</ele>
        <time>2016-10-02T15:19:15+02:00</time>
      </trkpt>
      <trkpt lat="45.9918" lon="6.2787">
        <ele>1123</ele>
        <time>2016-10-02T15:19:17+02:00</time>
      </trkpt>
      <trkpt lat="45.99178" lon="6.27872">
        <ele>1122</ele>
        <time>2016-10-02T15:19:18+02:00</time>
      </trkpt>
      <trkpt lat="45.99176" lon="6.27874">
        <ele>1120</ele>
        <time>2016-10-02T15:19:21+02:00</time>
      </trkpt>
      <trkpt lat="45.99173" lon="6.27876">
        <ele>1118</ele>
        <time>2016-10-02T15:19:24+02:00</time>
      </trkpt>
      <trkpt lat="45.99171" lon="6.27877">
        <ele>1116</ele>
        <time>2016-10-02T15:19:26+02:00</time>
      </trkpt>
      <trkpt lat="45.99168" lon="6.27879">
        <ele>1114</ele>
        <time>2016-10-02T15:19:29+02:00</time>
      </trkpt>
      <trkpt lat="45.99166" lon="6.2788">
        <ele>1112</ele>
        <time>2016-10-02T15:19:31+02:00</time>
      </trkpt>
      <trkpt lat="45.99163" lon="6.27882">
        <ele>1111</ele>
        <time>2016-10-02T15:19:33+02:00</time>
      </trkpt>
      <trkpt lat="45.99161" lon="6.27884">
        <ele>1109</ele>
        <time>2016-10-02T15:19:36+02:00</time>
      </trkpt>
      <trkpt lat="45.99158" lon="6.27885">
        <ele>1107</ele>
        <time>2016-10-02T15:19:39+02:00</time>
      </trkpt>
      <trkpt lat="45.99155" lon="6.27886">
        <ele>1106</ele>
        <time>2016-10-02T15:19:41+02:00</time>
      </trkpt>
      <trkpt lat="45.99153" lon="6.27885">
        <ele>1104</ele>
        <time>2016-10-02T15:19:43+02:00</time>
      </trkpt>
      <trkpt lat="45.99153" lon="6.27883">
        <ele>1104</ele>
        <time>2016-10-02T15:19:44+02:00</time>
      </trkpt>
      <trkpt lat="45.99153" lon="6.2788">
        <ele>1105</ele>
        <time>2016-10-02T15:19:46+02:00</time>
      </trkpt>
      <trkpt lat="45.99153" lon="6.27878">
        <ele>1105</ele>
        <time>2016-10-02T15:19:47+02:00</time>
      </trkpt>
      <trkpt lat="45.99152" lon="6.27877">
        <ele>1104</ele>
        <time>2016-10-02T15:19:48+02:00</time>
      </trkpt>
      <trkpt lat="45.99151" lon="6.27875">
        <ele>1104</ele>
        <time>2016-10-02T15:19:49+02:00</time>
      </trkpt>
      <trkpt lat="45.99151" lon="6.27873">
        <ele>1104</ele>
        <time>2016-10-02T15:19:51+02:00</time>
      </trkpt>
      <trkpt lat="45.9915" lon="6.27871">
        <ele>1103</ele>
        <time>2016-10-02T15:19:52+02:00</time>
      </trkpt>
      <trkpt lat="45.9915" lon="6.27869">
        <ele>1103</ele>
        <time>2016-10-02T15:19:53+02:00</time>
      </trkpt>
      <trkpt lat="45.99149" lon="6.27867">
        <ele>1103</ele>
        <time>2016-10-02T15:19:55+02:00</time>
      </trkpt>
      <trkpt lat="45.99148" lon="6.27866">
        <ele>1103</ele>
        <time>2016-10-02T15:19:56+02:00</time>
      </trkpt>
      <trkpt lat="45.99148" lon="6.27864">
        <ele>1102</ele>
        <time>2016-10-02T15:19:57+02:00</time>
      </trkpt>
      <trkpt lat="45.99147" lon="6.27862">
        <ele>1102</ele>
        <time>2016-10-02T15:19:58+02:00</time>
      </trkpt>
      <trkpt lat="45.99147" lon="6.27859">
        <ele>1102</ele>
        <time>2016-10-02T15:20:00+02:00</time>
      </trkpt>
      <trkpt lat="45.99147" lon="6.27856">
        <ele>1102</ele>
        <time>2016-10-02T15:20:02+02:00</time>
      </trkpt>
      <trkpt lat="45.99146" lon="6.27853">
        <ele>1102</ele>
        <time>2016-10-02T15:20:03+02:00</time>
      </trkpt>
      <trkpt lat="45.99146" lon="6.27851">
        <ele>1102</ele>
        <time>2016-10-02T15:20:05+02:00</time>
      </trkpt>
      <trkpt lat="45.99145" lon="6.27848">
        <ele>1102</ele>
        <time>2016-10-02T15:20:07+02:00</time>
      </trkpt>
      <trkpt lat="45.99144" lon="6.27845">
        <ele>1101</ele>
        <time>2016-10-02T15:20:08+02:00</time>
      </trkpt>
      <trkpt lat="45.99144" lon="6.27843">
        <ele>1101</ele>
        <time>2016-10-02T15:20:10+02:00</time>
      </trkpt>
      <trkpt lat="45.99143" lon="6.27841">
        <ele>1101</ele>
        <time>2016-10-02T15:20:11+02:00</time>
      </trkpt>
      <trkpt lat="45.99143" lon="6.27839">
        <ele>1101</ele>
        <time>2016-10-02T15:20:12+02:00</time>
      </trkpt>
      <trkpt lat="45.99142" lon="6.27837">
        <ele>1101</ele>
        <time>2016-10-02T15:20:13+02:00</time>
      </trkpt>
      <trkpt lat="45.99142" lon="6.27835">
        <ele>1100</ele>
        <time>2016-10-02T15:20:14+02:00</time>
      </trkpt>
      <trkpt lat="45.99142" lon="6.27833">
        <ele>1100</ele>
        <time>2016-10-02T15:20:16+02:00</time>
      </trkpt>
      <trkpt lat="45.99141" lon="6.27831">
        <ele>1100</ele>
        <time>2016-10-02T15:20:17+02:00</time>
      </trkpt>
      <trkpt lat="45.99141" lon="6.27829">
        <ele>1099</ele>
        <time>2016-10-02T15:20:18+02:00</time>
      </trkpt>
      <trkpt lat="45.9914" lon="6.27827">
        <ele>1098</ele>
        <time>2016-10-02T15:20:20+02:00</time>
      </trkpt>
      <trkpt lat="45.99139" lon="6.27824">
        <ele>1097</ele>
        <time>2016-10-02T15:20:21+02:00</time>
      </trkpt>
      <trkpt lat="45.99139" lon="6.27822">
        <ele>1097</ele>
        <time>2016-10-02T15:20:23+02:00</time>
      </trkpt>
      <trkpt lat="45.99138" lon="6.27819">
        <ele>1096</ele>
        <time>2016-10-02T15:20:25+02:00</time>
      </trkpt>
      <trkpt lat="45.99137" lon="6.27817">
        <ele>1095</ele>
        <time>2016-10-02T15:20:26+02:00</time>
      </trkpt>
      <trkpt lat="45.99136" lon="6.27814">
        <ele>1094</ele>
        <time>2016-10-02T15:20:28+02:00</time>
      </trkpt>
      <trkpt lat="45.99136" lon="6.27812">
        <ele>1093</ele>
        <time>2016-10-02T15:20:30+02:00</time>
      </trkpt>
      <trkpt lat="45.99135" lon="6.27809">
        <ele>1092</ele>
        <time>2016-10-02T15:20:31+02:00</time>
      </trkpt>
      <trkpt lat="45.99134" lon="6.27806">
        <ele>1091</ele>
        <time>2016-10-02T15:20:33+02:00</time>
      </trkpt>
      <trkpt lat="45.99133" lon="6.27803">
        <ele>1090</ele>
        <time>2016-10-02T15:20:35+02:00</time>
      </trkpt>
      <trkpt lat="45.99132" lon="6.27801">
        <ele>1089</ele>
        <time>2016-10-02T15:20:37+02:00</time>
      </trkpt>
      <trkpt lat="45.99132" lon="6.27798">
        <ele>1089</ele>
        <time>2016-10-02T15:20:39+02:00</time>
      </trkpt>
      <trkpt lat="45.99131" lon="6.27796">
        <ele>1088</ele>
        <time>2016-10-02T15:20:40+02:00</time>
      </trkpt>
      <trkpt lat="45.9913" lon="6.27793">
        <ele>1087</ele>
        <time>2016-10-02T15:20:42+02:00</time>
      </trkpt>
      <trkpt lat="45.99129" lon="6.2779">
        <ele>1086</ele>
        <time>2016-10-02T15:20:44+02:00</time>
      </trkpt>
      <trkpt lat="45.99128" lon="6.27787">
        <ele>1085</ele>
        <time>2016-10-02T15:20:46+02:00</time>
      </trkpt>
      <trkpt lat="45.99128" lon="6.27785">
        <ele>1084</ele>
        <time>2016-10-02T15:20:47+02:00</time>
      </trkpt>
      <trkpt lat="45.99128" lon="6.27783">
        <ele>1084</ele>
        <time>2016-10-02T15:20:48+02:00</time>
      </trkpt>
      <trkpt lat="45.99128" lon="6.27781">
        <ele>1084</ele>
        <time>2016-10-02T15:20:49+02:00</time>
      </trkpt>
      <trkpt lat="45.99129" lon="6.27781">
        <ele>1084</ele>
        <time>2016-10-02T15:20:50+02:00</time>
      </trkpt>
      <trkpt lat="45.99129" lon="6.27781">
        <ele>1084</ele>
        <time>2016-10-02T15:20:50+02:00</time>
      </trkpt>
      <trkpt lat="45.99129" lon="6.27779">
        <ele>1084</ele>
        <time>2016-10-02T15:20:52+02:00</time>
      </trkpt>
      <trkpt lat="45.99128" lon="6.27779">
        <ele>1084</ele>
        <time>2016-10-02T15:20:52+02:00</time>
      </trkpt>
      <trkpt lat="45.99129" lon="6.27777">
        <ele>1083</ele>
        <time>2016-10-02T15:20:53+02:00</time>
      </trkpt>
      <trkpt lat="45.99129" lon="6.27776">
        <ele>1083</ele>
        <time>2016-10-02T15:20:54+02:00</time>
      </trkpt>
      <trkpt lat="45.99129" lon="6.27774">
        <ele>1083</ele>
        <time>2016-10-02T15:20:55+02:00</time>
      </trkpt>
      <trkpt lat="45.9913" lon="6.27772">
        <ele>1083</ele>
        <time>2016-10-02T15:20:56+02:00</time>
      </trkpt>
      <trkpt lat="45.9913" lon="6.27771">
        <ele>1083</ele>
        <time>2016-10-02T15:20:57+02:00</time>
      </trkpt>
      <trkpt lat="45.99129" lon="6.27769">
        <ele>1083</ele>
        <time>2016-10-02T15:20:58+02:00</time>
      </trkpt>
      <trkpt lat="45.99129" lon="6.27766">
        <ele>1082</ele>
        <time>2016-10-02T15:20:59+02:00</time>
      </trkpt>
      <trkpt lat="45.99129" lon="6.27764">
        <ele>1081</ele>
        <time>2016-10-02T15:21:01+02:00</time>
      </trkpt>
      <trkpt lat="45.99129" lon="6.27761">
        <ele>1081</ele>
        <time>2016-10-02T15:21:02+02:00</time>
      </trkpt>
      <trkpt lat="45.99129" lon="6.27759">
        <ele>1081</ele>
        <time>2016-10-02T15:21:04+02:00</time>
      </trkpt>
      <trkpt lat="45.99129" lon="6.27756">
        <ele>1080</ele>
        <time>2016-10-02T15:21:05+02:00</time>
      </trkpt>
      <trkpt lat="45.99129" lon="6.27752">
        <ele>1080</ele>
        <time>2016-10-02T15:21:07+02:00</time>
      </trkpt>
      <trkpt lat="45.99129" lon="6.27749">
        <ele>1079</ele>
        <time>2016-10-02T15:21:10+02:00</time>
      </trkpt>
      <trkpt lat="45.99128" lon="6.27745">
        <ele>1077</ele>
        <time>2016-10-02T15:21:12+02:00</time>
      </trkpt>
      <trkpt lat="45.99127" lon="6.27741">
        <ele>1075</ele>
        <time>2016-10-02T15:21:14+02:00</time>
      </trkpt>
      <trkpt lat="45.99127" lon="6.27737">
        <ele>1074</ele>
        <time>2016-10-02T15:21:17+02:00</time>
      </trkpt>
      <trkpt lat="45.99126" lon="6.27733">
        <ele>1072</ele>
        <time>2016-10-02T15:21:19+02:00</time>
      </trkpt>
      <trkpt lat="45.99125" lon="6.27729">
        <ele>1070</ele>
        <time>2016-10-02T15:21:21+02:00</time>
      </trkpt>
      <trkpt lat="45.99125" lon="6.27725">
        <ele>1069</ele>
        <time>2016-10-02T15:21:24+02:00</time>
      </trkpt>
      <trkpt lat="45.99124" lon="6.27721">
        <ele>1067</ele>
        <time>2016-10-02T15:21:26+02:00</time>
      </trkpt>
      <trkpt lat="45.99124" lon="6.27716">
        <ele>1065</ele>
        <time>2016-10-02T15:21:29+02:00</time>
      </trkpt>
      <trkpt lat="45.99124" lon="6.27713">
        <ele>1064</ele>
        <time>2016-10-02T15:21:31+02:00</time>
      </trkpt>
      <trkpt lat="45.99124" lon="6.2771">
        <ele>1063</ele>
        <time>2016-10-02T15:21:33+02:00</time>
      </trkpt>
      <trkpt lat="45.99123" lon="6.27709">
        <ele>1062</ele>
        <time>2016-10-02T15:21:34+02:00</time>
      </trkpt>
      <trkpt lat="45.99123" lon="6.27708">
        <ele>1062</ele>
        <time>2016-10-02T15:21:34+02:00</time>
      </trkpt>
      <trkpt lat="45.99122" lon="6.27708">
        <ele>1061</ele>
        <time>2016-10-02T15:21:35+02:00</time>
      </trkpt>
      <trkpt lat="45.99121" lon="6.27707">
        <ele>1061</ele>
        <time>2016-10-02T15:21:36+02:00</time>
      </trkpt>
      <trkpt lat="45.9912" lon="6.27707">
        <ele>1060</ele>
        <time>2016-10-02T15:21:37+02:00</time>
      </trkpt>
      <trkpt lat="45.99119" lon="6.27708">
        <ele>1060</ele>
        <time>2016-10-02T15:21:38+02:00</time>
      </trkpt>
      <trkpt lat="45.99118" lon="6.27709">
        <ele>1059</ele>
        <time>2016-10-02T15:21:39+02:00</time>
      </trkpt>
      <trkpt lat="45.99117" lon="6.2771">
        <ele>1059</ele>
        <time>2016-10-02T15:21:40+02:00</time>
      </trkpt>
      <trkpt lat="45.99115" lon="6.2771">
        <ele>1058</ele>
        <time>2016-10-02T15:21:42+02:00</time>
      </trkpt>
      <trkpt lat="45.99114" lon="6.2771">
        <ele>1057</ele>
        <time>2016-10-02T15:21:43+02:00</time>
      </trkpt>
      <trkpt lat="45.99113" lon="6.27711">
        <ele>1057</ele>
        <time>2016-10-02T15:21:44+02:00</time>
      </trkpt>
      <trkpt lat="45.99112" lon="6.27711">
        <ele>1056</ele>
        <time>2016-10-02T15:21:45+02:00</time>
      </trkpt>
      <trkpt lat="45.99111" lon="6.27711">
        <ele>1056</ele>
        <time>2016-10-02T15:21:46+02:00</time>
      </trkpt>
      <trkpt lat="45.9911" lon="6.27712">
        <ele>1055</ele>
        <time>2016-10-02T15:21:47+02:00</time>
      </trkpt>
      <trkpt lat="45.99109" lon="6.27713">
        <ele>1055</ele>
        <time>2016-10-02T15:21:48+02:00</time>
      </trkpt>
      <trkpt lat="45.99108" lon="6.27714">
        <ele>1055</ele>
        <time>2016-10-02T15:21:49+02:00</time>
      </trkpt>
      <trkpt lat="45.99107" lon="6.27715">
        <ele>1054</ele>
        <time>2016-10-02T15:21:50+02:00</time>
      </trkpt>
      <trkpt lat="45.99106" lon="6.27716">
        <ele>1054</ele>
        <time>2016-10-02T15:21:51+02:00</time>
      </trkpt>
      <trkpt lat="45.99105" lon="6.27717">
        <ele>1054</ele>
        <time>2016-10-02T15:21:52+02:00</time>
      </trkpt>
      <trkpt lat="45.99104" lon="6.27718">
        <ele>1054</ele>
        <time>2016-10-02T15:21:53+02:00</time>
      </trkpt>
      <trkpt lat="45.99103" lon="6.27719">
        <ele>1054</ele>
        <time>2016-10-02T15:21:54+02:00</time>
      </trkpt>
      <trkpt lat="45.99103" lon="6.27721">
        <ele>1054</ele>
        <time>2016-10-02T15:21:55+02:00</time>
      </trkpt>
      <trkpt lat="45.99102" lon="6.27722">
        <ele>1054</ele>
        <time>2016-10-02T15:21:56+02:00</time>
      </trkpt>
      <trkpt lat="45.991" lon="6.27723">
        <ele>1053</ele>
        <time>2016-10-02T15:21:57+02:00</time>
      </trkpt>
      <trkpt lat="45.99099" lon="6.27723">
        <ele>1052</ele>
        <time>2016-10-02T15:21:59+02:00</time>
      </trkpt>
      <trkpt lat="45.99098" lon="6.27724">
        <ele>1052</ele>
        <time>2016-10-02T15:22:00+02:00</time>
      </trkpt>
      <trkpt lat="45.99097" lon="6.27725">
        <ele>1052</ele>
        <time>2016-10-02T15:22:01+02:00</time>
      </trkpt>
      <trkpt lat="45.99096" lon="6.27726">
        <ele>1052</ele>
        <time>2016-10-02T15:22:02+02:00</time>
      </trkpt>
      <trkpt lat="45.99095" lon="6.27728">
        <ele>1051</ele>
        <time>2016-10-02T15:22:03+02:00</time>
      </trkpt>
      <trkpt lat="45.99094" lon="6.27729">
        <ele>1051</ele>
        <time>2016-10-02T15:22:04+02:00</time>
      </trkpt>
      <trkpt lat="45.99093" lon="6.2773">
        <ele>1051</ele>
        <time>2016-10-02T15:22:05+02:00</time>
      </trkpt>
      <trkpt lat="45.99092" lon="6.27732">
        <ele>1051</ele>
        <time>2016-10-02T15:22:06+02:00</time>
      </trkpt>
      <trkpt lat="45.99092" lon="6.27733">
        <ele>1051</ele>
        <time>2016-10-02T15:22:07+02:00</time>
      </trkpt>
      <trkpt lat="45.9909" lon="6.27734">
        <ele>1051</ele>
        <time>2016-10-02T15:22:08+02:00</time>
      </trkpt>
      <trkpt lat="45.99089" lon="6.27735">
        <ele>1050</ele>
        <time>2016-10-02T15:22:10+02:00</time>
      </trkpt>
      <trkpt lat="45.99088" lon="6.27736">
        <ele>1050</ele>
        <time>2016-10-02T15:22:11+02:00</time>
      </trkpt>
      <trkpt lat="45.99087" lon="6.27737">
        <ele>1050</ele>
        <time>2016-10-02T15:22:12+02:00</time>
      </trkpt>
      <trkpt lat="45.99086" lon="6.27738">
        <ele>1049</ele>
        <time>2016-10-02T15:22:13+02:00</time>
      </trkpt>
      <trkpt lat="45.99084" lon="6.27739">
        <ele>1048</ele>
        <time>2016-10-02T15:22:15+02:00</time>
      </trkpt>
      <trkpt lat="45.99081" lon="6.27739">
        <ele>1047</ele>
        <time>2016-10-02T15:22:17+02:00</time>
      </trkpt>
      <trkpt lat="45.99079" lon="6.2774">
        <ele>1046</ele>
        <time>2016-10-02T15:22:19+02:00</time>
      </trkpt>
      <trkpt lat="45.99076" lon="6.27741">
        <ele>1045</ele>
        <time>2016-10-02T15:22:21+02:00</time>
      </trkpt>
      <trkpt lat="45.99074" lon="6.27742">
        <ele>1044</ele>
        <time>2016-10-02T15:22:23+02:00</time>
      </trkpt>
      <trkpt lat="45.99072" lon="6.27743">
        <ele>1043</ele>
        <time>2016-10-02T15:22:25+02:00</time>
      </trkpt>
      <trkpt lat="45.9907" lon="6.27744">
        <ele>1042</ele>
        <time>2016-10-02T15:22:27+02:00</time>
      </trkpt>
      <trkpt lat="45.99069" lon="6.27744">
        <ele>1041</ele>
        <time>2016-10-02T15:22:28+02:00</time>
      </trkpt>
      <trkpt lat="45.99067" lon="6.27744">
        <ele>1040</ele>
        <time>2016-10-02T15:22:30+02:00</time>
      </trkpt>
      <trkpt lat="45.99065" lon="6.27744">
        <ele>1039</ele>
        <time>2016-10-02T15:22:31+02:00</time>
      </trkpt>
      <trkpt lat="45.99063" lon="6.27745">
        <ele>1038</ele>
        <time>2016-10-02T15:22:33+02:00</time>
      </trkpt>
      <trkpt lat="45.99062" lon="6.27745">
        <ele>1038</ele>
        <time>2016-10-02T15:22:34+02:00</time>
      </trkpt>
      <trkpt lat="45.99062" lon="6.27746">
        <ele>1038</ele>
        <time>2016-10-02T15:22:35+02:00</time>
      </trkpt>
      <trkpt lat="45.99062" lon="6.27747">
        <ele>1038</ele>
        <time>2016-10-02T15:22:35+02:00</time>
      </trkpt>
      <trkpt lat="45.99061" lon="6.27746">
        <ele>1037</ele>
        <time>2016-10-02T15:22:36+02:00</time>
      </trkpt>
      <trkpt lat="45.9906" lon="6.27747">
        <ele>1037</ele>
        <time>2016-10-02T15:22:37+02:00</time>
      </trkpt>
      <trkpt lat="45.9906" lon="6.27748">
        <ele>1037</ele>
        <time>2016-10-02T15:22:37+02:00</time>
      </trkpt>
      <trkpt lat="45.99059" lon="6.27749">
        <ele>1037</ele>
        <time>2016-10-02T15:22:38+02:00</time>
      </trkpt>
      <trkpt lat="45.99058" lon="6.2775">
        <ele>1037</ele>
        <time>2016-10-02T15:22:39+02:00</time>
      </trkpt>
      <trkpt lat="45.99057" lon="6.2775">
        <ele>1036</ele>
        <time>2016-10-02T15:22:40+02:00</time>
      </trkpt>
      <trkpt lat="45.99056" lon="6.27751">
        <ele>1036</ele>
        <time>2016-10-02T15:22:41+02:00</time>
      </trkpt>
      <trkpt lat="45.99056" lon="6.27752">
        <ele>1036</ele>
        <time>2016-10-02T15:22:42+02:00</time>
      </trkpt>
      <trkpt lat="45.99055" lon="6.27753">
        <ele>1035</ele>
        <time>2016-10-02T15:22:43+02:00</time>
      </trkpt>
      <trkpt lat="45.99054" lon="6.27754">
        <ele>1035</ele>
        <time>2016-10-02T15:22:44+02:00</time>
      </trkpt>
      <trkpt lat="45.99054" lon="6.27755">
        <ele>1035</ele>
        <time>2016-10-02T15:22:44+02:00</time>
      </trkpt>
      <trkpt lat="45.99053" lon="6.27756">
        <ele>1034</ele>
        <time>2016-10-02T15:22:46+02:00</time>
      </trkpt>
      <trkpt lat="45.99052" lon="6.27757">
        <ele>1034</ele>
        <time>2016-10-02T15:22:46+02:00</time>
      </trkpt>
      <trkpt lat="45.99052" lon="6.27758">
        <ele>1034</ele>
        <time>2016-10-02T15:22:47+02:00</time>
      </trkpt>
      <trkpt lat="45.99052" lon="6.27759">
        <ele>1034</ele>
        <time>2016-10-02T15:22:47+02:00</time>
      </trkpt>
      <trkpt lat="45.99052" lon="6.2776">
        <ele>1034</ele>
        <time>2016-10-02T15:22:48+02:00</time>
      </trkpt>
      <trkpt lat="45.99052" lon="6.27762">
        <ele>1034</ele>
        <time>2016-10-02T15:22:49+02:00</time>
      </trkpt>
      <trkpt lat="45.99052" lon="6.27763">
        <ele>1034</ele>
        <time>2016-10-02T15:22:50+02:00</time>
      </trkpt>
      <trkpt lat="45.99052" lon="6.27765">
        <ele>1035</ele>
        <time>2016-10-02T15:22:51+02:00</time>
      </trkpt>
      <trkpt lat="45.99052" lon="6.27766">
        <ele>1035</ele>
        <time>2016-10-02T15:22:52+02:00</time>
      </trkpt>
      <trkpt lat="45.99052" lon="6.27768">
        <ele>1035</ele>
        <time>2016-10-02T15:22:53+02:00</time>
      </trkpt>
      <trkpt lat="45.99052" lon="6.27769">
        <ele>1035</ele>
        <time>2016-10-02T15:22:54+02:00</time>
      </trkpt>
      <trkpt lat="45.99052" lon="6.27771">
        <ele>1036</ele>
        <time>2016-10-02T15:22:55+02:00</time>
      </trkpt>
      <trkpt lat="45.99053" lon="6.27772">
        <ele>1036</ele>
        <time>2016-10-02T15:22:55+02:00</time>
      </trkpt>
      <trkpt lat="45.99053" lon="6.27773">
        <ele>1036</ele>
        <time>2016-10-02T15:22:56+02:00</time>
      </trkpt>
      <trkpt lat="45.99053" lon="6.27774">
        <ele>1036</ele>
        <time>2016-10-02T15:22:56+02:00</time>
      </trkpt>
      <trkpt lat="45.99053" lon="6.27775">
        <ele>1037</ele>
        <time>2016-10-02T15:22:57+02:00</time>
      </trkpt>
      <trkpt lat="45.99053" lon="6.27776">
        <ele>1037</ele>
        <time>2016-10-02T15:22:58+02:00</time>
      </trkpt>
      <trkpt lat="45.99053" lon="6.27777">
        <ele>1037</ele>
        <time>2016-10-02T15:22:58+02:00</time>
      </trkpt>
      <trkpt lat="45.99053" lon="6.27778">
        <ele>1037</ele>
        <time>2016-10-02T15:22:59+02:00</time>
      </trkpt>
      <trkpt lat="45.99053" lon="6.27779">
        <ele>1037</ele>
        <time>2016-10-02T15:23:00+02:00</time>
      </trkpt>
      <trkpt lat="45.99053" lon="6.27781">
        <ele>1037</ele>
        <time>2016-10-02T15:23:01+02:00</time>
      </trkpt>
      <trkpt lat="45.99052" lon="6.27782">
        <ele>1037</ele>
        <time>2016-10-02T15:23:02+02:00</time>
      </trkpt>
      <trkpt lat="45.99052" lon="6.27784">
        <ele>1037</ele>
        <time>2016-10-02T15:23:03+02:00</time>
      </trkpt>
      <trkpt lat="45.99052" lon="6.27786">
        <ele>1037</ele>
        <time>2016-10-02T15:23:04+02:00</time>
      </trkpt>
      <trkpt lat="45.99052" lon="6.27788">
        <ele>1037</ele>
        <time>2016-10-02T15:23:05+02:00</time>
      </trkpt>
      <trkpt lat="45.99052" lon="6.27791">
        <ele>1038</ele>
        <time>2016-10-02T15:23:07+02:00</time>
      </trkpt>
      <trkpt lat="45.99052" lon="6.27793">
        <ele>1038</ele>
        <time>2016-10-02T15:23:08+02:00</time>
      </trkpt>
      <trkpt lat="45.99053" lon="6.27795">
        <ele>1038</ele>
        <time>2016-10-02T15:23:09+02:00</time>
      </trkpt>
      <trkpt lat="45.99053" lon="6.27796">
        <ele>1039</ele>
        <time>2016-10-02T15:23:10+02:00</time>
      </trkpt>
      <trkpt lat="45.99053" lon="6.27798">
        <ele>1039</ele>
        <time>2016-10-02T15:23:11+02:00</time>
      </trkpt>
      <trkpt lat="45.99054" lon="6.278">
        <ele>1039</ele>
        <time>2016-10-02T15:23:12+02:00</time>
      </trkpt>
      <trkpt lat="45.99054" lon="6.27802">
        <ele>1040</ele>
        <time>2016-10-02T15:23:14+02:00</time>
      </trkpt>
      <trkpt lat="45.99054" lon="6.27804">
        <ele>1040</ele>
        <time>2016-10-02T15:23:15+02:00</time>
      </trkpt>
      <trkpt lat="45.99054" lon="6.27807">
        <ele>1041</ele>
        <time>2016-10-02T15:23:16+02:00</time>
      </trkpt>
      <trkpt lat="45.99055" lon="6.27809">
        <ele>1041</ele>
        <time>2016-10-02T15:23:17+02:00</time>
      </trkpt>
      <trkpt lat="45.99055" lon="6.27811">
        <ele>1041</ele>
        <time>2016-10-02T15:23:19+02:00</time>
      </trkpt>
      <trkpt lat="45.99055" lon="6.27813">
        <ele>1042</ele>
        <time>2016-10-02T15:23:20+02:00</time>
      </trkpt>
      <trkpt lat="45.99055" lon="6.27814">
        <ele>1042</ele>
        <time>2016-10-02T15:23:21+02:00</time>
      </trkpt>
      <trkpt lat="45.99055" lon="6.27816">
        <ele>1042</ele>
        <time>2016-10-02T15:23:22+02:00</time>
      </trkpt>
      <trkpt lat="45.99055" lon="6.27818">
        <ele>1042</ele>
        <time>2016-10-02T15:23:23+02:00</time>
      </trkpt>
      <trkpt lat="45.99055" lon="6.2782">
        <ele>1043</ele>
        <time>2016-10-02T15:23:24+02:00</time>
      </trkpt>
      <trkpt lat="45.99055" lon="6.27822">
        <ele>1043</ele>
        <time>2016-10-02T15:23:25+02:00</time>
      </trkpt>
      <trkpt lat="45.99055" lon="6.27824">
        <ele>1043</ele>
        <time>2016-10-02T15:23:26+02:00</time>
      </trkpt>
      <trkpt lat="45.99056" lon="6.27826">
        <ele>1044</ele>
        <time>2016-10-02T15:23:27+02:00</time>
      </trkpt>
      <trkpt lat="45.99056" lon="6.27827">
        <ele>1044</ele>
        <time>2016-10-02T15:23:28+02:00</time>
      </trkpt>
      <trkpt lat="45.99055" lon="6.27829">
        <ele>1044</ele>
        <time>2016-10-02T15:23:29+02:00</time>
      </trkpt>
      <trkpt lat="45.99055" lon="6.27832">
        <ele>1044</ele>
        <time>2016-10-02T15:23:31+02:00</time>
      </trkpt>
      <trkpt lat="45.99055" lon="6.27834">
        <ele>1044</ele>
        <time>2016-10-02T15:23:32+02:00</time>
      </trkpt>
      <trkpt lat="45.99056" lon="6.27836">
        <ele>1044</ele>
        <time>2016-10-02T15:23:33+02:00</time>
      </trkpt>
      <trkpt lat="45.99056" lon="6.27838">
        <ele>1044</ele>
        <time>2016-10-02T15:23:35+02:00</time>
      </trkpt>
      <trkpt lat="45.99055" lon="6.2784">
        <ele>1043</ele>
        <time>2016-10-02T15:23:36+02:00</time>
      </trkpt>
      <trkpt lat="45.99054" lon="6.27843">
        <ele>1043</ele>
        <time>2016-10-02T15:23:38+02:00</time>
      </trkpt>
      <trkpt lat="45.99053" lon="6.27845">
        <ele>1042</ele>
        <time>2016-10-02T15:23:39+02:00</time>
      </trkpt>
      <trkpt lat="45.99053" lon="6.27847">
        <ele>1041</ele>
        <time>2016-10-02T15:23:40+02:00</time>
      </trkpt>
      <trkpt lat="45.99053" lon="6.27849">
        <ele>1041</ele>
        <time>2016-10-02T15:23:42+02:00</time>
      </trkpt>
      <trkpt lat="45.99052" lon="6.27851">
        <ele>1040</ele>
        <time>2016-10-02T15:23:43+02:00</time>
      </trkpt>
      <trkpt lat="45.99052" lon="6.27853">
        <ele>1040</ele>
        <time>2016-10-02T15:23:45+02:00</time>
      </trkpt>
      <trkpt lat="45.99051" lon="6.27855">
        <ele>1039</ele>
        <time>2016-10-02T15:23:46+02:00</time>
      </trkpt>
      <trkpt lat="45.9905" lon="6.27858">
        <ele>1039</ele>
        <time>2016-10-02T15:23:47+02:00</time>
      </trkpt>
      <trkpt lat="45.9905" lon="6.2786">
        <ele>1038</ele>
        <time>2016-10-02T15:23:49+02:00</time>
      </trkpt>
      <trkpt lat="45.99049" lon="6.27862">
        <ele>1037</ele>
        <time>2016-10-02T15:23:50+02:00</time>
      </trkpt>
      <trkpt lat="45.99048" lon="6.27864">
        <ele>1037</ele>
        <time>2016-10-02T15:23:52+02:00</time>
      </trkpt>
      <trkpt lat="45.99048" lon="6.27866">
        <ele>1036</ele>
        <time>2016-10-02T15:23:53+02:00</time>
      </trkpt>
      <trkpt lat="45.99047" lon="6.27868">
        <ele>1035</ele>
        <time>2016-10-02T15:23:54+02:00</time>
      </trkpt>
      <trkpt lat="45.99046" lon="6.27869">
        <ele>1035</ele>
        <time>2016-10-02T15:23:56+02:00</time>
      </trkpt>
      <trkpt lat="45.99045" lon="6.27871">
        <ele>1034</ele>
        <time>2016-10-02T15:23:57+02:00</time>
      </trkpt>
      <trkpt lat="45.99045" lon="6.27873">
        <ele>1033</ele>
        <time>2016-10-02T15:23:58+02:00</time>
      </trkpt>
      <trkpt lat="45.99044" lon="6.27874">
        <ele>1032</ele>
        <time>2016-10-02T15:23:59+02:00</time>
      </trkpt>
      <trkpt lat="45.99044" lon="6.27876">
        <ele>1032</ele>
        <time>2016-10-02T15:24:00+02:00</time>
      </trkpt>
      <trkpt lat="45.99044" lon="6.27878">
        <ele>1032</ele>
        <time>2016-10-02T15:24:02+02:00</time>
      </trkpt>
      <trkpt lat="45.99044" lon="6.27881">
        <ele>1031</ele>
        <time>2016-10-02T15:24:03+02:00</time>
      </trkpt>
      <trkpt lat="45.99043" lon="6.27882">
        <ele>1031</ele>
        <time>2016-10-02T15:24:04+02:00</time>
      </trkpt>
      <trkpt lat="45.99043" lon="6.27884">
        <ele>1031</ele>
        <time>2016-10-02T15:24:05+02:00</time>
      </trkpt>
      <trkpt lat="45.99044" lon="6.27886">
        <ele>1031</ele>
        <time>2016-10-02T15:24:06+02:00</time>
      </trkpt>
      <trkpt lat="45.99044" lon="6.27888">
        <ele>1031</ele>
        <time>2016-10-02T15:24:07+02:00</time>
      </trkpt>
      <trkpt lat="45.99044" lon="6.2789">
        <ele>1031</ele>
        <time>2016-10-02T15:24:09+02:00</time>
      </trkpt>
      <trkpt lat="45.99044" lon="6.27892">
        <ele>1030</ele>
        <time>2016-10-02T15:24:10+02:00</time>
      </trkpt>
      <trkpt lat="45.99043" lon="6.27894">
        <ele>1030</ele>
        <time>2016-10-02T15:24:11+02:00</time>
      </trkpt>
      <trkpt lat="45.99043" lon="6.27897">
        <ele>1030</ele>
        <time>2016-10-02T15:24:13+02:00</time>
      </trkpt>
      <trkpt lat="45.99043" lon="6.27899">
        <ele>1029</ele>
        <time>2016-10-02T15:24:14+02:00</time>
      </trkpt>
      <trkpt lat="45.99043" lon="6.27901">
        <ele>1029</ele>
        <time>2016-10-02T15:24:15+02:00</time>
      </trkpt>
      <trkpt lat="45.99043" lon="6.27904">
        <ele>1029</ele>
        <time>2016-10-02T15:24:17+02:00</time>
      </trkpt>
      <trkpt lat="45.99043" lon="6.27906">
        <ele>1028</ele>
        <time>2016-10-02T15:24:18+02:00</time>
      </trkpt>
      <trkpt lat="45.99042" lon="6.27908">
        <ele>1028</ele>
        <time>2016-10-02T15:24:19+02:00</time>
      </trkpt>
      <trkpt lat="45.99042" lon="6.27909">
        <ele>1028</ele>
        <time>2016-10-02T15:24:20+02:00</time>
      </trkpt>
      <trkpt lat="45.99042" lon="6.27911">
        <ele>1028</ele>
        <time>2016-10-02T15:24:21+02:00</time>
      </trkpt>
      <trkpt lat="45.99043" lon="6.27913">
        <ele>1028</ele>
        <time>2016-10-02T15:24:22+02:00</time>
      </trkpt>
      <trkpt lat="45.99043" lon="6.27915">
        <ele>1027</ele>
        <time>2016-10-02T15:24:23+02:00</time>
      </trkpt>
      <trkpt lat="45.99043" lon="6.27918">
        <ele>1027</ele>
        <time>2016-10-02T15:24:25+02:00</time>
      </trkpt>
      <trkpt lat="45.99043" lon="6.27921">
        <ele>1027</ele>
        <time>2016-10-02T15:24:27+02:00</time>
      </trkpt>
      <trkpt lat="45.99043" lon="6.27924">
        <ele>1026</ele>
        <time>2016-10-02T15:24:28+02:00</time>
      </trkpt>
      <trkpt lat="45.99042" lon="6.27926">
        <ele>1026</ele>
        <time>2016-10-02T15:24:30+02:00</time>
      </trkpt>
      <trkpt lat="45.99042" lon="6.27927">
        <ele>1025</ele>
        <time>2016-10-02T15:24:31+02:00</time>
      </trkpt>
      <trkpt lat="45.99043" lon="6.27929">
        <ele>1025</ele>
        <time>2016-10-02T15:24:32+02:00</time>
      </trkpt>
      <trkpt lat="45.99043" lon="6.27931">
        <ele>1025</ele>
        <time>2016-10-02T15:24:33+02:00</time>
      </trkpt>
      <trkpt lat="45.99043" lon="6.27934">
        <ele>1024</ele>
        <time>2016-10-02T15:24:34+02:00</time>
      </trkpt>
      <trkpt lat="45.99043" lon="6.27936">
        <ele>1024</ele>
        <time>2016-10-02T15:24:36+02:00</time>
      </trkpt>
      <trkpt lat="45.99043" lon="6.27937">
        <ele>1024</ele>
        <time>2016-10-02T15:24:37+02:00</time>
      </trkpt>
      <trkpt lat="45.99043" lon="6.27939">
        <ele>1024</ele>
        <time>2016-10-02T15:24:38+02:00</time>
      </trkpt>
      <trkpt lat="45.99043" lon="6.27941">
        <ele>1023</ele>
        <time>2016-10-02T15:24:39+02:00</time>
      </trkpt>
      <trkpt lat="45.99043" lon="6.27943">
        <ele>1023</ele>
        <time>2016-10-02T15:24:40+02:00</time>
      </trkpt>
      <trkpt lat="45.99043" lon="6.27945">
        <ele>1023</ele>
        <time>2016-10-02T15:24:41+02:00</time>
      </trkpt>
      <trkpt lat="45.99043" lon="6.27947">
        <ele>1023</ele>
        <time>2016-10-02T15:24:42+02:00</time>
      </trkpt>
      <trkpt lat="45.99043" lon="6.27949">
        <ele>1022</ele>
        <time>2016-10-02T15:24:44+02:00</time>
      </trkpt>
      <trkpt lat="45.99043" lon="6.27951">
        <ele>1022</ele>
        <time>2016-10-02T15:24:45+02:00</time>
      </trkpt>
      <trkpt lat="45.99043" lon="6.27953">
        <ele>1022</ele>
        <time>2016-10-02T15:24:46+02:00</time>
      </trkpt>
      <trkpt lat="45.99043" lon="6.27954">
        <ele>1022</ele>
        <time>2016-10-02T15:24:47+02:00</time>
      </trkpt>
      <trkpt lat="45.99043" lon="6.27956">
        <ele>1021</ele>
        <time>2016-10-02T15:24:48+02:00</time>
      </trkpt>
      <trkpt lat="45.99042" lon="6.27959">
        <ele>1020</ele>
        <time>2016-10-02T15:24:50+02:00</time>
      </trkpt>
      <trkpt lat="45.99042" lon="6.27961">
        <ele>1020</ele>
        <time>2016-10-02T15:24:51+02:00</time>
      </trkpt>
      <trkpt lat="45.99043" lon="6.27963">
        <ele>1020</ele>
        <time>2016-10-02T15:24:52+02:00</time>
      </trkpt>
      <trkpt lat="45.99043" lon="6.27965">
        <ele>1020</ele>
        <time>2016-10-02T15:24:53+02:00</time>
      </trkpt>
      <trkpt lat="45.99043" lon="6.27968">
        <ele>1019</ele>
        <time>2016-10-02T15:24:55+02:00</time>
      </trkpt>
      <trkpt lat="45.99043" lon="6.2797">
        <ele>1019</ele>
        <time>2016-10-02T15:24:56+02:00</time>
      </trkpt>
      <trkpt lat="45.99043" lon="6.27972">
        <ele>1019</ele>
        <time>2016-10-02T15:24:57+02:00</time>
      </trkpt>
      <trkpt lat="45.99043" lon="6.27975">
        <ele>1018</ele>
        <time>2016-10-02T15:24:59+02:00</time>
      </trkpt>
      <trkpt lat="45.99043" lon="6.27978">
        <ele>1018</ele>
        <time>2016-10-02T15:25:01+02:00</time>
      </trkpt>
      <trkpt lat="45.99043" lon="6.27981">
        <ele>1017</ele>
        <time>2016-10-02T15:25:02+02:00</time>
      </trkpt>
      <trkpt lat="45.99043" lon="6.27984">
        <ele>1016</ele>
        <time>2016-10-02T15:25:04+02:00</time>
      </trkpt>
      <trkpt lat="45.99043" lon="6.27987">
        <ele>1016</ele>
        <time>2016-10-02T15:25:06+02:00</time>
      </trkpt>
      <trkpt lat="45.99043" lon="6.27991">
        <ele>1015</ele>
        <time>2016-10-02T15:25:08+02:00</time>
      </trkpt>
      <trkpt lat="45.99044" lon="6.27994">
        <ele>1015</ele>
        <time>2016-10-02T15:25:10+02:00</time>
      </trkpt>
      <trkpt lat="45.99044" lon="6.27997">
        <ele>1015</ele>
        <time>2016-10-02T15:25:12+02:00</time>
      </trkpt>
      <trkpt lat="45.99045" lon="6.28">
        <ele>1015</ele>
        <time>2016-10-02T15:25:13+02:00</time>
      </trkpt>
      <trkpt lat="45.99045" lon="6.28003">
        <ele>1015</ele>
        <time>2016-10-02T15:25:15+02:00</time>
      </trkpt>
      <trkpt lat="45.99044" lon="6.28006">
        <ele>1015</ele>
        <time>2016-10-02T15:25:17+02:00</time>
      </trkpt>
      <trkpt lat="45.99045" lon="6.28008">
        <ele>1015</ele>
        <time>2016-10-02T15:25:18+02:00</time>
      </trkpt>
      <trkpt lat="45.99045" lon="6.28011">
        <ele>1016</ele>
        <time>2016-10-02T15:25:20+02:00</time>
      </trkpt>
      <trkpt lat="45.99047" lon="6.28013">
        <ele>1017</ele>
        <time>2016-10-02T15:25:22+02:00</time>
      </trkpt>
      <trkpt lat="45.99048" lon="6.28016">
        <ele>1017</ele>
        <time>2016-10-02T15:25:24+02:00</time>
      </trkpt>
      <trkpt lat="45.99049" lon="6.2802">
        <ele>1018</ele>
        <time>2016-10-02T15:25:26+02:00</time>
      </trkpt>
      <trkpt lat="45.99049" lon="6.28023">
        <ele>1018</ele>
        <time>2016-10-02T15:25:28+02:00</time>
      </trkpt>
      <trkpt lat="45.99049" lon="6.28026">
        <ele>1018</ele>
        <time>2016-10-02T15:25:30+02:00</time>
      </trkpt>
      <trkpt lat="45.9905" lon="6.28029">
        <ele>1019</ele>
        <time>2016-10-02T15:25:32+02:00</time>
      </trkpt>
      <trkpt lat="45.99051" lon="6.28032">
        <ele>1020</ele>
        <time>2016-10-02T15:25:34+02:00</time>
      </trkpt>
      <trkpt lat="45.99052" lon="6.28034">
        <ele>1020</ele>
        <time>2016-10-02T15:25:36+02:00</time>
      </trkpt>
      <trkpt lat="45.99054" lon="6.28036">
        <ele>1021</ele>
        <time>2016-10-02T15:25:37+02:00</time>
      </trkpt>
      <trkpt lat="45.99055" lon="6.28037">
        <ele>1022</ele>
        <time>2016-10-02T15:25:39+02:00</time>
      </trkpt>
      <trkpt lat="45.99057" lon="6.28038">
        <ele>1023</ele>
        <time>2016-10-02T15:25:40+02:00</time>
      </trkpt>
      <trkpt lat="45.99057" lon="6.28039">
        <ele>1024</ele>
        <time>2016-10-02T15:25:41+02:00</time>
      </trkpt>
      <trkpt lat="45.99057" lon="6.2804">
        <ele>1024</ele>
        <time>2016-10-02T15:25:42+02:00</time>
      </trkpt>
      <trkpt lat="45.99057" lon="6.28041">
        <ele>1023</ele>
        <time>2016-10-02T15:25:43+02:00</time>
      </trkpt>
      <trkpt lat="45.99056" lon="6.28044">
        <ele>1022</ele>
        <time>2016-10-02T15:25:44+02:00</time>
      </trkpt>
      <trkpt lat="45.99054" lon="6.28046">
        <ele>1021</ele>
        <time>2016-10-02T15:25:46+02:00</time>
      </trkpt>
      <trkpt lat="45.99052" lon="6.28048">
        <ele>1020</ele>
        <time>2016-10-02T15:25:48+02:00</time>
      </trkpt>
      <trkpt lat="45.99051" lon="6.2805">
        <ele>1019</ele>
        <time>2016-10-02T15:25:50+02:00</time>
      </trkpt>
      <trkpt lat="45.99049" lon="6.28051">
        <ele>1018</ele>
        <time>2016-10-02T15:25:52+02:00</time>
      </trkpt>
      <trkpt lat="45.99047" lon="6.28053">
        <ele>1017</ele>
        <time>2016-10-02T15:25:53+02:00</time>
      </trkpt>
      <trkpt lat="45.99046" lon="6.28054">
        <ele>1015</ele>
        <time>2016-10-02T15:25:55+02:00</time>
      </trkpt>
      <trkpt lat="45.99044" lon="6.28055">
        <ele>1014</ele>
        <time>2016-10-02T15:25:57+02:00</time>
      </trkpt>
      <trkpt lat="45.99042" lon="6.28056">
        <ele>1013</ele>
        <time>2016-10-02T15:25:59+02:00</time>
      </trkpt>
      <trkpt lat="45.9904" lon="6.28058">
        <ele>1011</ele>
        <time>2016-10-02T15:26:00+02:00</time>
      </trkpt>
      <trkpt lat="45.99038" lon="6.28059">
        <ele>1010</ele>
        <time>2016-10-02T15:26:02+02:00</time>
      </trkpt>
      <trkpt lat="45.99036" lon="6.2806">
        <ele>1009</ele>
        <time>2016-10-02T15:26:04+02:00</time>
      </trkpt>
      <trkpt lat="45.99033" lon="6.2806">
        <ele>1007</ele>
        <time>2016-10-02T15:26:06+02:00</time>
      </trkpt>
      <trkpt lat="45.99031" lon="6.2806">
        <ele>1006</ele>
        <time>2016-10-02T15:26:08+02:00</time>
      </trkpt>
      <trkpt lat="45.99029" lon="6.28059">
        <ele>1004</ele>
        <time>2016-10-02T15:26:10+02:00</time>
      </trkpt>
      <trkpt lat="45.99026" lon="6.2806">
        <ele>1003</ele>
        <time>2016-10-02T15:26:12+02:00</time>
      </trkpt>
      <trkpt lat="45.99024" lon="6.2806">
        <ele>1001</ele>
        <time>2016-10-02T15:26:14+02:00</time>
      </trkpt>
      <trkpt lat="45.99022" lon="6.28061">
        <ele>999</ele>
        <time>2016-10-02T15:26:16+02:00</time>
      </trkpt>
      <trkpt lat="45.99019" lon="6.28062">
        <ele>998</ele>
        <time>2016-10-02T15:26:18+02:00</time>
      </trkpt>
      <trkpt lat="45.99017" lon="6.28064">
        <ele>997</ele>
        <time>2016-10-02T15:26:20+02:00</time>
      </trkpt>
      <trkpt lat="45.99014" lon="6.28066">
        <ele>995</ele>
        <time>2016-10-02T15:26:22+02:00</time>
      </trkpt>
      <trkpt lat="45.99012" lon="6.28066">
        <ele>993</ele>
        <time>2016-10-02T15:26:25+02:00</time>
      </trkpt>
      <trkpt lat="45.99009" lon="6.28067">
        <ele>991</ele>
        <time>2016-10-02T15:26:27+02:00</time>
      </trkpt>
      <trkpt lat="45.99005" lon="6.28069">
        <ele>989</ele>
        <time>2016-10-02T15:26:30+02:00</time>
      </trkpt>
      <trkpt lat="45.99002" lon="6.28071">
        <ele>987</ele>
        <time>2016-10-02T15:26:33+02:00</time>
      </trkpt>
      <trkpt lat="45.98999" lon="6.28074">
        <ele>986</ele>
        <time>2016-10-02T15:26:36+02:00</time>
      </trkpt>
      <trkpt lat="45.98996" lon="6.28076">
        <ele>985</ele>
        <time>2016-10-02T15:26:39+02:00</time>
      </trkpt>
      <trkpt lat="45.98994" lon="6.28077">
        <ele>983</ele>
        <time>2016-10-02T15:26:41+02:00</time>
      </trkpt>
      <trkpt lat="45.98991" lon="6.28077">
        <ele>982</ele>
        <time>2016-10-02T15:26:43+02:00</time>
      </trkpt>
      <trkpt lat="45.98989" lon="6.28076">
        <ele>981</ele>
        <time>2016-10-02T15:26:45+02:00</time>
      </trkpt>
      <trkpt lat="45.98986" lon="6.28075">
        <ele>980</ele>
        <time>2016-10-02T15:26:47+02:00</time>
      </trkpt>
      <trkpt lat="45.98984" lon="6.28073">
        <ele>978</ele>
        <time>2016-10-02T15:26:49+02:00</time>
      </trkpt>
      <trkpt lat="45.98982" lon="6.28073">
        <ele>977</ele>
        <time>2016-10-02T15:26:51+02:00</time>
      </trkpt>
      <trkpt lat="45.9898" lon="6.28073">
        <ele>976</ele>
        <time>2016-10-02T15:26:52+02:00</time>
      </trkpt>
      <trkpt lat="45.98979" lon="6.28074">
        <ele>976</ele>
        <time>2016-10-02T15:26:54+02:00</time>
      </trkpt>
      <trkpt lat="45.98976" lon="6.28074">
        <ele>974</ele>
        <time>2016-10-02T15:26:56+02:00</time>
      </trkpt>
      <trkpt lat="45.98974" lon="6.28073">
        <ele>973</ele>
        <time>2016-10-02T15:26:58+02:00</time>
      </trkpt>
      <trkpt lat="45.98971" lon="6.28073">
        <ele>972</ele>
        <time>2016-10-02T15:27:00+02:00</time>
      </trkpt>
      <trkpt lat="45.98969" lon="6.28073">
        <ele>971</ele>
        <time>2016-10-02T15:27:02+02:00</time>
      </trkpt>
      <trkpt lat="45.98967" lon="6.28074">
        <ele>970</ele>
        <time>2016-10-02T15:27:04+02:00</time>
      </trkpt>
      <trkpt lat="45.98965" lon="6.28074">
        <ele>969</ele>
        <time>2016-10-02T15:27:06+02:00</time>
      </trkpt>
      <trkpt lat="45.98962" lon="6.28074">
        <ele>967</ele>
        <time>2016-10-02T15:27:08+02:00</time>
      </trkpt>
      <trkpt lat="45.9896" lon="6.28073">
        <ele>966</ele>
        <time>2016-10-02T15:27:09+02:00</time>
      </trkpt>
      <trkpt lat="45.98958" lon="6.28073">
        <ele>965</ele>
        <time>2016-10-02T15:27:11+02:00</time>
      </trkpt>
      <trkpt lat="45.98956" lon="6.28073">
        <ele>964</ele>
        <time>2016-10-02T15:27:13+02:00</time>
      </trkpt>
      <trkpt lat="45.98954" lon="6.28073">
        <ele>963</ele>
        <time>2016-10-02T15:27:15+02:00</time>
      </trkpt>
      <trkpt lat="45.98951" lon="6.28073">
        <ele>962</ele>
        <time>2016-10-02T15:27:16+02:00</time>
      </trkpt>
      <trkpt lat="45.9895" lon="6.28074">
        <ele>961</ele>
        <time>2016-10-02T15:27:18+02:00</time>
      </trkpt>
      <trkpt lat="45.98948" lon="6.28074">
        <ele>960</ele>
        <time>2016-10-02T15:27:19+02:00</time>
      </trkpt>
      <trkpt lat="45.98945" lon="6.28074">
        <ele>959</ele>
        <time>2016-10-02T15:27:21+02:00</time>
      </trkpt>
      <trkpt lat="45.98943" lon="6.28075">
        <ele>958</ele>
        <time>2016-10-02T15:27:24+02:00</time>
      </trkpt>
      <trkpt lat="45.9894" lon="6.28075">
        <ele>956</ele>
        <time>2016-10-02T15:27:26+02:00</time>
      </trkpt>
      <trkpt lat="45.98937" lon="6.28074">
        <ele>955</ele>
        <time>2016-10-02T15:27:28+02:00</time>
      </trkpt>
      <trkpt lat="45.98935" lon="6.28074">
        <ele>954</ele>
        <time>2016-10-02T15:27:30+02:00</time>
      </trkpt>
      <trkpt lat="45.98933" lon="6.28074">
        <ele>953</ele>
        <time>2016-10-02T15:27:32+02:00</time>
      </trkpt>
      <trkpt lat="45.9893" lon="6.28075">
        <ele>952</ele>
        <time>2016-10-02T15:27:34+02:00</time>
      </trkpt>
      <trkpt lat="45.98929" lon="6.28076">
        <ele>951</ele>
        <time>2016-10-02T15:27:35+02:00</time>
      </trkpt>
      <trkpt lat="45.98928" lon="6.28078">
        <ele>951</ele>
        <time>2016-10-02T15:27:36+02:00</time>
      </trkpt>
      <trkpt lat="45.98927" lon="6.28079">
        <ele>951</ele>
        <time>2016-10-02T15:27:37+02:00</time>
      </trkpt>
      <trkpt lat="45.98926" lon="6.2808">
        <ele>951</ele>
        <time>2016-10-02T15:27:38+02:00</time>
      </trkpt>
      <trkpt lat="45.98925" lon="6.28081">
        <ele>951</ele>
        <time>2016-10-02T15:27:39+02:00</time>
      </trkpt>
      <trkpt lat="45.98923" lon="6.28081">
        <ele>950</ele>
        <time>2016-10-02T15:27:41+02:00</time>
      </trkpt>
      <trkpt lat="45.98922" lon="6.28082">
        <ele>950</ele>
        <time>2016-10-02T15:27:41+02:00</time>
      </trkpt>
      <trkpt lat="45.98921" lon="6.28083">
        <ele>950</ele>
        <time>2016-10-02T15:27:42+02:00</time>
      </trkpt>
      <trkpt lat="45.9892" lon="6.28083">
        <ele>950</ele>
        <time>2016-10-02T15:27:43+02:00</time>
      </trkpt>
      <trkpt lat="45.98919" lon="6.28083">
        <ele>949</ele>
        <time>2016-10-02T15:27:44+02:00</time>
      </trkpt>
      <trkpt lat="45.98918" lon="6.28084">
        <ele>949</ele>
        <time>2016-10-02T15:27:45+02:00</time>
      </trkpt>
      <trkpt lat="45.98917" lon="6.28085">
        <ele>949</ele>
        <time>2016-10-02T15:27:46+02:00</time>
      </trkpt>
      <trkpt lat="45.98916" lon="6.28086">
        <ele>948</ele>
        <time>2016-10-02T15:27:47+02:00</time>
      </trkpt>
      <trkpt lat="45.98914" lon="6.28087">
        <ele>948</ele>
        <time>2016-10-02T15:27:49+02:00</time>
      </trkpt>
      <trkpt lat="45.98912" lon="6.28087">
        <ele>948</ele>
        <time>2016-10-02T15:27:50+02:00</time>
      </trkpt>
      <trkpt lat="45.98911" lon="6.28089">
        <ele>948</ele>
        <time>2016-10-02T15:27:51+02:00</time>
      </trkpt>
      <trkpt lat="45.9891" lon="6.2809">
        <ele>948</ele>
        <time>2016-10-02T15:27:52+02:00</time>
      </trkpt>
      <trkpt lat="45.98909" lon="6.28092">
        <ele>948</ele>
        <time>2016-10-02T15:27:53+02:00</time>
      </trkpt>
      <trkpt lat="45.98908" lon="6.28093">
        <ele>948</ele>
        <time>2016-10-02T15:27:55+02:00</time>
      </trkpt>
      <trkpt lat="45.98907" lon="6.28095">
        <ele>948</ele>
        <time>2016-10-02T15:27:56+02:00</time>
      </trkpt>
      <trkpt lat="45.98906" lon="6.28098">
        <ele>949</ele>
        <time>2016-10-02T15:27:58+02:00</time>
      </trkpt>
      <trkpt lat="45.98905" lon="6.281">
        <ele>949</ele>
        <time>2016-10-02T15:27:59+02:00</time>
      </trkpt>
      <trkpt lat="45.98905" lon="6.28102">
        <ele>950</ele>
        <time>2016-10-02T15:28:00+02:00</time>
      </trkpt>
      <trkpt lat="45.98904" lon="6.28104">
        <ele>950</ele>
        <time>2016-10-02T15:28:02+02:00</time>
      </trkpt>
      <trkpt lat="45.98904" lon="6.28106">
        <ele>951</ele>
        <time>2016-10-02T15:28:03+02:00</time>
      </trkpt>
      <trkpt lat="45.98903" lon="6.28107">
        <ele>951</ele>
        <time>2016-10-02T15:28:04+02:00</time>
      </trkpt>
      <trkpt lat="45.98902" lon="6.28109">
        <ele>951</ele>
        <time>2016-10-02T15:28:05+02:00</time>
      </trkpt>
      <trkpt lat="45.98901" lon="6.2811">
        <ele>951</ele>
        <time>2016-10-02T15:28:06+02:00</time>
      </trkpt>
      <trkpt lat="45.98901" lon="6.28111">
        <ele>951</ele>
        <time>2016-10-02T15:28:07+02:00</time>
      </trkpt>
      <trkpt lat="45.989" lon="6.28112">
        <ele>951</ele>
        <time>2016-10-02T15:28:08+02:00</time>
      </trkpt>
      <trkpt lat="45.98899" lon="6.28113">
        <ele>951</ele>
        <time>2016-10-02T15:28:08+02:00</time>
      </trkpt>
      <trkpt lat="45.98898" lon="6.28114">
        <ele>951</ele>
        <time>2016-10-02T15:28:10+02:00</time>
      </trkpt>
      <trkpt lat="45.98897" lon="6.28114">
        <ele>951</ele>
        <time>2016-10-02T15:28:10+02:00</time>
      </trkpt>
      <trkpt lat="45.98896" lon="6.28115">
        <ele>950</ele>
        <time>2016-10-02T15:28:12+02:00</time>
      </trkpt>
      <trkpt lat="45.98896" lon="6.28117">
        <ele>951</ele>
        <time>2016-10-02T15:28:13+02:00</time>
      </trkpt>
      <trkpt lat="45.98895" lon="6.28119">
        <ele>951</ele>
        <time>2016-10-02T15:28:14+02:00</time>
      </trkpt>
      <trkpt lat="45.98894" lon="6.28121">
        <ele>951</ele>
        <time>2016-10-02T15:28:15+02:00</time>
      </trkpt>
      <trkpt lat="45.98894" lon="6.28123">
        <ele>952</ele>
        <time>2016-10-02T15:28:17+02:00</time>
      </trkpt>
      <trkpt lat="45.98893" lon="6.28126">
        <ele>953</ele>
        <time>2016-10-02T15:28:18+02:00</time>
      </trkpt>
      <trkpt lat="45.98893" lon="6.2813">
        <ele>953</ele>
        <time>2016-10-02T15:28:20+02:00</time>
      </trkpt>
      <trkpt lat="45.98892" lon="6.28133">
        <ele>954</ele>
        <time>2016-10-02T15:28:23+02:00</time>
      </trkpt>
      <trkpt lat="45.9889" lon="6.28137">
        <ele>955</ele>
        <time>2016-10-02T15:28:25+02:00</time>
      </trkpt>
      <trkpt lat="45.98889" lon="6.28142">
        <ele>955</ele>
        <time>2016-10-02T15:28:28+02:00</time>
      </trkpt>
      <trkpt lat="45.98889" lon="6.28146">
        <ele>956</ele>
        <time>2016-10-02T15:28:30+02:00</time>
      </trkpt>
      <trkpt lat="45.98889" lon="6.28151">
        <ele>958</ele>
        <time>2016-10-02T15:28:33+02:00</time>
      </trkpt>
      <trkpt lat="45.98889" lon="6.28155">
        <ele>959</ele>
        <time>2016-10-02T15:28:35+02:00</time>
      </trkpt>
      <trkpt lat="45.98889" lon="6.28159">
        <ele>960</ele>
        <time>2016-10-02T15:28:37+02:00</time>
      </trkpt>
      <trkpt lat="45.98889" lon="6.28162">
        <ele>962</ele>
        <time>2016-10-02T15:28:40+02:00</time>
      </trkpt>
      <trkpt lat="45.98889" lon="6.28166">
        <ele>963</ele>
        <time>2016-10-02T15:28:42+02:00</time>
      </trkpt>
      <trkpt lat="45.98889" lon="6.2817">
        <ele>964</ele>
        <time>2016-10-02T15:28:44+02:00</time>
      </trkpt>
      <trkpt lat="45.98889" lon="6.28174">
        <ele>964</ele>
        <time>2016-10-02T15:28:46+02:00</time>
      </trkpt>
      <trkpt lat="45.98888" lon="6.28178">
        <ele>963</ele>
        <time>2016-10-02T15:28:48+02:00</time>
      </trkpt>
      <trkpt lat="45.98888" lon="6.28182">
        <ele>963</ele>
        <time>2016-10-02T15:28:51+02:00</time>
      </trkpt>
      <trkpt lat="45.98887" lon="6.28186">
        <ele>963</ele>
        <time>2016-10-02T15:28:53+02:00</time>
      </trkpt>
      <trkpt lat="45.98887" lon="6.2819">
        <ele>963</ele>
        <time>2016-10-02T15:28:55+02:00</time>
      </trkpt>
      <trkpt lat="45.98887" lon="6.28193">
        <ele>963</ele>
        <time>2016-10-02T15:28:57+02:00</time>
      </trkpt>
      <trkpt lat="45.98887" lon="6.28195">
        <ele>964</ele>
        <time>2016-10-02T15:28:59+02:00</time>
      </trkpt>
      <trkpt lat="45.98887" lon="6.28197">
        <ele>964</ele>
        <time>2016-10-02T15:29:00+02:00</time>
      </trkpt>
      <trkpt lat="45.98887" lon="6.28199">
        <ele>964</ele>
        <time>2016-10-02T15:29:01+02:00</time>
      </trkpt>
      <trkpt lat="45.98887" lon="6.28201">
        <ele>964</ele>
        <time>2016-10-02T15:29:02+02:00</time>
      </trkpt>
      <trkpt lat="45.98887" lon="6.28203">
        <ele>965</ele>
        <time>2016-10-02T15:29:03+02:00</time>
      </trkpt>
      <trkpt lat="45.98887" lon="6.28205">
        <ele>965</ele>
        <time>2016-10-02T15:29:05+02:00</time>
      </trkpt>
      <trkpt lat="45.98887" lon="6.28207">
        <ele>965</ele>
        <time>2016-10-02T15:29:06+02:00</time>
      </trkpt>
      <trkpt lat="45.98887" lon="6.28209">
        <ele>965</ele>
        <time>2016-10-02T15:29:07+02:00</time>
      </trkpt>
      <trkpt lat="45.98887" lon="6.2821">
        <ele>965</ele>
        <time>2016-10-02T15:29:08+02:00</time>
      </trkpt>
      <trkpt lat="45.98888" lon="6.28211">
        <ele>965</ele>
        <time>2016-10-02T15:29:08+02:00</time>
      </trkpt>
      <trkpt lat="45.98888" lon="6.28211">
        <ele>966</ele>
        <time>2016-10-02T15:29:09+02:00</time>
      </trkpt>
      <trkpt lat="45.98889" lon="6.28211">
        <ele>966</ele>
        <time>2016-10-02T15:29:10+02:00</time>
      </trkpt>
      <trkpt lat="45.9889" lon="6.28211">
        <ele>967</ele>
        <time>2016-10-02T15:29:10+02:00</time>
      </trkpt>
      <trkpt lat="45.9889" lon="6.28213">
        <ele>967</ele>
        <time>2016-10-02T15:29:11+02:00</time>
      </trkpt>
      <trkpt lat="45.9889" lon="6.28214">
        <ele>968</ele>
        <time>2016-10-02T15:29:12+02:00</time>
      </trkpt>
      <trkpt lat="45.98891" lon="6.28216">
        <ele>968</ele>
        <time>2016-10-02T15:29:13+02:00</time>
      </trkpt>
      <trkpt lat="45.98892" lon="6.28217">
        <ele>969</ele>
        <time>2016-10-02T15:29:14+02:00</time>
      </trkpt>
      <trkpt lat="45.98892" lon="6.28219">
        <ele>969</ele>
        <time>2016-10-02T15:29:15+02:00</time>
      </trkpt>
      <trkpt lat="45.98892" lon="6.28221">
        <ele>970</ele>
        <time>2016-10-02T15:29:16+02:00</time>
      </trkpt>
      <trkpt lat="45.98893" lon="6.28223">
        <ele>970</ele>
        <time>2016-10-02T15:29:18+02:00</time>
      </trkpt>
      <trkpt lat="45.98893" lon="6.28225">
        <ele>970</ele>
        <time>2016-10-02T15:29:19+02:00</time>
      </trkpt>
      <trkpt lat="45.98894" lon="6.28227">
        <ele>971</ele>
        <time>2016-10-02T15:29:20+02:00</time>
      </trkpt>
      <trkpt lat="45.98894" lon="6.28228">
        <ele>971</ele>
        <time>2016-10-02T15:29:21+02:00</time>
      </trkpt>
      <trkpt lat="45.98895" lon="6.28229">
        <ele>972</ele>
        <time>2016-10-02T15:29:22+02:00</time>
      </trkpt>
      <trkpt lat="45.98895" lon="6.2823">
        <ele>972</ele>
        <time>2016-10-02T15:29:22+02:00</time>
      </trkpt>
      <trkpt lat="45.98896" lon="6.28232">
        <ele>973</ele>
        <time>2016-10-02T15:29:24+02:00</time>
      </trkpt>
      <trkpt lat="45.98898" lon="6.28233">
        <ele>974</ele>
        <time>2016-10-02T15:29:25+02:00</time>
      </trkpt>
      <trkpt lat="45.98898" lon="6.28234">
        <ele>975</ele>
        <time>2016-10-02T15:29:26+02:00</time>
      </trkpt>
      <trkpt lat="45.98899" lon="6.28235">
        <ele>975</ele>
        <time>2016-10-02T15:29:27+02:00</time>
      </trkpt>
      <trkpt lat="45.98899" lon="6.28236">
        <ele>975</ele>
        <time>2016-10-02T15:29:28+02:00</time>
      </trkpt>
      <trkpt lat="45.989" lon="6.28237">
        <ele>976</ele>
        <time>2016-10-02T15:29:29+02:00</time>
      </trkpt>
      <trkpt lat="45.989" lon="6.28238">
        <ele>976</ele>
        <time>2016-10-02T15:29:29+02:00</time>
      </trkpt>
      <trkpt lat="45.98901" lon="6.28239">
        <ele>977</ele>
        <time>2016-10-02T15:29:30+02:00</time>
      </trkpt>
      <trkpt lat="45.98901" lon="6.28241">
        <ele>977</ele>
        <time>2016-10-02T15:29:31+02:00</time>
      </trkpt>
      <trkpt lat="45.98901" lon="6.28243">
        <ele>977</ele>
        <time>2016-10-02T15:29:32+02:00</time>
      </trkpt>
      <trkpt lat="45.98902" lon="6.28245">
        <ele>978</ele>
        <time>2016-10-02T15:29:33+02:00</time>
      </trkpt>
      <trkpt lat="45.98902" lon="6.28246">
        <ele>978</ele>
        <time>2016-10-02T15:29:34+02:00</time>
      </trkpt>
      <trkpt lat="45.98902" lon="6.28248">
        <ele>979</ele>
        <time>2016-10-02T15:29:35+02:00</time>
      </trkpt>
      <trkpt lat="45.98903" lon="6.2825">
        <ele>979</ele>
        <time>2016-10-02T15:29:36+02:00</time>
      </trkpt>
      <trkpt lat="45.98903" lon="6.28252">
        <ele>979</ele>
        <time>2016-10-02T15:29:37+02:00</time>
      </trkpt>
      <trkpt lat="45.98903" lon="6.28253">
        <ele>979</ele>
        <time>2016-10-02T15:29:39+02:00</time>
      </trkpt>
      <trkpt lat="45.98904" lon="6.28256">
        <ele>980</ele>
        <time>2016-10-02T15:29:40+02:00</time>
      </trkpt>
      <trkpt lat="45.98905" lon="6.28258">
        <ele>980</ele>
        <time>2016-10-02T15:29:41+02:00</time>
      </trkpt>
      <trkpt lat="45.98906" lon="6.2826">
        <ele>980</ele>
        <time>2016-10-02T15:29:43+02:00</time>
      </trkpt>
      <trkpt lat="45.98906" lon="6.28263">
        <ele>980</ele>
        <time>2016-10-02T15:29:45+02:00</time>
      </trkpt>
      <trkpt lat="45.98907" lon="6.28267">
        <ele>980</ele>
        <time>2016-10-02T15:29:47+02:00</time>
      </trkpt>
      <trkpt lat="45.98907" lon="6.28271">
        <ele>980</ele>
        <time>2016-10-02T15:29:50+02:00</time>
      </trkpt>
      <trkpt lat="45.98906" lon="6.28275">
        <ele>979</ele>
        <time>2016-10-02T15:29:52+02:00</time>
      </trkpt>
      <trkpt lat="45.98906" lon="6.28279">
        <ele>979</ele>
        <time>2016-10-02T15:29:55+02:00</time>
      </trkpt>
      <trkpt lat="45.98906" lon="6.28282">
        <ele>979</ele>
        <time>2016-10-02T15:29:57+02:00</time>
      </trkpt>
      <trkpt lat="45.98907" lon="6.28286">
        <ele>979</ele>
        <time>2016-10-02T15:29:59+02:00</time>
      </trkpt>
      <trkpt lat="45.98908" lon="6.28289">
        <ele>979</ele>
        <time>2016-10-02T15:30:01+02:00</time>
      </trkpt>
      <trkpt lat="45.98908" lon="6.28292">
        <ele>979</ele>
        <time>2016-10-02T15:30:03+02:00</time>
      </trkpt>
      <trkpt lat="45.98909" lon="6.28295">
        <ele>979</ele>
        <time>2016-10-02T15:30:05+02:00</time>
      </trkpt>
      <trkpt lat="45.98909" lon="6.28298">
        <ele>979</ele>
        <time>2016-10-02T15:30:07+02:00</time>
      </trkpt>
      <trkpt lat="45.98911" lon="6.28302">
        <ele>980</ele>
        <time>2016-10-02T15:30:09+02:00</time>
      </trkpt>
      <trkpt lat="45.98912" lon="6.28305">
        <ele>980</ele>
        <time>2016-10-02T15:30:11+02:00</time>
      </trkpt>
      <trkpt lat="45.98913" lon="6.28309">
        <ele>981</ele>
        <time>2016-10-02T15:30:13+02:00</time>
      </trkpt>
      <trkpt lat="45.98914" lon="6.28312">
        <ele>981</ele>
        <time>2016-10-02T15:30:15+02:00</time>
      </trkpt>
      <trkpt lat="45.98915" lon="6.28315">
        <ele>981</ele>
        <time>2016-10-02T15:30:17+02:00</time>
      </trkpt>
      <trkpt lat="45.98915" lon="6.28318">
        <ele>981</ele>
        <time>2016-10-02T15:30:19+02:00</time>
      </trkpt>
      <trkpt lat="45.98915" lon="6.28321">
        <ele>981</ele>
        <time>2016-10-02T15:30:21+02:00</time>
      </trkpt>
      <trkpt lat="45.98915" lon="6.28324">
        <ele>981</ele>
        <time>2016-10-02T15:30:23+02:00</time>
      </trkpt>
      <trkpt lat="45.98915" lon="6.28328">
        <ele>980</ele>
        <time>2016-10-02T15:30:25+02:00</time>
      </trkpt>
      <trkpt lat="45.98915" lon="6.28332">
        <ele>980</ele>
        <time>2016-10-02T15:30:28+02:00</time>
      </trkpt>
      <trkpt lat="45.98916" lon="6.28335">
        <ele>980</ele>
        <time>2016-10-02T15:30:30+02:00</time>
      </trkpt>
      <trkpt lat="45.98917" lon="6.28337">
        <ele>980</ele>
        <time>2016-10-02T15:30:31+02:00</time>
      </trkpt>
      <trkpt lat="45.98917" lon="6.28338">
        <ele>981</ele>
        <time>2016-10-02T15:30:32+02:00</time>
      </trkpt>
      <trkpt lat="45.98918" lon="6.28339">
        <ele>981</ele>
        <time>2016-10-02T15:30:33+02:00</time>
      </trkpt>
      <trkpt lat="45.98919" lon="6.28341">
        <ele>981</ele>
        <time>2016-10-02T15:30:34+02:00</time>
      </trkpt>
      <trkpt lat="45.98919" lon="6.28343">
        <ele>981</ele>
        <time>2016-10-02T15:30:35+02:00</time>
      </trkpt>
      <trkpt lat="45.9892" lon="6.28345">
        <ele>981</ele>
        <time>2016-10-02T15:30:36+02:00</time>
      </trkpt>
      <trkpt lat="45.98921" lon="6.28347">
        <ele>981</ele>
        <time>2016-10-02T15:30:38+02:00</time>
      </trkpt>
      <trkpt lat="45.98922" lon="6.28349">
        <ele>981</ele>
        <time>2016-10-02T15:30:39+02:00</time>
      </trkpt>
      <trkpt lat="45.98923" lon="6.28351">
        <ele>982</ele>
        <time>2016-10-02T15:30:41+02:00</time>
      </trkpt>
      <trkpt lat="45.98924" lon="6.28353">
        <ele>982</ele>
        <time>2016-10-02T15:30:42+02:00</time>
      </trkpt>
      <trkpt lat="45.98924" lon="6.28354">
        <ele>982</ele>
        <time>2016-10-02T15:30:43+02:00</time>
      </trkpt>
      <trkpt lat="45.98925" lon="6.28356">
        <ele>982</ele>
        <time>2016-10-02T15:30:44+02:00</time>
      </trkpt>
      <trkpt lat="45.98925" lon="6.28359">
        <ele>982</ele>
        <time>2016-10-02T15:30:46+02:00</time>
      </trkpt>
      <trkpt lat="45.98926" lon="6.28361">
        <ele>982</ele>
        <time>2016-10-02T15:30:47+02:00</time>
      </trkpt>
      <trkpt lat="45.98927" lon="6.28363">
        <ele>982</ele>
        <time>2016-10-02T15:30:49+02:00</time>
      </trkpt>
      <trkpt lat="45.98929" lon="6.28364">
        <ele>983</ele>
        <time>2016-10-02T15:30:50+02:00</time>
      </trkpt>
      <trkpt lat="45.9893" lon="6.28365">
        <ele>983</ele>
        <time>2016-10-02T15:30:51+02:00</time>
      </trkpt>
      <trkpt lat="45.9893" lon="6.28367">
        <ele>983</ele>
        <time>2016-10-02T15:30:52+02:00</time>
      </trkpt>
      <trkpt lat="45.98931" lon="6.28369">
        <ele>983</ele>
        <time>2016-10-02T15:30:54+02:00</time>
      </trkpt>
      <trkpt lat="45.98932" lon="6.28371">
        <ele>984</ele>
        <time>2016-10-02T15:30:55+02:00</time>
      </trkpt>
      <trkpt lat="45.98933" lon="6.28373">
        <ele>984</ele>
        <time>2016-10-02T15:30:56+02:00</time>
      </trkpt>
      <trkpt lat="45.98934" lon="6.28375">
        <ele>984</ele>
        <time>2016-10-02T15:30:57+02:00</time>
      </trkpt>
      <trkpt lat="45.98934" lon="6.28377">
        <ele>984</ele>
        <time>2016-10-02T15:30:59+02:00</time>
      </trkpt>
      <trkpt lat="45.98935" lon="6.28379">
        <ele>984</ele>
        <time>2016-10-02T15:31:00+02:00</time>
      </trkpt>
      <trkpt lat="45.98936" lon="6.2838">
        <ele>984</ele>
        <time>2016-10-02T15:31:01+02:00</time>
      </trkpt>
      <trkpt lat="45.98937" lon="6.28382">
        <ele>984</ele>
        <time>2016-10-02T15:31:02+02:00</time>
      </trkpt>
      <trkpt lat="45.98937" lon="6.28384">
        <ele>984</ele>
        <time>2016-10-02T15:31:04+02:00</time>
      </trkpt>
      <trkpt lat="45.98938" lon="6.28387">
        <ele>984</ele>
        <time>2016-10-02T15:31:05+02:00</time>
      </trkpt>
      <trkpt lat="45.98938" lon="6.28389">
        <ele>983</ele>
        <time>2016-10-02T15:31:07+02:00</time>
      </trkpt>
      <trkpt lat="45.98939" lon="6.28391">
        <ele>983</ele>
        <time>2016-10-02T15:31:08+02:00</time>
      </trkpt>
      <trkpt lat="45.98939" lon="6.28393">
        <ele>983</ele>
        <time>2016-10-02T15:31:09+02:00</time>
      </trkpt>
      <trkpt lat="45.98939" lon="6.28395">
        <ele>983</ele>
        <time>2016-10-02T15:31:10+02:00</time>
      </trkpt>
      <trkpt lat="45.9894" lon="6.28397">
        <ele>982</ele>
        <time>2016-10-02T15:31:12+02:00</time>
      </trkpt>
      <trkpt lat="45.9894" lon="6.284">
        <ele>982</ele>
        <time>2016-10-02T15:31:13+02:00</time>
      </trkpt>
      <trkpt lat="45.9894" lon="6.28401">
        <ele>982</ele>
        <time>2016-10-02T15:31:14+02:00</time>
      </trkpt>
      <trkpt lat="45.9894" lon="6.28402">
        <ele>981</ele>
        <time>2016-10-02T15:31:14+02:00</time>
      </trkpt>
      <trkpt lat="45.98941" lon="6.28402">
        <ele>982</ele>
        <time>2016-10-02T15:31:15+02:00</time>
      </trkpt>
      <trkpt lat="45.98941" lon="6.28402">
        <ele>982</ele>
        <time>2016-10-02T15:31:16+02:00</time>
      </trkpt>
      <trkpt lat="45.98942" lon="6.28403">
        <ele>982</ele>
        <time>2016-10-02T15:31:17+02:00</time>
      </trkpt>
      <trkpt lat="45.98942" lon="6.28404">
        <ele>982</ele>
        <time>2016-10-02T15:31:17+02:00</time>
      </trkpt>
      <trkpt lat="45.98942" lon="6.28405">
        <ele>982</ele>
        <time>2016-10-02T15:31:18+02:00</time>
      </trkpt>
      <trkpt lat="45.98943" lon="6.28407">
        <ele>982</ele>
        <time>2016-10-02T15:31:19+02:00</time>
      </trkpt>
      <trkpt lat="45.98944" lon="6.28408">
        <ele>983</ele>
        <time>2016-10-02T15:31:20+02:00</time>
      </trkpt>
      <trkpt lat="45.98945" lon="6.28409">
        <ele>983</ele>
        <time>2016-10-02T15:31:21+02:00</time>
      </trkpt>
      <trkpt lat="45.98946" lon="6.2841">
        <ele>983</ele>
        <time>2016-10-02T15:31:22+02:00</time>
      </trkpt>
      <trkpt lat="45.98947" lon="6.28412">
        <ele>983</ele>
        <time>2016-10-02T15:31:23+02:00</time>
      </trkpt>
      <trkpt lat="45.98947" lon="6.28414">
        <ele>983</ele>
        <time>2016-10-02T15:31:24+02:00</time>
      </trkpt>
      <trkpt lat="45.98948" lon="6.28415">
        <ele>983</ele>
        <time>2016-10-02T15:31:26+02:00</time>
      </trkpt>
      <trkpt lat="45.98949" lon="6.28417">
        <ele>983</ele>
        <time>2016-10-02T15:31:27+02:00</time>
      </trkpt>
      <trkpt lat="45.9895" lon="6.28419">
        <ele>984</ele>
        <time>2016-10-02T15:31:28+02:00</time>
      </trkpt>
      <trkpt lat="45.98951" lon="6.28421">
        <ele>984</ele>
        <time>2016-10-02T15:31:30+02:00</time>
      </trkpt>
      <trkpt lat="45.98952" lon="6.28423">
        <ele>984</ele>
        <time>2016-10-02T15:31:31+02:00</time>
      </trkpt>
      <trkpt lat="45.98953" lon="6.28425">
        <ele>984</ele>
        <time>2016-10-02T15:31:32+02:00</time>
      </trkpt>
      <trkpt lat="45.98954" lon="6.28427">
        <ele>984</ele>
        <time>2016-10-02T15:31:34+02:00</time>
      </trkpt>
      <trkpt lat="45.98956" lon="6.28429">
        <ele>984</ele>
        <time>2016-10-02T15:31:35+02:00</time>
      </trkpt>
      <trkpt lat="45.98957" lon="6.2843">
        <ele>984</ele>
        <time>2016-10-02T15:31:37+02:00</time>
      </trkpt>
      <trkpt lat="45.98957" lon="6.28432">
        <ele>984</ele>
        <time>2016-10-02T15:31:38+02:00</time>
      </trkpt>
      <trkpt lat="45.98958" lon="6.28434">
        <ele>984</ele>
        <time>2016-10-02T15:31:39+02:00</time>
      </trkpt>
      <trkpt lat="45.98959" lon="6.28436">
        <ele>984</ele>
        <time>2016-10-02T15:31:40+02:00</time>
      </trkpt>
      <trkpt lat="45.9896" lon="6.28438">
        <ele>984</ele>
        <time>2016-10-02T15:31:42+02:00</time>
      </trkpt>
      <trkpt lat="45.98961" lon="6.2844">
        <ele>984</ele>
        <time>2016-10-02T15:31:43+02:00</time>
      </trkpt>
      <trkpt lat="45.98961" lon="6.28442">
        <ele>984</ele>
        <time>2016-10-02T15:31:44+02:00</time>
      </trkpt>
      <trkpt lat="45.98962" lon="6.28443">
        <ele>984</ele>
        <time>2016-10-02T15:31:45+02:00</time>
      </trkpt>
      <trkpt lat="45.98962" lon="6.28444">
        <ele>984</ele>
        <time>2016-10-02T15:31:46+02:00</time>
      </trkpt>
      <trkpt lat="45.98962" lon="6.28446">
        <ele>983</ele>
        <time>2016-10-02T15:31:47+02:00</time>
      </trkpt>
      <trkpt lat="45.98963" lon="6.28448">
        <ele>983</ele>
        <time>2016-10-02T15:31:48+02:00</time>
      </trkpt>
      <trkpt lat="45.98963" lon="6.2845">
        <ele>983</ele>
        <time>2016-10-02T15:31:49+02:00</time>
      </trkpt>
      <trkpt lat="45.98963" lon="6.28451">
        <ele>983</ele>
        <time>2016-10-02T15:31:50+02:00</time>
      </trkpt>
      <trkpt lat="45.98964" lon="6.28453">
        <ele>982</ele>
        <time>2016-10-02T15:31:51+02:00</time>
      </trkpt>
      <trkpt lat="45.98964" lon="6.28455">
        <ele>982</ele>
        <time>2016-10-02T15:31:53+02:00</time>
      </trkpt>
      <trkpt lat="45.98964" lon="6.28457">
        <ele>982</ele>
        <time>2016-10-02T15:31:54+02:00</time>
      </trkpt>
      <trkpt lat="45.98965" lon="6.28459">
        <ele>982</ele>
        <time>2016-10-02T15:31:55+02:00</time>
      </trkpt>
      <trkpt lat="45.98965" lon="6.28461">
        <ele>981</ele>
        <time>2016-10-02T15:31:56+02:00</time>
      </trkpt>
      <trkpt lat="45.98966" lon="6.28464">
        <ele>981</ele>
        <time>2016-10-02T15:31:58+02:00</time>
      </trkpt>
      <trkpt lat="45.98966" lon="6.28466">
        <ele>981</ele>
        <time>2016-10-02T15:31:59+02:00</time>
      </trkpt>
      <trkpt lat="45.98967" lon="6.28467">
        <ele>980</ele>
        <time>2016-10-02T15:32:00+02:00</time>
      </trkpt>
      <trkpt lat="45.98967" lon="6.28468">
        <ele>980</ele>
        <time>2016-10-02T15:32:01+02:00</time>
      </trkpt>
      <trkpt lat="45.98968" lon="6.28469">
        <ele>980</ele>
        <time>2016-10-02T15:32:01+02:00</time>
      </trkpt>
      <trkpt lat="45.98969" lon="6.2847">
        <ele>981</ele>
        <time>2016-10-02T15:32:02+02:00</time>
      </trkpt>
      <trkpt lat="45.98969" lon="6.28471">
        <ele>981</ele>
        <time>2016-10-02T15:32:03+02:00</time>
      </trkpt>
      <trkpt lat="45.98969" lon="6.28471">
        <ele>981</ele>
        <time>2016-10-02T15:32:03+02:00</time>
      </trkpt>
      <trkpt lat="45.9897" lon="6.28472">
        <ele>981</ele>
        <time>2016-10-02T15:32:04+02:00</time>
      </trkpt>
      <trkpt lat="45.9897" lon="6.28472">
        <ele>981</ele>
        <time>2016-10-02T15:32:04+02:00</time>
      </trkpt>
      <trkpt lat="45.98971" lon="6.28472">
        <ele>981</ele>
        <time>2016-10-02T15:32:05+02:00</time>
      </trkpt>
      <trkpt lat="45.98971" lon="6.28473">
        <ele>981</ele>
        <time>2016-10-02T15:32:05+02:00</time>
      </trkpt>
      <trkpt lat="45.98971" lon="6.28474">
        <ele>981</ele>
        <time>2016-10-02T15:32:06+02:00</time>
      </trkpt>
      <trkpt lat="45.98972" lon="6.28474">
        <ele>981</ele>
        <time>2016-10-02T15:32:06+02:00</time>
      </trkpt>
      <trkpt lat="45.98972" lon="6.28474">
        <ele>981</ele>
        <time>2016-10-02T15:32:07+02:00</time>
      </trkpt>
      <trkpt lat="45.98972" lon="6.28473">
        <ele>981</ele>
        <time>2016-10-02T15:32:07+02:00</time>
      </trkpt>
      <trkpt lat="45.98972" lon="6.28474">
        <ele>981</ele>
        <time>2016-10-02T15:32:08+02:00</time>
      </trkpt>
      <trkpt lat="45.98972" lon="6.28475">
        <ele>981</ele>
        <time>2016-10-02T15:32:08+02:00</time>
      </trkpt>
      <trkpt lat="45.98972" lon="6.28476">
        <ele>981</ele>
        <time>2016-10-02T15:32:09+02:00</time>
      </trkpt>
      <trkpt lat="45.98973" lon="6.28475">
        <ele>981</ele>
        <time>2016-10-02T15:32:09+02:00</time>
      </trkpt>
      <trkpt lat="45.98973" lon="6.28474">
        <ele>981</ele>
        <time>2016-10-02T15:32:10+02:00</time>
      </trkpt>
      <trkpt lat="45.98972" lon="6.28474">
        <ele>981</ele>
        <time>2016-10-02T15:32:10+02:00</time>
      </trkpt>
      <trkpt lat="45.98973" lon="6.28473">
        <ele>982</ele>
        <time>2016-10-02T15:32:10+02:00</time>
      </trkpt>
      <trkpt lat="45.98972" lon="6.28472">
        <ele>982</ele>
        <time>2016-10-02T15:32:11+02:00</time>
      </trkpt>
      <trkpt lat="45.98972" lon="6.28472">
        <ele>982</ele>
        <time>2016-10-02T15:32:11+02:00</time>
      </trkpt>
      <trkpt lat="45.98971" lon="6.28472">
        <ele>981</ele>
        <time>2016-10-02T15:32:12+02:00</time>
      </trkpt>
      <trkpt lat="45.98971" lon="6.28471">
        <ele>981</ele>
        <time>2016-10-02T15:32:13+02:00</time>
      </trkpt>
      <trkpt lat="45.9897" lon="6.28471">
        <ele>981</ele>
        <time>2016-10-02T15:32:13+02:00</time>
      </trkpt>
      <trkpt lat="45.9897" lon="6.2847">
        <ele>981</ele>
        <time>2016-10-02T15:32:14+02:00</time>
      </trkpt>
      <trkpt lat="45.98969" lon="6.2847">
        <ele>981</ele>
        <time>2016-10-02T15:32:14+02:00</time>
      </trkpt>
      <trkpt lat="45.98969" lon="6.28469">
        <ele>981</ele>
        <time>2016-10-02T15:32:15+02:00</time>
      </trkpt>
      <trkpt lat="45.9897" lon="6.2847">
        <ele>981</ele>
        <time>2016-10-02T15:32:16+02:00</time>
      </trkpt>
      <trkpt lat="45.98971" lon="6.28471">
        <ele>981</ele>
        <time>2016-10-02T15:32:17+02:00</time>
      </trkpt>
      <trkpt lat="45.98972" lon="6.28472">
        <ele>982</ele>
        <time>2016-10-02T15:32:18+02:00</time>
      </trkpt>
      <trkpt lat="45.98973" lon="6.28474">
        <ele>982</ele>
        <time>2016-10-02T15:32:19+02:00</time>
      </trkpt>
      <trkpt lat="45.98974" lon="6.28475">
        <ele>982</ele>
        <time>2016-10-02T15:32:21+02:00</time>
      </trkpt>
      <trkpt lat="45.98975" lon="6.28477">
        <ele>982</ele>
        <time>2016-10-02T15:32:22+02:00</time>
      </trkpt>
      <trkpt lat="45.98976" lon="6.28478">
        <ele>982</ele>
        <time>2016-10-02T15:32:23+02:00</time>
      </trkpt>
      <trkpt lat="45.98977" lon="6.28479">
        <ele>982</ele>
        <time>2016-10-02T15:32:24+02:00</time>
      </trkpt>
      <trkpt lat="45.98978" lon="6.28481">
        <ele>982</ele>
        <time>2016-10-02T15:32:25+02:00</time>
      </trkpt>
      <trkpt lat="45.98979" lon="6.28482">
        <ele>982</ele>
        <time>2016-10-02T15:32:26+02:00</time>
      </trkpt>
      <trkpt lat="45.98979" lon="6.28483">
        <ele>982</ele>
        <time>2016-10-02T15:32:27+02:00</time>
      </trkpt>
      <trkpt lat="45.9898" lon="6.28483">
        <ele>982</ele>
        <time>2016-10-02T15:32:28+02:00</time>
      </trkpt>
      <trkpt lat="45.98981" lon="6.28483">
        <ele>983</ele>
        <time>2016-10-02T15:32:29+02:00</time>
      </trkpt>
      <trkpt lat="45.98983" lon="6.28484">
        <ele>983</ele>
        <time>2016-10-02T15:32:30+02:00</time>
      </trkpt>
      <trkpt lat="45.98984" lon="6.28485">
        <ele>984</ele>
        <time>2016-10-02T15:32:31+02:00</time>
      </trkpt>
      <trkpt lat="45.98985" lon="6.28486">
        <ele>984</ele>
        <time>2016-10-02T15:32:33+02:00</time>
      </trkpt>
      <trkpt lat="45.98987" lon="6.28488">
        <ele>984</ele>
        <time>2016-10-02T15:32:34+02:00</time>
      </trkpt>
      <trkpt lat="45.98988" lon="6.2849">
        <ele>984</ele>
        <time>2016-10-02T15:32:35+02:00</time>
      </trkpt>
      <trkpt lat="45.98988" lon="6.28493">
        <ele>983</ele>
        <time>2016-10-02T15:32:37+02:00</time>
      </trkpt>
      <trkpt lat="45.98989" lon="6.28496">
        <ele>982</ele>
        <time>2016-10-02T15:32:39+02:00</time>
      </trkpt>
      <trkpt lat="45.98989" lon="6.285">
        <ele>982</ele>
        <time>2016-10-02T15:32:41+02:00</time>
      </trkpt>
      <trkpt lat="45.9899" lon="6.28503">
        <ele>981</ele>
        <time>2016-10-02T15:32:43+02:00</time>
      </trkpt>
      <trkpt lat="45.98989" lon="6.28507">
        <ele>981</ele>
        <time>2016-10-02T15:32:45+02:00</time>
      </trkpt>
      <trkpt lat="45.98988" lon="6.2851">
        <ele>980</ele>
        <time>2016-10-02T15:32:47+02:00</time>
      </trkpt>
      <trkpt lat="45.98987" lon="6.28512">
        <ele>980</ele>
        <time>2016-10-02T15:32:49+02:00</time>
      </trkpt>
      <trkpt lat="45.98985" lon="6.28515">
        <ele>979</ele>
        <time>2016-10-02T15:32:51+02:00</time>
      </trkpt>
      <trkpt lat="45.98983" lon="6.28517">
        <ele>978</ele>
        <time>2016-10-02T15:32:53+02:00</time>
      </trkpt>
      <trkpt lat="45.98982" lon="6.2852">
        <ele>977</ele>
        <time>2016-10-02T15:32:55+02:00</time>
      </trkpt>
      <trkpt lat="45.9898" lon="6.28523">
        <ele>976</ele>
        <time>2016-10-02T15:32:57+02:00</time>
      </trkpt>
      <trkpt lat="45.98979" lon="6.28526">
        <ele>976</ele>
        <time>2016-10-02T15:32:59+02:00</time>
      </trkpt>
      <trkpt lat="45.98978" lon="6.28529">
        <ele>976</ele>
        <time>2016-10-02T15:33:01+02:00</time>
      </trkpt>
      <trkpt lat="45.98978" lon="6.28533">
        <ele>975</ele>
        <time>2016-10-02T15:33:03+02:00</time>
      </trkpt>
      <trkpt lat="45.98979" lon="6.28537">
        <ele>975</ele>
        <time>2016-10-02T15:33:06+02:00</time>
      </trkpt>
      <trkpt lat="45.98979" lon="6.28541">
        <ele>975</ele>
        <time>2016-10-02T15:33:08+02:00</time>
      </trkpt>
      <trkpt lat="45.9898" lon="6.28545">
        <ele>975</ele>
        <time>2016-10-02T15:33:10+02:00</time>
      </trkpt>
      <trkpt lat="45.9898" lon="6.28548">
        <ele>975</ele>
        <time>2016-10-02T15:33:13+02:00</time>
      </trkpt>
      <trkpt lat="45.98981" lon="6.28552">
        <ele>975</ele>
        <time>2016-10-02T15:33:15+02:00</time>
      </trkpt>
      <trkpt lat="45.98981" lon="6.28556">
        <ele>975</ele>
        <time>2016-10-02T15:33:17+02:00</time>
      </trkpt>
      <trkpt lat="45.98982" lon="6.28559">
        <ele>975</ele>
        <time>2016-10-02T15:33:19+02:00</time>
      </trkpt>
      <trkpt lat="45.98983" lon="6.28563">
        <ele>975</ele>
        <time>2016-10-02T15:33:22+02:00</time>
      </trkpt>
      <trkpt lat="45.98984" lon="6.28567">
        <ele>975</ele>
        <time>2016-10-02T15:33:24+02:00</time>
      </trkpt>
      <trkpt lat="45.98984" lon="6.2857">
        <ele>975</ele>
        <time>2016-10-02T15:33:26+02:00</time>
      </trkpt>
      <trkpt lat="45.98985" lon="6.28573">
        <ele>976</ele>
        <time>2016-10-02T15:33:28+02:00</time>
      </trkpt>
      <trkpt lat="45.98986" lon="6.28576">
        <ele>976</ele>
        <time>2016-10-02T15:33:30+02:00</time>
      </trkpt>
      <trkpt lat="45.98987" lon="6.28579">
        <ele>976</ele>
        <time>2016-10-02T15:33:32+02:00</time>
      </trkpt>
      <trkpt lat="45.98988" lon="6.28582">
        <ele>976</ele>
        <time>2016-10-02T15:33:33+02:00</time>
      </trkpt>
      <trkpt lat="45.98988" lon="6.28584">
        <ele>976</ele>
        <time>2016-10-02T15:33:35+02:00</time>
      </trkpt>
      <trkpt lat="45.98988" lon="6.28587">
        <ele>976</ele>
        <time>2016-10-02T15:33:36+02:00</time>
      </trkpt>
      <trkpt lat="45.98989" lon="6.28588">
        <ele>977</ele>
        <time>2016-10-02T15:33:37+02:00</time>
      </trkpt>
      <trkpt lat="45.98989" lon="6.2859">
        <ele>977</ele>
        <time>2016-10-02T15:33:38+02:00</time>
      </trkpt>
      <trkpt lat="45.98989" lon="6.2859">
        <ele>977</ele>
        <time>2016-10-02T15:33:39+02:00</time>
      </trkpt>
      <trkpt lat="45.98989" lon="6.28591">
        <ele>977</ele>
        <time>2016-10-02T15:33:39+02:00</time>
      </trkpt>
      <trkpt lat="45.9899" lon="6.28592">
        <ele>977</ele>
        <time>2016-10-02T15:33:40+02:00</time>
      </trkpt>
      <trkpt lat="45.98991" lon="6.28593">
        <ele>977</ele>
        <time>2016-10-02T15:33:41+02:00</time>
      </trkpt>
      <trkpt lat="45.98991" lon="6.28592">
        <ele>977</ele>
        <time>2016-10-02T15:33:41+02:00</time>
      </trkpt>
      <trkpt lat="45.98991" lon="6.28592">
        <ele>977</ele>
        <time>2016-10-02T15:33:41+02:00</time>
      </trkpt>
      <trkpt lat="45.9899" lon="6.28593">
        <ele>977</ele>
        <time>2016-10-02T15:33:42+02:00</time>
      </trkpt>
      <trkpt lat="45.9899" lon="6.28594">
        <ele>977</ele>
        <time>2016-10-02T15:33:43+02:00</time>
      </trkpt>
      <trkpt lat="45.9899" lon="6.28595">
        <ele>977</ele>
        <time>2016-10-02T15:33:43+02:00</time>
      </trkpt>
      <trkpt lat="45.9899" lon="6.28596">
        <ele>977</ele>
        <time>2016-10-02T15:33:44+02:00</time>
      </trkpt>
      <trkpt lat="45.98992" lon="6.28602">
        <ele>978</ele>
        <time>2016-10-02T15:33:48+02:00</time>
      </trkpt>
      <trkpt lat="45.98991" lon="6.28603">
        <ele>978</ele>
        <time>2016-10-02T15:33:49+02:00</time>
      </trkpt>
      <trkpt lat="45.9899" lon="6.28604">
        <ele>977</ele>
        <time>2016-10-02T15:33:50+02:00</time>
      </trkpt>
      <trkpt lat="45.98989" lon="6.28604">
        <ele>977</ele>
        <time>2016-10-02T15:33:50+02:00</time>
      </trkpt>
      <trkpt lat="45.98988" lon="6.28605">
        <ele>977</ele>
        <time>2016-10-02T15:33:51+02:00</time>
      </trkpt>
      <trkpt lat="45.98988" lon="6.28605">
        <ele>977</ele>
        <time>2016-10-02T15:33:52+02:00</time>
      </trkpt>
      <trkpt lat="45.98987" lon="6.28606">
        <ele>977</ele>
        <time>2016-10-02T15:33:53+02:00</time>
      </trkpt>
      <trkpt lat="45.98985" lon="6.28607">
        <ele>976</ele>
        <time>2016-10-02T15:33:54+02:00</time>
      </trkpt>
      <trkpt lat="45.98984" lon="6.28607">
        <ele>976</ele>
        <time>2016-10-02T15:33:55+02:00</time>
      </trkpt>
      <trkpt lat="45.98982" lon="6.28607">
        <ele>975</ele>
        <time>2016-10-02T15:33:56+02:00</time>
      </trkpt>
      <trkpt lat="45.98981" lon="6.28607">
        <ele>975</ele>
        <time>2016-10-02T15:33:57+02:00</time>
      </trkpt>
      <trkpt lat="45.9898" lon="6.28608">
        <ele>975</ele>
        <time>2016-10-02T15:33:58+02:00</time>
      </trkpt>
      <trkpt lat="45.98979" lon="6.28607">
        <ele>974</ele>
        <time>2016-10-02T15:33:59+02:00</time>
      </trkpt>
      <trkpt lat="45.98978" lon="6.28607">
        <ele>974</ele>
        <time>2016-10-02T15:33:59+02:00</time>
      </trkpt>
      <trkpt lat="45.98978" lon="6.28607">
        <ele>974</ele>
        <time>2016-10-02T15:34:00+02:00</time>
      </trkpt>
      <trkpt lat="45.98977" lon="6.28607">
        <ele>973</ele>
        <time>2016-10-02T15:34:01+02:00</time>
      </trkpt>
      <trkpt lat="45.98976" lon="6.28607">
        <ele>973</ele>
        <time>2016-10-02T15:34:01+02:00</time>
      </trkpt>
      <trkpt lat="45.98975" lon="6.28606">
        <ele>973</ele>
        <time>2016-10-02T15:34:02+02:00</time>
      </trkpt>
      <trkpt lat="45.98974" lon="6.28606">
        <ele>973</ele>
        <time>2016-10-02T15:34:03+02:00</time>
      </trkpt>
      <trkpt lat="45.98973" lon="6.28606">
        <ele>972</ele>
        <time>2016-10-02T15:34:04+02:00</time>
      </trkpt>
      <trkpt lat="45.98972" lon="6.28606">
        <ele>972</ele>
        <time>2016-10-02T15:34:04+02:00</time>
      </trkpt>
      <trkpt lat="45.98971" lon="6.28606">
        <ele>972</ele>
        <time>2016-10-02T15:34:05+02:00</time>
      </trkpt>
      <trkpt lat="45.9897" lon="6.28606">
        <ele>971</ele>
        <time>2016-10-02T15:34:06+02:00</time>
      </trkpt>
      <trkpt lat="45.98969" lon="6.28606">
        <ele>971</ele>
        <time>2016-10-02T15:34:07+02:00</time>
      </trkpt>
      <trkpt lat="45.98968" lon="6.28606">
        <ele>971</ele>
        <time>2016-10-02T15:34:08+02:00</time>
      </trkpt>
      <trkpt lat="45.98967" lon="6.28606">
        <ele>970</ele>
        <time>2016-10-02T15:34:09+02:00</time>
      </trkpt>
      <trkpt lat="45.98966" lon="6.28606">
        <ele>970</ele>
        <time>2016-10-02T15:34:09+02:00</time>
      </trkpt>
      <trkpt lat="45.98965" lon="6.28606">
        <ele>970</ele>
        <time>2016-10-02T15:34:10+02:00</time>
      </trkpt>
      <trkpt lat="45.98965" lon="6.28606">
        <ele>970</ele>
        <time>2016-10-02T15:34:11+02:00</time>
      </trkpt>
      <trkpt lat="45.98964" lon="6.28606">
        <ele>969</ele>
        <time>2016-10-02T15:34:11+02:00</time>
      </trkpt>
      <trkpt lat="45.98964" lon="6.28606">
        <ele>969</ele>
        <time>2016-10-02T15:34:12+02:00</time>
      </trkpt>
      <trkpt lat="45.98963" lon="6.28605">
        <ele>969</ele>
        <time>2016-10-02T15:34:13+02:00</time>
      </trkpt>
      <trkpt lat="45.98962" lon="6.28605">
        <ele>969</ele>
        <time>2016-10-02T15:34:13+02:00</time>
      </trkpt>
      <trkpt lat="45.98961" lon="6.28605">
        <ele>968</ele>
        <time>2016-10-02T15:34:14+02:00</time>
      </trkpt>
      <trkpt lat="45.9896" lon="6.28604">
        <ele>968</ele>
        <time>2016-10-02T15:34:15+02:00</time>
      </trkpt>
      <trkpt lat="45.9896" lon="6.28604">
        <ele>968</ele>
        <time>2016-10-02T15:34:15+02:00</time>
      </trkpt>
      <trkpt lat="45.98959" lon="6.28603">
        <ele>968</ele>
        <time>2016-10-02T15:34:16+02:00</time>
      </trkpt>
      <trkpt lat="45.98959" lon="6.28602">
        <ele>967</ele>
        <time>2016-10-02T15:34:17+02:00</time>
      </trkpt>
      <trkpt lat="45.98958" lon="6.28602">
        <ele>967</ele>
        <time>2016-10-02T15:34:18+02:00</time>
      </trkpt>
      <trkpt lat="45.98956" lon="6.28601">
        <ele>967</ele>
        <time>2016-10-02T15:34:19+02:00</time>
      </trkpt>
      <trkpt lat="45.98955" lon="6.28601">
        <ele>966</ele>
        <time>2016-10-02T15:34:20+02:00</time>
      </trkpt>
      <trkpt lat="45.98954" lon="6.28601">
        <ele>966</ele>
        <time>2016-10-02T15:34:20+02:00</time>
      </trkpt>
      <trkpt lat="45.98953" lon="6.28601">
        <ele>966</ele>
        <time>2016-10-02T15:34:21+02:00</time>
      </trkpt>
      <trkpt lat="45.98952" lon="6.286">
        <ele>965</ele>
        <time>2016-10-02T15:34:22+02:00</time>
      </trkpt>
      <trkpt lat="45.9895" lon="6.286">
        <ele>965</ele>
        <time>2016-10-02T15:34:24+02:00</time>
      </trkpt>
      <trkpt lat="45.98949" lon="6.286">
        <ele>964</ele>
        <time>2016-10-02T15:34:25+02:00</time>
      </trkpt>
      <trkpt lat="45.98947" lon="6.28599">
        <ele>963</ele>
        <time>2016-10-02T15:34:27+02:00</time>
      </trkpt>
      <trkpt lat="45.98945" lon="6.28598">
        <ele>963</ele>
        <time>2016-10-02T15:34:28+02:00</time>
      </trkpt>
      <trkpt lat="45.98944" lon="6.28597">
        <ele>962</ele>
        <time>2016-10-02T15:34:29+02:00</time>
      </trkpt>
      <trkpt lat="45.98943" lon="6.28597">
        <ele>962</ele>
        <time>2016-10-02T15:34:30+02:00</time>
      </trkpt>
      <trkpt lat="45.98942" lon="6.28596">
        <ele>962</ele>
        <time>2016-10-02T15:34:31+02:00</time>
      </trkpt>
      <trkpt lat="45.98941" lon="6.28596">
        <ele>961</ele>
        <time>2016-10-02T15:34:32+02:00</time>
      </trkpt>
      <trkpt lat="45.98941" lon="6.28595">
        <ele>961</ele>
        <time>2016-10-02T15:34:33+02:00</time>
      </trkpt>
      <trkpt lat="45.9894" lon="6.28594">
        <ele>961</ele>
        <time>2016-10-02T15:34:33+02:00</time>
      </trkpt>
      <trkpt lat="45.98939" lon="6.28593">
        <ele>960</ele>
        <time>2016-10-02T15:34:34+02:00</time>
      </trkpt>
      <trkpt lat="45.98938" lon="6.28591">
        <ele>960</ele>
        <time>2016-10-02T15:34:36+02:00</time>
      </trkpt>
      <trkpt lat="45.98937" lon="6.28589">
        <ele>959</ele>
        <time>2016-10-02T15:34:38+02:00</time>
      </trkpt>
      <trkpt lat="45.98936" lon="6.28587">
        <ele>959</ele>
        <time>2016-10-02T15:34:39+02:00</time>
      </trkpt>
      <trkpt lat="45.98935" lon="6.28584">
        <ele>958</ele>
        <time>2016-10-02T15:34:41+02:00</time>
      </trkpt>
      <trkpt lat="45.98933" lon="6.28582">
        <ele>958</ele>
        <time>2016-10-02T15:34:43+02:00</time>
      </trkpt>
      <trkpt lat="45.98932" lon="6.28579">
        <ele>957</ele>
        <time>2016-10-02T15:34:45+02:00</time>
      </trkpt>
      <trkpt lat="45.98931" lon="6.28577">
        <ele>957</ele>
        <time>2016-10-02T15:34:47+02:00</time>
      </trkpt>
      <trkpt lat="45.9893" lon="6.28574">
        <ele>957</ele>
        <time>2016-10-02T15:34:48+02:00</time>
      </trkpt>
      <trkpt lat="45.98929" lon="6.28571">
        <ele>956</ele>
        <time>2016-10-02T15:34:50+02:00</time>
      </trkpt>
      <trkpt lat="45.98928" lon="6.28569">
        <ele>956</ele>
        <time>2016-10-02T15:34:52+02:00</time>
      </trkpt>
      <trkpt lat="45.98926" lon="6.28566">
        <ele>955</ele>
        <time>2016-10-02T15:34:54+02:00</time>
      </trkpt>
      <trkpt lat="45.98925" lon="6.28563">
        <ele>955</ele>
        <time>2016-10-02T15:34:56+02:00</time>
      </trkpt>
      <trkpt lat="45.98924" lon="6.28562">
        <ele>954</ele>
        <time>2016-10-02T15:34:57+02:00</time>
      </trkpt>
      <trkpt lat="45.98924" lon="6.28561">
        <ele>954</ele>
        <time>2016-10-02T15:34:58+02:00</time>
      </trkpt>
      <trkpt lat="45.98924" lon="6.2856">
        <ele>954</ele>
        <time>2016-10-02T15:34:59+02:00</time>
      </trkpt>
      <trkpt lat="45.98923" lon="6.28559">
        <ele>954</ele>
        <time>2016-10-02T15:35:00+02:00</time>
      </trkpt>
      <trkpt lat="45.98923" lon="6.28558">
        <ele>954</ele>
        <time>2016-10-02T15:35:00+02:00</time>
      </trkpt>
      <trkpt lat="45.98924" lon="6.28557">
        <ele>954</ele>
        <time>2016-10-02T15:35:01+02:00</time>
      </trkpt>
      <trkpt lat="45.98924" lon="6.28557">
        <ele>954</ele>
        <time>2016-10-02T15:35:01+02:00</time>
      </trkpt>
      <trkpt lat="45.98923" lon="6.28556">
        <ele>954</ele>
        <time>2016-10-02T15:35:02+02:00</time>
      </trkpt>
      <trkpt lat="45.98922" lon="6.28555">
        <ele>954</ele>
        <time>2016-10-02T15:35:03+02:00</time>
      </trkpt>
      <trkpt lat="45.98922" lon="6.28554">
        <ele>954</ele>
        <time>2016-10-02T15:35:04+02:00</time>
      </trkpt>
      <trkpt lat="45.98922" lon="6.28553">
        <ele>954</ele>
        <time>2016-10-02T15:35:05+02:00</time>
      </trkpt>
      <trkpt lat="45.98922" lon="6.28552">
        <ele>953</ele>
        <time>2016-10-02T15:35:05+02:00</time>
      </trkpt>
      <trkpt lat="45.98921" lon="6.28551">
        <ele>953</ele>
        <time>2016-10-02T15:35:06+02:00</time>
      </trkpt>
      <trkpt lat="45.9892" lon="6.2855">
        <ele>953</ele>
        <time>2016-10-02T15:35:07+02:00</time>
      </trkpt>
      <trkpt lat="45.9892" lon="6.28549">
        <ele>953</ele>
        <time>2016-10-02T15:35:07+02:00</time>
      </trkpt>
      <trkpt lat="45.98919" lon="6.28549">
        <ele>952</ele>
        <time>2016-10-02T15:35:08+02:00</time>
      </trkpt>
      <trkpt lat="45.98918" lon="6.28548">
        <ele>952</ele>
        <time>2016-10-02T15:35:09+02:00</time>
      </trkpt>
      <trkpt lat="45.98917" lon="6.28547">
        <ele>952</ele>
        <time>2016-10-02T15:35:10+02:00</time>
      </trkpt>
      <trkpt lat="45.98917" lon="6.28546">
        <ele>952</ele>
        <time>2016-10-02T15:35:11+02:00</time>
      </trkpt>
      <trkpt lat="45.98916" lon="6.28545">
        <ele>951</ele>
        <time>2016-10-02T15:35:11+02:00</time>
      </trkpt>
      <trkpt lat="45.98916" lon="6.28545">
        <ele>951</ele>
        <time>2016-10-02T15:35:12+02:00</time>
      </trkpt>
      <trkpt lat="45.98915" lon="6.28545">
        <ele>951</ele>
        <time>2016-10-02T15:35:12+02:00</time>
      </trkpt>
      <trkpt lat="45.98915" lon="6.28545">
        <ele>951</ele>
        <time>2016-10-02T15:35:13+02:00</time>
      </trkpt>
      <trkpt lat="45.98915" lon="6.28545">
        <ele>951</ele>
        <time>2016-10-02T15:35:13+02:00</time>
      </trkpt>
      <trkpt lat="45.98915" lon="6.28544">
        <ele>951</ele>
        <time>2016-10-02T15:35:14+02:00</time>
      </trkpt>
      <trkpt lat="45.98914" lon="6.28543">
        <ele>951</ele>
        <time>2016-10-02T15:35:15+02:00</time>
      </trkpt>
      <trkpt lat="45.98914" lon="6.28542">
        <ele>951</ele>
        <time>2016-10-02T15:35:15+02:00</time>
      </trkpt>
      <trkpt lat="45.98913" lon="6.28541">
        <ele>950</ele>
        <time>2016-10-02T15:35:16+02:00</time>
      </trkpt>
      <trkpt lat="45.98912" lon="6.2854">
        <ele>950</ele>
        <time>2016-10-02T15:35:18+02:00</time>
      </trkpt>
      <trkpt lat="45.98911" lon="6.28538">
        <ele>950</ele>
        <time>2016-10-02T15:35:19+02:00</time>
      </trkpt>
      <trkpt lat="45.9891" lon="6.28537">
        <ele>950</ele>
        <time>2016-10-02T15:35:20+02:00</time>
      </trkpt>
      <trkpt lat="45.98909" lon="6.28535">
        <ele>949</ele>
        <time>2016-10-02T15:35:22+02:00</time>
      </trkpt>
      <trkpt lat="45.98907" lon="6.28533">
        <ele>949</ele>
        <time>2016-10-02T15:35:23+02:00</time>
      </trkpt>
      <trkpt lat="45.98906" lon="6.28531">
        <ele>948</ele>
        <time>2016-10-02T15:35:25+02:00</time>
      </trkpt>
      <trkpt lat="45.98904" lon="6.28529">
        <ele>947</ele>
        <time>2016-10-02T15:35:27+02:00</time>
      </trkpt>
      <trkpt lat="45.98902" lon="6.28528">
        <ele>947</ele>
        <time>2016-10-02T15:35:29+02:00</time>
      </trkpt>
      <trkpt lat="45.98901" lon="6.28526">
        <ele>946</ele>
        <time>2016-10-02T15:35:30+02:00</time>
      </trkpt>
      <trkpt lat="45.98899" lon="6.28524">
        <ele>946</ele>
        <time>2016-10-02T15:35:32+02:00</time>
      </trkpt>
      <trkpt lat="45.98898" lon="6.28523">
        <ele>945</ele>
        <time>2016-10-02T15:35:34+02:00</time>
      </trkpt>
      <trkpt lat="45.98896" lon="6.28522">
        <ele>945</ele>
        <time>2016-10-02T15:35:35+02:00</time>
      </trkpt>
      <trkpt lat="45.98894" lon="6.28521">
        <ele>944</ele>
        <time>2016-10-02T15:35:37+02:00</time>
      </trkpt>
      <trkpt lat="45.98893" lon="6.2852">
        <ele>944</ele>
        <time>2016-10-02T15:35:38+02:00</time>
      </trkpt>
      <trkpt lat="45.98892" lon="6.28519">
        <ele>943</ele>
        <time>2016-10-02T15:35:39+02:00</time>
      </trkpt>
      <trkpt lat="45.9889" lon="6.28518">
        <ele>943</ele>
        <time>2016-10-02T15:35:41+02:00</time>
      </trkpt>
      <trkpt lat="45.98888" lon="6.28517">
        <ele>942</ele>
        <time>2016-10-02T15:35:42+02:00</time>
      </trkpt>
      <trkpt lat="45.98886" lon="6.28516">
        <ele>942</ele>
        <time>2016-10-02T15:35:44+02:00</time>
      </trkpt>
      <trkpt lat="45.98884" lon="6.28515">
        <ele>941</ele>
        <time>2016-10-02T15:35:45+02:00</time>
      </trkpt>
      <trkpt lat="45.98883" lon="6.28514">
        <ele>940</ele>
        <time>2016-10-02T15:35:47+02:00</time>
      </trkpt>
      <trkpt lat="45.98881" lon="6.28514">
        <ele>940</ele>
        <time>2016-10-02T15:35:48+02:00</time>
      </trkpt>
      <trkpt lat="45.98879" lon="6.28514">
        <ele>939</ele>
        <time>2016-10-02T15:35:50+02:00</time>
      </trkpt>
      <trkpt lat="45.98878" lon="6.28513">
        <ele>939</ele>
        <time>2016-10-02T15:35:51+02:00</time>
      </trkpt>
      <trkpt lat="45.98876" lon="6.28513">
        <ele>938</ele>
        <time>2016-10-02T15:35:52+02:00</time>
      </trkpt>
      <trkpt lat="45.98875" lon="6.28512">
        <ele>938</ele>
        <time>2016-10-02T15:35:54+02:00</time>
      </trkpt>
      <trkpt lat="45.98873" lon="6.28511">
        <ele>937</ele>
        <time>2016-10-02T15:35:55+02:00</time>
      </trkpt>
      <trkpt lat="45.98871" lon="6.2851">
        <ele>936</ele>
        <time>2016-10-02T15:35:57+02:00</time>
      </trkpt>
      <trkpt lat="45.9887" lon="6.2851">
        <ele>936</ele>
        <time>2016-10-02T15:35:58+02:00</time>
      </trkpt>
      <trkpt lat="45.98868" lon="6.28509">
        <ele>935</ele>
        <time>2016-10-02T15:36:00+02:00</time>
      </trkpt>
      <trkpt lat="45.98866" lon="6.28509">
        <ele>935</ele>
        <time>2016-10-02T15:36:01+02:00</time>
      </trkpt>
      <trkpt lat="45.98865" lon="6.28508">
        <ele>934</ele>
        <time>2016-10-02T15:36:03+02:00</time>
      </trkpt>
      <trkpt lat="45.98863" lon="6.28506">
        <ele>933</ele>
        <time>2016-10-02T15:36:04+02:00</time>
      </trkpt>
      <trkpt lat="45.98861" lon="6.28505">
        <ele>933</ele>
        <time>2016-10-02T15:36:06+02:00</time>
      </trkpt>
      <trkpt lat="45.98859" lon="6.28504">
        <ele>932</ele>
        <time>2016-10-02T15:36:08+02:00</time>
      </trkpt>
      <trkpt lat="45.98857" lon="6.28503">
        <ele>931</ele>
        <time>2016-10-02T15:36:09+02:00</time>
      </trkpt>
      <trkpt lat="45.98856" lon="6.28502">
        <ele>931</ele>
        <time>2016-10-02T15:36:11+02:00</time>
      </trkpt>
      <trkpt lat="45.98854" lon="6.285">
        <ele>930</ele>
        <time>2016-10-02T15:36:13+02:00</time>
      </trkpt>
      <trkpt lat="45.98853" lon="6.28499">
        <ele>930</ele>
        <time>2016-10-02T15:36:14+02:00</time>
      </trkpt>
      <trkpt lat="45.98852" lon="6.28497">
        <ele>929</ele>
        <time>2016-10-02T15:36:16+02:00</time>
      </trkpt>
      <trkpt lat="45.98851" lon="6.28496">
        <ele>929</ele>
        <time>2016-10-02T15:36:17+02:00</time>
      </trkpt>
      <trkpt lat="45.9885" lon="6.28494">
        <ele>929</ele>
        <time>2016-10-02T15:36:18+02:00</time>
      </trkpt>
      <trkpt lat="45.9885" lon="6.28492">
        <ele>929</ele>
        <time>2016-10-02T15:36:19+02:00</time>
      </trkpt>
      <trkpt lat="45.9885" lon="6.2849">
        <ele>929</ele>
        <time>2016-10-02T15:36:20+02:00</time>
      </trkpt>
      <trkpt lat="45.9885" lon="6.28488">
        <ele>929</ele>
        <time>2016-10-02T15:36:22+02:00</time>
      </trkpt>
      <trkpt lat="45.9885" lon="6.28485">
        <ele>929</ele>
        <time>2016-10-02T15:36:24+02:00</time>
      </trkpt>
      <trkpt lat="45.98849" lon="6.28482">
        <ele>929</ele>
        <time>2016-10-02T15:36:25+02:00</time>
      </trkpt>
      <trkpt lat="45.98849" lon="6.2848">
        <ele>929</ele>
        <time>2016-10-02T15:36:27+02:00</time>
      </trkpt>
      <trkpt lat="45.98849" lon="6.28477">
        <ele>929</ele>
        <time>2016-10-02T15:36:28+02:00</time>
      </trkpt>
      <trkpt lat="45.98848" lon="6.28475">
        <ele>928</ele>
        <time>2016-10-02T15:36:30+02:00</time>
      </trkpt>
      <trkpt lat="45.98847" lon="6.28473">
        <ele>928</ele>
        <time>2016-10-02T15:36:31+02:00</time>
      </trkpt>
      <trkpt lat="45.98846" lon="6.28471">
        <ele>928</ele>
        <time>2016-10-02T15:36:33+02:00</time>
      </trkpt>
      <trkpt lat="45.98845" lon="6.28469">
        <ele>927</ele>
        <time>2016-10-02T15:36:35+02:00</time>
      </trkpt>
      <trkpt lat="45.98844" lon="6.28466">
        <ele>927</ele>
        <time>2016-10-02T15:36:37+02:00</time>
      </trkpt>
      <trkpt lat="45.98842" lon="6.28464">
        <ele>926</ele>
        <time>2016-10-02T15:36:38+02:00</time>
      </trkpt>
      <trkpt lat="45.98841" lon="6.28462">
        <ele>926</ele>
        <time>2016-10-02T15:36:40+02:00</time>
      </trkpt>
      <trkpt lat="45.98839" lon="6.28461">
        <ele>925</ele>
        <time>2016-10-02T15:36:42+02:00</time>
      </trkpt>
      <trkpt lat="45.98837" lon="6.28459">
        <ele>924</ele>
        <time>2016-10-02T15:36:43+02:00</time>
      </trkpt>
      <trkpt lat="45.98836" lon="6.28458">
        <ele>924</ele>
        <time>2016-10-02T15:36:45+02:00</time>
      </trkpt>
      <trkpt lat="45.98834" lon="6.28457">
        <ele>923</ele>
        <time>2016-10-02T15:36:46+02:00</time>
      </trkpt>
      <trkpt lat="45.98833" lon="6.28455">
        <ele>922</ele>
        <time>2016-10-02T15:36:48+02:00</time>
      </trkpt>
      <trkpt lat="45.98831" lon="6.28454">
        <ele>921</ele>
        <time>2016-10-02T15:36:50+02:00</time>
      </trkpt>
      <trkpt lat="45.98829" lon="6.28453">
        <ele>920</ele>
        <time>2016-10-02T15:36:51+02:00</time>
      </trkpt>
      <trkpt lat="45.98828" lon="6.28452">
        <ele>920</ele>
        <time>2016-10-02T15:36:53+02:00</time>
      </trkpt>
      <trkpt lat="45.98826" lon="6.2845">
        <ele>919</ele>
        <time>2016-10-02T15:36:55+02:00</time>
      </trkpt>
      <trkpt lat="45.98824" lon="6.28449">
        <ele>918</ele>
        <time>2016-10-02T15:36:56+02:00</time>
      </trkpt>
      <trkpt lat="45.98824" lon="6.28447">
        <ele>917</ele>
        <time>2016-10-02T15:36:57+02:00</time>
      </trkpt>
      <trkpt lat="45.98823" lon="6.28446">
        <ele>917</ele>
        <time>2016-10-02T15:36:58+02:00</time>
      </trkpt>
      <trkpt lat="45.98823" lon="6.28445">
        <ele>917</ele>
        <time>2016-10-02T15:36:59+02:00</time>
      </trkpt>
      <trkpt lat="45.98822" lon="6.28444">
        <ele>917</ele>
        <time>2016-10-02T15:37:00+02:00</time>
      </trkpt>
      <trkpt lat="45.98822" lon="6.28443">
        <ele>916</ele>
        <time>2016-10-02T15:37:01+02:00</time>
      </trkpt>
      <trkpt lat="45.98821" lon="6.28442">
        <ele>916</ele>
        <time>2016-10-02T15:37:01+02:00</time>
      </trkpt>
      <trkpt lat="45.9882" lon="6.28442">
        <ele>915</ele>
        <time>2016-10-02T15:37:02+02:00</time>
      </trkpt>
      <trkpt lat="45.98819" lon="6.28441">
        <ele>915</ele>
        <time>2016-10-02T15:37:03+02:00</time>
      </trkpt>
      <trkpt lat="45.98818" lon="6.2844">
        <ele>914</ele>
        <time>2016-10-02T15:37:04+02:00</time>
      </trkpt>
      <trkpt lat="45.98817" lon="6.2844">
        <ele>913</ele>
        <time>2016-10-02T15:37:05+02:00</time>
      </trkpt>
      <trkpt lat="45.98815" lon="6.28439">
        <ele>913</ele>
        <time>2016-10-02T15:37:07+02:00</time>
      </trkpt>
      <trkpt lat="45.98814" lon="6.28438">
        <ele>912</ele>
        <time>2016-10-02T15:37:09+02:00</time>
      </trkpt>
      <trkpt lat="45.98812" lon="6.28437">
        <ele>911</ele>
        <time>2016-10-02T15:37:10+02:00</time>
      </trkpt>
      <trkpt lat="45.9881" lon="6.28438">
        <ele>910</ele>
        <time>2016-10-02T15:37:11+02:00</time>
      </trkpt>
      <trkpt lat="45.98809" lon="6.28439">
        <ele>909</ele>
        <time>2016-10-02T15:37:13+02:00</time>
      </trkpt>
      <trkpt lat="45.98807" lon="6.2844">
        <ele>908</ele>
        <time>2016-10-02T15:37:14+02:00</time>
      </trkpt>
      <trkpt lat="45.98806" lon="6.28442">
        <ele>908</ele>
        <time>2016-10-02T15:37:15+02:00</time>
      </trkpt>
      <trkpt lat="45.98805" lon="6.28443">
        <ele>907</ele>
        <time>2016-10-02T15:37:17+02:00</time>
      </trkpt>
      <trkpt lat="45.98803" lon="6.28445">
        <ele>907</ele>
        <time>2016-10-02T15:37:18+02:00</time>
      </trkpt>
      <trkpt lat="45.98802" lon="6.28447">
        <ele>906</ele>
        <time>2016-10-02T15:37:20+02:00</time>
      </trkpt>
      <trkpt lat="45.988" lon="6.28448">
        <ele>905</ele>
        <time>2016-10-02T15:37:22+02:00</time>
      </trkpt>
      <trkpt lat="45.98799" lon="6.2845">
        <ele>905</ele>
        <time>2016-10-02T15:37:23+02:00</time>
      </trkpt>
      <trkpt lat="45.98798" lon="6.28452">
        <ele>905</ele>
        <time>2016-10-02T15:37:25+02:00</time>
      </trkpt>
      <trkpt lat="45.98797" lon="6.28455">
        <ele>904</ele>
        <time>2016-10-02T15:37:26+02:00</time>
      </trkpt>
      <trkpt lat="45.98796" lon="6.28457">
        <ele>904</ele>
        <time>2016-10-02T15:37:28+02:00</time>
      </trkpt>
      <trkpt lat="45.98796" lon="6.2846">
        <ele>904</ele>
        <time>2016-10-02T15:37:29+02:00</time>
      </trkpt>
      <trkpt lat="45.98795" lon="6.28462">
        <ele>904</ele>
        <time>2016-10-02T15:37:30+02:00</time>
      </trkpt>
      <trkpt lat="45.98795" lon="6.28464">
        <ele>904</ele>
        <time>2016-10-02T15:37:32+02:00</time>
      </trkpt>
      <trkpt lat="45.98794" lon="6.28466">
        <ele>904</ele>
        <time>2016-10-02T15:37:33+02:00</time>
      </trkpt>
      <trkpt lat="45.98794" lon="6.28468">
        <ele>904</ele>
        <time>2016-10-02T15:37:34+02:00</time>
      </trkpt>
      <trkpt lat="45.98794" lon="6.2847">
        <ele>904</ele>
        <time>2016-10-02T15:37:35+02:00</time>
      </trkpt>
      <trkpt lat="45.98793" lon="6.28472">
        <ele>904</ele>
        <time>2016-10-02T15:37:36+02:00</time>
      </trkpt>
      <trkpt lat="45.98793" lon="6.28474">
        <ele>904</ele>
        <time>2016-10-02T15:37:37+02:00</time>
      </trkpt>
      <trkpt lat="45.98794" lon="6.28476">
        <ele>905</ele>
        <time>2016-10-02T15:37:39+02:00</time>
      </trkpt>
      <trkpt lat="45.98794" lon="6.28478">
        <ele>905</ele>
        <time>2016-10-02T15:37:40+02:00</time>
      </trkpt>
      <trkpt lat="45.98794" lon="6.2848">
        <ele>905</ele>
        <time>2016-10-02T15:37:41+02:00</time>
      </trkpt>
      <trkpt lat="45.98794" lon="6.28481">
        <ele>905</ele>
        <time>2016-10-02T15:37:42+02:00</time>
      </trkpt>
      <trkpt lat="45.98794" lon="6.28483">
        <ele>905</ele>
        <time>2016-10-02T15:37:43+02:00</time>
      </trkpt>
      <trkpt lat="45.98794" lon="6.28484">
        <ele>906</ele>
        <time>2016-10-02T15:37:44+02:00</time>
      </trkpt>
      <trkpt lat="45.98794" lon="6.28486">
        <ele>906</ele>
        <time>2016-10-02T15:37:45+02:00</time>
      </trkpt>
      <trkpt lat="45.98794" lon="6.28487">
        <ele>906</ele>
        <time>2016-10-02T15:37:46+02:00</time>
      </trkpt>
      <trkpt lat="45.98793" lon="6.28488">
        <ele>905</ele>
        <time>2016-10-02T15:37:47+02:00</time>
      </trkpt>
      <trkpt lat="45.98792" lon="6.28489">
        <ele>905</ele>
        <time>2016-10-02T15:37:48+02:00</time>
      </trkpt>
      <trkpt lat="45.9879" lon="6.2849">
        <ele>904</ele>
        <time>2016-10-02T15:37:50+02:00</time>
      </trkpt>
      <trkpt lat="45.98788" lon="6.2849">
        <ele>903</ele>
        <time>2016-10-02T15:37:51+02:00</time>
      </trkpt>
      <trkpt lat="45.98786" lon="6.28491">
        <ele>903</ele>
        <time>2016-10-02T15:37:53+02:00</time>
      </trkpt>
      <trkpt lat="45.98784" lon="6.28491">
        <ele>902</ele>
        <time>2016-10-02T15:37:54+02:00</time>
      </trkpt>
      <trkpt lat="45.98783" lon="6.2849">
        <ele>901</ele>
        <time>2016-10-02T15:37:55+02:00</time>
      </trkpt>
      <trkpt lat="45.98782" lon="6.28489">
        <ele>901</ele>
        <time>2016-10-02T15:37:56+02:00</time>
      </trkpt>
      <trkpt lat="45.98781" lon="6.28489">
        <ele>900</ele>
        <time>2016-10-02T15:37:58+02:00</time>
      </trkpt>
      <trkpt lat="45.98779" lon="6.28489">
        <ele>900</ele>
        <time>2016-10-02T15:37:59+02:00</time>
      </trkpt>
      <trkpt lat="45.98778" lon="6.28487">
        <ele>899</ele>
        <time>2016-10-02T15:38:00+02:00</time>
      </trkpt>
      <trkpt lat="45.98777" lon="6.28485">
        <ele>898</ele>
        <time>2016-10-02T15:38:02+02:00</time>
      </trkpt>
      <trkpt lat="45.98775" lon="6.28483">
        <ele>897</ele>
        <time>2016-10-02T15:38:04+02:00</time>
      </trkpt>
      <trkpt lat="45.98774" lon="6.28481">
        <ele>896</ele>
        <time>2016-10-02T15:38:05+02:00</time>
      </trkpt>
      <trkpt lat="45.98773" lon="6.2848">
        <ele>896</ele>
        <time>2016-10-02T15:38:07+02:00</time>
      </trkpt>
      <trkpt lat="45.98772" lon="6.28478">
        <ele>895</ele>
        <time>2016-10-02T15:38:08+02:00</time>
      </trkpt>
      <trkpt lat="45.9877" lon="6.28477">
        <ele>894</ele>
        <time>2016-10-02T15:38:09+02:00</time>
      </trkpt>
      <trkpt lat="45.98769" lon="6.28476">
        <ele>893</ele>
        <time>2016-10-02T15:38:10+02:00</time>
      </trkpt>
      <trkpt lat="45.98768" lon="6.28475">
        <ele>893</ele>
        <time>2016-10-02T15:38:11+02:00</time>
      </trkpt>
      <trkpt lat="45.98767" lon="6.28473">
        <ele>892</ele>
        <time>2016-10-02T15:38:12+02:00</time>
      </trkpt>
      <trkpt lat="45.98766" lon="6.28472">
        <ele>891</ele>
        <time>2016-10-02T15:38:13+02:00</time>
      </trkpt>
      <trkpt lat="45.98765" lon="6.28471">
        <ele>891</ele>
        <time>2016-10-02T15:38:15+02:00</time>
      </trkpt>
      <trkpt lat="45.98764" lon="6.28469">
        <ele>890</ele>
        <time>2016-10-02T15:38:16+02:00</time>
      </trkpt>
      <trkpt lat="45.98762" lon="6.28467">
        <ele>889</ele>
        <time>2016-10-02T15:38:18+02:00</time>
      </trkpt>
      <trkpt lat="45.98761" lon="6.28465">
        <ele>888</ele>
        <time>2016-10-02T15:38:19+02:00</time>
      </trkpt>
      <trkpt lat="45.9876" lon="6.28463">
        <ele>887</ele>
        <time>2016-10-02T15:38:21+02:00</time>
      </trkpt>
      <trkpt lat="45.98759" lon="6.2846">
        <ele>886</ele>
        <time>2016-10-02T15:38:23+02:00</time>
      </trkpt>
      <trkpt lat="45.98758" lon="6.28458">
        <ele>885</ele>
        <time>2016-10-02T15:38:25+02:00</time>
      </trkpt>
      <trkpt lat="45.98756" lon="6.28455">
        <ele>884</ele>
        <time>2016-10-02T15:38:26+02:00</time>
      </trkpt>
      <trkpt lat="45.98756" lon="6.28453">
        <ele>883</ele>
        <time>2016-10-02T15:38:28+02:00</time>
      </trkpt>
      <trkpt lat="45.98755" lon="6.28451">
        <ele>883</ele>
        <time>2016-10-02T15:38:29+02:00</time>
      </trkpt>
      <trkpt lat="45.98754" lon="6.28449">
        <ele>882</ele>
        <time>2016-10-02T15:38:30+02:00</time>
      </trkpt>
      <trkpt lat="45.98754" lon="6.28447">
        <ele>881</ele>
        <time>2016-10-02T15:38:32+02:00</time>
      </trkpt>
      <trkpt lat="45.98753" lon="6.28445">
        <ele>881</ele>
        <time>2016-10-02T15:38:33+02:00</time>
      </trkpt>
      <trkpt lat="45.98752" lon="6.28442">
        <ele>880</ele>
        <time>2016-10-02T15:38:35+02:00</time>
      </trkpt>
      <trkpt lat="45.98752" lon="6.2844">
        <ele>879</ele>
        <time>2016-10-02T15:38:36+02:00</time>
      </trkpt>
      <trkpt lat="45.98751" lon="6.28437">
        <ele>878</ele>
        <time>2016-10-02T15:38:38+02:00</time>
      </trkpt>
      <trkpt lat="45.9875" lon="6.28436">
        <ele>877</ele>
        <time>2016-10-02T15:38:39+02:00</time>
      </trkpt>
      <trkpt lat="45.98748" lon="6.28433">
        <ele>877</ele>
        <time>2016-10-02T15:38:41+02:00</time>
      </trkpt>
      <trkpt lat="45.98748" lon="6.28431">
        <ele>876</ele>
        <time>2016-10-02T15:38:43+02:00</time>
      </trkpt>
      <trkpt lat="45.98747" lon="6.28427">
        <ele>875</ele>
        <time>2016-10-02T15:38:45+02:00</time>
      </trkpt>
      <trkpt lat="45.98746" lon="6.28424">
        <ele>874</ele>
        <time>2016-10-02T15:38:47+02:00</time>
      </trkpt>
      <trkpt lat="45.98746" lon="6.28421">
        <ele>873</ele>
        <time>2016-10-02T15:38:49+02:00</time>
      </trkpt>
      <trkpt lat="45.98745" lon="6.28418">
        <ele>873</ele>
        <time>2016-10-02T15:38:51+02:00</time>
      </trkpt>
      <trkpt lat="45.98745" lon="6.28415">
        <ele>872</ele>
        <time>2016-10-02T15:38:53+02:00</time>
      </trkpt>
      <trkpt lat="45.98744" lon="6.28412">
        <ele>872</ele>
        <time>2016-10-02T15:38:55+02:00</time>
      </trkpt>
      <trkpt lat="45.98744" lon="6.28408">
        <ele>872</ele>
        <time>2016-10-02T15:38:57+02:00</time>
      </trkpt>
      <trkpt lat="45.98743" lon="6.28405">
        <ele>871</ele>
        <time>2016-10-02T15:38:59+02:00</time>
      </trkpt>
      <trkpt lat="45.98742" lon="6.28403">
        <ele>871</ele>
        <time>2016-10-02T15:39:00+02:00</time>
      </trkpt>
      <trkpt lat="45.98742" lon="6.284">
        <ele>870</ele>
        <time>2016-10-02T15:39:02+02:00</time>
      </trkpt>
      <trkpt lat="45.98742" lon="6.28397">
        <ele>870</ele>
        <time>2016-10-02T15:39:04+02:00</time>
      </trkpt>
      <trkpt lat="45.98741" lon="6.28394">
        <ele>870</ele>
        <time>2016-10-02T15:39:05+02:00</time>
      </trkpt>
      <trkpt lat="45.9874" lon="6.28392">
        <ele>869</ele>
        <time>2016-10-02T15:39:07+02:00</time>
      </trkpt>
      <trkpt lat="45.98739" lon="6.28389">
        <ele>869</ele>
        <time>2016-10-02T15:39:09+02:00</time>
      </trkpt>
      <trkpt lat="45.98738" lon="6.28386">
        <ele>868</ele>
        <time>2016-10-02T15:39:11+02:00</time>
      </trkpt>
      <trkpt lat="45.98737" lon="6.28384">
        <ele>868</ele>
        <time>2016-10-02T15:39:13+02:00</time>
      </trkpt>
      <trkpt lat="45.98737" lon="6.28381">
        <ele>867</ele>
        <time>2016-10-02T15:39:14+02:00</time>
      </trkpt>
      <trkpt lat="45.98737" lon="6.28378">
        <ele>867</ele>
        <time>2016-10-02T15:39:16+02:00</time>
      </trkpt>
      <trkpt lat="45.98737" lon="6.28375">
        <ele>867</ele>
        <time>2016-10-02T15:39:18+02:00</time>
      </trkpt>
      <trkpt lat="45.98737" lon="6.28372">
        <ele>867</ele>
        <time>2016-10-02T15:39:20+02:00</time>
      </trkpt>
      <trkpt lat="45.98736" lon="6.2837">
        <ele>866</ele>
        <time>2016-10-02T15:39:21+02:00</time>
      </trkpt>
      <trkpt lat="45.98735" lon="6.28367">
        <ele>866</ele>
        <time>2016-10-02T15:39:23+02:00</time>
      </trkpt>
      <trkpt lat="45.98734" lon="6.28364">
        <ele>865</ele>
        <time>2016-10-02T15:39:25+02:00</time>
      </trkpt>
      <trkpt lat="45.98733" lon="6.28361">
        <ele>864</ele>
        <time>2016-10-02T15:39:27+02:00</time>
      </trkpt>
      <trkpt lat="45.98733" lon="6.28358">
        <ele>864</ele>
        <time>2016-10-02T15:39:29+02:00</time>
      </trkpt>
      <trkpt lat="45.98732" lon="6.28355">
        <ele>863</ele>
        <time>2016-10-02T15:39:31+02:00</time>
      </trkpt>
      <trkpt lat="45.98731" lon="6.28351">
        <ele>863</ele>
        <time>2016-10-02T15:39:33+02:00</time>
      </trkpt>
      <trkpt lat="45.9873" lon="6.28348">
        <ele>862</ele>
        <time>2016-10-02T15:39:35+02:00</time>
      </trkpt>
      <trkpt lat="45.98729" lon="6.28345">
        <ele>861</ele>
        <time>2016-10-02T15:39:37+02:00</time>
      </trkpt>
      <trkpt lat="45.98728" lon="6.28342">
        <ele>860</ele>
        <time>2016-10-02T15:39:39+02:00</time>
      </trkpt>
      <trkpt lat="45.98727" lon="6.28339">
        <ele>860</ele>
        <time>2016-10-02T15:39:41+02:00</time>
      </trkpt>
      <trkpt lat="45.98726" lon="6.28336">
        <ele>859</ele>
        <time>2016-10-02T15:39:43+02:00</time>
      </trkpt>
      <trkpt lat="45.98725" lon="6.28333">
        <ele>858</ele>
        <time>2016-10-02T15:39:45+02:00</time>
      </trkpt>
      <trkpt lat="45.98724" lon="6.28329">
        <ele>858</ele>
        <time>2016-10-02T15:39:47+02:00</time>
      </trkpt>
      <trkpt lat="45.98723" lon="6.28326">
        <ele>857</ele>
        <time>2016-10-02T15:39:49+02:00</time>
      </trkpt>
      <trkpt lat="45.98722" lon="6.28323">
        <ele>856</ele>
        <time>2016-10-02T15:39:51+02:00</time>
      </trkpt>
      <trkpt lat="45.98721" lon="6.28321">
        <ele>856</ele>
        <time>2016-10-02T15:39:53+02:00</time>
      </trkpt>
      <trkpt lat="45.9872" lon="6.28319">
        <ele>855</ele>
        <time>2016-10-02T15:39:54+02:00</time>
      </trkpt>
      <trkpt lat="45.98719" lon="6.28316">
        <ele>854</ele>
        <time>2016-10-02T15:39:56+02:00</time>
      </trkpt>
      <trkpt lat="45.98718" lon="6.28313">
        <ele>853</ele>
        <time>2016-10-02T15:39:58+02:00</time>
      </trkpt>
      <trkpt lat="45.98716" lon="6.28311">
        <ele>853</ele>
        <time>2016-10-02T15:40:00+02:00</time>
      </trkpt>
      <trkpt lat="45.98715" lon="6.28308">
        <ele>852</ele>
        <time>2016-10-02T15:40:02+02:00</time>
      </trkpt>
      <trkpt lat="45.98714" lon="6.28306">
        <ele>851</ele>
        <time>2016-10-02T15:40:03+02:00</time>
      </trkpt>
      <trkpt lat="45.98713" lon="6.28304">
        <ele>850</ele>
        <time>2016-10-02T15:40:05+02:00</time>
      </trkpt>
      <trkpt lat="45.98711" lon="6.28302">
        <ele>850</ele>
        <time>2016-10-02T15:40:07+02:00</time>
      </trkpt>
      <trkpt lat="45.9871" lon="6.283">
        <ele>849</ele>
        <time>2016-10-02T15:40:08+02:00</time>
      </trkpt>
      <trkpt lat="45.98708" lon="6.28298">
        <ele>848</ele>
        <time>2016-10-02T15:40:10+02:00</time>
      </trkpt>
      <trkpt lat="45.98707" lon="6.28296">
        <ele>847</ele>
        <time>2016-10-02T15:40:11+02:00</time>
      </trkpt>
      <trkpt lat="45.98705" lon="6.28294">
        <ele>846</ele>
        <time>2016-10-02T15:40:13+02:00</time>
      </trkpt>
      <trkpt lat="45.98704" lon="6.28293">
        <ele>845</ele>
        <time>2016-10-02T15:40:15+02:00</time>
      </trkpt>
      <trkpt lat="45.98702" lon="6.28291">
        <ele>844</ele>
        <time>2016-10-02T15:40:16+02:00</time>
      </trkpt>
      <trkpt lat="45.987" lon="6.28289">
        <ele>843</ele>
        <time>2016-10-02T15:40:18+02:00</time>
      </trkpt>
      <trkpt lat="45.98699" lon="6.28287">
        <ele>842</ele>
        <time>2016-10-02T15:40:20+02:00</time>
      </trkpt>
      <trkpt lat="45.98698" lon="6.28285">
        <ele>841</ele>
        <time>2016-10-02T15:40:22+02:00</time>
      </trkpt>
      <trkpt lat="45.98696" lon="6.28283">
        <ele>840</ele>
        <time>2016-10-02T15:40:24+02:00</time>
      </trkpt>
      <trkpt lat="45.98695" lon="6.2828">
        <ele>839</ele>
        <time>2016-10-02T15:40:25+02:00</time>
      </trkpt>
      <trkpt lat="45.98693" lon="6.28278">
        <ele>838</ele>
        <time>2016-10-02T15:40:27+02:00</time>
      </trkpt>
      <trkpt lat="45.98691" lon="6.28276">
        <ele>837</ele>
        <time>2016-10-02T15:40:29+02:00</time>
      </trkpt>
      <trkpt lat="45.9869" lon="6.28274">
        <ele>836</ele>
        <time>2016-10-02T15:40:31+02:00</time>
      </trkpt>
      <trkpt lat="45.98689" lon="6.28271">
        <ele>835</ele>
        <time>2016-10-02T15:40:33+02:00</time>
      </trkpt>
      <trkpt lat="45.98689" lon="6.28267">
        <ele>834</ele>
        <time>2016-10-02T15:40:35+02:00</time>
      </trkpt>
      <trkpt lat="45.98688" lon="6.28264">
        <ele>834</ele>
        <time>2016-10-02T15:40:37+02:00</time>
      </trkpt>
      <trkpt lat="45.98686" lon="6.28262">
        <ele>833</ele>
        <time>2016-10-02T15:40:39+02:00</time>
      </trkpt>
      <trkpt lat="45.98685" lon="6.28259">
        <ele>832</ele>
        <time>2016-10-02T15:40:40+02:00</time>
      </trkpt>
      <trkpt lat="45.98684" lon="6.28257">
        <ele>831</ele>
        <time>2016-10-02T15:40:42+02:00</time>
      </trkpt>
      <trkpt lat="45.98683" lon="6.28254">
        <ele>830</ele>
        <time>2016-10-02T15:40:44+02:00</time>
      </trkpt>
      <trkpt lat="45.98682" lon="6.28251">
        <ele>829</ele>
        <time>2016-10-02T15:40:46+02:00</time>
      </trkpt>
      <trkpt lat="45.98682" lon="6.28249">
        <ele>829</ele>
        <time>2016-10-02T15:40:47+02:00</time>
      </trkpt>
      <trkpt lat="45.98681" lon="6.28247">
        <ele>828</ele>
        <time>2016-10-02T15:40:49+02:00</time>
      </trkpt>
      <trkpt lat="45.98681" lon="6.28245">
        <ele>828</ele>
        <time>2016-10-02T15:40:50+02:00</time>
      </trkpt>
      <trkpt lat="45.9868" lon="6.28243">
        <ele>827</ele>
        <time>2016-10-02T15:40:51+02:00</time>
      </trkpt>
      <trkpt lat="45.9868" lon="6.28242">
        <ele>827</ele>
        <time>2016-10-02T15:40:52+02:00</time>
      </trkpt>
      <trkpt lat="45.9868" lon="6.2824">
        <ele>827</ele>
        <time>2016-10-02T15:40:53+02:00</time>
      </trkpt>
      <trkpt lat="45.98679" lon="6.28238">
        <ele>826</ele>
        <time>2016-10-02T15:40:54+02:00</time>
      </trkpt>
      <trkpt lat="45.98678" lon="6.28235">
        <ele>825</ele>
        <time>2016-10-02T15:40:56+02:00</time>
      </trkpt>
      <trkpt lat="45.98676" lon="6.28233">
        <ele>824</ele>
        <time>2016-10-02T15:40:58+02:00</time>
      </trkpt>
      <trkpt lat="45.98673" lon="6.2823">
        <ele>822</ele>
        <time>2016-10-02T15:41:01+02:00</time>
      </trkpt>
      <trkpt lat="45.98671" lon="6.28228">
        <ele>821</ele>
        <time>2016-10-02T15:41:03+02:00</time>
      </trkpt>
      <trkpt lat="45.98669" lon="6.28225">
        <ele>820</ele>
        <time>2016-10-02T15:41:05+02:00</time>
      </trkpt>
      <trkpt lat="45.98668" lon="6.28223">
        <ele>819</ele>
        <time>2016-10-02T15:41:07+02:00</time>
      </trkpt>
      <trkpt lat="45.98666" lon="6.28222">
        <ele>818</ele>
        <time>2016-10-02T15:41:09+02:00</time>
      </trkpt>
      <trkpt lat="45.98664" lon="6.2822">
        <ele>817</ele>
        <time>2016-10-02T15:41:10+02:00</time>
      </trkpt>
      <trkpt lat="45.98663" lon="6.28219">
        <ele>817</ele>
        <time>2016-10-02T15:41:12+02:00</time>
      </trkpt>
      <trkpt lat="45.98663" lon="6.28217">
        <ele>817</ele>
        <time>2016-10-02T15:41:13+02:00</time>
      </trkpt>
      <trkpt lat="45.98662" lon="6.28215">
        <ele>816</ele>
        <time>2016-10-02T15:41:14+02:00</time>
      </trkpt>
      <trkpt lat="45.98662" lon="6.28214">
        <ele>816</ele>
        <time>2016-10-02T15:41:14+02:00</time>
      </trkpt>
      <trkpt lat="45.98663" lon="6.28213">
        <ele>816</ele>
        <time>2016-10-02T15:41:15+02:00</time>
      </trkpt>
      <trkpt lat="45.98663" lon="6.28212">
        <ele>816</ele>
        <time>2016-10-02T15:41:16+02:00</time>
      </trkpt>
      <trkpt lat="45.98664" lon="6.28212">
        <ele>817</ele>
        <time>2016-10-02T15:41:16+02:00</time>
      </trkpt>
      <trkpt lat="45.98664" lon="6.28211">
        <ele>816</ele>
        <time>2016-10-02T15:41:17+02:00</time>
      </trkpt>
      <trkpt lat="45.98664" lon="6.2821">
        <ele>816</ele>
        <time>2016-10-02T15:41:17+02:00</time>
      </trkpt>
      <trkpt lat="45.98664" lon="6.28209">
        <ele>816</ele>
        <time>2016-10-02T15:41:18+02:00</time>
      </trkpt>
      <trkpt lat="45.98663" lon="6.28209">
        <ele>816</ele>
        <time>2016-10-02T15:41:18+02:00</time>
      </trkpt>
      <trkpt lat="45.98663" lon="6.28209">
        <ele>816</ele>
        <time>2016-10-02T15:41:19+02:00</time>
      </trkpt>
      <trkpt lat="45.98662" lon="6.28209">
        <ele>816</ele>
        <time>2016-10-02T15:41:20+02:00</time>
      </trkpt>
      <trkpt lat="45.98661" lon="6.28209">
        <ele>816</ele>
        <time>2016-10-02T15:41:21+02:00</time>
      </trkpt>
      <trkpt lat="45.9866" lon="6.28208">
        <ele>815</ele>
        <time>2016-10-02T15:41:22+02:00</time>
      </trkpt>
      <trkpt lat="45.98659" lon="6.28208">
        <ele>815</ele>
        <time>2016-10-02T15:41:23+02:00</time>
      </trkpt>
      <trkpt lat="45.98658" lon="6.28208">
        <ele>815</ele>
        <time>2016-10-02T15:41:24+02:00</time>
      </trkpt>
      <trkpt lat="45.98656" lon="6.28208">
        <ele>814</ele>
        <time>2016-10-02T15:41:25+02:00</time>
      </trkpt>
      <trkpt lat="45.98655" lon="6.28208">
        <ele>814</ele>
        <time>2016-10-02T15:41:26+02:00</time>
      </trkpt>
      <trkpt lat="45.98654" lon="6.28209">
        <ele>814</ele>
        <time>2016-10-02T15:41:27+02:00</time>
      </trkpt>
      <trkpt lat="45.98652" lon="6.28209">
        <ele>813</ele>
        <time>2016-10-02T15:41:29+02:00</time>
      </trkpt>
      <trkpt lat="45.9865" lon="6.28209">
        <ele>813</ele>
        <time>2016-10-02T15:41:30+02:00</time>
      </trkpt>
      <trkpt lat="45.98649" lon="6.28209">
        <ele>812</ele>
        <time>2016-10-02T15:41:31+02:00</time>
      </trkpt>
      <trkpt lat="45.98647" lon="6.28209">
        <ele>812</ele>
        <time>2016-10-02T15:41:33+02:00</time>
      </trkpt>
      <trkpt lat="45.98645" lon="6.28209">
        <ele>812</ele>
        <time>2016-10-02T15:41:34+02:00</time>
      </trkpt>
      <trkpt lat="45.98644" lon="6.28209">
        <ele>811</ele>
        <time>2016-10-02T15:41:36+02:00</time>
      </trkpt>
      <trkpt lat="45.98642" lon="6.28209">
        <ele>811</ele>
        <time>2016-10-02T15:41:37+02:00</time>
      </trkpt>
      <trkpt lat="45.98641" lon="6.28208">
        <ele>811</ele>
        <time>2016-10-02T15:41:38+02:00</time>
      </trkpt>
      <trkpt lat="45.98641" lon="6.28207">
        <ele>810</ele>
        <time>2016-10-02T15:41:39+02:00</time>
      </trkpt>
      <trkpt lat="45.9864" lon="6.28205">
        <ele>810</ele>
        <time>2016-10-02T15:41:40+02:00</time>
      </trkpt>
      <trkpt lat="45.98639" lon="6.28204">
        <ele>810</ele>
        <time>2016-10-02T15:41:41+02:00</time>
      </trkpt>
      <trkpt lat="45.98638" lon="6.28202">
        <ele>810</ele>
        <time>2016-10-02T15:41:42+02:00</time>
      </trkpt>
      <trkpt lat="45.98637" lon="6.28201">
        <ele>809</ele>
        <time>2016-10-02T15:41:44+02:00</time>
      </trkpt>
      <trkpt lat="45.98636" lon="6.28199">
        <ele>809</ele>
        <time>2016-10-02T15:41:45+02:00</time>
      </trkpt>
      <trkpt lat="45.98634" lon="6.28197">
        <ele>808</ele>
        <time>2016-10-02T15:41:47+02:00</time>
      </trkpt>
      <trkpt lat="45.98632" lon="6.28195">
        <ele>808</ele>
        <time>2016-10-02T15:41:49+02:00</time>
      </trkpt>
      <trkpt lat="45.9863" lon="6.28193">
        <ele>807</ele>
        <time>2016-10-02T15:41:51+02:00</time>
      </trkpt>
      <trkpt lat="45.98628" lon="6.28191">
        <ele>806</ele>
        <time>2016-10-02T15:41:53+02:00</time>
      </trkpt>
      <trkpt lat="45.98626" lon="6.28189">
        <ele>806</ele>
        <time>2016-10-02T15:41:55+02:00</time>
      </trkpt>
      <trkpt lat="45.98624" lon="6.28186">
        <ele>805</ele>
        <time>2016-10-02T15:41:58+02:00</time>
      </trkpt>
      <trkpt lat="45.98623" lon="6.28184">
        <ele>805</ele>
        <time>2016-10-02T15:41:59+02:00</time>
      </trkpt>
      <trkpt lat="45.98621" lon="6.28182">
        <ele>804</ele>
        <time>2016-10-02T15:42:01+02:00</time>
      </trkpt>
      <trkpt lat="45.9862" lon="6.28181">
        <ele>804</ele>
        <time>2016-10-02T15:42:03+02:00</time>
      </trkpt>
      <trkpt lat="45.98618" lon="6.2818">
        <ele>804</ele>
        <time>2016-10-02T15:42:04+02:00</time>
      </trkpt>
      <trkpt lat="45.98617" lon="6.28179">
        <ele>803</ele>
        <time>2016-10-02T15:42:05+02:00</time>
      </trkpt>
      <trkpt lat="45.98615" lon="6.28178">
        <ele>803</ele>
        <time>2016-10-02T15:42:07+02:00</time>
      </trkpt>
      <trkpt lat="45.98612" lon="6.28177">
        <ele>802</ele>
        <time>2016-10-02T15:42:09+02:00</time>
      </trkpt>
      <trkpt lat="45.9861" lon="6.28176">
        <ele>802</ele>
        <time>2016-10-02T15:42:11+02:00</time>
      </trkpt>
      <trkpt lat="45.98608" lon="6.28175">
        <ele>801</ele>
        <time>2016-10-02T15:42:13+02:00</time>
      </trkpt>
      <trkpt lat="45.98605" lon="6.28174">
        <ele>800</ele>
        <time>2016-10-02T15:42:15+02:00</time>
      </trkpt>
      <trkpt lat="45.98603" lon="6.28174">
        <ele>800</ele>
        <time>2016-10-02T15:42:17+02:00</time>
      </trkpt>
      <trkpt lat="45.98601" lon="6.28174">
        <ele>799</ele>
        <time>2016-10-02T15:42:19+02:00</time>
      </trkpt>
      <trkpt lat="45.98599" lon="6.28173">
        <ele>799</ele>
        <time>2016-10-02T15:42:21+02:00</time>
      </trkpt>
      <trkpt lat="45.98597" lon="6.28172">
        <ele>798</ele>
        <time>2016-10-02T15:42:22+02:00</time>
      </trkpt>
      <trkpt lat="45.98596" lon="6.28171">
        <ele>798</ele>
        <time>2016-10-02T15:42:24+02:00</time>
      </trkpt>
      <trkpt lat="45.98595" lon="6.2817">
        <ele>798</ele>
        <time>2016-10-02T15:42:25+02:00</time>
      </trkpt>
      <trkpt lat="45.98593" lon="6.28169">
        <ele>797</ele>
        <time>2016-10-02T15:42:26+02:00</time>
      </trkpt>
      <trkpt lat="45.98591" lon="6.28168">
        <ele>797</ele>
        <time>2016-10-02T15:42:28+02:00</time>
      </trkpt>
      <trkpt lat="45.98589" lon="6.28166">
        <ele>796</ele>
        <time>2016-10-02T15:42:30+02:00</time>
      </trkpt>
      <trkpt lat="45.98587" lon="6.28164">
        <ele>796</ele>
        <time>2016-10-02T15:42:32+02:00</time>
      </trkpt>
      <trkpt lat="45.98586" lon="6.28163">
        <ele>795</ele>
        <time>2016-10-02T15:42:33+02:00</time>
      </trkpt>
      <trkpt lat="45.98585" lon="6.28162">
        <ele>795</ele>
        <time>2016-10-02T15:42:34+02:00</time>
      </trkpt>
      <trkpt lat="45.98584" lon="6.28161">
        <ele>795</ele>
        <time>2016-10-02T15:42:35+02:00</time>
      </trkpt>
      <trkpt lat="45.98582" lon="6.28159">
        <ele>795</ele>
        <time>2016-10-02T15:42:37+02:00</time>
      </trkpt>
      <trkpt lat="45.9858" lon="6.28156">
        <ele>794</ele>
        <time>2016-10-02T15:42:40+02:00</time>
      </trkpt>
      <trkpt lat="45.98578" lon="6.28154">
        <ele>794</ele>
        <time>2016-10-02T15:42:42+02:00</time>
      </trkpt>
      <trkpt lat="45.98576" lon="6.28152">
        <ele>794</ele>
        <time>2016-10-02T15:42:43+02:00</time>
      </trkpt>
      <trkpt lat="45.98575" lon="6.2815">
        <ele>794</ele>
        <time>2016-10-02T15:42:45+02:00</time>
      </trkpt>
      <trkpt lat="45.98573" lon="6.28148">
        <ele>794</ele>
        <time>2016-10-02T15:42:47+02:00</time>
      </trkpt>
      <trkpt lat="45.98571" lon="6.28146">
        <ele>793</ele>
        <time>2016-10-02T15:42:49+02:00</time>
      </trkpt>
      <trkpt lat="45.9857" lon="6.28145">
        <ele>793</ele>
        <time>2016-10-02T15:42:50+02:00</time>
      </trkpt>
      <trkpt lat="45.98569" lon="6.28144">
        <ele>793</ele>
        <time>2016-10-02T15:42:51+02:00</time>
      </trkpt>
      <trkpt lat="45.98569" lon="6.28143">
        <ele>793</ele>
        <time>2016-10-02T15:42:52+02:00</time>
      </trkpt>
      <trkpt lat="45.98568" lon="6.28142">
        <ele>793</ele>
        <time>2016-10-02T15:42:52+02:00</time>
      </trkpt>
      <trkpt lat="45.98568" lon="6.28141">
        <ele>793</ele>
        <time>2016-10-02T15:42:53+02:00</time>
      </trkpt>
      <trkpt lat="45.98567" lon="6.2814">
        <ele>793</ele>
        <time>2016-10-02T15:42:54+02:00</time>
      </trkpt>
      <trkpt lat="45.98567" lon="6.28139">
        <ele>793</ele>
        <time>2016-10-02T15:42:55+02:00</time>
      </trkpt>
      <trkpt lat="45.98566" lon="6.28138">
        <ele>793</ele>
        <time>2016-10-02T15:42:56+02:00</time>
      </trkpt>
      <trkpt lat="45.98565" lon="6.28137">
        <ele>792</ele>
        <time>2016-10-02T15:42:57+02:00</time>
      </trkpt>
      <trkpt lat="45.98564" lon="6.28136">
        <ele>792</ele>
        <time>2016-10-02T15:42:58+02:00</time>
      </trkpt>
      <trkpt lat="45.98563" lon="6.28134">
        <ele>792</ele>
        <time>2016-10-02T15:42:59+02:00</time>
      </trkpt>
      <trkpt lat="45.98562" lon="6.28133">
        <ele>792</ele>
        <time>2016-10-02T15:43:00+02:00</time>
      </trkpt>
      <trkpt lat="45.98561" lon="6.28131">
        <ele>792</ele>
        <time>2016-10-02T15:43:02+02:00</time>
      </trkpt>
      <trkpt lat="45.9856" lon="6.28129">
        <ele>792</ele>
        <time>2016-10-02T15:43:03+02:00</time>
      </trkpt>
      <trkpt lat="45.98559" lon="6.28127">
        <ele>792</ele>
        <time>2016-10-02T15:43:05+02:00</time>
      </trkpt>
      <trkpt lat="45.98558" lon="6.28125">
        <ele>791</ele>
        <time>2016-10-02T15:43:06+02:00</time>
      </trkpt>
      <trkpt lat="45.98557" lon="6.28124">
        <ele>791</ele>
        <time>2016-10-02T15:43:07+02:00</time>
      </trkpt>
      <trkpt lat="45.98556" lon="6.28122">
        <ele>791</ele>
        <time>2016-10-02T15:43:09+02:00</time>
      </trkpt>
      <trkpt lat="45.98554" lon="6.2812">
        <ele>791</ele>
        <time>2016-10-02T15:43:10+02:00</time>
      </trkpt>
      <trkpt lat="45.98553" lon="6.28117">
        <ele>791</ele>
        <time>2016-10-02T15:43:12+02:00</time>
      </trkpt>
      <trkpt lat="45.98552" lon="6.28115">
        <ele>790</ele>
        <time>2016-10-02T15:43:14+02:00</time>
      </trkpt>
      <trkpt lat="45.9855" lon="6.28113">
        <ele>790</ele>
        <time>2016-10-02T15:43:16+02:00</time>
      </trkpt>
      <trkpt lat="45.9855" lon="6.28112">
        <ele>790</ele>
        <time>2016-10-02T15:43:16+02:00</time>
      </trkpt>
      <trkpt lat="45.98549" lon="6.2811">
        <ele>790</ele>
        <time>2016-10-02T15:43:17+02:00</time>
      </trkpt>
      <trkpt lat="45.98548" lon="6.28109">
        <ele>790</ele>
        <time>2016-10-02T15:43:19+02:00</time>
      </trkpt>
      <trkpt lat="45.98547" lon="6.28106">
        <ele>790</ele>
        <time>2016-10-02T15:43:21+02:00</time>
      </trkpt>
      <trkpt lat="45.98546" lon="6.28104">
        <ele>789</ele>
        <time>2016-10-02T15:43:22+02:00</time>
      </trkpt>
      <trkpt lat="45.98545" lon="6.28101">
        <ele>789</ele>
        <time>2016-10-02T15:43:24+02:00</time>
      </trkpt>
      <trkpt lat="45.98544" lon="6.28099">
        <ele>789</ele>
        <time>2016-10-02T15:43:26+02:00</time>
      </trkpt>
      <trkpt lat="45.98544" lon="6.28096">
        <ele>789</ele>
        <time>2016-10-02T15:43:27+02:00</time>
      </trkpt>
      <trkpt lat="45.98543" lon="6.28094">
        <ele>789</ele>
        <time>2016-10-02T15:43:29+02:00</time>
      </trkpt>
      <trkpt lat="45.98542" lon="6.28091">
        <ele>788</ele>
        <time>2016-10-02T15:43:30+02:00</time>
      </trkpt>
      <trkpt lat="45.98541" lon="6.28088">
        <ele>788</ele>
        <time>2016-10-02T15:43:32+02:00</time>
      </trkpt>
      <trkpt lat="45.9854" lon="6.28086">
        <ele>788</ele>
        <time>2016-10-02T15:43:34+02:00</time>
      </trkpt>
      <trkpt lat="45.98539" lon="6.28083">
        <ele>788</ele>
        <time>2016-10-02T15:43:36+02:00</time>
      </trkpt>
      <trkpt lat="45.98538" lon="6.28081">
        <ele>787</ele>
        <time>2016-10-02T15:43:37+02:00</time>
      </trkpt>
      <trkpt lat="45.98537" lon="6.28078">
        <ele>787</ele>
        <time>2016-10-02T15:43:39+02:00</time>
      </trkpt>
      <trkpt lat="45.98536" lon="6.28076">
        <ele>787</ele>
        <time>2016-10-02T15:43:41+02:00</time>
      </trkpt>
      <trkpt lat="45.98535" lon="6.28073">
        <ele>787</ele>
        <time>2016-10-02T15:43:42+02:00</time>
      </trkpt>
      <trkpt lat="45.98534" lon="6.2807">
        <ele>786</ele>
        <time>2016-10-02T15:43:44+02:00</time>
      </trkpt>
      <trkpt lat="45.98533" lon="6.28068">
        <ele>786</ele>
        <time>2016-10-02T15:43:46+02:00</time>
      </trkpt>
      <trkpt lat="45.98532" lon="6.28064">
        <ele>786</ele>
        <time>2016-10-02T15:43:48+02:00</time>
      </trkpt>
      <trkpt lat="45.9853" lon="6.28061">
        <ele>785</ele>
        <time>2016-10-02T15:43:50+02:00</time>
      </trkpt>
      <trkpt lat="45.98529" lon="6.28058">
        <ele>785</ele>
        <time>2016-10-02T15:43:52+02:00</time>
      </trkpt>
      <trkpt lat="45.98528" lon="6.28055">
        <ele>784</ele>
        <time>2016-10-02T15:43:54+02:00</time>
      </trkpt>
      <trkpt lat="45.98526" lon="6.28052">
        <ele>784</ele>
        <time>2016-10-02T15:43:56+02:00</time>
      </trkpt>
      <trkpt lat="45.98525" lon="6.28049">
        <ele>784</ele>
        <time>2016-10-02T15:43:59+02:00</time>
      </trkpt>
      <trkpt lat="45.98523" lon="6.28046">
        <ele>783</ele>
        <time>2016-10-02T15:44:01+02:00</time>
      </trkpt>
      <trkpt lat="45.98522" lon="6.28042">
        <ele>783</ele>
        <time>2016-10-02T15:44:03+02:00</time>
      </trkpt>
      <trkpt lat="45.98522" lon="6.2804">
        <ele>782</ele>
        <time>2016-10-02T15:44:05+02:00</time>
      </trkpt>
      <trkpt lat="45.98521" lon="6.28037">
        <ele>782</ele>
        <time>2016-10-02T15:44:07+02:00</time>
      </trkpt>
      <trkpt lat="45.9852" lon="6.28034">
        <ele>782</ele>
        <time>2016-10-02T15:44:08+02:00</time>
      </trkpt>
      <trkpt lat="45.98519" lon="6.28031">
        <ele>781</ele>
        <time>2016-10-02T15:44:10+02:00</time>
      </trkpt>
      <trkpt lat="45.98518" lon="6.28027">
        <ele>781</ele>
        <time>2016-10-02T15:44:12+02:00</time>
      </trkpt>
      <trkpt lat="45.98517" lon="6.28024">
        <ele>781</ele>
        <time>2016-10-02T15:44:15+02:00</time>
      </trkpt>
      <trkpt lat="45.98517" lon="6.2802">
        <ele>780</ele>
        <time>2016-10-02T15:44:17+02:00</time>
      </trkpt>
      <trkpt lat="45.98516" lon="6.28017">
        <ele>780</ele>
        <time>2016-10-02T15:44:19+02:00</time>
      </trkpt>
      <trkpt lat="45.98516" lon="6.28013">
        <ele>779</ele>
        <time>2016-10-02T15:44:21+02:00</time>
      </trkpt>
      <trkpt lat="45.98515" lon="6.2801">
        <ele>779</ele>
        <time>2016-10-02T15:44:22+02:00</time>
      </trkpt>
      <trkpt lat="45.98514" lon="6.28007">
        <ele>779</ele>
        <time>2016-10-02T15:44:24+02:00</time>
      </trkpt>
      <trkpt lat="45.98513" lon="6.28004">
        <ele>778</ele>
        <time>2016-10-02T15:44:26+02:00</time>
      </trkpt>
      <trkpt lat="45.98512" lon="6.28001">
        <ele>778</ele>
        <time>2016-10-02T15:44:28+02:00</time>
      </trkpt>
      <trkpt lat="45.98511" lon="6.27999">
        <ele>777</ele>
        <time>2016-10-02T15:44:30+02:00</time>
      </trkpt>
      <trkpt lat="45.98509" lon="6.27996">
        <ele>777</ele>
        <time>2016-10-02T15:44:32+02:00</time>
      </trkpt>
      <trkpt lat="45.98508" lon="6.27993">
        <ele>777</ele>
        <time>2016-10-02T15:44:34+02:00</time>
      </trkpt>
      <trkpt lat="45.98506" lon="6.2799">
        <ele>776</ele>
        <time>2016-10-02T15:44:36+02:00</time>
      </trkpt>
      <trkpt lat="45.98505" lon="6.27988">
        <ele>776</ele>
        <time>2016-10-02T15:44:38+02:00</time>
      </trkpt>
      <trkpt lat="45.98503" lon="6.27985">
        <ele>775</ele>
        <time>2016-10-02T15:44:40+02:00</time>
      </trkpt>
      <trkpt lat="45.98502" lon="6.27983">
        <ele>775</ele>
        <time>2016-10-02T15:44:41+02:00</time>
      </trkpt>
      <trkpt lat="45.985" lon="6.2798">
        <ele>774</ele>
        <time>2016-10-02T15:44:44+02:00</time>
      </trkpt>
      <trkpt lat="45.98499" lon="6.27977">
        <ele>774</ele>
        <time>2016-10-02T15:44:46+02:00</time>
      </trkpt>
      <trkpt lat="45.98497" lon="6.27974">
        <ele>774</ele>
        <time>2016-10-02T15:44:47+02:00</time>
      </trkpt>
      <trkpt lat="45.98496" lon="6.27972">
        <ele>773</ele>
        <time>2016-10-02T15:44:49+02:00</time>
      </trkpt>
      <trkpt lat="45.98496" lon="6.2797">
        <ele>773</ele>
        <time>2016-10-02T15:44:50+02:00</time>
      </trkpt>
      <trkpt lat="45.98495" lon="6.27968">
        <ele>773</ele>
        <time>2016-10-02T15:44:51+02:00</time>
      </trkpt>
      <trkpt lat="45.98496" lon="6.27966">
        <ele>773</ele>
        <time>2016-10-02T15:44:52+02:00</time>
      </trkpt>
      <trkpt lat="45.98496" lon="6.27964">
        <ele>773</ele>
        <time>2016-10-02T15:44:54+02:00</time>
      </trkpt>
      <trkpt lat="45.98497" lon="6.27961">
        <ele>772</ele>
        <time>2016-10-02T15:44:55+02:00</time>
      </trkpt>
      <trkpt lat="45.98497" lon="6.27959">
        <ele>772</ele>
        <time>2016-10-02T15:44:57+02:00</time>
      </trkpt>
      <trkpt lat="45.98498" lon="6.27956">
        <ele>772</ele>
        <time>2016-10-02T15:44:58+02:00</time>
      </trkpt>
      <trkpt lat="45.98498" lon="6.27953">
        <ele>772</ele>
        <time>2016-10-02T15:45:00+02:00</time>
      </trkpt>
      <trkpt lat="45.98498" lon="6.27949">
        <ele>772</ele>
        <time>2016-10-02T15:45:02+02:00</time>
      </trkpt>
      <trkpt lat="45.98498" lon="6.27946">
        <ele>771</ele>
        <time>2016-10-02T15:45:04+02:00</time>
      </trkpt>
      <trkpt lat="45.98499" lon="6.27943">
        <ele>771</ele>
        <time>2016-10-02T15:45:05+02:00</time>
      </trkpt>
      <trkpt lat="45.98498" lon="6.2794">
        <ele>771</ele>
        <time>2016-10-02T15:45:07+02:00</time>
      </trkpt>
      <trkpt lat="45.98498" lon="6.27937">
        <ele>770</ele>
        <time>2016-10-02T15:45:09+02:00</time>
      </trkpt>
      <trkpt lat="45.98497" lon="6.27935">
        <ele>770</ele>
        <time>2016-10-02T15:45:11+02:00</time>
      </trkpt>
      <trkpt lat="45.98496" lon="6.27932">
        <ele>770</ele>
        <time>2016-10-02T15:45:12+02:00</time>
      </trkpt>
      <trkpt lat="45.98495" lon="6.2793">
        <ele>770</ele>
        <time>2016-10-02T15:45:14+02:00</time>
      </trkpt>
      <trkpt lat="45.98495" lon="6.27928">
        <ele>769</ele>
        <time>2016-10-02T15:45:15+02:00</time>
      </trkpt>
      <trkpt lat="45.98494" lon="6.27926">
        <ele>769</ele>
        <time>2016-10-02T15:45:16+02:00</time>
      </trkpt>
      <trkpt lat="45.98493" lon="6.27923">
        <ele>769</ele>
        <time>2016-10-02T15:45:18+02:00</time>
      </trkpt>
      <trkpt lat="45.98492" lon="6.27921">
        <ele>768</ele>
        <time>2016-10-02T15:45:19+02:00</time>
      </trkpt>
      <trkpt lat="45.98491" lon="6.27919">
        <ele>768</ele>
        <time>2016-10-02T15:45:21+02:00</time>
      </trkpt>
      <trkpt lat="45.9849" lon="6.27917">
        <ele>768</ele>
        <time>2016-10-02T15:45:22+02:00</time>
      </trkpt>
      <trkpt lat="45.98489" lon="6.27915">
        <ele>768</ele>
        <time>2016-10-02T15:45:24+02:00</time>
      </trkpt>
      <trkpt lat="45.98488" lon="6.27913">
        <ele>767</ele>
        <time>2016-10-02T15:45:25+02:00</time>
      </trkpt>
      <trkpt lat="45.98488" lon="6.27912">
        <ele>767</ele>
        <time>2016-10-02T15:45:25+02:00</time>
      </trkpt>
      <trkpt lat="45.98488" lon="6.2791">
        <ele>767</ele>
        <time>2016-10-02T15:45:26+02:00</time>
      </trkpt>
      <trkpt lat="45.98488" lon="6.27909">
        <ele>767</ele>
        <time>2016-10-02T15:45:27+02:00</time>
      </trkpt>
      <trkpt lat="45.98488" lon="6.27909">
        <ele>767</ele>
        <time>2016-10-02T15:45:27+02:00</time>
      </trkpt>
      <trkpt lat="45.98488" lon="6.27908">
        <ele>767</ele>
        <time>2016-10-02T15:45:28+02:00</time>
      </trkpt>
      <trkpt lat="45.98488" lon="6.27907">
        <ele>767</ele>
        <time>2016-10-02T15:45:28+02:00</time>
      </trkpt>
      <trkpt lat="45.98488" lon="6.27906">
        <ele>767</ele>
        <time>2016-10-02T15:45:29+02:00</time>
      </trkpt>
      <trkpt lat="45.98489" lon="6.27906">
        <ele>767</ele>
        <time>2016-10-02T15:45:30+02:00</time>
      </trkpt>
      <trkpt lat="45.98489" lon="6.27906">
        <ele>767</ele>
        <time>2016-10-02T15:45:30+02:00</time>
      </trkpt>
      <trkpt lat="45.98489" lon="6.27905">
        <ele>767</ele>
        <time>2016-10-02T15:45:30+02:00</time>
      </trkpt>
      <trkpt lat="45.98489" lon="6.27905">
        <ele>767</ele>
        <time>2016-10-02T15:45:31+02:00</time>
      </trkpt>
      <trkpt lat="45.98489" lon="6.27904">
        <ele>767</ele>
        <time>2016-10-02T15:45:32+02:00</time>
      </trkpt>
      <trkpt lat="45.98488" lon="6.27903">
        <ele>766</ele>
        <time>2016-10-02T15:45:32+02:00</time>
      </trkpt>
      <trkpt lat="45.98488" lon="6.27903">
        <ele>766</ele>
        <time>2016-10-02T15:45:33+02:00</time>
      </trkpt>
      <trkpt lat="45.98487" lon="6.27902">
        <ele>766</ele>
        <time>2016-10-02T15:45:33+02:00</time>
      </trkpt>
      <trkpt lat="45.98487" lon="6.27901">
        <ele>766</ele>
        <time>2016-10-02T15:45:34+02:00</time>
      </trkpt>
      <trkpt lat="45.98486" lon="6.27899">
        <ele>766</ele>
        <time>2016-10-02T15:45:35+02:00</time>
      </trkpt>
      <trkpt lat="45.98487" lon="6.27898">
        <ele>766</ele>
        <time>2016-10-02T15:45:36+02:00</time>
      </trkpt>
      <trkpt lat="45.98487" lon="6.27896">
        <ele>766</ele>
        <time>2016-10-02T15:45:37+02:00</time>
      </trkpt>
      <trkpt lat="45.98488" lon="6.27895">
        <ele>766</ele>
        <time>2016-10-02T15:45:38+02:00</time>
      </trkpt>
      <trkpt lat="45.98488" lon="6.27894">
        <ele>766</ele>
        <time>2016-10-02T15:45:38+02:00</time>
      </trkpt>
      <trkpt lat="45.98489" lon="6.27893">
        <ele>766</ele>
        <time>2016-10-02T15:45:39+02:00</time>
      </trkpt>
      <trkpt lat="45.98489" lon="6.27892">
        <ele>765</ele>
        <time>2016-10-02T15:45:39+02:00</time>
      </trkpt>
      <trkpt lat="45.98488" lon="6.27891">
        <ele>765</ele>
        <time>2016-10-02T15:45:40+02:00</time>
      </trkpt>
      <trkpt lat="45.98488" lon="6.2789">
        <ele>765</ele>
        <time>2016-10-02T15:45:41+02:00</time>
      </trkpt>
      <trkpt lat="45.98487" lon="6.27888">
        <ele>765</ele>
        <time>2016-10-02T15:45:42+02:00</time>
      </trkpt>
      <trkpt lat="45.98486" lon="6.27887">
        <ele>765</ele>
        <time>2016-10-02T15:45:43+02:00</time>
      </trkpt>
      <trkpt lat="45.98485" lon="6.27885">
        <ele>764</ele>
        <time>2016-10-02T15:45:44+02:00</time>
      </trkpt>
      <trkpt lat="45.98484" lon="6.27884">
        <ele>764</ele>
        <time>2016-10-02T15:45:45+02:00</time>
      </trkpt>
      <trkpt lat="45.98483" lon="6.27883">
        <ele>764</ele>
        <time>2016-10-02T15:45:46+02:00</time>
      </trkpt>
      <trkpt lat="45.98483" lon="6.27882">
        <ele>764</ele>
        <time>2016-10-02T15:45:47+02:00</time>
      </trkpt>
      <trkpt lat="45.98482" lon="6.27881">
        <ele>764</ele>
        <time>2016-10-02T15:45:48+02:00</time>
      </trkpt>
      <trkpt lat="45.98481" lon="6.2788">
        <ele>763</ele>
        <time>2016-10-02T15:45:49+02:00</time>
      </trkpt>
      <trkpt lat="45.9848" lon="6.27879">
        <ele>763</ele>
        <time>2016-10-02T15:45:49+02:00</time>
      </trkpt>
      <trkpt lat="45.98481" lon="6.27878">
        <ele>763</ele>
        <time>2016-10-02T15:45:50+02:00</time>
      </trkpt>
      <trkpt lat="45.98481" lon="6.27878">
        <ele>763</ele>
        <time>2016-10-02T15:45:50+02:00</time>
      </trkpt>
      <trkpt lat="45.98482" lon="6.27878">
        <ele>763</ele>
        <time>2016-10-02T15:45:51+02:00</time>
      </trkpt>
      <trkpt lat="45.98483" lon="6.27878">
        <ele>763</ele>
        <time>2016-10-02T15:45:52+02:00</time>
      </trkpt>
      <trkpt lat="45.98483" lon="6.27878">
        <ele>763</ele>
        <time>2016-10-02T15:45:52+02:00</time>
      </trkpt>
      <trkpt lat="45.98483" lon="6.27878">
        <ele>763</ele>
        <time>2016-10-02T15:45:52+02:00</time>
      </trkpt>
      <trkpt lat="45.98483" lon="6.27878">
        <ele>763</ele>
        <time>2016-10-02T15:45:52+02:00</time>
      </trkpt>
      <trkpt lat="45.98483" lon="6.27878">
        <ele>763</ele>
        <time>2016-10-02T15:45:52+02:00</time>
      </trkpt>
      <trkpt lat="45.98482" lon="6.27878">
        <ele>763</ele>
        <time>2016-10-02T15:45:53+02:00</time>
      </trkpt>
      <trkpt lat="45.98482" lon="6.27878">
        <ele>763</ele>
        <time>2016-10-02T15:45:53+02:00</time>
      </trkpt>
      <trkpt lat="45.98482" lon="6.27879">
        <ele>763</ele>
        <time>2016-10-02T15:45:54+02:00</time>
      </trkpt>
      <trkpt lat="45.98482" lon="6.27879">
        <ele>763</ele>
        <time>2016-10-02T15:45:54+02:00</time>
      </trkpt>
      <trkpt lat="45.98482" lon="6.27879">
        <ele>763</ele>
        <time>2016-10-02T15:45:54+02:00</time>
      </trkpt>
      <trkpt lat="45.98482" lon="6.27879">
        <ele>763</ele>
        <time>2016-10-02T15:45:54+02:00</time>
      </trkpt>
      <trkpt lat="45.98482" lon="6.27879">
        <ele>763</ele>
        <time>2016-10-02T15:45:55+02:00</time>
      </trkpt>
      <trkpt lat="45.98481" lon="6.27879">
        <ele>763</ele>
        <time>2016-10-02T15:45:55+02:00</time>
      </trkpt>
      <trkpt lat="45.98481" lon="6.27879">
        <ele>763</ele>
        <time>2016-10-02T15:45:55+02:00</time>
      </trkpt>
      <trkpt lat="45.9848" lon="6.27879">
        <ele>763</ele>
        <time>2016-10-02T15:45:56+02:00</time>
      </trkpt>
      <trkpt lat="45.9848" lon="6.27879">
        <ele>763</ele>
        <time>2016-10-02T15:45:56+02:00</time>
      </trkpt>
      <trkpt lat="45.98479" lon="6.27879">
        <ele>763</ele>
        <time>2016-10-02T15:45:57+02:00</time>
      </trkpt>
      <trkpt lat="45.98479" lon="6.27878">
        <ele>763</ele>
        <time>2016-10-02T15:45:57+02:00</time>
      </trkpt>
      <trkpt lat="45.98479" lon="6.27878">
        <ele>763</ele>
        <time>2016-10-02T15:45:57+02:00</time>
      </trkpt>
      <trkpt lat="45.98479" lon="6.27878">
        <ele>763</ele>
        <time>2016-10-02T15:45:58+02:00</time>
      </trkpt>
      <trkpt lat="45.98478" lon="6.27877">
        <ele>763</ele>
        <time>2016-10-02T15:45:58+02:00</time>
      </trkpt>
      <trkpt lat="45.98478" lon="6.27877">
        <ele>763</ele>
        <time>2016-10-02T15:45:58+02:00</time>
      </trkpt>
      <trkpt lat="45.98478" lon="6.27877">
        <ele>763</ele>
        <time>2016-10-02T15:45:59+02:00</time>
      </trkpt>
      <trkpt lat="45.98479" lon="6.27877">
        <ele>763</ele>
        <time>2016-10-02T15:45:59+02:00</time>
      </trkpt>
      <trkpt lat="45.98479" lon="6.27877">
        <ele>763</ele>
        <time>2016-10-02T15:46:00+02:00</time>
      </trkpt>
      <trkpt lat="45.98478" lon="6.27876">
        <ele>763</ele>
        <time>2016-10-02T15:46:00+02:00</time>
      </trkpt>
      <trkpt lat="45.98478" lon="6.27875">
        <ele>763</ele>
        <time>2016-10-02T15:46:01+02:00</time>
      </trkpt>
      <trkpt lat="45.98478" lon="6.27874">
        <ele>763</ele>
        <time>2016-10-02T15:46:01+02:00</time>
      </trkpt>
      <trkpt lat="45.98478" lon="6.27873">
        <ele>762</ele>
        <time>2016-10-02T15:46:02+02:00</time>
      </trkpt>
      <trkpt lat="45.98478" lon="6.27872">
        <ele>762</ele>
        <time>2016-10-02T15:46:03+02:00</time>
      </trkpt>
      <trkpt lat="45.98478" lon="6.2787">
        <ele>762</ele>
        <time>2016-10-02T15:46:04+02:00</time>
      </trkpt>
      <trkpt lat="45.98478" lon="6.27868">
        <ele>762</ele>
        <time>2016-10-02T15:46:05+02:00</time>
      </trkpt>
      <trkpt lat="45.98477" lon="6.27866">
        <ele>762</ele>
        <time>2016-10-02T15:46:06+02:00</time>
      </trkpt>
      <trkpt lat="45.98477" lon="6.27864">
        <ele>761</ele>
        <time>2016-10-02T15:46:07+02:00</time>
      </trkpt>
      <trkpt lat="45.98477" lon="6.27862">
        <ele>761</ele>
        <time>2016-10-02T15:46:08+02:00</time>
      </trkpt>
      <trkpt lat="45.98476" lon="6.2786">
        <ele>761</ele>
        <time>2016-10-02T15:46:09+02:00</time>
      </trkpt>
      <trkpt lat="45.98476" lon="6.27858">
        <ele>761</ele>
        <time>2016-10-02T15:46:10+02:00</time>
      </trkpt>
      <trkpt lat="45.98476" lon="6.27856">
        <ele>761</ele>
        <time>2016-10-02T15:46:12+02:00</time>
      </trkpt>
      <trkpt lat="45.98475" lon="6.27854">
        <ele>760</ele>
        <time>2016-10-02T15:46:13+02:00</time>
      </trkpt>
      <trkpt lat="45.98475" lon="6.27852">
        <ele>760</ele>
        <time>2016-10-02T15:46:14+02:00</time>
      </trkpt>
      <trkpt lat="45.98475" lon="6.2785">
        <ele>760</ele>
        <time>2016-10-02T15:46:15+02:00</time>
      </trkpt>
      <trkpt lat="45.98474" lon="6.27848">
        <ele>760</ele>
        <time>2016-10-02T15:46:16+02:00</time>
      </trkpt>
      <trkpt lat="45.98474" lon="6.27847">
        <ele>759</ele>
        <time>2016-10-02T15:46:17+02:00</time>
      </trkpt>
      <trkpt lat="45.98473" lon="6.27845">
        <ele>759</ele>
        <time>2016-10-02T15:46:18+02:00</time>
      </trkpt>
      <trkpt lat="45.98472" lon="6.27843">
        <ele>759</ele>
        <time>2016-10-02T15:46:20+02:00</time>
      </trkpt>
      <trkpt lat="45.98471" lon="6.27842">
        <ele>759</ele>
        <time>2016-10-02T15:46:21+02:00</time>
      </trkpt>
      <trkpt lat="45.9847" lon="6.27841">
        <ele>758</ele>
        <time>2016-10-02T15:46:22+02:00</time>
      </trkpt>
      <trkpt lat="45.98468" lon="6.2784">
        <ele>758</ele>
        <time>2016-10-02T15:46:23+02:00</time>
      </trkpt>
      <trkpt lat="45.98467" lon="6.27839">
        <ele>758</ele>
        <time>2016-10-02T15:46:24+02:00</time>
      </trkpt>
      <trkpt lat="45.98465" lon="6.27838">
        <ele>758</ele>
        <time>2016-10-02T15:46:26+02:00</time>
      </trkpt>
      <trkpt lat="45.98464" lon="6.27837">
        <ele>757</ele>
        <time>2016-10-02T15:46:27+02:00</time>
      </trkpt>
      <trkpt lat="45.98462" lon="6.27836">
        <ele>757</ele>
        <time>2016-10-02T15:46:29+02:00</time>
      </trkpt>
      <trkpt lat="45.98461" lon="6.27835">
        <ele>757</ele>
        <time>2016-10-02T15:46:30+02:00</time>
      </trkpt>
      <trkpt lat="45.9846" lon="6.27834">
        <ele>757</ele>
        <time>2016-10-02T15:46:31+02:00</time>
      </trkpt>
      <trkpt lat="45.98458" lon="6.27832">
        <ele>756</ele>
        <time>2016-10-02T15:46:33+02:00</time>
      </trkpt>
      <trkpt lat="45.98457" lon="6.27831">
        <ele>756</ele>
        <time>2016-10-02T15:46:34+02:00</time>
      </trkpt>
      <trkpt lat="45.98455" lon="6.2783">
        <ele>756</ele>
        <time>2016-10-02T15:46:36+02:00</time>
      </trkpt>
      <trkpt lat="45.98454" lon="6.27829">
        <ele>756</ele>
        <time>2016-10-02T15:46:37+02:00</time>
      </trkpt>
      <trkpt lat="45.98453" lon="6.27828">
        <ele>755</ele>
        <time>2016-10-02T15:46:38+02:00</time>
      </trkpt>
      <trkpt lat="45.98451" lon="6.27827">
        <ele>755</ele>
        <time>2016-10-02T15:46:40+02:00</time>
      </trkpt>
      <trkpt lat="45.9845" lon="6.27825">
        <ele>755</ele>
        <time>2016-10-02T15:46:41+02:00</time>
      </trkpt>
      <trkpt lat="45.98448" lon="6.27823">
        <ele>754</ele>
        <time>2016-10-02T15:46:43+02:00</time>
      </trkpt>
      <trkpt lat="45.98446" lon="6.27822">
        <ele>754</ele>
        <time>2016-10-02T15:46:44+02:00</time>
      </trkpt>
      <trkpt lat="45.98445" lon="6.27821">
        <ele>754</ele>
        <time>2016-10-02T15:46:46+02:00</time>
      </trkpt>
      <trkpt lat="45.98443" lon="6.2782">
        <ele>753</ele>
        <time>2016-10-02T15:46:47+02:00</time>
      </trkpt>
      <trkpt lat="45.98442" lon="6.27819">
        <ele>753</ele>
        <time>2016-10-02T15:46:49+02:00</time>
      </trkpt>
      <trkpt lat="45.9844" lon="6.27818">
        <ele>753</ele>
        <time>2016-10-02T15:46:50+02:00</time>
      </trkpt>
      <trkpt lat="45.98438" lon="6.27816">
        <ele>752</ele>
        <time>2016-10-02T15:46:52+02:00</time>
      </trkpt>
      <trkpt lat="45.98437" lon="6.27814">
        <ele>752</ele>
        <time>2016-10-02T15:46:54+02:00</time>
      </trkpt>
      <trkpt lat="45.98435" lon="6.27812">
        <ele>752</ele>
        <time>2016-10-02T15:46:55+02:00</time>
      </trkpt>
      <trkpt lat="45.98434" lon="6.2781">
        <ele>751</ele>
        <time>2016-10-02T15:46:57+02:00</time>
      </trkpt>
      <trkpt lat="45.98432" lon="6.27807">
        <ele>751</ele>
        <time>2016-10-02T15:47:00+02:00</time>
      </trkpt>
      <trkpt lat="45.98431" lon="6.27804">
        <ele>750</ele>
        <time>2016-10-02T15:47:02+02:00</time>
      </trkpt>
      <trkpt lat="45.9843" lon="6.278">
        <ele>750</ele>
        <time>2016-10-02T15:47:04+02:00</time>
      </trkpt>
      <trkpt lat="45.98429" lon="6.27797">
        <ele>749</ele>
        <time>2016-10-02T15:47:06+02:00</time>
      </trkpt>
      <trkpt lat="45.98429" lon="6.27794">
        <ele>749</ele>
        <time>2016-10-02T15:47:08+02:00</time>
      </trkpt>
      <trkpt lat="45.98429" lon="6.2779">
        <ele>749</ele>
        <time>2016-10-02T15:47:10+02:00</time>
      </trkpt>
      <trkpt lat="45.98429" lon="6.27786">
        <ele>748</ele>
        <time>2016-10-02T15:47:13+02:00</time>
      </trkpt>
      <trkpt lat="45.98429" lon="6.27782">
        <ele>748</ele>
        <time>2016-10-02T15:47:15+02:00</time>
      </trkpt>
      <trkpt lat="45.98429" lon="6.27779">
        <ele>747</ele>
        <time>2016-10-02T15:47:17+02:00</time>
      </trkpt>
      <trkpt lat="45.98428" lon="6.27777">
        <ele>747</ele>
        <time>2016-10-02T15:47:18+02:00</time>
      </trkpt>
      <trkpt lat="45.98426" lon="6.27774">
        <ele>747</ele>
        <time>2016-10-02T15:47:20+02:00</time>
      </trkpt>
      <trkpt lat="45.98424" lon="6.27772">
        <ele>746</ele>
        <time>2016-10-02T15:47:23+02:00</time>
      </trkpt>
      <trkpt lat="45.98421" lon="6.2777">
        <ele>746</ele>
        <time>2016-10-02T15:47:25+02:00</time>
      </trkpt>
      <trkpt lat="45.98419" lon="6.27768">
        <ele>745</ele>
        <time>2016-10-02T15:47:27+02:00</time>
      </trkpt>
      <trkpt lat="45.98417" lon="6.27768">
        <ele>745</ele>
        <time>2016-10-02T15:47:29+02:00</time>
      </trkpt>
      <trkpt lat="45.98415" lon="6.27767">
        <ele>745</ele>
        <time>2016-10-02T15:47:31+02:00</time>
      </trkpt>
      <trkpt lat="45.98412" lon="6.27766">
        <ele>744</ele>
        <time>2016-10-02T15:47:33+02:00</time>
      </trkpt>
      <trkpt lat="45.9841" lon="6.27765">
        <ele>744</ele>
        <time>2016-10-02T15:47:35+02:00</time>
      </trkpt>
      <trkpt lat="45.98408" lon="6.27764">
        <ele>744</ele>
        <time>2016-10-02T15:47:37+02:00</time>
      </trkpt>
      <trkpt lat="45.98405" lon="6.27763">
        <ele>743</ele>
        <time>2016-10-02T15:47:39+02:00</time>
      </trkpt>
      <trkpt lat="45.98403" lon="6.27761">
        <ele>743</ele>
        <time>2016-10-02T15:47:41+02:00</time>
      </trkpt>
      <trkpt lat="45.98401" lon="6.27758">
        <ele>742</ele>
        <time>2016-10-02T15:47:44+02:00</time>
      </trkpt>
      <trkpt lat="45.98399" lon="6.27755">
        <ele>742</ele>
        <time>2016-10-02T15:47:46+02:00</time>
      </trkpt>
      <trkpt lat="45.98397" lon="6.27752">
        <ele>741</ele>
        <time>2016-10-02T15:47:48+02:00</time>
      </trkpt>
      <trkpt lat="45.98395" lon="6.27748">
        <ele>741</ele>
        <time>2016-10-02T15:47:51+02:00</time>
      </trkpt>
      <trkpt lat="45.98394" lon="6.27745">
        <ele>740</ele>
        <time>2016-10-02T15:47:53+02:00</time>
      </trkpt>
      <trkpt lat="45.98392" lon="6.27741">
        <ele>739</ele>
        <time>2016-10-02T15:47:56+02:00</time>
      </trkpt>
      <trkpt lat="45.98391" lon="6.27737">
        <ele>739</ele>
        <time>2016-10-02T15:47:58+02:00</time>
      </trkpt>
      <trkpt lat="45.9839" lon="6.27734">
        <ele>738</ele>
        <time>2016-10-02T15:48:00+02:00</time>
      </trkpt>
      <trkpt lat="45.98389" lon="6.27731">
        <ele>738</ele>
        <time>2016-10-02T15:48:02+02:00</time>
      </trkpt>
      <trkpt lat="45.98388" lon="6.27728">
        <ele>737</ele>
        <time>2016-10-02T15:48:04+02:00</time>
      </trkpt>
      <trkpt lat="45.98387" lon="6.27724">
        <ele>737</ele>
        <time>2016-10-02T15:48:06+02:00</time>
      </trkpt>
      <trkpt lat="45.98385" lon="6.27722">
        <ele>736</ele>
        <time>2016-10-02T15:48:09+02:00</time>
      </trkpt>
      <trkpt lat="45.98383" lon="6.27719">
        <ele>735</ele>
        <time>2016-10-02T15:48:11+02:00</time>
      </trkpt>
      <trkpt lat="45.98381" lon="6.27717">
        <ele>735</ele>
        <time>2016-10-02T15:48:13+02:00</time>
      </trkpt>
      <trkpt lat="45.98379" lon="6.27714">
        <ele>734</ele>
        <time>2016-10-02T15:48:15+02:00</time>
      </trkpt>
      <trkpt lat="45.98378" lon="6.27711">
        <ele>734</ele>
        <time>2016-10-02T15:48:17+02:00</time>
      </trkpt>
      <trkpt lat="45.98376" lon="6.27708">
        <ele>733</ele>
        <time>2016-10-02T15:48:19+02:00</time>
      </trkpt>
      <trkpt lat="45.98375" lon="6.27705">
        <ele>733</ele>
        <time>2016-10-02T15:48:21+02:00</time>
      </trkpt>
      <trkpt lat="45.98374" lon="6.27702">
        <ele>732</ele>
        <time>2016-10-02T15:48:23+02:00</time>
      </trkpt>
      <trkpt lat="45.98373" lon="6.27698">
        <ele>732</ele>
        <time>2016-10-02T15:48:26+02:00</time>
      </trkpt>
      <trkpt lat="45.98372" lon="6.27695">
        <ele>731</ele>
        <time>2016-10-02T15:48:28+02:00</time>
      </trkpt>
      <trkpt lat="45.98372" lon="6.27691">
        <ele>731</ele>
        <time>2016-10-02T15:48:30+02:00</time>
      </trkpt>
      <trkpt lat="45.98371" lon="6.27687">
        <ele>730</ele>
        <time>2016-10-02T15:48:32+02:00</time>
      </trkpt>
      <trkpt lat="45.98371" lon="6.27683">
        <ele>729</ele>
        <time>2016-10-02T15:48:34+02:00</time>
      </trkpt>
      <trkpt lat="45.9837" lon="6.27679">
        <ele>729</ele>
        <time>2016-10-02T15:48:37+02:00</time>
      </trkpt>
      <trkpt lat="45.9837" lon="6.27675">
        <ele>728</ele>
        <time>2016-10-02T15:48:39+02:00</time>
      </trkpt>
      <trkpt lat="45.98369" lon="6.27671">
        <ele>728</ele>
        <time>2016-10-02T15:48:41+02:00</time>
      </trkpt>
      <trkpt lat="45.98368" lon="6.27667">
        <ele>727</ele>
        <time>2016-10-02T15:48:44+02:00</time>
      </trkpt>
      <trkpt lat="45.98368" lon="6.27663">
        <ele>726</ele>
        <time>2016-10-02T15:48:46+02:00</time>
      </trkpt>
      <trkpt lat="45.98367" lon="6.27659">
        <ele>726</ele>
        <time>2016-10-02T15:48:48+02:00</time>
      </trkpt>
      <trkpt lat="45.98366" lon="6.27655">
        <ele>725</ele>
        <time>2016-10-02T15:48:51+02:00</time>
      </trkpt>
      <trkpt lat="45.98365" lon="6.27652">
        <ele>724</ele>
        <time>2016-10-02T15:48:53+02:00</time>
      </trkpt>
      <trkpt lat="45.98364" lon="6.27648">
        <ele>724</ele>
        <time>2016-10-02T15:48:55+02:00</time>
      </trkpt>
      <trkpt lat="45.98363" lon="6.27645">
        <ele>723</ele>
        <time>2016-10-02T15:48:57+02:00</time>
      </trkpt>
      <trkpt lat="45.98362" lon="6.27642">
        <ele>723</ele>
        <time>2016-10-02T15:48:59+02:00</time>
      </trkpt>
      <trkpt lat="45.9836" lon="6.27639">
        <ele>722</ele>
        <time>2016-10-02T15:49:01+02:00</time>
      </trkpt>
      <trkpt lat="45.98359" lon="6.27636">
        <ele>722</ele>
        <time>2016-10-02T15:49:03+02:00</time>
      </trkpt>
      <trkpt lat="45.98357" lon="6.27633">
        <ele>721</ele>
        <time>2016-10-02T15:49:05+02:00</time>
      </trkpt>
      <trkpt lat="45.98356" lon="6.2763">
        <ele>720</ele>
        <time>2016-10-02T15:49:07+02:00</time>
      </trkpt>
      <trkpt lat="45.98354" lon="6.27628">
        <ele>720</ele>
        <time>2016-10-02T15:49:10+02:00</time>
      </trkpt>
      <trkpt lat="45.98352" lon="6.27625">
        <ele>719</ele>
        <time>2016-10-02T15:49:12+02:00</time>
      </trkpt>
      <trkpt lat="45.9835" lon="6.27622">
        <ele>719</ele>
        <time>2016-10-02T15:49:14+02:00</time>
      </trkpt>
      <trkpt lat="45.98348" lon="6.27619">
        <ele>718</ele>
        <time>2016-10-02T15:49:17+02:00</time>
      </trkpt>
      <trkpt lat="45.98345" lon="6.27615">
        <ele>717</ele>
        <time>2016-10-02T15:49:19+02:00</time>
      </trkpt>
      <trkpt lat="45.98344" lon="6.27613">
        <ele>717</ele>
        <time>2016-10-02T15:49:21+02:00</time>
      </trkpt>
      <trkpt lat="45.98342" lon="6.2761">
        <ele>716</ele>
        <time>2016-10-02T15:49:24+02:00</time>
      </trkpt>
      <trkpt lat="45.9834" lon="6.27606">
        <ele>716</ele>
        <time>2016-10-02T15:49:26+02:00</time>
      </trkpt>
      <trkpt lat="45.98338" lon="6.27603">
        <ele>715</ele>
        <time>2016-10-02T15:49:28+02:00</time>
      </trkpt>
      <trkpt lat="45.98337" lon="6.27599">
        <ele>714</ele>
        <time>2016-10-02T15:49:31+02:00</time>
      </trkpt>
      <trkpt lat="45.98335" lon="6.27595">
        <ele>714</ele>
        <time>2016-10-02T15:49:33+02:00</time>
      </trkpt>
      <trkpt lat="45.98334" lon="6.27592">
        <ele>713</ele>
        <time>2016-10-02T15:49:36+02:00</time>
      </trkpt>
      <trkpt lat="45.98334" lon="6.27588">
        <ele>713</ele>
        <time>2016-10-02T15:49:38+02:00</time>
      </trkpt>
      <trkpt lat="45.98334" lon="6.27584">
        <ele>712</ele>
        <time>2016-10-02T15:49:40+02:00</time>
      </trkpt>
      <trkpt lat="45.98333" lon="6.2758">
        <ele>711</ele>
        <time>2016-10-02T15:49:42+02:00</time>
      </trkpt>
      <trkpt lat="45.98333" lon="6.27576">
        <ele>711</ele>
        <time>2016-10-02T15:49:44+02:00</time>
      </trkpt>
      <trkpt lat="45.98334" lon="6.27573">
        <ele>710</ele>
        <time>2016-10-02T15:49:46+02:00</time>
      </trkpt>
      <trkpt lat="45.98335" lon="6.27569">
        <ele>710</ele>
        <time>2016-10-02T15:49:49+02:00</time>
      </trkpt>
      <trkpt lat="45.98338" lon="6.27565">
        <ele>709</ele>
        <time>2016-10-02T15:49:52+02:00</time>
      </trkpt>
      <trkpt lat="45.98341" lon="6.27562">
        <ele>709</ele>
        <time>2016-10-02T15:49:55+02:00</time>
      </trkpt>
      <trkpt lat="45.98343" lon="6.27559">
        <ele>708</ele>
        <time>2016-10-02T15:49:57+02:00</time>
      </trkpt>
      <trkpt lat="45.98346" lon="6.27557">
        <ele>708</ele>
        <time>2016-10-02T15:49:59+02:00</time>
      </trkpt>
      <trkpt lat="45.98348" lon="6.27555">
        <ele>708</ele>
        <time>2016-10-02T15:50:02+02:00</time>
      </trkpt>
      <trkpt lat="45.9835" lon="6.27552">
        <ele>708</ele>
        <time>2016-10-02T15:50:04+02:00</time>
      </trkpt>
      <trkpt lat="45.98352" lon="6.2755">
        <ele>707</ele>
        <time>2016-10-02T15:50:06+02:00</time>
      </trkpt>
      <trkpt lat="45.98354" lon="6.27548">
        <ele>707</ele>
        <time>2016-10-02T15:50:08+02:00</time>
      </trkpt>
      <trkpt lat="45.98356" lon="6.27546">
        <ele>707</ele>
        <time>2016-10-02T15:50:10+02:00</time>
      </trkpt>
      <trkpt lat="45.98358" lon="6.27543">
        <ele>706</ele>
        <time>2016-10-02T15:50:12+02:00</time>
      </trkpt>
      <trkpt lat="45.98361" lon="6.27541">
        <ele>706</ele>
        <time>2016-10-02T15:50:14+02:00</time>
      </trkpt>
      <trkpt lat="45.98363" lon="6.2754">
        <ele>706</ele>
        <time>2016-10-02T15:50:16+02:00</time>
      </trkpt>
      <trkpt lat="45.98365" lon="6.27538">
        <ele>706</ele>
        <time>2016-10-02T15:50:19+02:00</time>
      </trkpt>
      <trkpt lat="45.98368" lon="6.27536">
        <ele>706</ele>
        <time>2016-10-02T15:50:21+02:00</time>
      </trkpt>
      <trkpt lat="45.9837" lon="6.27534">
        <ele>705</ele>
        <time>2016-10-02T15:50:23+02:00</time>
      </trkpt>
      <trkpt lat="45.98372" lon="6.27532">
        <ele>705</ele>
        <time>2016-10-02T15:50:25+02:00</time>
      </trkpt>
      <trkpt lat="45.98374" lon="6.27529">
        <ele>705</ele>
        <time>2016-10-02T15:50:27+02:00</time>
      </trkpt>
      <trkpt lat="45.98377" lon="6.27527">
        <ele>704</ele>
        <time>2016-10-02T15:50:30+02:00</time>
      </trkpt>
      <trkpt lat="45.98379" lon="6.27525">
        <ele>704</ele>
        <time>2016-10-02T15:50:32+02:00</time>
      </trkpt>
      <trkpt lat="45.98381" lon="6.27523">
        <ele>704</ele>
        <time>2016-10-02T15:50:34+02:00</time>
      </trkpt>
      <trkpt lat="45.98384" lon="6.27521">
        <ele>704</ele>
        <time>2016-10-02T15:50:36+02:00</time>
      </trkpt>
      <trkpt lat="45.98386" lon="6.27519">
        <ele>703</ele>
        <time>2016-10-02T15:50:38+02:00</time>
      </trkpt>
      <trkpt lat="45.98389" lon="6.27518">
        <ele>703</ele>
        <time>2016-10-02T15:50:41+02:00</time>
      </trkpt>
      <trkpt lat="45.98391" lon="6.27516">
        <ele>703</ele>
        <time>2016-10-02T15:50:43+02:00</time>
      </trkpt>
      <trkpt lat="45.98393" lon="6.27514">
        <ele>703</ele>
        <time>2016-10-02T15:50:45+02:00</time>
      </trkpt>
      <trkpt lat="45.98396" lon="6.27512">
        <ele>702</ele>
        <time>2016-10-02T15:50:48+02:00</time>
      </trkpt>
      <trkpt lat="45.98398" lon="6.2751">
        <ele>702</ele>
        <time>2016-10-02T15:50:50+02:00</time>
      </trkpt>
      <trkpt lat="45.98401" lon="6.27508">
        <ele>702</ele>
        <time>2016-10-02T15:50:52+02:00</time>
      </trkpt>
      <trkpt lat="45.98403" lon="6.27506">
        <ele>702</ele>
        <time>2016-10-02T15:50:54+02:00</time>
      </trkpt>
      <trkpt lat="45.98406" lon="6.27504">
        <ele>701</ele>
        <time>2016-10-02T15:50:57+02:00</time>
      </trkpt>
      <trkpt lat="45.98408" lon="6.27502">
        <ele>701</ele>
        <time>2016-10-02T15:50:59+02:00</time>
      </trkpt>
      <trkpt lat="45.98411" lon="6.27501">
        <ele>701</ele>
        <time>2016-10-02T15:51:01+02:00</time>
      </trkpt>
      <trkpt lat="45.98413" lon="6.27499">
        <ele>701</ele>
        <time>2016-10-02T15:51:03+02:00</time>
      </trkpt>
      <trkpt lat="45.98416" lon="6.27497">
        <ele>700</ele>
        <time>2016-10-02T15:51:06+02:00</time>
      </trkpt>
      <trkpt lat="45.98418" lon="6.27495">
        <ele>701</ele>
        <time>2016-10-02T15:51:08+02:00</time>
      </trkpt>
      <trkpt lat="45.98421" lon="6.27494">
        <ele>701</ele>
        <time>2016-10-02T15:51:10+02:00</time>
      </trkpt>
      <trkpt lat="45.98423" lon="6.27492">
        <ele>701</ele>
        <time>2016-10-02T15:51:13+02:00</time>
      </trkpt>
      <trkpt lat="45.98426" lon="6.27491">
        <ele>702</ele>
        <time>2016-10-02T15:51:15+02:00</time>
      </trkpt>
      <trkpt lat="45.98429" lon="6.2749">
        <ele>702</ele>
        <time>2016-10-02T15:51:17+02:00</time>
      </trkpt>
      <trkpt lat="45.98432" lon="6.2749">
        <ele>703</ele>
        <time>2016-10-02T15:51:20+02:00</time>
      </trkpt>
      <trkpt lat="45.98435" lon="6.27489">
        <ele>704</ele>
        <time>2016-10-02T15:51:22+02:00</time>
      </trkpt>
      <trkpt lat="45.98437" lon="6.27489">
        <ele>704</ele>
        <time>2016-10-02T15:51:24+02:00</time>
      </trkpt>
      <trkpt lat="45.9844" lon="6.27488">
        <ele>705</ele>
        <time>2016-10-02T15:51:26+02:00</time>
      </trkpt>
      <trkpt lat="45.98443" lon="6.27488">
        <ele>705</ele>
        <time>2016-10-02T15:51:29+02:00</time>
      </trkpt>
      <trkpt lat="45.98446" lon="6.27489">
        <ele>706</ele>
        <time>2016-10-02T15:51:31+02:00</time>
      </trkpt>
      <trkpt lat="45.98448" lon="6.27491">
        <ele>707</ele>
        <time>2016-10-02T15:51:33+02:00</time>
      </trkpt>
      <trkpt lat="45.98451" lon="6.27492">
        <ele>708</ele>
        <time>2016-10-02T15:51:36+02:00</time>
      </trkpt>
      <trkpt lat="45.98453" lon="6.27493">
        <ele>709</ele>
        <time>2016-10-02T15:51:37+02:00</time>
      </trkpt>
      <trkpt lat="45.98456" lon="6.27492">
        <ele>709</ele>
        <time>2016-10-02T15:51:39+02:00</time>
      </trkpt>
      <trkpt lat="45.98458" lon="6.27491">
        <ele>709</ele>
        <time>2016-10-02T15:51:41+02:00</time>
      </trkpt>
      <trkpt lat="45.9846" lon="6.2749">
        <ele>710</ele>
        <time>2016-10-02T15:51:43+02:00</time>
      </trkpt>
      <trkpt lat="45.98463" lon="6.27488">
        <ele>710</ele>
        <time>2016-10-02T15:51:45+02:00</time>
      </trkpt>
      <trkpt lat="45.98464" lon="6.27486">
        <ele>710</ele>
        <time>2016-10-02T15:51:47+02:00</time>
      </trkpt>
      <trkpt lat="45.98465" lon="6.27483">
        <ele>710</ele>
        <time>2016-10-02T15:51:49+02:00</time>
      </trkpt>
      <trkpt lat="45.98465" lon="6.2748">
        <ele>709</ele>
        <time>2016-10-02T15:51:51+02:00</time>
      </trkpt>
      <trkpt lat="45.98465" lon="6.27477">
        <ele>709</ele>
        <time>2016-10-02T15:51:52+02:00</time>
      </trkpt>
      <trkpt lat="45.98465" lon="6.27474">
        <ele>709</ele>
        <time>2016-10-02T15:51:54+02:00</time>
      </trkpt>
      <trkpt lat="45.98465" lon="6.27471">
        <ele>708</ele>
        <time>2016-10-02T15:51:56+02:00</time>
      </trkpt>
      <trkpt lat="45.98465" lon="6.27468">
        <ele>708</ele>
        <time>2016-10-02T15:51:58+02:00</time>
      </trkpt>
      <trkpt lat="45.98465" lon="6.27465">
        <ele>707</ele>
        <time>2016-10-02T15:51:59+02:00</time>
      </trkpt>
      <trkpt lat="45.98465" lon="6.27462">
        <ele>707</ele>
        <time>2016-10-02T15:52:01+02:00</time>
      </trkpt>
      <trkpt lat="45.98464" lon="6.2746">
        <ele>706</ele>
        <time>2016-10-02T15:52:02+02:00</time>
      </trkpt>
      <trkpt lat="45.98464" lon="6.27457">
        <ele>706</ele>
        <time>2016-10-02T15:52:04+02:00</time>
      </trkpt>
      <trkpt lat="45.98464" lon="6.27454">
        <ele>705</ele>
        <time>2016-10-02T15:52:06+02:00</time>
      </trkpt>
      <trkpt lat="45.98463" lon="6.2745">
        <ele>704</ele>
        <time>2016-10-02T15:52:08+02:00</time>
      </trkpt>
      <trkpt lat="45.98462" lon="6.27447">
        <ele>704</ele>
        <time>2016-10-02T15:52:10+02:00</time>
      </trkpt>
      <trkpt lat="45.98462" lon="6.27444">
        <ele>703</ele>
        <time>2016-10-02T15:52:12+02:00</time>
      </trkpt>
      <trkpt lat="45.9846" lon="6.27441">
        <ele>702</ele>
        <time>2016-10-02T15:52:14+02:00</time>
      </trkpt>
      <trkpt lat="45.98459" lon="6.27438">
        <ele>701</ele>
        <time>2016-10-02T15:52:16+02:00</time>
      </trkpt>
      <trkpt lat="45.98456" lon="6.27434">
        <ele>700</ele>
        <time>2016-10-02T15:52:19+02:00</time>
      </trkpt>
      <trkpt lat="45.98454" lon="6.27431">
        <ele>699</ele>
        <time>2016-10-02T15:52:21+02:00</time>
      </trkpt>
      <trkpt lat="45.98452" lon="6.27427">
        <ele>698</ele>
        <time>2016-10-02T15:52:24+02:00</time>
      </trkpt>
      <trkpt lat="45.9845" lon="6.27424">
        <ele>697</ele>
        <time>2016-10-02T15:52:27+02:00</time>
      </trkpt>
      <trkpt lat="45.98449" lon="6.2742">
        <ele>696</ele>
        <time>2016-10-02T15:52:29+02:00</time>
      </trkpt>
      <trkpt lat="45.98446" lon="6.27417">
        <ele>695</ele>
        <time>2016-10-02T15:52:32+02:00</time>
      </trkpt>
      <trkpt lat="45.98445" lon="6.27413">
        <ele>694</ele>
        <time>2016-10-02T15:52:34+02:00</time>
      </trkpt>
      <trkpt lat="45.98443" lon="6.2741">
        <ele>693</ele>
        <time>2016-10-02T15:52:36+02:00</time>
      </trkpt>
      <trkpt lat="45.98442" lon="6.27407">
        <ele>693</ele>
        <time>2016-10-02T15:52:38+02:00</time>
      </trkpt>
      <trkpt lat="45.98441" lon="6.27405">
        <ele>692</ele>
        <time>2016-10-02T15:52:40+02:00</time>
      </trkpt>
      <trkpt lat="45.9844" lon="6.27402">
        <ele>692</ele>
        <time>2016-10-02T15:52:41+02:00</time>
      </trkpt>
      <trkpt lat="45.98439" lon="6.274">
        <ele>691</ele>
        <time>2016-10-02T15:52:43+02:00</time>
      </trkpt>
      <trkpt lat="45.98438" lon="6.27398">
        <ele>691</ele>
        <time>2016-10-02T15:52:44+02:00</time>
      </trkpt>
      <trkpt lat="45.98437" lon="6.27396">
        <ele>690</ele>
        <time>2016-10-02T15:52:46+02:00</time>
      </trkpt>
      <trkpt lat="45.98436" lon="6.27393">
        <ele>689</ele>
        <time>2016-10-02T15:52:48+02:00</time>
      </trkpt>
      <trkpt lat="45.98435" lon="6.27392">
        <ele>689</ele>
        <time>2016-10-02T15:52:49+02:00</time>
      </trkpt>
      <trkpt lat="45.98436" lon="6.27393">
        <ele>689</ele>
        <time>2016-10-02T15:52:49+02:00</time>
      </trkpt>
      <trkpt lat="45.98436" lon="6.27393">
        <ele>689</ele>
        <time>2016-10-02T15:52:50+02:00</time>
      </trkpt>
      <trkpt lat="45.98435" lon="6.27391">
        <ele>689</ele>
        <time>2016-10-02T15:52:51+02:00</time>
      </trkpt>
      <trkpt lat="45.98434" lon="6.2739">
        <ele>689</ele>
        <time>2016-10-02T15:52:52+02:00</time>
      </trkpt>
      <trkpt lat="45.98434" lon="6.27388">
        <ele>688</ele>
        <time>2016-10-02T15:52:53+02:00</time>
      </trkpt>
      <trkpt lat="45.98433" lon="6.27385">
        <ele>688</ele>
        <time>2016-10-02T15:52:55+02:00</time>
      </trkpt>
      <trkpt lat="45.98432" lon="6.27382">
        <ele>687</ele>
        <time>2016-10-02T15:52:57+02:00</time>
      </trkpt>
      <trkpt lat="45.98431" lon="6.27379">
        <ele>686</ele>
        <time>2016-10-02T15:52:59+02:00</time>
      </trkpt>
      <trkpt lat="45.98429" lon="6.27375">
        <ele>686</ele>
        <time>2016-10-02T15:53:01+02:00</time>
      </trkpt>
      <trkpt lat="45.98427" lon="6.27372">
        <ele>685</ele>
        <time>2016-10-02T15:53:04+02:00</time>
      </trkpt>
      <trkpt lat="45.98424" lon="6.27369">
        <ele>684</ele>
        <time>2016-10-02T15:53:07+02:00</time>
      </trkpt>
      <trkpt lat="45.98422" lon="6.27365">
        <ele>683</ele>
        <time>2016-10-02T15:53:10+02:00</time>
      </trkpt>
      <trkpt lat="45.98419" lon="6.27362">
        <ele>682</ele>
        <time>2016-10-02T15:53:12+02:00</time>
      </trkpt>
      <trkpt lat="45.98417" lon="6.27359">
        <ele>681</ele>
        <time>2016-10-02T15:53:15+02:00</time>
      </trkpt>
      <trkpt lat="45.98415" lon="6.27356">
        <ele>681</ele>
        <time>2016-10-02T15:53:17+02:00</time>
      </trkpt>
      <trkpt lat="45.98413" lon="6.27353">
        <ele>680</ele>
        <time>2016-10-02T15:53:20+02:00</time>
      </trkpt>
      <trkpt lat="45.9841" lon="6.2735">
        <ele>679</ele>
        <time>2016-10-02T15:53:22+02:00</time>
      </trkpt>
      <trkpt lat="45.98408" lon="6.27346">
        <ele>679</ele>
        <time>2016-10-02T15:53:25+02:00</time>
      </trkpt>
      <trkpt lat="45.98406" lon="6.27341">
        <ele>678</ele>
        <time>2016-10-02T15:53:28+02:00</time>
      </trkpt>
      <trkpt lat="45.98405" lon="6.27337">
        <ele>677</ele>
        <time>2016-10-02T15:53:31+02:00</time>
      </trkpt>
      <trkpt lat="45.98403" lon="6.27333">
        <ele>677</ele>
        <time>2016-10-02T15:53:34+02:00</time>
      </trkpt>
      <trkpt lat="45.98401" lon="6.27329">
        <ele>676</ele>
        <time>2016-10-02T15:53:36+02:00</time>
      </trkpt>
      <trkpt lat="45.984" lon="6.27325">
        <ele>676</ele>
        <time>2016-10-02T15:53:39+02:00</time>
      </trkpt>
      <trkpt lat="45.98399" lon="6.27322">
        <ele>675</ele>
        <time>2016-10-02T15:53:41+02:00</time>
      </trkpt>
      <trkpt lat="45.98398" lon="6.2732">
        <ele>675</ele>
        <time>2016-10-02T15:53:42+02:00</time>
      </trkpt>
      <trkpt lat="45.98398" lon="6.27318">
        <ele>675</ele>
        <time>2016-10-02T15:53:43+02:00</time>
      </trkpt>
      <trkpt lat="45.98398" lon="6.27317">
        <ele>675</ele>
        <time>2016-10-02T15:53:44+02:00</time>
      </trkpt>
      <trkpt lat="45.98397" lon="6.27315">
        <ele>674</ele>
        <time>2016-10-02T15:53:46+02:00</time>
      </trkpt>
      <trkpt lat="45.98396" lon="6.27314">
        <ele>674</ele>
        <time>2016-10-02T15:53:47+02:00</time>
      </trkpt>
      <trkpt lat="45.98395" lon="6.27313">
        <ele>674</ele>
        <time>2016-10-02T15:53:47+02:00</time>
      </trkpt>
      <trkpt lat="45.98394" lon="6.27312">
        <ele>674</ele>
        <time>2016-10-02T15:53:48+02:00</time>
      </trkpt>
      <trkpt lat="45.98394" lon="6.27312">
        <ele>674</ele>
        <time>2016-10-02T15:53:49+02:00</time>
      </trkpt>
      <trkpt lat="45.98393" lon="6.27312">
        <ele>674</ele>
        <time>2016-10-02T15:53:50+02:00</time>
      </trkpt>
      <trkpt lat="45.98392" lon="6.27312">
        <ele>674</ele>
        <time>2016-10-02T15:53:50+02:00</time>
      </trkpt>
      <trkpt lat="45.98391" lon="6.27312">
        <ele>674</ele>
        <time>2016-10-02T15:53:52+02:00</time>
      </trkpt>
      <trkpt lat="45.98389" lon="6.27312">
        <ele>673</ele>
        <time>2016-10-02T15:53:53+02:00</time>
      </trkpt>
      <trkpt lat="45.98388" lon="6.27312">
        <ele>673</ele>
        <time>2016-10-02T15:53:54+02:00</time>
      </trkpt>
      <trkpt lat="45.98387" lon="6.27311">
        <ele>673</ele>
        <time>2016-10-02T15:53:55+02:00</time>
      </trkpt>
      <trkpt lat="45.98386" lon="6.2731">
        <ele>673</ele>
        <time>2016-10-02T15:53:56+02:00</time>
      </trkpt>
      <trkpt lat="45.98385" lon="6.27308">
        <ele>673</ele>
        <time>2016-10-02T15:53:57+02:00</time>
      </trkpt>
      <trkpt lat="45.98384" lon="6.27307">
        <ele>673</ele>
        <time>2016-10-02T15:53:58+02:00</time>
      </trkpt>
      <trkpt lat="45.98384" lon="6.27307">
        <ele>673</ele>
        <time>2016-10-02T15:53:59+02:00</time>
      </trkpt>
      <trkpt lat="45.98383" lon="6.27307">
        <ele>673</ele>
        <time>2016-10-02T15:53:59+02:00</time>
      </trkpt>
      <trkpt lat="45.98383" lon="6.27308">
        <ele>673</ele>
        <time>2016-10-02T15:54:00+02:00</time>
      </trkpt>
      <trkpt lat="45.98382" lon="6.27308">
        <ele>672</ele>
        <time>2016-10-02T15:54:00+02:00</time>
      </trkpt>
      <trkpt lat="45.98381" lon="6.27308">
        <ele>672</ele>
        <time>2016-10-02T15:54:01+02:00</time>
      </trkpt>
      <trkpt lat="45.9838" lon="6.27307">
        <ele>672</ele>
        <time>2016-10-02T15:54:02+02:00</time>
      </trkpt>
      <trkpt lat="45.98379" lon="6.27305">
        <ele>672</ele>
        <time>2016-10-02T15:54:04+02:00</time>
      </trkpt>
      <trkpt lat="45.98376" lon="6.27304">
        <ele>672</ele>
        <time>2016-10-02T15:54:06+02:00</time>
      </trkpt>
      <trkpt lat="45.98374" lon="6.27303">
        <ele>671</ele>
        <time>2016-10-02T15:54:08+02:00</time>
      </trkpt>
      <trkpt lat="45.98371" lon="6.27303">
        <ele>671</ele>
        <time>2016-10-02T15:54:10+02:00</time>
      </trkpt>
      <trkpt lat="45.9837" lon="6.27303">
        <ele>671</ele>
        <time>2016-10-02T15:54:11+02:00</time>
      </trkpt>
      <trkpt lat="45.98368" lon="6.27302">
        <ele>671</ele>
        <time>2016-10-02T15:54:12+02:00</time>
      </trkpt>
      <trkpt lat="45.98367" lon="6.27301">
        <ele>671</ele>
        <time>2016-10-02T15:54:14+02:00</time>
      </trkpt>
      <trkpt lat="45.98365" lon="6.273">
        <ele>670</ele>
        <time>2016-10-02T15:54:15+02:00</time>
      </trkpt>
      <trkpt lat="45.98363" lon="6.27299">
        <ele>670</ele>
        <time>2016-10-02T15:54:17+02:00</time>
      </trkpt>
      <trkpt lat="45.98361" lon="6.27298">
        <ele>670</ele>
        <time>2016-10-02T15:54:19+02:00</time>
      </trkpt>
      <trkpt lat="45.98359" lon="6.27297">
        <ele>670</ele>
        <time>2016-10-02T15:54:20+02:00</time>
      </trkpt>
      <trkpt lat="45.98357" lon="6.27295">
        <ele>669</ele>
        <time>2016-10-02T15:54:22+02:00</time>
      </trkpt>
      <trkpt lat="45.98356" lon="6.27293">
        <ele>669</ele>
        <time>2016-10-02T15:54:24+02:00</time>
      </trkpt>
      <trkpt lat="45.98356" lon="6.2729">
        <ele>669</ele>
        <time>2016-10-02T15:54:25+02:00</time>
      </trkpt>
      <trkpt lat="45.98355" lon="6.27289">
        <ele>669</ele>
        <time>2016-10-02T15:54:26+02:00</time>
      </trkpt>
      <trkpt lat="45.98354" lon="6.27287">
        <ele>668</ele>
        <time>2016-10-02T15:54:28+02:00</time>
      </trkpt>
      <trkpt lat="45.98353" lon="6.27285">
        <ele>668</ele>
        <time>2016-10-02T15:54:29+02:00</time>
      </trkpt>
      <trkpt lat="45.98352" lon="6.27283">
        <ele>668</ele>
        <time>2016-10-02T15:54:31+02:00</time>
      </trkpt>
      <trkpt lat="45.98352" lon="6.27281">
        <ele>668</ele>
        <time>2016-10-02T15:54:32+02:00</time>
      </trkpt>
      <trkpt lat="45.98352" lon="6.27278">
        <ele>668</ele>
        <time>2016-10-02T15:54:33+02:00</time>
      </trkpt>
      <trkpt lat="45.98353" lon="6.27277">
        <ele>667</ele>
        <time>2016-10-02T15:54:35+02:00</time>
      </trkpt>
      <trkpt lat="45.98354" lon="6.27274">
        <ele>667</ele>
        <time>2016-10-02T15:54:36+02:00</time>
      </trkpt>
      <trkpt lat="45.98354" lon="6.27271">
        <ele>667</ele>
        <time>2016-10-02T15:54:38+02:00</time>
      </trkpt>
      <trkpt lat="45.98355" lon="6.27268">
        <ele>667</ele>
        <time>2016-10-02T15:54:40+02:00</time>
      </trkpt>
      <trkpt lat="45.98355" lon="6.27265">
        <ele>667</ele>
        <time>2016-10-02T15:54:41+02:00</time>
      </trkpt>
      <trkpt lat="45.98355" lon="6.27263">
        <ele>667</ele>
        <time>2016-10-02T15:54:42+02:00</time>
      </trkpt>
      <trkpt lat="45.98355" lon="6.27262">
        <ele>666</ele>
        <time>2016-10-02T15:54:43+02:00</time>
      </trkpt>
      <trkpt lat="45.98355" lon="6.27259">
        <ele>666</ele>
        <time>2016-10-02T15:54:44+02:00</time>
      </trkpt>
      <trkpt lat="45.98355" lon="6.27257">
        <ele>666</ele>
        <time>2016-10-02T15:54:46+02:00</time>
      </trkpt>
      <trkpt lat="45.98355" lon="6.27254">
        <ele>666</ele>
        <time>2016-10-02T15:54:48+02:00</time>
      </trkpt>
      <trkpt lat="45.98355" lon="6.2725">
        <ele>666</ele>
        <time>2016-10-02T15:54:50+02:00</time>
      </trkpt>
      <trkpt lat="45.98355" lon="6.27247">
        <ele>665</ele>
        <time>2016-10-02T15:54:52+02:00</time>
      </trkpt>
      <trkpt lat="45.98356" lon="6.27243">
        <ele>665</ele>
        <time>2016-10-02T15:54:54+02:00</time>
      </trkpt>
      <trkpt lat="45.98357" lon="6.27241">
        <ele>665</ele>
        <time>2016-10-02T15:54:55+02:00</time>
      </trkpt>
      <trkpt lat="45.98357" lon="6.27238">
        <ele>665</ele>
        <time>2016-10-02T15:54:57+02:00</time>
      </trkpt>
      <trkpt lat="45.98358" lon="6.27235">
        <ele>665</ele>
        <time>2016-10-02T15:54:58+02:00</time>
      </trkpt>
      <trkpt lat="45.98359" lon="6.27232">
        <ele>665</ele>
        <time>2016-10-02T15:55:00+02:00</time>
      </trkpt>
      <trkpt lat="45.98361" lon="6.2723">
        <ele>665</ele>
        <time>2016-10-02T15:55:02+02:00</time>
      </trkpt>
      <trkpt lat="45.98362" lon="6.27228">
        <ele>665</ele>
        <time>2016-10-02T15:55:04+02:00</time>
      </trkpt>
      <trkpt lat="45.98364" lon="6.27226">
        <ele>665</ele>
        <time>2016-10-02T15:55:05+02:00</time>
      </trkpt>
      <trkpt lat="45.98366" lon="6.27225">
        <ele>665</ele>
        <time>2016-10-02T15:55:07+02:00</time>
      </trkpt>
      <trkpt lat="45.98368" lon="6.27224">
        <ele>665</ele>
        <time>2016-10-02T15:55:09+02:00</time>
      </trkpt>
      <trkpt lat="45.98369" lon="6.27222">
        <ele>665</ele>
        <time>2016-10-02T15:55:10+02:00</time>
      </trkpt>
      <trkpt lat="45.98371" lon="6.27221">
        <ele>665</ele>
        <time>2016-10-02T15:55:11+02:00</time>
      </trkpt>
      <trkpt lat="45.98372" lon="6.2722">
        <ele>665</ele>
        <time>2016-10-02T15:55:13+02:00</time>
      </trkpt>
      <trkpt lat="45.98373" lon="6.27218">
        <ele>665</ele>
        <time>2016-10-02T15:55:14+02:00</time>
      </trkpt>
      <trkpt lat="45.98374" lon="6.27216">
        <ele>665</ele>
        <time>2016-10-02T15:55:16+02:00</time>
      </trkpt>
      <trkpt lat="45.98375" lon="6.27212">
        <ele>665</ele>
        <time>2016-10-02T15:55:18+02:00</time>
      </trkpt>
      <trkpt lat="45.98375" lon="6.27208">
        <ele>665</ele>
        <time>2016-10-02T15:55:20+02:00</time>
      </trkpt>
      <trkpt lat="45.98376" lon="6.27204">
        <ele>665</ele>
        <time>2016-10-02T15:55:23+02:00</time>
      </trkpt>
      <trkpt lat="45.98376" lon="6.272">
        <ele>664</ele>
        <time>2016-10-02T15:55:25+02:00</time>
      </trkpt>
      <trkpt lat="45.98377" lon="6.27196">
        <ele>664</ele>
        <time>2016-10-02T15:55:27+02:00</time>
      </trkpt>
      <trkpt lat="45.98377" lon="6.27192">
        <ele>664</ele>
        <time>2016-10-02T15:55:29+02:00</time>
      </trkpt>
      <trkpt lat="45.98378" lon="6.27188">
        <ele>664</ele>
        <time>2016-10-02T15:55:31+02:00</time>
      </trkpt>
      <trkpt lat="45.98379" lon="6.27185">
        <ele>664</ele>
        <time>2016-10-02T15:55:33+02:00</time>
      </trkpt>
      <trkpt lat="45.9838" lon="6.27182">
        <ele>663</ele>
        <time>2016-10-02T15:55:35+02:00</time>
      </trkpt>
      <trkpt lat="45.98381" lon="6.2718">
        <ele>663</ele>
        <time>2016-10-02T15:55:37+02:00</time>
      </trkpt>
      <trkpt lat="45.98383" lon="6.27177">
        <ele>663</ele>
        <time>2016-10-02T15:55:38+02:00</time>
      </trkpt>
      <trkpt lat="45.98384" lon="6.27175">
        <ele>663</ele>
        <time>2016-10-02T15:55:40+02:00</time>
      </trkpt>
      <trkpt lat="45.98385" lon="6.27172">
        <ele>663</ele>
        <time>2016-10-02T15:55:42+02:00</time>
      </trkpt>
      <trkpt lat="45.98386" lon="6.2717">
        <ele>663</ele>
        <time>2016-10-02T15:55:44+02:00</time>
      </trkpt>
      <trkpt lat="45.98388" lon="6.27167">
        <ele>662</ele>
        <time>2016-10-02T15:55:46+02:00</time>
      </trkpt>
      <trkpt lat="45.98389" lon="6.27163">
        <ele>662</ele>
        <time>2016-10-02T15:55:48+02:00</time>
      </trkpt>
      <trkpt lat="45.9839" lon="6.2716">
        <ele>662</ele>
        <time>2016-10-02T15:55:50+02:00</time>
      </trkpt>
      <trkpt lat="45.98392" lon="6.27157">
        <ele>662</ele>
        <time>2016-10-02T15:55:52+02:00</time>
      </trkpt>
      <trkpt lat="45.98393" lon="6.27153">
        <ele>662</ele>
        <time>2016-10-02T15:55:54+02:00</time>
      </trkpt>
      <trkpt lat="45.98394" lon="6.2715">
        <ele>662</ele>
        <time>2016-10-02T15:55:57+02:00</time>
      </trkpt>
      <trkpt lat="45.98395" lon="6.27146">
        <ele>662</ele>
        <time>2016-10-02T15:55:59+02:00</time>
      </trkpt>
      <trkpt lat="45.98396" lon="6.27142">
        <ele>662</ele>
        <time>2016-10-02T15:56:01+02:00</time>
      </trkpt>
      <trkpt lat="45.98397" lon="6.27138">
        <ele>661</ele>
        <time>2016-10-02T15:56:04+02:00</time>
      </trkpt>
      <trkpt lat="45.98398" lon="6.27135">
        <ele>661</ele>
        <time>2016-10-02T15:56:06+02:00</time>
      </trkpt>
      <trkpt lat="45.98399" lon="6.27131">
        <ele>661</ele>
        <time>2016-10-02T15:56:08+02:00</time>
      </trkpt>
      <trkpt lat="45.984" lon="6.27128">
        <ele>661</ele>
        <time>2016-10-02T15:56:10+02:00</time>
      </trkpt>
      <trkpt lat="45.98401" lon="6.27124">
        <ele>661</ele>
        <time>2016-10-02T15:56:12+02:00</time>
      </trkpt>
      <trkpt lat="45.98402" lon="6.27121">
        <ele>661</ele>
        <time>2016-10-02T15:56:14+02:00</time>
      </trkpt>
      <trkpt lat="45.98403" lon="6.27118">
        <ele>661</ele>
        <time>2016-10-02T15:56:16+02:00</time>
      </trkpt>
      <trkpt lat="45.98404" lon="6.27114">
        <ele>660</ele>
        <time>2016-10-02T15:56:18+02:00</time>
      </trkpt>
      <trkpt lat="45.98405" lon="6.27111">
        <ele>660</ele>
        <time>2016-10-02T15:56:20+02:00</time>
      </trkpt>
      <trkpt lat="45.98406" lon="6.27108">
        <ele>660</ele>
        <time>2016-10-02T15:56:22+02:00</time>
      </trkpt>
      <trkpt lat="45.98408" lon="6.27106">
        <ele>660</ele>
        <time>2016-10-02T15:56:24+02:00</time>
      </trkpt>
      <trkpt lat="45.9841" lon="6.27103">
        <ele>659</ele>
        <time>2016-10-02T15:56:26+02:00</time>
      </trkpt>
      <trkpt lat="45.98411" lon="6.271">
        <ele>659</ele>
        <time>2016-10-02T15:56:28+02:00</time>
      </trkpt>
      <trkpt lat="45.98412" lon="6.27097">
        <ele>659</ele>
        <time>2016-10-02T15:56:30+02:00</time>
      </trkpt>
      <trkpt lat="45.98414" lon="6.27093">
        <ele>659</ele>
        <time>2016-10-02T15:56:32+02:00</time>
      </trkpt>
      <trkpt lat="45.98415" lon="6.2709">
        <ele>658</ele>
        <time>2016-10-02T15:56:34+02:00</time>
      </trkpt>
      <trkpt lat="45.98416" lon="6.27087">
        <ele>658</ele>
        <time>2016-10-02T15:56:36+02:00</time>
      </trkpt>
      <trkpt lat="45.98418" lon="6.27084">
        <ele>658</ele>
        <time>2016-10-02T15:56:39+02:00</time>
      </trkpt>
      <trkpt lat="45.98419" lon="6.2708">
        <ele>658</ele>
        <time>2016-10-02T15:56:41+02:00</time>
      </trkpt>
      <trkpt lat="45.98421" lon="6.27078">
        <ele>658</ele>
        <time>2016-10-02T15:56:43+02:00</time>
      </trkpt>
      <trkpt lat="45.98423" lon="6.27076">
        <ele>658</ele>
        <time>2016-10-02T15:56:45+02:00</time>
      </trkpt>
      <trkpt lat="45.98425" lon="6.27075">
        <ele>658</ele>
        <time>2016-10-02T15:56:46+02:00</time>
      </trkpt>
      <trkpt lat="45.98427" lon="6.27073">
        <ele>658</ele>
        <time>2016-10-02T15:56:48+02:00</time>
      </trkpt>
      <trkpt lat="45.98428" lon="6.27071">
        <ele>658</ele>
        <time>2016-10-02T15:56:50+02:00</time>
      </trkpt>
      <trkpt lat="45.9843" lon="6.27069">
        <ele>658</ele>
        <time>2016-10-02T15:56:52+02:00</time>
      </trkpt>
      <trkpt lat="45.98432" lon="6.27066">
        <ele>658</ele>
        <time>2016-10-02T15:56:54+02:00</time>
      </trkpt>
      <trkpt lat="45.98434" lon="6.27064">
        <ele>658</ele>
        <time>2016-10-02T15:56:56+02:00</time>
      </trkpt>
      <trkpt lat="45.98435" lon="6.27062">
        <ele>658</ele>
        <time>2016-10-02T15:56:57+02:00</time>
      </trkpt>
      <trkpt lat="45.98436" lon="6.27059">
        <ele>658</ele>
        <time>2016-10-02T15:56:59+02:00</time>
      </trkpt>
      <trkpt lat="45.98437" lon="6.27056">
        <ele>658</ele>
        <time>2016-10-02T15:57:01+02:00</time>
      </trkpt>
      <trkpt lat="45.98439" lon="6.27053">
        <ele>658</ele>
        <time>2016-10-02T15:57:03+02:00</time>
      </trkpt>
      <trkpt lat="45.98441" lon="6.27051">
        <ele>658</ele>
        <time>2016-10-02T15:57:05+02:00</time>
      </trkpt>
      <trkpt lat="45.98442" lon="6.2705">
        <ele>658</ele>
        <time>2016-10-02T15:57:07+02:00</time>
      </trkpt>
      <trkpt lat="45.98444" lon="6.27049">
        <ele>658</ele>
        <time>2016-10-02T15:57:08+02:00</time>
      </trkpt>
      <trkpt lat="45.98446" lon="6.27048">
        <ele>658</ele>
        <time>2016-10-02T15:57:10+02:00</time>
      </trkpt>
      <trkpt lat="45.98448" lon="6.27047">
        <ele>658</ele>
        <time>2016-10-02T15:57:11+02:00</time>
      </trkpt>
      <trkpt lat="45.9845" lon="6.27046">
        <ele>658</ele>
        <time>2016-10-02T15:57:13+02:00</time>
      </trkpt>
      <trkpt lat="45.9845" lon="6.27045">
        <ele>658</ele>
        <time>2016-10-02T15:57:14+02:00</time>
      </trkpt>
      <trkpt lat="45.98451" lon="6.27043">
        <ele>658</ele>
        <time>2016-10-02T15:57:15+02:00</time>
      </trkpt>
      <trkpt lat="45.98452" lon="6.27042">
        <ele>658</ele>
        <time>2016-10-02T15:57:16+02:00</time>
      </trkpt>
      <trkpt lat="45.98453" lon="6.2704">
        <ele>658</ele>
        <time>2016-10-02T15:57:17+02:00</time>
      </trkpt>
      <trkpt lat="45.98454" lon="6.27037">
        <ele>658</ele>
        <time>2016-10-02T15:57:19+02:00</time>
      </trkpt>
      <trkpt lat="45.98455" lon="6.27033">
        <ele>657</ele>
        <time>2016-10-02T15:57:21+02:00</time>
      </trkpt>
      <trkpt lat="45.98455" lon="6.2703">
        <ele>657</ele>
        <time>2016-10-02T15:57:23+02:00</time>
      </trkpt>
      <trkpt lat="45.98454" lon="6.27026">
        <ele>657</ele>
        <time>2016-10-02T15:57:25+02:00</time>
      </trkpt>
      <trkpt lat="45.98454" lon="6.27023">
        <ele>657</ele>
        <time>2016-10-02T15:57:27+02:00</time>
      </trkpt>
      <trkpt lat="45.98453" lon="6.27021">
        <ele>657</ele>
        <time>2016-10-02T15:57:28+02:00</time>
      </trkpt>
      <trkpt lat="45.98452" lon="6.27018">
        <ele>657</ele>
        <time>2016-10-02T15:57:30+02:00</time>
      </trkpt>
      <trkpt lat="45.98451" lon="6.27016">
        <ele>657</ele>
        <time>2016-10-02T15:57:32+02:00</time>
      </trkpt>
      <trkpt lat="45.98451" lon="6.27013">
        <ele>657</ele>
        <time>2016-10-02T15:57:33+02:00</time>
      </trkpt>
      <trkpt lat="45.98451" lon="6.2701">
        <ele>657</ele>
        <time>2016-10-02T15:57:35+02:00</time>
      </trkpt>
      <trkpt lat="45.9845" lon="6.27008">
        <ele>657</ele>
        <time>2016-10-02T15:57:36+02:00</time>
      </trkpt>
      <trkpt lat="45.9845" lon="6.27007">
        <ele>657</ele>
        <time>2016-10-02T15:57:37+02:00</time>
      </trkpt>
      <trkpt lat="45.98449" lon="6.27005">
        <ele>657</ele>
        <time>2016-10-02T15:57:38+02:00</time>
      </trkpt>
      <trkpt lat="45.98449" lon="6.27004">
        <ele>657</ele>
        <time>2016-10-02T15:57:39+02:00</time>
      </trkpt>
      <trkpt lat="45.98448" lon="6.27001">
        <ele>657</ele>
        <time>2016-10-02T15:57:40+02:00</time>
      </trkpt>
      <trkpt lat="45.98448" lon="6.26999">
        <ele>657</ele>
        <time>2016-10-02T15:57:42+02:00</time>
      </trkpt>
      <trkpt lat="45.98448" lon="6.26997">
        <ele>657</ele>
        <time>2016-10-02T15:57:43+02:00</time>
      </trkpt>
      <trkpt lat="45.98448" lon="6.26995">
        <ele>657</ele>
        <time>2016-10-02T15:57:44+02:00</time>
      </trkpt>
      <trkpt lat="45.98448" lon="6.26993">
        <ele>657</ele>
        <time>2016-10-02T15:57:45+02:00</time>
      </trkpt>
      <trkpt lat="45.98448" lon="6.26992">
        <ele>657</ele>
        <time>2016-10-02T15:57:46+02:00</time>
      </trkpt>
      <trkpt lat="45.98448" lon="6.2699">
        <ele>657</ele>
        <time>2016-10-02T15:57:47+02:00</time>
      </trkpt>
      <trkpt lat="45.98448" lon="6.26987">
        <ele>657</ele>
        <time>2016-10-02T15:57:48+02:00</time>
      </trkpt>
      <trkpt lat="45.98449" lon="6.26985">
        <ele>657</ele>
        <time>2016-10-02T15:57:50+02:00</time>
      </trkpt>
      <trkpt lat="45.9845" lon="6.26983">
        <ele>657</ele>
        <time>2016-10-02T15:57:51+02:00</time>
      </trkpt>
      <trkpt lat="45.98451" lon="6.26982">
        <ele>657</ele>
        <time>2016-10-02T15:57:52+02:00</time>
      </trkpt>
      <trkpt lat="45.98452" lon="6.2698">
        <ele>657</ele>
        <time>2016-10-02T15:57:53+02:00</time>
      </trkpt>
      <trkpt lat="45.98453" lon="6.26979">
        <ele>657</ele>
        <time>2016-10-02T15:57:54+02:00</time>
      </trkpt>
      <trkpt lat="45.98453" lon="6.26978">
        <ele>657</ele>
        <time>2016-10-02T15:57:54+02:00</time>
      </trkpt>
      <trkpt lat="45.98453" lon="6.26978">
        <ele>657</ele>
        <time>2016-10-02T15:57:55+02:00</time>
      </trkpt>
      <trkpt lat="45.98453" lon="6.26976">
        <ele>657</ele>
        <time>2016-10-02T15:57:56+02:00</time>
      </trkpt>
      <trkpt lat="45.98454" lon="6.26975">
        <ele>656</ele>
        <time>2016-10-02T15:57:57+02:00</time>
      </trkpt>
      <trkpt lat="45.98455" lon="6.26974">
        <ele>656</ele>
        <time>2016-10-02T15:57:57+02:00</time>
      </trkpt>
      <trkpt lat="45.98456" lon="6.26973">
        <ele>656</ele>
        <time>2016-10-02T15:57:58+02:00</time>
      </trkpt>
      <trkpt lat="45.98457" lon="6.26972">
        <ele>656</ele>
        <time>2016-10-02T15:57:59+02:00</time>
      </trkpt>
      <trkpt lat="45.98458" lon="6.26971">
        <ele>656</ele>
        <time>2016-10-02T15:58:00+02:00</time>
      </trkpt>
      <trkpt lat="45.98459" lon="6.26969">
        <ele>656</ele>
        <time>2016-10-02T15:58:02+02:00</time>
      </trkpt>
      <trkpt lat="45.9846" lon="6.26968">
        <ele>656</ele>
        <time>2016-10-02T15:58:03+02:00</time>
      </trkpt>
      <trkpt lat="45.98462" lon="6.26968">
        <ele>656</ele>
        <time>2016-10-02T15:58:05+02:00</time>
      </trkpt>
      <trkpt lat="45.98464" lon="6.26967">
        <ele>656</ele>
        <time>2016-10-02T15:58:06+02:00</time>
      </trkpt>
      <trkpt lat="45.98466" lon="6.26966">
        <ele>656</ele>
        <time>2016-10-02T15:58:08+02:00</time>
      </trkpt>
      <trkpt lat="45.98467" lon="6.26965">
        <ele>656</ele>
        <time>2016-10-02T15:58:09+02:00</time>
      </trkpt>
      <trkpt lat="45.98469" lon="6.26963">
        <ele>656</ele>
        <time>2016-10-02T15:58:11+02:00</time>
      </trkpt>
      <trkpt lat="45.98471" lon="6.26962">
        <ele>656</ele>
        <time>2016-10-02T15:58:12+02:00</time>
      </trkpt>
      <trkpt lat="45.98473" lon="6.26961">
        <ele>656</ele>
        <time>2016-10-02T15:58:14+02:00</time>
      </trkpt>
      <trkpt lat="45.98475" lon="6.2696">
        <ele>656</ele>
        <time>2016-10-02T15:58:16+02:00</time>
      </trkpt>
      <trkpt lat="45.98477" lon="6.26959">
        <ele>655</ele>
        <time>2016-10-02T15:58:17+02:00</time>
      </trkpt>
      <trkpt lat="45.98479" lon="6.26957">
        <ele>655</ele>
        <time>2016-10-02T15:58:19+02:00</time>
      </trkpt>
      <trkpt lat="45.98481" lon="6.26956">
        <ele>655</ele>
        <time>2016-10-02T15:58:21+02:00</time>
      </trkpt>
      <trkpt lat="45.98483" lon="6.26955">
        <ele>655</ele>
        <time>2016-10-02T15:58:23+02:00</time>
      </trkpt>
      <trkpt lat="45.98486" lon="6.26953">
        <ele>655</ele>
        <time>2016-10-02T15:58:25+02:00</time>
      </trkpt>
      <trkpt lat="45.98488" lon="6.26952">
        <ele>655</ele>
        <time>2016-10-02T15:58:27+02:00</time>
      </trkpt>
      <trkpt lat="45.9849" lon="6.2695">
        <ele>655</ele>
        <time>2016-10-02T15:58:29+02:00</time>
      </trkpt>
      <trkpt lat="45.98492" lon="6.26948">
        <ele>655</ele>
        <time>2016-10-02T15:58:31+02:00</time>
      </trkpt>
      <trkpt lat="45.98494" lon="6.26946">
        <ele>654</ele>
        <time>2016-10-02T15:58:33+02:00</time>
      </trkpt>
      <trkpt lat="45.98496" lon="6.26944">
        <ele>654</ele>
        <time>2016-10-02T15:58:35+02:00</time>
      </trkpt>
      <trkpt lat="45.98498" lon="6.26941">
        <ele>654</ele>
        <time>2016-10-02T15:58:37+02:00</time>
      </trkpt>
      <trkpt lat="45.985" lon="6.26939">
        <ele>654</ele>
        <time>2016-10-02T15:58:39+02:00</time>
      </trkpt>
      <trkpt lat="45.98502" lon="6.26936">
        <ele>654</ele>
        <time>2016-10-02T15:58:41+02:00</time>
      </trkpt>
      <trkpt lat="45.98503" lon="6.26933">
        <ele>654</ele>
        <time>2016-10-02T15:58:43+02:00</time>
      </trkpt>
      <trkpt lat="45.98504" lon="6.26929">
        <ele>654</ele>
        <time>2016-10-02T15:58:46+02:00</time>
      </trkpt>
      <trkpt lat="45.98505" lon="6.26925">
        <ele>653</ele>
        <time>2016-10-02T15:58:48+02:00</time>
      </trkpt>
      <trkpt lat="45.98504" lon="6.2692">
        <ele>653</ele>
        <time>2016-10-02T15:58:51+02:00</time>
      </trkpt>
      <trkpt lat="45.98504" lon="6.26916">
        <ele>653</ele>
        <time>2016-10-02T15:58:53+02:00</time>
      </trkpt>
      <trkpt lat="45.98502" lon="6.26912">
        <ele>653</ele>
        <time>2016-10-02T15:58:56+02:00</time>
      </trkpt>
      <trkpt lat="45.98501" lon="6.26908">
        <ele>653</ele>
        <time>2016-10-02T15:58:58+02:00</time>
      </trkpt>
      <trkpt lat="45.985" lon="6.26904">
        <ele>653</ele>
        <time>2016-10-02T15:59:01+02:00</time>
      </trkpt>
      <trkpt lat="45.98499" lon="6.26901">
        <ele>654</ele>
        <time>2016-10-02T15:59:03+02:00</time>
      </trkpt>
      <trkpt lat="45.98498" lon="6.26897">
        <ele>654</ele>
        <time>2016-10-02T15:59:05+02:00</time>
      </trkpt>
      <trkpt lat="45.98497" lon="6.26894">
        <ele>654</ele>
        <time>2016-10-02T15:59:07+02:00</time>
      </trkpt>
      <trkpt lat="45.98496" lon="6.26891">
        <ele>654</ele>
        <time>2016-10-02T15:59:09+02:00</time>
      </trkpt>
      <trkpt lat="45.98495" lon="6.26888">
        <ele>654</ele>
        <time>2016-10-02T15:59:11+02:00</time>
      </trkpt>
      <trkpt lat="45.98495" lon="6.26885">
        <ele>654</ele>
        <time>2016-10-02T15:59:12+02:00</time>
      </trkpt>
      <trkpt lat="45.98495" lon="6.26881">
        <ele>654</ele>
        <time>2016-10-02T15:59:14+02:00</time>
      </trkpt>
      <trkpt lat="45.98495" lon="6.26878">
        <ele>654</ele>
        <time>2016-10-02T15:59:16+02:00</time>
      </trkpt>
      <trkpt lat="45.98495" lon="6.26876">
        <ele>655</ele>
        <time>2016-10-02T15:59:18+02:00</time>
      </trkpt>
      <trkpt lat="45.98495" lon="6.26873">
        <ele>655</ele>
        <time>2016-10-02T15:59:19+02:00</time>
      </trkpt>
      <trkpt lat="45.98495" lon="6.26869">
        <ele>655</ele>
        <time>2016-10-02T15:59:21+02:00</time>
      </trkpt>
      <trkpt lat="45.98495" lon="6.26866">
        <ele>655</ele>
        <time>2016-10-02T15:59:23+02:00</time>
      </trkpt>
      <trkpt lat="45.98496" lon="6.26863">
        <ele>655</ele>
        <time>2016-10-02T15:59:25+02:00</time>
      </trkpt>
      <trkpt lat="45.98496" lon="6.2686">
        <ele>655</ele>
        <time>2016-10-02T15:59:27+02:00</time>
      </trkpt>
      <trkpt lat="45.98498" lon="6.26856">
        <ele>655</ele>
        <time>2016-10-02T15:59:29+02:00</time>
      </trkpt>
      <trkpt lat="45.985" lon="6.26852">
        <ele>655</ele>
        <time>2016-10-02T15:59:32+02:00</time>
      </trkpt>
      <trkpt lat="45.98502" lon="6.26848">
        <ele>655</ele>
        <time>2016-10-02T15:59:34+02:00</time>
      </trkpt>
      <trkpt lat="45.98503" lon="6.26844">
        <ele>655</ele>
        <time>2016-10-02T15:59:37+02:00</time>
      </trkpt>
      <trkpt lat="45.98504" lon="6.2684">
        <ele>655</ele>
        <time>2016-10-02T15:59:39+02:00</time>
      </trkpt>
      <trkpt lat="45.98505" lon="6.26836">
        <ele>655</ele>
        <time>2016-10-02T15:59:42+02:00</time>
      </trkpt>
      <trkpt lat="45.98507" lon="6.26833">
        <ele>655</ele>
        <time>2016-10-02T15:59:44+02:00</time>
      </trkpt>
      <trkpt lat="45.98508" lon="6.26829">
        <ele>655</ele>
        <time>2016-10-02T15:59:46+02:00</time>
      </trkpt>
      <trkpt lat="45.9851" lon="6.26826">
        <ele>655</ele>
        <time>2016-10-02T15:59:49+02:00</time>
      </trkpt>
      <trkpt lat="45.98511" lon="6.26823">
        <ele>655</ele>
        <time>2016-10-02T15:59:51+02:00</time>
      </trkpt>
      <trkpt lat="45.98512" lon="6.26819">
        <ele>656</ele>
        <time>2016-10-02T15:59:53+02:00</time>
      </trkpt>
      <trkpt lat="45.98513" lon="6.26816">
        <ele>656</ele>
        <time>2016-10-02T15:59:55+02:00</time>
      </trkpt>
      <trkpt lat="45.98514" lon="6.26812">
        <ele>656</ele>
        <time>2016-10-02T15:59:57+02:00</time>
      </trkpt>
      <trkpt lat="45.98515" lon="6.26808">
        <ele>656</ele>
        <time>2016-10-02T16:00:00+02:00</time>
      </trkpt>
      <trkpt lat="45.98516" lon="6.26805">
        <ele>656</ele>
        <time>2016-10-02T16:00:02+02:00</time>
      </trkpt>
      <trkpt lat="45.98518" lon="6.26801">
        <ele>656</ele>
        <time>2016-10-02T16:00:04+02:00</time>
      </trkpt>
      <trkpt lat="45.98519" lon="6.26798">
        <ele>657</ele>
        <time>2016-10-02T16:00:06+02:00</time>
      </trkpt>
      <trkpt lat="45.9852" lon="6.26795">
        <ele>657</ele>
        <time>2016-10-02T16:00:08+02:00</time>
      </trkpt>
      <trkpt lat="45.98522" lon="6.26792">
        <ele>657</ele>
        <time>2016-10-02T16:00:10+02:00</time>
      </trkpt>
      <trkpt lat="45.98523" lon="6.2679">
        <ele>657</ele>
        <time>2016-10-02T16:00:12+02:00</time>
      </trkpt>
      <trkpt lat="45.98524" lon="6.26787">
        <ele>657</ele>
        <time>2016-10-02T16:00:13+02:00</time>
      </trkpt>
      <trkpt lat="45.98526" lon="6.26784">
        <ele>657</ele>
        <time>2016-10-02T16:00:15+02:00</time>
      </trkpt>
      <trkpt lat="45.98528" lon="6.26782">
        <ele>657</ele>
        <time>2016-10-02T16:00:17+02:00</time>
      </trkpt>
      <trkpt lat="45.98529" lon="6.26779">
        <ele>657</ele>
        <time>2016-10-02T16:00:19+02:00</time>
      </trkpt>
      <trkpt lat="45.98531" lon="6.26776">
        <ele>657</ele>
        <time>2016-10-02T16:00:21+02:00</time>
      </trkpt>
      <trkpt lat="45.98532" lon="6.26774">
        <ele>657</ele>
        <time>2016-10-02T16:00:23+02:00</time>
      </trkpt>
      <trkpt lat="45.98534" lon="6.26771">
        <ele>657</ele>
        <time>2016-10-02T16:00:25+02:00</time>
      </trkpt>
      <trkpt lat="45.98536" lon="6.26769">
        <ele>656</ele>
        <time>2016-10-02T16:00:27+02:00</time>
      </trkpt>
      <trkpt lat="45.98538" lon="6.26767">
        <ele>656</ele>
        <time>2016-10-02T16:00:29+02:00</time>
      </trkpt>
      <trkpt lat="45.9854" lon="6.26764">
        <ele>656</ele>
        <time>2016-10-02T16:00:31+02:00</time>
      </trkpt>
      <trkpt lat="45.98542" lon="6.26761">
        <ele>656</ele>
        <time>2016-10-02T16:00:33+02:00</time>
      </trkpt>
      <trkpt lat="45.98544" lon="6.26759">
        <ele>656</ele>
        <time>2016-10-02T16:00:36+02:00</time>
      </trkpt>
      <trkpt lat="45.98546" lon="6.26756">
        <ele>656</ele>
        <time>2016-10-02T16:00:38+02:00</time>
      </trkpt>
      <trkpt lat="45.98548" lon="6.26754">
        <ele>655</ele>
        <time>2016-10-02T16:00:40+02:00</time>
      </trkpt>
      <trkpt lat="45.98549" lon="6.26751">
        <ele>655</ele>
        <time>2016-10-02T16:00:42+02:00</time>
      </trkpt>
      <trkpt lat="45.98551" lon="6.26748">
        <ele>655</ele>
        <time>2016-10-02T16:00:44+02:00</time>
      </trkpt>
      <trkpt lat="45.98553" lon="6.26746">
        <ele>655</ele>
        <time>2016-10-02T16:00:46+02:00</time>
      </trkpt>
      <trkpt lat="45.98555" lon="6.26743">
        <ele>655</ele>
        <time>2016-10-02T16:00:48+02:00</time>
      </trkpt>
      <trkpt lat="45.98556" lon="6.2674">
        <ele>655</ele>
        <time>2016-10-02T16:00:50+02:00</time>
      </trkpt>
      <trkpt lat="45.98558" lon="6.26737">
        <ele>655</ele>
        <time>2016-10-02T16:00:52+02:00</time>
      </trkpt>
      <trkpt lat="45.9856" lon="6.26734">
        <ele>655</ele>
        <time>2016-10-02T16:00:55+02:00</time>
      </trkpt>
      <trkpt lat="45.98562" lon="6.26731">
        <ele>655</ele>
        <time>2016-10-02T16:00:57+02:00</time>
      </trkpt>
      <trkpt lat="45.98563" lon="6.26728">
        <ele>655</ele>
        <time>2016-10-02T16:00:59+02:00</time>
      </trkpt>
      <trkpt lat="45.98565" lon="6.26726">
        <ele>654</ele>
        <time>2016-10-02T16:01:01+02:00</time>
      </trkpt>
      <trkpt lat="45.98567" lon="6.26723">
        <ele>654</ele>
        <time>2016-10-02T16:01:03+02:00</time>
      </trkpt>
      <trkpt lat="45.98569" lon="6.2672">
        <ele>654</ele>
        <time>2016-10-02T16:01:05+02:00</time>
      </trkpt>
      <trkpt lat="45.98572" lon="6.26718">
        <ele>654</ele>
        <time>2016-10-02T16:01:08+02:00</time>
      </trkpt>
      <trkpt lat="45.98574" lon="6.26716">
        <ele>653</ele>
        <time>2016-10-02T16:01:10+02:00</time>
      </trkpt>
      <trkpt lat="45.98577" lon="6.26714">
        <ele>653</ele>
        <time>2016-10-02T16:01:12+02:00</time>
      </trkpt>
      <trkpt lat="45.98579" lon="6.26712">
        <ele>652</ele>
        <time>2016-10-02T16:01:14+02:00</time>
      </trkpt>
      <trkpt lat="45.98581" lon="6.26709">
        <ele>652</ele>
        <time>2016-10-02T16:01:17+02:00</time>
      </trkpt>
      <trkpt lat="45.98583" lon="6.26707">
        <ele>652</ele>
        <time>2016-10-02T16:01:19+02:00</time>
      </trkpt>
      <trkpt lat="45.98585" lon="6.26704">
        <ele>652</ele>
        <time>2016-10-02T16:01:21+02:00</time>
      </trkpt>
      <trkpt lat="45.98587" lon="6.26702">
        <ele>652</ele>
        <time>2016-10-02T16:01:23+02:00</time>
      </trkpt>
      <trkpt lat="45.9859" lon="6.26699">
        <ele>652</ele>
        <time>2016-10-02T16:01:26+02:00</time>
      </trkpt>
      <trkpt lat="45.98592" lon="6.26697">
        <ele>651</ele>
        <time>2016-10-02T16:01:28+02:00</time>
      </trkpt>
      <trkpt lat="45.98594" lon="6.26695">
        <ele>651</ele>
        <time>2016-10-02T16:01:30+02:00</time>
      </trkpt>
      <trkpt lat="45.98597" lon="6.26692">
        <ele>651</ele>
        <time>2016-10-02T16:01:33+02:00</time>
      </trkpt>
      <trkpt lat="45.98599" lon="6.2669">
        <ele>651</ele>
        <time>2016-10-02T16:01:35+02:00</time>
      </trkpt>
      <trkpt lat="45.98601" lon="6.26687">
        <ele>651</ele>
        <time>2016-10-02T16:01:37+02:00</time>
      </trkpt>
      <trkpt lat="45.98603" lon="6.26685">
        <ele>651</ele>
        <time>2016-10-02T16:01:39+02:00</time>
      </trkpt>
      <trkpt lat="45.98605" lon="6.26682">
        <ele>651</ele>
        <time>2016-10-02T16:01:41+02:00</time>
      </trkpt>
      <trkpt lat="45.98606" lon="6.26679">
        <ele>651</ele>
        <time>2016-10-02T16:01:44+02:00</time>
      </trkpt>
      <trkpt lat="45.98608" lon="6.26676">
        <ele>651</ele>
        <time>2016-10-02T16:01:46+02:00</time>
      </trkpt>
      <trkpt lat="45.9861" lon="6.26673">
        <ele>651</ele>
        <time>2016-10-02T16:01:48+02:00</time>
      </trkpt>
      <trkpt lat="45.98611" lon="6.2667">
        <ele>651</ele>
        <time>2016-10-02T16:01:50+02:00</time>
      </trkpt>
      <trkpt lat="45.98613" lon="6.26668">
        <ele>651</ele>
        <time>2016-10-02T16:01:52+02:00</time>
      </trkpt>
      <trkpt lat="45.98614" lon="6.26665">
        <ele>651</ele>
        <time>2016-10-02T16:01:54+02:00</time>
      </trkpt>
      <trkpt lat="45.98616" lon="6.26663">
        <ele>651</ele>
        <time>2016-10-02T16:01:56+02:00</time>
      </trkpt>
      <trkpt lat="45.98618" lon="6.2666">
        <ele>651</ele>
        <time>2016-10-02T16:01:58+02:00</time>
      </trkpt>
      <trkpt lat="45.9862" lon="6.26658">
        <ele>650</ele>
        <time>2016-10-02T16:02:00+02:00</time>
      </trkpt>
      <trkpt lat="45.98623" lon="6.26655">
        <ele>650</ele>
        <time>2016-10-02T16:02:02+02:00</time>
      </trkpt>
      <trkpt lat="45.98625" lon="6.26653">
        <ele>650</ele>
        <time>2016-10-02T16:02:04+02:00</time>
      </trkpt>
      <trkpt lat="45.98627" lon="6.26651">
        <ele>650</ele>
        <time>2016-10-02T16:02:06+02:00</time>
      </trkpt>
      <trkpt lat="45.98629" lon="6.26649">
        <ele>650</ele>
        <time>2016-10-02T16:02:08+02:00</time>
      </trkpt>
      <trkpt lat="45.9863" lon="6.26646">
        <ele>650</ele>
        <time>2016-10-02T16:02:11+02:00</time>
      </trkpt>
      <trkpt lat="45.98632" lon="6.26643">
        <ele>650</ele>
        <time>2016-10-02T16:02:13+02:00</time>
      </trkpt>
      <trkpt lat="45.98634" lon="6.2664">
        <ele>650</ele>
        <time>2016-10-02T16:02:15+02:00</time>
      </trkpt>
      <trkpt lat="45.98636" lon="6.26638">
        <ele>650</ele>
        <time>2016-10-02T16:02:17+02:00</time>
      </trkpt>
      <trkpt lat="45.98638" lon="6.26635">
        <ele>649</ele>
        <time>2016-10-02T16:02:19+02:00</time>
      </trkpt>
      <trkpt lat="45.9864" lon="6.26631">
        <ele>649</ele>
        <time>2016-10-02T16:02:22+02:00</time>
      </trkpt>
      <trkpt lat="45.98641" lon="6.26627">
        <ele>649</ele>
        <time>2016-10-02T16:02:24+02:00</time>
      </trkpt>
      <trkpt lat="45.98643" lon="6.26624">
        <ele>649</ele>
        <time>2016-10-02T16:02:27+02:00</time>
      </trkpt>
      <trkpt lat="45.98644" lon="6.2662">
        <ele>649</ele>
        <time>2016-10-02T16:02:29+02:00</time>
      </trkpt>
      <trkpt lat="45.98645" lon="6.26616">
        <ele>649</ele>
        <time>2016-10-02T16:02:31+02:00</time>
      </trkpt>
      <trkpt lat="45.98646" lon="6.26612">
        <ele>649</ele>
        <time>2016-10-02T16:02:34+02:00</time>
      </trkpt>
      <trkpt lat="45.98647" lon="6.26608">
        <ele>648</ele>
        <time>2016-10-02T16:02:36+02:00</time>
      </trkpt>
      <trkpt lat="45.98648" lon="6.26604">
        <ele>648</ele>
        <time>2016-10-02T16:02:39+02:00</time>
      </trkpt>
      <trkpt lat="45.98649" lon="6.266">
        <ele>648</ele>
        <time>2016-10-02T16:02:41+02:00</time>
      </trkpt>
      <trkpt lat="45.98651" lon="6.26596">
        <ele>648</ele>
        <time>2016-10-02T16:02:44+02:00</time>
      </trkpt>
      <trkpt lat="45.98651" lon="6.26592">
        <ele>648</ele>
        <time>2016-10-02T16:02:46+02:00</time>
      </trkpt>
      <trkpt lat="45.98652" lon="6.26588">
        <ele>647</ele>
        <time>2016-10-02T16:02:48+02:00</time>
      </trkpt>
      <trkpt lat="45.98653" lon="6.26584">
        <ele>647</ele>
        <time>2016-10-02T16:02:50+02:00</time>
      </trkpt>
      <trkpt lat="45.98654" lon="6.26581">
        <ele>647</ele>
        <time>2016-10-02T16:02:52+02:00</time>
      </trkpt>
      <trkpt lat="45.98655" lon="6.26578">
        <ele>647</ele>
        <time>2016-10-02T16:02:54+02:00</time>
      </trkpt>
      <trkpt lat="45.98655" lon="6.26574">
        <ele>648</ele>
        <time>2016-10-02T16:02:56+02:00</time>
      </trkpt>
      <trkpt lat="45.98656" lon="6.26571">
        <ele>648</ele>
        <time>2016-10-02T16:02:58+02:00</time>
      </trkpt>
      <trkpt lat="45.98658" lon="6.26568">
        <ele>648</ele>
        <time>2016-10-02T16:03:00+02:00</time>
      </trkpt>
      <trkpt lat="45.98658" lon="6.26564">
        <ele>648</ele>
        <time>2016-10-02T16:03:03+02:00</time>
      </trkpt>
      <trkpt lat="45.98659" lon="6.2656">
        <ele>648</ele>
        <time>2016-10-02T16:03:05+02:00</time>
      </trkpt>
      <trkpt lat="45.9866" lon="6.26557">
        <ele>648</ele>
        <time>2016-10-02T16:03:07+02:00</time>
      </trkpt>
      <trkpt lat="45.98662" lon="6.26553">
        <ele>648</ele>
        <time>2016-10-02T16:03:09+02:00</time>
      </trkpt>
      <trkpt lat="45.98663" lon="6.2655">
        <ele>648</ele>
        <time>2016-10-02T16:03:11+02:00</time>
      </trkpt>
      <trkpt lat="45.98664" lon="6.26547">
        <ele>648</ele>
        <time>2016-10-02T16:03:13+02:00</time>
      </trkpt>
      <trkpt lat="45.98665" lon="6.26543">
        <ele>648</ele>
        <time>2016-10-02T16:03:16+02:00</time>
      </trkpt>
      <trkpt lat="45.98667" lon="6.2654">
        <ele>648</ele>
        <time>2016-10-02T16:03:17+02:00</time>
      </trkpt>
      <trkpt lat="45.98668" lon="6.26538">
        <ele>648</ele>
        <time>2016-10-02T16:03:19+02:00</time>
      </trkpt>
      <trkpt lat="45.98669" lon="6.26535">
        <ele>648</ele>
        <time>2016-10-02T16:03:21+02:00</time>
      </trkpt>
      <trkpt lat="45.98671" lon="6.26533">
        <ele>648</ele>
        <time>2016-10-02T16:03:23+02:00</time>
      </trkpt>
      <trkpt lat="45.98672" lon="6.26531">
        <ele>648</ele>
        <time>2016-10-02T16:03:24+02:00</time>
      </trkpt>
      <trkpt lat="45.98674" lon="6.26529">
        <ele>648</ele>
        <time>2016-10-02T16:03:26+02:00</time>
      </trkpt>
      <trkpt lat="45.98675" lon="6.26527">
        <ele>648</ele>
        <time>2016-10-02T16:03:28+02:00</time>
      </trkpt>
      <trkpt lat="45.98676" lon="6.26525">
        <ele>648</ele>
        <time>2016-10-02T16:03:29+02:00</time>
      </trkpt>
      <trkpt lat="45.98678" lon="6.26523">
        <ele>648</ele>
        <time>2016-10-02T16:03:31+02:00</time>
      </trkpt>
      <trkpt lat="45.98679" lon="6.26521">
        <ele>648</ele>
        <time>2016-10-02T16:03:32+02:00</time>
      </trkpt>
      <trkpt lat="45.98681" lon="6.2652">
        <ele>648</ele>
        <time>2016-10-02T16:03:34+02:00</time>
      </trkpt>
      <trkpt lat="45.98683" lon="6.26519">
        <ele>648</ele>
        <time>2016-10-02T16:03:35+02:00</time>
      </trkpt>
      <trkpt lat="45.98684" lon="6.26518">
        <ele>648</ele>
        <time>2016-10-02T16:03:37+02:00</time>
      </trkpt>
      <trkpt lat="45.98685" lon="6.26517">
        <ele>648</ele>
        <time>2016-10-02T16:03:38+02:00</time>
      </trkpt>
      <trkpt lat="45.98686" lon="6.26517">
        <ele>647</ele>
        <time>2016-10-02T16:03:38+02:00</time>
      </trkpt>
      <trkpt lat="45.98686" lon="6.26517">
        <ele>647</ele>
        <time>2016-10-02T16:03:39+02:00</time>
      </trkpt>
      <trkpt lat="45.98686" lon="6.26517">
        <ele>647</ele>
        <time>2016-10-02T16:03:39+02:00</time>
      </trkpt>
      <trkpt lat="45.98687" lon="6.26516">
        <ele>647</ele>
        <time>2016-10-02T16:03:39+02:00</time>
      </trkpt>
      <trkpt lat="45.98687" lon="6.26516">
        <ele>647</ele>
        <time>2016-10-02T16:03:40+02:00</time>
      </trkpt>
      <trkpt lat="45.98687" lon="6.26515">
        <ele>647</ele>
        <time>2016-10-02T16:03:40+02:00</time>
      </trkpt>
      <trkpt lat="45.98687" lon="6.26515">
        <ele>647</ele>
        <time>2016-10-02T16:03:40+02:00</time>
      </trkpt>
      <trkpt lat="45.98688" lon="6.26514">
        <ele>647</ele>
        <time>2016-10-02T16:03:41+02:00</time>
      </trkpt>
      <trkpt lat="45.98688" lon="6.26514">
        <ele>647</ele>
        <time>2016-10-02T16:03:41+02:00</time>
      </trkpt>
      <trkpt lat="45.98688" lon="6.26513">
        <ele>647</ele>
        <time>2016-10-02T16:03:41+02:00</time>
      </trkpt>
      <trkpt lat="45.98689" lon="6.26513">
        <ele>647</ele>
        <time>2016-10-02T16:03:42+02:00</time>
      </trkpt>
      <trkpt lat="45.98689" lon="6.26513">
        <ele>647</ele>
        <time>2016-10-02T16:03:42+02:00</time>
      </trkpt>
      <trkpt lat="45.98689" lon="6.26513">
        <ele>647</ele>
        <time>2016-10-02T16:03:42+02:00</time>
      </trkpt>
      <trkpt lat="45.98689" lon="6.26514">
        <ele>647</ele>
        <time>2016-10-02T16:03:43+02:00</time>
      </trkpt>
      <trkpt lat="45.9869" lon="6.26514">
        <ele>647</ele>
        <time>2016-10-02T16:03:43+02:00</time>
      </trkpt>
      <trkpt lat="45.9869" lon="6.26515">
        <ele>647</ele>
        <time>2016-10-02T16:03:44+02:00</time>
      </trkpt>
      <trkpt lat="45.9869" lon="6.26516">
        <ele>647</ele>
        <time>2016-10-02T16:03:44+02:00</time>
      </trkpt>
      <trkpt lat="45.98691" lon="6.26516">
        <ele>647</ele>
        <time>2016-10-02T16:03:45+02:00</time>
      </trkpt>
      <trkpt lat="45.98691" lon="6.26517">
        <ele>647</ele>
        <time>2016-10-02T16:03:45+02:00</time>
      </trkpt>
      <trkpt lat="45.98692" lon="6.26518">
        <ele>647</ele>
        <time>2016-10-02T16:03:47+02:00</time>
      </trkpt>
      <trkpt lat="45.98694" lon="6.2652">
        <ele>646</ele>
        <time>2016-10-02T16:03:48+02:00</time>
      </trkpt>
      <trkpt lat="45.98696" lon="6.2652">
        <ele>646</ele>
        <time>2016-10-02T16:03:50+02:00</time>
      </trkpt>
      <trkpt lat="45.98698" lon="6.2652">
        <ele>646</ele>
        <time>2016-10-02T16:03:52+02:00</time>
      </trkpt>
      <trkpt lat="45.98701" lon="6.26519">
        <ele>646</ele>
        <time>2016-10-02T16:03:54+02:00</time>
      </trkpt>
      <trkpt lat="45.98702" lon="6.26517">
        <ele>646</ele>
        <time>2016-10-02T16:03:56+02:00</time>
      </trkpt>
      <trkpt lat="45.98703" lon="6.26516">
        <ele>646</ele>
        <time>2016-10-02T16:03:57+02:00</time>
      </trkpt>
      <trkpt lat="45.98705" lon="6.26515">
        <ele>645</ele>
        <time>2016-10-02T16:03:58+02:00</time>
      </trkpt>
      <trkpt lat="45.98707" lon="6.26514">
        <ele>645</ele>
        <time>2016-10-02T16:04:00+02:00</time>
      </trkpt>
      <trkpt lat="45.98708" lon="6.26513">
        <ele>645</ele>
        <time>2016-10-02T16:04:01+02:00</time>
      </trkpt>
      <trkpt lat="45.98709" lon="6.26512">
        <ele>645</ele>
        <time>2016-10-02T16:04:02+02:00</time>
      </trkpt>
      <trkpt lat="45.98711" lon="6.26511">
        <ele>645</ele>
        <time>2016-10-02T16:04:04+02:00</time>
      </trkpt>
      <trkpt lat="45.98713" lon="6.26511">
        <ele>645</ele>
        <time>2016-10-02T16:04:05+02:00</time>
      </trkpt>
      <trkpt lat="45.98715" lon="6.26511">
        <ele>644</ele>
        <time>2016-10-02T16:04:07+02:00</time>
      </trkpt>
      <trkpt lat="45.98717" lon="6.26511">
        <ele>644</ele>
        <time>2016-10-02T16:04:09+02:00</time>
      </trkpt>
      <trkpt lat="45.98719" lon="6.2651">
        <ele>644</ele>
        <time>2016-10-02T16:04:10+02:00</time>
      </trkpt>
      <trkpt lat="45.9872" lon="6.26509">
        <ele>644</ele>
        <time>2016-10-02T16:04:12+02:00</time>
      </trkpt>
      <trkpt lat="45.98722" lon="6.26509">
        <ele>644</ele>
        <time>2016-10-02T16:04:13+02:00</time>
      </trkpt>
      <trkpt lat="45.98724" lon="6.26509">
        <ele>643</ele>
        <time>2016-10-02T16:04:15+02:00</time>
      </trkpt>
      <trkpt lat="45.98726" lon="6.26508">
        <ele>643</ele>
        <time>2016-10-02T16:04:16+02:00</time>
      </trkpt>
      <trkpt lat="45.98728" lon="6.26507">
        <ele>643</ele>
        <time>2016-10-02T16:04:18+02:00</time>
      </trkpt>
      <trkpt lat="45.9873" lon="6.26505">
        <ele>643</ele>
        <time>2016-10-02T16:04:20+02:00</time>
      </trkpt>
      <trkpt lat="45.98732" lon="6.26504">
        <ele>642</ele>
        <time>2016-10-02T16:04:22+02:00</time>
      </trkpt>
      <trkpt lat="45.98733" lon="6.26502">
        <ele>642</ele>
        <time>2016-10-02T16:04:23+02:00</time>
      </trkpt>
      <trkpt lat="45.98735" lon="6.26501">
        <ele>642</ele>
        <time>2016-10-02T16:04:25+02:00</time>
      </trkpt>
      <trkpt lat="45.98737" lon="6.26499">
        <ele>642</ele>
        <time>2016-10-02T16:04:26+02:00</time>
      </trkpt>
      <trkpt lat="45.98738" lon="6.26499">
        <ele>642</ele>
        <time>2016-10-02T16:04:28+02:00</time>
      </trkpt>
      <trkpt lat="45.9874" lon="6.26499">
        <ele>641</ele>
        <time>2016-10-02T16:04:29+02:00</time>
      </trkpt>
      <trkpt lat="45.98741" lon="6.265">
        <ele>641</ele>
        <time>2016-10-02T16:04:30+02:00</time>
      </trkpt>
      <trkpt lat="45.98742" lon="6.26501">
        <ele>641</ele>
        <time>2016-10-02T16:04:32+02:00</time>
      </trkpt>
      <trkpt lat="45.98743" lon="6.26502">
        <ele>641</ele>
        <time>2016-10-02T16:04:33+02:00</time>
      </trkpt>
      <trkpt lat="45.98745" lon="6.26503">
        <ele>641</ele>
        <time>2016-10-02T16:04:34+02:00</time>
      </trkpt>
      <trkpt lat="45.98746" lon="6.26503">
        <ele>641</ele>
        <time>2016-10-02T16:04:35+02:00</time>
      </trkpt>
      <trkpt lat="45.98748" lon="6.26504">
        <ele>640</ele>
        <time>2016-10-02T16:04:37+02:00</time>
      </trkpt>
      <trkpt lat="45.98749" lon="6.26505">
        <ele>640</ele>
        <time>2016-10-02T16:04:38+02:00</time>
      </trkpt>
      <trkpt lat="45.98751" lon="6.26506">
        <ele>640</ele>
        <time>2016-10-02T16:04:39+02:00</time>
      </trkpt>
      <trkpt lat="45.98752" lon="6.26507">
        <ele>640</ele>
        <time>2016-10-02T16:04:40+02:00</time>
      </trkpt>
      <trkpt lat="45.98753" lon="6.26508">
        <ele>640</ele>
        <time>2016-10-02T16:04:42+02:00</time>
      </trkpt>
      <trkpt lat="45.98755" lon="6.26509">
        <ele>640</ele>
        <time>2016-10-02T16:04:43+02:00</time>
      </trkpt>
      <trkpt lat="45.98756" lon="6.2651">
        <ele>640</ele>
        <time>2016-10-02T16:04:44+02:00</time>
      </trkpt>
      <trkpt lat="45.98756" lon="6.26511">
        <ele>640</ele>
        <time>2016-10-02T16:04:45+02:00</time>
      </trkpt>
      <trkpt lat="45.98757" lon="6.26511">
        <ele>640</ele>
        <time>2016-10-02T16:04:45+02:00</time>
      </trkpt>
      <trkpt lat="45.98758" lon="6.26512">
        <ele>640</ele>
        <time>2016-10-02T16:04:46+02:00</time>
      </trkpt>
      <trkpt lat="45.98759" lon="6.26512">
        <ele>640</ele>
        <time>2016-10-02T16:04:47+02:00</time>
      </trkpt>
      <trkpt lat="45.98759" lon="6.26513">
        <ele>640</ele>
        <time>2016-10-02T16:04:47+02:00</time>
      </trkpt>
      <trkpt lat="45.98759" lon="6.26513">
        <ele>640</ele>
        <time>2016-10-02T16:04:47+02:00</time>
      </trkpt>
      <trkpt lat="45.9876" lon="6.26513">
        <ele>640</ele>
        <time>2016-10-02T16:04:48+02:00</time>
      </trkpt>
      <trkpt lat="45.98761" lon="6.26512">
        <ele>640</ele>
        <time>2016-10-02T16:04:49+02:00</time>
      </trkpt>
      <trkpt lat="45.98762" lon="6.26511">
        <ele>640</ele>
        <time>2016-10-02T16:04:50+02:00</time>
      </trkpt>
      <trkpt lat="45.98763" lon="6.26511">
        <ele>640</ele>
        <time>2016-10-02T16:04:51+02:00</time>
      </trkpt>
      <trkpt lat="45.98765" lon="6.2651">
        <ele>640</ele>
        <time>2016-10-02T16:04:52+02:00</time>
      </trkpt>
      <trkpt lat="45.98765" lon="6.26509">
        <ele>640</ele>
        <time>2016-10-02T16:04:53+02:00</time>
      </trkpt>
      <trkpt lat="45.98765" lon="6.26509">
        <ele>640</ele>
        <time>2016-10-02T16:04:53+02:00</time>
      </trkpt>
      <trkpt lat="45.98765" lon="6.26508">
        <ele>640</ele>
        <time>2016-10-02T16:04:54+02:00</time>
      </trkpt>
      <trkpt lat="45.98765" lon="6.26508">
        <ele>640</ele>
        <time>2016-10-02T16:04:54+02:00</time>
      </trkpt>
      <trkpt lat="45.98765" lon="6.26507">
        <ele>640</ele>
        <time>2016-10-02T16:04:54+02:00</time>
      </trkpt>
      <trkpt lat="45.98765" lon="6.26508">
        <ele>640</ele>
        <time>2016-10-02T16:04:54+02:00</time>
      </trkpt>
      <trkpt lat="45.98766" lon="6.26508">
        <ele>640</ele>
        <time>2016-10-02T16:04:55+02:00</time>
      </trkpt>
      <trkpt lat="45.98766" lon="6.26508">
        <ele>640</ele>
        <time>2016-10-02T16:04:55+02:00</time>
      </trkpt>
      <trkpt lat="45.98766" lon="6.26507">
        <ele>640</ele>
        <time>2016-10-02T16:04:55+02:00</time>
      </trkpt>
      <trkpt lat="45.98767" lon="6.26507">
        <ele>640</ele>
        <time>2016-10-02T16:04:56+02:00</time>
      </trkpt>
      <trkpt lat="45.98768" lon="6.26507">
        <ele>640</ele>
        <time>2016-10-02T16:04:57+02:00</time>
      </trkpt>
      <trkpt lat="45.98769" lon="6.26506">
        <ele>640</ele>
        <time>2016-10-02T16:04:58+02:00</time>
      </trkpt>
      <trkpt lat="45.9877" lon="6.26505">
        <ele>640</ele>
        <time>2016-10-02T16:04:59+02:00</time>
      </trkpt>
      <trkpt lat="45.98771" lon="6.26504">
        <ele>640</ele>
        <time>2016-10-02T16:05:00+02:00</time>
      </trkpt>
      <trkpt lat="45.98772" lon="6.26502">
        <ele>640</ele>
        <time>2016-10-02T16:05:01+02:00</time>
      </trkpt>
      <trkpt lat="45.98774" lon="6.26501">
        <ele>640</ele>
        <time>2016-10-02T16:05:02+02:00</time>
      </trkpt>
      <trkpt lat="45.98775" lon="6.265">
        <ele>640</ele>
        <time>2016-10-02T16:05:03+02:00</time>
      </trkpt>
      <trkpt lat="45.98776" lon="6.26499">
        <ele>640</ele>
        <time>2016-10-02T16:05:04+02:00</time>
      </trkpt>
      <trkpt lat="45.98777" lon="6.26498">
        <ele>640</ele>
        <time>2016-10-02T16:05:06+02:00</time>
      </trkpt>
      <trkpt lat="45.98779" lon="6.26497">
        <ele>640</ele>
        <time>2016-10-02T16:05:07+02:00</time>
      </trkpt>
      <trkpt lat="45.9878" lon="6.26495">
        <ele>640</ele>
        <time>2016-10-02T16:05:08+02:00</time>
      </trkpt>
      <trkpt lat="45.98781" lon="6.26494">
        <ele>640</ele>
        <time>2016-10-02T16:05:10+02:00</time>
      </trkpt>
      <trkpt lat="45.98782" lon="6.26492">
        <ele>640</ele>
        <time>2016-10-02T16:05:11+02:00</time>
      </trkpt>
      <trkpt lat="45.98784" lon="6.26491">
        <ele>640</ele>
        <time>2016-10-02T16:05:12+02:00</time>
      </trkpt>
      <trkpt lat="45.98785" lon="6.2649">
        <ele>640</ele>
        <time>2016-10-02T16:05:13+02:00</time>
      </trkpt>
      <trkpt lat="45.98786" lon="6.26488">
        <ele>640</ele>
        <time>2016-10-02T16:05:15+02:00</time>
      </trkpt>
      <trkpt lat="45.98787" lon="6.26487">
        <ele>640</ele>
        <time>2016-10-02T16:05:16+02:00</time>
      </trkpt>
      <trkpt lat="45.98789" lon="6.26486">
        <ele>640</ele>
        <time>2016-10-02T16:05:17+02:00</time>
      </trkpt>
      <trkpt lat="45.9879" lon="6.26485">
        <ele>640</ele>
        <time>2016-10-02T16:05:18+02:00</time>
      </trkpt>
      <trkpt lat="45.98791" lon="6.26485">
        <ele>640</ele>
        <time>2016-10-02T16:05:19+02:00</time>
      </trkpt>
      <trkpt lat="45.98793" lon="6.26484">
        <ele>640</ele>
        <time>2016-10-02T16:05:21+02:00</time>
      </trkpt>
      <trkpt lat="45.98795" lon="6.26483">
        <ele>640</ele>
        <time>2016-10-02T16:05:22+02:00</time>
      </trkpt>
      <trkpt lat="45.98796" lon="6.26482">
        <ele>640</ele>
        <time>2016-10-02T16:05:23+02:00</time>
      </trkpt>
      <trkpt lat="45.98797" lon="6.26482">
        <ele>640</ele>
        <time>2016-10-02T16:05:24+02:00</time>
      </trkpt>
      <trkpt lat="45.98798" lon="6.26481">
        <ele>639</ele>
        <time>2016-10-02T16:05:25+02:00</time>
      </trkpt>
      <trkpt lat="45.98799" lon="6.26481">
        <ele>639</ele>
        <time>2016-10-02T16:05:26+02:00</time>
      </trkpt>
      <trkpt lat="45.988" lon="6.26481">
        <ele>639</ele>
        <time>2016-10-02T16:05:27+02:00</time>
      </trkpt>
      <trkpt lat="45.98802" lon="6.26479">
        <ele>639</ele>
        <time>2016-10-02T16:05:29+02:00</time>
      </trkpt>
      <trkpt lat="45.98803" lon="6.26478">
        <ele>639</ele>
        <time>2016-10-02T16:05:30+02:00</time>
      </trkpt>
      <trkpt lat="45.98804" lon="6.26477">
        <ele>639</ele>
        <time>2016-10-02T16:05:31+02:00</time>
      </trkpt>
      <trkpt lat="45.98805" lon="6.26476">
        <ele>639</ele>
        <time>2016-10-02T16:05:32+02:00</time>
      </trkpt>
      <trkpt lat="45.98805" lon="6.26475">
        <ele>639</ele>
        <time>2016-10-02T16:05:33+02:00</time>
      </trkpt>
      <trkpt lat="45.98807" lon="6.26473">
        <ele>639</ele>
        <time>2016-10-02T16:05:34+02:00</time>
      </trkpt>
      <trkpt lat="45.98808" lon="6.26472">
        <ele>639</ele>
        <time>2016-10-02T16:05:35+02:00</time>
      </trkpt>
      <trkpt lat="45.98809" lon="6.26471">
        <ele>639</ele>
        <time>2016-10-02T16:05:36+02:00</time>
      </trkpt>
      <trkpt lat="45.98809" lon="6.2647">
        <ele>639</ele>
        <time>2016-10-02T16:05:37+02:00</time>
      </trkpt>
      <trkpt lat="45.9881" lon="6.26468">
        <ele>639</ele>
        <time>2016-10-02T16:05:38+02:00</time>
      </trkpt>
      <trkpt lat="45.98811" lon="6.26467">
        <ele>639</ele>
        <time>2016-10-02T16:05:39+02:00</time>
      </trkpt>
      <trkpt lat="45.98812" lon="6.26465">
        <ele>639</ele>
        <time>2016-10-02T16:05:40+02:00</time>
      </trkpt>
      <trkpt lat="45.98814" lon="6.26464">
        <ele>639</ele>
        <time>2016-10-02T16:05:42+02:00</time>
      </trkpt>
      <trkpt lat="45.98815" lon="6.26464">
        <ele>639</ele>
        <time>2016-10-02T16:05:43+02:00</time>
      </trkpt>
      <trkpt lat="45.98817" lon="6.26464">
        <ele>639</ele>
        <time>2016-10-02T16:05:44+02:00</time>
      </trkpt>
      <trkpt lat="45.98818" lon="6.26464">
        <ele>639</ele>
        <time>2016-10-02T16:05:45+02:00</time>
      </trkpt>
      <trkpt lat="45.9882" lon="6.26464">
        <ele>639</ele>
        <time>2016-10-02T16:05:46+02:00</time>
      </trkpt>
      <trkpt lat="45.98822" lon="6.26464">
        <ele>639</ele>
        <time>2016-10-02T16:05:48+02:00</time>
      </trkpt>
      <trkpt lat="45.98824" lon="6.26463">
        <ele>639</ele>
        <time>2016-10-02T16:05:49+02:00</time>
      </trkpt>
      <trkpt lat="45.98825" lon="6.26464">
        <ele>639</ele>
        <time>2016-10-02T16:05:51+02:00</time>
      </trkpt>
      <trkpt lat="45.98827" lon="6.26464">
        <ele>639</ele>
        <time>2016-10-02T16:05:52+02:00</time>
      </trkpt>
      <trkpt lat="45.98829" lon="6.26465">
        <ele>639</ele>
        <time>2016-10-02T16:05:54+02:00</time>
      </trkpt>
      <trkpt lat="45.9883" lon="6.26464">
        <ele>639</ele>
        <time>2016-10-02T16:05:55+02:00</time>
      </trkpt>
      <trkpt lat="45.98832" lon="6.26464">
        <ele>639</ele>
        <time>2016-10-02T16:05:56+02:00</time>
      </trkpt>
      <trkpt lat="45.98833" lon="6.26463">
        <ele>639</ele>
        <time>2016-10-02T16:05:57+02:00</time>
      </trkpt>
      <trkpt lat="45.98834" lon="6.26463">
        <ele>639</ele>
        <time>2016-10-02T16:05:58+02:00</time>
      </trkpt>
      <trkpt lat="45.98835" lon="6.26463">
        <ele>639</ele>
        <time>2016-10-02T16:05:59+02:00</time>
      </trkpt>
      <trkpt lat="45.98837" lon="6.26463">
        <ele>639</ele>
        <time>2016-10-02T16:06:00+02:00</time>
      </trkpt>
      <trkpt lat="45.98838" lon="6.26463">
        <ele>639</ele>
        <time>2016-10-02T16:06:01+02:00</time>
      </trkpt>
      <trkpt lat="45.98839" lon="6.26463">
        <ele>640</ele>
        <time>2016-10-02T16:06:02+02:00</time>
      </trkpt>
      <trkpt lat="45.9884" lon="6.26463">
        <ele>640</ele>
        <time>2016-10-02T16:06:03+02:00</time>
      </trkpt>
      <trkpt lat="45.98842" lon="6.26462">
        <ele>640</ele>
        <time>2016-10-02T16:06:04+02:00</time>
      </trkpt>
      <trkpt lat="45.98843" lon="6.26462">
        <ele>640</ele>
        <time>2016-10-02T16:06:05+02:00</time>
      </trkpt>
      <trkpt lat="45.98844" lon="6.26461">
        <ele>640</ele>
        <time>2016-10-02T16:06:06+02:00</time>
      </trkpt>
      <trkpt lat="45.98845" lon="6.26461">
        <ele>641</ele>
        <time>2016-10-02T16:06:07+02:00</time>
      </trkpt>
      <trkpt lat="45.98847" lon="6.26461">
        <ele>641</ele>
        <time>2016-10-02T16:06:08+02:00</time>
      </trkpt>
      <trkpt lat="45.98848" lon="6.2646">
        <ele>641</ele>
        <time>2016-10-02T16:06:09+02:00</time>
      </trkpt>
      <trkpt lat="45.98849" lon="6.2646">
        <ele>641</ele>
        <time>2016-10-02T16:06:11+02:00</time>
      </trkpt>
      <trkpt lat="45.98851" lon="6.26459">
        <ele>641</ele>
        <time>2016-10-02T16:06:12+02:00</time>
      </trkpt>
      <trkpt lat="45.98854" lon="6.26458">
        <ele>642</ele>
        <time>2016-10-02T16:06:14+02:00</time>
      </trkpt>
      <trkpt lat="45.98856" lon="6.26457">
        <ele>642</ele>
        <time>2016-10-02T16:06:16+02:00</time>
      </trkpt>
      <trkpt lat="45.98857" lon="6.26456">
        <ele>642</ele>
        <time>2016-10-02T16:06:18+02:00</time>
      </trkpt>
      <trkpt lat="45.98859" lon="6.26455">
        <ele>642</ele>
        <time>2016-10-02T16:06:19+02:00</time>
      </trkpt>
      <trkpt lat="45.98861" lon="6.26454">
        <ele>643</ele>
        <time>2016-10-02T16:06:20+02:00</time>
      </trkpt>
      <trkpt lat="45.98862" lon="6.26453">
        <ele>643</ele>
        <time>2016-10-02T16:06:22+02:00</time>
      </trkpt>
      <trkpt lat="45.98864" lon="6.26452">
        <ele>643</ele>
        <time>2016-10-02T16:06:23+02:00</time>
      </trkpt>
      <trkpt lat="45.98865" lon="6.26451">
        <ele>643</ele>
        <time>2016-10-02T16:06:24+02:00</time>
      </trkpt>
      <trkpt lat="45.98866" lon="6.26451">
        <ele>643</ele>
        <time>2016-10-02T16:06:25+02:00</time>
      </trkpt>
      <trkpt lat="45.98868" lon="6.2645">
        <ele>643</ele>
        <time>2016-10-02T16:06:26+02:00</time>
      </trkpt>
      <trkpt lat="45.98868" lon="6.26449">
        <ele>643</ele>
        <time>2016-10-02T16:06:27+02:00</time>
      </trkpt>
      <trkpt lat="45.98869" lon="6.26449">
        <ele>643</ele>
        <time>2016-10-02T16:06:28+02:00</time>
      </trkpt>
      <trkpt lat="45.98871" lon="6.26447">
        <ele>643</ele>
        <time>2016-10-02T16:06:29+02:00</time>
      </trkpt>
      <trkpt lat="45.98872" lon="6.26446">
        <ele>643</ele>
        <time>2016-10-02T16:06:30+02:00</time>
      </trkpt>
      <trkpt lat="45.98873" lon="6.26446">
        <ele>643</ele>
        <time>2016-10-02T16:06:31+02:00</time>
      </trkpt>
      <trkpt lat="45.98874" lon="6.26445">
        <ele>643</ele>
        <time>2016-10-02T16:06:32+02:00</time>
      </trkpt>
      <trkpt lat="45.98875" lon="6.26444">
        <ele>643</ele>
        <time>2016-10-02T16:06:33+02:00</time>
      </trkpt>
      <trkpt lat="45.98877" lon="6.26443">
        <ele>643</ele>
        <time>2016-10-02T16:06:35+02:00</time>
      </trkpt>
      <trkpt lat="45.98878" lon="6.26442">
        <ele>643</ele>
        <time>2016-10-02T16:06:36+02:00</time>
      </trkpt>
      <trkpt lat="45.9888" lon="6.2644">
        <ele>643</ele>
        <time>2016-10-02T16:06:38+02:00</time>
      </trkpt>
      <trkpt lat="45.98882" lon="6.26439">
        <ele>643</ele>
        <time>2016-10-02T16:06:40+02:00</time>
      </trkpt>
      <trkpt lat="45.98884" lon="6.26438">
        <ele>643</ele>
        <time>2016-10-02T16:06:41+02:00</time>
      </trkpt>
      <trkpt lat="45.98886" lon="6.26438">
        <ele>643</ele>
        <time>2016-10-02T16:06:43+02:00</time>
      </trkpt>
      <trkpt lat="45.98887" lon="6.26437">
        <ele>643</ele>
        <time>2016-10-02T16:06:44+02:00</time>
      </trkpt>
      <trkpt lat="45.98889" lon="6.26437">
        <ele>643</ele>
        <time>2016-10-02T16:06:45+02:00</time>
      </trkpt>
      <trkpt lat="45.98891" lon="6.26436">
        <ele>643</ele>
        <time>2016-10-02T16:06:47+02:00</time>
      </trkpt>
      <trkpt lat="45.98892" lon="6.26435">
        <ele>643</ele>
        <time>2016-10-02T16:06:48+02:00</time>
      </trkpt>
      <trkpt lat="45.98894" lon="6.26434">
        <ele>643</ele>
        <time>2016-10-02T16:06:50+02:00</time>
      </trkpt>
      <trkpt lat="45.98896" lon="6.26433">
        <ele>643</ele>
        <time>2016-10-02T16:06:51+02:00</time>
      </trkpt>
      <trkpt lat="45.98898" lon="6.26431">
        <ele>643</ele>
        <time>2016-10-02T16:06:53+02:00</time>
      </trkpt>
      <trkpt lat="45.989" lon="6.2643">
        <ele>643</ele>
        <time>2016-10-02T16:06:55+02:00</time>
      </trkpt>
      <trkpt lat="45.98902" lon="6.26429">
        <ele>643</ele>
        <time>2016-10-02T16:06:57+02:00</time>
      </trkpt>
      <trkpt lat="45.98905" lon="6.26428">
        <ele>642</ele>
        <time>2016-10-02T16:06:59+02:00</time>
      </trkpt>
      <trkpt lat="45.98907" lon="6.26426">
        <ele>642</ele>
        <time>2016-10-02T16:07:01+02:00</time>
      </trkpt>
      <trkpt lat="45.98909" lon="6.26424">
        <ele>642</ele>
        <time>2016-10-02T16:07:03+02:00</time>
      </trkpt>
      <trkpt lat="45.98911" lon="6.26422">
        <ele>641</ele>
        <time>2016-10-02T16:07:05+02:00</time>
      </trkpt>
      <trkpt lat="45.98913" lon="6.26421">
        <ele>641</ele>
        <time>2016-10-02T16:07:07+02:00</time>
      </trkpt>
      <trkpt lat="45.98915" lon="6.2642">
        <ele>641</ele>
        <time>2016-10-02T16:07:09+02:00</time>
      </trkpt>
      <trkpt lat="45.98917" lon="6.26419">
        <ele>641</ele>
        <time>2016-10-02T16:07:10+02:00</time>
      </trkpt>
      <trkpt lat="45.98918" lon="6.26417">
        <ele>641</ele>
        <time>2016-10-02T16:07:12+02:00</time>
      </trkpt>
      <trkpt lat="45.9892" lon="6.26415">
        <ele>642</ele>
        <time>2016-10-02T16:07:13+02:00</time>
      </trkpt>
      <trkpt lat="45.98921" lon="6.26414">
        <ele>642</ele>
        <time>2016-10-02T16:07:14+02:00</time>
      </trkpt>
      <trkpt lat="45.98922" lon="6.26412">
        <ele>643</ele>
        <time>2016-10-02T16:07:16+02:00</time>
      </trkpt>
      <trkpt lat="45.98923" lon="6.26411">
        <ele>644</ele>
        <time>2016-10-02T16:07:17+02:00</time>
      </trkpt>
      <trkpt lat="45.98925" lon="6.2641">
        <ele>644</ele>
        <time>2016-10-02T16:07:18+02:00</time>
      </trkpt>
      <trkpt lat="45.98926" lon="6.26409">
        <ele>645</ele>
        <time>2016-10-02T16:07:20+02:00</time>
      </trkpt>
      <trkpt lat="45.98928" lon="6.26408">
        <ele>646</ele>
        <time>2016-10-02T16:07:21+02:00</time>
      </trkpt>
      <trkpt lat="45.98929" lon="6.26405">
        <ele>647</ele>
        <time>2016-10-02T16:07:23+02:00</time>
      </trkpt>
      <trkpt lat="45.9893" lon="6.26403">
        <ele>647</ele>
        <time>2016-10-02T16:07:24+02:00</time>
      </trkpt>
      <trkpt lat="45.98931" lon="6.26401">
        <ele>647</ele>
        <time>2016-10-02T16:07:25+02:00</time>
      </trkpt>
      <trkpt lat="45.98932" lon="6.26399">
        <ele>648</ele>
        <time>2016-10-02T16:07:27+02:00</time>
      </trkpt>
      <trkpt lat="45.98933" lon="6.26397">
        <ele>648</ele>
        <time>2016-10-02T16:07:28+02:00</time>
      </trkpt>
      <trkpt lat="45.98934" lon="6.26395">
        <ele>648</ele>
        <time>2016-10-02T16:07:29+02:00</time>
      </trkpt>
      <trkpt lat="45.98934" lon="6.26393">
        <ele>648</ele>
        <time>2016-10-02T16:07:31+02:00</time>
      </trkpt>
      <trkpt lat="45.98935" lon="6.26391">
        <ele>649</ele>
        <time>2016-10-02T16:07:32+02:00</time>
      </trkpt>
      <trkpt lat="45.98936" lon="6.26389">
        <ele>649</ele>
        <time>2016-10-02T16:07:34+02:00</time>
      </trkpt>
      <trkpt lat="45.98938" lon="6.26387">
        <ele>650</ele>
        <time>2016-10-02T16:07:36+02:00</time>
      </trkpt>
      <trkpt lat="45.9894" lon="6.26385">
        <ele>651</ele>
        <time>2016-10-02T16:07:37+02:00</time>
      </trkpt>
      <trkpt lat="45.98941" lon="6.26384">
        <ele>651</ele>
        <time>2016-10-02T16:07:39+02:00</time>
      </trkpt>
      <trkpt lat="45.98943" lon="6.26382">
        <ele>652</ele>
        <time>2016-10-02T16:07:41+02:00</time>
      </trkpt>
      <trkpt lat="45.98944" lon="6.26381">
        <ele>652</ele>
        <time>2016-10-02T16:07:42+02:00</time>
      </trkpt>
      <trkpt lat="45.98945" lon="6.26379">
        <ele>653</ele>
        <time>2016-10-02T16:07:44+02:00</time>
      </trkpt>
      <trkpt lat="45.98947" lon="6.26377">
        <ele>653</ele>
        <time>2016-10-02T16:07:45+02:00</time>
      </trkpt>
      <trkpt lat="45.98948" lon="6.26375">
        <ele>654</ele>
        <time>2016-10-02T16:07:47+02:00</time>
      </trkpt>
      <trkpt lat="45.9895" lon="6.26374">
        <ele>654</ele>
        <time>2016-10-02T16:07:48+02:00</time>
      </trkpt>
      <trkpt lat="45.98951" lon="6.26373">
        <ele>655</ele>
        <time>2016-10-02T16:07:49+02:00</time>
      </trkpt>
      <trkpt lat="45.98952" lon="6.26373">
        <ele>655</ele>
        <time>2016-10-02T16:07:50+02:00</time>
      </trkpt>
      <trkpt lat="45.98953" lon="6.26372">
        <ele>656</ele>
        <time>2016-10-02T16:07:51+02:00</time>
      </trkpt>
      <trkpt lat="45.98954" lon="6.26371">
        <ele>656</ele>
        <time>2016-10-02T16:07:52+02:00</time>
      </trkpt>
      <trkpt lat="45.98955" lon="6.2637">
        <ele>657</ele>
        <time>2016-10-02T16:07:54+02:00</time>
      </trkpt>
      <trkpt lat="45.98956" lon="6.26369">
        <ele>657</ele>
        <time>2016-10-02T16:07:54+02:00</time>
      </trkpt>
      <trkpt lat="45.98957" lon="6.26368">
        <ele>657</ele>
        <time>2016-10-02T16:07:55+02:00</time>
      </trkpt>
      <trkpt lat="45.98958" lon="6.26367">
        <ele>657</ele>
        <time>2016-10-02T16:07:56+02:00</time>
      </trkpt>
      <trkpt lat="45.98958" lon="6.26366">
        <ele>657</ele>
        <time>2016-10-02T16:07:57+02:00</time>
      </trkpt>
      <trkpt lat="45.98959" lon="6.26365">
        <ele>658</ele>
        <time>2016-10-02T16:07:58+02:00</time>
      </trkpt>
      <trkpt lat="45.98961" lon="6.26365">
        <ele>658</ele>
        <time>2016-10-02T16:07:59+02:00</time>
      </trkpt>
      <trkpt lat="45.98962" lon="6.26364">
        <ele>658</ele>
        <time>2016-10-02T16:08:00+02:00</time>
      </trkpt>
      <trkpt lat="45.98963" lon="6.26363">
        <ele>659</ele>
        <time>2016-10-02T16:08:01+02:00</time>
      </trkpt>
      <trkpt lat="45.98964" lon="6.26361">
        <ele>659</ele>
        <time>2016-10-02T16:08:03+02:00</time>
      </trkpt>
      <trkpt lat="45.98965" lon="6.2636">
        <ele>659</ele>
        <time>2016-10-02T16:08:04+02:00</time>
      </trkpt>
      <trkpt lat="45.98967" lon="6.26358">
        <ele>660</ele>
        <time>2016-10-02T16:08:05+02:00</time>
      </trkpt>
      <trkpt lat="45.98968" lon="6.26357">
        <ele>660</ele>
        <time>2016-10-02T16:08:07+02:00</time>
      </trkpt>
      <trkpt lat="45.98969" lon="6.26356">
        <ele>660</ele>
        <time>2016-10-02T16:08:08+02:00</time>
      </trkpt>
      <trkpt lat="45.9897" lon="6.26355">
        <ele>661</ele>
        <time>2016-10-02T16:08:09+02:00</time>
      </trkpt>
      <trkpt lat="45.98972" lon="6.26354">
        <ele>661</ele>
        <time>2016-10-02T16:08:10+02:00</time>
      </trkpt>
      <trkpt lat="45.98972" lon="6.26352">
        <ele>661</ele>
        <time>2016-10-02T16:08:11+02:00</time>
      </trkpt>
      <trkpt lat="45.98973" lon="6.26351">
        <ele>661</ele>
        <time>2016-10-02T16:08:12+02:00</time>
      </trkpt>
      <trkpt lat="45.98974" lon="6.2635">
        <ele>661</ele>
        <time>2016-10-02T16:08:13+02:00</time>
      </trkpt>
      <trkpt lat="45.98975" lon="6.26349">
        <ele>661</ele>
        <time>2016-10-02T16:08:14+02:00</time>
      </trkpt>
      <trkpt lat="45.98976" lon="6.26349">
        <ele>661</ele>
        <time>2016-10-02T16:08:15+02:00</time>
      </trkpt>
      <trkpt lat="45.98977" lon="6.26348">
        <ele>662</ele>
        <time>2016-10-02T16:08:16+02:00</time>
      </trkpt>
      <trkpt lat="45.98978" lon="6.26347">
        <ele>662</ele>
        <time>2016-10-02T16:08:17+02:00</time>
      </trkpt>
      <trkpt lat="45.98979" lon="6.26345">
        <ele>662</ele>
        <time>2016-10-02T16:08:18+02:00</time>
      </trkpt>
      <trkpt lat="45.9898" lon="6.26344">
        <ele>662</ele>
        <time>2016-10-02T16:08:19+02:00</time>
      </trkpt>
      <trkpt lat="45.98981" lon="6.26344">
        <ele>663</ele>
        <time>2016-10-02T16:08:20+02:00</time>
      </trkpt>
      <trkpt lat="45.98982" lon="6.26343">
        <ele>663</ele>
        <time>2016-10-02T16:08:21+02:00</time>
      </trkpt>
      <trkpt lat="45.98983" lon="6.26342">
        <ele>663</ele>
        <time>2016-10-02T16:08:22+02:00</time>
      </trkpt>
      <trkpt lat="45.98984" lon="6.2634">
        <ele>663</ele>
        <time>2016-10-02T16:08:23+02:00</time>
      </trkpt>
      <trkpt lat="45.98985" lon="6.2634">
        <ele>663</ele>
        <time>2016-10-02T16:08:24+02:00</time>
      </trkpt>
      <trkpt lat="45.98986" lon="6.26339">
        <ele>663</ele>
        <time>2016-10-02T16:08:25+02:00</time>
      </trkpt>
      <trkpt lat="45.98987" lon="6.26338">
        <ele>663</ele>
        <time>2016-10-02T16:08:26+02:00</time>
      </trkpt>
      <trkpt lat="45.98987" lon="6.26337">
        <ele>663</ele>
        <time>2016-10-02T16:08:26+02:00</time>
      </trkpt>
      <trkpt lat="45.98988" lon="6.26337">
        <ele>664</ele>
        <time>2016-10-02T16:08:27+02:00</time>
      </trkpt>
      <trkpt lat="45.98989" lon="6.26337">
        <ele>664</ele>
        <time>2016-10-02T16:08:27+02:00</time>
      </trkpt>
      <trkpt lat="45.98989" lon="6.26337">
        <ele>664</ele>
        <time>2016-10-02T16:08:28+02:00</time>
      </trkpt>
      <trkpt lat="45.9899" lon="6.26337">
        <ele>664</ele>
        <time>2016-10-02T16:08:29+02:00</time>
      </trkpt>
      <trkpt lat="45.98991" lon="6.26336">
        <ele>665</ele>
        <time>2016-10-02T16:08:30+02:00</time>
      </trkpt>
      <trkpt lat="45.98992" lon="6.26336">
        <ele>665</ele>
        <time>2016-10-02T16:08:30+02:00</time>
      </trkpt>
      <trkpt lat="45.98992" lon="6.26335">
        <ele>665</ele>
        <time>2016-10-02T16:08:31+02:00</time>
      </trkpt>
      <trkpt lat="45.98993" lon="6.26335">
        <ele>665</ele>
        <time>2016-10-02T16:08:32+02:00</time>
      </trkpt>
      <trkpt lat="45.98994" lon="6.26334">
        <ele>665</ele>
        <time>2016-10-02T16:08:33+02:00</time>
      </trkpt>
      <trkpt lat="45.98995" lon="6.26334">
        <ele>666</ele>
        <time>2016-10-02T16:08:34+02:00</time>
      </trkpt>
      <trkpt lat="45.98996" lon="6.26334">
        <ele>666</ele>
        <time>2016-10-02T16:08:34+02:00</time>
      </trkpt>
      <trkpt lat="45.98997" lon="6.26334">
        <ele>666</ele>
        <time>2016-10-02T16:08:35+02:00</time>
      </trkpt>
      <trkpt lat="45.98997" lon="6.26334">
        <ele>666</ele>
        <time>2016-10-02T16:08:35+02:00</time>
      </trkpt>
      <trkpt lat="45.98998" lon="6.26334">
        <ele>666</ele>
        <time>2016-10-02T16:08:36+02:00</time>
      </trkpt>
      <trkpt lat="45.98999" lon="6.26333">
        <ele>667</ele>
        <time>2016-10-02T16:08:37+02:00</time>
      </trkpt>
      <trkpt lat="45.99" lon="6.26333">
        <ele>667</ele>
        <time>2016-10-02T16:08:38+02:00</time>
      </trkpt>
      <trkpt lat="45.99001" lon="6.26332">
        <ele>667</ele>
        <time>2016-10-02T16:08:39+02:00</time>
      </trkpt>
      <trkpt lat="45.99002" lon="6.2633">
        <ele>667</ele>
        <time>2016-10-02T16:08:40+02:00</time>
      </trkpt>
      <trkpt lat="45.99003" lon="6.26329">
        <ele>667</ele>
        <time>2016-10-02T16:08:41+02:00</time>
      </trkpt>
      <trkpt lat="45.99004" lon="6.26328">
        <ele>667</ele>
        <time>2016-10-02T16:08:42+02:00</time>
      </trkpt>
      <trkpt lat="45.99005" lon="6.26328">
        <ele>668</ele>
        <time>2016-10-02T16:08:43+02:00</time>
      </trkpt>
      <trkpt lat="45.99006" lon="6.26327">
        <ele>668</ele>
        <time>2016-10-02T16:08:44+02:00</time>
      </trkpt>
      <trkpt lat="45.99007" lon="6.26326">
        <ele>668</ele>
        <time>2016-10-02T16:08:45+02:00</time>
      </trkpt>
      <trkpt lat="45.99008" lon="6.26326">
        <ele>668</ele>
        <time>2016-10-02T16:08:46+02:00</time>
      </trkpt>
      <trkpt lat="45.99009" lon="6.26326">
        <ele>668</ele>
        <time>2016-10-02T16:08:46+02:00</time>
      </trkpt>
      <trkpt lat="45.9901" lon="6.26326">
        <ele>669</ele>
        <time>2016-10-02T16:08:47+02:00</time>
      </trkpt>
      <trkpt lat="45.99011" lon="6.26326">
        <ele>669</ele>
        <time>2016-10-02T16:08:48+02:00</time>
      </trkpt>
      <trkpt lat="45.99013" lon="6.26326">
        <ele>670</ele>
        <time>2016-10-02T16:08:50+02:00</time>
      </trkpt>
      <trkpt lat="45.99014" lon="6.26326">
        <ele>670</ele>
        <time>2016-10-02T16:08:51+02:00</time>
      </trkpt>
      <trkpt lat="45.99015" lon="6.26326">
        <ele>670</ele>
        <time>2016-10-02T16:08:51+02:00</time>
      </trkpt>
      <trkpt lat="45.99016" lon="6.26327">
        <ele>671</ele>
        <time>2016-10-02T16:08:52+02:00</time>
      </trkpt>
      <trkpt lat="45.99016" lon="6.26327">
        <ele>671</ele>
        <time>2016-10-02T16:08:53+02:00</time>
      </trkpt>
      <trkpt lat="45.99017" lon="6.26327">
        <ele>671</ele>
        <time>2016-10-02T16:08:54+02:00</time>
      </trkpt>
      <trkpt lat="45.99018" lon="6.26327">
        <ele>671</ele>
        <time>2016-10-02T16:08:55+02:00</time>
      </trkpt>
      <trkpt lat="45.9902" lon="6.26328">
        <ele>672</ele>
        <time>2016-10-02T16:08:56+02:00</time>
      </trkpt>
      <trkpt lat="45.99021" lon="6.26328">
        <ele>672</ele>
        <time>2016-10-02T16:08:57+02:00</time>
      </trkpt>
      <trkpt lat="45.99022" lon="6.26329">
        <ele>673</ele>
        <time>2016-10-02T16:08:58+02:00</time>
      </trkpt>
      <trkpt lat="45.99023" lon="6.26329">
        <ele>673</ele>
        <time>2016-10-02T16:08:59+02:00</time>
      </trkpt>
      <trkpt lat="45.99024" lon="6.2633">
        <ele>674</ele>
        <time>2016-10-02T16:09:00+02:00</time>
      </trkpt>
      <trkpt lat="45.99025" lon="6.2633">
        <ele>674</ele>
        <time>2016-10-02T16:09:01+02:00</time>
      </trkpt>
      <trkpt lat="45.99026" lon="6.2633">
        <ele>674</ele>
        <time>2016-10-02T16:09:02+02:00</time>
      </trkpt>
      <trkpt lat="45.99027" lon="6.2633">
        <ele>674</ele>
        <time>2016-10-02T16:09:03+02:00</time>
      </trkpt>
      <trkpt lat="45.99029" lon="6.2633">
        <ele>675</ele>
        <time>2016-10-02T16:09:04+02:00</time>
      </trkpt>
      <trkpt lat="45.9903" lon="6.2633">
        <ele>675</ele>
        <time>2016-10-02T16:09:05+02:00</time>
      </trkpt>
      <trkpt lat="45.99031" lon="6.2633">
        <ele>675</ele>
        <time>2016-10-02T16:09:06+02:00</time>
      </trkpt>
      <trkpt lat="45.99032" lon="6.2633">
        <ele>676</ele>
        <time>2016-10-02T16:09:07+02:00</time>
      </trkpt>
      <trkpt lat="45.99033" lon="6.26329">
        <ele>676</ele>
        <time>2016-10-02T16:09:07+02:00</time>
      </trkpt>
      <trkpt lat="45.99034" lon="6.26329">
        <ele>676</ele>
        <time>2016-10-02T16:09:09+02:00</time>
      </trkpt>
      <trkpt lat="45.99035" lon="6.2633">
        <ele>677</ele>
        <time>2016-10-02T16:09:10+02:00</time>
      </trkpt>
      <trkpt lat="45.99037" lon="6.2633">
        <ele>677</ele>
        <time>2016-10-02T16:09:11+02:00</time>
      </trkpt>
      <trkpt lat="45.99038" lon="6.2633">
        <ele>677</ele>
        <time>2016-10-02T16:09:12+02:00</time>
      </trkpt>
      <trkpt lat="45.99039" lon="6.26329">
        <ele>677</ele>
        <time>2016-10-02T16:09:12+02:00</time>
      </trkpt>
      <trkpt lat="45.99039" lon="6.26329">
        <ele>678</ele>
        <time>2016-10-02T16:09:13+02:00</time>
      </trkpt>
      <trkpt lat="45.9904" lon="6.26328">
        <ele>678</ele>
        <time>2016-10-02T16:09:14+02:00</time>
      </trkpt>
      <trkpt lat="45.99041" lon="6.26328">
        <ele>678</ele>
        <time>2016-10-02T16:09:14+02:00</time>
      </trkpt>
      <trkpt lat="45.99041" lon="6.26327">
        <ele>678</ele>
        <time>2016-10-02T16:09:15+02:00</time>
      </trkpt>
      <trkpt lat="45.99043" lon="6.26327">
        <ele>678</ele>
        <time>2016-10-02T16:09:16+02:00</time>
      </trkpt>
      <trkpt lat="45.99044" lon="6.26326">
        <ele>679</ele>
        <time>2016-10-02T16:09:18+02:00</time>
      </trkpt>
      <trkpt lat="45.99046" lon="6.26326">
        <ele>679</ele>
        <time>2016-10-02T16:09:19+02:00</time>
      </trkpt>
      <trkpt lat="45.99047" lon="6.26325">
        <ele>679</ele>
        <time>2016-10-02T16:09:20+02:00</time>
      </trkpt>
      <trkpt lat="45.99049" lon="6.26325">
        <ele>680</ele>
        <time>2016-10-02T16:09:21+02:00</time>
      </trkpt>
      <trkpt lat="45.9905" lon="6.26324">
        <ele>680</ele>
        <time>2016-10-02T16:09:23+02:00</time>
      </trkpt>
      <trkpt lat="45.99052" lon="6.26324">
        <ele>680</ele>
        <time>2016-10-02T16:09:24+02:00</time>
      </trkpt>
      <trkpt lat="45.99053" lon="6.26324">
        <ele>681</ele>
        <time>2016-10-02T16:09:25+02:00</time>
      </trkpt>
      <trkpt lat="45.99054" lon="6.26323">
        <ele>681</ele>
        <time>2016-10-02T16:09:26+02:00</time>
      </trkpt>
      <trkpt lat="45.99056" lon="6.26323">
        <ele>681</ele>
        <time>2016-10-02T16:09:27+02:00</time>
      </trkpt>
      <trkpt lat="45.99057" lon="6.26323">
        <ele>682</ele>
        <time>2016-10-02T16:09:29+02:00</time>
      </trkpt>
      <trkpt lat="45.99059" lon="6.26322">
        <ele>682</ele>
        <time>2016-10-02T16:09:30+02:00</time>
      </trkpt>
      <trkpt lat="45.9906" lon="6.26322">
        <ele>682</ele>
        <time>2016-10-02T16:09:31+02:00</time>
      </trkpt>
      <trkpt lat="45.9906" lon="6.26322">
        <ele>683</ele>
        <time>2016-10-02T16:09:32+02:00</time>
      </trkpt>
      <trkpt lat="45.99061" lon="6.26321">
        <ele>683</ele>
        <time>2016-10-02T16:09:32+02:00</time>
      </trkpt>
      <trkpt lat="45.99062" lon="6.26321">
        <ele>683</ele>
        <time>2016-10-02T16:09:33+02:00</time>
      </trkpt>
      <trkpt lat="45.99063" lon="6.2632">
        <ele>683</ele>
        <time>2016-10-02T16:09:34+02:00</time>
      </trkpt>
      <trkpt lat="45.99064" lon="6.2632">
        <ele>683</ele>
        <time>2016-10-02T16:09:34+02:00</time>
      </trkpt>
      <trkpt lat="45.99064" lon="6.26319">
        <ele>683</ele>
        <time>2016-10-02T16:09:36+02:00</time>
      </trkpt>
      <trkpt lat="45.99065" lon="6.26317">
        <ele>683</ele>
        <time>2016-10-02T16:09:37+02:00</time>
      </trkpt>
      <trkpt lat="45.99066" lon="6.26316">
        <ele>683</ele>
        <time>2016-10-02T16:09:38+02:00</time>
      </trkpt>
      <trkpt lat="45.99067" lon="6.26314">
        <ele>683</ele>
        <time>2016-10-02T16:09:39+02:00</time>
      </trkpt>
      <trkpt lat="45.99068" lon="6.26313">
        <ele>683</ele>
        <time>2016-10-02T16:09:40+02:00</time>
      </trkpt>
      <trkpt lat="45.99069" lon="6.26312">
        <ele>683</ele>
        <time>2016-10-02T16:09:41+02:00</time>
      </trkpt>
      <trkpt lat="45.9907" lon="6.2631">
        <ele>683</ele>
        <time>2016-10-02T16:09:42+02:00</time>
      </trkpt>
      <trkpt lat="45.99072" lon="6.26308">
        <ele>684</ele>
        <time>2016-10-02T16:09:44+02:00</time>
      </trkpt>
      <trkpt lat="45.99073" lon="6.26306">
        <ele>684</ele>
        <time>2016-10-02T16:09:45+02:00</time>
      </trkpt>
      <trkpt lat="45.99073" lon="6.26304">
        <ele>683</ele>
        <time>2016-10-02T16:09:47+02:00</time>
      </trkpt>
      <trkpt lat="45.99074" lon="6.26302">
        <ele>683</ele>
        <time>2016-10-02T16:09:48+02:00</time>
      </trkpt>
      <trkpt lat="45.99075" lon="6.26301">
        <ele>683</ele>
        <time>2016-10-02T16:09:49+02:00</time>
      </trkpt>
      <trkpt lat="45.99076" lon="6.26299">
        <ele>683</ele>
        <time>2016-10-02T16:09:50+02:00</time>
      </trkpt>
      <trkpt lat="45.99076" lon="6.26298">
        <ele>683</ele>
        <time>2016-10-02T16:09:51+02:00</time>
      </trkpt>
      <trkpt lat="45.99077" lon="6.26296">
        <ele>683</ele>
        <time>2016-10-02T16:09:52+02:00</time>
      </trkpt>
      <trkpt lat="45.99078" lon="6.26294">
        <ele>683</ele>
        <time>2016-10-02T16:09:53+02:00</time>
      </trkpt>
      <trkpt lat="45.99079" lon="6.26293">
        <ele>683</ele>
        <time>2016-10-02T16:09:54+02:00</time>
      </trkpt>
      <trkpt lat="45.99079" lon="6.26291">
        <ele>683</ele>
        <time>2016-10-02T16:09:55+02:00</time>
      </trkpt>
      <trkpt lat="45.9908" lon="6.26289">
        <ele>683</ele>
        <time>2016-10-02T16:09:57+02:00</time>
      </trkpt>
      <trkpt lat="45.99081" lon="6.26287">
        <ele>682</ele>
        <time>2016-10-02T16:09:58+02:00</time>
      </trkpt>
      <trkpt lat="45.99081" lon="6.26285">
        <ele>682</ele>
        <time>2016-10-02T16:09:59+02:00</time>
      </trkpt>
      <trkpt lat="45.99082" lon="6.26283">
        <ele>682</ele>
        <time>2016-10-02T16:10:00+02:00</time>
      </trkpt>
      <trkpt lat="45.99083" lon="6.26281">
        <ele>682</ele>
        <time>2016-10-02T16:10:01+02:00</time>
      </trkpt>
      <trkpt lat="45.99083" lon="6.2628">
        <ele>682</ele>
        <time>2016-10-02T16:10:02+02:00</time>
      </trkpt>
      <trkpt lat="45.99084" lon="6.26278">
        <ele>682</ele>
        <time>2016-10-02T16:10:03+02:00</time>
      </trkpt>
      <trkpt lat="45.99084" lon="6.26276">
        <ele>681</ele>
        <time>2016-10-02T16:10:04+02:00</time>
      </trkpt>
      <trkpt lat="45.99084" lon="6.26275">
        <ele>681</ele>
        <time>2016-10-02T16:10:05+02:00</time>
      </trkpt>
      <trkpt lat="45.99084" lon="6.26273">
        <ele>681</ele>
        <time>2016-10-02T16:10:06+02:00</time>
      </trkpt>
      <trkpt lat="45.99085" lon="6.26272">
        <ele>681</ele>
        <time>2016-10-02T16:10:07+02:00</time>
      </trkpt>
      <trkpt lat="45.99085" lon="6.26271">
        <ele>681</ele>
        <time>2016-10-02T16:10:08+02:00</time>
      </trkpt>
      <trkpt lat="45.99086" lon="6.2627">
        <ele>681</ele>
        <time>2016-10-02T16:10:09+02:00</time>
      </trkpt>
      <trkpt lat="45.99087" lon="6.26269">
        <ele>681</ele>
        <time>2016-10-02T16:10:09+02:00</time>
      </trkpt>
      <trkpt lat="45.99087" lon="6.26268">
        <ele>681</ele>
        <time>2016-10-02T16:10:11+02:00</time>
      </trkpt>
      <trkpt lat="45.99088" lon="6.26267">
        <ele>681</ele>
        <time>2016-10-02T16:10:11+02:00</time>
      </trkpt>
      <trkpt lat="45.99089" lon="6.26266">
        <ele>681</ele>
        <time>2016-10-02T16:10:12+02:00</time>
      </trkpt>
      <trkpt lat="45.9909" lon="6.26264">
        <ele>681</ele>
        <time>2016-10-02T16:10:13+02:00</time>
      </trkpt>
      <trkpt lat="45.99091" lon="6.26263">
        <ele>681</ele>
        <time>2016-10-02T16:10:14+02:00</time>
      </trkpt>
      <trkpt lat="45.99092" lon="6.26261">
        <ele>681</ele>
        <time>2016-10-02T16:10:16+02:00</time>
      </trkpt>
      <trkpt lat="45.99093" lon="6.26259">
        <ele>681</ele>
        <time>2016-10-02T16:10:17+02:00</time>
      </trkpt>
      <trkpt lat="45.99094" lon="6.26256">
        <ele>681</ele>
        <time>2016-10-02T16:10:19+02:00</time>
      </trkpt>
      <trkpt lat="45.99096" lon="6.26254">
        <ele>681</ele>
        <time>2016-10-02T16:10:20+02:00</time>
      </trkpt>
      <trkpt lat="45.99097" lon="6.26253">
        <ele>681</ele>
        <time>2016-10-02T16:10:22+02:00</time>
      </trkpt>
      <trkpt lat="45.99098" lon="6.26252">
        <ele>681</ele>
        <time>2016-10-02T16:10:23+02:00</time>
      </trkpt>
      <trkpt lat="45.991" lon="6.26251">
        <ele>681</ele>
        <time>2016-10-02T16:10:25+02:00</time>
      </trkpt>
      <trkpt lat="45.99102" lon="6.2625">
        <ele>681</ele>
        <time>2016-10-02T16:10:26+02:00</time>
      </trkpt>
      <trkpt lat="45.99103" lon="6.26249">
        <ele>682</ele>
        <time>2016-10-02T16:10:28+02:00</time>
      </trkpt>
      <trkpt lat="45.99104" lon="6.26248">
        <ele>682</ele>
        <time>2016-10-02T16:10:29+02:00</time>
      </trkpt>
      <trkpt lat="45.99105" lon="6.26248">
        <ele>682</ele>
        <time>2016-10-02T16:10:30+02:00</time>
      </trkpt>
      <trkpt lat="45.99106" lon="6.26247">
        <ele>682</ele>
        <time>2016-10-02T16:10:31+02:00</time>
      </trkpt>
      <trkpt lat="45.99107" lon="6.26246">
        <ele>682</ele>
        <time>2016-10-02T16:10:32+02:00</time>
      </trkpt>
      <trkpt lat="45.99109" lon="6.26246">
        <ele>682</ele>
        <time>2016-10-02T16:10:32+02:00</time>
      </trkpt>
      <trkpt lat="45.99109" lon="6.26245">
        <ele>683</ele>
        <time>2016-10-02T16:10:33+02:00</time>
      </trkpt>
      <trkpt lat="45.9911" lon="6.26244">
        <ele>683</ele>
        <time>2016-10-02T16:10:34+02:00</time>
      </trkpt>
      <trkpt lat="45.99111" lon="6.26244">
        <ele>683</ele>
        <time>2016-10-02T16:10:35+02:00</time>
      </trkpt>
      <trkpt lat="45.99112" lon="6.26244">
        <ele>683</ele>
        <time>2016-10-02T16:10:36+02:00</time>
      </trkpt>
      <trkpt lat="45.99113" lon="6.26243">
        <ele>683</ele>
        <time>2016-10-02T16:10:37+02:00</time>
      </trkpt>
      <trkpt lat="45.99114" lon="6.26242">
        <ele>683</ele>
        <time>2016-10-02T16:10:37+02:00</time>
      </trkpt>
      <trkpt lat="45.99115" lon="6.26241">
        <ele>683</ele>
        <time>2016-10-02T16:10:38+02:00</time>
      </trkpt>
      <trkpt lat="45.99116" lon="6.2624">
        <ele>684</ele>
        <time>2016-10-02T16:10:40+02:00</time>
      </trkpt>
      <trkpt lat="45.99118" lon="6.2624">
        <ele>684</ele>
        <time>2016-10-02T16:10:41+02:00</time>
      </trkpt>
      <trkpt lat="45.99119" lon="6.2624">
        <ele>684</ele>
        <time>2016-10-02T16:10:42+02:00</time>
      </trkpt>
      <trkpt lat="45.9912" lon="6.2624">
        <ele>684</ele>
        <time>2016-10-02T16:10:43+02:00</time>
      </trkpt>
      <trkpt lat="45.99121" lon="6.2624">
        <ele>685</ele>
        <time>2016-10-02T16:10:44+02:00</time>
      </trkpt>
      <trkpt lat="45.99122" lon="6.2624">
        <ele>685</ele>
        <time>2016-10-02T16:10:45+02:00</time>
      </trkpt>
      <trkpt lat="45.99123" lon="6.26241">
        <ele>685</ele>
        <time>2016-10-02T16:10:46+02:00</time>
      </trkpt>
      <trkpt lat="45.99125" lon="6.26241">
        <ele>686</ele>
        <time>2016-10-02T16:10:47+02:00</time>
      </trkpt>
      <trkpt lat="45.99126" lon="6.26241">
        <ele>686</ele>
        <time>2016-10-02T16:10:48+02:00</time>
      </trkpt>
      <trkpt lat="45.99127" lon="6.26241">
        <ele>686</ele>
        <time>2016-10-02T16:10:49+02:00</time>
      </trkpt>
      <trkpt lat="45.99129" lon="6.26242">
        <ele>687</ele>
        <time>2016-10-02T16:10:50+02:00</time>
      </trkpt>
      <trkpt lat="45.9913" lon="6.26243">
        <ele>687</ele>
        <time>2016-10-02T16:10:52+02:00</time>
      </trkpt>
      <trkpt lat="45.99131" lon="6.26243">
        <ele>688</ele>
        <time>2016-10-02T16:10:53+02:00</time>
      </trkpt>
      <trkpt lat="45.99133" lon="6.26244">
        <ele>688</ele>
        <time>2016-10-02T16:10:54+02:00</time>
      </trkpt>
      <trkpt lat="45.99134" lon="6.26244">
        <ele>688</ele>
        <time>2016-10-02T16:10:55+02:00</time>
      </trkpt>
      <trkpt lat="45.99136" lon="6.26244">
        <ele>689</ele>
        <time>2016-10-02T16:10:56+02:00</time>
      </trkpt>
      <trkpt lat="45.99137" lon="6.26244">
        <ele>689</ele>
        <time>2016-10-02T16:10:58+02:00</time>
      </trkpt>
      <trkpt lat="45.99139" lon="6.26244">
        <ele>690</ele>
        <time>2016-10-02T16:11:00+02:00</time>
      </trkpt>
      <trkpt lat="45.99141" lon="6.26244">
        <ele>690</ele>
        <time>2016-10-02T16:11:01+02:00</time>
      </trkpt>
      <trkpt lat="45.99143" lon="6.26244">
        <ele>690</ele>
        <time>2016-10-02T16:11:02+02:00</time>
      </trkpt>
      <trkpt lat="45.99144" lon="6.26245">
        <ele>691</ele>
        <time>2016-10-02T16:11:04+02:00</time>
      </trkpt>
      <trkpt lat="45.99146" lon="6.26245">
        <ele>691</ele>
        <time>2016-10-02T16:11:05+02:00</time>
      </trkpt>
      <trkpt lat="45.99147" lon="6.26246">
        <ele>692</ele>
        <time>2016-10-02T16:11:06+02:00</time>
      </trkpt>
      <trkpt lat="45.99148" lon="6.26246">
        <ele>692</ele>
        <time>2016-10-02T16:11:07+02:00</time>
      </trkpt>
      <trkpt lat="45.9915" lon="6.26247">
        <ele>693</ele>
        <time>2016-10-02T16:11:09+02:00</time>
      </trkpt>
      <trkpt lat="45.99152" lon="6.26248">
        <ele>693</ele>
        <time>2016-10-02T16:11:10+02:00</time>
      </trkpt>
      <trkpt lat="45.99153" lon="6.26249">
        <ele>694</ele>
        <time>2016-10-02T16:11:11+02:00</time>
      </trkpt>
      <trkpt lat="45.99154" lon="6.26249">
        <ele>694</ele>
        <time>2016-10-02T16:11:13+02:00</time>
      </trkpt>
      <trkpt lat="45.99156" lon="6.26249">
        <ele>694</ele>
        <time>2016-10-02T16:11:14+02:00</time>
      </trkpt>
      <trkpt lat="45.99157" lon="6.26248">
        <ele>694</ele>
        <time>2016-10-02T16:11:15+02:00</time>
      </trkpt>
      <trkpt lat="45.99159" lon="6.26248">
        <ele>695</ele>
        <time>2016-10-02T16:11:16+02:00</time>
      </trkpt>
      <trkpt lat="45.9916" lon="6.26247">
        <ele>695</ele>
        <time>2016-10-02T16:11:18+02:00</time>
      </trkpt>
      <trkpt lat="45.99161" lon="6.26247">
        <ele>695</ele>
        <time>2016-10-02T16:11:19+02:00</time>
      </trkpt>
      <trkpt lat="45.99162" lon="6.26246">
        <ele>695</ele>
        <time>2016-10-02T16:11:19+02:00</time>
      </trkpt>
      <trkpt lat="45.99164" lon="6.26246">
        <ele>696</ele>
        <time>2016-10-02T16:11:21+02:00</time>
      </trkpt>
      <trkpt lat="45.99165" lon="6.26245">
        <ele>696</ele>
        <time>2016-10-02T16:11:22+02:00</time>
      </trkpt>
      <trkpt lat="45.99166" lon="6.26245">
        <ele>696</ele>
        <time>2016-10-02T16:11:23+02:00</time>
      </trkpt>
      <trkpt lat="45.99167" lon="6.26245">
        <ele>696</ele>
        <time>2016-10-02T16:11:24+02:00</time>
      </trkpt>
      <trkpt lat="45.99168" lon="6.26244">
        <ele>696</ele>
        <time>2016-10-02T16:11:25+02:00</time>
      </trkpt>
      <trkpt lat="45.99169" lon="6.26244">
        <ele>697</ele>
        <time>2016-10-02T16:11:25+02:00</time>
      </trkpt>
      <trkpt lat="45.9917" lon="6.26243">
        <ele>697</ele>
        <time>2016-10-02T16:11:26+02:00</time>
      </trkpt>
      <trkpt lat="45.9917" lon="6.26243">
        <ele>697</ele>
        <time>2016-10-02T16:11:26+02:00</time>
      </trkpt>
      <trkpt lat="45.99171" lon="6.26242">
        <ele>697</ele>
        <time>2016-10-02T16:11:27+02:00</time>
      </trkpt>
      <trkpt lat="45.99172" lon="6.26241">
        <ele>697</ele>
        <time>2016-10-02T16:11:28+02:00</time>
      </trkpt>
      <trkpt lat="45.99174" lon="6.26239">
        <ele>697</ele>
        <time>2016-10-02T16:11:30+02:00</time>
      </trkpt>
      <trkpt lat="45.99176" lon="6.26238">
        <ele>698</ele>
        <time>2016-10-02T16:11:32+02:00</time>
      </trkpt>
      <trkpt lat="45.99179" lon="6.26237">
        <ele>698</ele>
        <time>2016-10-02T16:11:34+02:00</time>
      </trkpt>
      <trkpt lat="45.99181" lon="6.26235">
        <ele>699</ele>
        <time>2016-10-02T16:11:36+02:00</time>
      </trkpt>
      <trkpt lat="45.99183" lon="6.26234">
        <ele>699</ele>
        <time>2016-10-02T16:11:38+02:00</time>
      </trkpt>
      <trkpt lat="45.99185" lon="6.26233">
        <ele>699</ele>
        <time>2016-10-02T16:11:40+02:00</time>
      </trkpt>
      <trkpt lat="45.99187" lon="6.26232">
        <ele>700</ele>
        <time>2016-10-02T16:11:41+02:00</time>
      </trkpt>
      <trkpt lat="45.99189" lon="6.26231">
        <ele>700</ele>
        <time>2016-10-02T16:11:43+02:00</time>
      </trkpt>
      <trkpt lat="45.99191" lon="6.26229">
        <ele>700</ele>
        <time>2016-10-02T16:11:45+02:00</time>
      </trkpt>
      <trkpt lat="45.99193" lon="6.26227">
        <ele>701</ele>
        <time>2016-10-02T16:11:47+02:00</time>
      </trkpt>
      <trkpt lat="45.99194" lon="6.26225">
        <ele>701</ele>
        <time>2016-10-02T16:11:48+02:00</time>
      </trkpt>
      <trkpt lat="45.99196" lon="6.26224">
        <ele>701</ele>
        <time>2016-10-02T16:11:50+02:00</time>
      </trkpt>
      <trkpt lat="45.99197" lon="6.26223">
        <ele>701</ele>
        <time>2016-10-02T16:11:51+02:00</time>
      </trkpt>
      <trkpt lat="45.99198" lon="6.26222">
        <ele>701</ele>
        <time>2016-10-02T16:11:52+02:00</time>
      </trkpt>
      <trkpt lat="45.992" lon="6.26221">
        <ele>701</ele>
        <time>2016-10-02T16:11:54+02:00</time>
      </trkpt>
      <trkpt lat="45.99202" lon="6.26219">
        <ele>702</ele>
        <time>2016-10-02T16:11:56+02:00</time>
      </trkpt>
      <trkpt lat="45.99204" lon="6.26218">
        <ele>702</ele>
        <time>2016-10-02T16:11:57+02:00</time>
      </trkpt>
      <trkpt lat="45.99206" lon="6.26217">
        <ele>702</ele>
        <time>2016-10-02T16:11:59+02:00</time>
      </trkpt>
      <trkpt lat="45.99207" lon="6.26215">
        <ele>703</ele>
        <time>2016-10-02T16:12:00+02:00</time>
      </trkpt>
      <trkpt lat="45.99209" lon="6.26213">
        <ele>703</ele>
        <time>2016-10-02T16:12:02+02:00</time>
      </trkpt>
      <trkpt lat="45.99211" lon="6.26211">
        <ele>703</ele>
        <time>2016-10-02T16:12:04+02:00</time>
      </trkpt>
      <trkpt lat="45.99213" lon="6.26209">
        <ele>703</ele>
        <time>2016-10-02T16:12:06+02:00</time>
      </trkpt>
      <trkpt lat="45.99215" lon="6.26207">
        <ele>703</ele>
        <time>2016-10-02T16:12:08+02:00</time>
      </trkpt>
      <trkpt lat="45.99217" lon="6.26205">
        <ele>704</ele>
        <time>2016-10-02T16:12:10+02:00</time>
      </trkpt>
      <trkpt lat="45.99219" lon="6.26204">
        <ele>704</ele>
        <time>2016-10-02T16:12:12+02:00</time>
      </trkpt>
      <trkpt lat="45.99221" lon="6.26202">
        <ele>704</ele>
        <time>2016-10-02T16:12:14+02:00</time>
      </trkpt>
      <trkpt lat="45.99224" lon="6.262">
        <ele>705</ele>
        <time>2016-10-02T16:12:16+02:00</time>
      </trkpt>
      <trkpt lat="45.99226" lon="6.26199">
        <ele>705</ele>
        <time>2016-10-02T16:12:18+02:00</time>
      </trkpt>
      <trkpt lat="45.99228" lon="6.26198">
        <ele>705</ele>
        <time>2016-10-02T16:12:19+02:00</time>
      </trkpt>
      <trkpt lat="45.99229" lon="6.26197">
        <ele>706</ele>
        <time>2016-10-02T16:12:21+02:00</time>
      </trkpt>
      <trkpt lat="45.99232" lon="6.26196">
        <ele>706</ele>
        <time>2016-10-02T16:12:23+02:00</time>
      </trkpt>
      <trkpt lat="45.99234" lon="6.26195">
        <ele>706</ele>
        <time>2016-10-02T16:12:25+02:00</time>
      </trkpt>
      <trkpt lat="45.99236" lon="6.26194">
        <ele>707</ele>
        <time>2016-10-02T16:12:27+02:00</time>
      </trkpt>
      <trkpt lat="45.99238" lon="6.26193">
        <ele>707</ele>
        <time>2016-10-02T16:12:28+02:00</time>
      </trkpt>
      <trkpt lat="45.9924" lon="6.26192">
        <ele>707</ele>
        <time>2016-10-02T16:12:30+02:00</time>
      </trkpt>
      <trkpt lat="45.99241" lon="6.2619">
        <ele>708</ele>
        <time>2016-10-02T16:12:31+02:00</time>
      </trkpt>
      <trkpt lat="45.99243" lon="6.26189">
        <ele>708</ele>
        <time>2016-10-02T16:12:33+02:00</time>
      </trkpt>
      <trkpt lat="45.99244" lon="6.26188">
        <ele>708</ele>
        <time>2016-10-02T16:12:34+02:00</time>
      </trkpt>
      <trkpt lat="45.99246" lon="6.26187">
        <ele>708</ele>
        <time>2016-10-02T16:12:35+02:00</time>
      </trkpt>
      <trkpt lat="45.99247" lon="6.26186">
        <ele>708</ele>
        <time>2016-10-02T16:12:36+02:00</time>
      </trkpt>
      <trkpt lat="45.99248" lon="6.26185">
        <ele>709</ele>
        <time>2016-10-02T16:12:37+02:00</time>
      </trkpt>
      <trkpt lat="45.9925" lon="6.26184">
        <ele>709</ele>
        <time>2016-10-02T16:12:39+02:00</time>
      </trkpt>
      <trkpt lat="45.9925" lon="6.26184">
        <ele>709</ele>
        <time>2016-10-02T16:12:39+02:00</time>
      </trkpt>
      <trkpt lat="45.99251" lon="6.26183">
        <ele>709</ele>
        <time>2016-10-02T16:12:40+02:00</time>
      </trkpt>
      <trkpt lat="45.99251" lon="6.26183">
        <ele>709</ele>
        <time>2016-10-02T16:12:40+02:00</time>
      </trkpt>
      <trkpt lat="45.99252" lon="6.26182">
        <ele>709</ele>
        <time>2016-10-02T16:12:41+02:00</time>
      </trkpt>
      <trkpt lat="45.99253" lon="6.26182">
        <ele>709</ele>
        <time>2016-10-02T16:12:42+02:00</time>
      </trkpt>
      <trkpt lat="45.99253" lon="6.26181">
        <ele>709</ele>
        <time>2016-10-02T16:12:42+02:00</time>
      </trkpt>
      <trkpt lat="45.99253" lon="6.2618">
        <ele>709</ele>
        <time>2016-10-02T16:12:42+02:00</time>
      </trkpt>
      <trkpt lat="45.99254" lon="6.2618">
        <ele>709</ele>
        <time>2016-10-02T16:12:43+02:00</time>
      </trkpt>
      <trkpt lat="45.99254" lon="6.2618">
        <ele>709</ele>
        <time>2016-10-02T16:12:43+02:00</time>
      </trkpt>
      <trkpt lat="45.99254" lon="6.2618">
        <ele>709</ele>
        <time>2016-10-02T16:12:43+02:00</time>
      </trkpt>
      <trkpt lat="45.99255" lon="6.2618">
        <ele>709</ele>
        <time>2016-10-02T16:12:44+02:00</time>
      </trkpt>
      <trkpt lat="45.99255" lon="6.26179">
        <ele>709</ele>
        <time>2016-10-02T16:12:44+02:00</time>
      </trkpt>
      <trkpt lat="45.99256" lon="6.26179">
        <ele>709</ele>
        <time>2016-10-02T16:12:44+02:00</time>
      </trkpt>
      <trkpt lat="45.99256" lon="6.26179">
        <ele>709</ele>
        <time>2016-10-02T16:12:45+02:00</time>
      </trkpt>
      <trkpt lat="45.99256" lon="6.26179">
        <ele>709</ele>
        <time>2016-10-02T16:12:45+02:00</time>
      </trkpt>
      <trkpt lat="45.99256" lon="6.26179">
        <ele>709</ele>
        <time>2016-10-02T16:12:45+02:00</time>
      </trkpt>
      <trkpt lat="45.99256" lon="6.26179">
        <ele>710</ele>
        <time>2016-10-02T16:12:46+02:00</time>
      </trkpt>
      <trkpt lat="45.99257" lon="6.26179">
        <ele>710</ele>
        <time>2016-10-02T16:12:46+02:00</time>
      </trkpt>
      <trkpt lat="45.99257" lon="6.26179">
        <ele>710</ele>
        <time>2016-10-02T16:12:46+02:00</time>
      </trkpt>
      <trkpt lat="45.99258" lon="6.26179">
        <ele>710</ele>
        <time>2016-10-02T16:12:47+02:00</time>
      </trkpt>
      <trkpt lat="45.99259" lon="6.26178">
        <ele>710</ele>
        <time>2016-10-02T16:12:48+02:00</time>
      </trkpt>
      <trkpt lat="45.9926" lon="6.26177">
        <ele>710</ele>
        <time>2016-10-02T16:12:49+02:00</time>
      </trkpt>
      <trkpt lat="45.99261" lon="6.26176">
        <ele>710</ele>
        <time>2016-10-02T16:12:49+02:00</time>
      </trkpt>
      <trkpt lat="45.99262" lon="6.26175">
        <ele>710</ele>
        <time>2016-10-02T16:12:50+02:00</time>
      </trkpt>
      <trkpt lat="45.99263" lon="6.26174">
        <ele>710</ele>
        <time>2016-10-02T16:12:51+02:00</time>
      </trkpt>
      <trkpt lat="45.99263" lon="6.26173">
        <ele>710</ele>
        <time>2016-10-02T16:12:52+02:00</time>
      </trkpt>
      <trkpt lat="45.99264" lon="6.26172">
        <ele>710</ele>
        <time>2016-10-02T16:12:53+02:00</time>
      </trkpt>
      <trkpt lat="45.99265" lon="6.26171">
        <ele>710</ele>
        <time>2016-10-02T16:12:54+02:00</time>
      </trkpt>
      <trkpt lat="45.99267" lon="6.26169">
        <ele>711</ele>
        <time>2016-10-02T16:12:56+02:00</time>
      </trkpt>
      <trkpt lat="45.99269" lon="6.26168">
        <ele>711</ele>
        <time>2016-10-02T16:12:58+02:00</time>
      </trkpt>
      <trkpt lat="45.9927" lon="6.26166">
        <ele>711</ele>
        <time>2016-10-02T16:12:59+02:00</time>
      </trkpt>
      <trkpt lat="45.99272" lon="6.26164">
        <ele>711</ele>
        <time>2016-10-02T16:13:01+02:00</time>
      </trkpt>
      <trkpt lat="45.99274" lon="6.26162">
        <ele>711</ele>
        <time>2016-10-02T16:13:03+02:00</time>
      </trkpt>
      <trkpt lat="45.99276" lon="6.26161">
        <ele>711</ele>
        <time>2016-10-02T16:13:05+02:00</time>
      </trkpt>
      <trkpt lat="45.99278" lon="6.26159">
        <ele>711</ele>
        <time>2016-10-02T16:13:07+02:00</time>
      </trkpt>
      <trkpt lat="45.9928" lon="6.26157">
        <ele>711</ele>
        <time>2016-10-02T16:13:09+02:00</time>
      </trkpt>
      <trkpt lat="45.99283" lon="6.26156">
        <ele>712</ele>
        <time>2016-10-02T16:13:11+02:00</time>
      </trkpt>
      <trkpt lat="45.99284" lon="6.26154">
        <ele>712</ele>
        <time>2016-10-02T16:13:13+02:00</time>
      </trkpt>
      <trkpt lat="45.99286" lon="6.26152">
        <ele>712</ele>
        <time>2016-10-02T16:13:14+02:00</time>
      </trkpt>
      <trkpt lat="45.99288" lon="6.26149">
        <ele>712</ele>
        <time>2016-10-02T16:13:17+02:00</time>
      </trkpt>
      <trkpt lat="45.9929" lon="6.26147">
        <ele>712</ele>
        <time>2016-10-02T16:13:19+02:00</time>
      </trkpt>
      <trkpt lat="45.99292" lon="6.26144">
        <ele>712</ele>
        <time>2016-10-02T16:13:21+02:00</time>
      </trkpt>
      <trkpt lat="45.99294" lon="6.26141">
        <ele>711</ele>
        <time>2016-10-02T16:13:23+02:00</time>
      </trkpt>
      <trkpt lat="45.99296" lon="6.26138">
        <ele>711</ele>
        <time>2016-10-02T16:13:25+02:00</time>
      </trkpt>
      <trkpt lat="45.99298" lon="6.26135">
        <ele>711</ele>
        <time>2016-10-02T16:13:27+02:00</time>
      </trkpt>
      <trkpt lat="45.993" lon="6.26133">
        <ele>711</ele>
        <time>2016-10-02T16:13:30+02:00</time>
      </trkpt>
      <trkpt lat="45.99302" lon="6.2613">
        <ele>711</ele>
        <time>2016-10-02T16:13:32+02:00</time>
      </trkpt>
      <trkpt lat="45.99304" lon="6.26128">
        <ele>711</ele>
        <time>2016-10-02T16:13:34+02:00</time>
      </trkpt>
      <trkpt lat="45.99306" lon="6.26125">
        <ele>711</ele>
        <time>2016-10-02T16:13:36+02:00</time>
      </trkpt>
      <trkpt lat="45.99309" lon="6.26123">
        <ele>712</ele>
        <time>2016-10-02T16:13:39+02:00</time>
      </trkpt>
      <trkpt lat="45.99311" lon="6.26121">
        <ele>712</ele>
        <time>2016-10-02T16:13:41+02:00</time>
      </trkpt>
      <trkpt lat="45.99314" lon="6.2612">
        <ele>712</ele>
        <time>2016-10-02T16:13:43+02:00</time>
      </trkpt>
      <trkpt lat="45.99316" lon="6.26118">
        <ele>712</ele>
        <time>2016-10-02T16:13:45+02:00</time>
      </trkpt>
      <trkpt lat="45.99318" lon="6.26116">
        <ele>713</ele>
        <time>2016-10-02T16:13:47+02:00</time>
      </trkpt>
      <trkpt lat="45.9932" lon="6.26114">
        <ele>713</ele>
        <time>2016-10-02T16:13:50+02:00</time>
      </trkpt>
      <trkpt lat="45.99322" lon="6.26111">
        <ele>713</ele>
        <time>2016-10-02T16:13:52+02:00</time>
      </trkpt>
      <trkpt lat="45.99324" lon="6.26108">
        <ele>713</ele>
        <time>2016-10-02T16:13:54+02:00</time>
      </trkpt>
      <trkpt lat="45.99326" lon="6.26106">
        <ele>713</ele>
        <time>2016-10-02T16:13:56+02:00</time>
      </trkpt>
      <trkpt lat="45.99329" lon="6.26104">
        <ele>713</ele>
        <time>2016-10-02T16:13:58+02:00</time>
      </trkpt>
      <trkpt lat="45.99331" lon="6.26102">
        <ele>713</ele>
        <time>2016-10-02T16:14:00+02:00</time>
      </trkpt>
      <trkpt lat="45.99333" lon="6.261">
        <ele>713</ele>
        <time>2016-10-02T16:14:02+02:00</time>
      </trkpt>
      <trkpt lat="45.99335" lon="6.26097">
        <ele>713</ele>
        <time>2016-10-02T16:14:05+02:00</time>
      </trkpt>
      <trkpt lat="45.99338" lon="6.26094">
        <ele>713</ele>
        <time>2016-10-02T16:14:07+02:00</time>
      </trkpt>
      <trkpt lat="45.9934" lon="6.26091">
        <ele>712</ele>
        <time>2016-10-02T16:14:10+02:00</time>
      </trkpt>
      <trkpt lat="45.99342" lon="6.26088">
        <ele>712</ele>
        <time>2016-10-02T16:14:12+02:00</time>
      </trkpt>
      <trkpt lat="45.99344" lon="6.26086">
        <ele>712</ele>
        <time>2016-10-02T16:14:14+02:00</time>
      </trkpt>
      <trkpt lat="45.99346" lon="6.26083">
        <ele>712</ele>
        <time>2016-10-02T16:14:16+02:00</time>
      </trkpt>
      <trkpt lat="45.99348" lon="6.26081">
        <ele>711</ele>
        <time>2016-10-02T16:14:19+02:00</time>
      </trkpt>
      <trkpt lat="45.99351" lon="6.26077">
        <ele>711</ele>
        <time>2016-10-02T16:14:21+02:00</time>
      </trkpt>
      <trkpt lat="45.99353" lon="6.26074">
        <ele>711</ele>
        <time>2016-10-02T16:14:24+02:00</time>
      </trkpt>
      <trkpt lat="45.99355" lon="6.26071">
        <ele>710</ele>
        <time>2016-10-02T16:14:26+02:00</time>
      </trkpt>
      <trkpt lat="45.99358" lon="6.26069">
        <ele>710</ele>
        <time>2016-10-02T16:14:29+02:00</time>
      </trkpt>
      <trkpt lat="45.9936" lon="6.26067">
        <ele>710</ele>
        <time>2016-10-02T16:14:31+02:00</time>
      </trkpt>
      <trkpt lat="45.99362" lon="6.26065">
        <ele>710</ele>
        <time>2016-10-02T16:14:33+02:00</time>
      </trkpt>
      <trkpt lat="45.99365" lon="6.26063">
        <ele>710</ele>
        <time>2016-10-02T16:14:35+02:00</time>
      </trkpt>
      <trkpt lat="45.99367" lon="6.26061">
        <ele>710</ele>
        <time>2016-10-02T16:14:38+02:00</time>
      </trkpt>
      <trkpt lat="45.99369" lon="6.26058">
        <ele>710</ele>
        <time>2016-10-02T16:14:40+02:00</time>
      </trkpt>
      <trkpt lat="45.99371" lon="6.26055">
        <ele>709</ele>
        <time>2016-10-02T16:14:42+02:00</time>
      </trkpt>
      <trkpt lat="45.99372" lon="6.26051">
        <ele>709</ele>
        <time>2016-10-02T16:14:44+02:00</time>
      </trkpt>
      <trkpt lat="45.99374" lon="6.26048">
        <ele>708</ele>
        <time>2016-10-02T16:14:47+02:00</time>
      </trkpt>
      <trkpt lat="45.99375" lon="6.26044">
        <ele>708</ele>
        <time>2016-10-02T16:14:49+02:00</time>
      </trkpt>
      <trkpt lat="45.99377" lon="6.26041">
        <ele>707</ele>
        <time>2016-10-02T16:14:51+02:00</time>
      </trkpt>
      <trkpt lat="45.99379" lon="6.26038">
        <ele>707</ele>
        <time>2016-10-02T16:14:54+02:00</time>
      </trkpt>
      <trkpt lat="45.99381" lon="6.26034">
        <ele>706</ele>
        <time>2016-10-02T16:14:56+02:00</time>
      </trkpt>
      <trkpt lat="45.99382" lon="6.26031">
        <ele>706</ele>
        <time>2016-10-02T16:14:58+02:00</time>
      </trkpt>
      <trkpt lat="45.99383" lon="6.26028">
        <ele>705</ele>
        <time>2016-10-02T16:15:00+02:00</time>
      </trkpt>
      <trkpt lat="45.99384" lon="6.26024">
        <ele>705</ele>
        <time>2016-10-02T16:15:02+02:00</time>
      </trkpt>
      <trkpt lat="45.99385" lon="6.26021">
        <ele>704</ele>
        <time>2016-10-02T16:15:04+02:00</time>
      </trkpt>
      <trkpt lat="45.99385" lon="6.26018">
        <ele>704</ele>
        <time>2016-10-02T16:15:06+02:00</time>
      </trkpt>
      <trkpt lat="45.99385" lon="6.26015">
        <ele>703</ele>
        <time>2016-10-02T16:15:08+02:00</time>
      </trkpt>
      <trkpt lat="45.99385" lon="6.26012">
        <ele>703</ele>
        <time>2016-10-02T16:15:09+02:00</time>
      </trkpt>
      <trkpt lat="45.99386" lon="6.26009">
        <ele>702</ele>
        <time>2016-10-02T16:15:12+02:00</time>
      </trkpt>
      <trkpt lat="45.99386" lon="6.26005">
        <ele>701</ele>
        <time>2016-10-02T16:15:14+02:00</time>
      </trkpt>
      <trkpt lat="45.99386" lon="6.26002">
        <ele>701</ele>
        <time>2016-10-02T16:15:15+02:00</time>
      </trkpt>
      <trkpt lat="45.99386" lon="6.25999">
        <ele>700</ele>
        <time>2016-10-02T16:15:17+02:00</time>
      </trkpt>
      <trkpt lat="45.99386" lon="6.25997">
        <ele>700</ele>
        <time>2016-10-02T16:15:18+02:00</time>
      </trkpt>
      <trkpt lat="45.99386" lon="6.25994">
        <ele>700</ele>
        <time>2016-10-02T16:15:20+02:00</time>
      </trkpt>
      <trkpt lat="45.99387" lon="6.25991">
        <ele>699</ele>
        <time>2016-10-02T16:15:22+02:00</time>
      </trkpt>
      <trkpt lat="45.99388" lon="6.25988">
        <ele>699</ele>
        <time>2016-10-02T16:15:23+02:00</time>
      </trkpt>
      <trkpt lat="45.99389" lon="6.25985">
        <ele>699</ele>
        <time>2016-10-02T16:15:25+02:00</time>
      </trkpt>
      <trkpt lat="45.99391" lon="6.25983">
        <ele>699</ele>
        <time>2016-10-02T16:15:27+02:00</time>
      </trkpt>
      <trkpt lat="45.99392" lon="6.25979">
        <ele>698</ele>
        <time>2016-10-02T16:15:29+02:00</time>
      </trkpt>
      <trkpt lat="45.99392" lon="6.25977">
        <ele>698</ele>
        <time>2016-10-02T16:15:31+02:00</time>
      </trkpt>
      <trkpt lat="45.99393" lon="6.25974">
        <ele>698</ele>
        <time>2016-10-02T16:15:32+02:00</time>
      </trkpt>
      <trkpt lat="45.99393" lon="6.25971">
        <ele>697</ele>
        <time>2016-10-02T16:15:34+02:00</time>
      </trkpt>
      <trkpt lat="45.99394" lon="6.25968">
        <ele>697</ele>
        <time>2016-10-02T16:15:36+02:00</time>
      </trkpt>
      <trkpt lat="45.99394" lon="6.25964">
        <ele>696</ele>
        <time>2016-10-02T16:15:38+02:00</time>
      </trkpt>
      <trkpt lat="45.99394" lon="6.25961">
        <ele>696</ele>
        <time>2016-10-02T16:15:40+02:00</time>
      </trkpt>
      <trkpt lat="45.99394" lon="6.25958">
        <ele>696</ele>
        <time>2016-10-02T16:15:42+02:00</time>
      </trkpt>
      <trkpt lat="45.99395" lon="6.25956">
        <ele>695</ele>
        <time>2016-10-02T16:15:43+02:00</time>
      </trkpt>
      <trkpt lat="45.99395" lon="6.25952">
        <ele>695</ele>
        <time>2016-10-02T16:15:45+02:00</time>
      </trkpt>
      <trkpt lat="45.99395" lon="6.25949">
        <ele>695</ele>
        <time>2016-10-02T16:15:47+02:00</time>
      </trkpt>
      <trkpt lat="45.99395" lon="6.25945">
        <ele>694</ele>
        <time>2016-10-02T16:15:49+02:00</time>
      </trkpt>
      <trkpt lat="45.99396" lon="6.25941">
        <ele>694</ele>
        <time>2016-10-02T16:15:51+02:00</time>
      </trkpt>
      <trkpt lat="45.99397" lon="6.25937">
        <ele>693</ele>
        <time>2016-10-02T16:15:54+02:00</time>
      </trkpt>
      <trkpt lat="45.99398" lon="6.25933">
        <ele>693</ele>
        <time>2016-10-02T16:15:56+02:00</time>
      </trkpt>
      <trkpt lat="45.99398" lon="6.25929">
        <ele>692</ele>
        <time>2016-10-02T16:15:59+02:00</time>
      </trkpt>
      <trkpt lat="45.99397" lon="6.25924">
        <ele>692</ele>
        <time>2016-10-02T16:16:01+02:00</time>
      </trkpt>
      <trkpt lat="45.99396" lon="6.25919">
        <ele>691</ele>
        <time>2016-10-02T16:16:04+02:00</time>
      </trkpt>
      <trkpt lat="45.99396" lon="6.25915">
        <ele>690</ele>
        <time>2016-10-02T16:16:06+02:00</time>
      </trkpt>
      <trkpt lat="45.99396" lon="6.25912">
        <ele>690</ele>
        <time>2016-10-02T16:16:08+02:00</time>
      </trkpt>
      <trkpt lat="45.99397" lon="6.25908">
        <ele>690</ele>
        <time>2016-10-02T16:16:11+02:00</time>
      </trkpt>
      <trkpt lat="45.99398" lon="6.25905">
        <ele>689</ele>
        <time>2016-10-02T16:16:13+02:00</time>
      </trkpt>
      <trkpt lat="45.99399" lon="6.25901">
        <ele>689</ele>
        <time>2016-10-02T16:16:15+02:00</time>
      </trkpt>
      <trkpt lat="45.99399" lon="6.25897">
        <ele>689</ele>
        <time>2016-10-02T16:16:17+02:00</time>
      </trkpt>
      <trkpt lat="45.994" lon="6.25893">
        <ele>689</ele>
        <time>2016-10-02T16:16:19+02:00</time>
      </trkpt>
      <trkpt lat="45.99401" lon="6.25889">
        <ele>688</ele>
        <time>2016-10-02T16:16:22+02:00</time>
      </trkpt>
      <trkpt lat="45.99403" lon="6.25885">
        <ele>688</ele>
        <time>2016-10-02T16:16:24+02:00</time>
      </trkpt>
      <trkpt lat="45.99404" lon="6.25881">
        <ele>688</ele>
        <time>2016-10-02T16:16:27+02:00</time>
      </trkpt>
      <trkpt lat="45.99405" lon="6.25877">
        <ele>687</ele>
        <time>2016-10-02T16:16:29+02:00</time>
      </trkpt>
      <trkpt lat="45.99406" lon="6.25873">
        <ele>687</ele>
        <time>2016-10-02T16:16:32+02:00</time>
      </trkpt>
      <trkpt lat="45.99407" lon="6.25868">
        <ele>687</ele>
        <time>2016-10-02T16:16:35+02:00</time>
      </trkpt>
      <trkpt lat="45.99409" lon="6.25862">
        <ele>686</ele>
        <time>2016-10-02T16:16:38+02:00</time>
      </trkpt>
      <trkpt lat="45.99411" lon="6.25857">
        <ele>686</ele>
        <time>2016-10-02T16:16:42+02:00</time>
      </trkpt>
      <trkpt lat="45.99412" lon="6.25852">
        <ele>686</ele>
        <time>2016-10-02T16:16:44+02:00</time>
      </trkpt>
      <trkpt lat="45.99413" lon="6.25848">
        <ele>685</ele>
        <time>2016-10-02T16:16:47+02:00</time>
      </trkpt>
      <trkpt lat="45.99414" lon="6.25844">
        <ele>685</ele>
        <time>2016-10-02T16:16:49+02:00</time>
      </trkpt>
      <trkpt lat="45.99415" lon="6.25839">
        <ele>684</ele>
        <time>2016-10-02T16:16:52+02:00</time>
      </trkpt>
      <trkpt lat="45.99416" lon="6.25834">
        <ele>684</ele>
        <time>2016-10-02T16:16:55+02:00</time>
      </trkpt>
      <trkpt lat="45.99418" lon="6.25829">
        <ele>684</ele>
        <time>2016-10-02T16:16:58+02:00</time>
      </trkpt>
      <trkpt lat="45.99419" lon="6.25825">
        <ele>683</ele>
        <time>2016-10-02T16:17:01+02:00</time>
      </trkpt>
      <trkpt lat="45.9942" lon="6.2582">
        <ele>683</ele>
        <time>2016-10-02T16:17:04+02:00</time>
      </trkpt>
      <trkpt lat="45.99421" lon="6.25815">
        <ele>683</ele>
        <time>2016-10-02T16:17:07+02:00</time>
      </trkpt>
      <trkpt lat="45.99422" lon="6.2581">
        <ele>682</ele>
        <time>2016-10-02T16:17:09+02:00</time>
      </trkpt>
      <trkpt lat="45.99423" lon="6.25805">
        <ele>682</ele>
        <time>2016-10-02T16:17:12+02:00</time>
      </trkpt>
      <trkpt lat="45.99425" lon="6.258">
        <ele>682</ele>
        <time>2016-10-02T16:17:15+02:00</time>
      </trkpt>
      <trkpt lat="45.99426" lon="6.25795">
        <ele>681</ele>
        <time>2016-10-02T16:17:18+02:00</time>
      </trkpt>
      <trkpt lat="45.99428" lon="6.25791">
        <ele>681</ele>
        <time>2016-10-02T16:17:21+02:00</time>
      </trkpt>
      <trkpt lat="45.99429" lon="6.25786">
        <ele>681</ele>
        <time>2016-10-02T16:17:24+02:00</time>
      </trkpt>
      <trkpt lat="45.9943" lon="6.25781">
        <ele>680</ele>
        <time>2016-10-02T16:17:27+02:00</time>
      </trkpt>
      <trkpt lat="45.99432" lon="6.25777">
        <ele>680</ele>
        <time>2016-10-02T16:17:30+02:00</time>
      </trkpt>
      <trkpt lat="45.99433" lon="6.25772">
        <ele>679</ele>
        <time>2016-10-02T16:17:32+02:00</time>
      </trkpt>
      <trkpt lat="45.99435" lon="6.25769">
        <ele>679</ele>
        <time>2016-10-02T16:17:35+02:00</time>
      </trkpt>
      <trkpt lat="45.99437" lon="6.25765">
        <ele>679</ele>
        <time>2016-10-02T16:17:37+02:00</time>
      </trkpt>
      <trkpt lat="45.99438" lon="6.25761">
        <ele>679</ele>
        <time>2016-10-02T16:17:40+02:00</time>
      </trkpt>
      <trkpt lat="45.9944" lon="6.25757">
        <ele>678</ele>
        <time>2016-10-02T16:17:43+02:00</time>
      </trkpt>
      <trkpt lat="45.99442" lon="6.25753">
        <ele>678</ele>
        <time>2016-10-02T16:17:45+02:00</time>
      </trkpt>
      <trkpt lat="45.99443" lon="6.25748">
        <ele>678</ele>
        <time>2016-10-02T16:17:48+02:00</time>
      </trkpt>
      <trkpt lat="45.99444" lon="6.25743">
        <ele>677</ele>
        <time>2016-10-02T16:17:51+02:00</time>
      </trkpt>
      <trkpt lat="45.99445" lon="6.25738">
        <ele>677</ele>
        <time>2016-10-02T16:17:54+02:00</time>
      </trkpt>
      <trkpt lat="45.99446" lon="6.25734">
        <ele>676</ele>
        <time>2016-10-02T16:17:56+02:00</time>
      </trkpt>
      <trkpt lat="45.99448" lon="6.2573">
        <ele>676</ele>
        <time>2016-10-02T16:17:59+02:00</time>
      </trkpt>
      <trkpt lat="45.9945" lon="6.25727">
        <ele>676</ele>
        <time>2016-10-02T16:18:01+02:00</time>
      </trkpt>
      <trkpt lat="45.99452" lon="6.25724">
        <ele>675</ele>
        <time>2016-10-02T16:18:04+02:00</time>
      </trkpt>
      <trkpt lat="45.99453" lon="6.2572">
        <ele>675</ele>
        <time>2016-10-02T16:18:06+02:00</time>
      </trkpt>
      <trkpt lat="45.99454" lon="6.25717">
        <ele>675</ele>
        <time>2016-10-02T16:18:08+02:00</time>
      </trkpt>
      <trkpt lat="45.99455" lon="6.25713">
        <ele>674</ele>
        <time>2016-10-02T16:18:10+02:00</time>
      </trkpt>
      <trkpt lat="45.99456" lon="6.25709">
        <ele>674</ele>
        <time>2016-10-02T16:18:13+02:00</time>
      </trkpt>
      <trkpt lat="45.99457" lon="6.25705">
        <ele>673</ele>
        <time>2016-10-02T16:18:15+02:00</time>
      </trkpt>
      <trkpt lat="45.99458" lon="6.25701">
        <ele>673</ele>
        <time>2016-10-02T16:18:18+02:00</time>
      </trkpt>
      <trkpt lat="45.99459" lon="6.25696">
        <ele>672</ele>
        <time>2016-10-02T16:18:20+02:00</time>
      </trkpt>
      <trkpt lat="45.9946" lon="6.25693">
        <ele>672</ele>
        <time>2016-10-02T16:18:23+02:00</time>
      </trkpt>
      <trkpt lat="45.99461" lon="6.25689">
        <ele>672</ele>
        <time>2016-10-02T16:18:25+02:00</time>
      </trkpt>
      <trkpt lat="45.99462" lon="6.25685">
        <ele>671</ele>
        <time>2016-10-02T16:18:27+02:00</time>
      </trkpt>
      <trkpt lat="45.99462" lon="6.25683">
        <ele>671</ele>
        <time>2016-10-02T16:18:28+02:00</time>
      </trkpt>
      <trkpt lat="45.99463" lon="6.2568">
        <ele>671</ele>
        <time>2016-10-02T16:18:30+02:00</time>
      </trkpt>
      <trkpt lat="45.99464" lon="6.25677">
        <ele>670</ele>
        <time>2016-10-02T16:18:32+02:00</time>
      </trkpt>
      <trkpt lat="45.99465" lon="6.25674">
        <ele>670</ele>
        <time>2016-10-02T16:18:34+02:00</time>
      </trkpt>
      <trkpt lat="45.99465" lon="6.2567">
        <ele>670</ele>
        <time>2016-10-02T16:18:36+02:00</time>
      </trkpt>
      <trkpt lat="45.99466" lon="6.25666">
        <ele>669</ele>
        <time>2016-10-02T16:18:39+02:00</time>
      </trkpt>
      <trkpt lat="45.99468" lon="6.25662">
        <ele>669</ele>
        <time>2016-10-02T16:18:41+02:00</time>
      </trkpt>
      <trkpt lat="45.99469" lon="6.25657">
        <ele>668</ele>
        <time>2016-10-02T16:18:43+02:00</time>
      </trkpt>
      <trkpt lat="45.9947" lon="6.25653">
        <ele>668</ele>
        <time>2016-10-02T16:18:46+02:00</time>
      </trkpt>
      <trkpt lat="45.99471" lon="6.2565">
        <ele>667</ele>
        <time>2016-10-02T16:18:48+02:00</time>
      </trkpt>
      <trkpt lat="45.99472" lon="6.25646">
        <ele>667</ele>
        <time>2016-10-02T16:18:50+02:00</time>
      </trkpt>
      <trkpt lat="45.99473" lon="6.25643">
        <ele>667</ele>
        <time>2016-10-02T16:18:53+02:00</time>
      </trkpt>
      <trkpt lat="45.99474" lon="6.25638">
        <ele>666</ele>
        <time>2016-10-02T16:18:56+02:00</time>
      </trkpt>
      <trkpt lat="45.99475" lon="6.25633">
        <ele>666</ele>
        <time>2016-10-02T16:18:59+02:00</time>
      </trkpt>
      <trkpt lat="45.99475" lon="6.25627">
        <ele>665</ele>
        <time>2016-10-02T16:19:02+02:00</time>
      </trkpt>
      <trkpt lat="45.99476" lon="6.25622">
        <ele>664</ele>
        <time>2016-10-02T16:19:04+02:00</time>
      </trkpt>
      <trkpt lat="45.99477" lon="6.25618">
        <ele>664</ele>
        <time>2016-10-02T16:19:07+02:00</time>
      </trkpt>
      <trkpt lat="45.99477" lon="6.25613">
        <ele>663</ele>
        <time>2016-10-02T16:19:10+02:00</time>
      </trkpt>
      <trkpt lat="45.99478" lon="6.25608">
        <ele>663</ele>
        <time>2016-10-02T16:19:13+02:00</time>
      </trkpt>
      <trkpt lat="45.99479" lon="6.25604">
        <ele>662</ele>
        <time>2016-10-02T16:19:16+02:00</time>
      </trkpt>
      <trkpt lat="45.99481" lon="6.256">
        <ele>662</ele>
        <time>2016-10-02T16:19:18+02:00</time>
      </trkpt>
      <trkpt lat="45.99482" lon="6.25596">
        <ele>661</ele>
        <time>2016-10-02T16:19:21+02:00</time>
      </trkpt>
      <trkpt lat="45.99484" lon="6.25592">
        <ele>661</ele>
        <time>2016-10-02T16:19:23+02:00</time>
      </trkpt>
      <trkpt lat="45.99486" lon="6.25588">
        <ele>661</ele>
        <time>2016-10-02T16:19:26+02:00</time>
      </trkpt>
      <trkpt lat="45.99488" lon="6.25585">
        <ele>660</ele>
        <time>2016-10-02T16:19:28+02:00</time>
      </trkpt>
      <trkpt lat="45.9949" lon="6.25582">
        <ele>660</ele>
        <time>2016-10-02T16:19:31+02:00</time>
      </trkpt>
      <trkpt lat="45.99492" lon="6.25579">
        <ele>660</ele>
        <time>2016-10-02T16:19:33+02:00</time>
      </trkpt>
      <trkpt lat="45.99494" lon="6.25576">
        <ele>660</ele>
        <time>2016-10-02T16:19:35+02:00</time>
      </trkpt>
      <trkpt lat="45.99495" lon="6.25573">
        <ele>659</ele>
        <time>2016-10-02T16:19:38+02:00</time>
      </trkpt>
      <trkpt lat="45.99497" lon="6.25569">
        <ele>659</ele>
        <time>2016-10-02T16:19:40+02:00</time>
      </trkpt>
      <trkpt lat="45.99498" lon="6.25565">
        <ele>659</ele>
        <time>2016-10-02T16:19:43+02:00</time>
      </trkpt>
      <trkpt lat="45.995" lon="6.25562">
        <ele>659</ele>
        <time>2016-10-02T16:19:45+02:00</time>
      </trkpt>
      <trkpt lat="45.99501" lon="6.25558">
        <ele>659</ele>
        <time>2016-10-02T16:19:47+02:00</time>
      </trkpt>
      <trkpt lat="45.99502" lon="6.25555">
        <ele>659</ele>
        <time>2016-10-02T16:19:50+02:00</time>
      </trkpt>
      <trkpt lat="45.99504" lon="6.25551">
        <ele>658</ele>
        <time>2016-10-02T16:19:52+02:00</time>
      </trkpt>
      <trkpt lat="45.99505" lon="6.25547">
        <ele>658</ele>
        <time>2016-10-02T16:19:54+02:00</time>
      </trkpt>
      <trkpt lat="45.99506" lon="6.25544">
        <ele>658</ele>
        <time>2016-10-02T16:19:57+02:00</time>
      </trkpt>
      <trkpt lat="45.99508" lon="6.2554">
        <ele>658</ele>
        <time>2016-10-02T16:19:59+02:00</time>
      </trkpt>
      <trkpt lat="45.99509" lon="6.25537">
        <ele>658</ele>
        <time>2016-10-02T16:20:01+02:00</time>
      </trkpt>
      <trkpt lat="45.9951" lon="6.25533">
        <ele>658</ele>
        <time>2016-10-02T16:20:04+02:00</time>
      </trkpt>
      <trkpt lat="45.9951" lon="6.25529">
        <ele>658</ele>
        <time>2016-10-02T16:20:06+02:00</time>
      </trkpt>
      <trkpt lat="45.99511" lon="6.25525">
        <ele>657</ele>
        <time>2016-10-02T16:20:08+02:00</time>
      </trkpt>
      <trkpt lat="45.99513" lon="6.25522">
        <ele>657</ele>
        <time>2016-10-02T16:20:10+02:00</time>
      </trkpt>
      <trkpt lat="45.99514" lon="6.25519">
        <ele>657</ele>
        <time>2016-10-02T16:20:13+02:00</time>
      </trkpt>
      <trkpt lat="45.99516" lon="6.25515">
        <ele>657</ele>
        <time>2016-10-02T16:20:15+02:00</time>
      </trkpt>
      <trkpt lat="45.99518" lon="6.25512">
        <ele>657</ele>
        <time>2016-10-02T16:20:18+02:00</time>
      </trkpt>
      <trkpt lat="45.99519" lon="6.25509">
        <ele>657</ele>
        <time>2016-10-02T16:20:20+02:00</time>
      </trkpt>
      <trkpt lat="45.99521" lon="6.25506">
        <ele>657</ele>
        <time>2016-10-02T16:20:22+02:00</time>
      </trkpt>
      <trkpt lat="45.99523" lon="6.25502">
        <ele>657</ele>
        <time>2016-10-02T16:20:24+02:00</time>
      </trkpt>
      <trkpt lat="45.99524" lon="6.25499">
        <ele>657</ele>
        <time>2016-10-02T16:20:27+02:00</time>
      </trkpt>
      <trkpt lat="45.99526" lon="6.25495">
        <ele>657</ele>
        <time>2016-10-02T16:20:29+02:00</time>
      </trkpt>
      <trkpt lat="45.99528" lon="6.25491">
        <ele>657</ele>
        <time>2016-10-02T16:20:32+02:00</time>
      </trkpt>
      <trkpt lat="45.99529" lon="6.25488">
        <ele>657</ele>
        <time>2016-10-02T16:20:34+02:00</time>
      </trkpt>
      <trkpt lat="45.99531" lon="6.25484">
        <ele>657</ele>
        <time>2016-10-02T16:20:37+02:00</time>
      </trkpt>
      <trkpt lat="45.99533" lon="6.25481">
        <ele>657</ele>
        <time>2016-10-02T16:20:39+02:00</time>
      </trkpt>
      <trkpt lat="45.99536" lon="6.25478">
        <ele>657</ele>
        <time>2016-10-02T16:20:42+02:00</time>
      </trkpt>
      <trkpt lat="45.99538" lon="6.25475">
        <ele>657</ele>
        <time>2016-10-02T16:20:44+02:00</time>
      </trkpt>
      <trkpt lat="45.9954" lon="6.25471">
        <ele>657</ele>
        <time>2016-10-02T16:20:47+02:00</time>
      </trkpt>
      <trkpt lat="45.99542" lon="6.25468">
        <ele>657</ele>
        <time>2016-10-02T16:20:49+02:00</time>
      </trkpt>
      <trkpt lat="45.99544" lon="6.25464">
        <ele>657</ele>
        <time>2016-10-02T16:20:52+02:00</time>
      </trkpt>
      <trkpt lat="45.99546" lon="6.2546">
        <ele>657</ele>
        <time>2016-10-02T16:20:55+02:00</time>
      </trkpt>
      <trkpt lat="45.99549" lon="6.25455">
        <ele>657</ele>
        <time>2016-10-02T16:20:59+02:00</time>
      </trkpt>
      <trkpt lat="45.99552" lon="6.25449">
        <ele>657</ele>
        <time>2016-10-02T16:21:03+02:00</time>
      </trkpt>
      <trkpt lat="45.99556" lon="6.25441">
        <ele>657</ele>
        <time>2016-10-02T16:21:08+02:00</time>
      </trkpt>
      <trkpt lat="45.99559" lon="6.25434">
        <ele>657</ele>
        <time>2016-10-02T16:21:13+02:00</time>
      </trkpt>
      <trkpt lat="45.99562" lon="6.25427">
        <ele>657</ele>
        <time>2016-10-02T16:21:18+02:00</time>
      </trkpt>
      <trkpt lat="45.99564" lon="6.2542">
        <ele>657</ele>
        <time>2016-10-02T16:21:22+02:00</time>
      </trkpt>
      <trkpt lat="45.99566" lon="6.25414">
        <ele>657</ele>
        <time>2016-10-02T16:21:26+02:00</time>
      </trkpt>
      <trkpt lat="45.99568" lon="6.25407">
        <ele>657</ele>
        <time>2016-10-02T16:21:30+02:00</time>
      </trkpt>
      <trkpt lat="45.99571" lon="6.25401">
        <ele>657</ele>
        <time>2016-10-02T16:21:34+02:00</time>
      </trkpt>
      <trkpt lat="45.99572" lon="6.25394">
        <ele>657</ele>
        <time>2016-10-02T16:21:38+02:00</time>
      </trkpt>
      <trkpt lat="45.99574" lon="6.25388">
        <ele>657</ele>
        <time>2016-10-02T16:21:41+02:00</time>
      </trkpt>
      <trkpt lat="45.99575" lon="6.25383">
        <ele>657</ele>
        <time>2016-10-02T16:21:45+02:00</time>
      </trkpt>
      <trkpt lat="45.99577" lon="6.25377">
        <ele>658</ele>
        <time>2016-10-02T16:21:48+02:00</time>
      </trkpt>
      <trkpt lat="45.99579" lon="6.25371">
        <ele>658</ele>
        <time>2016-10-02T16:21:52+02:00</time>
      </trkpt>
      <trkpt lat="45.99581" lon="6.25365">
        <ele>658</ele>
        <time>2016-10-02T16:21:56+02:00</time>
      </trkpt>
      <trkpt lat="45.99583" lon="6.25359">
        <ele>658</ele>
        <time>2016-10-02T16:22:00+02:00</time>
      </trkpt>
      <trkpt lat="45.99585" lon="6.25354">
        <ele>658</ele>
        <time>2016-10-02T16:22:03+02:00</time>
      </trkpt>
      <trkpt lat="45.99587" lon="6.2535">
        <ele>658</ele>
        <time>2016-10-02T16:22:06+02:00</time>
      </trkpt>
      <trkpt lat="45.99589" lon="6.25346">
        <ele>658</ele>
        <time>2016-10-02T16:22:09+02:00</time>
      </trkpt>
      <trkpt lat="45.9959" lon="6.25342">
        <ele>658</ele>
        <time>2016-10-02T16:22:11+02:00</time>
      </trkpt>
      <trkpt lat="45.99592" lon="6.25338">
        <ele>658</ele>
        <time>2016-10-02T16:22:14+02:00</time>
      </trkpt>
      <trkpt lat="45.99594" lon="6.25333">
        <ele>658</ele>
        <time>2016-10-02T16:22:17+02:00</time>
      </trkpt>
      <trkpt lat="45.99596" lon="6.25329">
        <ele>659</ele>
        <time>2016-10-02T16:22:20+02:00</time>
      </trkpt>
      <trkpt lat="45.99598" lon="6.25324">
        <ele>659</ele>
        <time>2016-10-02T16:22:23+02:00</time>
      </trkpt>
      <trkpt lat="45.996" lon="6.2532">
        <ele>659</ele>
        <time>2016-10-02T16:22:26+02:00</time>
      </trkpt>
      <trkpt lat="45.99602" lon="6.25316">
        <ele>659</ele>
        <time>2016-10-02T16:22:29+02:00</time>
      </trkpt>
      <trkpt lat="45.99605" lon="6.25313">
        <ele>660</ele>
        <time>2016-10-02T16:22:32+02:00</time>
      </trkpt>
      <trkpt lat="45.99607" lon="6.25309">
        <ele>660</ele>
        <time>2016-10-02T16:22:35+02:00</time>
      </trkpt>
      <trkpt lat="45.9961" lon="6.25306">
        <ele>660</ele>
        <time>2016-10-02T16:22:38+02:00</time>
      </trkpt>
      <trkpt lat="45.99612" lon="6.25302">
        <ele>660</ele>
        <time>2016-10-02T16:22:40+02:00</time>
      </trkpt>
      <trkpt lat="45.99614" lon="6.25299">
        <ele>660</ele>
        <time>2016-10-02T16:22:43+02:00</time>
      </trkpt>
      <trkpt lat="45.99616" lon="6.25296">
        <ele>661</ele>
        <time>2016-10-02T16:22:45+02:00</time>
      </trkpt>
      <trkpt lat="45.99617" lon="6.25293">
        <ele>661</ele>
        <time>2016-10-02T16:22:47+02:00</time>
      </trkpt>
      <trkpt lat="45.99619" lon="6.2529">
        <ele>661</ele>
        <time>2016-10-02T16:22:49+02:00</time>
      </trkpt>
      <trkpt lat="45.99621" lon="6.25287">
        <ele>661</ele>
        <time>2016-10-02T16:22:52+02:00</time>
      </trkpt>
      <trkpt lat="45.99623" lon="6.25284">
        <ele>661</ele>
        <time>2016-10-02T16:22:54+02:00</time>
      </trkpt>
      <trkpt lat="45.99625" lon="6.25281">
        <ele>661</ele>
        <time>2016-10-02T16:22:56+02:00</time>
      </trkpt>
      <trkpt lat="45.99626" lon="6.25278">
        <ele>662</ele>
        <time>2016-10-02T16:22:58+02:00</time>
      </trkpt>
      <trkpt lat="45.99626" lon="6.25274">
        <ele>662</ele>
        <time>2016-10-02T16:23:00+02:00</time>
      </trkpt>
      <trkpt lat="45.99627" lon="6.2527">
        <ele>662</ele>
        <time>2016-10-02T16:23:03+02:00</time>
      </trkpt>
      <trkpt lat="45.99627" lon="6.25267">
        <ele>662</ele>
        <time>2016-10-02T16:23:05+02:00</time>
      </trkpt>
      <trkpt lat="45.99628" lon="6.25264">
        <ele>662</ele>
        <time>2016-10-02T16:23:07+02:00</time>
      </trkpt>
      <trkpt lat="45.99629" lon="6.25261">
        <ele>662</ele>
        <time>2016-10-02T16:23:08+02:00</time>
      </trkpt>
      <trkpt lat="45.99631" lon="6.25258">
        <ele>662</ele>
        <time>2016-10-02T16:23:10+02:00</time>
      </trkpt>
      <trkpt lat="45.99632" lon="6.25256">
        <ele>663</ele>
        <time>2016-10-02T16:23:12+02:00</time>
      </trkpt>
      <trkpt lat="45.99633" lon="6.25254">
        <ele>663</ele>
        <time>2016-10-02T16:23:13+02:00</time>
      </trkpt>
      <trkpt lat="45.99633" lon="6.25251">
        <ele>663</ele>
        <time>2016-10-02T16:23:15+02:00</time>
      </trkpt>
      <trkpt lat="45.99633" lon="6.25247">
        <ele>663</ele>
        <time>2016-10-02T16:23:17+02:00</time>
      </trkpt>
      <trkpt lat="45.99633" lon="6.25244">
        <ele>663</ele>
        <time>2016-10-02T16:23:19+02:00</time>
      </trkpt>
      <trkpt lat="45.99632" lon="6.25242">
        <ele>663</ele>
        <time>2016-10-02T16:23:21+02:00</time>
      </trkpt>
      <trkpt lat="45.9963" lon="6.25239">
        <ele>663</ele>
        <time>2016-10-02T16:23:22+02:00</time>
      </trkpt>
      <trkpt lat="45.99629" lon="6.25237">
        <ele>663</ele>
        <time>2016-10-02T16:23:24+02:00</time>
      </trkpt>
      <trkpt lat="45.99629" lon="6.25237">
        <ele>663</ele>
        <time>2016-10-02T16:23:24+02:00</time>
      </trkpt>
      <trkpt lat="45.99629" lon="6.25237">
        <ele>663</ele>
        <time>2016-10-02T16:23:24+02:00</time>
      </trkpt>
      <trkpt lat="45.99629" lon="6.25237">
        <ele>663</ele>
        <time>2016-10-02T16:23:24+02:00</time>
      </trkpt>
      <trkpt lat="45.99629" lon="6.25237">
        <ele>663</ele>
        <time>2016-10-02T16:23:25+02:00</time>
      </trkpt>
      <trkpt lat="45.99629" lon="6.25236">
        <ele>663</ele>
        <time>2016-10-02T16:23:25+02:00</time>
      </trkpt>
      <trkpt lat="45.99628" lon="6.25236">
        <ele>663</ele>
        <time>2016-10-02T16:23:25+02:00</time>
      </trkpt>
      <trkpt lat="45.99628" lon="6.25236">
        <ele>663</ele>
        <time>2016-10-02T16:23:25+02:00</time>
      </trkpt>
      <trkpt lat="45.99628" lon="6.25236">
        <ele>663</ele>
        <time>2016-10-02T16:23:25+02:00</time>
      </trkpt>
      <trkpt lat="45.99628" lon="6.25236">
        <ele>663</ele>
        <time>2016-10-02T16:23:25+02:00</time>
      </trkpt>
      <trkpt lat="45.99628" lon="6.25236">
        <ele>663</ele>
        <time>2016-10-02T16:23:25+02:00</time>
      </trkpt>
      <trkpt lat="45.99628" lon="6.25236">
        <ele>663</ele>
        <time>2016-10-02T16:23:25+02:00</time>
      </trkpt>
      <trkpt lat="45.99628" lon="6.25236">
        <ele>663</ele>
        <time>2016-10-02T16:23:25+02:00</time>
      </trkpt>
      <trkpt lat="45.99628" lon="6.25235">
        <ele>663</ele>
        <time>2016-10-02T16:23:25+02:00</time>
      </trkpt>
      <trkpt lat="45.99628" lon="6.25235">
        <ele>663</ele>
        <time>2016-10-02T16:23:26+02:00</time>
      </trkpt>
      <trkpt lat="45.99628" lon="6.25235">
        <ele>663</ele>
        <time>2016-10-02T16:23:26+02:00</time>
      </trkpt>
      <trkpt lat="45.99628" lon="6.25235">
        <ele>663</ele>
        <time>2016-10-02T16:23:26+02:00</time>
      </trkpt>
      <trkpt lat="45.99628" lon="6.25235">
        <ele>663</ele>
        <time>2016-10-02T16:23:26+02:00</time>
      </trkpt>
      <trkpt lat="45.99628" lon="6.25234">
        <ele>663</ele>
        <time>2016-10-02T16:23:26+02:00</time>
      </trkpt>
      <trkpt lat="45.99628" lon="6.25234">
        <ele>663</ele>
        <time>2016-10-02T16:23:26+02:00</time>
      </trkpt>
      <trkpt lat="45.99628" lon="6.25234">
        <ele>663</ele>
        <time>2016-10-02T16:23:26+02:00</time>
      </trkpt>
      <trkpt lat="45.99628" lon="6.25234">
        <ele>663</ele>
        <time>2016-10-02T16:23:27+02:00</time>
      </trkpt>
      <trkpt lat="45.99628" lon="6.25234">
        <ele>663</ele>
        <time>2016-10-02T16:23:27+02:00</time>
      </trkpt>
      <trkpt lat="45.99628" lon="6.25234">
        <ele>663</ele>
        <time>2016-10-02T16:23:27+02:00</time>
      </trkpt>
      <trkpt lat="45.99628" lon="6.25234">
        <ele>663</ele>
        <time>2016-10-02T16:23:27+02:00</time>
      </trkpt>
      <trkpt lat="45.99628" lon="6.25234">
        <ele>663</ele>
        <time>2016-10-02T16:23:27+02:00</time>
      </trkpt>
      <trkpt lat="45.99628" lon="6.25234">
        <ele>663</ele>
        <time>2016-10-02T16:23:28+02:00</time>
      </trkpt>
      <trkpt lat="45.99628" lon="6.25233">
        <ele>663</ele>
        <time>2016-10-02T16:23:28+02:00</time>
      </trkpt>
      <trkpt lat="45.99627" lon="6.25233">
        <ele>663</ele>
        <time>2016-10-02T16:23:28+02:00</time>
      </trkpt>
      <trkpt lat="45.99627" lon="6.25233">
        <ele>663</ele>
        <time>2016-10-02T16:23:28+02:00</time>
      </trkpt>
      <trkpt lat="45.99627" lon="6.25234">
        <ele>663</ele>
        <time>2016-10-02T16:23:28+02:00</time>
      </trkpt>
      <trkpt lat="45.99627" lon="6.25234">
        <ele>663</ele>
        <time>2016-10-02T16:23:28+02:00</time>
      </trkpt>
      <trkpt lat="45.99628" lon="6.25234">
        <ele>663</ele>
        <time>2016-10-02T16:23:28+02:00</time>
      </trkpt>
      <trkpt lat="45.99628" lon="6.25234">
        <ele>663</ele>
        <time>2016-10-02T16:23:28+02:00</time>
      </trkpt>
      <trkpt lat="45.99628" lon="6.25234">
        <ele>663</ele>
        <time>2016-10-02T16:23:28+02:00</time>
      </trkpt>
      <trkpt lat="45.99628" lon="6.25234">
        <ele>663</ele>
        <time>2016-10-02T16:23:28+02:00</time>
      </trkpt>
      <trkpt lat="45.99628" lon="6.25234">
        <ele>663</ele>
        <time>2016-10-02T16:23:28+02:00</time>
      </trkpt>
      <trkpt lat="45.99628" lon="6.25234">
        <ele>663</ele>
        <time>2016-10-02T16:23:29+02:00</time>
      </trkpt>
      <trkpt lat="45.99627" lon="6.25234">
        <ele>663</ele>
        <time>2016-10-02T16:23:29+02:00</time>
      </trkpt>
      <trkpt lat="45.99628" lon="6.25234">
        <ele>663</ele>
        <time>2016-10-02T16:23:29+02:00</time>
      </trkpt>
      <trkpt lat="45.99628" lon="6.25234">
        <ele>663</ele>
        <time>2016-10-02T16:23:29+02:00</time>
      </trkpt>
      <trkpt lat="45.99628" lon="6.25234">
        <ele>663</ele>
        <time>2016-10-02T16:23:29+02:00</time>
      </trkpt>
      <trkpt lat="45.99628" lon="6.25234">
        <ele>663</ele>
        <time>2016-10-02T16:23:29+02:00</time>
      </trkpt>
      <trkpt lat="45.99628" lon="6.25233">
        <ele>663</ele>
        <time>2016-10-02T16:23:29+02:00</time>
      </trkpt>
      <trkpt lat="45.99628" lon="6.25233">
        <ele>663</ele>
        <time>2016-10-02T16:23:29+02:00</time>
      </trkpt>
      <trkpt lat="45.99628" lon="6.25233">
        <ele>663</ele>
        <time>2016-10-02T16:23:29+02:00</time>
      </trkpt>
      <trkpt lat="45.99628" lon="6.25233">
        <ele>663</ele>
        <time>2016-10-02T16:23:29+02:00</time>
      </trkpt>
      <trkpt lat="45.99628" lon="6.25233">
        <ele>663</ele>
        <time>2016-10-02T16:23:29+02:00</time>
      </trkpt>
      <trkpt lat="45.99628" lon="6.25233">
        <ele>663</ele>
        <time>2016-10-02T16:23:29+02:00</time>
      </trkpt>
      <trkpt lat="45.99628" lon="6.25233">
        <ele>663</ele>
        <time>2016-10-02T16:23:29+02:00</time>
      </trkpt>
      <trkpt lat="45.99628" lon="6.25233">
        <ele>663</ele>
        <time>2016-10-02T16:23:29+02:00</time>
      </trkpt>
      <trkpt lat="45.99628" lon="6.25233">
        <ele>663</ele>
        <time>2016-10-02T16:23:29+02:00</time>
      </trkpt>
      <trkpt lat="45.99628" lon="6.25233">
        <ele>663</ele>
        <time>2016-10-02T16:23:30+02:00</time>
      </trkpt>
      <trkpt lat="45.99628" lon="6.25233">
        <ele>663</ele>
        <time>2016-10-02T16:23:30+02:00</time>
      </trkpt>
      <trkpt lat="45.99628" lon="6.25233">
        <ele>663</ele>
        <time>2016-10-02T16:23:30+02:00</time>
      </trkpt>
      <trkpt lat="45.99627" lon="6.25233">
        <ele>663</ele>
        <time>2016-10-02T16:23:30+02:00</time>
      </trkpt>
      <trkpt lat="45.99627" lon="6.25233">
        <ele>663</ele>
        <time>2016-10-02T16:23:30+02:00</time>
      </trkpt>
      <trkpt lat="45.99627" lon="6.25233">
        <ele>663</ele>
        <time>2016-10-02T16:23:30+02:00</time>
      </trkpt>
      <trkpt lat="45.99627" lon="6.25233">
        <ele>663</ele>
        <time>2016-10-02T16:23:30+02:00</time>
      </trkpt>
      <trkpt lat="45.99627" lon="6.25233">
        <ele>663</ele>
        <time>2016-10-02T16:23:30+02:00</time>
      </trkpt>
      <trkpt lat="45.99627" lon="6.25233">
        <ele>663</ele>
        <time>2016-10-02T16:23:30+02:00</time>
      </trkpt>
      <trkpt lat="45.99627" lon="6.25233">
        <ele>663</ele>
        <time>2016-10-02T16:23:30+02:00</time>
      </trkpt>
      <trkpt lat="45.99627" lon="6.25233">
        <ele>663</ele>
        <time>2016-10-02T16:23:30+02:00</time>
      </trkpt>
      <trkpt lat="45.99627" lon="6.25233">
        <ele>663</ele>
        <time>2016-10-02T16:23:30+02:00</time>
      </trkpt>
      <trkpt lat="45.99627" lon="6.25232">
        <ele>663</ele>
        <time>2016-10-02T16:23:31+02:00</time>
      </trkpt>
      <trkpt lat="45.99627" lon="6.25231">
        <ele>663</ele>
        <time>2016-10-02T16:23:31+02:00</time>
      </trkpt>
      <trkpt lat="45.99626" lon="6.2523">
        <ele>663</ele>
        <time>2016-10-02T16:23:32+02:00</time>
      </trkpt>
      <trkpt lat="45.99626" lon="6.25228">
        <ele>663</ele>
        <time>2016-10-02T16:23:33+02:00</time>
      </trkpt>
      <trkpt lat="45.99626" lon="6.25227">
        <ele>663</ele>
        <time>2016-10-02T16:23:34+02:00</time>
      </trkpt>
      <trkpt lat="45.99625" lon="6.25225">
        <ele>663</ele>
        <time>2016-10-02T16:23:35+02:00</time>
      </trkpt>
      <trkpt lat="45.99625" lon="6.25223">
        <ele>663</ele>
        <time>2016-10-02T16:23:36+02:00</time>
      </trkpt>
      <trkpt lat="45.99624" lon="6.25222">
        <ele>663</ele>
        <time>2016-10-02T16:23:37+02:00</time>
      </trkpt>
      <trkpt lat="45.99624" lon="6.2522">
        <ele>663</ele>
        <time>2016-10-02T16:23:38+02:00</time>
      </trkpt>
      <trkpt lat="45.99623" lon="6.25219">
        <ele>663</ele>
        <time>2016-10-02T16:23:39+02:00</time>
      </trkpt>
      <trkpt lat="45.99623" lon="6.25217">
        <ele>663</ele>
        <time>2016-10-02T16:23:40+02:00</time>
      </trkpt>
      <trkpt lat="45.99622" lon="6.25215">
        <ele>663</ele>
        <time>2016-10-02T16:23:42+02:00</time>
      </trkpt>
      <trkpt lat="45.99622" lon="6.25212">
        <ele>663</ele>
        <time>2016-10-02T16:23:43+02:00</time>
      </trkpt>
      <trkpt lat="45.99622" lon="6.2521">
        <ele>663</ele>
        <time>2016-10-02T16:23:44+02:00</time>
      </trkpt>
      <trkpt lat="45.99621" lon="6.25208">
        <ele>663</ele>
        <time>2016-10-02T16:23:45+02:00</time>
      </trkpt>
      <trkpt lat="45.99622" lon="6.25207">
        <ele>663</ele>
        <time>2016-10-02T16:23:46+02:00</time>
      </trkpt>
      <trkpt lat="45.99622" lon="6.25205">
        <ele>663</ele>
        <time>2016-10-02T16:23:47+02:00</time>
      </trkpt>
      <trkpt lat="45.99622" lon="6.25203">
        <ele>663</ele>
        <time>2016-10-02T16:23:48+02:00</time>
      </trkpt>
      <trkpt lat="45.99621" lon="6.25201">
        <ele>664</ele>
        <time>2016-10-02T16:23:49+02:00</time>
      </trkpt>
      <trkpt lat="45.99621" lon="6.25199">
        <ele>664</ele>
        <time>2016-10-02T16:23:51+02:00</time>
      </trkpt>
      <trkpt lat="45.99621" lon="6.25197">
        <ele>664</ele>
        <time>2016-10-02T16:23:52+02:00</time>
      </trkpt>
      <trkpt lat="45.99621" lon="6.25195">
        <ele>664</ele>
        <time>2016-10-02T16:23:53+02:00</time>
      </trkpt>
      <trkpt lat="45.99621" lon="6.25192">
        <ele>664</ele>
        <time>2016-10-02T16:23:55+02:00</time>
      </trkpt>
      <trkpt lat="45.99621" lon="6.25189">
        <ele>664</ele>
        <time>2016-10-02T16:23:56+02:00</time>
      </trkpt>
      <trkpt lat="45.99621" lon="6.25186">
        <ele>664</ele>
        <time>2016-10-02T16:23:58+02:00</time>
      </trkpt>
      <trkpt lat="45.99621" lon="6.25183">
        <ele>664</ele>
        <time>2016-10-02T16:23:59+02:00</time>
      </trkpt>
      <trkpt lat="45.99621" lon="6.25181">
        <ele>664</ele>
        <time>2016-10-02T16:24:01+02:00</time>
      </trkpt>
      <trkpt lat="45.99621" lon="6.25178">
        <ele>664</ele>
        <time>2016-10-02T16:24:02+02:00</time>
      </trkpt>
      <trkpt lat="45.99621" lon="6.25175">
        <ele>664</ele>
        <time>2016-10-02T16:24:04+02:00</time>
      </trkpt>
      <trkpt lat="45.99621" lon="6.25173">
        <ele>664</ele>
        <time>2016-10-02T16:24:05+02:00</time>
      </trkpt>
      <trkpt lat="45.99621" lon="6.2517">
        <ele>664</ele>
        <time>2016-10-02T16:24:07+02:00</time>
      </trkpt>
      <trkpt lat="45.99621" lon="6.25168">
        <ele>664</ele>
        <time>2016-10-02T16:24:08+02:00</time>
      </trkpt>
      <trkpt lat="45.99622" lon="6.25165">
        <ele>664</ele>
        <time>2016-10-02T16:24:10+02:00</time>
      </trkpt>
      <trkpt lat="45.99622" lon="6.25162">
        <ele>665</ele>
        <time>2016-10-02T16:24:11+02:00</time>
      </trkpt>
      <trkpt lat="45.99623" lon="6.2516">
        <ele>665</ele>
        <time>2016-10-02T16:24:13+02:00</time>
      </trkpt>
      <trkpt lat="45.99623" lon="6.25157">
        <ele>665</ele>
        <time>2016-10-02T16:24:14+02:00</time>
      </trkpt>
      <trkpt lat="45.99624" lon="6.25155">
        <ele>665</ele>
        <time>2016-10-02T16:24:16+02:00</time>
      </trkpt>
      <trkpt lat="45.99625" lon="6.25152">
        <ele>665</ele>
        <time>2016-10-02T16:24:17+02:00</time>
      </trkpt>
      <trkpt lat="45.99626" lon="6.2515">
        <ele>665</ele>
        <time>2016-10-02T16:24:19+02:00</time>
      </trkpt>
      <trkpt lat="45.99627" lon="6.25148">
        <ele>665</ele>
        <time>2016-10-02T16:24:21+02:00</time>
      </trkpt>
      <trkpt lat="45.99629" lon="6.25145">
        <ele>665</ele>
        <time>2016-10-02T16:24:22+02:00</time>
      </trkpt>
      <trkpt lat="45.9963" lon="6.25143">
        <ele>665</ele>
        <time>2016-10-02T16:24:24+02:00</time>
      </trkpt>
      <trkpt lat="45.99631" lon="6.25141">
        <ele>666</ele>
        <time>2016-10-02T16:24:26+02:00</time>
      </trkpt>
      <trkpt lat="45.99632" lon="6.25138">
        <ele>666</ele>
        <time>2016-10-02T16:24:27+02:00</time>
      </trkpt>
      <trkpt lat="45.99633" lon="6.25135">
        <ele>666</ele>
        <time>2016-10-02T16:24:29+02:00</time>
      </trkpt>
      <trkpt lat="45.99633" lon="6.25132">
        <ele>666</ele>
        <time>2016-10-02T16:24:31+02:00</time>
      </trkpt>
      <trkpt lat="45.99634" lon="6.25129">
        <ele>666</ele>
        <time>2016-10-02T16:24:33+02:00</time>
      </trkpt>
      <trkpt lat="45.99634" lon="6.25125">
        <ele>666</ele>
        <time>2016-10-02T16:24:35+02:00</time>
      </trkpt>
      <trkpt lat="45.99634" lon="6.25121">
        <ele>666</ele>
        <time>2016-10-02T16:24:37+02:00</time>
      </trkpt>
      <trkpt lat="45.99635" lon="6.25117">
        <ele>666</ele>
        <time>2016-10-02T16:24:39+02:00</time>
      </trkpt>
      <trkpt lat="45.99635" lon="6.25113">
        <ele>667</ele>
        <time>2016-10-02T16:24:41+02:00</time>
      </trkpt>
      <trkpt lat="45.99635" lon="6.25109">
        <ele>667</ele>
        <time>2016-10-02T16:24:44+02:00</time>
      </trkpt>
      <trkpt lat="45.99636" lon="6.25105">
        <ele>667</ele>
        <time>2016-10-02T16:24:46+02:00</time>
      </trkpt>
      <trkpt lat="45.99637" lon="6.25101">
        <ele>667</ele>
        <time>2016-10-02T16:24:48+02:00</time>
      </trkpt>
      <trkpt lat="45.99637" lon="6.25097">
        <ele>667</ele>
        <time>2016-10-02T16:24:51+02:00</time>
      </trkpt>
      <trkpt lat="45.99638" lon="6.25093">
        <ele>667</ele>
        <time>2016-10-02T16:24:53+02:00</time>
      </trkpt>
      <trkpt lat="45.99638" lon="6.25088">
        <ele>667</ele>
        <time>2016-10-02T16:24:55+02:00</time>
      </trkpt>
      <trkpt lat="45.99639" lon="6.25084">
        <ele>668</ele>
        <time>2016-10-02T16:24:58+02:00</time>
      </trkpt>
      <trkpt lat="45.9964" lon="6.2508">
        <ele>668</ele>
        <time>2016-10-02T16:25:00+02:00</time>
      </trkpt>
      <trkpt lat="45.99641" lon="6.25076">
        <ele>668</ele>
        <time>2016-10-02T16:25:02+02:00</time>
      </trkpt>
      <trkpt lat="45.99642" lon="6.25073">
        <ele>668</ele>
        <time>2016-10-02T16:25:05+02:00</time>
      </trkpt>
      <trkpt lat="45.99643" lon="6.25069">
        <ele>668</ele>
        <time>2016-10-02T16:25:07+02:00</time>
      </trkpt>
      <trkpt lat="45.99644" lon="6.25065">
        <ele>668</ele>
        <time>2016-10-02T16:25:09+02:00</time>
      </trkpt>
      <trkpt lat="45.99645" lon="6.25061">
        <ele>669</ele>
        <time>2016-10-02T16:25:12+02:00</time>
      </trkpt>
      <trkpt lat="45.99646" lon="6.25057">
        <ele>669</ele>
        <time>2016-10-02T16:25:14+02:00</time>
      </trkpt>
      <trkpt lat="45.99647" lon="6.25053">
        <ele>669</ele>
        <time>2016-10-02T16:25:16+02:00</time>
      </trkpt>
      <trkpt lat="45.99648" lon="6.25049">
        <ele>669</ele>
        <time>2016-10-02T16:25:19+02:00</time>
      </trkpt>
      <trkpt lat="45.99648" lon="6.25046">
        <ele>669</ele>
        <time>2016-10-02T16:25:21+02:00</time>
      </trkpt>
      <trkpt lat="45.99649" lon="6.25043">
        <ele>669</ele>
        <time>2016-10-02T16:25:23+02:00</time>
      </trkpt>
      <trkpt lat="45.9965" lon="6.25039">
        <ele>670</ele>
        <time>2016-10-02T16:25:25+02:00</time>
      </trkpt>
      <trkpt lat="45.99652" lon="6.25036">
        <ele>670</ele>
        <time>2016-10-02T16:25:27+02:00</time>
      </trkpt>
      <trkpt lat="45.99653" lon="6.25032">
        <ele>670</ele>
        <time>2016-10-02T16:25:29+02:00</time>
      </trkpt>
      <trkpt lat="45.99654" lon="6.25028">
        <ele>670</ele>
        <time>2016-10-02T16:25:31+02:00</time>
      </trkpt>
      <trkpt lat="45.99655" lon="6.25025">
        <ele>670</ele>
        <time>2016-10-02T16:25:33+02:00</time>
      </trkpt>
      <trkpt lat="45.99656" lon="6.25021">
        <ele>671</ele>
        <time>2016-10-02T16:25:36+02:00</time>
      </trkpt>
      <trkpt lat="45.99657" lon="6.25017">
        <ele>671</ele>
        <time>2016-10-02T16:25:38+02:00</time>
      </trkpt>
      <trkpt lat="45.99657" lon="6.25013">
        <ele>671</ele>
        <time>2016-10-02T16:25:41+02:00</time>
      </trkpt>
      <trkpt lat="45.99657" lon="6.25009">
        <ele>671</ele>
        <time>2016-10-02T16:25:43+02:00</time>
      </trkpt>
      <trkpt lat="45.99657" lon="6.25005">
        <ele>671</ele>
        <time>2016-10-02T16:25:45+02:00</time>
      </trkpt>
      <trkpt lat="45.99657" lon="6.25001">
        <ele>671</ele>
        <time>2016-10-02T16:25:47+02:00</time>
      </trkpt>
      <trkpt lat="45.99658" lon="6.24997">
        <ele>671</ele>
        <time>2016-10-02T16:25:50+02:00</time>
      </trkpt>
      <trkpt lat="45.99658" lon="6.24993">
        <ele>671</ele>
        <time>2016-10-02T16:25:52+02:00</time>
      </trkpt>
      <trkpt lat="45.99658" lon="6.24989">
        <ele>671</ele>
        <time>2016-10-02T16:25:54+02:00</time>
      </trkpt>
      <trkpt lat="45.99659" lon="6.24985">
        <ele>671</ele>
        <time>2016-10-02T16:25:56+02:00</time>
      </trkpt>
      <trkpt lat="45.9966" lon="6.24981">
        <ele>671</ele>
        <time>2016-10-02T16:25:59+02:00</time>
      </trkpt>
      <trkpt lat="45.99661" lon="6.24977">
        <ele>671</ele>
        <time>2016-10-02T16:26:01+02:00</time>
      </trkpt>
      <trkpt lat="45.99662" lon="6.24972">
        <ele>671</ele>
        <time>2016-10-02T16:26:04+02:00</time>
      </trkpt>
      <trkpt lat="45.99662" lon="6.24968">
        <ele>671</ele>
        <time>2016-10-02T16:26:06+02:00</time>
      </trkpt>
      <trkpt lat="45.99663" lon="6.24964">
        <ele>671</ele>
        <time>2016-10-02T16:26:08+02:00</time>
      </trkpt>
      <trkpt lat="45.99664" lon="6.24961">
        <ele>671</ele>
        <time>2016-10-02T16:26:11+02:00</time>
      </trkpt>
      <trkpt lat="45.99666" lon="6.24958">
        <ele>671</ele>
        <time>2016-10-02T16:26:13+02:00</time>
      </trkpt>
      <trkpt lat="45.99668" lon="6.24955">
        <ele>672</ele>
        <time>2016-10-02T16:26:15+02:00</time>
      </trkpt>
      <trkpt lat="45.9967" lon="6.24953">
        <ele>672</ele>
        <time>2016-10-02T16:26:17+02:00</time>
      </trkpt>
      <trkpt lat="45.99673" lon="6.24952">
        <ele>672</ele>
        <time>2016-10-02T16:26:19+02:00</time>
      </trkpt>
      <trkpt lat="45.99675" lon="6.24951">
        <ele>672</ele>
        <time>2016-10-02T16:26:21+02:00</time>
      </trkpt>
      <trkpt lat="45.99677" lon="6.24951">
        <ele>672</ele>
        <time>2016-10-02T16:26:23+02:00</time>
      </trkpt>
      <trkpt lat="45.9968" lon="6.24951">
        <ele>672</ele>
        <time>2016-10-02T16:26:25+02:00</time>
      </trkpt>
      <trkpt lat="45.99683" lon="6.24953">
        <ele>673</ele>
        <time>2016-10-02T16:26:27+02:00</time>
      </trkpt>
      <trkpt lat="45.99685" lon="6.24954">
        <ele>673</ele>
        <time>2016-10-02T16:26:30+02:00</time>
      </trkpt>
      <trkpt lat="45.99688" lon="6.24955">
        <ele>673</ele>
        <time>2016-10-02T16:26:32+02:00</time>
      </trkpt>
      <trkpt lat="45.9969" lon="6.24956">
        <ele>673</ele>
        <time>2016-10-02T16:26:34+02:00</time>
      </trkpt>
      <trkpt lat="45.99692" lon="6.24957">
        <ele>673</ele>
        <time>2016-10-02T16:26:35+02:00</time>
      </trkpt>
      <trkpt lat="45.99694" lon="6.24958">
        <ele>673</ele>
        <time>2016-10-02T16:26:37+02:00</time>
      </trkpt>
      <trkpt lat="45.99697" lon="6.2496">
        <ele>674</ele>
        <time>2016-10-02T16:26:39+02:00</time>
      </trkpt>
      <trkpt lat="45.99699" lon="6.2496">
        <ele>674</ele>
        <time>2016-10-02T16:26:41+02:00</time>
      </trkpt>
      <trkpt lat="45.99701" lon="6.24962">
        <ele>674</ele>
        <time>2016-10-02T16:26:43+02:00</time>
      </trkpt>
      <trkpt lat="45.99704" lon="6.24963">
        <ele>674</ele>
        <time>2016-10-02T16:26:45+02:00</time>
      </trkpt>
      <trkpt lat="45.99706" lon="6.24966">
        <ele>674</ele>
        <time>2016-10-02T16:26:48+02:00</time>
      </trkpt>
      <trkpt lat="45.99709" lon="6.24968">
        <ele>675</ele>
        <time>2016-10-02T16:26:50+02:00</time>
      </trkpt>
      <trkpt lat="45.99712" lon="6.24971">
        <ele>675</ele>
        <time>2016-10-02T16:26:53+02:00</time>
      </trkpt>
      <trkpt lat="45.99714" lon="6.24974">
        <ele>675</ele>
        <time>2016-10-02T16:26:56+02:00</time>
      </trkpt>
      <trkpt lat="45.99717" lon="6.24976">
        <ele>675</ele>
        <time>2016-10-02T16:26:58+02:00</time>
      </trkpt>
      <trkpt lat="45.99719" lon="6.24979">
        <ele>676</ele>
        <time>2016-10-02T16:27:00+02:00</time>
      </trkpt>
      <trkpt lat="45.99722" lon="6.24981">
        <ele>676</ele>
        <time>2016-10-02T16:27:03+02:00</time>
      </trkpt>
      <trkpt lat="45.99724" lon="6.24983">
        <ele>676</ele>
        <time>2016-10-02T16:27:05+02:00</time>
      </trkpt>
      <trkpt lat="45.99727" lon="6.24985">
        <ele>676</ele>
        <time>2016-10-02T16:27:07+02:00</time>
      </trkpt>
      <trkpt lat="45.9973" lon="6.24987">
        <ele>676</ele>
        <time>2016-10-02T16:27:10+02:00</time>
      </trkpt>
      <trkpt lat="45.99733" lon="6.24989">
        <ele>677</ele>
        <time>2016-10-02T16:27:12+02:00</time>
      </trkpt>
      <trkpt lat="45.99736" lon="6.24981">
        <ele>677</ele>
        <time>2016-10-02T16:27:18+02:00</time>
      </trkpt>
    </trkseg>
  </trk>
</gpx>